/BCO-DMO/OA_Stress_in_Mya_arenaria/cruise_underway --day eq 16-- Level 1

      Directory  DocumentationDownload and Other Operations...

        Level 0 - At last level -       Flat list

# Underway Carbon Dioxide
# PI: Mark Green (St. Joseph's College of Maine)
# Co-PI: Joe Salisbury (UNH)
# Additional Investigators: Joe Salisbury, Doug Vandemark, Ru Morrison, Chris Hunt
# Contact: Shawn Shellito (UNH)
# Version 26 February 2015
# 
#  See headeers from original data files for processing dates and temperature offsets.
=========================
date      month  day  year  day_of_year  
-------------------------
20080116  01     16   2008  16           
=========================
time        secDay  lat      lon       heading  speed  temp       sal        pressure_atm  xCO2_w        fCO2_w        xCO2_a        fCO2_a        air_temp      ISO_DateTime_UTC  
-------------------------
1200.0000   43200   43.0759  -70.7492  183.0    0.1    nd         nd         1015.6        nd            nd            nd            nd            -4.150000     2008-01-16T12:00:00.00Z  
1200.3326   43220   43.0758  -70.7492  217.0    0.0    nd         nd         1015.6        nd            nd            nd            nd            -4.200000     2008-01-16T12:00:19.96Z  
1200.6667   43240   43.0758  -70.7492  214.0    0.0    nd         nd         1015.6        nd            nd            nd            nd            -4.200000     2008-01-16T12:00:40.00Z  
1200.9994   43260   43.0758  -70.7492  209.0    0.0    nd         nd         1015.6        nd            nd            nd            nd            -4.200000     2008-01-16T12:00:59.96Z  
1201.3334   43280   43.0758  -70.7492  208.0    0.0    nd         nd         1015.6        nd            nd            nd            nd            -4.200000     2008-01-16T12:01:20.00Z  
1201.6661   43300   43.0758  -70.7492  222.0    0.0    nd         nd         1015.6        nd            nd            nd            nd            -4.200000     2008-01-16T12:01:39.97Z  
1202.0002   43320   43.0758  -70.7492  198.0    0.0    nd         nd         1015.6        nd            nd            nd            nd            -4.200000     2008-01-16T12:02:00.01Z  
1202.3328   43340   43.0758  -70.7491  196.0    0.0    nd         nd         1015.6        nd            nd            nd            nd            -4.200000     2008-01-16T12:02:19.97Z  
1202.6669   43360   43.0759  -70.7491  207.0    0.0    nd         nd         1015.7        nd            nd            nd            nd            -4.200000     2008-01-16T12:02:40.01Z  
1202.9995   43380   43.0759  -70.7491  227.0    0.0    nd         nd         1015.7        nd            nd            nd            nd            -4.200000     2008-01-16T12:02:59.97Z  
1203.3336   43400   43.0759  -70.7491  218.0    0.0    nd         nd         1015.7        nd            nd            nd            nd            -4.200000     2008-01-16T12:03:20.02Z  
1203.6662   43420   43.0759  -70.7491  214.0    0.0    nd         nd         1015.7        nd            nd            nd            nd            -4.200000     2008-01-16T12:03:39.97Z  
1204.0003   43440   43.0759  -70.7492  200.0    0.0    nd         nd         1015.7        nd            nd            nd            nd            -4.200000     2008-01-16T12:04:00.02Z  
1204.3330   43460   43.0758  -70.7492  203.0    0.0    nd         nd         1015.7        nd            nd            nd            nd            -4.200000     2008-01-16T12:04:19.98Z  
1204.6670   43480   43.0758  -70.7492  205.0    0.0    nd         nd         1015.7        nd            nd            nd            nd            -4.200000     2008-01-16T12:04:40.02Z  
1204.9997   43500   43.0758  -70.7491  260.0    0.0    nd         nd         1015.7        nd            nd            nd            nd            -4.200000     2008-01-16T12:04:59.98Z  
1205.3338   43520   43.0760  -70.7492  341.0    1.3    nd         nd         1015.7        nd            nd            nd            nd            -4.200000     2008-01-16T12:05:20.03Z  
1205.6664   43540   43.0763  -70.7493  342.0    1.3    nd         nd         1015.7        nd            nd            nd            nd            -4.200000     2008-01-16T12:05:39.98Z  
1206.0005   43560   43.0764  -70.7494  295.0    0.9    nd         nd         1015.7        nd            nd            nd            nd            -4.200000     2008-01-16T12:06:00.03Z  
1206.3331   43580   43.0764  -70.7496  296.0    0.5    nd         nd         1015.7        nd            nd            nd            nd            -4.200000     2008-01-16T12:06:19.99Z  
1206.6672   43600   43.0764  -70.7497  284.0    0.2    nd         nd         1015.7        nd            nd            nd            nd            -4.200000     2008-01-16T12:06:40.03Z  
1206.9998   43620   43.0765  -70.7497  243.0    0.1    nd         nd         1015.8        nd            nd            nd            nd            -4.200000     2008-01-16T12:06:59.99Z  
1207.3339   43640   43.0764  -70.7497  182.0    0.0    nd         nd         1015.8        nd            nd            nd            nd            -4.200000     2008-01-16T12:07:20.03Z  
1207.6666   43660   43.0764  -70.7497  180.0    0.0    nd         nd         1015.8        nd            nd            nd            nd            -4.200000     2008-01-16T12:07:40.00Z  
1208.0006   43680   43.0765  -70.7497  206.0    0.0    nd         nd         1015.8        nd            nd            nd            nd            -4.200000     2008-01-16T12:08:00.04Z  
1208.3333   43700   43.0765  -70.7497  210.0    0.0    nd         nd         1015.8        nd            nd            nd            nd            -4.200000     2008-01-16T12:08:20.00Z  
1208.6674   43720   43.0765  -70.7497  187.0    0.0    nd         nd         1015.8        nd            nd            nd            nd            -4.200000     2008-01-16T12:08:40.04Z  
1209.0000   43740   43.0765  -70.7497  186.0    0.0    nd         nd         1015.8        nd            nd            nd            nd            -4.200000     2008-01-16T12:09:00.00Z  
1209.3326   43760   43.0765  -70.7497  196.0    0.0    nd         nd         1015.8        nd            nd            nd            nd            -4.200000     2008-01-16T12:09:19.96Z  
1209.6667   43780   43.0765  -70.7497  216.0    0.0    nd         nd         1015.8        nd            nd            nd            nd            -4.200000     2008-01-16T12:09:40.00Z  
1209.9994   43800   43.0765  -70.7496  226.0    0.0    nd         nd         1015.8        nd            nd            nd            nd            -4.200000     2008-01-16T12:09:59.96Z  
1210.3334   43820   43.0765  -70.7496  201.0    0.0    nd         nd         1015.8        nd            nd            nd            nd            -4.200000     2008-01-16T12:10:20.00Z  
1210.6661   43840   43.0765  -70.7496  198.0    0.0    nd         nd         1015.8        nd            nd            nd            nd            -4.200000     2008-01-16T12:10:39.97Z  
1211.0002   43860   43.0765  -70.7497  209.0    0.0    nd         nd         1015.8        nd            nd            nd            nd            -4.200000     2008-01-16T12:11:00.01Z  
1211.3328   43880   43.0765  -70.7497  209.0    0.0    nd         nd         1015.8        nd            nd            nd            nd            -4.200000     2008-01-16T12:11:19.97Z  
1211.6669   43900   43.0765  -70.7497  203.0    0.0    nd         nd         1015.8        nd            nd            nd            nd            -4.200000     2008-01-16T12:11:40.01Z  
1211.9995   43920   43.0765  -70.7497  194.0    0.0    nd         nd         1015.8        nd            nd            nd            nd            -4.200000     2008-01-16T12:11:59.97Z  
1212.3336   43940   43.0765  -70.7497  191.0    0.0    nd         nd         1015.8        nd            nd            nd            nd            -4.200000     2008-01-16T12:12:20.02Z  
1212.6662   43960   43.0765  -70.7497  203.0    0.0    nd         nd         1015.9        nd            nd            nd            nd            -4.200000     2008-01-16T12:12:39.97Z  
1213.0003   43980   43.0765  -70.7497  194.0    0.0    nd         nd         1015.9        nd            nd            nd            nd            -4.200000     2008-01-16T12:13:00.02Z  
1213.3330   44000   43.0765  -70.7497  189.0    0.0    nd         nd         1015.9        nd            nd            nd            nd            -4.200000     2008-01-16T12:13:19.98Z  
1213.6670   44020   43.0765  -70.7497  202.0    0.0    nd         nd         1015.9        nd            nd            nd            nd            -4.200000     2008-01-16T12:13:40.02Z  
1213.9997   44040   43.0765  -70.7497  195.0    0.0    nd         nd         1015.9        nd            nd            nd            nd            -4.200000     2008-01-16T12:13:59.98Z  
1214.3338   44060   43.0765  -70.7497  199.0    0.0    nd         nd         1015.9        nd            nd            nd            nd            -4.200000     2008-01-16T12:14:20.03Z  
1214.6664   44080   43.0765  -70.7497  262.0    0.3    nd         nd         1015.9        nd            nd            nd            nd            -4.200000     2008-01-16T12:14:39.98Z  
1215.0005   44100   43.0767  -70.7498  323.0    2.1    nd         nd         1015.9        nd            nd            nd            nd            -4.200000     2008-01-16T12:15:00.03Z  
1215.3331   44120   43.0771  -70.7501  340.0    2.7    nd         nd         1015.9        nd            nd            nd            nd            -4.200000     2008-01-16T12:15:19.99Z  
1215.6672   44140   43.0776  -70.7503  328.0    2.8    nd         nd         1015.9        nd            nd            nd            nd            -4.200000     2008-01-16T12:15:40.03Z  
1215.9998   44160   43.0780  -70.7502  20.0     2.8    nd         nd         1015.9        nd            nd            nd            nd            -4.200000     2008-01-16T12:15:59.99Z  
1216.3339   44180   43.0785  -70.7499  48.0     3.1    nd         nd         1015.9        nd            nd            nd            nd            -4.200000     2008-01-16T12:16:20.03Z  
1216.6666   44200   43.0787  -70.7490  84.0     4.1    nd         nd         1015.9        nd            nd            nd            nd            -4.200000     2008-01-16T12:16:40.00Z  
1217.0006   44220   43.0787  -70.7479  93.0     5.2    nd         nd         1016.0        nd            nd            nd            nd            -4.200000     2008-01-16T12:17:00.04Z  
1217.3333   44240   43.0785  -70.7465  101.0    5.6    nd         nd         1016.0        nd            nd            nd            nd            -4.200000     2008-01-16T12:17:20.00Z  
1217.6674   44260   43.0782  -70.7452  111.0    5.6    nd         nd         1016.0        nd            nd            nd            nd            -4.200000     2008-01-16T12:17:40.04Z  
1218.0000   44280   43.0778  -70.7439  116.0    5.6    3.095      29.731     1016.0        430.865259    417.690118    nd            nd            -4.200000     2008-01-16T12:18:00.00Z  
1218.3326   44300   43.0773  -70.7427  118.0    5.5    3.102      29.778     1016.0        431.193184    418.008882    nd            nd            -4.200000     2008-01-16T12:18:19.96Z  
1218.6667   44320   43.0768  -70.7416  130.0    5.4    3.123      29.932     1016.0        431.275128    418.087751    nd            nd            -4.200000     2008-01-16T12:18:40.00Z  
1218.9994   44340   43.0761  -70.7406  133.0    5.3    3.168      30.138     1016.0        431.138937    417.950553    nd            nd            -4.200000     2008-01-16T12:18:59.96Z  
1219.3334   44360   43.0754  -70.7397  137.0    5.4    3.211      30.286     1016.0        431.258433    418.061907    nd            nd            -4.200000     2008-01-16T12:19:20.00Z  
1219.6661   44380   43.0747  -70.7387  132.0    5.7    3.258      30.407     1016.1        431.524555    418.314176    nd            nd            -4.200000     2008-01-16T12:19:39.97Z  
1220.0002   44400   43.0740  -70.7376  126.0    5.9    3.296      30.489     1016.1        432.335134    419.096022    nd            nd            -4.200000     2008-01-16T12:20:00.01Z  
1220.3328   44420   43.0736  -70.7363  100.0    5.8    3.311      30.516     1016.0        433.223606    419.945135    nd            nd            -4.200000     2008-01-16T12:20:19.97Z  
1220.6669   44440   43.0737  -70.7349  86.0     5.7    3.293      30.371     1016.1        434.102212    420.806757    nd            nd            -4.200000     2008-01-16T12:20:40.01Z  
1220.9995   44460   43.0737  -70.7335  89.0     5.8    3.234      30.128     1016.1        434.851697    421.544267    nd            nd            -4.200000     2008-01-16T12:20:59.97Z  
1221.3336   44480   43.0737  -70.7320  93.0     5.9    3.177      29.937     1016.1        435.055191    421.761605    nd            nd            -4.200000     2008-01-16T12:21:20.02Z  
1221.6662   44500   43.0737  -70.7305  87.0     6.1    3.121      29.751     1016.1        434.342500    421.099495    nd            nd            -4.200000     2008-01-16T12:21:39.97Z  
1222.0003   44520   43.0738  -70.7290  85.0     6.1    3.113      29.965     1016.1        433.171575    419.972613    nd            nd            -4.200000     2008-01-16T12:22:00.02Z  
1222.3330   44540   43.0738  -70.7275  84.0     6.1    3.146      30.183     1016.1        431.916535    418.749808    nd            nd            -4.200000     2008-01-16T12:22:19.98Z  
1222.6670   44560   43.0740  -70.7261  84.0     6.0    3.165      30.197     1016.1        431.275765    418.122130    nd            nd            -4.200000     2008-01-16T12:22:40.02Z  
1222.9997   44580   43.0741  -70.7246  85.0     6.0    3.135      29.954     1016.1        431.358934    418.206052    nd            nd            -4.200000     2008-01-16T12:22:59.98Z  
1223.3338   44600   43.0741  -70.7231  85.0     6.0    3.100      29.874     1016.1        431.320820    418.182281    nd            nd            -4.200000     2008-01-16T12:23:20.03Z  
1223.6664   44620   43.0742  -70.7216  85.0     6.0    3.103      29.992     1016.1        430.871035    417.750651    nd            nd            -4.200000     2008-01-16T12:23:39.98Z  
1224.0005   44640   43.0743  -70.7201  85.0     6.0    3.117      30.094     1016.2        430.121993    417.027284    nd            nd            -4.200000     2008-01-16T12:24:00.03Z  
1224.3331   44660   43.0744  -70.7186  85.0     6.0    3.137      30.216     1016.2        429.534328    416.455158    nd            nd            -4.200000     2008-01-16T12:24:19.99Z  
1224.6672   44680   43.0745  -70.7172  85.0     6.0    3.162      30.332     1016.2        429.312123    416.239956    nd            nd            -4.200000     2008-01-16T12:24:40.03Z  
1224.9998   44700   43.0746  -70.7157  87.0     5.8    3.187      30.443     1016.2        429.603613    416.516324    nd            nd            -4.200000     2008-01-16T12:24:59.99Z  
1225.3339   44720   43.0746  -70.7143  84.0     5.5    3.211      30.501     1016.2        430.108326    416.998332    nd            nd            -4.200000     2008-01-16T12:25:20.03Z  
1225.6666   44740   43.0747  -70.7130  84.0     5.5    3.234      30.521     1016.2        430.633905    417.506467    nd            nd            -4.200000     2008-01-16T12:25:40.00Z  
1226.0006   44760   43.0748  -70.7117  89.0     5.4    3.218      30.204     1016.2        431.087891    417.950936    nd            nd            -4.200000     2008-01-16T12:26:00.04Z  
1226.3333   44780   43.0747  -70.7103  98.0     5.5    3.132      29.607     1016.2        431.452370    418.329944    nd            nd            -4.200000     2008-01-16T12:26:20.00Z  
1226.6674   44800   43.0744  -70.7090  112.0    5.5    3.048      29.408     1016.2        431.028759    417.941072    nd            nd            -4.200000     2008-01-16T12:26:40.04Z  
1227.0000   44820   43.0739  -70.7079  130.0    5.6    2.989      29.388     1016.2        429.259976    416.244837    nd            nd            -4.200000     2008-01-16T12:27:00.00Z  
1227.3326   44840   43.0731  -70.7070  144.0    5.6    2.985      29.487     1016.2        427.124733    414.179542    nd            nd            -4.200000     2008-01-16T12:27:19.96Z  
1227.6667   44860   43.0722  -70.7063  149.0    5.7    2.999      29.557     1016.3        425.236640    412.349807    nd            nd            -4.200000     2008-01-16T12:27:40.00Z  
1227.9994   44880   43.0713  -70.7056  155.0    6.3    3.014      29.618     1016.2        423.916688    411.058859    nd            nd            -4.200000     2008-01-16T12:27:59.96Z  
1228.3334   44900   43.0701  -70.7050  161.0    7.9    3.013      29.577     1016.2        423.035603    410.193116    400.059611    394.502815    -4.200000     2008-01-16T12:28:20.00Z  
1228.6661   44920   43.0686  -70.7043  163.0    8.9    3.014      29.507     1016.2        422.649540    409.812792    400.002778    394.443371    -4.200000     2008-01-16T12:28:39.97Z  
1229.0002   44940   43.0670  -70.7038  165.0    9.2    2.976      29.327     1016.2        422.113689    409.296300    399.858169    394.303137    -4.200000     2008-01-16T12:29:00.01Z  
1229.3328   44960   43.0654  -70.7032  164.0    9.2    2.893      29.044     1016.2        421.682110    408.888916    399.651603    394.108480    -4.200000     2008-01-16T12:29:19.97Z  
1229.6669   44980   43.0638  -70.7026  166.0    9.3    2.895      29.349     1016.2        421.000588    408.231000    399.654205    394.114930    -4.200000     2008-01-16T12:29:40.01Z  
1229.9995   45000   43.0621  -70.7020  165.0    9.3    2.964      29.849     1016.2        419.965306    407.215926    400.104523    394.549240    -4.200000     2008-01-16T12:29:59.97Z  
1230.3336   45020   43.0605  -70.7015  164.0    9.4    3.090      30.512     1016.2        419.627222    406.861333    400.130695    394.549124    -4.200000     2008-01-16T12:30:20.02Z  
1230.6662   45040   43.0589  -70.7007  155.0    9.3    3.185      30.573     1016.2        420.765520    407.956179    400.251219    394.659890    -4.200000     2008-01-16T12:30:39.97Z  
1231.0003   45060   43.0574  -70.6997  153.0    9.4    3.175      30.213     1016.2        422.901672    410.033307    400.107595    394.523620    -4.200000     2008-01-16T12:31:00.02Z  
1231.3330   45080   43.0559  -70.6986  152.0    9.4    3.103      29.824     1016.2        425.064333    412.142569    400.067538    394.495096    -4.200000     2008-01-16T12:31:19.98Z  
1231.6670   45100   43.0544  -70.6975  151.0    9.3    2.991      29.445     1016.2        425.760125    412.846722    399.740370    394.203132    -4.200000     2008-01-16T12:31:40.02Z  
1231.9997   45120   43.0529  -70.6964  151.0    9.3    2.835      28.864     1016.2        425.155104    412.291712    399.364066    393.854481    -4.200000     2008-01-16T12:31:59.98Z  
1232.3338   45140   43.0515  -70.6953  150.0    9.2    2.737      28.972     1016.2        423.395315    410.608207    398.930951    393.452860    -4.200000     2008-01-16T12:32:20.03Z  
1232.6664   45160   43.0501  -70.6940  142.0    9.1    2.749      29.085     1016.2        420.465046    407.768505    398.566117    393.096924    -4.200000     2008-01-16T12:32:39.98Z  
1233.0005   45180   43.0489  -70.6925  127.0    9.0    2.706      28.907     1016.2        418.250961    405.615140    398.241305    392.769187    -4.200000     2008-01-16T12:33:00.03Z  
1233.3331   45200   43.0485  -70.6905  92.0     8.8    2.667      28.956     1016.1        416.449990    403.843668    398.278386    392.783841    -4.200000     2008-01-16T12:33:19.99Z  
1233.6672   45220   43.0489  -70.6884  65.0     8.6    2.648      29.217     1016.0        414.927147    402.335030    397.914140    392.390233    -4.200000     2008-01-16T12:33:40.03Z  
1233.9998   45240   43.0496  -70.6866  58.0     8.6    2.644      29.571     1016.0        413.910529    401.351021    397.762116    392.241308    -4.200000     2008-01-16T12:33:59.99Z  
1234.3339   45260   43.0505  -70.6848  57.0     8.6    2.693      29.948     1016.0        413.338929    400.790724    397.815380    392.289968    -4.200000     2008-01-16T12:34:20.03Z  
1234.6666   45280   43.0513  -70.6830  55.0     8.6    2.707      30.022     1016.0        413.339232    400.784406    397.828988    392.297426    -4.200000     2008-01-16T12:34:40.00Z  
1235.0006   45300   43.0522  -70.6813  54.0     8.5    2.757      30.278     1016.1        414.056050    401.486967    397.739254    392.214094    -4.200000     2008-01-16T12:35:00.04Z  
1235.3333   45320   43.0531  -70.6796  56.0     8.5    2.795      30.468     1016.1        414.965322    402.364146    397.256212    391.732920    -4.200000     2008-01-16T12:35:20.00Z  
1235.6674   45340   43.0539  -70.6778  56.0     8.6    2.937      31.082     1016.1        416.176187    403.515189    397.143417    391.602264    -4.200000     2008-01-16T12:35:40.04Z  
1236.0000   45360   43.0548  -70.6760  54.0     8.6    3.021      31.042     1016.1        418.021304    405.292783    397.032885    391.483637    -4.200000     2008-01-16T12:36:00.00Z  
1236.3326   45380   43.0557  -70.6743  54.0     8.5    3.015      31.007     1016.1        420.750095    407.941944    397.114095    391.565256    -4.200000     2008-01-16T12:36:19.96Z  
1236.6667   45400   43.0566  -70.6727  50.0     8.5    3.051      31.153     1016.1        423.601823    410.700421    396.990033    391.437063    -4.200000     2008-01-16T12:36:40.00Z  
1236.9994   45420   43.0576  -70.6710  50.0     8.5    3.094      31.342     1016.1        425.882469    412.902923    396.949055    391.390501    -4.200000     2008-01-16T12:36:59.96Z  
1237.3334   45440   43.0586  -70.6694  50.0     8.5    3.107      31.386     1016.1        427.847466    414.815889    397.215959    391.660544    -4.200000     2008-01-16T12:37:20.00Z  
1237.6661   45460   43.0595  -70.6678  51.0     8.4    3.163      31.535     1016.1        429.836290    416.735749    396.991008    391.432877    -4.200000     2008-01-16T12:37:39.97Z  
1238.0002   45480   43.0605  -70.6662  51.0     8.4    3.267      31.674     1016.1        431.429597    418.258155    397.517067    391.928242    -4.200000     2008-01-16T12:38:00.01Z  
1238.3328   45500   43.0614  -70.6645  51.0     8.5    3.340      31.689     1016.2        432.611202    419.395765    397.398167    391.802784    -4.200000     2008-01-16T12:38:19.97Z  
1238.6669   45520   43.0624  -70.6629  48.0     8.5    3.401      31.685     1016.1        433.974701    420.701029    397.713357    392.100734    -4.200000     2008-01-16T12:38:40.01Z  
1238.9995   45540   43.0634  -70.6614  48.0     8.5    3.448      31.682     1016.2        435.062041    421.750187    397.796068    392.177776    -4.200000     2008-01-16T12:38:59.97Z  
1239.3336   45560   43.0645  -70.6599  47.0     8.5    3.493      31.679     1016.2        435.623705    422.287450    397.873641    392.245101    -4.200000     2008-01-16T12:39:20.02Z  
1239.6662   45580   43.0655  -70.6583  47.0     8.5    3.522      31.687     1016.2        436.343466    422.979523    398.348059    392.711497    -4.200000     2008-01-16T12:39:39.97Z  
1240.0003   45600   43.0666  -70.6568  47.0     8.3    3.551      31.690     1016.2        437.232705    423.838400    398.182989    392.543948    -4.200000     2008-01-16T12:40:00.02Z  
1240.3330   45620   43.0676  -70.6553  47.0     8.3    3.573      31.694     1016.2        438.154579    424.729888    398.262710    392.622235    -4.200000     2008-01-16T12:40:19.98Z  
1240.6670   45640   43.0686  -70.6537  52.0     8.4    3.572      31.684     1016.2        439.087937    425.647124    398.319371    392.689164    -4.200000     2008-01-16T12:40:40.02Z  
1240.9997   45660   43.0695  -70.6521  54.0     8.3    3.497      31.611     1016.2        439.823707    426.378579    398.459609    392.842932    -4.200000     2008-01-16T12:40:59.98Z  
1241.3338   45680   43.0703  -70.6504  53.0     8.3    3.410      31.574     1016.2        440.654992    427.201536    398.736446    393.132839    -4.200000     2008-01-16T12:41:20.03Z  
1241.6664   45700   43.0712  -70.6487  54.0     8.3    3.387      31.581     1016.2        440.802395    427.351398    398.605540    393.009659    -4.200000     2008-01-16T12:41:39.98Z  
1242.0005   45720   43.0721  -70.6471  53.0     8.4    3.412      31.600     1016.2        440.160358    426.726606    398.544257    392.946697    -4.200000     2008-01-16T12:42:00.03Z  
1242.3331   45740   43.0730  -70.6454  53.0     8.3    3.433      31.601     1016.2        439.235461    425.821653    398.510818    392.906596    -4.200000     2008-01-16T12:42:19.99Z  
1242.6672   45760   43.0739  -70.6438  53.0     8.3    3.442      31.583     1016.2        438.797695    425.402204    398.289360    392.692181    -4.200000     2008-01-16T12:42:40.03Z  
1242.9998   45780   43.0748  -70.6421  53.0     8.3    3.453      31.576     1016.2        438.834034    425.434752    398.215667    392.616268    -4.200000     2008-01-16T12:42:59.99Z  
1243.3339   45800   43.0757  -70.6405  53.0     8.3    3.464      31.575     1016.2        439.037665    425.637560    397.941526    392.353198    -4.200000     2008-01-16T12:43:20.03Z  
1243.6666   45820   43.0766  -70.6388  54.0     8.3    3.477      31.575     1016.2        439.446921    426.031252    397.672083    392.083778    -4.200000     2008-01-16T12:43:40.00Z  
1244.0006   45840   43.0774  -70.6371  54.0     8.3    3.490      31.583     1016.3        439.669079    426.256451    397.571043    391.992965    -4.200000     2008-01-16T12:44:00.04Z  
1244.3333   45860   43.0783  -70.6355  56.0     8.4    3.511      31.604     1016.3        440.042410    426.615369    397.452177    391.874958    -4.200000     2008-01-16T12:44:20.00Z  
1244.6674   45880   43.0792  -70.6338  54.0     8.3    3.542      31.632     1016.3        440.353104    426.912090    397.425795    391.841527    -4.200000     2008-01-16T12:44:40.04Z  
1245.0000   45900   43.0800  -70.6321  54.0     8.3    3.578      31.652     1016.3        440.605427    427.148426    397.431939    391.840832    -4.200000     2008-01-16T12:45:00.00Z  
1245.3326   45920   43.0809  -70.6304  54.0     8.4    3.633      31.678     1016.3        441.292551    427.804492    397.275725    391.679130    -4.200000     2008-01-16T12:45:19.96Z  
1245.6667   45940   43.0818  -70.6287  54.0     8.4    3.677      31.687     1016.3        441.869408    428.352800    397.151338    391.545728    -4.200000     2008-01-16T12:45:40.00Z  
1245.9994   45960   43.0827  -70.6270  54.0     8.4    3.720      31.706     1016.3        442.371066    428.837240    397.229174    391.621574    -4.200000     2008-01-16T12:45:59.96Z  
1246.3334   45980   43.0835  -70.6253  54.0     8.4    3.771      31.718     1016.3        443.364773    429.791923    397.271297    391.654999    -4.200000     2008-01-16T12:46:20.00Z  
1246.6661   46000   43.0844  -70.6236  54.0     8.4    3.804      31.718     1016.3        444.527599    430.915573    397.329014    391.709326    -4.200000     2008-01-16T12:46:39.97Z  
1247.0002   46020   43.0853  -70.6220  54.0     8.4    3.821      31.723     1016.3        446.012502    432.355833    397.243712    391.627111    -4.200000     2008-01-16T12:47:00.01Z  
1247.3328   46040   43.0862  -70.6203  54.0     8.4    3.842      31.729     1016.3        447.440487    433.742810    397.188751    391.574358    -4.200000     2008-01-16T12:47:19.97Z  
1247.6669   46060   43.0871  -70.6186  54.0     8.4    3.869      31.740     1016.4        448.637981    434.900862    397.197677    391.580636    -4.200000     2008-01-16T12:47:40.01Z  
1247.9995   46080   43.0880  -70.6169  55.0     8.4    3.888      31.744     1016.4        449.951752    436.176994    397.296335    391.681895    -4.200000     2008-01-16T12:47:59.97Z  
1248.3336   46100   43.0888  -70.6152  56.0     8.3    3.902      31.741     1016.4        451.294268    437.477962    397.339815    391.723958    -4.200000     2008-01-16T12:48:20.02Z  
1248.6662   46120   43.0897  -70.6135  56.0     8.4    3.915      31.738     1016.4        452.179050    438.335619    397.426817    391.809550    -4.200000     2008-01-16T12:48:39.97Z  
1249.0003   46140   43.0905  -70.6118  55.0     8.3    3.925      31.738     1016.4        452.676920    438.822061    397.375391    391.759983    -4.200000     2008-01-16T12:49:00.02Z  
1249.3330   46160   43.0914  -70.6101  56.0     8.4    3.935      31.732     1016.4        452.895677    439.036885    397.233932    391.627320    -4.200000     2008-01-16T12:49:19.98Z  
1249.6670   46180   43.0922  -70.6084  55.0     8.4    3.943      31.741     1016.4        453.179085    439.311333    397.075001    391.467134    -4.200000     2008-01-16T12:49:40.02Z  
1249.9997   46200   43.0931  -70.6067  56.0     8.4    3.950      31.742     1016.4        453.195617    439.339115    396.939895    391.346351    -4.200000     2008-01-16T12:49:59.98Z  
1250.3338   46220   43.0939  -70.6049  56.0     8.4    3.954      31.743     1016.4        452.617491    438.779164    396.913153    391.320108    -4.200000     2008-01-16T12:50:20.03Z  
1250.6664   46240   43.0947  -70.6032  55.0     8.3    3.952      31.745     1016.5        452.182163    438.369993    397.041665    391.458613    -4.200000     2008-01-16T12:50:39.98Z  
1251.0005   46260   43.0956  -70.6015  56.0     8.4    3.953      31.741     1016.5        452.034610    438.219810    396.944607    391.355721    -4.200000     2008-01-16T12:51:00.03Z  
1251.3331   46280   43.0964  -70.5998  55.0     8.3    3.960      31.733     1016.5        452.380642    438.560496    397.071753    391.473031    -4.200000     2008-01-16T12:51:19.99Z  
1251.6672   46300   43.0973  -70.5981  55.0     8.4    3.963      31.727     1016.5        453.112519    439.279219    397.178276    391.606358    -4.200000     2008-01-16T12:51:40.03Z  
1251.9998   46320   43.0981  -70.5964  56.0     8.4    3.958      31.717     1016.5        453.744091    439.889176    397.293684    391.722522    -4.200000     2008-01-16T12:51:59.99Z  
1252.3339   46340   43.0990  -70.5947  56.0     8.4    3.946      31.701     1016.5        454.123846    440.257065    397.209662    391.634846    -4.200000     2008-01-16T12:52:20.03Z  
1252.6666   46360   43.0998  -70.5930  55.0     8.4    3.926      31.688     1016.5        453.673620    439.834193    397.144984    391.577342    -4.200000     2008-01-16T12:52:40.00Z  
1253.0006   46380   43.1007  -70.5913  56.0     8.4    3.921      31.686     1016.5        452.624030    438.814850    397.273994    391.701336    -4.200000     2008-01-16T12:53:00.04Z  
1253.3333   46400   43.1015  -70.5896  55.0     8.4    3.929      31.684     1016.5        451.407322    437.643578    397.374829    391.807054    -4.200000     2008-01-16T12:53:20.00Z  
1253.6674   46420   43.1024  -70.5879  55.0     8.5    3.940      31.691     1016.5        451.113662    437.370467    397.057617    391.491765    -4.200000     2008-01-16T12:53:40.04Z  
1254.0000   46440   43.1032  -70.5861  55.0     8.4    3.952      31.696     1016.5        nd            nd            396.948646    391.388406    -4.200000     2008-01-16T12:54:00.00Z  
1254.3326   46460   43.1041  -70.5844  55.0     8.4    3.972      31.704     1016.5        nd            nd            396.751521    391.190663    -4.200000     2008-01-16T12:54:19.96Z  
1254.6667   46480   43.1049  -70.5827  56.0     8.4    3.977      31.704     1016.5        nd            nd            396.756055    391.195806    -4.200000     2008-01-16T12:54:40.00Z  
1254.9994   46500   43.1058  -70.5810  57.0     8.4    3.984      31.699     1016.6        nd            nd            396.928756    391.364265    -4.200000     2008-01-16T12:54:59.96Z  
1255.3334   46520   43.1066  -70.5793  55.0     8.4    3.994      31.696     1016.6        nd            nd            397.598141    392.038044    -4.200000     2008-01-16T12:55:20.00Z  
1255.6661   46540   43.1075  -70.5776  56.0     8.4    4.003      31.706     1016.5        nd            nd            397.262942    391.697147    -4.200000     2008-01-16T12:55:39.97Z  
1256.0002   46560   43.1083  -70.5758  57.0     8.4    4.020      31.711     1016.6        nd            nd            396.939535    391.377699    -4.200000     2008-01-16T12:56:00.01Z  
1256.3328   46580   43.1091  -70.5741  56.0     8.4    4.034      31.712     1016.5        nd            nd            nd            nd            -4.200000     2008-01-16T12:56:19.97Z  
1256.6669   46600   43.1100  -70.5724  55.0     8.4    4.041      31.704     1016.6        nd            nd            nd            nd            -4.200000     2008-01-16T12:56:40.01Z  
1256.9995   46620   43.1108  -70.5707  56.0     8.4    4.050      31.712     1016.6        nd            nd            nd            nd            -4.200000     2008-01-16T12:56:59.97Z  
1257.3336   46640   43.1117  -70.5689  57.0     8.4    4.064      31.724     1016.6        nd            nd            395.234451    389.676184    -4.200000     2008-01-16T12:57:20.02Z  
1257.6662   46660   43.1124  -70.5672  59.0     8.4    4.079      31.734     1016.6        nd            nd            395.359271    389.811648    -4.200000     2008-01-16T12:57:39.97Z  
1258.0003   46680   43.1132  -70.5654  57.0     8.4    4.094      31.740     1016.6        nd            nd            395.209765    389.662568    -4.200000     2008-01-16T12:58:00.02Z  
1258.3330   46700   43.1140  -70.5637  57.0     8.4    4.099      31.744     1016.6        nd            nd            394.942960    389.401345    -4.200000     2008-01-16T12:58:19.98Z  
1258.6670   46720   43.1148  -70.5619  58.0     8.3    4.094      31.740     1016.6        nd            nd            395.140056    389.596897    -4.200000     2008-01-16T12:58:40.02Z  
1258.9997   46740   43.1156  -70.5602  57.0     8.3    4.074      31.725     1016.6        nd            nd            394.836648    389.311995    -4.200000     2008-01-16T12:58:59.98Z  
1259.3338   46760   43.1165  -70.5585  56.0     8.3    4.064      31.729     1016.6        nd            nd            395.124774    389.586922    -4.200000     2008-01-16T12:59:20.03Z  
1259.6506   46779   43.1173  -70.5568  56.0     8.3    4.060      31.738     1016.6        nd            nd            394.867190    389.360529    -4.200000     2008-01-16T12:59:39.04Z  
1300.0005   46800   43.1181  -70.5550  56.0     8.3    4.064      31.743     1016.6        nd            nd            394.923091    389.408862    -4.350000     2008-01-16T13:00:00.03Z  
1300.3331   46820   43.1190  -70.5533  56.0     8.4    4.068      31.756     1016.6        nd            nd            394.672142    389.157566    -4.500000     2008-01-16T13:00:19.99Z  
1300.6672   46840   43.1198  -70.5516  56.0     8.4    4.068      31.762     1016.6        nd            nd            394.602383    389.092816    -4.500000     2008-01-16T13:00:40.03Z  
1300.9998   46860   43.1206  -70.5498  55.0     8.3    4.072      31.775     1016.6        nd            nd            nd            nd            -4.500000     2008-01-16T13:00:59.99Z  
1301.3339   46880   43.1215  -70.5481  56.0     8.3    4.072      31.781     1016.7        nd            nd            394.533306    389.036200    -4.500000     2008-01-16T13:01:20.03Z  
1301.6666   46900   43.1223  -70.5464  57.0     8.4    4.083      31.793     1016.7        nd            nd            394.593570    389.088977    -4.500000     2008-01-16T13:01:40.00Z  
1302.0006   46920   43.1231  -70.5447  57.0     8.4    4.093      31.823     1016.7        nd            nd            394.538002    389.029965    -4.500000     2008-01-16T13:02:00.04Z  
1302.3333   46940   43.1240  -70.5429  56.0     8.4    4.114      31.850     1016.6        nd            nd            394.665400    389.152647    -4.500000     2008-01-16T13:02:20.00Z  
1302.6674   46960   43.1248  -70.5412  55.0     8.5    4.142      31.876     1016.6        nd            nd            nd            nd            -4.500000     2008-01-16T13:02:40.04Z  
1303.0000   46980   43.1257  -70.5395  56.0     8.5    4.159      31.890     1016.7        nd            nd            394.703402    389.199822    -4.500000     2008-01-16T13:03:00.00Z  
1303.3326   47000   43.1266  -70.5377  56.0     8.7    4.166      31.902     1016.7        nd            nd            394.896896    389.375383    -4.500000     2008-01-16T13:03:19.96Z  
1303.6667   47020   43.1274  -70.5359  55.0     8.7    4.174      31.913     1016.7        nd            nd            394.860967    389.340129    -4.500000     2008-01-16T13:03:40.00Z  
1303.9994   47040   43.1283  -70.5342  53.0     8.7    4.177      31.920     1016.7        nd            nd            394.907422    389.383837    -4.500000     2008-01-16T13:03:59.96Z  
1304.3334   47060   43.1293  -70.5324  55.0     8.7    4.172      31.919     1016.7        nd            nd            nd            nd            -4.500000     2008-01-16T13:04:20.00Z  
1304.6661   47080   43.1301  -70.5307  55.0     8.7    4.176      31.911     1016.7        nd            nd            394.604514    389.100214    -4.500000     2008-01-16T13:04:39.97Z  
1305.0002   47100   43.1310  -70.5289  56.0     8.7    4.162      31.905     1016.7        nd            nd            394.492241    389.000058    -4.500000     2008-01-16T13:05:00.01Z  
1305.3328   47120   43.1319  -70.5271  55.0     8.7    4.145      31.920     1016.7        nd            nd            394.559671    389.075406    -4.500000     2008-01-16T13:05:19.97Z  
1305.6669   47140   43.1328  -70.5254  56.0     8.7    4.141      31.924     1016.7        nd            nd            394.706476    389.212498    -4.500000     2008-01-16T13:05:40.01Z  
1305.9995   47160   43.1337  -70.5236  55.0     8.6    4.146      31.931     1016.7        nd            nd            394.524066    389.030494    -4.500000     2008-01-16T13:05:59.97Z  
1306.3336   47180   43.1345  -70.5218  56.0     8.6    4.155      31.928     1016.8        nd            nd            394.495639    389.015755    -4.500000     2008-01-16T13:06:20.02Z  
1306.6662   47200   43.1354  -70.5201  55.0     8.6    4.153      31.945     1016.7        nd            nd            394.775655    389.278339    -4.500000     2008-01-16T13:06:39.97Z  
1307.0003   47220   43.1363  -70.5183  56.0     8.6    4.154      31.950     1016.7        nd            nd            nd            nd            -4.500000     2008-01-16T13:07:00.02Z  
1307.3330   47240   43.1371  -70.5165  55.0     8.6    4.155      31.950     1016.7        nd            nd            394.620523    389.128741    -4.500000     2008-01-16T13:07:19.98Z  
1307.6670   47260   43.1380  -70.5148  56.0     8.6    4.152      31.963     1016.7        nd            nd            nd            nd            -4.500000     2008-01-16T13:07:40.02Z  
1307.9997   47280   43.1389  -70.5130  55.0     8.6    4.158      31.970     1016.7        nd            nd            394.468746    388.984370    -4.500000     2008-01-16T13:07:59.98Z  
1308.3338   47300   43.1398  -70.5113  55.0     8.7    4.174      31.991     1016.7        nd            nd            394.486243    388.993835    -4.500000     2008-01-16T13:08:20.03Z  
1308.6664   47320   43.1407  -70.5095  55.0     8.6    4.209      32.011     1016.8        nd            nd            nd            nd            -4.500000     2008-01-16T13:08:39.98Z  
1309.0005   47340   43.1415  -70.5077  56.0     8.6    4.279      32.039     1016.8        nd            nd            394.390124    388.887625    -4.500000     2008-01-16T13:09:00.03Z  
1309.3331   47360   43.1424  -70.5060  55.0     8.6    4.346      32.058     1016.8        nd            nd            394.362986    388.851888    -4.500000     2008-01-16T13:09:19.99Z  
1309.6672   47380   43.1433  -70.5043  54.0     8.6    4.389      32.060     1016.8        nd            nd            394.407284    388.885969    -4.500000     2008-01-16T13:09:40.03Z  
1309.9998   47400   43.1442  -70.5025  54.0     8.6    4.413      32.069     1016.8        nd            nd            394.153262    388.636996    -4.500000     2008-01-16T13:09:59.99Z  
1310.3339   47420   43.1451  -70.5008  55.0     8.6    4.420      32.072     1016.8        nd            nd            393.927191    388.426291    -4.500000     2008-01-16T13:10:20.03Z  
1310.6666   47440   43.1460  -70.4990  55.0     8.7    4.419      32.074     1016.8        nd            nd            394.127019    388.619700    -4.500000     2008-01-16T13:10:40.00Z  
1311.0006   47460   43.1469  -70.4972  56.0     8.7    4.427      32.077     1016.8        nd            nd            393.959305    388.453611    -4.500000     2008-01-16T13:11:00.04Z  
1311.3333   47480   43.1478  -70.4955  54.0     8.7    4.442      32.092     1016.8        nd            nd            394.133049    388.633229    -4.500000     2008-01-16T13:11:20.00Z  
1311.6674   47500   43.1487  -70.4937  55.0     8.7    4.467      32.099     1016.9        nd            nd            394.028422    388.532239    -4.500000     2008-01-16T13:11:40.04Z  
1312.0000   47520   43.1496  -70.4920  54.0     8.7    4.498      32.108     1016.9        nd            nd            393.916768    388.415156    -4.500000     2008-01-16T13:12:00.00Z  
1312.3326   47540   43.1505  -70.4902  56.0     8.7    4.530      32.116     1016.9        nd            nd            394.227952    388.728051    -4.500000     2008-01-16T13:12:19.96Z  
1312.6667   47560   43.1514  -70.4884  55.0     8.7    4.561      32.123     1016.9        nd            nd            394.163569    388.656134    -4.500000     2008-01-16T13:12:40.00Z  
1312.9994   47580   43.1523  -70.4867  55.0     8.7    4.582      32.127     1016.9        nd            nd            394.188497    388.682971    -4.500000     2008-01-16T13:12:59.96Z  
1313.3334   47600   43.1531  -70.4849  54.0     8.7    4.600      32.132     1016.9        nd            nd            394.308178    388.799858    -4.500000     2008-01-16T13:13:20.00Z  
1313.6661   47620   43.1541  -70.4832  54.0     8.6    4.626      32.134     1016.9        nd            nd            nd            nd            -4.500000     2008-01-16T13:13:39.97Z  
1314.0002   47640   43.1549  -70.4814  57.0     8.6    4.648      32.136     1016.8        nd            nd            394.504200    388.951120    -4.500000     2008-01-16T13:14:00.01Z  
1314.3328   47660   43.1558  -70.4796  54.0     8.6    4.666      32.148     1016.8        nd            nd            394.351449    388.797645    -4.500000     2008-01-16T13:14:19.97Z  
1314.6669   47680   43.1567  -70.4779  54.0     8.7    4.670      32.141     1016.9        nd            nd            394.578484    389.032085    -4.500000     2008-01-16T13:14:40.01Z  
1314.9995   47700   43.1576  -70.4761  55.0     8.6    4.659      32.133     1016.9        nd            nd            394.510875    388.988888    -4.500000     2008-01-16T13:14:59.97Z  
1315.3336   47720   43.1585  -70.4744  53.0     8.7    4.645      32.120     1016.9        nd            nd            394.557774    389.033586    -4.500000     2008-01-16T13:15:20.02Z  
1315.6662   47740   43.1594  -70.4727  55.0     8.7    4.641      32.126     1016.8        nd            nd            394.515619    388.978604    -4.500000     2008-01-16T13:15:39.97Z  
1316.0003   47760   43.1603  -70.4709  57.0     8.6    4.651      32.139     1016.8        nd            nd            394.778978    389.222192    -4.500000     2008-01-16T13:16:00.02Z  
1316.3330   47780   43.1611  -70.4691  54.0     8.6    4.664      32.147     1016.8        nd            nd            394.797714    389.236652    -4.500000     2008-01-16T13:16:19.98Z  
1316.6670   47800   43.1621  -70.4674  55.0     8.6    4.678      32.142     1016.8        nd            nd            nd            nd            -4.500000     2008-01-16T13:16:40.02Z  
1316.9997   47820   43.1629  -70.4656  61.0     8.5    4.669      32.138     1016.9        nd            nd            395.018397    389.481256    -4.500000     2008-01-16T13:16:59.98Z  
1317.3338   47840   43.1637  -70.4638  55.0     8.6    4.660      32.134     1016.8        nd            nd            395.044321    389.505179    -4.500000     2008-01-16T13:17:20.03Z  
1317.6664   47860   43.1646  -70.4621  55.0     8.6    4.652      32.123     1016.9        nd            nd            395.102570    389.553283    -4.500000     2008-01-16T13:17:39.98Z  
1318.0005   47880   43.1655  -70.4604  53.0     8.6    4.634      32.131     1016.8        nd            nd            394.864834    389.312327    -4.500000     2008-01-16T13:18:00.03Z  
1318.3331   47900   43.1664  -70.4586  57.0     8.6    4.629      32.131     1016.9        nd            nd            394.853852    389.312111    -4.500000     2008-01-16T13:18:19.99Z  
1318.6672   47920   43.1672  -70.4568  61.0     8.6    4.629      32.120     1016.9        nd            nd            394.992043    389.476934    -4.500000     2008-01-16T13:18:40.03Z  
1318.9998   47940   43.1679  -70.4550  59.0     8.6    4.623      32.110     1016.9        nd            nd            394.751095    389.235643    -4.500000     2008-01-16T13:18:59.99Z  
1319.3339   47960   43.1687  -70.4531  56.0     8.6    4.619      32.116     1017.0        nd            nd            nd            nd            -4.500000     2008-01-16T13:19:20.03Z  
1319.6666   47980   43.1696  -70.4514  56.0     8.7    4.627      32.105     1017.0        nd            nd            nd            nd            -4.500000     2008-01-16T13:19:40.00Z  
1320.0006   48000   43.1704  -70.4495  62.0     8.6    4.622      32.113     1017.0        nd            nd            394.279771    388.803023    -4.500000     2008-01-16T13:20:00.04Z  
1320.3333   48020   43.1712  -70.4477  60.0     8.7    4.619      32.122     1017.0        nd            nd            394.375191    388.885317    -4.500000     2008-01-16T13:20:20.00Z  
1320.6674   48040   43.1720  -70.4459  56.0     8.6    4.619      32.124     1017.0        nd            nd            394.217236    388.730450    -4.500000     2008-01-16T13:20:40.04Z  
1321.0000   48060   43.1728  -70.4441  61.0     8.6    4.623      32.123     1017.0        nd            nd            394.245042    388.768734    -4.500000     2008-01-16T13:21:00.00Z  
1321.3326   48080   43.1735  -70.4422  60.0     8.6    4.635      32.117     1017.0        nd            nd            394.299144    388.802594    -4.500000     2008-01-16T13:21:19.96Z  
1321.6667   48100   43.1743  -70.4403  61.0     8.7    4.636      32.112     1017.0        nd            nd            nd            nd            -4.500000     2008-01-16T13:21:40.00Z  
1321.9994   48120   43.1751  -70.4384  61.0     8.8    4.641      32.121     1017.0        nd            nd            394.448508    388.952282    -4.500000     2008-01-16T13:21:59.96Z  
1322.3334   48140   43.1758  -70.4366  60.0     8.7    4.647      32.121     1017.0        nd            nd            394.215160    388.747367    -4.500000     2008-01-16T13:22:20.00Z  
1322.6661   48160   43.1766  -70.4347  61.0     8.7    4.652      32.121     1017.0        nd            nd            nd            nd            -4.500000     2008-01-16T13:22:39.97Z  
1323.0002   48180   43.1773  -70.4328  62.0     8.6    4.658      32.127     1017.0        nd            nd            394.480704    388.998246    -4.500000     2008-01-16T13:23:00.01Z  
1323.3328   48200   43.1781  -70.4309  61.0     8.7    4.655      32.124     1017.0        nd            nd            394.646856    389.176985    -4.500000     2008-01-16T13:23:19.97Z  
1323.6669   48220   43.1789  -70.4291  58.0     8.4    4.657      32.123     1017.1        nd            nd            nd            nd            -4.500000     2008-01-16T13:23:40.01Z  
1323.9995   48240   43.1794  -70.4278  58.0     3.9    4.667      32.125     1017.2        nd            nd            nd            nd            -4.500000     2008-01-16T13:23:59.97Z  
1324.3336   48260   43.1797  -70.4274  77.0     1.7    4.682      32.099     1017.3        nd            nd            nd            nd            -4.500000     2008-01-16T13:24:20.02Z  
1324.6662   48280   43.1798  -70.4274  266.0    0.4    4.693      32.119     1017.2        nd            nd            nd            nd            -4.500000     2008-01-16T13:24:39.97Z  
1325.0003   48300   43.1797  -70.4274  213.0    0.6    4.694      32.137     1017.2        nd            nd            nd            nd            -4.500000     2008-01-16T13:25:00.02Z  
1325.3330   48320   43.1797  -70.4274  204.0    0.5    4.697      32.145     1017.2        nd            nd            nd            nd            -4.500000     2008-01-16T13:25:19.98Z  
1325.6670   48340   43.1796  -70.4274  162.0    0.6    4.720      32.139     1017.3        nd            nd            nd            nd            -4.500000     2008-01-16T13:25:40.02Z  
1325.9997   48360   43.1795  -70.4273  133.0    0.5    4.771      32.149     1017.3        nd            nd            nd            nd            -4.500000     2008-01-16T13:25:59.98Z  
1326.3338   48380   43.1794  -70.4273  133.0    0.5    4.813      32.151     1017.3        nd            nd            nd            nd            -4.500000     2008-01-16T13:26:20.03Z  
1326.6664   48400   43.1794  -70.4272  179.0    0.6    4.843      32.150     1017.3        nd            nd            nd            nd            -4.500000     2008-01-16T13:26:39.98Z  
1327.0005   48420   43.1793  -70.4271  134.0    0.5    4.829      32.150     1017.3        nd            nd            nd            nd            -4.500000     2008-01-16T13:27:00.03Z  
1327.3331   48440   43.1792  -70.4271  160.0    0.5    4.787      32.149     1017.3        nd            nd            nd            nd            -4.500000     2008-01-16T13:27:19.99Z  
1327.6672   48460   43.1791  -70.4271  161.0    0.5    4.771      32.151     1017.3        nd            nd            nd            nd            -4.500000     2008-01-16T13:27:40.03Z  
1327.9998   48480   43.1790  -70.4270  173.0    0.5    4.773      32.151     1017.3        nd            nd            nd            nd            -4.500000     2008-01-16T13:27:59.99Z  
1328.3339   48500   43.1790  -70.4270  151.0    0.6    4.767      32.151     1017.3        nd            nd            nd            nd            -4.500000     2008-01-16T13:28:20.03Z  
1328.6666   48520   43.1789  -70.4269  155.0    0.6    4.784      32.152     1017.3        nd            nd            nd            nd            -4.500000     2008-01-16T13:28:40.00Z  
1329.0006   48540   43.1788  -70.4269  149.0    0.5    4.801      32.152     1017.3        nd            nd            nd            nd            -4.500000     2008-01-16T13:29:00.04Z  
1329.3333   48560   43.1787  -70.4268  170.0    0.5    4.780      32.150     1017.3        nd            nd            nd            nd            -4.500000     2008-01-16T13:29:20.00Z  
1329.6674   48580   43.1786  -70.4268  169.0    0.5    4.753      32.150     1017.3        nd            nd            nd            nd            -4.500000     2008-01-16T13:29:40.04Z  
1330.0000   48600   43.1786  -70.4267  142.0    0.7    4.747      32.152     1017.4        nd            nd            nd            nd            -4.500000     2008-01-16T13:30:00.00Z  
1330.3326   48620   43.1785  -70.4267  132.0    0.6    4.749      32.151     1017.4        nd            nd            nd            nd            -4.500000     2008-01-16T13:30:19.96Z  
1330.6667   48640   43.1784  -70.4266  188.0    0.6    4.736      32.148     1017.4        nd            nd            nd            nd            -4.500000     2008-01-16T13:30:40.00Z  
1330.9994   48660   43.1783  -70.4266  157.0    0.4    4.720      32.150     1017.4        nd            nd            nd            nd            -4.500000     2008-01-16T13:30:59.96Z  
1331.3334   48680   43.1782  -70.4265  171.0    0.6    4.729      32.152     1017.4        nd            nd            nd            nd            -4.500000     2008-01-16T13:31:20.00Z  
1331.6661   48700   43.1782  -70.4265  171.0    0.5    4.757      32.152     1017.4        nd            nd            nd            nd            -4.500000     2008-01-16T13:31:39.97Z  
1332.0002   48720   43.1781  -70.4264  142.0    0.5    4.763      32.151     1017.4        nd            nd            nd            nd            -4.500000     2008-01-16T13:32:00.01Z  
1332.3328   48740   43.1780  -70.4264  160.0    0.5    4.743      32.150     1017.5        nd            nd            nd            nd            -4.500000     2008-01-16T13:32:19.97Z  
1332.6669   48760   43.1779  -70.4263  168.0    0.5    4.735      32.151     1017.4        nd            nd            nd            nd            -4.500000     2008-01-16T13:32:40.01Z  
1332.9995   48780   43.1779  -70.4263  180.0    0.5    4.734      32.151     1017.5        nd            nd            nd            nd            -4.500000     2008-01-16T13:32:59.97Z  
1333.3336   48800   43.1778  -70.4262  174.0    0.5    4.729      32.151     1017.5        nd            nd            nd            nd            -4.500000     2008-01-16T13:33:20.02Z  
1333.6662   48820   43.1777  -70.4262  159.0    0.5    4.738      32.153     1017.5        nd            nd            nd            nd            -4.500000     2008-01-16T13:33:39.97Z  
1334.0003   48840   43.1776  -70.4261  163.0    0.5    4.755      32.154     1017.5        nd            nd            nd            nd            -4.500000     2008-01-16T13:34:00.02Z  
1334.3330   48860   43.1776  -70.4261  153.0    0.6    4.765      32.153     1017.5        nd            nd            nd            nd            -4.500000     2008-01-16T13:34:19.98Z  
1334.6670   48880   43.1775  -70.4261  192.0    0.6    4.758      32.153     1017.5        nd            nd            nd            nd            -4.500000     2008-01-16T13:34:40.02Z  
1334.9997   48900   43.1774  -70.4260  153.0    0.5    4.743      32.153     1017.5        nd            nd            nd            nd            -4.500000     2008-01-16T13:34:59.98Z  
1335.3338   48920   43.1773  -70.4260  184.0    0.7    4.742      32.154     1017.5        nd            nd            nd            nd            -4.500000     2008-01-16T13:35:20.03Z  
1335.6664   48940   43.1772  -70.4259  154.0    0.5    4.750      32.153     1017.5        nd            nd            nd            nd            -4.500000     2008-01-16T13:35:39.98Z  
1336.0005   48960   43.1771  -70.4259  159.0    0.5    4.757      32.149     1017.5        nd            nd            nd            nd            -4.500000     2008-01-16T13:36:00.03Z  
1336.3331   48980   43.1771  -70.4258  172.0    0.5    4.743      32.149     1017.5        nd            nd            nd            nd            -4.500000     2008-01-16T13:36:19.99Z  
1336.6672   49000   43.1770  -70.4258  146.0    0.4    4.721      32.152     1017.6        nd            nd            nd            nd            -4.500000     2008-01-16T13:36:40.03Z  
1336.9998   49020   43.1769  -70.4257  158.0    0.5    4.714      32.153     1017.5        nd            nd            nd            nd            -4.500000     2008-01-16T13:36:59.99Z  
1337.3339   49040   43.1769  -70.4257  148.0    0.4    4.716      32.153     1017.6        nd            nd            nd            nd            -4.500000     2008-01-16T13:37:20.03Z  
1337.6666   49060   43.1768  -70.4256  173.0    0.6    4.726      32.155     1017.5        nd            nd            nd            nd            -4.500000     2008-01-16T13:37:40.00Z  
1338.0006   49080   43.1767  -70.4256  143.0    0.5    4.736      32.156     1017.5        nd            nd            nd            nd            -4.500000     2008-01-16T13:38:00.04Z  
1338.3333   49100   43.1766  -70.4255  149.0    0.5    4.737      32.156     1017.5        nd            nd            nd            nd            -4.500000     2008-01-16T13:38:20.00Z  
1338.6674   49120   43.1766  -70.4255  149.0    0.5    4.731      32.156     1017.6        nd            nd            nd            nd            -4.500000     2008-01-16T13:38:40.04Z  
1339.0000   49140   43.1765  -70.4254  138.0    0.5    4.745      32.157     1017.6        nd            nd            nd            nd            -4.500000     2008-01-16T13:39:00.00Z  
1339.3326   49160   43.1764  -70.4254  167.0    0.5    4.751      32.157     1017.5        nd            nd            nd            nd            -4.500000     2008-01-16T13:39:19.96Z  
1339.6667   49180   43.1763  -70.4253  157.0    0.5    4.735      32.158     1017.6        nd            nd            nd            nd            -4.500000     2008-01-16T13:39:40.00Z  
1339.9994   49200   43.1763  -70.4253  139.0    0.5    4.716      32.159     1017.6        nd            nd            nd            nd            -4.500000     2008-01-16T13:39:59.96Z  
1340.3334   49220   43.1762  -70.4253  157.0    0.5    4.721      32.160     1017.6        nd            nd            nd            nd            -4.500000     2008-01-16T13:40:20.00Z  
1340.6661   49240   43.1761  -70.4252  171.0    0.5    4.741      32.161     1017.6        nd            nd            nd            nd            -4.500000     2008-01-16T13:40:39.97Z  
1341.0002   49260   43.1760  -70.4252  154.0    0.4    4.743      32.159     1017.6        nd            nd            nd            nd            -4.500000     2008-01-16T13:41:00.01Z  
1341.3328   49280   43.1760  -70.4251  167.0    0.5    4.725      32.158     1017.6        nd            nd            nd            nd            -4.500000     2008-01-16T13:41:19.97Z  
1341.6669   49300   43.1759  -70.4251  157.0    0.5    4.720      32.158     1017.6        nd            nd            nd            nd            -4.500000     2008-01-16T13:41:40.01Z  
1341.9995   49320   43.1758  -70.4250  176.0    0.4    4.707      32.159     1017.6        nd            nd            nd            nd            -4.500000     2008-01-16T13:41:59.97Z  
1342.3163   49339   43.1758  -70.4250  180.0    0.5    4.706      32.160     1017.7        nd            nd            nd            nd            -4.500000     2008-01-16T13:42:18.98Z  
nd          nd      nd       nd        nd       nd     nd         nd         nd            nd            nd            nd            nd            nd            nd                
1343.0838   49385   43.1756  -70.4249  151.0    0.5    4.752      32.159     1017.6        nd            nd            nd            nd            -4.500000     2008-01-16T13:43:05.03Z  
1343.3330   49400   43.1755  -70.4249  156.0    0.5    4.747      32.159     1017.6        nd            nd            nd            nd            -4.500000     2008-01-16T13:43:19.98Z  
1343.6670   49420   43.1755  -70.4248  157.0    0.5    4.742      32.160     1017.6        nd            nd            nd            nd            -4.500000     2008-01-16T13:43:40.02Z  
1343.9997   49440   43.1754  -70.4248  177.0    0.5    4.743      32.160     1017.7        nd            nd            nd            nd            -4.500000     2008-01-16T13:43:59.98Z  
1344.3338   49460   43.1753  -70.4248  160.0    0.6    4.747      32.159     1017.7        nd            nd            nd            nd            -4.500000     2008-01-16T13:44:20.03Z  
1344.6664   49480   43.1752  -70.4247  166.0    0.5    4.724      32.159     1017.7        nd            nd            nd            nd            -4.500000     2008-01-16T13:44:39.98Z  
1345.0005   49500   43.1751  -70.4247  170.0    0.5    4.721      32.160     1017.7        457.742034    444.125993    nd            nd            -4.500000     2008-01-16T13:45:00.03Z  
1345.3331   49520   43.1751  -70.4246  160.0    0.5    4.719      32.160     1017.7        457.629928    444.003951    nd            nd            -4.500000     2008-01-16T13:45:19.99Z  
1345.6672   49540   43.1750  -70.4246  173.0    0.6    4.711      32.160     1017.7        457.578302    443.956503    nd            nd            -4.500000     2008-01-16T13:45:40.03Z  
1345.9998   49560   43.1749  -70.4246  167.0    0.5    4.710      32.160     1017.7        457.555494    443.943908    nd            nd            -4.500000     2008-01-16T13:45:59.99Z  
1346.3339   49580   43.1748  -70.4245  157.0    0.5    4.710      32.161     1017.7        457.195002    443.599531    nd            nd            -4.500000     2008-01-16T13:46:20.03Z  
1346.6666   49600   43.1748  -70.4245  151.0    0.4    4.706      32.160     1017.8        457.098802    443.515925    nd            nd            -4.500000     2008-01-16T13:46:40.00Z  
1347.0006   49620   43.1747  -70.4245  161.0    0.4    4.722      32.161     1017.8        456.700765    443.137808    nd            nd            -4.500000     2008-01-16T13:47:00.04Z  
1347.3333   49640   43.1746  -70.4244  169.0    0.4    4.730      32.161     1017.8        456.517923    442.964848    nd            nd            -4.500000     2008-01-16T13:47:20.00Z  
1347.6674   49660   43.1746  -70.4244  156.0    0.4    4.748      32.160     1017.8        456.351926    442.794480    nd            nd            -4.500000     2008-01-16T13:47:40.04Z  
1348.0000   49680   43.1745  -70.4243  162.0    0.5    4.752      32.161     1017.8        456.384493    442.846060    nd            nd            -4.500000     2008-01-16T13:48:00.00Z  
1348.3326   49700   43.1744  -70.4243  159.0    0.4    4.776      32.162     1017.9        456.431802    442.903107    nd            nd            -4.500000     2008-01-16T13:48:19.96Z  
1348.6667   49720   43.1743  -70.4243  179.0    0.5    4.788      32.161     1017.8        456.544336    442.987953    nd            nd            -4.500000     2008-01-16T13:48:40.00Z  
1348.9994   49740   43.1743  -70.4242  169.0    0.5    4.766      32.160     1017.8        456.768048    443.198750    nd            nd            -4.500000     2008-01-16T13:48:59.96Z  
1349.3334   49760   43.1742  -70.4242  173.0    0.4    4.747      32.161     1017.8        456.915556    443.351210    nd            nd            -4.500000     2008-01-16T13:49:20.00Z  
1349.6661   49780   43.1741  -70.4242  144.0    0.5    4.747      32.161     1017.8        457.065921    443.505732    nd            nd            -4.500000     2008-01-16T13:49:39.97Z  
1350.0002   49800   43.1740  -70.4242  152.0    0.5    4.758      32.162     1017.8        457.402783    443.839675    nd            nd            -4.500000     2008-01-16T13:50:00.01Z  
1350.3328   49820   43.1739  -70.4241  153.0    0.5    4.772      32.161     1017.8        457.439261    443.860348    nd            nd            -4.500000     2008-01-16T13:50:19.97Z  
1350.6669   49840   43.1738  -70.4242  217.0    1.7    4.755      32.161     1017.9        457.599743    444.035690    nd            nd            -4.500000     2008-01-16T13:50:40.01Z  
1350.9995   49860   43.1735  -70.4243  150.0    2.7    4.751      32.161     1017.9        457.568203    444.015893    nd            nd            -4.500000     2008-01-16T13:50:59.97Z  
1351.3336   49880   43.1734  -70.4238  54.0     2.3    4.748      32.161     1017.8        457.437370    443.861045    nd            nd            -4.500000     2008-01-16T13:51:20.02Z  
1351.6662   49900   43.1737  -70.4237  301.0    2.1    4.753      32.162     1017.8        457.215053    443.653473    nd            nd            -4.500000     2008-01-16T13:51:39.97Z  
1352.0003   49920   43.1740  -70.4239  342.0    1.7    4.764      32.163     1017.8        457.258829    443.697606    nd            nd            -4.500000     2008-01-16T13:52:00.02Z  
1352.3330   49940   43.1743  -70.4240  328.0    1.6    4.771      32.163     1017.9        457.783372    444.214098    nd            nd            -4.500000     2008-01-16T13:52:19.98Z  
1352.6670   49960   43.1746  -70.4241  312.0    1.6    4.772      32.164     1017.9        458.551043    444.956979    nd            nd            -4.500000     2008-01-16T13:52:40.02Z  
1352.9997   49980   43.1749  -70.4243  330.0    1.6    4.779      32.164     1017.9        458.905490    445.299549    nd            nd            -4.500000     2008-01-16T13:52:59.98Z  
1353.3338   50000   43.1751  -70.4245  339.0    1.6    4.784      32.163     1017.9        458.802024    445.195167    nd            nd            -4.500000     2008-01-16T13:53:20.03Z  
1353.6664   50020   43.1754  -70.4246  296.0    1.6    4.778      32.162     1017.9        458.525197    444.932509    nd            nd            -4.500000     2008-01-16T13:53:39.98Z  
1354.0005   50040   43.1757  -70.4248  281.0    1.5    4.773      32.162     1017.9        458.344681    444.768814    nd            nd            -4.500000     2008-01-16T13:54:00.03Z  
1354.3331   50060   43.1759  -70.4249  248.0    1.4    4.781      32.158     1017.9        458.122433    444.557297    nd            nd            -4.500000     2008-01-16T13:54:19.99Z  
1354.6672   50080   43.1761  -70.4249  287.0    1.4    4.779      32.155     1017.9        458.134752    444.575971    nd            nd            -4.500000     2008-01-16T13:54:40.03Z  
1354.9998   50100   43.1764  -70.4250  201.0    1.3    4.774      32.159     1017.9        458.229235    444.668098    nd            nd            -4.500000     2008-01-16T13:54:59.99Z  
1355.3339   50120   43.1766  -70.4250  231.0    1.3    4.776      32.159     1017.9        458.365049    444.800271    nd            nd            -4.500000     2008-01-16T13:55:20.03Z  
1355.6666   50140   43.1768  -70.4251  165.0    1.3    4.772      32.158     1017.9        458.345064    444.778150    nd            nd            -4.500000     2008-01-16T13:55:40.00Z  
1356.0006   50160   43.1771  -70.4251  289.0    1.2    4.769      32.158     1017.9        458.370780    444.806132    nd            nd            -4.500000     2008-01-16T13:56:00.04Z  
1356.3333   50180   43.1773  -70.4252  176.0    1.3    4.776      32.157     1017.9        458.361003    444.801372    nd            nd            -4.500000     2008-01-16T13:56:20.00Z  
1356.6674   50200   43.1775  -70.4252  166.0    1.4    4.776      32.157     1017.9        458.420453    444.857315    nd            nd            -4.500000     2008-01-16T13:56:40.04Z  
1357.0000   50220   43.1778  -70.4252  234.0    1.4    4.772      32.157     1018.0        458.760841    445.201913    nd            nd            -4.500000     2008-01-16T13:57:00.00Z  
1357.3326   50240   43.1780  -70.4252  258.0    1.3    4.775      32.156     1017.9        458.892449    445.324462    nd            nd            -4.500000     2008-01-16T13:57:19.96Z  
1357.6667   50260   43.1783  -70.4252  126.0    1.3    4.772      32.156     1018.0        458.931657    445.380129    nd            nd            -4.500000     2008-01-16T13:57:40.00Z  
1357.9994   50280   43.1785  -70.4252  92.0     1.2    4.776      32.155     1018.0        459.089703    445.538038    nd            nd            -4.500000     2008-01-16T13:57:59.96Z  
1358.3334   50300   43.1787  -70.4251  90.0     1.2    4.780      32.154     1018.0        458.997450    445.448573    nd            nd            -4.500000     2008-01-16T13:58:20.00Z  
1358.6661   50320   43.1789  -70.4250  56.0     0.9    4.779      32.154     1018.0        458.596075    445.059100    nd            nd            -4.500000     2008-01-16T13:58:39.97Z  
1359.0002   50340   43.1790  -70.4250  87.0     0.4    4.780      32.154     1018.0        458.156374    444.635482    nd            nd            -4.500000     2008-01-16T13:59:00.01Z  
1359.3328   50360   43.1790  -70.4249  135.0    0.4    4.790      32.155     1018.0        457.833472    444.322270    nd            nd            -4.500000     2008-01-16T13:59:19.97Z  
1359.6496   50379   43.1789  -70.4249  154.0    0.5    4.801      32.154     1018.0        457.664345    444.153579    nd            nd            -4.500000     2008-01-16T13:59:38.98Z  
1359.9995   50400   43.1788  -70.4248  179.0    0.5    4.805      32.153     1018.0        457.541749    444.039798    nd            nd            -4.250000     2008-01-16T13:59:59.97Z  
1400.3336   50420   43.1787  -70.4248  171.0    0.4    4.794      32.152     1018.0        457.570106    444.075893    nd            nd            -4.000000     2008-01-16T14:00:20.02Z  
1400.6662   50440   43.1787  -70.4248  141.0    0.6    4.772      32.152     1018.1        457.418942    443.960506    nd            nd            -4.000000     2008-01-16T14:00:39.97Z  
1401.0003   50460   43.1786  -70.4247  151.0    0.4    4.739      32.153     1018.1        457.400966    443.961347    nd            nd            -4.000000     2008-01-16T14:01:00.02Z  
1401.3330   50480   43.1785  -70.4247  125.0    0.7    4.717      32.152     1018.1        457.927008    444.486434    nd            nd            -4.000000     2008-01-16T14:01:19.98Z  
1401.6670   50500   43.1785  -70.4246  130.0    0.9    4.691      32.153     1018.1        458.190465    444.747229    nd            nd            -4.000000     2008-01-16T14:01:40.02Z  
1401.9997   50520   43.1784  -70.4246  147.0    0.5    4.688      32.153     1018.2        458.662460    445.226091    nd            nd            -4.000000     2008-01-16T14:01:59.98Z  
1402.3338   50540   43.1783  -70.4245  148.0    0.5    4.675      32.146     1018.1        461.985524    448.430297    nd            nd            -4.000000     2008-01-16T14:02:20.03Z  
1402.6664   50560   43.1783  -70.4244  138.0    0.6    4.667      32.154     1018.1        465.040693    451.375746    nd            nd            -4.000000     2008-01-16T14:02:39.98Z  
1403.0005   50580   43.1782  -70.4242  110.0    1.4    4.671      32.155     1018.1        465.590895    451.926977    nd            nd            -4.000000     2008-01-16T14:03:00.03Z  
1403.3331   50600   43.1781  -70.4239  95.0     1.7    4.687      32.156     1018.1        464.160148    450.518269    nd            nd            -4.000000     2008-01-16T14:03:19.99Z  
1403.6672   50620   43.1782  -70.4235  75.0     1.6    4.721      32.156     1018.1        462.008305    448.410433    nd            nd            -4.000000     2008-01-16T14:03:40.03Z  
1403.9998   50640   43.1783  -70.4231  64.0     1.5    4.738      32.156     1018.1        460.305660    446.757375    nd            nd            -4.000000     2008-01-16T14:03:59.99Z  
1404.3339   50660   43.1784  -70.4229  49.0     1.4    4.762      32.157     1018.1        459.337239    445.818908    nd            nd            -4.000000     2008-01-16T14:04:20.03Z  
1404.6666   50680   43.1786  -70.4226  39.0     1.4    4.767      32.157     1018.1        459.096601    445.587007    nd            nd            -4.000000     2008-01-16T14:04:40.00Z  
1405.0006   50700   43.1788  -70.4224  47.0     1.4    4.772      32.158     1018.1        458.913467    445.416110    nd            nd            -4.000000     2008-01-16T14:05:00.04Z  
1405.3333   50720   43.1790  -70.4223  54.0     1.3    4.778      32.159     1018.1        458.755482    445.270259    nd            nd            -4.000000     2008-01-16T14:05:20.00Z  
1405.6674   50740   43.1793  -70.4223  106.0    1.2    4.781      32.159     1018.1        458.847777    445.363816    nd            nd            -4.000000     2008-01-16T14:05:40.04Z  
1406.0000   50760   43.1795  -70.4222  148.0    1.2    4.784      32.160     1018.1        458.879831    445.398681    nd            nd            -4.000000     2008-01-16T14:06:00.00Z  
1406.3326   50780   43.1797  -70.4222  56.0     1.1    4.795      32.160     1018.2        458.914837    445.432159    nd            nd            -4.000000     2008-01-16T14:06:19.96Z  
1406.6667   50800   43.1799  -70.4221  59.0     1.2    4.801      32.160     1018.1        459.095846    445.600545    nd            nd            -4.000000     2008-01-16T14:06:40.00Z  
1406.9994   50820   43.1801  -70.4220  112.0    1.2    4.797      32.160     1018.2        459.175118    445.685589    nd            nd            -4.000000     2008-01-16T14:06:59.96Z  
1407.3334   50840   43.1803  -70.4219  33.0     1.2    4.796      32.160     1018.2        459.196681    445.712735    nd            nd            -4.000000     2008-01-16T14:07:20.00Z  
1407.6661   50860   43.1805  -70.4219  52.0     1.3    4.804      32.160     1018.2        459.095435    445.626850    nd            nd            -4.000000     2008-01-16T14:07:39.97Z  
1408.0002   50880   43.1807  -70.4219  141.0    1.1    4.810      32.159     1018.2        458.631871    445.183382    nd            nd            -4.000000     2008-01-16T14:08:00.01Z  
1408.3328   50900   43.1810  -70.4219  199.0    1.1    4.811      32.159     1018.2        458.338686    444.906367    nd            nd            -4.000000     2008-01-16T14:08:19.97Z  
1408.6669   50920   43.1812  -70.4219  252.0    1.2    4.813      32.160     1018.2        458.248954    444.821339    nd            nd            -4.000000     2008-01-16T14:08:40.01Z  
1408.9995   50940   43.1814  -70.4220  325.0    1.5    4.811      32.159     1018.2        458.219833    444.782374    nd            nd            -4.000000     2008-01-16T14:08:59.97Z  
1409.3336   50960   43.1816  -70.4222  325.0    1.4    4.814      32.159     1018.3        458.132055    444.717032    nd            nd            -4.000000     2008-01-16T14:09:20.02Z  
1409.6662   50980   43.1818  -70.4224  332.0    1.5    4.827      32.158     1018.3        458.391579    444.974494    nd            nd            -4.000000     2008-01-16T14:09:39.97Z  
1410.0003   51000   43.1821  -70.4225  316.0    1.6    4.823      32.157     1018.3        458.270699    444.857474    nd            nd            -4.000000     2008-01-16T14:10:00.02Z  
1410.3330   51020   43.1823  -70.4227  191.0    1.6    4.810      32.157     1018.3        458.530552    445.116239    nd            nd            -4.000000     2008-01-16T14:10:19.98Z  
1410.6670   51040   43.1826  -70.4226  129.0    1.8    4.802      32.157     1018.3        458.538431    445.118132    nd            nd            -4.000000     2008-01-16T14:10:40.02Z  
1410.9997   51060   43.1829  -70.4223  42.0     2.4    4.798      32.156     1018.3        458.535605    445.109372    nd            nd            -4.000000     2008-01-16T14:10:59.98Z  
1411.3338   51080   43.1833  -70.4219  38.0     2.5    4.793      32.156     1018.3        458.546666    445.122753    nd            nd            -4.000000     2008-01-16T14:11:20.03Z  
1411.6664   51100   43.1837  -70.4216  31.0     3.1    4.792      32.156     1018.3        458.720046    445.299778    nd            nd            -4.000000     2008-01-16T14:11:39.98Z  
1412.0005   51120   43.1842  -70.4211  27.0     3.8    4.791      32.158     1018.3        458.634876    445.210894    nd            nd            -4.000000     2008-01-16T14:12:00.03Z  
1412.3331   51140   43.1849  -70.4207  28.0     4.2    4.795      32.159     1018.2        458.623427    445.188027    nd            nd            -4.000000     2008-01-16T14:12:19.99Z  
1412.6672   51160   43.1856  -70.4201  28.0     4.7    4.797      32.158     1018.2        458.662037    445.223700    nd            nd            -4.000000     2008-01-16T14:12:40.03Z  
1412.9998   51180   43.1864  -70.4196  27.0     4.8    4.789      32.158     1018.3        458.539819    445.118623    nd            nd            -4.000000     2008-01-16T14:12:59.99Z  
1413.3339   51200   43.1872  -70.4190  28.0     4.8    4.783      32.157     1018.3        458.477397    445.057506    nd            nd            -4.000000     2008-01-16T14:13:20.03Z  
1413.6666   51220   43.1879  -70.4185  29.0     4.8    4.778      32.155     1018.2        458.097195    444.677951    nd            nd            -4.000000     2008-01-16T14:13:40.00Z  
1414.0006   51240   43.1887  -70.4179  28.0     5.2    4.770      32.160     1018.2        457.751476    444.342271    nd            nd            -4.000000     2008-01-16T14:14:00.04Z  
1414.3333   51260   43.1896  -70.4172  27.0     5.8    4.777      32.161     1018.2        457.291252    443.889366    nd            nd            -4.000000     2008-01-16T14:14:20.00Z  
1414.6674   51280   43.1906  -70.4165  28.0     6.9    4.789      32.163     1018.2        457.102290    443.699424    nd            nd            -4.000000     2008-01-16T14:14:40.04Z  
1415.0000   51300   43.1918  -70.4156  29.0     7.9    4.805      32.168     1018.2        457.195610    443.784223    394.014846    388.968569    -4.000000     2008-01-16T14:15:00.00Z  
1415.3326   51320   43.1931  -70.4146  29.0     8.0    4.803      32.170     1018.2        457.444220    444.033992    393.862941    388.819124    -4.000000     2008-01-16T14:15:19.96Z  
1415.6667   51340   43.1943  -70.4136  33.0     8.2    4.797      32.174     1018.2        457.829670    444.401771    393.873097    388.825079    -4.000000     2008-01-16T14:15:40.00Z  
1415.9994   51360   43.1956  -70.4124  32.0     8.6    4.800      32.181     1018.2        458.171776    444.727655    nd            nd            -4.000000     2008-01-16T14:15:59.96Z  
1416.3334   51380   43.1969  -70.4113  31.0     8.7    4.809      32.180     1018.2        458.453394    444.992082    nd            nd            -4.000000     2008-01-16T14:16:20.00Z  
1416.6661   51400   43.1983  -70.4102  35.0     8.6    4.805      32.181     1018.2        458.924761    445.457857    394.003412    388.955140    -4.000000     2008-01-16T14:16:39.97Z  
1417.0002   51420   43.1995  -70.4088  38.0     8.6    4.788      32.185     1018.2        459.403677    445.951017    393.973220    388.944491    -4.000000     2008-01-16T14:17:00.01Z  
1417.3328   51440   43.2008  -70.4076  34.0     8.7    4.783      32.187     1018.2        459.641961    446.176250    394.060156    389.021844    -4.000000     2008-01-16T14:17:19.97Z  
1417.6669   51460   43.2020  -70.4063  37.0     8.7    4.767      32.180     1018.2        459.594972    446.118195    393.992623    388.935823    -4.000000     2008-01-16T14:17:40.01Z  
1417.9995   51480   43.2032  -70.4050  40.0     8.6    4.765      32.178     1018.2        459.623733    446.152229    394.092649    389.043173    -4.000000     2008-01-16T14:17:59.97Z  
1418.3336   51500   43.2045  -70.4037  34.0     8.7    4.778      32.183     1018.2        459.478648    446.009387    394.106004    389.060942    -4.000000     2008-01-16T14:18:20.02Z  
1418.6662   51520   43.2058  -70.4025  36.0     8.7    4.778      32.183     1018.2        459.461159    445.997302    394.137515    389.097202    -4.000000     2008-01-16T14:18:39.97Z  
1419.0003   51540   43.2070  -70.4012  35.0     8.7    4.756      32.177     1018.2        459.798534    446.333534    394.008575    388.972780    -4.000000     2008-01-16T14:19:00.02Z  
1419.3330   51560   43.2083  -70.3999  38.0     8.6    4.755      32.171     1018.2        459.998728    446.519155    394.197631    389.153852    -4.000000     2008-01-16T14:19:19.98Z  
1419.6670   51580   43.2095  -70.3986  36.0     8.6    4.745      32.178     1018.2        459.848540    446.372516    394.391539    389.348430    -4.000000     2008-01-16T14:19:40.02Z  
1419.9997   51600   43.2108  -70.3974  36.0     8.7    4.736      32.169     1018.2        459.543691    446.082684    394.401396    389.361082    -4.000000     2008-01-16T14:19:59.98Z  
1420.3338   51620   43.2120  -70.3961  38.0     8.7    4.713      32.166     1018.2        459.170935    445.740599    nd            nd            -4.000000     2008-01-16T14:20:20.03Z  
1420.6664   51640   43.2133  -70.3948  39.0     8.6    4.695      32.158     1018.2        458.644082    445.230482    394.616103    389.596767    -4.000000     2008-01-16T14:20:39.98Z  
1421.0005   51660   43.2145  -70.3935  34.0     8.6    4.684      32.155     1018.2        457.568841    444.182027    394.588912    389.559756    -4.000000     2008-01-16T14:21:00.03Z  
1421.3331   51680   43.2158  -70.3922  35.0     8.7    4.705      32.150     1018.2        456.537377    443.176508    394.441259    389.405424    -4.000000     2008-01-16T14:21:19.99Z  
1421.6672   51700   43.2170  -70.3910  37.0     8.6    4.683      32.160     1018.2        455.796037    442.452390    nd            nd            -4.000000     2008-01-16T14:21:40.03Z  
1421.9998   51720   43.2183  -70.3897  35.0     8.6    4.689      32.161     1018.2        455.443680    442.105144    395.044211    389.997768    -4.000000     2008-01-16T14:21:59.99Z  
1422.3339   51740   43.2196  -70.3885  32.0     8.6    4.704      32.154     1018.2        455.023669    441.706685    395.152712    390.116757    -4.000000     2008-01-16T14:22:20.03Z  
1422.6666   51760   43.2208  -70.3872  37.0     8.6    4.701      32.160     1018.2        454.785454    441.476480    nd            nd            -4.000000     2008-01-16T14:22:40.00Z  
1423.0006   51780   43.2220  -70.3859  40.0     8.6    4.710      32.161     1018.2        454.631708    441.321444    nd            nd            -4.000000     2008-01-16T14:23:00.04Z  
1423.3333   51800   43.2232  -70.3846  40.0     8.7    4.720      32.162     1018.2        454.387930    441.088624    nd            nd            -4.000000     2008-01-16T14:23:20.00Z  
1423.6674   51820   43.2245  -70.3832  35.0     8.6    4.708      32.163     1018.2        454.404371    441.108045    nd            nd            -4.000000     2008-01-16T14:23:40.04Z  
1424.0000   51840   43.2257  -70.3820  38.0     8.6    5.405      32.137     1018.2        454.147845    440.679692    nd            nd            -4.000000     2008-01-16T14:24:00.00Z  
1424.3326   51860   43.2269  -70.3807  38.0     8.5    4.873      32.143     1018.2        455.331602    441.974196    nd            nd            -4.000000     2008-01-16T14:24:19.96Z  
1424.6667   51880   43.2281  -70.3794  38.0     8.6    4.982      32.155     1018.2        459.842373    446.322242    nd            nd            -4.000000     2008-01-16T14:24:40.00Z  
1424.9994   51900   43.2294  -70.3782  32.0     8.6    4.840      32.133     1018.2        459.534258    446.061246    nd            nd            -4.000000     2008-01-16T14:24:59.96Z  
1425.3334   51920   43.2307  -70.3769  38.0     8.5    4.713      32.151     1018.2        459.477479    446.029439    nd            nd            -4.000000     2008-01-16T14:25:20.00Z  
1425.6661   51940   43.2319  -70.3756  37.0     8.6    4.854      32.155     1018.2        458.306824    444.865551    395.721854    390.654846    -4.000000     2008-01-16T14:25:39.97Z  
1426.0002   51960   43.2331  -70.3744  34.0     8.6    4.804      32.119     1018.2        456.885131    443.490247    395.643020    390.562019    -4.000000     2008-01-16T14:26:00.01Z  
1426.3328   51980   43.2344  -70.3731  38.0     8.6    4.669      32.130     1018.2        456.435097    443.083245    nd            nd            -4.000000     2008-01-16T14:26:19.97Z  
1426.6669   52000   43.2356  -70.3718  39.0     8.6    4.770      32.128     1018.2        455.888224    442.527876    395.714938    390.649484    -4.000000     2008-01-16T14:26:40.01Z  
1426.9995   52020   43.2368  -70.3706  36.0     8.6    4.699      32.120     1018.2        454.546958    441.251547    nd            nd            -4.000000     2008-01-16T14:26:59.97Z  
1427.3336   52040   43.2381  -70.3693  36.0     8.6    4.628      32.133     1018.2        453.811965    440.539936    nd            nd            -4.000000     2008-01-16T14:27:20.02Z  
1427.6662   52060   43.2393  -70.3681  33.0     8.6    4.610      32.130     1018.2        452.991686    439.761136    395.584989    390.588369    -4.000000     2008-01-16T14:27:39.97Z  
1428.0003   52080   43.2406  -70.3668  38.0     8.6    4.799      32.123     1018.2        452.050829    438.805037    395.985579    390.918854    -4.000000     2008-01-16T14:28:00.02Z  
1428.3330   52100   43.2418  -70.3655  39.0     8.6    4.639      32.128     1018.2        451.282769    438.103267    395.869864    390.847681    -4.000000     2008-01-16T14:28:19.98Z  
1428.6670   52120   43.2430  -70.3642  38.0     8.6    4.602      32.130     1018.3        451.464560    438.293110    395.871335    390.859706    -4.000000     2008-01-16T14:28:40.02Z  
1428.9997   52140   43.2442  -70.3628  38.0     8.6    4.593      32.129     1018.3        450.801834    437.650531    395.767124    390.758412    -4.000000     2008-01-16T14:28:59.98Z  
1429.3338   52160   43.2455  -70.3616  36.0     8.6    4.588      32.128     1018.3        450.008331    436.889782    396.231280    391.224038    -4.000000     2008-01-16T14:29:20.03Z  
1429.6664   52180   43.2467  -70.3603  37.0     8.6    4.584      32.130     1018.3        449.280931    436.196603    395.975547    390.984722    -4.000000     2008-01-16T14:29:39.98Z  
1430.0005   52200   43.2479  -70.3590  37.0     8.6    4.588      32.129     1018.3        448.657250    435.584832    395.941162    390.943649    -4.000000     2008-01-16T14:30:00.03Z  
1430.3331   52220   43.2492  -70.3577  38.0     8.6    4.587      32.120     1018.3        448.376941    435.308773    395.897638    390.897286    -4.000000     2008-01-16T14:30:19.99Z  
1430.6672   52240   43.2504  -70.3565  37.0     8.6    4.587      32.120     1018.3        448.012768    434.943320    396.139529    391.120652    -4.000000     2008-01-16T14:30:40.03Z  
1430.9998   52260   43.2516  -70.3552  37.0     8.6    4.593      32.121     1018.3        447.702606    434.656900    nd            nd            -4.000000     2008-01-16T14:30:59.99Z  
1431.3339   52280   43.2529  -70.3539  36.0     8.6    4.593      32.121     1018.3        447.611066    434.574323    396.030508    391.035951    -4.000000     2008-01-16T14:31:20.03Z  
1431.6666   52300   43.2541  -70.3526  36.0     8.6    4.599      32.121     1018.3        447.495752    434.466264    396.264458    391.274271    -4.000000     2008-01-16T14:31:40.00Z  
1432.0006   52320   43.2553  -70.3513  38.0     8.5    4.602      32.118     1018.3        447.356447    434.329704    396.064814    391.071168    -4.000000     2008-01-16T14:32:00.04Z  
1432.3333   52340   43.2566  -70.3501  36.0     8.6    4.609      32.120     1018.3        447.484803    434.460788    395.850235    390.869552    -4.000000     2008-01-16T14:32:20.00Z  
1432.6674   52360   43.2578  -70.3488  35.0     8.6    4.612      32.116     1018.4        447.520931    434.502402    nd            nd            -4.000000     2008-01-16T14:32:40.04Z  
1433.0000   52380   43.2591  -70.3475  37.0     8.6    4.611      32.124     1018.4        447.715842    434.698576    396.131621    391.150029    -4.000000     2008-01-16T14:33:00.00Z  
1433.3326   52400   43.2603  -70.3463  35.0     8.6    4.616      32.125     1018.3        447.899988    434.860501    396.165727    391.177125    -4.000000     2008-01-16T14:33:19.96Z  
1433.6667   52420   43.2616  -70.3451  35.0     8.6    4.621      32.121     1018.3        447.919484    434.885275    396.377628    391.388744    -4.000000     2008-01-16T14:33:40.00Z  
1433.9994   52440   43.2629  -70.3438  35.0     8.6    4.632      32.130     1018.3        448.000777    434.941582    396.451938    391.445915    -4.000000     2008-01-16T14:33:59.96Z  
1434.3334   52460   43.2641  -70.3426  36.0     8.5    4.638      32.135     1018.3        448.166843    435.116470    396.385566    391.389713    -4.000000     2008-01-16T14:34:20.00Z  
1434.6661   52480   43.2654  -70.3413  36.0     8.5    4.635      32.127     1018.4        448.235351    435.190427    nd            nd            -4.000000     2008-01-16T14:34:39.97Z  
1435.0002   52500   43.2666  -70.3402  31.0     8.5    4.617      32.122     1018.4        448.451486    435.420887    nd            nd            -4.000000     2008-01-16T14:35:00.01Z  
1435.3328   52520   43.2679  -70.3390  37.0     8.6    4.611      32.113     1018.4        448.523148    435.480921    nd            nd            -4.000000     2008-01-16T14:35:19.97Z  
1435.6669   52540   43.2692  -70.3377  35.0     8.6    4.614      32.119     1018.4        448.665054    435.618923    nd            nd            -4.000000     2008-01-16T14:35:40.01Z  
1435.9995   52560   43.2704  -70.3365  37.0     8.6    4.617      32.120     1018.4        448.721648    435.674450    nd            nd            -4.000000     2008-01-16T14:35:59.97Z  
1436.3336   52580   43.2717  -70.3353  32.0     8.6    4.622      32.118     1018.4        448.923897    435.866828    nd            nd            -4.000000     2008-01-16T14:36:20.02Z  
1436.6662   52600   43.2730  -70.3341  34.0     8.6    4.626      32.120     1018.3        449.079123    436.005146    nd            nd            -4.000000     2008-01-16T14:36:39.97Z  
1437.0003   52620   43.2742  -70.3329  33.0     8.6    4.622      32.119     1018.3        449.163490    436.089695    nd            nd            -4.000000     2008-01-16T14:37:00.02Z  
1437.3330   52640   43.2756  -70.3318  31.0     8.5    4.614      32.112     1018.3        449.369820    436.285011    395.939630    390.946338    -4.000000     2008-01-16T14:37:19.98Z  
1437.6670   52660   43.2768  -70.3306  35.0     8.6    4.608      32.101     1018.3        449.519833    436.428503    395.927656    390.932179    -4.000000     2008-01-16T14:37:40.02Z  
1437.9997   52680   43.2781  -70.3294  33.0     8.5    4.604      32.102     1018.4        449.759121    436.692164    nd            nd            -4.000000     2008-01-16T14:37:59.98Z  
1438.3338   52700   43.2794  -70.3283  32.0     8.5    4.605      32.091     1018.3        449.763419    436.667787    nd            nd            -4.000000     2008-01-16T14:38:20.03Z  
1438.6664   52720   43.2807  -70.3272  31.0     8.5    4.603      32.090     1018.3        449.790850    436.694129    nd            nd            -4.000000     2008-01-16T14:38:39.98Z  
1439.0005   52740   43.2820  -70.3261  31.0     8.5    4.602      32.092     1018.3        449.756078    436.665986    395.841790    390.842935    -4.000000     2008-01-16T14:39:00.03Z  
1439.3331   52760   43.2834  -70.3250  30.0     8.5    4.598      32.092     1018.3        449.795205    436.705118    nd            nd            -4.000000     2008-01-16T14:39:19.99Z  
1439.6672   52780   43.2847  -70.3239  31.0     8.6    4.599      32.090     1018.4        449.915982    436.837006    395.641816    390.674474    -4.000000     2008-01-16T14:39:40.03Z  
1439.9998   52800   43.2860  -70.3228  31.0     8.6    4.594      32.090     1018.4        449.796691    436.720585    nd            nd            -4.000000     2008-01-16T14:39:59.99Z  
1440.3339   52820   43.2873  -70.3217  31.0     8.6    4.600      32.086     1018.4        449.914080    436.855251    nd            nd            -4.000000     2008-01-16T14:40:20.03Z  
1440.6666   52840   43.2887  -70.3207  30.0     8.5    4.607      32.079     1018.4        449.981809    436.895366    nd            nd            -4.000000     2008-01-16T14:40:40.00Z  
1441.0006   52860   43.2900  -70.3196  30.0     8.5    4.607      32.075     1018.4        449.886267    436.816509    nd            nd            -4.000000     2008-01-16T14:41:00.04Z  
1441.3333   52880   43.2913  -70.3185  29.0     8.6    4.609      32.071     1018.4        450.116210    437.032641    nd            nd            -4.000000     2008-01-16T14:41:20.00Z  
1441.6674   52900   43.2927  -70.3174  32.0     8.6    4.606      32.079     1018.3        450.153961    437.049906    nd            nd            -4.000000     2008-01-16T14:41:40.04Z  
1442.0000   52920   43.2940  -70.3163  31.0     8.6    4.608      32.079     1018.4        450.139675    437.044959    394.990714    390.023460    -4.000000     2008-01-16T14:42:00.00Z  
1442.3326   52940   43.2953  -70.3152  31.0     8.6    4.610      32.074     1018.3        450.326259    437.205501    395.077457    390.095764    -4.000000     2008-01-16T14:42:19.96Z  
1442.6667   52960   43.2966  -70.3141  32.0     8.6    4.604      32.066     1018.3        450.298015    437.181692    nd            nd            -4.000000     2008-01-16T14:42:40.00Z  
1442.9994   52980   43.2979  -70.3130  31.0     8.5    4.598      32.066     1018.3        450.262237    437.144827    nd            nd            -4.000000     2008-01-16T14:42:59.96Z  
1443.3334   53000   43.2993  -70.3119  30.0     8.6    4.595      32.070     1018.3        450.363162    437.238315    nd            nd            -4.000000     2008-01-16T14:43:20.00Z  
1443.6661   53020   43.3006  -70.3108  32.0     8.6    4.598      32.065     1018.3        450.351843    437.237162    nd            nd            -4.000000     2008-01-16T14:43:39.97Z  
1444.0002   53040   43.3019  -70.3097  31.0     8.6    4.597      32.068     1018.3        450.462709    437.339834    nd            nd            -4.000000     2008-01-16T14:44:00.01Z  
1444.3328   53060   43.3032  -70.3086  31.0     8.6    4.595      32.061     1018.3        450.439510    437.326684    nd            nd            -4.000000     2008-01-16T14:44:19.97Z  
1444.6669   53080   43.3046  -70.3075  31.0     8.6    4.589      32.063     1018.3        450.409230    437.304080    nd            nd            -4.000000     2008-01-16T14:44:40.01Z  
1444.9995   53100   43.3059  -70.3063  32.0     8.7    4.588      32.060     1018.3        450.411245    437.299357    394.664543    389.692918    -4.000000     2008-01-16T14:44:59.97Z  
1445.3336   53120   43.3072  -70.3052  32.0     8.6    4.587      32.066     1018.3        450.465698    437.347112    nd            nd            -4.000000     2008-01-16T14:45:20.02Z  
1445.6662   53140   43.3085  -70.3041  33.0     8.6    4.588      32.069     1018.4        450.470484    437.375371    nd            nd            -4.000000     2008-01-16T14:45:39.97Z  
1446.0003   53160   43.3098  -70.3029  32.0     8.6    4.588      32.064     1018.4        450.535763    437.455824    nd            nd            -4.000000     2008-01-16T14:46:00.02Z  
1446.3330   53180   43.3111  -70.3018  31.0     8.6    4.591      32.062     1018.4        450.568866    437.465835    nd            nd            -4.000000     2008-01-16T14:46:19.98Z  
1446.6670   53200   43.3124  -70.3006  32.0     8.7    4.592      32.062     1018.4        450.618046    437.512572    nd            nd            -4.000000     2008-01-16T14:46:40.02Z  
1446.9997   53220   43.3137  -70.2995  33.0     8.6    4.594      32.062     1018.4        450.547495    437.458996    nd            nd            -4.000000     2008-01-16T14:46:59.98Z  
1447.3338   53240   43.3150  -70.2983  34.0     8.6    4.599      32.056     1018.4        450.660585    437.554817    nd            nd            -4.000000     2008-01-16T14:47:20.03Z  
1447.6664   53260   43.3163  -70.2970  36.0     8.6    4.597      32.062     1018.4        450.783545    437.673800    395.066664    390.111273    -4.000000     2008-01-16T14:47:39.98Z  
1448.0005   53280   43.3175  -70.2957  37.0     8.7    4.595      32.066     1018.3        450.991285    437.871916    395.150620    390.182249    -4.000000     2008-01-16T14:48:00.03Z  
1448.3331   53300   43.3188  -70.2944  36.0     8.6    4.595      32.072     1018.4        451.114403    437.999572    395.576944    390.596905    -4.000000     2008-01-16T14:48:19.99Z  
1448.6672   53320   43.3200  -70.2932  36.0     8.6    4.593      32.075     1018.4        451.290806    438.175962    395.639450    390.672974    -4.000000     2008-01-16T14:48:40.03Z  
1448.9998   53340   43.3213  -70.2919  36.0     8.6    4.602      32.084     1018.4        451.209215    438.100330    395.028762    390.081716    -4.000000     2008-01-16T14:48:59.99Z  
1449.3339   53360   43.3225  -70.2907  35.0     8.6    4.612      32.088     1018.4        451.237224    438.110199    395.648833    390.672432    -4.000000     2008-01-16T14:49:20.03Z  
1449.6666   53380   43.3237  -70.2894  36.0     8.6    4.618      32.093     1018.4        451.164687    438.046277    395.960138    390.993396    -4.000000     2008-01-16T14:49:40.00Z  
1450.0006   53400   43.3250  -70.2881  38.0     8.6    4.623      32.111     1018.3        451.327521    438.183106    395.923265    390.939406    -4.000000     2008-01-16T14:50:00.04Z  
1450.3333   53420   43.3262  -70.2869  34.0     8.7    4.630      32.129     1018.3        451.300490    438.156886    395.394358    390.411136    -4.000000     2008-01-16T14:50:20.00Z  
1450.6674   53440   43.3275  -70.2856  36.0     8.7    4.652      32.149     1018.3        451.123972    437.960430    395.706045    390.692162    -4.000000     2008-01-16T14:50:40.04Z  
1451.0000   53460   43.3288  -70.2844  35.0     8.6    4.694      32.175     1018.3        451.053487    437.907196    nd            nd            -4.000000     2008-01-16T14:51:00.00Z  
1451.3326   53480   43.3300  -70.2831  35.0     8.6    4.742      32.180     1018.3        451.061726    437.882034    nd            nd            -4.000000     2008-01-16T14:51:19.96Z  
1451.6667   53500   43.3313  -70.2819  37.0     8.6    4.778      32.191     1018.3        451.550896    438.351561    396.063846    391.029021    -4.000000     2008-01-16T14:51:40.00Z  
1451.9994   53520   43.3326  -70.2806  33.0     8.6    4.804      32.190     1018.3        452.387586    439.164887    395.981191    390.946194    -4.000000     2008-01-16T14:51:59.96Z  
1452.3334   53540   43.3338  -70.2794  36.0     8.6    4.770      32.173     1018.3        453.309432    440.069194    nd            nd            -4.000000     2008-01-16T14:52:20.00Z  
1452.6661   53560   43.3351  -70.2782  36.0     8.6    4.700      32.163     1018.4        453.983603    440.754710    nd            nd            -4.000000     2008-01-16T14:52:39.97Z  
1453.0002   53580   43.3363  -70.2769  37.0     8.6    4.647      32.152     1018.4        453.465453    440.272492    nd            nd            -4.000000     2008-01-16T14:53:00.01Z  
1453.3328   53600   43.3375  -70.2756  34.0     8.6    4.616      32.152     1018.4        452.090593    438.946894    396.098366    391.131073    -4.000000     2008-01-16T14:53:19.97Z  
1453.6669   53620   43.3388  -70.2744  35.0     8.5    4.608      32.156     1018.4        450.457577    437.371107    nd            nd            -4.000000     2008-01-16T14:53:40.01Z  
1453.9995   53640   43.3400  -70.2731  36.0     8.6    4.601      32.150     1018.4        449.262318    436.213124    nd            nd            -4.000000     2008-01-16T14:53:59.97Z  
1454.3336   53660   43.3413  -70.2719  36.0     8.6    4.596      32.151     1018.4        448.236902    435.223984    396.255881    391.291641    -4.000000     2008-01-16T14:54:20.02Z  
1454.6662   53680   43.3425  -70.2706  35.0     8.6    4.590      32.141     1018.4        447.398853    434.423643    396.195793    391.251380    -4.000000     2008-01-16T14:54:39.97Z  
1455.0003   53700   43.3438  -70.2694  34.0     8.6    4.589      32.143     1018.4        446.827103    433.848717    396.325304    391.354059    -4.000000     2008-01-16T14:55:00.02Z  
1455.3330   53720   43.3451  -70.2683  31.0     8.6    4.595      32.148     1018.4        446.316548    433.338241    396.226882    391.247068    -4.000000     2008-01-16T14:55:19.98Z  
1455.6670   53740   43.3464  -70.2672  31.0     8.6    4.608      32.149     1018.4        445.959119    432.990563    396.196079    391.217185    -4.000000     2008-01-16T14:55:40.02Z  
1455.9997   53760   43.3477  -70.2660  33.0     8.6    4.631      32.163     1018.4        445.735856    432.783646    396.365239    391.391832    -4.000000     2008-01-16T14:55:59.98Z  
1456.3338   53780   43.3490  -70.2649  32.0     8.6    4.663      32.169     1018.4        445.748838    432.804562    nd            nd            -4.000000     2008-01-16T14:56:20.03Z  
1456.6664   53800   43.3503  -70.2637  32.0     8.6    4.670      32.165     1018.4        446.131610    433.163124    nd            nd            -4.000000     2008-01-16T14:56:39.98Z  
1457.0005   53820   43.3516  -70.2626  32.0     8.6    4.667      32.176     1018.3        446.625014    433.602799    396.186761    391.176981    -4.000000     2008-01-16T14:57:00.03Z  
1457.3331   53840   43.3529  -70.2614  32.0     8.5    4.662      32.183     1018.3        446.850492    433.821460    396.308560    391.294366    -4.000000     2008-01-16T14:57:19.99Z  
1457.6672   53860   43.3542  -70.2603  33.0     8.5    4.667      32.187     1018.2        446.976436    433.915267    396.372993    391.355446    -4.000000     2008-01-16T14:57:40.03Z  
1457.9998   53880   43.3555  -70.2591  31.0     8.6    4.676      32.199     1018.3        446.946363    433.911251    396.354557    391.342163    -4.000000     2008-01-16T14:57:59.99Z  
1458.3339   53900   43.3568  -70.2580  32.0     8.5    4.689      32.221     1018.3        446.907932    433.871759    396.270705    391.257340    -4.000000     2008-01-16T14:58:20.03Z  
1458.6666   53920   43.3581  -70.2569  32.0     8.5    4.712      32.232     1018.3        446.906144    433.864467    396.025381    391.003227    -4.000000     2008-01-16T14:58:40.00Z  
1459.0006   53940   43.3594  -70.2558  32.0     8.5    4.733      32.247     1018.3        446.971646    433.903469    396.186953    391.147299    -4.000000     2008-01-16T14:59:00.04Z  
1459.3333   53960   43.3607  -70.2546  32.0     8.5    4.765      32.254     1018.3        447.219118    434.151070    nd            nd            -4.000000     2008-01-16T14:59:20.00Z  
1459.6501   53979   43.3619  -70.2536  32.0     8.5    4.793      32.267     1018.3        447.533634    434.449645    nd            nd            -4.000000     2008-01-16T14:59:39.01Z  
1500.0000   54000   43.3633  -70.2524  33.0     8.5    4.824      32.276     1018.3        447.915452    434.809497    nd            nd            -3.800000     2008-01-16T15:00:00.00Z  
1500.3326   54020   43.3646  -70.2512  33.0     8.5    4.816      32.268     1018.3        448.394556    435.298222    395.111491    390.095829    -3.600000     2008-01-16T15:00:19.96Z  
1500.6667   54040   43.3659  -70.2501  33.0     8.5    4.790      32.275     1018.3        448.911920    435.787862    395.130945    390.108104    -3.600000     2008-01-16T15:00:40.00Z  
1500.9994   54060   43.3671  -70.2490  31.0     8.5    4.783      32.282     1018.3        449.135375    436.017875    nd            nd            -3.600000     2008-01-16T15:00:59.96Z  
1501.3334   54080   43.3684  -70.2479  32.0     8.4    4.785      32.284     1018.3        449.047422    435.937940    nd            nd            -3.600000     2008-01-16T15:01:20.00Z  
1501.6661   54100   43.3697  -70.2468  30.0     8.4    4.794      32.293     1018.4        448.836915    435.742419    394.754159    389.757325    -3.600000     2008-01-16T15:01:39.97Z  
1502.0002   54120   43.3710  -70.2457  32.0     8.4    4.800      32.295     1018.3        448.867620    435.760854    394.925984    389.916952    -3.600000     2008-01-16T15:02:00.01Z  
1502.3328   54140   43.3723  -70.2446  30.0     8.4    4.807      32.298     1018.3        448.837711    435.730820    394.786575    389.767959    -3.600000     2008-01-16T15:02:19.97Z  
1502.6669   54160   43.3736  -70.2435  32.0     8.4    4.820      32.293     1018.4        448.916836    435.807440    395.038104    390.023959    -3.600000     2008-01-16T15:02:40.01Z  
1502.9995   54180   43.3749  -70.2424  31.0     8.3    4.815      32.295     1018.3        449.015189    435.897190    394.834525    389.821142    -3.600000     2008-01-16T15:02:59.97Z  
1503.3336   54200   43.3761  -70.2412  38.0     8.4    4.810      32.295     1018.3        449.087537    435.970918    394.940607    389.928690    -3.600000     2008-01-16T15:03:20.02Z  
1503.6662   54220   43.3773  -70.2400  36.0     8.3    4.806      32.298     1018.4        449.213788    436.100481    nd            nd            -3.600000     2008-01-16T15:03:39.97Z  
1504.0003   54240   43.3785  -70.2388  33.0     8.3    4.793      32.279     1018.4        449.337599    436.228204    nd            nd            -3.600000     2008-01-16T15:04:00.02Z  
1504.3330   54260   43.3798  -70.2376  33.0     8.3    4.757      32.289     1018.4        449.469761    436.371743    nd            nd            -3.600000     2008-01-16T15:04:19.98Z  
1504.6670   54280   43.3810  -70.2366  31.0     8.3    4.740      32.284     1018.4        449.183708    436.115018    395.091137    390.120739    -3.600000     2008-01-16T15:04:40.02Z  
1504.9997   54300   43.3823  -70.2354  34.0     8.3    4.724      32.276     1018.4        449.082478    436.028797    395.138699    390.175417    -3.600000     2008-01-16T15:04:59.98Z  
1505.3338   54320   43.3835  -70.2343  32.0     8.3    4.706      32.268     1018.4        448.603944    435.558762    395.569657    390.599020    -3.600000     2008-01-16T15:05:20.03Z  
1505.6664   54340   43.3848  -70.2332  32.0     8.3    4.697      32.270     1018.4        448.337323    435.290644    nd            nd            -3.600000     2008-01-16T15:05:39.98Z  
1506.0005   54360   43.3860  -70.2320  33.0     8.3    4.695      32.264     1018.4        448.136927    435.116814    395.693601    390.706611    -3.600000     2008-01-16T15:06:00.03Z  
1506.3331   54380   43.3873  -70.2309  32.0     8.3    4.682      32.254     1018.4        447.825855    434.796844    395.160912    390.204440    -3.600000     2008-01-16T15:06:19.99Z  
1506.6672   54400   43.3885  -70.2298  33.0     8.3    4.667      32.243     1018.4        447.496314    434.484104    nd            nd            -3.600000     2008-01-16T15:06:40.03Z  
1506.9998   54420   43.3897  -70.2286  34.0     8.3    4.654      32.251     1018.4        447.222075    434.236749    nd            nd            -3.600000     2008-01-16T15:06:59.99Z  
1507.3339   54440   43.3910  -70.2275  32.0     8.3    4.654      32.253     1018.4        446.991083    434.002895    395.519278    390.550170    -3.600000     2008-01-16T15:07:20.03Z  
1507.6666   54460   43.3922  -70.2264  34.0     8.3    4.651      32.238     1018.3        446.742007    433.726903    395.286789    390.310498    -3.600000     2008-01-16T15:07:40.00Z  
1508.0006   54480   43.3935  -70.2252  34.0     8.3    4.653      32.240     1018.3        446.619978    433.608887    395.288801    390.305918    -3.600000     2008-01-16T15:08:00.04Z  
1508.3333   54500   43.3947  -70.2241  35.0     8.3    4.650      32.239     1018.4        446.431664    433.448099    nd            nd            -3.600000     2008-01-16T15:08:20.00Z  
1508.6674   54520   43.3959  -70.2229  33.0     8.4    4.647      32.234     1018.4        446.353228    433.363584    396.120206    391.133805    -3.600000     2008-01-16T15:08:40.04Z  
1509.0000   54540   43.3972  -70.2218  33.0     8.3    4.638      32.227     1018.3        446.265574    433.272260    395.797194    390.810877    -3.600000     2008-01-16T15:09:00.00Z  
1509.3326   54560   43.3984  -70.2206  35.0     8.3    4.628      32.223     1018.4        446.099445    433.132199    395.983827    391.019179    -3.600000     2008-01-16T15:09:19.96Z  
1509.6667   54580   43.3997  -70.2194  35.0     8.3    4.619      32.219     1018.4        445.997588    433.039356    396.137735    391.171223    -3.600000     2008-01-16T15:09:40.00Z  
1509.9994   54600   43.4009  -70.2183  33.0     8.3    4.625      32.208     1018.4        446.067553    433.100459    396.337325    391.362279    -3.600000     2008-01-16T15:09:59.96Z  
1510.3334   54620   43.4021  -70.2171  36.0     8.3    4.610      32.201     1018.4        445.773130    432.830673    396.325325    391.365072    -3.600000     2008-01-16T15:10:20.00Z  
1510.6661   54640   43.4034  -70.2159  32.0     8.3    4.610      32.219     1018.4        445.733482    432.798941    396.476026    391.524402    -3.600000     2008-01-16T15:10:39.97Z  
1511.0002   54660   43.4047  -70.2148  30.0     8.4    4.619      32.218     1018.5        445.442354    432.531796    396.550894    391.633372    -3.600000     2008-01-16T15:11:00.01Z  
1511.3328   54680   43.4060  -70.2138  30.0     8.4    4.628      32.229     1018.4        445.413610    432.478539    396.471774    391.504254    -3.600000     2008-01-16T15:11:19.97Z  
1511.6669   54700   43.4072  -70.2127  32.0     8.4    4.632      32.227     1018.5        445.438402    432.526696    396.363207    391.405800    -3.600000     2008-01-16T15:11:40.01Z  
1511.9995   54720   43.4085  -70.2115  32.0     8.4    4.638      32.236     1018.5        445.438850    432.522034    396.484978    391.528226    -3.600000     2008-01-16T15:11:59.97Z  
1512.3336   54740   43.4098  -70.2104  32.0     8.4    4.651      32.231     1018.4        445.457221    432.528984    nd            nd            -3.600000     2008-01-16T15:12:20.02Z  
1512.6662   54760   43.4110  -70.2093  32.0     8.4    4.641      32.220     1018.5        445.733149    432.817537    nd            nd            -3.600000     2008-01-16T15:12:39.97Z  
1513.0003   54780   43.4123  -70.2083  30.0     8.4    4.624      32.223     1018.5        446.060364    433.159433    nd            nd            -3.600000     2008-01-16T15:13:00.02Z  
1513.3330   54800   43.4136  -70.2072  32.0     8.4    4.621      32.216     1018.5        446.010889    433.096864    397.082790    392.141968    -3.600000     2008-01-16T15:13:19.98Z  
1513.6670   54820   43.4149  -70.2061  30.0     8.4    4.613      32.218     1018.5        445.725000    432.802672    397.046768    392.105727    -3.600000     2008-01-16T15:13:40.02Z  
1513.9997   54840   43.4162  -70.2049  37.0     8.4    4.603      32.215     1018.5        445.725935    432.805735    397.437464    392.488668    -3.600000     2008-01-16T15:13:59.98Z  
1514.3338   54860   43.4174  -70.2037  35.0     8.4    4.595      32.220     1018.5        445.308104    432.412416    397.515350    392.567288    -3.600000     2008-01-16T15:14:20.03Z  
1514.6664   54880   43.4186  -70.2025  34.0     8.4    4.620      32.212     1018.5        445.107378    432.214711    397.487785    392.530845    -3.600000     2008-01-16T15:14:39.98Z  
1515.0005   54900   43.4198  -70.2013  35.0     8.5    4.603      32.212     1018.5        445.081747    432.179175    nd            nd            -3.600000     2008-01-16T15:15:00.03Z  
1515.3331   54920   43.4211  -70.2001  33.0     8.4    4.600      32.216     1018.5        445.123548    432.222762    nd            nd            -3.600000     2008-01-16T15:15:19.99Z  
1515.6672   54940   43.4223  -70.1989  36.0     8.5    4.602      32.219     1018.5        444.814474    431.921808    398.251797    393.270782    -3.600000     2008-01-16T15:15:40.03Z  
1515.9998   54960   43.4235  -70.1976  38.0     8.5    4.614      32.225     1018.5        444.761872    431.875890    nd            nd            -3.600000     2008-01-16T15:15:59.99Z  
1516.3339   54980   43.4248  -70.1964  35.0     8.5    4.640      32.223     1018.4        444.740660    431.836155    397.870284    392.892874    -3.600000     2008-01-16T15:16:20.03Z  
1516.6666   55000   43.4260  -70.1951  35.0     8.5    4.646      32.214     1018.4        444.651644    431.748239    397.974365    392.998002    -3.600000     2008-01-16T15:16:40.00Z  
1517.0006   55020   43.4273  -70.1939  34.0     8.5    4.641      32.226     1018.5        444.914589    432.011407    nd            nd            -3.600000     2008-01-16T15:17:00.04Z  
1517.3333   55040   43.4285  -70.1927  36.0     8.5    4.641      32.229     1018.4        444.996814    432.073999    nd            nd            -3.600000     2008-01-16T15:17:20.00Z  
1517.6674   55060   43.4297  -70.1914  36.0     8.6    4.647      32.224     1018.4        444.977705    432.053109    nd            nd            -3.600000     2008-01-16T15:17:40.04Z  
1518.0000   55080   43.4310  -70.1902  35.0     8.5    4.646      32.220     1018.4        444.939200    432.022177    nd            nd            -3.600000     2008-01-16T15:18:00.00Z  
1518.3326   55100   43.4322  -70.1890  35.0     8.5    4.643      32.222     1018.4        445.013350    432.083883    397.827372    392.846752    -3.600000     2008-01-16T15:18:19.96Z  
1518.6667   55120   43.4335  -70.1878  33.0     8.5    4.633      32.222     1018.4        444.899998    431.965557    397.646644    392.649524    -3.600000     2008-01-16T15:18:40.00Z  
1518.9994   55140   43.4348  -70.1866  36.0     8.5    4.627      32.223     1018.4        444.809947    431.887839    nd            nd            -3.600000     2008-01-16T15:18:59.96Z  
1519.3334   55160   43.4360  -70.1853  36.0     8.5    4.632      32.227     1018.4        444.568217    431.660582    397.845695    392.874117    -3.600000     2008-01-16T15:19:20.00Z  
1519.6661   55180   43.4373  -70.1842  31.0     8.5    4.654      32.220     1018.4        444.461237    431.555350    397.861542    392.882516    -3.600000     2008-01-16T15:19:39.97Z  
1520.0002   55200   43.4386  -70.1831  31.0     8.5    4.637      32.219     1018.4        444.601393    431.696587    397.661875    392.689202    -3.600000     2008-01-16T15:20:00.01Z  
1520.3328   55220   43.4399  -70.1820  30.0     8.6    4.619      32.216     1018.4        444.806406    431.905634    397.471339    392.510869    -3.600000     2008-01-16T15:20:19.97Z  
1520.6669   55240   43.4412  -70.1809  33.0     8.5    4.576      32.199     1018.4        444.743799    431.848706    nd            nd            -3.600000     2008-01-16T15:20:40.01Z  
1520.9995   55260   43.4424  -70.1797  33.0     8.5    4.531      32.190     1018.5        444.397700    431.545190    nd            nd            -3.600000     2008-01-16T15:20:59.97Z  
1521.3336   55280   43.4437  -70.1786  31.0     8.5    4.503      32.183     1018.4        443.757504    430.908348    nd            nd            -3.600000     2008-01-16T15:21:20.02Z  
1521.6662   55300   43.4450  -70.1775  31.0     8.5    4.487      32.181     1018.5        442.799430    429.990070    396.812823    391.893607    -3.600000     2008-01-16T15:21:39.97Z  
1522.0003   55320   43.4463  -70.1764  30.0     8.5    4.472      32.177     1018.4        441.890081    429.106535    396.901090    391.975456    -3.600000     2008-01-16T15:22:00.02Z  
1522.3330   55340   43.4477  -70.1753  33.0     8.5    4.451      32.167     1018.4        441.335648    428.556083    396.789738    391.854974    -3.600000     2008-01-16T15:22:19.98Z  
1522.6670   55360   43.4489  -70.1741  36.0     8.5    4.444      32.153     1018.4        440.637313    427.890008    396.782581    391.856362    -3.600000     2008-01-16T15:22:40.02Z  
1522.9997   55380   43.4501  -70.1728  34.0     8.5    4.433      32.145     1018.5        440.056614    427.346689    396.411362    391.492851    -3.600000     2008-01-16T15:22:59.98Z  
1523.3338   55400   43.4513  -70.1715  36.0     8.5    4.428      32.139     1018.5        439.354341    426.684766    nd            nd            -3.600000     2008-01-16T15:23:20.03Z  
1523.6664   55420   43.4526  -70.1704  33.0     8.5    4.414      32.131     1018.5        438.948865    426.277693    396.499805    391.611159    -3.600000     2008-01-16T15:23:39.98Z  
1524.0005   55440   43.4538  -70.1692  36.0     8.5    4.400      32.129     1018.5        438.713115    426.052068    nd            nd            -3.600000     2008-01-16T15:24:00.03Z  
1524.3331   55460   43.4551  -70.1679  33.0     8.5    4.395      32.116     1018.5        438.337648    425.693132    nd            nd            -3.600000     2008-01-16T15:24:19.99Z  
1524.6672   55480   43.4563  -70.1667  37.0     8.4    4.373      32.097     1018.5        438.114448    425.487897    nd            nd            -3.600000     2008-01-16T15:24:40.03Z  
1524.9998   55500   43.4576  -70.1654  36.0     8.5    4.356      32.099     1018.5        438.116960    425.498162    nd            nd            -3.600000     2008-01-16T15:24:59.99Z  
1525.3339   55520   43.4588  -70.1642  35.0     8.5    4.346      32.094     1018.5        437.608038    425.012443    nd            nd            -3.600000     2008-01-16T15:25:20.03Z  
1525.6666   55540   43.4601  -70.1630  32.0     8.5    4.346      32.093     1018.5        437.431634    424.843235    nd            nd            -3.600000     2008-01-16T15:25:40.00Z  
1526.0006   55560   43.4613  -70.1618  35.0     8.5    4.343      32.085     1018.5        437.198787    424.616825    nd            nd            -3.600000     2008-01-16T15:26:00.04Z  
1526.3333   55580   43.4626  -70.1606  34.0     8.6    4.342      32.084     1018.5        437.163460    424.568459    nd            nd            -3.600000     2008-01-16T15:26:20.00Z  
1526.6674   55600   43.4639  -70.1594  35.0     8.6    4.342      32.082     1018.5        437.085835    424.497113    nd            nd            -3.600000     2008-01-16T15:26:40.04Z  
1527.0000   55620   43.4650  -70.1580  40.0     8.5    4.347      32.073     1018.4        436.907001    424.295736    nd            nd            -3.600000     2008-01-16T15:27:00.00Z  
1527.3326   55640   43.4663  -70.1568  34.0     8.5    4.341      32.072     1018.4        436.785896    424.170903    nd            nd            -3.600000     2008-01-16T15:27:19.96Z  
1527.6667   55660   43.4675  -70.1556  36.0     8.5    4.336      32.070     1018.4        436.956703    424.330325    397.831620    392.902294    -3.600000     2008-01-16T15:27:40.00Z  
1527.9994   55680   43.4688  -70.1543  36.0     8.5    4.344      32.064     1018.3        436.957056    424.300260    397.904957    392.952437    -3.600000     2008-01-16T15:27:59.96Z  
1528.3334   55700   43.4700  -70.1531  36.0     8.5    4.343      32.056     1018.4        437.087986    424.449388    398.113302    393.164453    -3.600000     2008-01-16T15:28:20.00Z  
1528.6661   55720   43.4712  -70.1518  35.0     8.5    4.336      32.062     1018.4        437.213831    424.576814    nd            nd            -3.600000     2008-01-16T15:28:39.97Z  
1529.0002   55740   43.4725  -70.1506  34.0     8.5    4.332      32.060     1018.3        437.250708    424.573587    397.995611    393.025874    -3.600000     2008-01-16T15:29:00.01Z  
1529.3328   55760   43.4738  -70.1494  34.0     8.5    4.329      32.057     1018.3        437.235211    424.546341    nd            nd            -3.600000     2008-01-16T15:29:19.97Z  
1529.6669   55780   43.4750  -70.1482  34.0     8.4    4.324      32.049     1018.3        437.248188    424.555674    nd            nd            -3.600000     2008-01-16T15:29:40.01Z  
1529.9995   55800   43.4763  -70.1471  36.0     8.4    4.316      32.050     1018.2        437.180718    424.465535    nd            nd            -3.600000     2008-01-16T15:29:59.97Z  
1530.3336   55820   43.4775  -70.1458  33.0     8.4    4.310      32.046     1018.2        437.091512    424.370296    nd            nd            -3.600000     2008-01-16T15:30:20.02Z  
1530.6662   55840   43.4788  -70.1447  35.0     8.4    4.312      32.036     1018.2        437.020012    424.315955    nd            nd            -3.600000     2008-01-16T15:30:39.97Z  
1531.0003   55860   43.4800  -70.1435  34.0     8.4    4.297      32.037     1018.2        437.105138    424.411683    nd            nd            -3.600000     2008-01-16T15:31:00.02Z  
1531.3330   55880   43.4812  -70.1423  35.0     8.4    4.315      32.027     1018.2        437.115080    424.398556    nd            nd            -3.600000     2008-01-16T15:31:19.98Z  
1531.6670   55900   43.4825  -70.1410  36.0     8.4    4.293      32.024     1018.2        436.925912    424.212490    nd            nd            -3.600000     2008-01-16T15:31:40.02Z  
1531.9997   55920   43.4837  -70.1399  33.0     8.4    4.289      32.027     1018.2        437.129626    424.414370    nd            nd            -3.600000     2008-01-16T15:31:59.98Z  
1532.3338   55940   43.4850  -70.1386  36.0     8.4    4.288      32.023     1018.2        437.025255    424.321815    nd            nd            -3.600000     2008-01-16T15:32:20.03Z  
1532.6664   55960   43.4862  -70.1374  36.0     8.4    4.286      32.022     1018.2        436.837687    424.126372    nd            nd            -3.600000     2008-01-16T15:32:39.98Z  
1533.0005   55980   43.4874  -70.1361  36.0     8.4    4.282      32.020     1018.1        436.770463    424.038333    395.249148    390.254787    -3.600000     2008-01-16T15:33:00.03Z  
1533.3331   56000   43.4886  -70.1350  33.0     8.4    4.292      32.009     1018.2        436.769589    424.052737    nd            nd            -3.600000     2008-01-16T15:33:19.99Z  
1533.6672   56020   43.4899  -70.1338  37.0     8.5    4.268      32.009     1018.2        436.699551    423.988770    393.978208    389.012731    -3.600000     2008-01-16T15:33:40.03Z  
1533.9998   56040   43.4911  -70.1326  33.0     8.5    4.266      32.010     1018.1        436.707719    423.988794    nd            nd            -3.600000     2008-01-16T15:33:59.99Z  
1534.3339   56060   43.4924  -70.1314  36.0     8.4    4.264      32.013     1018.1        436.488941    423.778180    nd            nd            -3.600000     2008-01-16T15:34:20.03Z  
1534.6666   56080   43.4936  -70.1301  35.0     8.4    4.268      32.009     1018.1        436.504742    423.772072    nd            nd            -3.600000     2008-01-16T15:34:40.00Z  
1535.0006   56100   43.4949  -70.1289  34.0     8.4    4.263      32.003     1018.1        436.397817    423.659711    nd            nd            -3.600000     2008-01-16T15:35:00.04Z  
1535.3333   56120   43.4961  -70.1277  34.0     8.4    4.263      32.008     1018.0        436.529286    423.779645    nd            nd            -3.600000     2008-01-16T15:35:20.00Z  
1535.6674   56140   43.4974  -70.1265  35.0     8.4    4.262      31.998     1018.0        436.480880    423.734815    nd            nd            -3.600000     2008-01-16T15:35:40.04Z  
1536.0000   56160   43.4986  -70.1253  35.0     8.4    4.243      32.002     1018.0        436.389646    423.634163    nd            nd            -3.600000     2008-01-16T15:36:00.00Z  
1536.3326   56180   43.4998  -70.1241  37.0     8.2    4.234      31.985     1018.0        436.368596    423.604542    nd            nd            -3.600000     2008-01-16T15:36:19.96Z  
1536.6667   56200   43.5010  -70.1228  37.0     8.2    4.198      31.981     1018.1        436.112284    423.408915    393.681125    388.723869    -3.600000     2008-01-16T15:36:40.00Z  
1536.9994   56220   43.5022  -70.1217  36.0     8.1    4.171      31.936     1018.1        435.790877    423.095106    393.680455    388.718767    -3.600000     2008-01-16T15:36:59.96Z  
1537.3334   56240   43.5033  -70.1204  36.0     8.2    4.076      31.811     1018.1        435.493964    422.839498    nd            nd            -3.600000     2008-01-16T15:37:20.00Z  
1537.6661   56260   43.5045  -70.1192  37.0     8.2    4.021      31.779     1018.1        434.779455    422.151853    nd            nd            -3.600000     2008-01-16T15:37:39.97Z  
1538.0002   56280   43.5057  -70.1180  34.0     8.1    3.990      31.755     1018.2        433.713769    421.153653    nd            nd            -3.600000     2008-01-16T15:38:00.01Z  
1538.3328   56300   43.5069  -70.1169  34.0     8.1    3.977      31.741     1018.2        432.700992    420.178069    nd            nd            -3.600000     2008-01-16T15:38:19.97Z  
1538.6669   56320   43.5081  -70.1158  33.0     8.1    3.939      31.680     1018.1        431.797416    419.279943    nd            nd            -3.600000     2008-01-16T15:38:40.01Z  
1538.9995   56340   43.5093  -70.1146  36.0     8.1    3.901      31.605     1018.1        430.967635    418.497402    nd            nd            -3.600000     2008-01-16T15:38:59.97Z  
1539.3336   56360   43.5105  -70.1135  34.0     8.1    3.857      31.536     1018.1        430.036872    417.581296    nd            nd            -3.600000     2008-01-16T15:39:20.02Z  
1539.6662   56380   43.5117  -70.1123  33.0     8.1    3.818      31.477     1018.1        429.025293    416.620515    nd            nd            -3.600000     2008-01-16T15:39:39.97Z  
1540.0003   56400   43.5129  -70.1112  34.0     8.2    3.774      31.447     1018.0        428.001500    415.603302    nd            nd            -3.600000     2008-01-16T15:40:00.02Z  
1540.3330   56420   43.5142  -70.1101  34.0     8.2    3.747      31.424     1018.0        426.990258    414.624658    nd            nd            -3.600000     2008-01-16T15:40:19.98Z  
1540.6670   56440   43.5154  -70.1089  33.0     8.2    3.738      31.423     1018.1        425.919673    413.622168    nd            nd            -3.600000     2008-01-16T15:40:40.02Z  
1540.9997   56460   43.5166  -70.1077  40.0     8.2    3.731      31.395     1018.2        425.009710    412.770434    nd            nd            -3.600000     2008-01-16T15:40:59.98Z  
1541.3338   56480   43.5178  -70.1065  33.0     8.2    3.745      31.398     1018.2        424.331241    412.102677    392.712526    387.876869    -3.600000     2008-01-16T15:41:20.03Z  
1541.6664   56500   43.5190  -70.1054  33.0     8.2    3.727      31.372     1018.2        423.822696    411.615697    nd            nd            -3.600000     2008-01-16T15:41:39.98Z  
1542.0005   56520   43.5202  -70.1042  35.0     8.2    3.701      31.357     1018.1        423.704404    411.463281    nd            nd            -3.600000     2008-01-16T15:42:00.03Z  
1542.3331   56540   43.5214  -70.1030  35.0     8.2    3.687      31.336     1018.1        423.247997    411.039283    nd            nd            -3.600000     2008-01-16T15:42:19.99Z  
1542.6672   56560   43.5226  -70.1018  34.0     8.2    3.680      31.292     1018.2        422.787046    410.622367    nd            nd            -3.600000     2008-01-16T15:42:40.03Z  
1542.9998   56580   43.5238  -70.1007  34.0     8.2    3.665      31.274     1018.1        422.320795    410.154735    nd            nd            -3.600000     2008-01-16T15:42:59.99Z  
1543.3339   56600   43.5250  -70.0995  35.0     8.2    3.658      31.261     1018.2        421.829864    409.700102    393.000194    388.189727    -3.600000     2008-01-16T15:43:20.03Z  
1543.6666   56620   43.5263  -70.0984  33.0     8.2    3.654      31.230     1018.2        421.377007    409.262059    393.124068    388.308370    -3.600000     2008-01-16T15:43:40.00Z  
1544.0006   56640   43.5275  -70.0972  34.0     8.3    3.650      31.208     1018.2        421.083976    408.970360    nd            nd            -3.600000     2008-01-16T15:44:00.04Z  
1544.3333   56660   43.5287  -70.0960  33.0     8.3    3.641      31.185     1018.2        420.759236    408.657517    nd            nd            -3.600000     2008-01-16T15:44:20.00Z  
1544.6674   56680   43.5300  -70.0949  34.0     8.3    3.636      31.177     1018.2        420.389766    408.295707    nd            nd            -3.600000     2008-01-16T15:44:40.04Z  
1545.0000   56700   43.5312  -70.0937  36.0     8.2    3.632      31.156     1018.2        420.132786    408.056572    nd            nd            -3.600000     2008-01-16T15:45:00.00Z  
1545.3326   56720   43.5324  -70.0926  32.0     8.3    3.625      31.139     1018.2        419.888889    407.808910    393.104859    388.274149    -3.600000     2008-01-16T15:45:19.96Z  
1545.6667   56740   43.5336  -70.0914  35.0     8.3    3.618      31.108     1018.2        419.624946    407.552660    393.099787    388.277149    -3.600000     2008-01-16T15:45:40.00Z  
1545.9994   56760   43.5348  -70.0902  34.0     8.2    3.616      31.093     1018.2        419.491094    407.425956    nd            nd            -3.600000     2008-01-16T15:45:59.96Z  
1546.3334   56780   43.5361  -70.0891  34.0     8.2    3.610      31.082     1018.2        419.323407    407.258676    393.104651    388.296877    -3.600000     2008-01-16T15:46:20.00Z  
1546.6661   56800   43.5373  -70.0879  34.0     8.3    3.600      31.072     1018.2        419.048177    407.002340    393.182933    388.376634    -3.600000     2008-01-16T15:46:39.97Z  
1547.0002   56820   43.5385  -70.0867  34.0     8.3    3.597      31.061     1018.2        418.877933    406.844913    nd            nd            -3.600000     2008-01-16T15:47:00.01Z  
1547.3328   56840   43.5397  -70.0856  35.0     8.3    3.596      31.049     1018.2        418.757484    406.731261    nd            nd            -3.600000     2008-01-16T15:47:19.97Z  
1547.6669   56860   43.5410  -70.0844  33.0     8.3    3.591      31.042     1018.2        418.560288    406.530572    393.163410    388.341357    -3.600000     2008-01-16T15:47:40.01Z  
1547.9995   56880   43.5422  -70.0832  34.0     8.3    3.587      31.016     1018.2        418.342907    406.331815    nd            nd            -3.600000     2008-01-16T15:47:59.97Z  
1548.3336   56900   43.5434  -70.0821  34.0     8.2    3.577      30.974     1018.2        418.213418    406.213064    nd            nd            -3.600000     2008-01-16T15:48:20.02Z  
1548.6662   56920   43.5446  -70.0809  35.0     8.3    3.558      30.931     1018.2        418.125018    406.128763    nd            nd            -3.600000     2008-01-16T15:48:39.97Z  
1549.0003   56940   43.5459  -70.0798  33.0     8.2    3.553      30.902     1018.2        417.907461    405.907003    393.254901    388.448142    -3.600000     2008-01-16T15:49:00.02Z  
1549.3330   56960   43.5471  -70.0786  36.0     8.3    3.538      30.862     1018.2        417.656514    405.663905    nd            nd            -3.600000     2008-01-16T15:49:19.98Z  
1549.6670   56980   43.5483  -70.0773  36.0     8.3    3.538      30.819     1018.2        417.344561    405.360094    nd            nd            -3.600000     2008-01-16T15:49:40.02Z  
1549.9997   57000   43.5495  -70.0762  34.0     8.3    3.529      30.765     1018.2        417.083785    405.109201    nd            nd            -3.600000     2008-01-16T15:49:59.98Z  
1550.3338   57020   43.5507  -70.0750  34.0     8.3    3.516      30.749     1018.2        416.761857    404.811259    392.965753    388.180822    -3.600000     2008-01-16T15:50:20.03Z  
1550.6664   57040   43.5520  -70.0738  32.0     8.3    3.509      30.730     1018.2        416.586249    404.629666    393.267631    388.462939    -3.600000     2008-01-16T15:50:39.98Z  
1551.0005   57060   43.5532  -70.0727  36.0     8.3    3.502      30.707     1018.2        416.140775    404.189708    393.389963    388.566637    -3.600000     2008-01-16T15:51:00.03Z  
1551.3331   57080   43.5544  -70.0714  36.0     8.3    3.496      30.686     1018.1        415.815542    403.866715    nd            nd            -3.600000     2008-01-16T15:51:19.99Z  
1551.6672   57100   43.5556  -70.0702  34.0     8.3    3.496      30.658     1018.1        415.533443    403.594860    nd            nd            -3.600000     2008-01-16T15:51:40.03Z  
1551.9998   57120   43.5568  -70.0690  35.0     8.3    3.487      30.641     1018.2        415.277943    403.354531    393.188692    388.389982    -3.600000     2008-01-16T15:51:59.99Z  
1552.3339   57140   43.5581  -70.0679  35.0     8.3    3.487      30.622     1018.2        415.256687    403.335440    nd            nd            -3.600000     2008-01-16T15:52:20.03Z  
1552.6666   57160   43.5593  -70.0667  34.0     8.3    3.491      30.586     1018.1        414.825831    402.909510    393.819864    388.992597    -3.600000     2008-01-16T15:52:40.00Z  
1553.0006   57180   43.5605  -70.0655  35.0     8.3    3.480      30.567     1018.2        414.689656    402.787008    393.538795    388.736645    -3.600000     2008-01-16T15:53:00.04Z  
1553.3333   57200   43.5618  -70.0643  33.0     8.3    3.477      30.539     1018.1        414.480839    402.568774    393.444984    388.643429    -3.600000     2008-01-16T15:53:20.00Z  
1553.6674   57220   43.5630  -70.0632  35.0     8.3    3.470      30.523     1018.1        414.268690    402.366189    nd            nd            -3.600000     2008-01-16T15:53:40.04Z  
1554.0000   57240   43.5642  -70.0620  33.0     8.3    3.466      30.513     1018.2        414.045303    402.164298    nd            nd            -3.600000     2008-01-16T15:54:00.00Z  
1554.3326   57260   43.5653  -70.0610  35.0     6.0    3.464      30.495     1018.2        413.750980    401.894324    nd            nd            -3.600000     2008-01-16T15:54:19.96Z  
1554.6667   57280   43.5660  -70.0602  50.0     4.5    3.474      30.475     1018.2        413.533147    401.691794    nd            nd            -3.600000     2008-01-16T15:54:40.00Z  
1554.9994   57300   43.5664  -70.0594  46.0     3.5    3.492      30.461     1018.3        413.249048    401.421120    nd            nd            -3.600000     2008-01-16T15:54:59.96Z  
1555.3334   57320   43.5667  -70.0590  74.0     1.5    3.504      30.456     1018.3        413.132030    401.327108    nd            nd            -3.600000     2008-01-16T15:55:20.00Z  
1555.6661   57340   43.5667  -70.0588  168.0    0.7    3.524      30.445     1018.3        412.867295    401.072581    nd            nd            -3.600000     2008-01-16T15:55:39.97Z  
1556.0002   57360   43.5666  -70.0588  201.0    0.7    3.529      30.441     1018.3        412.929332    401.125070    nd            nd            -3.600000     2008-01-16T15:56:00.01Z  
1556.3328   57380   43.5665  -70.0589  227.0    0.9    3.520      30.448     1018.3        413.211865    401.401585    nd            nd            -3.600000     2008-01-16T15:56:19.97Z  
1556.6669   57400   43.5663  -70.0589  220.0    0.7    3.506      30.461     1018.3        413.372820    401.572358    nd            nd            -3.600000     2008-01-16T15:56:40.01Z  
1556.9995   57420   43.5662  -70.0590  223.0    0.7    3.496      30.470     1018.3        413.242398    401.442319    nd            nd            -3.600000     2008-01-16T15:56:59.97Z  
1557.3336   57440   43.5661  -70.0591  231.0    1.0    3.491      30.479     1018.3        413.393882    401.576625    nd            nd            -3.600000     2008-01-16T15:57:20.02Z  
1557.6662   57460   43.5660  -70.0591  214.0    0.8    3.495      30.479     1018.3        413.836184    402.023701    nd            nd            -3.600000     2008-01-16T15:57:39.97Z  
1558.0003   57480   43.5659  -70.0592  232.0    0.9    3.500      30.470     1018.4        414.661233    402.844667    nd            nd            -3.600000     2008-01-16T15:58:00.02Z  
1558.3330   57500   43.5658  -70.0593  227.0    0.9    3.485      30.485     1018.3        421.345334    409.306041    nd            nd            -3.600000     2008-01-16T15:58:19.98Z  
1558.6670   57520   43.5656  -70.0593  214.0    0.9    3.490      30.487     1018.3        428.647009    416.413809    nd            nd            -3.600000     2008-01-16T15:58:40.02Z  
1558.9997   57540   43.5655  -70.0594  220.0    0.9    3.502      30.484     1018.3        430.857427    418.559383    nd            nd            -3.600000     2008-01-16T15:58:59.98Z  
1559.3338   57560   43.5654  -70.0595  230.0    0.8    3.514      30.486     1018.4        430.636778    418.347740    nd            nd            -3.600000     2008-01-16T15:59:20.03Z  
1559.6506   57579   43.5653  -70.0596  235.0    0.9    3.502      30.485     1018.4        433.404548    421.036551    nd            nd            -3.600000     2008-01-16T15:59:39.04Z  
1600.0005   57600   43.5652  -70.0596  220.0    0.8    3.484      30.486     1018.3        436.550651    424.075456    nd            nd            -3.150000     2008-01-16T16:00:00.03Z  
1600.3331   57620   43.5651  -70.0597  230.0    0.9    3.488      30.486     1018.3        436.115210    423.661463    nd            nd            -2.700000     2008-01-16T16:00:19.99Z  
1600.6672   57640   43.5649  -70.0597  203.0    0.8    3.479      30.490     1018.2        432.294483    419.910304    nd            nd            -2.700000     2008-01-16T16:00:40.03Z  
1600.9998   57660   43.5648  -70.0598  216.0    0.9    3.485      30.500     1018.3        427.948975    415.712062    nd            nd            -2.700000     2008-01-16T16:00:59.99Z  
1601.3339   57680   43.5647  -70.0599  187.0    0.9    3.487      30.506     1018.3        426.026182    413.860737    nd            nd            -2.700000     2008-01-16T16:01:20.03Z  
1601.6666   57700   43.5645  -70.0596  139.0    2.0    3.480      30.508     1018.6        427.500123    415.409525    nd            nd            -2.700000     2008-01-16T16:01:40.00Z  
1602.0006   57720   43.5642  -70.0596  183.0    2.1    3.451      30.510     1018.7        428.937442    416.828828    nd            nd            -2.700000     2008-01-16T16:02:00.04Z  
1602.3333   57740   43.5639  -70.0596  179.0    1.3    3.437      30.512     1018.7        427.507161    415.452805    nd            nd            -2.700000     2008-01-16T16:02:20.00Z  
1602.6674   57760   43.5637  -70.0596  165.0    0.9    3.405      30.516     1018.7        424.825620    412.849866    nd            nd            -2.700000     2008-01-16T16:02:40.04Z  
1603.0000   57780   43.5635  -70.0596  162.0    0.6    3.389      30.517     1018.6        422.035935    410.105401    nd            nd            -2.700000     2008-01-16T16:03:00.00Z  
1603.3326   57800   43.5634  -70.0595  166.0    0.6    3.392      30.515     1018.3        419.911682    407.934757    nd            nd            -2.700000     2008-01-16T16:03:19.96Z  
1603.6667   57820   43.5634  -70.0595  226.0    0.8    3.423      30.512     1018.3        418.043796    406.107896    nd            nd            -2.700000     2008-01-16T16:03:40.00Z  
1603.9994   57840   43.5632  -70.0596  213.0    0.8    3.469      30.508     1018.3        416.486898    404.573773    nd            nd            -2.700000     2008-01-16T16:03:59.96Z  
1604.3334   57860   43.5631  -70.0596  220.0    0.6    3.497      30.504     1018.3        415.406118    403.520445    nd            nd            -2.700000     2008-01-16T16:04:20.00Z  
1604.6661   57880   43.5630  -70.0597  207.0    0.8    3.507      30.505     1018.3        414.664552    402.806187    nd            nd            -2.700000     2008-01-16T16:04:39.97Z  
1605.0002   57900   43.5629  -70.0597  235.0    1.0    3.524      30.510     1018.3        414.234982    402.383410    nd            nd            -2.700000     2008-01-16T16:05:00.01Z  
1605.3328   57920   43.5628  -70.0597  229.0    0.8    3.528      30.511     1018.3        414.680831    402.811675    nd            nd            -2.700000     2008-01-16T16:05:19.97Z  
1605.6669   57940   43.5627  -70.0598  210.0    0.7    3.536      30.508     1018.2        416.875762    404.930793    nd            nd            -2.700000     2008-01-16T16:05:40.01Z  
1605.9995   57960   43.5625  -70.0598  214.0    0.7    3.525      30.505     1018.2        420.717341    408.656261    nd            nd            -2.700000     2008-01-16T16:05:59.97Z  
1606.3336   57980   43.5624  -70.0599  205.0    0.7    3.510      30.503     1018.2        426.138586    413.928153    nd            nd            -2.700000     2008-01-16T16:06:20.02Z  
1606.6662   58000   43.5623  -70.0599  223.0    0.8    3.510      30.503     1018.3        428.999925    416.722769    nd            nd            -2.700000     2008-01-16T16:06:39.97Z  
1607.0003   58020   43.5622  -70.0599  209.0    1.1    3.518      30.503     1018.3        429.032232    416.753404    nd            nd            -2.700000     2008-01-16T16:07:00.02Z  
1607.3330   58040   43.5621  -70.0600  196.0    0.6    3.527      30.504     1018.3        430.563284    418.244389    nd            nd            -2.700000     2008-01-16T16:07:19.98Z  
1607.6670   58060   43.5620  -70.0600  219.0    0.7    3.546      30.503     1018.3        430.706311    418.371535    nd            nd            -2.700000     2008-01-16T16:07:40.02Z  
1607.9997   58080   43.5619  -70.0600  218.0    0.7    3.542      30.509     1018.3        430.302845    417.974175    nd            nd            -2.700000     2008-01-16T16:07:59.98Z  
1608.3338   58100   43.5618  -70.0600  210.0    0.7    3.525      30.513     1018.3        431.979397    419.613465    nd            nd            -2.700000     2008-01-16T16:08:20.03Z  
1608.6664   58120   43.5617  -70.0600  216.0    0.7    3.520      30.516     1018.2        435.038935    422.577273    nd            nd            -2.700000     2008-01-16T16:08:39.98Z  
1609.0005   58140   43.5615  -70.0601  221.0    0.8    3.522      30.516     1018.2        436.412688    423.890439    nd            nd            -2.700000     2008-01-16T16:09:00.03Z  
1609.3331   58160   43.5614  -70.0601  215.0    0.7    3.507      30.517     1018.2        439.023348    426.439179    nd            nd            -2.700000     2008-01-16T16:09:19.99Z  
1609.6672   58180   43.5613  -70.0601  216.0    0.7    3.499      30.518     1018.3        440.068069    427.467135    nd            nd            -2.700000     2008-01-16T16:09:40.03Z  
1609.9998   58200   43.5612  -70.0602  215.0    0.9    3.503      30.519     1018.3        437.288146    424.773927    nd            nd            -2.700000     2008-01-16T16:09:59.99Z  
1610.3339   58220   43.5611  -70.0602  208.0    0.8    3.517      30.520     1018.2        434.130625    421.694809    nd            nd            -2.700000     2008-01-16T16:10:20.03Z  
1610.6666   58240   43.5610  -70.0603  211.0    0.8    3.527      30.521     1018.2        430.394742    418.060900    nd            nd            -2.700000     2008-01-16T16:10:40.00Z  
1611.0006   58260   43.5609  -70.0603  206.0    0.7    3.529      30.523     1018.2        427.056243    414.820896    nd            nd            -2.700000     2008-01-16T16:11:00.04Z  
1611.3333   58280   43.5607  -70.0603  207.0    0.7    3.509      30.528     1018.3        425.538813    413.358117    nd            nd            -2.700000     2008-01-16T16:11:20.00Z  
1611.6674   58300   43.5606  -70.0604  213.0    0.9    3.486      30.532     1018.2        427.182734    414.942178    nd            nd            -2.700000     2008-01-16T16:11:40.04Z  
1612.0000   58320   43.5605  -70.0604  207.0    0.8    3.478      30.532     1018.2        428.357356    416.081837    nd            nd            -2.700000     2008-01-16T16:12:00.00Z  
1612.3326   58340   43.5604  -70.0604  216.0    0.9    3.493      30.531     1018.3        426.979913    414.758861    nd            nd            -2.700000     2008-01-16T16:12:19.96Z  
1612.6667   58360   43.5603  -70.0605  227.0    1.0    3.512      30.533     1018.3        427.819886    415.567774    nd            nd            -2.700000     2008-01-16T16:12:40.00Z  
1612.9994   58380   43.5602  -70.0605  220.0    1.1    3.514      30.537     1018.2        429.100653    416.808298    nd            nd            -2.700000     2008-01-16T16:12:59.96Z  
1613.3334   58400   43.5601  -70.0605  217.0    0.7    3.513      30.533     1018.3        427.863122    415.612489    nd            nd            -2.700000     2008-01-16T16:13:20.00Z  
1613.6661   58420   43.5600  -70.0606  233.0    0.7    3.511      30.529     1018.2        426.704555    414.478083    nd            nd            -2.700000     2008-01-16T16:13:39.97Z  
1614.0002   58440   43.5599  -70.0606  203.0    0.6    3.507      30.526     1018.2        427.029353    414.789452    nd            nd            -2.700000     2008-01-16T16:14:00.01Z  
1614.3328   58460   43.5598  -70.0606  210.0    0.6    3.514      30.525     1018.2        429.210653    416.888356    nd            nd            -2.700000     2008-01-16T16:14:19.97Z  
1614.6669   58480   43.5597  -70.0607  208.0    0.6    3.524      30.529     1018.2        430.262890    417.908876    nd            nd            -2.700000     2008-01-16T16:14:40.01Z  
1614.9995   58500   43.5596  -70.0607  207.0    0.6    3.527      30.532     1018.2        430.151212    417.802829    nd            nd            -2.700000     2008-01-16T16:14:59.97Z  
1615.3336   58520   43.5594  -70.0608  219.0    0.7    3.528      30.533     1018.2        428.432776    416.136440    nd            nd            -2.700000     2008-01-16T16:15:20.02Z  
1615.6662   58540   43.5593  -70.0608  231.0    0.8    3.526      30.533     1018.3        425.838536    413.640926    nd            nd            -2.700000     2008-01-16T16:15:39.97Z  
1616.0003   58560   43.5592  -70.0609  207.0    0.6    3.517      30.533     1018.2        424.255881    412.068373    nd            nd            -2.700000     2008-01-16T16:16:00.02Z  
1616.3330   58580   43.5591  -70.0609  199.0    0.6    3.502      30.534     1018.0        424.058550    411.833255    nd            nd            -2.700000     2008-01-16T16:16:19.98Z  
1616.6670   58600   43.5590  -70.0609  209.0    0.9    3.496      30.536     1018.1        423.189949    411.019160    nd            nd            -2.700000     2008-01-16T16:16:40.02Z  
1616.9997   58620   43.5589  -70.0609  199.0    0.6    3.514      30.537     1018.1        422.335939    410.174820    nd            nd            -2.700000     2008-01-16T16:16:59.98Z  
1617.3338   58640   43.5588  -70.0609  208.0    1.0    3.521      30.537     1018.1        422.607803    410.447651    nd            nd            -2.700000     2008-01-16T16:17:20.03Z  
1617.6664   58660   43.5587  -70.0609  229.0    0.9    3.515      30.538     1018.1        421.871626    409.742750    nd            nd            -2.700000     2008-01-16T16:17:39.98Z  
1618.0005   58680   43.5586  -70.0609  145.0    0.8    3.512      30.534     1018.4        420.664438    408.681394    nd            nd            -2.700000     2008-01-16T16:18:00.03Z  
1618.3331   58700   43.5585  -70.0609  170.0    0.6    3.465      30.534     1018.5        421.398669    409.434338    nd            nd            -2.700000     2008-01-16T16:18:19.99Z  
1618.6672   58720   43.5584  -70.0609  192.0    0.6    3.418      30.533     1018.5        424.033264    412.017103    nd            nd            -2.700000     2008-01-16T16:18:40.03Z  
1618.9998   58740   43.5584  -70.0610  219.0    0.5    3.384      30.534     1018.5        426.430120    414.341846    nd            nd            -2.700000     2008-01-16T16:18:59.99Z  
1619.3339   58760   43.5583  -70.0610  182.0    0.8    3.379      30.532     1018.5        427.716447    415.605129    nd            nd            -2.700000     2008-01-16T16:19:20.03Z  
1619.6666   58780   43.5582  -70.0610  188.0    0.6    3.377      30.530     1018.5        426.404097    414.336425    nd            nd            -2.700000     2008-01-16T16:19:40.00Z  
1620.0006   58800   43.5581  -70.0610  191.0    0.6    3.393      30.529     1018.5        423.386561    411.389946    nd            nd            -2.700000     2008-01-16T16:20:00.04Z  
1620.3333   58820   43.5580  -70.0611  204.0    0.5    3.417      30.529     1018.5        420.552217    408.617927    nd            nd            -2.700000     2008-01-16T16:20:20.00Z  
1620.6674   58840   43.5579  -70.0611  203.0    0.7    3.427      30.529     1018.5        418.271220    406.414829    nd            nd            -2.700000     2008-01-16T16:20:40.04Z  
1621.0000   58860   43.5578  -70.0612  209.0    0.5    3.422      30.528     1018.6        416.680414    404.887008    nd            nd            -2.700000     2008-01-16T16:21:00.00Z  
1621.3326   58880   43.5578  -70.0612  187.0    0.4    3.403      30.529     1018.5        415.513800    403.735980    nd            nd            -2.700000     2008-01-16T16:21:19.96Z  
1621.6667   58900   43.5577  -70.0612  220.0    0.7    3.402      30.530     1018.5        414.796251    403.049279    nd            nd            -2.700000     2008-01-16T16:21:40.00Z  
1621.9994   58920   43.5577  -70.0613  205.0    0.6    3.409      30.529     1018.5        414.325182    402.589459    nd            nd            -2.700000     2008-01-16T16:21:59.96Z  
1622.3334   58940   43.5575  -70.0611  119.0    1.9    3.405      30.527     1018.3        413.935558    402.107234    nd            nd            -2.700000     2008-01-16T16:22:20.00Z  
1622.6661   58960   43.5576  -70.0608  117.0    1.4    3.427      30.529     1018.2        413.799857    401.963463    nd            nd            -2.700000     2008-01-16T16:22:39.97Z  
1623.0002   58980   43.5577  -70.0609  258.0    0.8    3.479      30.529     1018.2        413.610341    401.762732    nd            nd            -2.700000     2008-01-16T16:23:00.01Z  
1623.3328   59000   43.5577  -70.0611  294.0    1.5    3.523      30.530     1018.2        413.423705    401.570457    nd            nd            -2.700000     2008-01-16T16:23:19.97Z  
1623.6669   59020   43.5578  -70.0615  297.0    1.7    3.547      30.540     1018.2        413.437547    401.579081    nd            nd            -2.700000     2008-01-16T16:23:40.01Z  
1623.9995   59040   43.5580  -70.0619  308.0    1.7    3.573      30.551     1018.2        413.536204    401.669578    nd            nd            -2.700000     2008-01-16T16:23:59.97Z  
1624.3336   59060   43.5582  -70.0622  296.0    1.8    3.582      30.542     1018.2        413.753816    401.871522    nd            nd            -2.700000     2008-01-16T16:24:20.02Z  
1624.6662   59080   43.5583  -70.0626  290.0    1.7    3.574      30.529     1018.2        413.888776    402.002572    nd            nd            -2.700000     2008-01-16T16:24:39.97Z  
1625.0003   59100   43.5584  -70.0630  303.0    1.5    3.578      30.528     1018.2        414.258434    402.369264    nd            nd            -2.700000     2008-01-16T16:25:00.02Z  
1625.3330   59120   43.5585  -70.0633  298.0    1.4    3.596      30.542     1018.2        414.268533    402.365460    nd            nd            -2.700000     2008-01-16T16:25:19.98Z  
1625.6670   59140   43.5586  -70.0636  295.0    1.4    3.592      30.553     1018.2        414.405876    402.502215    nd            nd            -2.700000     2008-01-16T16:25:40.02Z  
1625.9997   59160   43.5587  -70.0639  296.0    1.2    3.597      30.553     1018.2        414.583781    402.674318    nd            nd            -2.700000     2008-01-16T16:25:59.98Z  
1626.3338   59180   43.5588  -70.0641  296.0    1.2    3.595      30.554     1018.2        414.895816    402.980587    nd            nd            -2.700000     2008-01-16T16:26:20.03Z  
1626.6664   59200   43.5589  -70.0643  244.0    1.0    3.610      30.552     1018.1        414.927887    402.984064    nd            nd            -2.700000     2008-01-16T16:26:39.98Z  
1627.0005   59220   43.5590  -70.0642  68.0     1.2    3.605      30.548     1018.2        415.039321    403.096791    nd            nd            -2.700000     2008-01-16T16:27:00.03Z  
1627.3331   59240   43.5593  -70.0641  13.0     1.3    3.603      30.548     1018.2        415.218996    403.283510    nd            nd            -2.700000     2008-01-16T16:27:19.99Z  
1627.6672   59260   43.5595  -70.0640  47.0     1.3    3.603      30.551     1018.1        415.363889    403.402802    nd            nd            -2.700000     2008-01-16T16:27:40.03Z  
1627.9998   59280   43.5597  -70.0639  86.0     1.2    3.618      30.553     1018.1        415.251812    403.284224    nd            nd            -2.700000     2008-01-16T16:27:59.99Z  
1628.3339   59300   43.5598  -70.0638  77.0     1.2    3.635      30.552     1018.1        415.574661    403.604527    nd            nd            -2.700000     2008-01-16T16:28:20.03Z  
1628.6666   59320   43.5600  -70.0637  146.0    1.1    3.640      30.551     1018.1        415.605506    403.615747    nd            nd            -2.700000     2008-01-16T16:28:40.00Z  
1629.0006   59340   43.5602  -70.0635  108.0    1.3    3.644      30.552     1018.1        415.804512    403.815719    nd            nd            -2.700000     2008-01-16T16:29:00.04Z  
1629.3333   59360   43.5604  -70.0634  36.0     1.3    3.643      30.559     1018.1        415.807196    403.818085    nd            nd            -2.700000     2008-01-16T16:29:20.00Z  
1629.6674   59380   43.5606  -70.0632  28.0     1.4    3.636      30.555     1018.1        415.756760    403.779729    nd            nd            -2.700000     2008-01-16T16:29:40.04Z  
1630.0000   59400   43.5608  -70.0630  32.0     1.3    3.615      30.547     1018.1        415.859450    403.885541    nd            nd            -2.700000     2008-01-16T16:30:00.00Z  
1630.3326   59420   43.5610  -70.0629  71.0     1.2    3.616      30.543     1018.1        415.781667    403.800538    nd            nd            -2.700000     2008-01-16T16:30:19.96Z  
1630.6667   59440   43.5611  -70.0627  90.0     1.3    3.623      30.542     1018.1        415.567206    403.593690    nd            nd            -2.700000     2008-01-16T16:30:40.00Z  
1630.9994   59460   43.5613  -70.0625  38.0     1.3    3.627      30.542     1018.1        415.476050    403.506611    nd            nd            -2.700000     2008-01-16T16:30:59.96Z  
1631.3334   59480   43.5615  -70.0623  60.0     1.3    3.623      30.542     1018.1        415.272443    403.289525    nd            nd            -2.700000     2008-01-16T16:31:20.00Z  
1631.6661   59500   43.5617  -70.0621  38.0     1.4    3.625      30.549     1018.1        415.282697    403.295038    nd            nd            -2.700000     2008-01-16T16:31:39.97Z  
1632.0002   59520   43.5619  -70.0619  39.0     1.3    3.628      30.556     1018.1        415.188525    403.205253    nd            nd            -2.700000     2008-01-16T16:32:00.01Z  
1632.3328   59540   43.5620  -70.0617  121.0    1.4    3.625      30.560     1018.1        415.186924    403.201866    nd            nd            -2.700000     2008-01-16T16:32:19.97Z  
1632.6669   59560   43.5621  -70.0615  101.0    1.2    3.624      30.564     1018.3        415.142589    403.234507    nd            nd            -2.700000     2008-01-16T16:32:40.01Z  
1632.9995   59580   43.5619  -70.0613  170.0    1.6    3.585      30.556     1018.4        415.030633    403.189473    nd            nd            -2.700000     2008-01-16T16:32:59.97Z  
1633.3336   59600   43.5616  -70.0613  179.0    1.9    3.523      30.557     1018.4        415.087396    403.237679    nd            nd            -2.700000     2008-01-16T16:33:20.02Z  
1633.6662   59620   43.5612  -70.0613  182.0    2.5    3.500      30.562     1018.4        415.120913    403.282396    nd            nd            -2.700000     2008-01-16T16:33:39.97Z  
1634.0003   59640   43.5608  -70.0611  144.0    2.5    3.481      30.561     1018.3        414.975565    403.097213    nd            nd            -2.700000     2008-01-16T16:34:00.02Z  
1634.3330   59660   43.5608  -70.0605  76.0     3.1    3.484      30.555     1018.0        414.824861    402.869712    nd            nd            -2.700000     2008-01-16T16:34:19.98Z  
1634.6670   59680   43.5609  -70.0598  77.0     3.2    3.513      30.543     1018.1        414.746968    402.805367    nd            nd            -2.700000     2008-01-16T16:34:40.02Z  
1634.9997   59700   43.5610  -70.0590  77.0     3.3    3.523      30.518     1018.1        414.555008    402.616271    nd            nd            -2.700000     2008-01-16T16:34:59.98Z  
1635.3338   59720   43.5611  -70.0582  76.0     3.3    3.531      30.506     1018.1        414.425148    402.474005    nd            nd            -2.700000     2008-01-16T16:35:20.03Z  
1635.6664   59740   43.5614  -70.0574  58.0     3.7    3.544      30.509     1018.0        414.205932    402.234580    nd            nd            -2.700000     2008-01-16T16:35:39.98Z  
1636.0005   59760   43.5618  -70.0566  54.0     3.9    3.562      30.507     1018.0        414.309079    402.325297    nd            nd            -2.700000     2008-01-16T16:36:00.03Z  
1636.3331   59780   43.5622  -70.0558  54.0     4.3    3.573      30.502     1017.9        414.289773    402.292060    nd            nd            -2.700000     2008-01-16T16:36:19.99Z  
1636.6672   59800   43.5627  -70.0548  54.0     4.9    3.578      30.501     1017.9        414.375004    402.360118    nd            nd            -2.700000     2008-01-16T16:36:40.03Z  
1636.9998   59820   43.5632  -70.0538  53.0     5.1    3.586      30.510     1018.0        414.357286    402.366306    nd            nd            -2.700000     2008-01-16T16:36:59.99Z  
1637.3339   59840   43.5638  -70.0528  54.0     5.2    3.598      30.511     1017.9        414.500964    402.479662    nd            nd            -2.700000     2008-01-16T16:37:20.03Z  
1637.6666   59860   43.5643  -70.0517  53.0     5.5    3.596      30.512     1017.9        414.624857    402.598539    nd            nd            -2.700000     2008-01-16T16:37:40.00Z  
1638.0006   59880   43.5649  -70.0506  52.0     5.7    3.586      30.499     1017.9        414.836951    402.820963    nd            nd            -2.700000     2008-01-16T16:38:00.04Z  
1638.3333   59900   43.5655  -70.0494  54.0     5.7    3.579      30.489     1018.0        415.032835    403.022972    nd            nd            -2.700000     2008-01-16T16:38:20.00Z  
1638.6674   59920   43.5661  -70.0483  53.0     5.7    3.575      30.489     1017.9        415.015824    402.996961    nd            nd            -2.700000     2008-01-16T16:38:40.04Z  
1639.0000   59940   43.5667  -70.0471  54.0     5.7    3.577      30.490     1017.9        414.994522    402.958678    nd            nd            -2.700000     2008-01-16T16:39:00.00Z  
1639.3326   59960   43.5673  -70.0459  54.0     6.2    3.581      30.492     1017.9        414.937501    402.901850    nd            nd            -2.700000     2008-01-16T16:39:19.96Z  
1639.6667   59980   43.5680  -70.0447  53.0     6.2    3.585      30.479     1017.9        414.937825    402.920083    nd            nd            -2.700000     2008-01-16T16:39:40.00Z  
1639.9994   60000   43.5687  -70.0434  54.0     6.2    3.575      30.464     1018.0        414.797213    402.795025    nd            nd            -2.700000     2008-01-16T16:39:59.96Z  
1640.3334   60020   43.5693  -70.0421  54.0     6.5    3.576      30.445     1017.9        414.703076    402.692602    nd            nd            -2.700000     2008-01-16T16:40:20.00Z  
1640.6661   60040   43.5700  -70.0408  53.0     6.6    3.568      30.450     1018.0        414.544662    402.542337    nd            nd            -2.700000     2008-01-16T16:40:39.97Z  
1641.0002   60060   43.5707  -70.0395  56.0     6.7    3.576      30.462     1017.9        414.433222    402.418296    nd            nd            -2.700000     2008-01-16T16:41:00.01Z  
1641.3328   60080   43.5714  -70.0380  54.0     7.3    3.576      30.463     1017.8        414.114499    402.079500    nd            nd            -2.700000     2008-01-16T16:41:19.97Z  
1641.6669   60100   43.5722  -70.0365  54.0     7.6    3.566      30.463     1017.8        414.109389    402.074930    nd            nd            -2.700000     2008-01-16T16:41:40.01Z  
1641.9995   60120   43.5730  -70.0350  55.0     7.6    3.543      30.437     1017.8        413.939920    401.912558    nd            nd            -2.700000     2008-01-16T16:41:59.97Z  
1642.3336   60140   43.5737  -70.0334  54.0     7.6    3.534      30.409     1017.9        413.879800    401.884750    nd            nd            -2.700000     2008-01-16T16:42:20.02Z  
1642.6662   60160   43.5745  -70.0320  49.0     7.2    3.541      30.418     1017.9        413.804167    401.820851    nd            nd            -2.700000     2008-01-16T16:42:39.97Z  
1643.0003   60180   43.5754  -70.0307  45.0     7.2    3.546      30.430     1017.9        413.552063    401.569503    nd            nd            -2.700000     2008-01-16T16:43:00.02Z  
1643.3330   60200   43.5763  -70.0294  47.0     7.1    3.551      30.435     1017.8        413.305477    401.292269    nd            nd            -2.700000     2008-01-16T16:43:19.98Z  
1643.6670   60220   43.5772  -70.0281  46.0     7.1    3.561      30.441     1017.8        413.300433    401.290810    nd            nd            -2.700000     2008-01-16T16:43:40.02Z  
1643.9997   60240   43.5781  -70.0268  46.0     7.2    3.562      30.444     1017.9        413.288385    401.286062    nd            nd            -2.700000     2008-01-16T16:43:59.98Z  
1644.3338   60260   43.5789  -70.0255  46.0     7.2    3.567      30.452     1017.9        413.408854    401.400198    nd            nd            -2.700000     2008-01-16T16:44:20.03Z  
1644.6664   60280   43.5799  -70.0243  44.0     7.2    3.565      30.443     1017.9        413.528409    401.534667    nd            nd            -2.700000     2008-01-16T16:44:39.98Z  
1645.0005   60300   43.5808  -70.0230  45.0     7.3    3.561      30.441     1017.9        413.513960    401.521302    nd            nd            -2.700000     2008-01-16T16:45:00.03Z  
1645.3331   60320   43.5817  -70.0217  45.0     7.2    3.573      30.464     1017.9        413.442200    401.451979    nd            nd            -2.700000     2008-01-16T16:45:19.99Z  
1645.6672   60340   43.5826  -70.0204  45.0     7.2    3.587      30.489     1017.9        413.437977    401.457648    nd            nd            -2.700000     2008-01-16T16:45:40.03Z  
1645.9998   60360   43.5835  -70.0191  44.0     7.3    3.593      30.506     1017.9        413.625927    401.636638    nd            nd            -2.700000     2008-01-16T16:45:59.99Z  
1646.3339   60380   43.5844  -70.0179  45.0     7.3    3.596      30.522     1017.9        413.824314    401.829230    nd            nd            -2.700000     2008-01-16T16:46:20.03Z  
1646.6666   60400   43.5852  -70.0165  56.0     7.2    3.607      30.538     1017.9        413.882804    401.862904    nd            nd            -2.700000     2008-01-16T16:46:40.00Z  
1647.0006   60420   43.5859  -70.0150  56.0     7.2    3.620      30.546     1017.9        414.097216    402.066903    nd            nd            -2.700000     2008-01-16T16:47:00.04Z  
1647.3333   60440   43.5867  -70.0135  56.0     7.2    3.621      30.555     1017.9        414.336773    402.306556    nd            nd            -2.700000     2008-01-16T16:47:20.00Z  
1647.6674   60460   43.5874  -70.0120  56.0     7.2    3.621      30.577     1017.9        414.635780    402.601554    nd            nd            -2.700000     2008-01-16T16:47:40.04Z  
1648.0000   60480   43.5881  -70.0105  57.0     7.2    3.631      30.608     1017.9        414.843066    402.786318    nd            nd            -2.700000     2008-01-16T16:48:00.00Z  
1648.3326   60500   43.5888  -70.0090  56.0     7.2    3.641      30.658     1017.9        415.071477    403.010574    nd            nd            -2.700000     2008-01-16T16:48:19.96Z  
1648.6667   60520   43.5896  -70.0075  51.0     7.6    3.654      30.709     1017.9        415.418654    403.341401    nd            nd            -2.700000     2008-01-16T16:48:40.00Z  
1648.9994   60540   43.5905  -70.0060  51.0     7.9    3.672      30.740     1017.9        415.837380    403.745374    393.534348    388.579324    -2.700000     2008-01-16T16:48:59.96Z  
1649.3334   60560   43.5914  -70.0044  52.0     8.0    3.692      30.774     1017.8        416.208353    404.088181    393.605844    388.635839    -2.700000     2008-01-16T16:49:20.00Z  
1649.6661   60580   43.5923  -70.0029  47.0     8.2    3.699      30.812     1017.8        416.680848    404.530829    393.739176    388.765909    -2.700000     2008-01-16T16:49:39.97Z  
1650.0002   60600   43.5932  -70.0013  54.0     8.2    3.663      30.782     1017.8        417.242646    405.093211    393.728861    388.760659    -2.700000     2008-01-16T16:50:00.01Z  
1650.3328   60620   43.5941  -69.9996  56.0     8.2    3.629      30.739     1017.8        417.629775    405.479067    393.758893    388.800931    -2.700000     2008-01-16T16:50:19.97Z  
1650.6669   60640   43.5948  -69.9979  60.0     8.0    3.601      30.715     1017.9        417.800562    405.660832    nd            nd            -2.700000     2008-01-16T16:50:40.01Z  
1650.9995   60660   43.5956  -69.9962  53.0     8.3    3.601      30.694     1017.8        417.639105    405.491894    393.806757    388.845771    -2.700000     2008-01-16T16:50:59.97Z  
1651.3336   60680   43.5965  -69.9946  53.0     8.3    3.600      30.684     1017.8        417.517676    405.372050    393.951146    388.993018    -2.700000     2008-01-16T16:51:20.02Z  
1651.6662   60700   43.5974  -69.9929  53.0     8.3    3.573      30.663     1017.8        417.480653    405.339883    393.781648    388.824956    -2.700000     2008-01-16T16:51:39.97Z  
1652.0003   60720   43.5983  -69.9913  55.0     8.2    3.555      30.650     1017.8        417.514148    405.372894    393.679734    388.731698    -2.700000     2008-01-16T16:52:00.02Z  
1652.3330   60740   43.5991  -69.9895  57.0     8.3    3.559      30.662     1017.8        417.197861    405.060462    nd            nd            -2.700000     2008-01-16T16:52:19.98Z  
1652.6670   60760   43.5999  -69.9878  58.0     8.2    3.578      30.648     1017.8        416.946375    404.813461    nd            nd            -2.700000     2008-01-16T16:52:40.02Z  
1652.9997   60780   43.6006  -69.9860  58.0     8.2    3.579      30.654     1017.8        416.855172    404.733611    nd            nd            -2.700000     2008-01-16T16:52:59.98Z  
1653.3338   60800   43.6014  -69.9843  54.0     8.3    3.589      30.671     1017.8        416.915857    404.769974    nd            nd            -2.700000     2008-01-16T16:53:20.03Z  
1653.6664   60820   43.6022  -69.9826  56.0     8.3    3.599      30.668     1017.8        416.883527    404.728259    nd            nd            -2.700000     2008-01-16T16:53:39.98Z  
1654.0005   60840   43.6031  -69.9810  50.0     8.3    3.599      30.663     1017.7        416.861109    404.687508    nd            nd            -2.700000     2008-01-16T16:54:00.03Z  
1654.3331   60860   43.6041  -69.9794  53.0     8.2    3.585      30.654     1017.7        416.999597    404.822536    393.729584    388.728898    -2.700000     2008-01-16T16:54:19.99Z  
1654.6672   60880   43.6049  -69.9777  53.0     8.2    3.598      30.687     1017.7        416.873597    404.702331    393.598402    388.605415    -2.700000     2008-01-16T16:54:40.03Z  
1654.9998   60900   43.6058  -69.9761  50.0     8.3    3.616      30.701     1017.7        417.037364    404.839937    393.595513    388.576474    -2.700000     2008-01-16T16:54:59.99Z  
1655.3339   60920   43.6068  -69.9745  52.0     8.2    3.610      30.727     1017.7        417.266226    405.066039    393.594406    388.571060    -2.700000     2008-01-16T16:55:20.03Z  
1655.6666   60940   43.6076  -69.9729  54.0     8.2    3.618      30.775     1017.7        417.649973    405.459349    393.501301    388.503571    -2.700000     2008-01-16T16:55:40.00Z  
1656.0006   60960   43.6085  -69.9713  50.0     8.2    3.657      30.820     1017.7        417.730137    405.509989    nd            nd            -2.700000     2008-01-16T16:56:00.04Z  
1656.3333   60980   43.6094  -69.9697  52.0     8.2    3.672      30.849     1017.6        417.973917    405.718082    nd            nd            -2.700000     2008-01-16T16:56:20.00Z  
1656.6674   61000   43.6103  -69.9680  58.0     8.3    3.694      30.886     1017.6        418.423486    406.146389    nd            nd            -2.700000     2008-01-16T16:56:40.04Z  
1657.0000   61020   43.6110  -69.9663  58.0     8.2    3.724      30.925     1017.6        418.822221    406.538826    393.066104    388.005069    -2.700000     2008-01-16T16:57:00.00Z  
1657.3326   61040   43.6118  -69.9645  54.0     8.2    3.761      30.957     1017.6        419.090596    406.775897    nd            nd            -2.700000     2008-01-16T16:57:19.96Z  
1657.6667   61060   43.6127  -69.9629  57.0     8.1    3.799      30.977     1017.7        419.373414    407.064842    393.310413    388.243619    -2.700000     2008-01-16T16:57:40.00Z  
1657.9994   61080   43.6134  -69.9612  56.0     8.1    3.807      31.003     1017.7        419.758873    407.444928    nd            nd            -2.700000     2008-01-16T16:57:59.96Z  
1658.3334   61100   43.6143  -69.9596  52.0     8.2    3.816      31.030     1017.7        420.364553    408.029096    393.242706    388.183492    -2.700000     2008-01-16T16:58:20.00Z  
1658.6661   61120   43.6152  -69.9579  54.0     8.2    3.815      31.071     1017.7        420.602867    408.267633    392.789074    387.775321    -2.700000     2008-01-16T16:58:39.97Z  
1659.0002   61140   43.6160  -69.9563  54.0     8.2    3.814      31.082     1017.7        420.811362    408.486045    393.013362    387.984109    -2.700000     2008-01-16T16:59:00.01Z  
1659.3328   61160   43.6169  -69.9547  54.0     8.1    3.812      31.068     1017.7        420.595237    408.277198    392.907684    387.887110    -2.700000     2008-01-16T16:59:19.97Z  
1659.6496   61179   43.6177  -69.9531  53.0     8.1    3.817      31.069     1017.7        420.265315    407.942779    nd            nd            -2.700000     2008-01-16T16:59:38.98Z  
1659.9995   61200   43.6186  -69.9514  54.0     8.1    3.816      31.057     1017.6        419.572624    407.252663    nd            nd            -2.200000     2008-01-16T16:59:59.97Z  
1700.3336   61220   43.6194  -69.9497  53.0     8.2    3.819      31.063     1017.7        419.150076    406.870695    392.871202    387.842188    -1.700000     2008-01-16T17:00:20.02Z  
1700.6662   61240   43.6203  -69.9482  50.0     8.1    3.827      31.066     1017.7        418.905273    406.634870    392.927794    387.906277    -1.700000     2008-01-16T17:00:39.97Z  
1701.0003   61260   43.6213  -69.9466  52.0     8.2    3.818      31.045     1017.7        418.691246    406.420390    392.719399    387.686545    -1.700000     2008-01-16T17:01:00.02Z  
1701.3330   61280   43.6221  -69.9449  62.0     8.1    3.802      31.041     1017.8        418.622288    406.377139    nd            nd            -1.700000     2008-01-16T17:01:19.98Z  
1701.6670   61300   43.6228  -69.9432  55.0     8.2    3.812      31.025     1017.7        418.580711    406.321537    nd            nd            -1.700000     2008-01-16T17:01:40.02Z  
1701.9997   61320   43.6235  -69.9414  61.0     8.2    3.811      31.006     1017.8        418.449393    406.212791    nd            nd            -1.700000     2008-01-16T17:01:59.98Z  
1702.3338   61340   43.6243  -69.9397  56.0     8.2    3.801      30.997     1017.7        418.474357    406.228969    nd            nd            -1.700000     2008-01-16T17:02:20.03Z  
1702.6664   61360   43.6251  -69.9380  57.0     8.2    3.794      30.988     1017.8        418.452560    406.219293    392.888571    387.885332    -1.700000     2008-01-16T17:02:39.98Z  
1702.9674   61378   43.6258  -69.9364  53.0     8.2    3.785      30.996     1017.8        418.490232    406.254522    nd            nd            -1.700000     2008-01-16T17:02:58.04Z  
nd          nd      nd       nd        nd       nd     nd         nd         nd            nd            nd            nd            nd            nd            nd                
nd          nd      nd       nd        nd       nd     nd         nd         nd            nd            nd            nd            nd            nd            nd                
nd          nd      nd       nd        nd       nd     nd         nd         nd            nd            nd            nd            nd            nd            nd                
nd          nd      nd       nd        nd       nd     nd         nd         nd            nd            nd            nd            nd            nd            nd                
nd          nd      nd       nd        nd       nd     nd         nd         nd            nd            nd            nd            nd            nd            nd                
nd          nd      nd       nd        nd       nd     nd         nd         nd            nd            nd            nd            nd            nd            nd                
1705.3333   61520   43.6318  -69.9246  58.0     8.1    3.846      31.081     1017.7        418.749785    406.482621    393.179349    388.142189    -1.700000     2008-01-16T17:05:20.00Z  
1705.6674   61540   43.6326  -69.9230  52.0     8.2    3.852      31.089     1017.7        418.719798    406.441414    393.171305    388.151170    -1.700000     2008-01-16T17:05:40.04Z  
1706.0000   61560   43.6335  -69.9213  56.0     8.2    3.853      31.088     1017.7        419.180873    406.887941    nd            nd            -1.700000     2008-01-16T17:06:00.00Z  
1706.3326   61580   43.6342  -69.9196  61.0     8.1    3.848      31.101     1017.7        419.311645    407.027532    393.646585    388.604045    -1.700000     2008-01-16T17:06:19.96Z  
1706.6667   61600   43.6350  -69.9180  54.0     8.1    3.855      31.112     1017.8        419.694241    407.409943    nd            nd            -1.700000     2008-01-16T17:06:40.00Z  
1706.9994   61620   43.6358  -69.9163  54.0     8.2    3.863      31.108     1017.7        419.966840    407.664930    nd            nd            -1.700000     2008-01-16T17:06:59.96Z  
1707.3334   61640   43.6367  -69.9147  53.0     8.2    3.867      31.113     1017.7        420.145787    407.833346    393.264559    388.236195    -1.700000     2008-01-16T17:07:20.00Z  
1707.6661   61660   43.6375  -69.9129  59.0     8.2    3.859      31.107     1017.7        420.403942    408.055823    nd            nd            -1.700000     2008-01-16T17:07:39.97Z  
1708.0002   61680   43.6383  -69.9112  56.0     8.2    3.855      31.107     1017.7        420.482686    408.150012    nd            nd            -1.700000     2008-01-16T17:08:00.01Z  
1708.3328   61700   43.6391  -69.9095  59.0     8.1    3.860      31.106     1017.7        420.462142    408.143314    nd            nd            -1.700000     2008-01-16T17:08:19.97Z  
1708.6669   61720   43.6399  -69.9078  57.0     8.1    3.870      31.120     1017.7        420.288099    407.976659    nd            nd            -1.700000     2008-01-16T17:08:40.01Z  
1708.9995   61740   43.6406  -69.9061  62.0     8.1    3.894      31.132     1017.8        420.298590    407.997292    nd            nd            -1.700000     2008-01-16T17:08:59.97Z  
1709.3336   61760   43.6414  -69.9044  50.0     8.1    3.913      31.137     1017.7        420.438718    408.113404    nd            nd            -1.700000     2008-01-16T17:09:20.02Z  
1709.6662   61780   43.6423  -69.9028  53.0     8.2    3.919      31.141     1017.8        420.568527    408.243854    393.238168    388.222079    -1.700000     2008-01-16T17:09:39.97Z  
1710.0003   61800   43.6432  -69.9012  55.0     8.2    3.934      31.146     1017.8        420.913578    408.589739    393.077337    388.055268    -1.700000     2008-01-16T17:10:00.02Z  
1710.3330   61820   43.6440  -69.8995  58.0     8.2    3.939      31.155     1017.8        421.051899    408.717178    392.754518    387.728154    -1.700000     2008-01-16T17:10:19.98Z  
1710.6670   61840   43.6448  -69.8978  54.0     8.2    3.942      31.156     1017.7        421.405636    409.045735    nd            nd            -1.700000     2008-01-16T17:10:40.02Z  
1710.9997   61860   43.6456  -69.8961  55.0     8.1    3.938      31.161     1017.7        421.590909    409.215937    nd            nd            -1.700000     2008-01-16T17:10:59.98Z  
1711.3338   61880   43.6465  -69.8945  54.0     8.2    3.933      31.189     1017.7        421.567442    409.188458    393.649554    388.583633    -1.700000     2008-01-16T17:11:20.03Z  
1711.6664   61900   43.6474  -69.8928  51.0     8.4    3.939      31.212     1017.7        421.541881    409.167084    nd            nd            -1.700000     2008-01-16T17:11:39.98Z  
1712.0005   61920   43.6484  -69.8912  49.0     8.4    3.947      31.241     1017.7        421.354167    408.962887    393.431995    388.351577    -1.700000     2008-01-16T17:12:00.03Z  
1712.3331   61940   43.6493  -69.8897  48.0     8.4    3.968      31.273     1017.7        421.619461    409.211549    393.502482    388.417888    -1.700000     2008-01-16T17:12:19.99Z  
1712.6672   61960   43.6503  -69.8880  49.0     8.5    3.986      31.289     1017.6        421.859931    409.438817    nd            nd            -1.700000     2008-01-16T17:12:40.03Z  
1712.9998   61980   43.6512  -69.8864  53.0     8.4    3.993      31.290     1017.7        422.291757    409.860337    nd            nd            -1.700000     2008-01-16T17:12:59.99Z  
1713.3339   62000   43.6521  -69.8847  55.0     8.5    3.998      31.295     1017.6        422.943587    410.465518    393.644877    388.526826    -1.700000     2008-01-16T17:13:20.03Z  
1713.6666   62020   43.6531  -69.8830  49.0     8.4    4.007      31.305     1017.6        423.478138    410.982770    393.377419    388.262167    -1.700000     2008-01-16T17:13:40.00Z  
1714.0006   62040   43.6541  -69.8814  51.0     8.5    4.002      31.315     1017.6        423.757939    411.258871    393.342327    388.230407    -1.700000     2008-01-16T17:14:00.04Z  
1714.3333   62060   43.6550  -69.8797  54.0     8.5    3.999      31.329     1017.6        424.259337    411.748534    nd            nd            -1.700000     2008-01-16T17:14:20.00Z  
1714.6674   62080   43.6559  -69.8780  52.0     8.5    3.966      31.325     1017.5        424.774615    412.221813    393.619757    388.486882    -1.700000     2008-01-16T17:14:40.04Z  
1715.0000   62100   43.6568  -69.8763  52.0     8.5    3.930      31.310     1017.5        425.242298    412.679631    393.589502    388.474897    -1.700000     2008-01-16T17:15:00.00Z  
1715.3326   62120   43.6577  -69.8747  54.0     8.5    3.908      31.296     1017.6        425.544457    413.000288    393.380323    388.282347    -1.700000     2008-01-16T17:15:19.96Z  
1715.6667   62140   43.6586  -69.8729  57.0     8.5    3.886      31.263     1017.6        425.762554    413.228915    393.210023    388.121234    -1.700000     2008-01-16T17:15:40.00Z  
1715.9994   62160   43.6594  -69.8712  54.0     8.5    3.876      31.251     1017.6        425.769247    413.242755    393.420605    388.342682    -1.700000     2008-01-16T17:15:59.96Z  
1716.3334   62180   43.6603  -69.8694  60.0     8.6    3.862      31.236     1017.6        425.559486    413.027761    393.500475    388.409354    -1.700000     2008-01-16T17:16:20.00Z  
1716.6661   62200   43.6611  -69.8676  56.0     8.5    3.869      31.230     1017.6        425.360652    412.820661    393.514493    388.405162    -1.700000     2008-01-16T17:16:39.97Z  
1717.0002   62220   43.6619  -69.8659  53.0     8.5    3.889      31.245     1017.6        425.116266    412.579407    393.363450    388.254436    -1.700000     2008-01-16T17:17:00.01Z  
1717.3328   62240   43.6628  -69.8641  57.0     8.5    3.915      31.299     1017.6        424.955636    412.421426    393.370279    388.258309    -1.700000     2008-01-16T17:17:19.97Z  
1717.6669   62260   43.6637  -69.8624  54.0     8.5    3.925      31.328     1017.5        425.223025    412.660368    393.328878    388.197461    -1.700000     2008-01-16T17:17:40.01Z  
1717.9995   62280   43.6645  -69.8606  56.0     8.5    3.924      31.342     1017.5        425.705370    413.132830    nd            nd            -1.700000     2008-01-16T17:17:59.97Z  
1718.3336   62300   43.6654  -69.8589  54.0     8.5    3.943      31.365     1017.5        426.270378    413.653110    393.593653    388.436347    -1.700000     2008-01-16T17:18:20.02Z  
1718.6662   62320   43.6662  -69.8572  58.0     8.5    3.970      31.394     1017.5        427.091939    414.454516    393.560114    388.406850    -1.700000     2008-01-16T17:18:39.97Z  
1719.0003   62340   43.6671  -69.8554  55.0     8.5    3.970      31.414     1017.5        427.675026    415.033928    393.531339    388.391922    -1.700000     2008-01-16T17:19:00.02Z  
1719.3330   62360   43.6680  -69.8537  54.0     8.6    3.937      31.401     1017.6        428.452963    415.808694    393.528067    388.392262    -1.700000     2008-01-16T17:19:19.98Z  
1719.6670   62380   43.6689  -69.8520  54.0     8.5    3.913      31.392     1017.6        429.563896    416.894025    393.697137    388.589141    -1.700000     2008-01-16T17:19:40.02Z  
1719.9997   62400   43.6698  -69.8503  53.0     8.5    3.910      31.399     1017.5        430.399926    417.696336    393.534838    388.415788    -1.700000     2008-01-16T17:19:59.98Z  
1720.3338   62420   43.6706  -69.8485  59.0     8.4    3.922      31.406     1017.6        431.001661    418.286661    nd            nd            -1.700000     2008-01-16T17:20:20.03Z  
1720.6664   62440   43.6714  -69.8467  58.0     8.3    3.950      31.404     1017.6        431.561142    418.829234    393.745881    388.624661    -1.700000     2008-01-16T17:20:39.98Z  
1721.0005   62460   43.6722  -69.8450  56.0     8.4    3.977      31.392     1017.6        432.177860    419.434238    393.776818    388.662186    -1.700000     2008-01-16T17:21:00.03Z  
1721.3331   62480   43.6732  -69.8434  47.0     8.4    3.964      31.273     1017.5        432.697944    419.897059    393.788948    388.628805    -1.700000     2008-01-16T17:21:19.99Z  
1721.6672   62500   43.6741  -69.8417  53.0     8.5    3.927      31.107     1017.6        433.338404    420.554102    393.753622    388.637770    -1.700000     2008-01-16T17:21:40.03Z  
1721.9998   62520   43.6750  -69.8400  55.0     8.4    3.871      30.897     1017.6        433.616279    420.832507    394.049139    388.935999    -1.700000     2008-01-16T17:21:59.99Z  
1722.3339   62540   43.6760  -69.8384  50.0     8.5    3.845      30.837     1017.6        433.270600    420.528617    393.837396    388.755919    -1.700000     2008-01-16T17:22:20.03Z  
1722.6666   62560   43.6768  -69.8367  55.0     8.4    3.844      30.800     1017.6        432.273145    419.570709    393.980340    388.913720    -1.700000     2008-01-16T17:22:40.00Z  
1723.0006   62580   43.6778  -69.8350  51.0     8.4    3.857      30.775     1017.6        431.067066    418.394353    393.608407    388.523095    -1.700000     2008-01-16T17:23:00.04Z  
1723.3333   62600   43.6787  -69.8334  55.0     8.3    3.861      30.726     1017.7        429.961827    417.332317    nd            nd            -1.700000     2008-01-16T17:23:20.00Z  
1723.6674   62620   43.6795  -69.8316  56.0     8.4    3.837      30.547     1017.7        429.282357    416.681394    393.617965    388.571538    -1.700000     2008-01-16T17:23:40.04Z  
1724.0000   62640   43.6803  -69.8299  52.0     8.4    3.750      30.275     1017.7        428.587446    416.029863    393.843973    388.804284    -1.700000     2008-01-16T17:24:00.00Z  
1724.3326   62660   43.6812  -69.8283  55.0     8.3    3.668      30.137     1017.7        427.681137    415.163910    393.770904    388.735860    -1.700000     2008-01-16T17:24:19.96Z  
1724.6667   62680   43.6820  -69.8265  60.0     8.1    3.643      30.115     1017.7        426.323783    413.862471    nd            nd            -1.700000     2008-01-16T17:24:40.00Z  
1724.9994   62700   43.6827  -69.8248  55.0     8.2    3.636      30.056     1017.7        424.651662    412.251518    393.678635    388.674366    -1.700000     2008-01-16T17:24:59.96Z  
1725.3334   62720   43.6836  -69.8232  56.0     8.2    3.630      29.884     1017.7        423.365915    411.010565    393.843042    388.849140    -1.700000     2008-01-16T17:25:20.00Z  
1725.6661   62740   43.6844  -69.8215  51.0     8.2    3.603      29.113     1017.7        422.393293    410.064602    394.028990    389.030766    -1.700000     2008-01-16T17:25:39.97Z  
1726.0002   62760   43.6854  -69.8199  51.0     8.2    3.567      28.559     1017.7        421.025321    408.737203    393.825738    388.830942    -1.700000     2008-01-16T17:26:00.01Z  
1726.3328   62780   43.6863  -69.8183  54.0     8.2    3.527      28.215     1017.7        418.521333    406.287886    393.905728    388.871676    -1.700000     2008-01-16T17:26:19.97Z  
1726.6669   62800   43.6871  -69.8167  53.0     8.1    3.505      28.111     1017.6        415.495645    403.348506    393.968005    388.943096    -1.700000     2008-01-16T17:26:40.01Z  
1726.9995   62820   43.6880  -69.8151  51.0     8.2    3.494      27.963     1017.6        412.109106    400.042052    394.210062    389.175660    -1.700000     2008-01-16T17:26:59.97Z  
1727.3336   62840   43.6889  -69.8134  56.0     8.2    3.481      27.723     1017.6        409.541985    397.563397    nd            nd            -1.700000     2008-01-16T17:27:20.02Z  
1727.6662   62860   43.6897  -69.8117  58.0     8.2    3.465      27.294     1017.6        407.175456    395.280023    394.272634    389.270921    -1.700000     2008-01-16T17:27:39.97Z  
1728.0003   62880   43.6905  -69.8100  56.0     8.2    3.444      26.998     1017.7        404.882220    393.068139    394.045949    389.037225    -1.700000     2008-01-16T17:28:00.02Z  
1728.3330   62900   43.6913  -69.8083  55.0     8.2    3.422      26.800     1017.6        402.283557    390.540967    nd            nd            -1.700000     2008-01-16T17:28:19.98Z  
1728.6670   62920   43.6921  -69.8066  57.0     8.2    3.409      26.754     1017.7        399.860603    388.193365    nd            nd            -1.700000     2008-01-16T17:28:40.02Z  
1728.9997   62940   43.6929  -69.8049  52.0     8.2    3.408      26.683     1017.7        397.583820    386.010905    394.034745    389.064197    -1.700000     2008-01-16T17:28:59.98Z  
1729.3338   62960   43.6938  -69.8033  55.0     8.1    3.394      26.647     1017.6        395.958918    384.404455    394.023876    389.029242    -1.700000     2008-01-16T17:29:20.03Z  
1729.6664   62980   43.6946  -69.8016  53.0     8.1    3.411      26.862     1017.6        394.593793    383.073543    393.901432    388.900454    -1.700000     2008-01-16T17:29:39.98Z  
1730.0005   63000   43.6955  -69.8000  54.0     8.1    3.425      26.799     1017.6        393.482774    381.996961    393.965877    388.979396    -1.700000     2008-01-16T17:30:00.03Z  
1730.3331   63020   43.6963  -69.7983  57.0     8.1    3.409      26.421     1017.7        393.304072    381.830883    nd            nd            -1.700000     2008-01-16T17:30:19.99Z  
1730.6672   63040   43.6971  -69.7966  54.0     8.1    3.374      25.983     1017.6        392.790006    381.333883    394.095237    389.107925    -1.700000     2008-01-16T17:30:40.03Z  
1730.9998   63060   43.6980  -69.7950  55.0     8.1    3.326      25.626     1017.7        392.011198    380.595404    nd            nd            -1.700000     2008-01-16T17:30:59.99Z  
1731.3339   63080   43.6987  -69.7933  57.0     8.1    3.311      25.588     1017.6        390.545904    379.158559    394.151665    389.160588    -1.700000     2008-01-16T17:31:20.03Z  
1731.6666   63100   43.6995  -69.7916  57.0     8.1    3.310      25.579     1017.6        388.576275    377.238843    nd            nd            -1.700000     2008-01-16T17:31:40.00Z  
1732.0006   63120   43.7003  -69.7900  55.0     8.0    3.318      25.683     1017.6        387.003201    375.707343    394.112050    389.102875    -1.700000     2008-01-16T17:32:00.04Z  
1732.3333   63140   43.7012  -69.7883  54.0     8.1    3.327      25.658     1017.6        385.864110    374.598119    394.032903    389.028678    -1.700000     2008-01-16T17:32:20.00Z  
1732.6674   63160   43.7020  -69.7867  53.0     8.0    3.298      25.231     1017.6        385.321507    374.083084    394.195192    389.202706    -1.700000     2008-01-16T17:32:40.04Z  
1733.0000   63180   43.7029  -69.7851  55.0     8.0    3.277      25.176     1017.6        384.827145    373.595909    394.066641    389.071123    -1.700000     2008-01-16T17:33:00.00Z  
1733.3326   63200   43.7037  -69.7834  55.0     8.0    3.259      24.964     1017.5        383.764170    372.544487    393.801559    388.782176    -1.700000     2008-01-16T17:33:19.96Z  
1733.6667   63220   43.7046  -69.7819  50.0     8.0    3.221      24.670     1017.5        382.836159    371.654882    394.090937    389.095400    -1.700000     2008-01-16T17:33:40.00Z  
1733.9994   63240   43.7054  -69.7806  48.0     4.8    3.181      24.472     1017.7        381.761281    370.686729    nd            nd            -1.700000     2008-01-16T17:33:59.96Z  
1734.3334   63260   43.7056  -69.7802  90.0     0.8    3.169      24.500     1017.8        380.525238    369.501983    nd            nd            -1.700000     2008-01-16T17:34:20.00Z  
1734.6661   63280   43.7055  -69.7801  169.0    0.6    3.156      24.301     1017.8        379.147349    368.164540    nd            nd            -1.700000     2008-01-16T17:34:39.97Z  
1735.0002   63300   43.7054  -69.7801  186.0    0.8    3.149      24.132     1017.7        378.078653    367.121443    nd            nd            -1.700000     2008-01-16T17:35:00.01Z  
1735.3328   63320   43.7052  -69.7802  193.0    0.9    3.146      24.200     1017.7        376.956079    366.034289    nd            nd            -1.700000     2008-01-16T17:35:19.97Z  
1735.6669   63340   43.7050  -69.7803  198.0    1.0    3.177      24.429     1017.8        375.561413    364.689115    nd            nd            -1.700000     2008-01-16T17:35:40.01Z  
1735.9995   63360   43.7049  -69.7803  203.0    1.0    3.207      24.526     1017.8        374.660740    363.804515    nd            nd            -1.700000     2008-01-16T17:35:59.97Z  
1736.3336   63380   43.7047  -69.7804  206.0    1.0    3.203      24.476     1017.8        374.444465    363.594610    nd            nd            -1.700000     2008-01-16T17:36:20.02Z  
1736.6662   63400   43.7045  -69.7806  208.0    1.0    3.206      24.517     1017.8        374.546053    363.707160    nd            nd            -1.700000     2008-01-16T17:36:39.97Z  
1737.0003   63420   43.7044  -69.7807  207.0    1.0    3.214      24.545     1017.8        374.662811    363.825834    nd            nd            -1.700000     2008-01-16T17:37:00.02Z  
1737.3330   63440   43.7042  -69.7808  206.0    1.0    3.196      24.499     1017.7        374.827401    363.960437    nd            nd            -1.700000     2008-01-16T17:37:19.98Z  
1737.6670   63460   43.7040  -69.7809  205.0    1.0    3.180      24.496     1017.7        375.034765    364.162418    nd            nd            -1.700000     2008-01-16T17:37:40.02Z  
1737.9997   63480   43.7038  -69.7810  205.0    1.0    3.188      24.609     1017.8        375.081442    364.211136    nd            nd            -1.700000     2008-01-16T17:37:59.98Z  
1738.3338   63500   43.7037  -69.7811  206.0    1.0    3.244      24.792     1017.8        375.234333    364.354393    nd            nd            -1.700000     2008-01-16T17:38:20.03Z  
1738.6664   63520   43.7035  -69.7812  207.0    1.0    3.299      24.827     1017.8        375.306843    364.416340    nd            nd            -1.700000     2008-01-16T17:38:39.98Z  
1739.0005   63540   43.7033  -69.7814  205.0    1.0    3.286      24.633     1017.7        376.122527    365.190542    nd            nd            -1.700000     2008-01-16T17:39:00.03Z  
1739.3331   63560   43.7032  -69.7815  205.0    1.0    3.237      24.515     1017.7        376.878358    365.938234    nd            nd            -1.700000     2008-01-16T17:39:19.99Z  
1739.6672   63580   43.7030  -69.7816  203.0    1.0    3.211      24.699     1017.7        377.250946    366.287050    nd            nd            -1.700000     2008-01-16T17:39:40.03Z  
1739.9494   63597   43.7029  -69.7817  203.0    1.1    3.219      24.884     1017.7        377.208597    366.243241    nd            nd            -1.700000     2008-01-16T17:39:56.96Z  
nd          nd      nd       nd        nd       nd     nd         nd         nd            nd            nd            nd            nd            nd            nd                
1740.7501   63645   43.7024  -69.7819  208.0    1.1    3.245      24.902     1017.7        377.625913    366.635754    nd            nd            -1.700000     2008-01-16T17:40:45.01Z  
1741.0006   63660   43.7023  -69.7820  207.0    1.0    3.233      24.805     1017.8        377.828662    366.874173    nd            nd            -1.700000     2008-01-16T17:41:00.04Z  
1741.3333   63680   43.7021  -69.7821  206.0    1.0    3.215      24.801     1017.9        378.188857    367.272609    nd            nd            -1.700000     2008-01-16T17:41:20.00Z  
1741.6674   63700   43.7020  -69.7822  201.0    1.0    3.180      24.815     1017.9        378.141756    367.234606    nd            nd            -1.700000     2008-01-16T17:41:40.04Z  
1742.0000   63720   43.7018  -69.7823  198.0    1.0    3.156      24.870     1017.9        379.399186    368.469062    nd            nd            -1.700000     2008-01-16T17:42:00.00Z  
1742.3326   63740   43.7016  -69.7824  193.0    0.9    3.149      24.964     1017.8        381.450148    370.433565    nd            nd            -1.700000     2008-01-16T17:42:19.96Z  
1742.6667   63760   43.7015  -69.7824  194.0    0.9    3.191      25.022     1017.7        382.155494    371.052620    nd            nd            -1.700000     2008-01-16T17:42:40.00Z  
1742.9994   63780   43.7013  -69.7825  196.0    0.9    3.245      25.099     1017.7        381.816591    370.706628    nd            nd            -1.700000     2008-01-16T17:42:59.96Z  
1743.3334   63800   43.7011  -69.7826  198.0    0.9    3.256      25.064     1017.7        381.625369    370.517120    nd            nd            -1.700000     2008-01-16T17:43:20.00Z  
1743.6661   63820   43.7010  -69.7826  193.0    0.9    3.248      24.962     1017.7        381.494158    370.390110    nd            nd            -1.700000     2008-01-16T17:43:39.97Z  
1744.0002   63840   43.7008  -69.7827  216.0    0.8    3.243      24.979     1017.9        381.086820    370.089049    nd            nd            -1.700000     2008-01-16T17:44:00.01Z  
1744.3328   63860   43.7007  -69.7828  205.0    0.9    3.209      25.030     1018.0        380.308768    369.373133    nd            nd            -1.700000     2008-01-16T17:44:19.97Z  
1744.6669   63880   43.7005  -69.7829  193.0    1.0    3.182      25.081     1018.0        379.881151    368.961978    nd            nd            -1.700000     2008-01-16T17:44:40.01Z  
1744.9995   63900   43.7004  -69.7829  186.0    1.0    3.182      25.382     1017.9        379.562117    368.615151    nd            nd            -1.700000     2008-01-16T17:44:59.97Z  
1745.3336   63920   43.7002  -69.7830  189.0    0.9    3.263      26.186     1017.7        379.376308    368.357226    nd            nd            -1.700000     2008-01-16T17:45:20.02Z  
1745.6662   63940   43.7000  -69.7830  185.0    0.8    3.381      26.688     1017.8        379.941991    368.898274    nd            nd            -1.700000     2008-01-16T17:45:39.97Z  
1746.0003   63960   43.6999  -69.7830  225.0    0.7    3.445      26.423     1018.0        381.886038    370.857092    nd            nd            -1.700000     2008-01-16T17:46:00.02Z  
1746.3330   63980   43.6998  -69.7831  215.0    0.6    3.374      25.781     1018.1        384.753512    373.697482    nd            nd            -1.700000     2008-01-16T17:46:19.98Z  
1746.6670   64000   43.6997  -69.7832  208.0    0.5    3.302      25.701     1018.1        386.510331    375.404290    nd            nd            -1.700000     2008-01-16T17:46:40.02Z  
1746.9997   64020   43.6996  -69.7833  204.0    0.7    3.301      26.074     1018.1        386.579762    375.499842    nd            nd            -1.700000     2008-01-16T17:46:59.98Z  
1747.3338   64040   43.6995  -69.7833  202.0    0.5    3.379      26.756     1018.1        385.910512    374.803241    nd            nd            -1.700000     2008-01-16T17:47:20.03Z  
1747.6664   64060   43.6995  -69.7834  197.0    0.4    3.514      27.465     1018.1        386.080762    374.952321    nd            nd            -1.700000     2008-01-16T17:47:39.98Z  
1748.0005   64080   43.6994  -69.7834  201.0    0.5    3.628      27.858     1018.1        387.651988    376.463078    nd            nd            -1.700000     2008-01-16T17:48:00.03Z  
1748.3331   64100   43.6993  -69.7835  204.0    0.4    3.645      27.531     1018.1        390.528501    379.259912    nd            nd            -1.700000     2008-01-16T17:48:19.99Z  
1748.6672   64120   43.6992  -69.7835  199.0    0.5    3.596      26.979     1018.1        394.028099    382.666926    nd            nd            -1.700000     2008-01-16T17:48:40.03Z  
1748.9998   64140   43.6992  -69.7835  195.0    0.4    3.539      26.642     1018.2        395.924001    384.540756    nd            nd            -1.700000     2008-01-16T17:48:59.99Z  
1749.3339   64160   43.6991  -69.7835  193.0    0.4    3.511      26.733     1018.1        396.184443    384.784758    nd            nd            -1.700000     2008-01-16T17:49:20.03Z  
1749.6666   64180   43.6990  -69.7836  192.0    0.4    3.527      26.869     1018.1        395.370256    383.981618    nd            nd            -1.700000     2008-01-16T17:49:40.00Z  
1750.0006   64200   43.6989  -69.7836  199.0    0.5    3.565      27.123     1018.1        394.846754    383.475419    nd            nd            -1.700000     2008-01-16T17:50:00.04Z  
1750.3333   64220   43.6989  -69.7836  204.0    0.4    3.564      27.034     1018.1        394.660815    383.293151    nd            nd            -1.700000     2008-01-16T17:50:20.00Z  
1750.6674   64240   43.6988  -69.7837  204.0    0.5    3.540      26.892     1018.1        395.128822    383.757248    nd            nd            -1.700000     2008-01-16T17:50:40.04Z  
1751.0000   64260   43.6987  -69.7837  202.0    0.7    3.517      26.852     1018.1        395.380932    383.975957    nd            nd            -1.700000     2008-01-16T17:51:00.00Z  
1751.3326   64280   43.6985  -69.7838  190.0    2.3    3.519      26.838     1018.0        395.121863    383.694298    nd            nd            -1.700000     2008-01-16T17:51:19.96Z  
1751.6667   64300   43.6982  -69.7835  84.0     3.1    3.562      27.083     1017.8        394.926195    383.443887    nd            nd            -1.700000     2008-01-16T17:51:40.00Z  
1751.9994   64320   43.6987  -69.7831  10.0     3.5    3.645      27.234     1017.8        394.791191    383.276756    nd            nd            -1.700000     2008-01-16T17:51:59.96Z  
1752.3334   64340   43.6994  -69.7829  14.0     4.1    3.657      26.890     1017.7        395.104840    383.564581    nd            nd            -1.700000     2008-01-16T17:52:20.00Z  
1752.6661   64360   43.7001  -69.7827  14.0     4.4    3.653      26.802     1017.8        396.117632    384.551481    nd            nd            -1.700000     2008-01-16T17:52:39.97Z  
1753.0002   64380   43.7009  -69.7823  22.0     4.8    3.638      26.675     1017.7        396.557935    384.969438    nd            nd            -1.700000     2008-01-16T17:53:00.01Z  
1753.3328   64400   43.7017  -69.7817  25.0     5.4    3.611      26.412     1017.7        396.604300    385.005991    nd            nd            -1.700000     2008-01-16T17:53:19.97Z  
1753.6669   64420   43.7027  -69.7811  28.0     6.7    3.579      26.120     1017.7        396.167737    384.574250    nd            nd            -1.700000     2008-01-16T17:53:40.01Z  
1753.9995   64440   43.7039  -69.7801  31.0     7.9    3.565      26.049     1017.6        395.450243    383.855209    nd            nd            -1.700000     2008-01-16T17:53:59.97Z  
1754.3336   64460   43.7051  -69.7792  26.0     7.8    3.542      25.767     1017.6        394.243846    382.710352    nd            nd            -1.700000     2008-01-16T17:54:20.02Z  
1754.6662   64480   43.7064  -69.7783  29.0     7.9    3.506      25.518     1017.7        393.114184    381.624226    nd            nd            -1.700000     2008-01-16T17:54:39.97Z  
1755.0003   64500   43.7076  -69.7773  29.0     8.1    3.443      25.049     1017.6        391.703588    380.263857    nd            nd            -1.700000     2008-01-16T17:55:00.02Z  
1755.3330   64520   43.7089  -69.7763  28.0     8.1    3.360      24.564     1017.6        390.241165    378.856011    nd            nd            -1.700000     2008-01-16T17:55:19.98Z  
1755.6670   64540   43.7102  -69.7753  27.0     8.1    3.313      24.559     1017.6        388.072321    376.758861    nd            nd            -1.700000     2008-01-16T17:55:40.02Z  
1755.9997   64560   43.7115  -69.7744  25.0     8.2    3.267      24.133     1017.6        385.552761    374.313711    nd            nd            -1.700000     2008-01-16T17:55:59.98Z  
1756.3338   64580   43.7128  -69.7735  28.0     8.1    3.196      23.595     1017.6        383.423826    372.258832    nd            nd            -1.700000     2008-01-16T17:56:20.03Z  
1756.6664   64600   43.7141  -69.7725  27.0     8.2    3.142      23.459     1017.6        381.039275    369.955723    394.039449    389.073452    -1.700000     2008-01-16T17:56:39.98Z  
1757.0005   64620   43.7154  -69.7716  26.0     8.1    3.107      23.367     1017.6        378.320089    367.323261    394.153933    389.197580    -1.700000     2008-01-16T17:57:00.03Z  
1757.3331   64640   43.7166  -69.7707  29.0     8.1    3.063      23.019     1017.6        375.835982    364.918003    394.367744    389.423472    -1.700000     2008-01-16T17:57:19.99Z  
1757.6672   64660   43.7179  -69.7697  28.0     8.0    3.014      22.644     1017.6        373.773629    362.930012    393.781949    388.850704    -1.700000     2008-01-16T17:57:40.03Z  
1757.9998   64680   43.7192  -69.7688  28.0     8.1    2.952      22.079     1017.6        371.743736    360.949166    393.760172    388.829191    -1.700000     2008-01-16T17:57:59.99Z  
1758.3339   64700   43.7205  -69.7678  27.0     8.1    2.897      21.987     1017.6        369.616631    358.889153    nd            nd            -1.700000     2008-01-16T17:58:20.03Z  
1758.6666   64720   43.7218  -69.7669  25.0     8.2    2.867      21.905     1017.6        367.163977    356.536787    nd            nd            -1.700000     2008-01-16T17:58:40.00Z  
1759.0006   64740   43.7231  -69.7660  26.0     8.2    2.848      22.045     1017.6        365.288068    354.714826    393.519559    388.617924    -1.700000     2008-01-16T17:59:00.04Z  
1759.3333   64760   43.7244  -69.7651  28.0     8.2    2.892      22.736     1017.7        363.668807    353.146528    nd            nd            -1.700000     2008-01-16T17:59:20.00Z  
1759.6501   64779   43.7257  -69.7641  28.0     8.2    2.929      22.775     1017.6        362.710400    352.187725    nd            nd            -1.700000     2008-01-16T17:59:39.01Z  
1800.0000   64800   43.7270  -69.7632  23.0     8.1    2.922      22.328     1017.6        362.538585    352.030758    394.171152    389.247731    -1.250000     2008-01-16T18:00:00.00Z  
1800.3326   64820   43.7284  -69.7625  16.0     8.0    2.894      21.897     1017.6        362.629383    352.123471    nd            nd            -0.800000     2008-01-16T18:00:19.96Z  
1800.6667   64840   43.7298  -69.7620  13.0     8.1    2.857      21.557     1017.6        362.129692    351.646339    nd            nd            -0.800000     2008-01-16T18:00:40.00Z  
1800.9994   64860   43.7312  -69.7615  15.0     8.2    2.796      21.007     1017.6        361.207638    350.761200    nd            nd            -0.800000     2008-01-16T18:00:59.96Z  
1801.3334   64880   43.7327  -69.7612  5.0      8.3    2.753      20.878     1017.6        360.061288    349.655958    nd            nd            -0.800000     2008-01-16T18:01:20.00Z  
1801.6661   64900   43.7341  -69.7608  52.0     8.2    2.728      20.832     1017.6        358.623383    348.265112    nd            nd            -0.800000     2008-01-16T18:01:39.97Z  
1802.0002   64920   43.7355  -69.7609  343.0    8.1    2.716      20.695     1017.6        357.168168    346.849695    nd            nd            -0.800000     2008-01-16T18:02:00.01Z  
1802.3328   64940   43.7368  -69.7619  329.0    8.1    2.682      20.325     1017.6        356.138265    345.852812    nd            nd            -0.800000     2008-01-16T18:02:19.97Z  
1802.6669   64960   43.7381  -69.7630  325.0    8.2    2.629      19.848     1017.6        355.133198    344.884721    nd            nd            -0.800000     2008-01-16T18:02:40.01Z  
1802.9995   64980   43.7392  -69.7642  319.0    8.2    2.570      19.338     1017.6        354.112847    343.903248    nd            nd            -0.800000     2008-01-16T18:02:59.97Z  
1803.3336   65000   43.7403  -69.7656  320.0    8.2    2.514      18.928     1017.6        352.813464    342.653846    nd            nd            -0.800000     2008-01-16T18:03:20.02Z  
1803.6662   65020   43.7414  -69.7670  314.0    8.3    2.456      18.343     1017.7        351.509701    341.398352    394.073157    389.242153    -0.800000     2008-01-16T18:03:39.97Z  
1804.0003   65040   43.7425  -69.7685  313.0    8.4    2.387      17.963     1017.7        350.450573    340.380084    394.200002    389.373168    -0.800000     2008-01-16T18:04:00.02Z  
1804.3330   65060   43.7435  -69.7700  313.0    8.4    2.341      17.882     1017.6        349.537253    339.499707    394.061555    389.242895    -0.800000     2008-01-16T18:04:19.98Z  
1804.6670   65080   43.7445  -69.7715  314.0    8.3    2.316      17.974     1017.6        348.502493    338.492931    nd            nd            -0.800000     2008-01-16T18:04:40.02Z  
1804.9997   65100   43.7456  -69.7730  316.0    8.4    2.306      17.639     1017.6        347.596685    337.612897    nd            nd            -0.800000     2008-01-16T18:04:59.98Z  
1805.3338   65120   43.7467  -69.7744  316.0    8.4    2.237      16.576     1017.6        346.647360    336.704102    nd            nd            -0.800000     2008-01-16T18:05:20.03Z  
1805.6664   65140   43.7479  -69.7757  324.0    8.3    2.174      16.063     1017.6        346.339420    336.414588    nd            nd            -0.800000     2008-01-16T18:05:39.98Z  
1806.0005   65160   43.7490  -69.7770  322.0    8.4    2.134      15.699     1017.7        346.534352    336.613042    nd            nd            -0.800000     2008-01-16T18:06:00.03Z  
1806.3331   65180   43.7503  -69.7780  334.0    8.0    2.094      15.132     1017.7        346.719465    336.799314    nd            nd            -0.800000     2008-01-16T18:06:19.99Z  
1806.6672   65200   43.7515  -69.7787  339.0    6.9    2.029      14.675     1017.6        347.275119    337.345329    nd            nd            -0.800000     2008-01-16T18:06:40.03Z  
1806.9998   65220   43.7527  -69.7793  341.0    6.4    1.974      14.641     1017.7        348.242744    338.299678    nd            nd            -0.800000     2008-01-16T18:06:59.99Z  
1807.3339   65240   43.7537  -69.7797  339.0    5.9    1.950      14.610     1017.7        349.695824    339.722237    nd            nd            -0.800000     2008-01-16T18:07:20.03Z  
1807.6666   65260   43.7546  -69.7804  332.0    5.7    1.939      14.415     1017.7        350.470575    340.482174    nd            nd            -0.800000     2008-01-16T18:07:40.00Z  
1808.0006   65280   43.7555  -69.7809  332.0    4.7    1.900      13.648     1017.7        351.264354    341.259881    nd            nd            -0.800000     2008-01-16T18:08:00.04Z  
1808.3333   65300   43.7562  -69.7814  334.0    4.3    1.840      13.095     1017.7        352.443820    342.408436    nd            nd            -0.800000     2008-01-16T18:08:20.00Z  
1808.6674   65320   43.7568  -69.7818  336.0    3.0    1.800      12.960     1017.7        354.962844    344.862944    nd            nd            -0.800000     2008-01-16T18:08:40.04Z  
1809.0000   65340   43.7571  -69.7820  323.0    1.5    1.768      12.980     1017.7        358.103419    347.925421    nd            nd            -0.800000     2008-01-16T18:09:00.00Z  
1809.3326   65360   43.7572  -69.7822  286.0    0.5    1.736      13.087     1017.7        360.498426    350.259501    nd            nd            -0.800000     2008-01-16T18:09:19.96Z  
1809.6667   65380   43.7572  -69.7823  237.0    0.3    1.708      13.174     1017.7        361.516485    351.247592    nd            nd            -0.800000     2008-01-16T18:09:40.00Z  
1809.9994   65400   43.7572  -69.7824  237.0    0.4    1.702      13.236     1017.7        361.679653    351.405875    nd            nd            -0.800000     2008-01-16T18:09:59.96Z  
1810.3334   65420   43.7572  -69.7825  321.0    1.1    1.722      13.301     1017.7        361.319316    351.055763    nd            nd            -0.800000     2008-01-16T18:10:20.00Z  
1810.6661   65440   43.7573  -69.7826  300.0    0.6    1.770      13.309     1017.7        360.705433    350.447687    nd            nd            -0.800000     2008-01-16T18:10:39.97Z  
1811.0002   65460   43.7573  -69.7827  237.0    0.4    1.745      13.228     1017.7        360.130382    349.891317    nd            nd            -0.800000     2008-01-16T18:11:00.01Z  
1811.3328   65480   43.7573  -69.7828  228.0    0.4    1.706      13.148     1017.7        360.164753    349.930747    nd            nd            -0.800000     2008-01-16T18:11:19.97Z  
1811.6669   65500   43.7572  -69.7828  205.0    0.3    1.696      13.097     1017.7        360.465098    350.224406    nd            nd            -0.800000     2008-01-16T18:11:40.01Z  
1811.9995   65520   43.7572  -69.7829  190.0    0.4    1.714      13.048     1017.7        360.857860    350.605358    nd            nd            -0.800000     2008-01-16T18:11:59.97Z  
1812.3336   65540   43.7571  -69.7829  172.0    0.4    1.695      12.980     1017.7        361.255398    350.995268    nd            nd            -0.800000     2008-01-16T18:12:20.02Z  
1812.6662   65560   43.7570  -69.7828  159.0    0.4    1.677      12.936     1017.7        361.796936    351.521761    nd            nd            -0.800000     2008-01-16T18:12:39.97Z  
1813.0003   65580   43.7569  -69.7828  149.0    0.4    1.654      12.915     1017.7        362.280436    351.988804    nd            nd            -0.800000     2008-01-16T18:13:00.02Z  
1813.3330   65600   43.7569  -69.7827  150.0    0.4    1.625      12.890     1017.7        362.627182    352.333400    nd            nd            -0.800000     2008-01-16T18:13:19.98Z  
1813.6670   65620   43.7568  -69.7827  151.0    0.4    1.613      12.864     1017.7        362.911901    352.610900    nd            nd            -0.800000     2008-01-16T18:13:40.02Z  
1813.9997   65640   43.7567  -69.7826  147.0    0.4    1.609      12.843     1017.7        362.912513    352.609111    nd            nd            -0.800000     2008-01-16T18:13:59.98Z  
1814.3338   65660   43.7566  -69.7826  144.0    0.5    1.595      12.825     1017.7        362.888552    352.589801    nd            nd            -0.800000     2008-01-16T18:14:20.03Z  
1814.6664   65680   43.7566  -69.7825  141.0    0.4    1.585      12.818     1017.7        363.166637    352.860111    nd            nd            -0.800000     2008-01-16T18:14:39.98Z  
1815.0005   65700   43.7565  -69.7824  138.0    0.5    1.583      12.811     1017.7        363.302102    352.995890    nd            nd            -0.800000     2008-01-16T18:15:00.03Z  
1815.3331   65720   43.7564  -69.7823  133.0    0.5    1.570      12.802     1017.7        363.232611    352.938354    nd            nd            -0.800000     2008-01-16T18:15:19.99Z  
1815.6672   65740   43.7564  -69.7822  136.0    0.5    1.562      12.786     1017.7        363.417692    353.120135    nd            nd            -0.800000     2008-01-16T18:15:40.03Z  
1815.9998   65760   43.7563  -69.7822  133.0    0.4    1.554      12.782     1017.7        363.368023    353.073083    nd            nd            -0.800000     2008-01-16T18:15:59.99Z  
1816.3339   65780   43.7563  -69.7821  56.0     0.4    1.565      12.774     1017.7        363.258535    352.963908    nd            nd            -0.800000     2008-01-16T18:16:20.03Z  
1816.6666   65800   43.7563  -69.7820  79.0     0.2    1.573      12.768     1017.7        363.264521    352.966419    nd            nd            -0.800000     2008-01-16T18:16:40.00Z  
1817.0006   65820   43.7563  -69.7820  153.0    0.3    1.556      12.769     1017.7        363.208551    352.914330    nd            nd            -0.800000     2008-01-16T18:17:00.04Z  
1817.3333   65840   43.7562  -69.7820  202.0    0.1    1.525      12.791     1017.7        363.254387    352.961962    nd            nd            -0.800000     2008-01-16T18:17:20.00Z  
1817.6674   65860   43.7562  -69.7820  160.0    0.2    1.507      12.782     1017.7        363.324320    353.030243    nd            nd            -0.800000     2008-01-16T18:17:40.04Z  
1818.0000   65880   43.7561  -69.7819  154.0    0.3    1.493      12.790     1017.7        363.237161    352.945957    nd            nd            -0.800000     2008-01-16T18:18:00.00Z  
1818.3326   65900   43.7561  -69.7819  159.0    0.4    1.494      12.829     1017.7        363.080565    352.797642    nd            nd            -0.800000     2008-01-16T18:18:19.96Z  
1818.6667   65920   43.7560  -69.7819  161.0    0.4    1.504      12.814     1017.7        362.867321    352.592370    nd            nd            -0.800000     2008-01-16T18:18:40.00Z  
1818.9994   65940   43.7559  -69.7818  160.0    0.3    1.518      12.811     1017.7        363.048334    352.770083    nd            nd            -0.800000     2008-01-16T18:18:59.96Z  
1819.3334   65960   43.7559  -69.7818  160.0    0.4    1.535      12.838     1017.7        364.410550    354.097345    nd            nd            -0.800000     2008-01-16T18:19:20.00Z  
1819.6661   65980   43.7558  -69.7818  160.0    0.5    1.551      12.860     1017.7        365.705831    355.346883    nd            nd            -0.800000     2008-01-16T18:19:39.97Z  
1820.0002   66000   43.7557  -69.7816  93.0     1.7    1.563      12.817     1017.7        366.120903    355.749615    nd            nd            -0.800000     2008-01-16T18:20:00.01Z  
1820.3328   66020   43.7561  -69.7814  237.0    3.8    1.579      12.758     1017.7        366.078491    355.714458    nd            nd            -0.800000     2008-01-16T18:20:19.97Z  
1820.6669   66040   43.7570  -69.7817  342.0    5.8    1.601      12.729     1017.7        365.873686    355.505735    nd            nd            -0.800000     2008-01-16T18:20:40.01Z  
1820.9995   66060   43.7581  -69.7821  346.0    6.7    1.607      12.632     1017.7        366.122810    355.742867    nd            nd            -0.800000     2008-01-16T18:20:59.97Z  
1821.3336   66080   43.7593  -69.7826  344.0    7.7    1.614      12.690     1017.7        368.554250    358.100607    nd            nd            -0.800000     2008-01-16T18:21:20.02Z  
1821.6662   66100   43.7607  -69.7831  343.0    7.9    1.639      12.880     1017.7        370.549722    360.032641    nd            nd            -0.800000     2008-01-16T18:21:39.97Z  
1822.0003   66120   43.7621  -69.7837  344.0    8.2    1.648      13.109     1017.7        370.148302    359.647770    nd            nd            -0.800000     2008-01-16T18:22:00.02Z  
1822.3330   66140   43.7635  -69.7841  348.0    8.2    1.662      13.175     1017.7        368.739908    358.279856    nd            nd            -0.800000     2008-01-16T18:22:19.98Z  
1822.6670   66160   43.7650  -69.7845  351.0    8.2    1.654      12.640     1017.7        366.825173    356.418109    nd            nd            -0.800000     2008-01-16T18:22:40.02Z  
1822.9997   66180   43.7664  -69.7849  344.0    8.2    1.591      11.621     1017.7        365.257039    354.899477    nd            nd            -0.800000     2008-01-16T18:22:59.98Z  
1823.3338   66200   43.7678  -69.7854  346.0    8.3    1.501      10.849     1017.7        365.763413    355.410390    nd            nd            -0.800000     2008-01-16T18:23:20.03Z  
1823.6664   66220   43.7693  -69.7859  347.0    8.2    1.448      10.490     1017.7        369.974240    359.519270    nd            nd            -0.800000     2008-01-16T18:23:39.98Z  
1824.0005   66240   43.7707  -69.7863  348.0    8.2    1.402      10.163     1017.8        376.589493    365.959041    nd            nd            -0.800000     2008-01-16T18:24:00.03Z  
1824.3331   66260   43.7722  -69.7867  347.0    8.2    1.353      9.800      1017.7        383.249176    372.428471    nd            nd            -0.800000     2008-01-16T18:24:19.99Z  
1824.6672   66280   43.7736  -69.7872  345.0    8.2    1.316      9.559      1017.7        389.825655    378.816160    nd            nd            -0.800000     2008-01-16T18:24:40.03Z  
1824.9998   66300   43.7750  -69.7877  346.0    8.2    1.279      9.301      1017.7        396.514931    385.319828    nd            nd            -0.800000     2008-01-16T18:24:59.99Z  
1825.3339   66320   43.7765  -69.7882  344.0    8.3    1.243      9.005      1017.7        403.241378    391.864154    nd            nd            -0.800000     2008-01-16T18:25:20.03Z  
1825.6666   66340   43.7779  -69.7886  352.0    8.2    1.210      8.807      1017.7        410.009877    398.447594    395.003614    390.377117    -0.800000     2008-01-16T18:25:40.00Z  
1826.0006   66360   43.7794  -69.7886  24.0     8.0    1.196      8.630      1017.7        416.603477    404.863987    394.697456    390.085004    -0.800000     2008-01-16T18:26:00.04Z  
1826.3333   66380   43.7808  -69.7884  3.0      8.1    1.181      8.364      1017.7        422.932799    411.020887    394.677473    390.068988    -0.800000     2008-01-16T18:26:20.00Z  
1826.6674   66400   43.7823  -69.7883  3.0      8.1    1.156      7.931      1017.7        428.645144    416.574275    nd            nd            -0.800000     2008-01-16T18:26:40.04Z  
1827.0000   66420   43.7837  -69.7882  4.0      8.1    1.125      7.574      1017.7        435.176472    422.928914    nd            nd            -0.800000     2008-01-16T18:27:00.00Z  
1827.3326   66440   43.7852  -69.7880  6.0      8.1    1.088      7.321      1017.7        443.714610    431.229866    nd            nd            -0.800000     2008-01-16T18:27:19.96Z  
1827.6667   66460   43.7866  -69.7878  4.0      8.2    1.046      6.993      1017.7        452.681627    439.947824    394.310584    389.721177    -0.800000     2008-01-16T18:27:40.00Z  
1827.9994   66480   43.7881  -69.7876  6.0      8.2    1.028      6.809      1017.7        461.629286    448.646782    394.577384    389.986004    -0.800000     2008-01-16T18:27:59.96Z  
1828.3334   66500   43.7896  -69.7874  6.0      8.2    1.011      6.597      1017.7        471.084622    457.839223    394.443052    389.855755    -0.800000     2008-01-16T18:28:20.00Z  
1828.6661   66520   43.7910  -69.7872  4.0      8.1    0.991      6.451      1017.7        479.730879    466.241821    394.419269    389.832747    -0.800000     2008-01-16T18:28:39.97Z  
1829.0002   66540   43.7925  -69.7871  2.0      8.1    0.973      6.315      1017.7        488.235607    474.506966    nd            nd            -0.800000     2008-01-16T18:29:00.01Z  
1829.3328   66560   43.7939  -69.7870  3.0      8.1    0.952      6.138      1017.7        495.362594    481.439488    nd            nd            -0.800000     2008-01-16T18:29:19.97Z  
1829.6669   66580   43.7954  -69.7867  6.0      8.2    0.926      5.875      1017.7        502.264063    488.144058    nd            nd            -0.800000     2008-01-16T18:29:40.01Z  
1829.9995   66600   43.7969  -69.7866  62.0     8.2    0.898      5.678      1017.7        509.122129    494.815204    nd            nd            -0.800000     2008-01-16T18:29:59.97Z  
1830.3336   66620   43.7983  -69.7867  353.0    8.1    0.873      5.536      1017.7        516.816766    502.307981    394.478619    389.910398    -0.800000     2008-01-16T18:30:20.02Z  
1830.6662   66640   43.7998  -69.7870  351.0    8.1    0.847      5.378      1017.7        524.334876    509.624031    nd            nd            -0.800000     2008-01-16T18:30:39.97Z  
1831.0003   66660   43.8012  -69.7873  349.0    8.1    0.818      5.228      1017.7        531.608896    516.697954    nd            nd            -0.800000     2008-01-16T18:31:00.02Z  
1831.3330   66680   43.8026  -69.7878  341.0    8.1    0.791      4.994      1017.7        538.521599    523.413460    nd            nd            -0.800000     2008-01-16T18:31:19.98Z  
1831.6670   66700   43.8039  -69.7888  326.0    8.0    0.770      4.859      1017.7        545.352788    530.044159    nd            nd            -0.800000     2008-01-16T18:31:40.02Z  
1831.9997   66720   43.8050  -69.7899  320.0    7.9    0.747      4.782      1017.7        552.935811    537.414547    nd            nd            -0.800000     2008-01-16T18:31:59.98Z  
1832.3338   66740   43.8060  -69.7913  314.0    7.9    0.731      4.604      1017.7        560.073699    544.359585    nd            nd            -0.800000     2008-01-16T18:32:20.03Z  
1832.6664   66760   43.8070  -69.7927  312.0    7.9    0.714      4.423      1017.7        566.618630    550.723710    nd            nd            -0.800000     2008-01-16T18:32:39.98Z  
1833.0005   66780   43.8080  -69.7941  315.0    7.5    0.703      4.269      1017.6        573.340365    557.247242    nd            nd            -0.800000     2008-01-16T18:33:00.03Z  
1833.3331   66800   43.8087  -69.7954  305.0    6.0    0.692      4.166      1017.7        580.452807    564.173936    nd            nd            -0.800000     2008-01-16T18:33:19.99Z  
1833.6672   66820   43.8094  -69.7965  312.0    6.0    0.674      3.976      1017.7        587.443881    570.963932    nd            nd            -0.800000     2008-01-16T18:33:40.03Z  
1833.9998   66840   43.8101  -69.7976  312.0    6.0    0.660      3.801      1017.6        594.303303    577.623430    nd            nd            -0.800000     2008-01-16T18:33:59.99Z  
1834.3339   66860   43.8110  -69.7988  320.0    7.2    0.642      3.652      1017.7        601.180646    584.333129    nd            nd            -0.800000     2008-01-16T18:34:20.03Z  
1834.6666   66880   43.8121  -69.8000  318.0    8.0    0.627      3.530      1017.7        608.711809    591.657831    nd            nd            -0.800000     2008-01-16T18:34:40.00Z  
1835.0006   66900   43.8131  -69.8014  318.0    8.0    0.618      3.440      1017.7        615.311621    598.065906    nd            nd            -0.800000     2008-01-16T18:35:00.04Z  
1835.3333   66920   43.8142  -69.8027  318.0    8.1    0.604      3.385      1017.7        621.551806    604.130257    nd            nd            -0.800000     2008-01-16T18:35:20.00Z  
1835.6674   66940   43.8154  -69.8039  333.0    8.1    0.595      3.296      1017.7        627.354631    609.794101    394.615366    390.076319    -0.800000     2008-01-16T18:35:40.04Z  
1836.0000   66960   43.8168  -69.8042  140.0    8.1    0.590      3.147      1017.7        631.969747    614.263788    394.863080    390.318068    -0.800000     2008-01-16T18:36:00.00Z  
1836.3326   66980   43.8183  -69.8041  101.0    8.1    0.577      3.042      1017.6        636.536500    618.694263    nd            nd            -0.800000     2008-01-16T18:36:19.96Z  
1836.6667   67000   43.8197  -69.8040  200.0    8.2    0.561      2.886      1017.7        641.647119    623.675640    394.033316    389.492610    -0.800000     2008-01-16T18:36:40.00Z  
1836.9994   67020   43.8212  -69.8040  44.0     8.3    0.550      2.695      1017.7        647.129805    629.004545    nd            nd            -0.800000     2008-01-16T18:36:59.96Z  
1837.3334   67040   43.8227  -69.8037  11.0     8.2    0.549      2.523      1017.7        652.677519    634.395327    nd            nd            -0.800000     2008-01-16T18:37:20.00Z  
1837.6661   67060   43.8240  -69.8030  26.0     8.2    0.535      2.401      1017.7        658.543714    640.105666    nd            nd            -0.800000     2008-01-16T18:37:39.97Z  
1838.0002   67080   43.8253  -69.8020  31.0     8.3    0.533      2.347      1017.7        664.687833    646.088998    394.255969    389.724015    -0.800000     2008-01-16T18:38:00.01Z  
1838.3328   67100   43.8266  -69.8009  31.0     8.3    0.520      2.122      1017.7        670.295616    651.536469    394.135201    389.602064    -0.800000     2008-01-16T18:38:19.97Z  
1838.6669   67120   43.8279  -69.7999  28.0     8.3    0.506      1.938      1017.7        676.077594    657.153444    394.155137    389.619851    -0.800000     2008-01-16T18:38:40.01Z  
1838.9995   67140   43.8292  -69.7988  32.0     8.2    0.487      1.822      1017.7        682.915273    663.801235    394.167998    389.633309    -0.800000     2008-01-16T18:38:59.97Z  
1839.3336   67160   43.8305  -69.7977  29.0     8.2    0.475      1.734      1017.6        689.539966    670.242986    394.142288    389.609265    -0.800000     2008-01-16T18:39:20.02Z  
1839.6662   67180   43.8318  -69.7970  13.0     8.3    0.475      1.681      1017.6        695.657231    676.185021    394.334914    389.798349    -0.800000     2008-01-16T18:39:39.97Z  
1840.0003   67200   43.8333  -69.7966  10.0     8.3    0.473      1.598      1017.6        700.876781    681.251330    nd            nd            -0.800000     2008-01-16T18:40:00.02Z  
1840.3330   67220   43.8348  -69.7963  9.0      8.3    0.475      1.475      1017.6        705.905459    686.129357    nd            nd            -0.800000     2008-01-16T18:40:19.98Z  
1840.6670   67240   43.8362  -69.7959  9.0      8.3    0.474      1.372      1017.6        709.813091    689.924588    nd            nd            -0.800000     2008-01-16T18:40:40.02Z  
1840.9997   67260   43.8377  -69.7956  10.0     8.3    0.480      1.300      1017.7        713.781307    693.809252    nd            nd            -0.800000     2008-01-16T18:40:59.98Z  
1841.3338   67280   43.8392  -69.7952  9.0      8.3    0.486      1.237      1017.7        717.662737    697.597794    nd            nd            -0.800000     2008-01-16T18:41:20.03Z  
1841.6664   67300   43.8407  -69.7949  7.0      8.3    0.478      1.169      1017.7        721.589539    701.407680    nd            nd            -0.800000     2008-01-16T18:41:39.98Z  
1842.0005   67320   43.8421  -69.7946  6.0      8.3    0.475      1.134      1017.7        725.326449    705.035129    nd            nd            -0.800000     2008-01-16T18:42:00.03Z  
1842.3331   67340   43.8436  -69.7945  3.0      8.2    0.468      1.087      1017.6        728.450118    708.061050    nd            nd            -0.800000     2008-01-16T18:42:19.99Z  
1842.6672   67360   43.8451  -69.7944  140.0    8.2    0.460      0.991      1017.6        731.188134    710.710860    nd            nd            -0.800000     2008-01-16T18:42:40.03Z  
1842.9998   67380   43.8466  -69.7945  353.0    8.2    0.443      0.908      1017.6        733.587649    713.042181    nd            nd            -0.800000     2008-01-16T18:42:59.99Z  
1843.3339   67400   43.8480  -69.7948  352.0    8.1    0.413      0.794      1017.6        736.018321    715.434124    nd            nd            -0.800000     2008-01-16T18:43:20.03Z  
1843.6666   67420   43.8495  -69.7951  350.0    8.2    0.392      0.701      1017.7        738.710363    718.059916    394.066238    389.545608    -0.800000     2008-01-16T18:43:40.00Z  
1844.0006   67440   43.8508  -69.7954  355.0    6.7    0.375      0.661      1017.6        741.487676    720.752367    394.342387    389.817705    -0.800000     2008-01-16T18:44:00.04Z  
1844.3333   67460   43.8518  -69.7954  219.0    4.6    0.370      0.602      1017.6        743.875649    723.060246    nd            nd            -0.800000     2008-01-16T18:44:20.00Z  
1844.6674   67480   43.8523  -69.7954  332.0    1.9    0.360      0.548      1017.6        746.203001    725.318341    nd            nd            -0.800000     2008-01-16T18:44:40.04Z  
1845.0000   67500   43.8525  -69.7955  329.0    0.7    0.348      0.491      1017.6        747.988979    727.055213    nd            nd            -0.800000     2008-01-16T18:45:00.00Z  
1845.3326   67520   43.8526  -69.7956  331.0    0.3    0.341      0.425      1017.6        749.390647    728.423305    nd            nd            -0.800000     2008-01-16T18:45:19.96Z  
1845.6667   67540   43.8526  -69.7956  197.0    0.1    0.350      0.395      1017.6        750.712771    729.720061    nd            nd            -0.800000     2008-01-16T18:45:40.00Z  
1845.9994   67560   43.8526  -69.7956  323.0    0.0    0.351      0.379      1017.6        751.987894    730.962669    nd            nd            -0.800000     2008-01-16T18:45:59.96Z  
1846.3334   67580   43.8526  -69.7956  264.0    0.0    0.337      0.376      1017.6        753.002947    731.955877    nd            nd            -0.800000     2008-01-16T18:46:20.00Z  
1846.6661   67600   43.8526  -69.7956  191.0    0.1    0.315      0.395      1017.6        754.008739    732.949147    nd            nd            -0.800000     2008-01-16T18:46:39.97Z  
1847.0002   67620   43.8526  -69.7956  170.0    0.1    0.303      0.436      1017.7        754.713231    733.661816    nd            nd            -0.800000     2008-01-16T18:47:00.01Z  
1847.3328   67640   43.8526  -69.7956  156.0    0.1    0.293      0.459      1017.7        755.212769    734.161866    nd            nd            -0.800000     2008-01-16T18:47:19.97Z  
1847.6669   67660   43.8525  -69.7956  148.0    0.2    0.272      0.471      1017.7        755.651017    734.591498    nd            nd            -0.800000     2008-01-16T18:47:40.01Z  
1847.9995   67680   43.8525  -69.7955  142.0    0.1    0.254      0.523      1017.7        755.810002    734.736940    nd            nd            -0.800000     2008-01-16T18:47:59.97Z  
1848.3336   67700   43.8525  -69.7955  145.0    0.1    0.243      0.561      1017.7        755.676503    734.604052    nd            nd            -0.800000     2008-01-16T18:48:20.02Z  
1848.6662   67720   43.8524  -69.7955  140.0    0.2    0.228      0.505      1017.7        755.191712    734.128396    nd            nd            -0.800000     2008-01-16T18:48:39.97Z  
1849.0003   67740   43.8524  -69.7955  142.0    0.2    0.230      0.515      1017.6        754.446626    733.402712    nd            nd            -0.800000     2008-01-16T18:49:00.02Z  
1849.3330   67760   43.8524  -69.7954  141.0    0.2    0.238      0.566      1017.7        754.479121    733.450545    nd            nd            -0.800000     2008-01-16T18:49:19.98Z  
1849.6670   67780   43.8524  -69.7954  132.0    0.2    0.226      0.552      1017.7        754.479189    733.457582    nd            nd            -0.800000     2008-01-16T18:49:40.02Z  
1849.9997   67800   43.8523  -69.7953  129.0    0.1    0.237      0.538      1017.7        754.208913    733.200560    nd            nd            -0.800000     2008-01-16T18:49:59.98Z  
1850.3338   67820   43.8523  -69.7953  137.0    0.1    0.269      0.519      1017.7        754.177076    733.170898    nd            nd            -0.800000     2008-01-16T18:50:20.03Z  
1850.6664   67840   43.8523  -69.7953  137.0    0.2    0.281      0.539      1017.7        754.238731    733.222857    nd            nd            -0.800000     2008-01-16T18:50:39.98Z  
1851.0005   67860   43.8522  -69.7952  119.0    0.2    0.256      0.557      1017.7        754.422330    733.403614    nd            nd            -0.800000     2008-01-16T18:51:00.03Z  
1851.3331   67880   43.8522  -69.7952  169.0    0.9    0.242      0.556      1017.7        754.532781    733.517082    nd            nd            -0.800000     2008-01-16T18:51:19.99Z  
1851.6672   67900   43.8518  -69.7953  190.0    2.3    0.244      0.527      1017.7        754.641887    733.634065    nd            nd            -0.800000     2008-01-16T18:51:40.03Z  
1851.9998   67920   43.8513  -69.7953  174.0    3.0    0.250      0.514      1017.7        754.429915    733.441333    nd            nd            -0.800000     2008-01-16T18:51:59.99Z  
1852.3339   67940   43.8508  -69.7951  164.0    3.1    0.252      0.581      1017.7        754.614324    733.624787    nd            nd            -0.800000     2008-01-16T18:52:20.03Z  
1852.6666   67960   43.8502  -69.7948  149.0    3.8    0.249      0.532      1017.7        755.150726    734.146950    nd            nd            -0.800000     2008-01-16T18:52:40.00Z  
1853.0006   67980   43.8495  -69.7942  159.0    5.2    0.250      0.467      1017.7        755.947282    734.917911    nd            nd            -0.800000     2008-01-16T18:53:00.04Z  
1853.3333   68000   43.8485  -69.7941  179.0    6.1    0.246      0.537      1017.7        755.445962    734.413900    nd            nd            -0.800000     2008-01-16T18:53:20.00Z  
1853.6674   68020   43.8474  -69.7941  182.0    6.2    0.241      0.576      1017.7        754.843135    733.838744    nd            nd            -0.800000     2008-01-16T18:53:40.04Z  
1854.0000   68040   43.8461  -69.7942  180.0    8.2    0.249      0.589      1017.7        753.778081    732.814282    nd            nd            -0.800000     2008-01-16T18:54:00.00Z  
1854.3326   68060   43.8445  -69.7942  181.0    8.7    0.260      0.605      1017.7        752.928183    731.972358    nd            nd            -0.800000     2008-01-16T18:54:19.96Z  
1854.6667   68080   43.8429  -69.7943  186.0    8.7    0.272      0.588      1017.7        752.321899    731.385572    nd            nd            -0.800000     2008-01-16T18:54:40.00Z  
1854.9994   68100   43.8414  -69.7947  193.0    8.6    0.276      0.609      1017.7        751.947769    731.028371    nd            nd            -0.800000     2008-01-16T18:54:59.96Z  
1855.3334   68120   43.8399  -69.7950  189.0    8.6    0.288      0.658      1017.8        751.878152    730.963761    nd            nd            -0.800000     2008-01-16T18:55:20.00Z  
1855.6661   68140   43.8383  -69.7955  193.0    8.7    0.303      0.749      1017.8        751.659930    730.757189    nd            nd            -0.800000     2008-01-16T18:55:39.97Z  
1856.0002   68160   43.8368  -69.7959  193.0    8.6    0.309      0.859      1017.8        751.145259    730.257688    nd            nd            -0.800000     2008-01-16T18:56:00.01Z  
1856.3328   68180   43.8353  -69.7964  192.0    8.7    0.315      0.981      1017.8        750.235301    729.368908    nd            nd            -0.800000     2008-01-16T18:56:19.97Z  
1856.6669   68200   43.8337  -69.7968  187.0    8.7    0.317      1.046      1017.8        748.378130    727.556893    nd            nd            -0.800000     2008-01-16T18:56:40.01Z  
1856.9995   68220   43.8322  -69.7971  190.0    8.7    0.318      1.132      1017.7        746.120649    725.352621    nd            nd            -0.800000     2008-01-16T18:56:59.97Z  
1857.3336   68240   43.8307  -69.7977  199.0    8.7    0.323      1.176      1017.8        743.748049    723.049399    nd            nd            -0.800000     2008-01-16T18:57:20.02Z  
1857.6662   68260   43.8293  -69.7987  212.0    8.7    0.325      1.253      1017.8        741.428159    720.799828    nd            nd            -0.800000     2008-01-16T18:57:39.97Z  
1858.0003   68280   43.8280  -69.8000  217.0    8.7    0.321      1.333      1017.8        739.259451    718.692272    nd            nd            -0.800000     2008-01-16T18:58:00.02Z  
1858.3330   68300   43.8268  -69.8012  216.0    8.4    0.314      1.422      1017.8        736.789981    716.289313    nd            nd            -0.800000     2008-01-16T18:58:19.98Z  
1858.6670   68320   43.8255  -69.8024  210.0    8.5    0.318      1.544      1017.8        734.178704    713.754614    395.207145    390.729016    -0.800000     2008-01-16T18:58:40.02Z  
1858.9997   68340   43.8241  -69.8032  199.0    8.6    0.333      1.642      1017.8        731.512081    711.160280    395.269539    390.789050    -0.800000     2008-01-16T18:58:59.98Z  
1859.3338   68360   43.8226  -69.8038  193.0    8.7    0.340      2.028      1018.2        728.122124    708.140711    394.994705    390.669502    -0.800000     2008-01-16T18:59:20.03Z  
1859.6506   68379   43.8211  -69.8041  185.0    8.7    0.339      2.282      1018.6        724.601927    705.005249    394.580994    390.419715    -0.800000     2008-01-16T18:59:39.04Z  
1900.0005   68400   43.8194  -69.8042  180.0    8.7    0.345      2.260      1018.6        718.338974    698.910041    394.486549    390.324937    -0.500000     2008-01-16T19:00:00.03Z  
1900.3331   68420   43.8179  -69.8042  175.0    8.7    0.351      2.161      1018.6        710.981402    691.749552    394.536219    390.373581    -0.200000     2008-01-16T19:00:19.99Z  
1900.6672   68440   43.8163  -69.8038  166.0    8.7    0.363      2.235      1018.6        705.667951    686.576564    394.450168    390.286716    -0.200000     2008-01-16T19:00:40.03Z  
1900.9998   68460   43.8148  -69.8032  163.0    8.7    0.382      2.414      1018.6        702.392526    683.385156    394.354879    390.189837    -0.200000     2008-01-16T19:00:59.99Z  
1901.3339   68480   43.8134  -69.8021  140.0    8.8    0.401      2.505      1018.6        699.282040    680.353662    394.260313    390.093763    -0.200000     2008-01-16T19:01:20.03Z  
1901.6666   68500   43.8123  -69.8006  133.0    8.8    0.417      2.651      1018.6        695.053003    676.235197    394.494850    390.323106    -0.200000     2008-01-16T19:01:40.00Z  
1902.0006   68520   43.8112  -69.7989  132.0    8.9    0.428      2.788      1018.6        690.749925    672.045975    394.424566    390.252178    -0.200000     2008-01-16T19:02:00.04Z  
1902.3333   68540   43.8101  -69.7973  134.0    8.9    0.444      2.994      1018.6        685.795661    667.221818    394.177007    390.005035    -0.200000     2008-01-16T19:02:20.00Z  
1902.6674   68560   43.8090  -69.7958  138.0    9.0    0.467      3.191      1018.6        680.298382    661.867745    394.218298    390.042570    -0.200000     2008-01-16T19:02:40.04Z  
1903.0000   68580   43.8076  -69.7945  147.0    9.0    0.487      3.346      1018.6        674.051840    655.785585    394.289604    390.110332    -0.200000     2008-01-16T19:03:00.00Z  
1903.3326   68600   43.8062  -69.7933  149.0    9.0    0.510      3.506      1018.6        667.223677    649.136657    394.061531    389.881237    -0.200000     2008-01-16T19:03:19.96Z  
1903.6667   68620   43.8048  -69.7922  149.0    8.9    0.524      3.543      1018.6        660.364874    642.460187    394.040627    389.858431    -0.200000     2008-01-16T19:03:40.00Z  
1903.9994   68640   43.8035  -69.7910  146.0    8.8    0.536      3.638      1018.6        653.517768    635.795815    393.995130    389.811637    -0.200000     2008-01-16T19:03:59.96Z  
1904.3334   68660   43.8022  -69.7897  145.0    8.8    0.551      3.800      1018.6        648.089244    630.510921    393.944177    389.759118    -0.200000     2008-01-16T19:04:20.00Z  
1904.6661   68680   43.8007  -69.7887  152.0    8.9    0.564      3.966      1018.6        642.873767    625.433916    394.053742    389.865669    -0.200000     2008-01-16T19:04:39.97Z  
1905.0002   68700   43.7993  -69.7876  153.0    8.8    0.583      4.231      1018.6        637.511907    620.213388    394.146615    389.955058    -0.200000     2008-01-16T19:05:00.01Z  
1905.3328   68720   43.7979  -69.7869  163.0    8.7    0.605      4.469      1018.6        631.771881    614.624142    394.151093    389.956423    -0.200000     2008-01-16T19:05:19.97Z  
1905.6669   68740   43.7963  -69.7867  182.0    8.6    0.617      4.674      1018.6        624.604425    607.648515    393.908641    389.714792    -0.200000     2008-01-16T19:05:40.01Z  
1905.9995   68760   43.7948  -69.7868  181.0    8.6    0.633      4.848      1018.6        616.560260    599.819180    394.194182    389.995065    -0.200000     2008-01-16T19:05:59.97Z  
1906.3336   68780   43.7932  -69.7869  183.0    8.7    0.650      5.176      1018.6        608.464387    591.939613    394.121501    389.920947    -0.200000     2008-01-16T19:06:20.02Z  
1906.6662   68800   43.7916  -69.7870  183.0    8.7    0.689      5.553      1018.6        600.680253    584.358351    393.962793    389.759354    -0.200000     2008-01-16T19:06:39.97Z  
1907.0003   68820   43.7901  -69.7872  185.0    8.7    0.713      5.658      1018.6        590.649620    574.594700    394.378682    390.165993    -0.200000     2008-01-16T19:07:00.02Z  
1907.3330   68840   43.7885  -69.7874  185.0    8.7    0.736      5.808      1018.6        579.634448    563.874033    394.066508    389.854009    -0.200000     2008-01-16T19:07:19.98Z  
1907.6670   68860   43.7869  -69.7876  187.0    8.7    0.770      5.986      1018.6        569.856809    554.354673    394.200924    389.981899    -0.200000     2008-01-16T19:07:40.02Z  
1907.9997   68880   43.7854  -69.7879  186.0    8.7    0.788      6.150      1018.6        561.148494    545.879501    393.909919    389.691128    -0.200000     2008-01-16T19:07:59.98Z  
1908.3338   68900   43.7838  -69.7882  189.0    8.8    0.811      6.408      1018.6        553.380781    538.318556    394.138617    389.914280    -0.200000     2008-01-16T19:08:20.03Z  
1908.6664   68920   43.7822  -69.7885  185.0    8.8    0.838      6.893      1018.6        545.649787    530.792845    394.218337    389.989492    -0.200000     2008-01-16T19:08:39.98Z  
1909.0005   68940   43.7806  -69.7886  183.0    8.8    0.892      7.316      1018.6        537.509160    522.862861    393.983596    389.749317    -0.200000     2008-01-16T19:09:00.03Z  
1909.3331   68960   43.7790  -69.7888  182.0    8.7    0.919      7.188      1018.6        526.959393    512.594572    394.044209    389.804756    -0.200000     2008-01-16T19:09:19.99Z  
1909.6672   68980   43.7775  -69.7884  163.0    8.6    0.929      7.067      1018.6        515.500056    501.445299    394.086217    389.844538    -0.200000     2008-01-16T19:09:40.03Z  
1909.9998   69000   43.7760  -69.7879  165.0    8.6    0.968      7.507      1018.6        508.213805    494.350376    394.191482    389.943052    -0.200000     2008-01-16T19:09:59.99Z  
1910.3339   69020   43.7745  -69.7873  163.0    8.7    1.012      7.924      1018.6        503.898186    490.144232    394.256139    390.000651    -0.200000     2008-01-16T19:10:20.03Z  
1910.6666   69040   43.7730  -69.7867  165.0    8.8    1.066      8.415      1018.6        497.115158    483.536020    394.030516    389.769440    -0.200000     2008-01-16T19:10:40.00Z  
1911.0006   69060   43.7714  -69.7861  164.0    8.8    1.131      8.875      1018.6        488.681661    475.320568    394.168958    389.896536    -0.200000     2008-01-16T19:11:00.04Z  
1911.3333   69080   43.7699  -69.7857  170.0    8.5    1.176      9.058      1018.6        478.425510    465.336127    394.154352    389.874932    -0.200000     2008-01-16T19:11:20.00Z  
1911.6674   69100   43.7684  -69.7852  165.0    8.4    1.222      9.504      1018.6        467.698809    454.894727    394.066148    389.781111    -0.200000     2008-01-16T19:11:40.04Z  
1912.0000   69120   43.7670  -69.7848  169.0    8.4    1.290      10.544     1018.6        458.421495    445.860108    393.977591    389.683595    -0.200000     2008-01-16T19:12:00.00Z  
1912.3326   69140   43.7654  -69.7844  170.0    8.7    1.427      12.314     1018.6        448.955870    436.630671    394.156919    389.842866    -0.200000     2008-01-16T19:12:19.96Z  
1912.6667   69160   43.7639  -69.7844  183.0    8.8    1.583      13.969     1018.6        436.668638    424.654580    nd            nd            -0.200000     2008-01-16T19:12:40.00Z  
1912.9994   69180   43.7623  -69.7845  183.0    8.8    1.675      13.580     1018.6        420.283513    408.703038    394.018585    389.664869    -0.200000     2008-01-16T19:12:59.96Z  
1913.3334   69200   43.7607  -69.7845  175.0    8.9    1.654      12.810     1018.6        404.427608    393.286475    394.261662    389.907460    -0.200000     2008-01-16T19:13:20.00Z  
1913.6661   69220   43.7591  -69.7842  168.0    8.8    1.638      12.437     1018.6        392.820976    382.001788    393.941294    389.592957    -0.200000     2008-01-16T19:13:39.97Z  
1914.0002   69240   43.7577  -69.7835  156.0    8.5    1.623      12.099     1018.6        386.341440    375.702759    394.013681    389.666489    -0.200000     2008-01-16T19:14:00.01Z  
1914.3328   69260   43.7563  -69.7827  157.0    8.3    1.609      12.172     1018.6        383.031100    372.486074    394.010408    389.665718    -0.200000     2008-01-16T19:14:19.97Z  
1914.6669   69280   43.7549  -69.7819  153.0    8.3    1.668      13.609     1018.6        381.700177    371.183999    394.020744    389.667936    -0.200000     2008-01-16T19:14:40.01Z  
1914.9995   69300   43.7536  -69.7809  154.0    8.7    1.823      15.365     1018.6        380.415918    369.911979    394.030418    389.653879    -0.200000     2008-01-16T19:14:59.97Z  
1915.3336   69320   43.7521  -69.7799  150.0    8.9    1.928      15.779     1018.6        376.547515    366.133741    393.943346    389.550596    -0.200000     2008-01-16T19:15:20.02Z  
1915.6662   69340   43.7508  -69.7788  148.0    8.8    1.994      15.937     1018.6        370.455061    360.199284    394.097305    389.691849    -0.200000     2008-01-16T19:15:39.97Z  
1916.0003   69360   43.7495  -69.7776  145.0    8.3    2.003      15.388     1018.6        364.944026    354.838614    393.931591    389.525661    -0.200000     2008-01-16T19:16:00.02Z  
1916.3330   69380   43.7483  -69.7764  143.0    8.5    1.969      14.911     1018.6        361.088443    351.094643    393.962982    389.561859    -0.200000     2008-01-16T19:16:19.98Z  
1916.6670   69400   43.7471  -69.7751  139.0    8.2    2.049      17.138     1018.6        358.842606    348.901234    394.069068    389.655398    -0.200000     2008-01-16T19:16:40.02Z  
1916.9997   69420   43.7460  -69.7738  137.0    8.3    2.353      19.964     1018.6        357.806921    347.849469    394.030211    389.568919    -0.200000     2008-01-16T19:16:59.98Z  
1917.3338   69440   43.7449  -69.7723  135.0    8.6    2.419      18.876     1018.6        357.048042    347.099644    393.872062    389.399545    -0.200000     2008-01-16T19:17:20.03Z  
1917.6664   69460   43.7438  -69.7707  134.0    8.7    2.579      21.776     1018.6        356.800961    346.837441    393.702717    389.212112    -0.200000     2008-01-16T19:17:39.98Z  
1918.0005   69480   43.7427  -69.7691  131.0    8.6    2.839      23.521     1018.6        356.190096    346.203358    393.989211    389.447086    -0.200000     2008-01-16T19:18:00.03Z  
1918.3331   69500   43.7417  -69.7675  128.0    8.8    2.932      22.580     1018.6        358.160809    348.101922    393.934818    389.375428    -0.200000     2008-01-16T19:18:19.99Z  
1918.6672   69520   43.7406  -69.7659  143.0    8.8    2.845      20.643     1018.6        361.824371    351.674495    394.040118    389.492599    -0.200000     2008-01-16T19:18:40.03Z  
1918.9998   69540   43.7391  -69.7652  169.0    8.8    2.838      22.039     1018.6        364.114266    353.903378    393.963069    389.419132    -0.200000     2008-01-16T19:18:59.99Z  
1919.3339   69560   43.7376  -69.7649  175.0    8.8    2.824      21.084     1018.6        364.047525    353.839440    394.022373    389.479425    -0.200000     2008-01-16T19:19:20.03Z  
1919.6666   69580   43.7360  -69.7647  174.0    8.9    2.689      19.709     1018.6        364.633550    354.429888    394.060283    389.539016    -0.200000     2008-01-16T19:19:40.00Z  
1920.0006   69600   43.7344  -69.7645  174.0    8.9    2.602      19.285     1018.6        364.206201    354.028432    393.982243    389.476713    -0.200000     2008-01-16T19:20:00.04Z  
1920.3333   69620   43.7328  -69.7642  171.0    8.9    2.578      19.601     1018.6        362.204099    352.086806    394.031488    389.530036    -0.200000     2008-01-16T19:20:20.00Z  
1920.6674   69640   43.7312  -69.7639  172.0    9.0    2.609      20.419     1018.6        359.870224    349.814175    394.061887    389.555642    -0.200000     2008-01-16T19:20:40.04Z  
1921.0000   69660   43.7296  -69.7637  175.0    9.0    2.684      21.534     1018.6        357.932786    347.920010    393.599653    389.080744    -0.200000     2008-01-16T19:21:00.00Z  
1921.3326   69680   43.7279  -69.7638  192.0    9.1    2.758      22.234     1018.6        357.159045    347.156740    393.954187    389.425180    -0.200000     2008-01-16T19:21:19.96Z  
1921.6667   69700   43.7264  -69.7645  199.0    9.1    2.802      22.491     1018.6        357.669167    347.645568    393.995954    389.458931    -0.200000     2008-01-16T19:21:40.00Z  
1921.9994   69720   43.7248  -69.7654  204.0    9.1    2.833      22.938     1018.6        359.006548    348.941015    394.094700    389.551651    -0.200000     2008-01-16T19:21:59.96Z  
1922.3334   69740   43.7235  -69.7666  219.0    9.1    2.882      23.297     1018.6        360.524353    350.408581    393.915999    389.367601    -0.200000     2008-01-16T19:22:20.00Z  
1922.6661   69760   43.7223  -69.7681  225.0    9.1    2.933      23.508     1018.6        362.390280    352.213656    393.997793    389.436799    -0.200000     2008-01-16T19:22:39.97Z  
1923.0002   69780   43.7212  -69.7698  228.0    9.1    2.962      23.609     1018.6        364.264472    354.030413    nd            nd            -0.200000     2008-01-16T19:23:00.01Z  
1923.3328   69800   43.7201  -69.7716  229.0    9.2    2.988      23.706     1018.6        366.192307    355.899854    nd            nd            -0.200000     2008-01-16T19:23:19.97Z  
1923.6669   69820   43.7190  -69.7733  228.0    9.2    3.003      23.737     1018.6        367.740722    357.402127    nd            nd            -0.200000     2008-01-16T19:23:40.01Z  
1923.9995   69840   43.7179  -69.7750  228.0    9.3    3.022      23.876     1018.6        368.963005    358.586977    nd            nd            -0.200000     2008-01-16T19:23:59.97Z  
1924.3336   69860   43.7168  -69.7767  227.0    9.3    3.042      23.933     1018.6        369.989150    359.580842    nd            nd            -0.200000     2008-01-16T19:24:20.02Z  
1924.6662   69880   43.7156  -69.7784  226.0    9.3    3.008      23.024     1018.6        371.011778    360.579366    393.668379    389.100722    -0.200000     2008-01-16T19:24:39.97Z  
1925.0003   69900   43.7144  -69.7800  224.0    9.3    2.943      22.419     1018.6        371.679510    361.238723    393.834918    389.271164    -0.200000     2008-01-16T19:25:00.02Z  
1925.3330   69920   43.7132  -69.7816  224.0    9.3    2.934      22.617     1018.6        371.327989    360.898988    nd            nd            -0.200000     2008-01-16T19:25:19.98Z  
1925.6670   69940   43.7120  -69.7833  224.0    9.3    2.969      23.151     1018.6        369.655237    359.267859    393.775923    389.214404    -0.200000     2008-01-16T19:25:40.02Z  
1925.9997   69960   43.7108  -69.7849  223.0    9.3    3.013      23.457     1018.6        368.564025    358.200139    nd            nd            -0.200000     2008-01-16T19:25:59.98Z  
1926.3338   69980   43.7096  -69.7865  223.0    9.4    3.058      23.773     1018.6        368.489914    358.120744    393.920152    389.337016    -0.200000     2008-01-16T19:26:20.03Z  
1926.6664   70000   43.7083  -69.7881  222.0    9.4    3.094      23.821     1018.6        368.938007    358.550051    394.075724    389.488819    -0.200000     2008-01-16T19:26:39.98Z  
1927.0005   70020   43.7071  -69.7896  222.0    9.4    3.117      23.930     1018.6        369.985861    359.564593    nd            nd            -0.200000     2008-01-16T19:27:00.03Z  
1927.3331   70040   43.7058  -69.7912  221.0    9.4    3.138      24.063     1018.6        371.001903    360.548352    nd            nd            -0.200000     2008-01-16T19:27:19.99Z  
1927.6672   70060   43.7045  -69.7927  221.0    9.4    3.166      24.275     1018.6        371.851426    361.369339    393.643288    389.044206    -0.200000     2008-01-16T19:27:40.03Z  
1927.9998   70080   43.7033  -69.7943  222.0    9.3    3.214      24.593     1018.6        372.835859    362.318072    393.856206    389.248343    -0.200000     2008-01-16T19:27:59.99Z  
1928.3339   70100   43.7020  -69.7958  220.0    9.4    3.246      24.622     1018.6        373.859441    363.307083    393.823405    389.210368    -0.200000     2008-01-16T19:28:20.03Z  
1928.6666   70120   43.7007  -69.7973  219.0    9.4    3.289      24.991     1018.6        375.291549    364.691623    nd            nd            -0.200000     2008-01-16T19:28:40.00Z  
1929.0006   70140   43.6994  -69.7988  221.0    9.4    3.339      25.225     1018.6        376.489158    365.846646    nd            nd            -0.200000     2008-01-16T19:29:00.04Z  
1929.3333   70160   43.6981  -69.8003  219.0    9.4    3.384      25.448     1018.6        377.998176    367.305089    nd            nd            -0.200000     2008-01-16T19:29:20.00Z  
1929.6674   70180   43.6968  -69.8018  218.0    9.2    3.407      25.544     1018.6        379.706309    368.960888    nd            nd            -0.200000     2008-01-16T19:29:40.04Z  
1930.0000   70200   43.6955  -69.8032  219.0    9.2    3.419      25.469     1018.6        381.584915    370.784003    nd            nd            -0.200000     2008-01-16T19:30:00.00Z  
1930.3326   70220   43.6942  -69.8047  220.0    9.2    3.416      25.489     1018.6        383.137330    372.292955    nd            nd            -0.200000     2008-01-16T19:30:19.96Z  
1930.6667   70240   43.6930  -69.8062  223.0    9.1    3.412      25.481     1018.6        384.103690    373.232693    nd            nd            -0.200000     2008-01-16T19:30:40.00Z  
1930.9994   70260   43.6918  -69.8078  223.0    9.1    3.471      25.684     1018.6        384.900510    373.996290    nd            nd            -0.200000     2008-01-16T19:30:59.96Z  
1931.3334   70280   43.6906  -69.8093  221.0    9.1    3.470      26.058     1018.6        385.426978    374.508746    393.669248    389.016632    -0.200000     2008-01-16T19:31:20.00Z  
1931.6661   70300   43.6894  -69.8109  226.0    9.0    3.494      26.217     1018.6        386.493584    375.540743    393.823168    389.166725    -0.200000     2008-01-16T19:31:39.97Z  
1932.0002   70320   43.6883  -69.8125  226.0    9.1    3.490      25.995     1018.6        387.568932    376.585995    393.899828    389.241656    -0.200000     2008-01-16T19:32:00.01Z  
1932.3328   70340   43.6871  -69.8141  222.0    9.0    3.473      25.962     1018.6        388.836761    377.821203    nd            nd            -0.200000     2008-01-16T19:32:19.97Z  
1932.6669   70360   43.6858  -69.8155  215.0    9.2    3.491      26.278     1018.6        389.437478    378.401914    394.087116    389.428686    -0.200000     2008-01-16T19:32:40.01Z  
1932.9995   70380   43.6845  -69.8168  220.0    9.1    3.517      26.480     1018.6        389.606277    378.561244    nd            nd            -0.200000     2008-01-16T19:32:59.97Z  
1933.3336   70400   43.6833  -69.8184  224.0    9.0    3.547      26.651     1018.6        390.184668    379.117920    nd            nd            -0.200000     2008-01-16T19:33:20.02Z  
1933.6662   70420   43.6821  -69.8200  224.0    9.1    3.576      26.895     1018.6        391.178510    380.078426    393.791224    389.119189    -0.200000     2008-01-16T19:33:39.97Z  
1934.0003   70440   43.6809  -69.8215  225.0    9.1    3.634      27.457     1018.6        392.277621    381.136169    393.670677    388.992576    -0.200000     2008-01-16T19:34:00.02Z  
1934.3330   70460   43.6798  -69.8232  227.0    8.9    3.696      27.769     1018.6        393.646435    382.454453    nd            nd            -0.200000     2008-01-16T19:34:19.98Z  
1934.6670   70480   43.6787  -69.8248  226.0    9.0    3.741      27.937     1018.6        395.682338    384.423981    nd            nd            -0.200000     2008-01-16T19:34:40.02Z  
1934.9997   70500   43.6775  -69.8263  222.0    9.0    3.766      28.038     1018.6        398.106082    386.774023    393.764180    389.058129    -0.200000     2008-01-16T19:34:59.98Z  
1935.3338   70520   43.6763  -69.8278  217.0    9.2    3.771      28.015     1018.6        400.386229    388.988223    393.542798    388.839361    -0.200000     2008-01-16T19:35:20.03Z  
1935.6664   70540   43.6750  -69.8292  221.0    9.0    3.773      27.900     1018.6        402.340944    390.886803    nd            nd            -0.200000     2008-01-16T19:35:39.98Z  
1936.0005   70560   43.6738  -69.8307  222.0    9.1    3.769      27.772     1018.6        403.675017    392.183360    nd            nd            -0.200000     2008-01-16T19:36:00.03Z  
1936.3331   70580   43.6726  -69.8322  223.0    9.0    3.764      27.725     1018.6        404.575442    393.059028    nd            nd            -0.200000     2008-01-16T19:36:19.99Z  
1936.6672   70600   43.6714  -69.8338  222.0    9.0    3.749      27.685     1018.6        404.861233    393.339612    nd            nd            -0.200000     2008-01-16T19:36:40.03Z  
1936.9998   70620   43.6702  -69.8353  222.0    9.0    3.744      27.931     1018.6        405.045607    393.520281    nd            nd            -0.200000     2008-01-16T19:36:59.99Z  
1937.3339   70640   43.6690  -69.8368  221.0    9.0    3.738      28.080     1018.6        405.001471    393.478879    nd            nd            -0.200000     2008-01-16T19:37:20.03Z  
1937.6666   70660   43.6677  -69.8382  219.0    9.0    3.731      28.271     1018.6        405.026104    393.504520    nd            nd            -0.200000     2008-01-16T19:37:40.00Z  
1938.0006   70680   43.6664  -69.8395  215.0    9.0    3.724      28.259     1018.6        405.366594    393.836658    nd            nd            -0.200000     2008-01-16T19:38:00.04Z  
1938.3333   70700   43.6651  -69.8409  218.0    8.8    3.730      28.319     1018.6        406.019244    394.469637    nd            nd            -0.200000     2008-01-16T19:38:20.00Z  
1938.6674   70720   43.6639  -69.8423  220.0    9.0    3.740      28.412     1018.6        406.552017    394.985466    nd            nd            -0.200000     2008-01-16T19:38:40.04Z  
1939.0000   70740   43.6627  -69.8438  223.0    8.9    3.746      28.472     1018.6        407.124984    395.540974    nd            nd            -0.200000     2008-01-16T19:39:00.00Z  
1939.3326   70760   43.6616  -69.8454  228.0    9.1    3.744      28.544     1018.6        407.588248    395.991725    nd            nd            -0.200000     2008-01-16T19:39:19.96Z  
1939.6667   70780   43.6605  -69.8472  231.0    9.1    3.745      28.687     1018.6        408.116800    396.505134    nd            nd            -0.200000     2008-01-16T19:39:40.00Z  
1939.9994   70800   43.6594  -69.8487  218.0    9.1    3.735      28.795     1018.6        408.538602    396.917197    393.620026    388.921707    -0.200000     2008-01-16T19:39:59.96Z  
1940.3334   70820   43.6581  -69.8502  225.0    9.1    3.717      28.827     1018.6        409.250417    397.612542    nd            nd            -0.200000     2008-01-16T19:40:20.00Z  
1940.6661   70840   43.6570  -69.8519  231.0    9.1    3.718      28.967     1018.6        409.716944    398.065746    393.641470    388.948165    -0.200000     2008-01-16T19:40:39.97Z  
1941.0002   70860   43.6559  -69.8535  222.0    9.1    3.715      29.084     1018.6        410.344925    398.676633    nd            nd            -0.200000     2008-01-16T19:41:00.01Z  
1941.3328   70880   43.6545  -69.8547  207.0    9.0    3.697      29.180     1018.6        410.875715    399.196271    nd            nd            -0.200000     2008-01-16T19:41:19.97Z  
1941.6669   70900   43.6533  -69.8560  224.0    8.9    3.685      29.230     1018.6        411.546202    399.850244    nd            nd            -0.200000     2008-01-16T19:41:40.01Z  
1941.9995   70920   43.6521  -69.8576  223.0    9.2    3.691      29.245     1018.6        412.276700    400.558655    393.841228    389.151368    -0.200000     2008-01-16T19:41:59.97Z  
1942.3336   70940   43.6509  -69.8592  222.0    9.2    3.671      29.336     1018.6        412.670210    400.945274    393.880502    389.191658    -0.200000     2008-01-16T19:42:20.02Z  
1942.6662   70960   43.6496  -69.8607  220.0    9.2    3.657      29.373     1018.6        413.163756    401.427645    nd            nd            -0.200000     2008-01-16T19:42:39.97Z  
1943.0003   70980   43.6484  -69.8622  220.0    9.2    3.658      29.346     1018.6        413.599864    401.851155    nd            nd            -0.200000     2008-01-16T19:43:00.02Z  
1943.3330   71000   43.6471  -69.8637  220.0    9.2    3.660      29.341     1018.6        413.838892    402.082946    nd            nd            -0.200000     2008-01-16T19:43:19.98Z  
1943.6670   71020   43.6458  -69.8651  218.0    9.2    3.641      29.340     1018.6        413.953794    402.198450    393.946681    389.266294    -0.200000     2008-01-16T19:43:40.02Z  
1943.9997   71040   43.6446  -69.8665  222.0    9.0    3.636      29.346     1018.6        413.930207    402.176662    393.738559    389.060661    -0.200000     2008-01-16T19:43:59.98Z  
1944.3338   71060   43.6434  -69.8681  225.0    8.9    3.638      29.354     1018.6        413.858005    402.106030    393.937585    389.257191    -0.200000     2008-01-16T19:44:20.03Z  
1944.6664   71080   43.6423  -69.8695  222.0    8.8    3.651      29.582     1018.6        413.928200    402.171989    nd            nd            -0.200000     2008-01-16T19:44:39.98Z  
1945.0005   71100   43.6410  -69.8708  211.0    8.6    3.779      30.748     1018.6        413.895326    402.116058    nd            nd            -0.200000     2008-01-16T19:45:00.03Z  
1945.3331   71120   43.6397  -69.8720  210.0    8.8    3.918      31.229     1018.6        414.393412    402.572046    393.650105    388.919494    -0.200000     2008-01-16T19:45:19.99Z  
1945.6672   71140   43.6383  -69.8729  207.0    8.6    4.013      31.318     1018.6        416.441837    404.542515    393.851768    389.106938    -0.200000     2008-01-16T19:45:40.03Z  
1945.9998   71160   43.6370  -69.8740  215.0    8.5    4.073      31.342     1018.6        419.631561    407.628355    393.701185    388.940645    -0.200000     2008-01-16T19:45:59.99Z  
1946.3339   71180   43.6356  -69.8751  203.0    8.8    4.094      31.331     1018.6        422.480308    410.390976    393.683224    388.920372    -0.200000     2008-01-16T19:46:20.03Z  
1946.6666   71200   43.6341  -69.8758  200.0    8.9    4.103      31.317     1018.6        424.720324    412.565100    393.649532    388.885425    -0.200000     2008-01-16T19:46:40.00Z  
1946.9661   71218   43.6328  -69.8765  197.0    8.7    4.104      31.284     1018.6        426.307463    414.106546    393.620337    388.856929    -0.200000     2008-01-16T19:46:57.97Z  
nd          nd      nd       nd        nd       nd     nd         nd         nd            nd            nd            nd            nd            nd            nd                
nd          nd      nd       nd        nd       nd     nd         nd         nd            nd            nd            nd            nd            nd            nd                
nd          nd      nd       nd        nd       nd     nd         nd         nd            nd            nd            nd            nd            nd            nd                
nd          nd      nd       nd        nd       nd     nd         nd         nd            nd            nd            nd            nd            nd            nd                
nd          nd      nd       nd        nd       nd     nd         nd         nd            nd            nd            nd            nd            nd            nd                
nd          nd      nd       nd        nd       nd     nd         nd         nd            nd            nd            nd            nd            nd            nd                
nd          nd      nd       nd        nd       nd     nd         nd         nd            nd            nd            nd            nd            nd            nd                
nd          nd      nd       nd        nd       nd     nd         nd         nd            nd            nd            nd            nd            nd            nd                
nd          nd      nd       nd        nd       nd     nd         nd         nd            nd            nd            nd            nd            nd            nd                
nd          nd      nd       nd        nd       nd     nd         nd         nd            nd            nd            nd            nd            nd            nd                
nd          nd      nd       nd        nd       nd     nd         nd         nd            nd            nd            nd            nd            nd            nd                
nd          nd      nd       nd        nd       nd     nd         nd         nd            nd            nd            nd            nd            nd            nd                
nd          nd      nd       nd        nd       nd     nd         nd         nd            nd            nd            nd            nd            nd            nd                
nd          nd      nd       nd        nd       nd     nd         nd         nd            nd            nd            nd            nd            nd            nd                
nd          nd      nd       nd        nd       nd     nd         nd         nd            nd            nd            nd            nd            nd            nd                
nd          nd      nd       nd        nd       nd     nd         nd         nd            nd            nd            nd            nd            nd            nd                
nd          nd      nd       nd        nd       nd     nd         nd         nd            nd            nd            nd            nd            nd            nd                
nd          nd      nd       nd        nd       nd     nd         nd         nd            nd            nd            nd            nd            nd            nd                
nd          nd      nd       nd        nd       nd     nd         nd         nd            nd            nd            nd            nd            nd            nd                
nd          nd      nd       nd        nd       nd     nd         nd         nd            nd            nd            nd            nd            nd            nd                
nd          nd      nd       nd        nd       nd     nd         nd         nd            nd            nd            nd            nd            nd            nd                
nd          nd      nd       nd        nd       nd     nd         nd         nd            nd            nd            nd            nd            nd            nd                
nd          nd      nd       nd        nd       nd     nd         nd         nd            nd            nd            nd            nd            nd            nd                
nd          nd      nd       nd        nd       nd     nd         nd         nd            nd            nd            nd            nd            nd            nd                
nd          nd      nd       nd        nd       nd     nd         nd         nd            nd            nd            nd            nd            nd            nd                
nd          nd      nd       nd        nd       nd     nd         nd         nd            nd            nd            nd            nd            nd            nd                
nd          nd      nd       nd        nd       nd     nd         nd         nd            nd            nd            nd            nd            nd            nd                
nd          nd      nd       nd        nd       nd     nd         nd         nd            nd            nd            nd            nd            nd            nd                
nd          nd      nd       nd        nd       nd     nd         nd         nd            nd            nd            nd            nd            nd            nd                
nd          nd      nd       nd        nd       nd     nd         nd         nd            nd            nd            nd            nd            nd            nd                
nd          nd      nd       nd        nd       nd     nd         nd         nd            nd            nd            nd            nd            nd            nd                
1957.7502   71865   43.5947  -69.9224  221.0    8.7    4.252      31.054     1018.6        nd            nd            nd            nd            -0.200000     2008-01-16T19:57:45.01Z  
1957.9994   71880   43.5939  -69.9235  226.0    9.1    4.159      31.031     1018.6        nd            nd            nd            nd            -0.200000     2008-01-16T19:57:59.96Z  
1958.3334   71900   43.5927  -69.9250  220.0    8.9    4.070      31.058     1018.6        nd            nd            392.516741    387.778756    -0.200000     2008-01-16T19:58:20.00Z  
1958.6661   71920   43.5915  -69.9265  225.0    8.7    4.010      31.055     1018.6        nd            nd            392.726092    387.991097    -0.200000     2008-01-16T19:58:39.97Z  
1959.0002   71940   43.5905  -69.9282  231.0    8.8    3.974      31.012     1018.6        nd            nd            392.749842    388.021478    -0.200000     2008-01-16T19:59:00.01Z  
1959.3328   71960   43.5894  -69.9298  223.0    8.7    3.951      31.032     1018.6        nd            nd            392.745604    388.021701    -0.200000     2008-01-16T19:59:19.97Z  
1959.6496   71979   43.5884  -69.9313  228.0    8.9    3.934      31.048     1018.6        nd            nd            392.503143    387.784708    -0.200000     2008-01-16T19:59:38.98Z  
1959.9995   72000   43.5873  -69.9329  227.0    8.8    3.930      31.037     1018.6        nd            nd            nd            nd            0.000000      2008-01-16T19:59:59.97Z  
2000.3336   72020   43.5863  -69.9346  234.0    8.6    3.926      31.006     1018.6        nd            nd            nd            nd            0.200000      2008-01-16T20:00:20.02Z  
2000.6662   72040   43.5853  -69.9364  236.0    9.0    3.917      30.981     1018.6        nd            nd            nd            nd            0.200000      2008-01-16T20:00:39.97Z  
2001.0003   72060   43.5843  -69.9381  226.0    8.9    3.915      30.950     1018.6        428.200938    415.986936    nd            nd            0.200000      2008-01-16T20:01:00.02Z  
2001.3330   72080   43.5833  -69.9398  229.0    9.0    3.897      30.929     1018.6        427.299095    415.113599    nd            nd            0.200000      2008-01-16T20:01:19.98Z  
2001.6670   72100   43.5822  -69.9415  231.0    9.1    3.886      30.938     1018.6        426.335353    414.179728    nd            nd            0.200000      2008-01-16T20:01:40.02Z  
2001.9997   72120   43.5812  -69.9432  229.0    8.8    3.887      30.931     1018.6        425.509247    413.376832    nd            nd            0.200000      2008-01-16T20:01:59.98Z  
2002.3338   72140   43.5802  -69.9449  232.0    9.0    3.886      30.922     1018.6        425.126046    413.004815    nd            nd            0.200000      2008-01-16T20:02:20.03Z  
2002.6664   72160   43.5791  -69.9466  230.0    8.8    3.874      30.907     1018.6        424.896113    412.784056    392.564190    387.857735    0.200000      2008-01-16T20:02:39.98Z  
2003.0005   72180   43.5781  -69.9483  228.0    8.9    3.852      30.894     1018.6        424.614559    412.515031    392.654121    387.951165    0.200000      2008-01-16T20:03:00.03Z  
2003.3331   72200   43.5770  -69.9499  226.0    8.9    3.844      30.888     1018.6        424.380489    412.289258    392.609354    387.907404    0.200000      2008-01-16T20:03:19.99Z  
2003.6672   72220   43.5759  -69.9515  225.0    9.0    3.843      30.882     1018.6        424.166729    412.081849    nd            nd            0.200000      2008-01-16T20:03:40.03Z  
2003.9998   72240   43.5748  -69.9531  227.0    8.8    3.836      30.875     1018.6        423.848123    411.773756    nd            nd            0.200000      2008-01-16T20:03:59.99Z  
2004.3339   72260   43.5737  -69.9547  228.0    8.9    3.828      30.871     1018.6        423.602632    411.537037    392.781339    388.080016    0.200000      2008-01-16T20:04:20.03Z  
2004.6666   72280   43.5726  -69.9564  233.0    9.1    3.832      30.878     1018.6        423.244145    411.187829    nd            nd            0.200000      2008-01-16T20:04:40.00Z  
2005.0006   72300   43.5717  -69.9582  232.0    8.9    3.835      30.893     1018.6        422.971752    410.922626    nd            nd            0.200000      2008-01-16T20:05:00.04Z  
2005.3333   72320   43.5708  -69.9600  238.0    9.0    3.899      30.884     1018.6        422.915931    410.854833    392.421475    387.721540    0.200000      2008-01-16T20:05:20.00Z  
2005.6674   72340   43.5698  -69.9617  224.0    8.7    3.818      30.880     1018.6        423.026861    410.979800    392.583132    387.885021    0.200000      2008-01-16T20:05:40.04Z  
2006.0000   72360   43.5688  -69.9634  230.0    9.0    3.811      30.898     1018.6        425.124786    413.019351    nd            nd            0.200000      2008-01-16T20:06:00.00Z  
2006.3326   72380   43.5678  -69.9651  231.0    8.9    3.813      30.914     1018.6        424.754192    412.659071    nd            nd            0.200000      2008-01-16T20:06:19.96Z  
2006.6667   72400   43.5666  -69.9666  220.0    8.5    3.809      30.925     1018.6        423.758102    411.692217    nd            nd            0.200000      2008-01-16T20:06:40.00Z  
2006.9994   72420   43.5655  -69.9681  228.0    8.9    3.802      30.934     1018.6        423.084170    411.038941    392.573382    387.879900    0.200000      2008-01-16T20:06:59.96Z  
2007.3334   72440   43.5645  -69.9698  233.0    8.9    3.802      30.943     1018.6        422.504981    410.476141    nd            nd            0.200000      2008-01-16T20:07:20.00Z  
2007.6661   72460   43.5635  -69.9715  226.0    8.9    3.803      30.959     1018.6        422.215413    410.194756    nd            nd            0.200000      2008-01-16T20:07:39.97Z  
2008.0002   72480   43.5625  -69.9732  232.0    8.8    3.797      30.978     1018.6        421.917485    409.906628    nd            nd            0.200000      2008-01-16T20:08:00.01Z  
2008.3328   72500   43.5614  -69.9749  229.0    9.0    3.798      31.005     1018.6        421.798016    409.790360    392.361937    387.672298    0.200000      2008-01-16T20:08:19.97Z  
2008.6669   72520   43.5604  -69.9765  229.0    8.7    3.791      31.040     1018.6        421.538498    409.539787    nd            nd            0.200000      2008-01-16T20:08:40.01Z  
2008.9995   72540   43.5593  -69.9781  225.0    9.0    3.786      31.078     1018.6        421.495829    409.499452    nd            nd            0.200000      2008-01-16T20:08:59.97Z  
2009.3336   72560   43.5582  -69.9797  225.0    8.9    3.798      31.130     1018.6        421.311668    409.318108    392.568298    387.876916    0.200000      2008-01-16T20:09:20.02Z  
2009.6662   72580   43.5570  -69.9812  223.0    8.8    3.812      31.154     1018.6        421.357853    409.360141    nd            nd            0.200000      2008-01-16T20:09:39.97Z  
2010.0003   72600   43.5559  -69.9828  228.0    9.1    3.818      31.169     1018.6        421.533162    409.529069    392.594035    387.897294    0.200000      2008-01-16T20:10:00.02Z  
2010.3330   72620   43.5548  -69.9844  221.0    8.8    3.824      31.201     1018.6        421.745735    409.734569    392.622183    387.924686    0.200000      2008-01-16T20:10:19.98Z  
2010.6670   72640   43.5537  -69.9859  227.0    8.8    3.830      31.232     1018.6        422.047734    410.026597    392.607891    387.909401    0.200000      2008-01-16T20:10:40.02Z  
2010.9997   72660   43.5525  -69.9875  227.0    8.9    3.833      31.263     1018.6        422.300164    410.271254    392.585217    387.886425    0.200000      2008-01-16T20:10:59.98Z  
2011.3338   72680   43.5515  -69.9892  227.0    9.1    3.842      31.306     1018.6        422.505432    410.468923    392.561473    387.861270    0.200000      2008-01-16T20:11:20.03Z  
2011.6664   72700   43.5504  -69.9907  225.0    8.7    3.842      31.333     1018.6        422.670535    410.629321    392.634375    387.933188    0.200000      2008-01-16T20:11:39.98Z  
2012.0005   72720   43.5494  -69.9924  227.0    8.7    3.851      31.377     1018.6        422.826107    410.778789    392.869795    388.165442    0.200000      2008-01-16T20:12:00.03Z  
2012.3331   72740   43.5483  -69.9939  229.0    8.6    3.876      31.402     1018.6        423.061941    411.002572    nd            nd            0.200000      2008-01-16T20:12:19.99Z  
2012.6672   72760   43.5472  -69.9956  228.0    9.0    3.881      31.414     1018.6        423.410831    411.340549    392.764860    388.053984    0.200000      2008-01-16T20:12:40.03Z  
2012.9998   72780   43.5461  -69.9970  216.0    8.5    3.900      31.457     1018.6        423.696161    411.613680    392.583920    387.873497    0.200000      2008-01-16T20:12:59.99Z  
2013.3339   72800   43.5449  -69.9983  220.0    8.8    3.918      31.505     1018.6        423.969721    411.875839    nd            nd            0.200000      2008-01-16T20:13:20.03Z  
2013.6666   72820   43.5437  -69.9998  220.0    8.8    3.935      31.548     1018.6        424.328365    412.220567    nd            nd            0.200000      2008-01-16T20:13:40.00Z  
2014.0006   72840   43.5425  -70.0011  223.0    8.8    3.952      31.576     1018.6        424.871916    412.745124    nd            nd            0.200000      2008-01-16T20:14:00.04Z  
2014.3333   72860   43.5413  -70.0026  220.0    8.8    3.980      31.644     1018.6        425.516290    413.365216    nd            nd            0.200000      2008-01-16T20:14:20.00Z  
2014.6674   72880   43.5401  -70.0040  215.0    8.6    4.018      31.668     1018.6        425.955606    413.783966    nd            nd            0.200000      2008-01-16T20:14:40.04Z  
2015.0000   72900   43.5388  -70.0053  223.0    8.8    4.034      31.665     1018.6        426.660900    414.465694    392.443100    387.707463    0.200000      2008-01-16T20:15:00.00Z  
2015.3326   72920   43.5377  -70.0067  222.0    8.6    4.042      31.666     1018.6        427.165693    414.954275    392.575506    387.836885    0.200000      2008-01-16T20:15:19.96Z  
2015.6667   72940   43.5365  -70.0081  222.0    8.7    4.055      31.690     1018.6        427.539769    415.314890    392.602883    387.861478    0.200000      2008-01-16T20:15:40.00Z  
2015.9994   72960   43.5354  -70.0096  222.0    8.7    4.060      31.706     1018.6        428.103785    415.861766    392.746561    388.002745    0.200000      2008-01-16T20:15:59.96Z  
2016.3334   72980   43.5342  -70.0111  222.0    9.0    4.073      31.722     1018.6        428.630524    416.370505    nd            nd            0.200000      2008-01-16T20:16:20.00Z  
2016.6661   73000   43.5330  -70.0125  218.0    8.7    4.088      31.733     1018.6        429.093056    416.816588    392.332137    387.587227    0.200000      2008-01-16T20:16:39.97Z  
2017.0002   73020   43.5318  -70.0139  224.0    8.8    4.103      31.739     1018.6        429.543036    417.250582    392.492721    387.744464    0.200000      2008-01-16T20:17:00.01Z  
2017.3328   73040   43.5306  -70.0154  219.0    8.9    4.108      31.747     1018.6        429.757317    417.457547    nd            nd            0.200000      2008-01-16T20:17:19.97Z  
2017.6669   73060   43.5294  -70.0168  221.0    8.8    4.107      31.740     1018.6        430.105320    417.795806    nd            nd            0.200000      2008-01-16T20:17:40.01Z  
2017.9995   73080   43.5282  -70.0182  219.0    8.8    4.094      31.752     1018.6        430.159282    417.851185    nd            nd            0.200000      2008-01-16T20:17:59.97Z  
2018.3336   73100   43.5270  -70.0196  219.0    8.8    4.088      31.781     1018.6        430.325473    418.013949    nd            nd            0.200000      2008-01-16T20:18:20.02Z  
2018.6662   73120   43.5258  -70.0210  221.0    8.8    4.100      31.800     1018.6        430.326566    418.012461    nd            nd            0.200000      2008-01-16T20:18:39.97Z  
2019.0003   73140   43.5245  -70.0222  210.0    8.8    4.106      31.822     1018.6        430.325684    418.010283    nd            nd            0.200000      2008-01-16T20:19:00.02Z  
2019.3330   73160   43.5231  -70.0232  203.0    8.7    4.117      31.827     1018.6        430.212005    417.897533    392.283028    387.532676    0.200000      2008-01-16T20:19:19.98Z  
2019.6670   73180   43.5217  -70.0242  209.0    8.8    4.139      31.851     1018.6        430.563101    418.233714    392.310630    387.556003    0.200000      2008-01-16T20:19:40.02Z  
2019.9997   73200   43.5204  -70.0253  212.0    8.8    4.173      31.883     1018.6        430.892000    418.545889    392.351530    387.592004    0.200000      2008-01-16T20:19:59.98Z  
2020.3338   73220   43.5190  -70.0265  215.0    8.8    4.195      31.900     1018.6        431.239442    418.878427    nd            nd            0.200000      2008-01-16T20:20:20.03Z  
2020.6664   73240   43.5178  -70.0278  217.0    8.8    4.205      31.916     1018.6        431.604407    419.230854    nd            nd            0.200000      2008-01-16T20:20:39.98Z  
2021.0005   73260   43.5166  -70.0292  224.0    9.0    4.226      31.951     1018.6        431.972590    419.583798    nd            nd            0.200000      2008-01-16T20:21:00.03Z  
2021.3331   73280   43.5153  -70.0307  218.0    9.0    4.247      31.972     1018.6        432.278594    419.876481    nd            nd            0.200000      2008-01-16T20:21:19.99Z  
2021.6672   73300   43.5142  -70.0322  223.0    8.8    4.256      31.989     1018.6        432.551963    420.140165    nd            nd            0.200000      2008-01-16T20:21:40.03Z  
2021.9998   73320   43.5129  -70.0333  210.0    8.4    4.278      32.005     1018.6        433.125440    420.692281    nd            nd            0.200000      2008-01-16T20:21:59.99Z  
2022.3339   73340   43.5116  -70.0346  216.0    8.8    4.297      32.019     1018.6        433.475476    421.028043    nd            nd            0.200000      2008-01-16T20:22:20.03Z  
2022.6666   73360   43.5104  -70.0359  219.0    8.9    4.324      32.031     1018.6        433.998668    421.530299    nd            nd            0.200000      2008-01-16T20:22:40.00Z  
2023.0006   73380   43.5092  -70.0373  220.0    8.8    4.341      32.046     1018.6        434.282270    421.801854    nd            nd            0.200000      2008-01-16T20:23:00.04Z  
2023.3333   73400   43.5080  -70.0388  222.0    8.7    4.353      32.062     1018.6        434.690420    422.195588    nd            nd            0.200000      2008-01-16T20:23:20.00Z  
2023.6674   73420   43.5069  -70.0402  223.0    8.7    4.361      32.070     1018.6        435.198903    422.687814    nd            nd            0.200000      2008-01-16T20:23:40.04Z  
2024.0000   73440   43.5057  -70.0417  223.0    8.9    4.370      32.091     1018.6        435.555233    423.031867    nd            nd            0.200000      2008-01-16T20:24:00.00Z  
2024.3326   73460   43.5046  -70.0433  225.0    8.8    4.384      32.108     1018.6        436.027800    423.487732    nd            nd            0.200000      2008-01-16T20:24:19.96Z  
2024.6667   73480   43.5035  -70.0448  223.0    8.5    4.392      32.115     1018.6        436.198022    423.651307    392.245506    387.442234    0.200000      2008-01-16T20:24:40.00Z  
2024.9994   73500   43.5023  -70.0462  220.0    8.7    4.398      32.119     1018.6        436.395349    423.841518    392.147686    387.344415    0.200000      2008-01-16T20:24:59.96Z  
2025.3334   73520   43.5012  -70.0476  223.0    8.4    4.401      32.125     1018.6        436.770900    424.205614    392.199910    387.395798    0.200000      2008-01-16T20:25:20.00Z  
2025.6661   73540   43.5001  -70.0491  223.0    8.6    4.420      32.147     1018.6        436.972281    424.396940    nd            nd            0.200000      2008-01-16T20:25:39.97Z  
2026.0002   73560   43.4989  -70.0506  224.0    8.8    4.437      32.161     1018.6        436.907836    424.330607    nd            nd            0.200000      2008-01-16T20:26:00.01Z  
2026.3328   73580   43.4978  -70.0520  222.0    8.7    4.447      32.163     1018.6        437.129557    424.543681    392.159992    387.345684    0.200000      2008-01-16T20:26:19.97Z  
2026.6669   73600   43.4967  -70.0535  224.0    8.4    4.469      32.172     1018.6        437.287992    424.692389    392.199295    387.380984    0.200000      2008-01-16T20:26:40.01Z  
2026.9995   73620   43.4956  -70.0549  221.0    8.2    4.483      32.175     1018.6        437.432452    424.829624    392.365537    387.542612    0.200000      2008-01-16T20:26:59.97Z  
2027.3336   73640   43.4945  -70.0563  226.0    8.7    4.487      32.175     1018.6        437.671185    425.060441    392.367215    387.543495    0.200000      2008-01-16T20:27:20.02Z  
2027.6662   73660   43.4934  -70.0579  221.0    8.6    4.495      32.178     1018.6        438.019600    425.396986    nd            nd            0.200000      2008-01-16T20:27:39.97Z  
2028.0003   73680   43.4922  -70.0593  223.0    8.9    4.504      32.179     1018.6        438.153508    425.525131    392.580913    387.750691    0.200000      2008-01-16T20:28:00.02Z  
2028.3330   73700   43.4911  -70.0608  224.0    8.6    4.519      32.174     1018.6        438.429651    425.789931    nd            nd            0.200000      2008-01-16T20:28:19.98Z  
2028.6670   73720   43.4900  -70.0623  225.0    8.8    4.529      32.173     1018.6        438.492206    425.848308    392.654650    387.818485    0.200000      2008-01-16T20:28:40.02Z  
2028.9997   73740   43.4888  -70.0638  219.0    8.9    4.535      32.172     1018.6        438.682208    426.031443    392.513087    387.677736    0.200000      2008-01-16T20:28:59.98Z  
2029.3338   73760   43.4875  -70.0651  214.0    8.7    4.531      32.170     1018.6        438.862242    426.207248    392.531688    387.696983    0.200000      2008-01-16T20:29:20.03Z  
2029.6664   73780   43.4862  -70.0662  211.0    8.5    4.529      32.167     1018.6        439.036232    426.376535    392.423596    387.590482    0.200000      2008-01-16T20:29:39.98Z  
2030.0005   73800   43.4849  -70.0675  216.0    8.9    4.530      32.167     1018.6        439.053394    426.392947    392.556637    387.721684    0.200000      2008-01-16T20:30:00.03Z  
2030.3331   73820   43.4836  -70.0688  217.0    8.7    4.527      32.163     1018.6        438.980834    426.323285    392.515041    387.681336    0.200000      2008-01-16T20:30:19.99Z  
2030.6672   73840   43.4823  -70.0700  216.0    8.6    4.526      32.166     1018.6        438.980786    426.323396    392.574495    387.740346    0.200000      2008-01-16T20:30:40.03Z  
2030.9998   73860   43.4811  -70.0713  216.0    8.9    4.530      32.166     1018.6        439.001199    426.342335    nd            nd            0.200000      2008-01-16T20:30:59.99Z  
2031.3339   73880   43.4797  -70.0724  206.0    8.8    4.529      32.168     1018.6        439.070195    426.409548    392.475960    387.642339    0.200000      2008-01-16T20:31:20.03Z  
2031.6666   73900   43.4784  -70.0735  209.0    8.8    4.531      32.168     1018.6        439.125925    426.463158    392.556322    387.721157    0.200000      2008-01-16T20:31:40.00Z  
2032.0006   73920   43.4769  -70.0744  205.0    8.6    4.535      32.169     1018.6        438.872269    426.215960    nd            nd            0.200000      2008-01-16T20:32:00.04Z  
2032.3333   73940   43.4755  -70.0753  206.0    8.9    4.532      32.171     1018.6        438.975212    426.316665    nd            nd            0.200000      2008-01-16T20:32:20.00Z  
2032.6674   73960   43.4741  -70.0762  203.0    8.7    4.534      32.172     1018.6        438.898741    426.242062    nd            nd            0.200000      2008-01-16T20:32:40.04Z  
2033.0000   73980   43.4727  -70.0772  206.0    8.5    4.534      32.174     1018.6        439.116425    426.453277    392.620817    387.784019    0.200000      2008-01-16T20:33:00.00Z  
2033.3326   74000   43.4713  -70.0783  220.0    9.0    4.537      32.175     1018.6        439.158408    426.493394    392.724024    387.885341    0.200000      2008-01-16T20:33:19.96Z  
2033.6667   74020   43.4701  -70.0798  218.0    9.0    4.537      32.174     1018.6        438.973174    426.313621    nd            nd            0.200000      2008-01-16T20:33:40.00Z  
2033.9994   74040   43.4688  -70.0811  218.0    9.0    4.536      32.175     1018.6        439.134539    426.470569    nd            nd            0.200000      2008-01-16T20:33:59.96Z  
2034.3334   74060   43.4676  -70.0825  221.0    8.5    4.523      32.174     1018.6        439.084642    426.425080    392.570984    387.737679    0.200000      2008-01-16T20:34:20.00Z  
2034.6661   74080   43.4664  -70.0839  218.0    8.7    4.525      32.176     1018.6        438.927681    426.272029    392.481951    387.648557    0.200000      2008-01-16T20:34:39.97Z  
2035.0002   74100   43.4652  -70.0853  221.0    8.9    4.532      32.178     1018.6        438.767868    426.115244    392.379965    387.546803    0.200000      2008-01-16T20:35:00.01Z  
2035.3328   74120   43.4640  -70.0867  216.0    8.8    4.537      32.179     1018.6        438.800088    426.145376    392.683041    387.845025    0.200000      2008-01-16T20:35:19.97Z  
2035.6669   74140   43.4628  -70.0882  225.0    9.1    4.543      32.180     1018.6        438.583142    425.933303    392.501736    387.664818    0.200000      2008-01-16T20:35:40.01Z  
2035.9995   74160   43.4616  -70.0897  221.0    8.6    4.541      32.178     1018.6        438.572158    425.923176    392.456215    387.620307    0.200000      2008-01-16T20:35:59.97Z  
2036.3336   74180   43.4605  -70.0911  224.0    8.6    4.542      32.178     1018.6        438.392310    425.748401    nd            nd            0.200000      2008-01-16T20:36:20.02Z  
2036.6662   74200   43.4594  -70.0926  224.0    8.7    4.547      32.181     1018.6        438.280754    425.638801    392.754911    387.913851    0.200000      2008-01-16T20:36:39.97Z  
2037.0003   74220   43.4582  -70.0941  223.0    9.1    4.548      32.182     1018.6        438.308980    425.665963    392.587800    387.748927    0.200000      2008-01-16T20:37:00.02Z  
2037.3330   74240   43.4571  -70.0957  224.0    8.7    4.536      32.183     1018.6        438.265278    425.626398    392.651147    387.814151    0.200000      2008-01-16T20:37:19.98Z  
2037.6670   74260   43.4559  -70.0972  221.0    8.9    4.529      32.189     1018.6        438.288644    425.650561    392.645722    387.809885    0.200000      2008-01-16T20:37:40.02Z  
2037.9997   74280   43.4547  -70.0986  220.0    9.0    4.535      32.194     1018.6        438.135011    425.499963    392.722824    387.884860    0.200000      2008-01-16T20:37:59.98Z  
2038.3338   74300   43.4535  -70.1001  225.0    9.0    4.542      32.199     1018.6        438.168095    425.530512    nd            nd            0.200000      2008-01-16T20:38:20.03Z  
2038.6664   74320   43.4523  -70.1015  218.0    8.6    4.556      32.198     1018.6        438.138589    425.498742    392.417361    387.579197    0.200000      2008-01-16T20:38:39.98Z  
2039.0005   74340   43.4511  -70.1029  221.0    9.0    4.553      32.197     1018.6        438.144020    425.504605    392.863709    388.020502    0.200000      2008-01-16T20:39:00.03Z  
2039.3331   74360   43.4499  -70.1044  219.0    8.8    4.545      32.205     1018.6        438.183050    425.544453    393.054933    388.211003    0.200000      2008-01-16T20:39:19.99Z  
2039.6672   74380   43.4487  -70.1058  225.0    9.1    4.546      32.211     1018.6        438.240017    425.599520    nd            nd            0.200000      2008-01-16T20:39:40.03Z  
2039.9998   74400   43.4476  -70.1073  223.0    8.6    4.557      32.207     1018.6        438.105058    425.465886    nd            nd            0.200000      2008-01-16T20:39:59.99Z  
2040.3339   74420   43.4464  -70.1088  222.0    8.6    4.556      32.219     1018.6        438.296938    425.652493    392.932745    388.088017    0.200000      2008-01-16T20:40:20.03Z  
2040.6666   74440   43.4453  -70.1103  224.0    9.0    4.566      32.227     1018.6        438.155813    425.513181    393.016335    388.168482    0.200000      2008-01-16T20:40:40.00Z  
2041.0006   74460   43.4442  -70.1118  224.0    8.9    4.557      32.219     1018.6        438.159307    425.518636    nd            nd            0.200000      2008-01-16T20:41:00.04Z  
2041.3333   74480   43.4430  -70.1134  223.0    9.0    4.558      32.229     1018.6        438.273218    425.629189    nd            nd            0.200000      2008-01-16T20:41:20.00Z  
2041.6674   74500   43.4419  -70.1149  225.0    8.8    4.559      32.234     1018.6        438.251248    425.607445    nd            nd            0.200000      2008-01-16T20:41:40.04Z  
2042.0000   74520   43.4407  -70.1164  219.0    8.9    4.562      32.234     1018.6        438.096859    425.456982    nd            nd            0.200000      2008-01-16T20:42:00.00Z  
2042.3326   74540   43.4395  -70.1178  225.0    8.8    4.553      32.240     1018.6        438.260013    425.617501    nd            nd            0.200000      2008-01-16T20:42:19.96Z  
2042.6667   74560   43.4384  -70.1194  220.0    8.8    4.567      32.254     1018.6        438.428769    425.778219    393.084333    388.236755    0.200000      2008-01-16T20:42:40.00Z  
2042.9994   74580   43.4371  -70.1206  215.0    8.8    4.580      32.253     1018.6        438.404958    425.752054    nd            nd            0.200000      2008-01-16T20:42:59.96Z  
2043.3334   74600   43.4359  -70.1219  220.0    8.8    4.588      32.258     1018.6        438.510625    425.852759    nd            nd            0.200000      2008-01-16T20:43:20.00Z  
2043.6661   74620   43.4346  -70.1233  219.0    8.9    4.618      32.268     1018.6        438.513440    425.848714    nd            nd            0.200000      2008-01-16T20:43:39.97Z  
2044.0002   74640   43.4334  -70.1248  223.0    9.1    4.630      32.275     1018.6        438.794254    426.118708    392.746539    387.890645    0.200000      2008-01-16T20:44:00.01Z  
2044.3328   74660   43.4322  -70.1263  220.0    8.9    4.659      32.297     1018.6        438.874287    426.189779    nd            nd            0.200000      2008-01-16T20:44:19.97Z  
2044.6669   74680   43.4310  -70.1278  223.0    9.0    4.685      32.303     1018.6        439.103561    426.406269    nd            nd            0.200000      2008-01-16T20:44:40.01Z  
2044.9995   74700   43.4299  -70.1292  218.0    8.5    4.692      32.302     1018.6        439.381920    426.674976    393.256038    388.379922    0.200000      2008-01-16T20:44:59.97Z  
2045.3336   74720   43.4286  -70.1304  212.0    8.9    4.685      32.299     1018.6        439.899150    427.178877    393.443937    388.566674    0.200000      2008-01-16T20:45:20.02Z  
2045.6662   74740   43.4273  -70.1317  221.0    8.7    4.708      32.321     1018.6        440.257600    427.521705    392.525670    387.658281    0.200000      2008-01-16T20:45:39.97Z  
2046.0003   74760   43.4263  -70.1333  230.0    8.7    4.752      32.338     1018.6        440.389295    427.639254    nd            nd            0.200000      2008-01-16T20:46:00.02Z  
2046.3330   74780   43.4252  -70.1349  225.0    8.6    4.782      32.352     1018.6        440.765231    427.997286    nd            nd            0.200000      2008-01-16T20:46:19.98Z  
2046.6670   74800   43.4241  -70.1364  221.0    8.8    4.809      32.362     1018.6        441.461461    428.666994    nd            nd            0.200000      2008-01-16T20:46:40.02Z  
2046.9997   74820   43.4230  -70.1379  227.0    8.9    4.834      32.361     1018.6        442.409231    429.581524    nd            nd            0.200000      2008-01-16T20:46:59.98Z  
2047.3338   74840   43.4219  -70.1395  227.0    8.8    4.848      32.357     1018.6        443.402919    430.542989    nd            nd            0.200000      2008-01-16T20:47:20.03Z  
2047.6664   74860   43.4208  -70.1411  225.0    8.8    4.851      32.355     1018.6        444.104129    431.223118    nd            nd            0.200000      2008-01-16T20:47:39.98Z  
2048.0005   74880   43.4197  -70.1426  227.0    8.7    4.846      32.358     1018.6        444.596359    431.702411    nd            nd            0.200000      2008-01-16T20:48:00.03Z  
2048.3331   74900   43.4186  -70.1443  225.0    9.1    4.855      32.359     1018.6        445.059572    432.149990    nd            nd            0.200000      2008-01-16T20:48:19.99Z  
2048.6672   74920   43.4175  -70.1459  226.0    9.0    4.849      32.356     1018.6        445.257524    432.343637    nd            nd            0.200000      2008-01-16T20:48:40.03Z  
2048.9998   74940   43.4164  -70.1475  226.0    9.2    4.830      32.358     1018.6        445.518398    432.601582    nd            nd            0.200000      2008-01-16T20:48:59.99Z  
2049.3339   74960   43.4152  -70.1491  225.0    8.8    4.828      32.363     1018.6        445.518759    432.602188    nd            nd            0.200000      2008-01-16T20:49:20.03Z  
2049.6666   74980   43.4142  -70.1508  232.0    9.3    4.835      32.362     1018.6        445.722604    432.798507    nd            nd            0.200000      2008-01-16T20:49:40.00Z  
2050.0006   75000   43.4131  -70.1525  225.0    9.0    4.837      32.363     1018.6        445.801644    432.874934    nd            nd            0.200000      2008-01-16T20:50:00.04Z  
2050.3333   75020   43.4119  -70.1540  222.0    9.0    4.857      32.376     1018.6        445.807979    432.876355    393.105634    388.197008    0.200000      2008-01-16T20:50:20.00Z  
2050.6674   75040   43.4108  -70.1556  228.0    9.1    4.892      32.386     1018.6        445.890845    432.948315    nd            nd            0.200000      2008-01-16T20:50:40.04Z  
2051.0000   75060   43.4097  -70.1572  223.0    8.8    4.919      32.391     1018.6        446.149205    433.192704    nd            nd            0.200000      2008-01-16T20:51:00.00Z  
2051.3326   75080   43.4085  -70.1586  221.0    8.7    4.947      32.398     1018.6        446.302999    433.335546    nd            nd            0.200000      2008-01-16T20:51:19.96Z  
2051.6667   75100   43.4074  -70.1601  225.0    8.9    4.978      32.422     1018.6        446.643196    433.658338    nd            nd            0.200000      2008-01-16T20:51:40.00Z  
2051.9994   75120   43.4063  -70.1617  229.0    8.8    5.008      32.442     1018.6        446.877971    433.879032    nd            nd            0.200000      2008-01-16T20:51:59.96Z  
2052.3334   75140   43.4052  -70.1634  228.0    9.0    5.045      32.460     1018.6        447.375730    434.353497    392.929156    387.982323    0.200000      2008-01-16T20:52:20.00Z  
2052.6661   75160   43.4042  -70.1650  227.0    8.7    5.062      32.462     1018.6        448.023750    434.978509    393.024546    388.074453    0.200000      2008-01-16T20:52:39.97Z  
2053.0002   75180   43.4030  -70.1665  220.0    8.8    5.079      32.461     1018.6        448.785870    435.714232    393.088737    388.134192    0.200000      2008-01-16T20:53:00.01Z  
2053.3328   75200   43.4018  -70.1680  223.0    8.8    5.089      32.457     1018.6        449.361309    436.270474    393.180726    388.222852    0.200000      2008-01-16T20:53:19.97Z  
2053.6669   75220   43.4007  -70.1695  225.0    8.7    5.090      32.455     1018.6        449.880697    436.774527    393.346689    388.386540    0.200000      2008-01-16T20:53:40.01Z  
2053.9995   75240   43.3996  -70.1710  220.0    8.9    5.093      32.455     1018.6        450.309766    437.190319    392.875151    387.920043    0.200000      2008-01-16T20:53:59.97Z  
2054.3336   75260   43.3983  -70.1724  217.0    8.9    5.096      32.456     1018.6        450.576839    437.448989    392.876660    387.922004    0.200000      2008-01-16T20:54:20.02Z  
2054.6662   75280   43.3970  -70.1736  215.0    8.9    5.098      32.454     1018.6        451.034797    437.893001    392.990691    388.033076    0.200000      2008-01-16T20:54:39.97Z  
2055.0003   75300   43.3958  -70.1750  223.0    8.8    5.093      32.454     1018.6        451.230024    438.083927    393.291388    388.331385    0.200000      2008-01-16T20:55:00.02Z  
2055.3330   75320   43.3946  -70.1764  219.0    8.9    5.102      32.452     1018.6        451.488582    438.332644    392.986112    388.030516    0.200000      2008-01-16T20:55:19.98Z  
2055.6670   75340   43.3934  -70.1778  217.0    9.1    5.102      32.442     1018.6        451.477607    438.322062    393.204276    388.243590    0.200000      2008-01-16T20:55:40.02Z  
2055.9997   75360   43.3920  -70.1791  218.0    8.9    5.081      32.446     1018.6        451.600487    438.446387    393.347639    388.389303    0.200000      2008-01-16T20:55:59.98Z  
2056.3338   75380   43.3909  -70.1806  224.0    9.0    5.078      32.443     1018.6        451.456182    438.307098    393.210427    388.254562    0.200000      2008-01-16T20:56:20.03Z  
2056.6664   75400   43.3897  -70.1821  222.0    8.9    5.079      32.449     1018.6        451.063522    437.925505    393.326133    388.368514    0.200000      2008-01-16T20:56:39.98Z  
2057.0005   75420   43.3885  -70.1836  219.0    9.1    5.075      32.449     1018.6        450.711144    437.584437    393.259802    388.303782    0.200000      2008-01-16T20:57:00.03Z  
2057.3331   75440   43.3873  -70.1849  218.0    8.5    5.072      32.452     1018.6        450.543369    437.422280    393.548056    388.589086    0.200000      2008-01-16T20:57:19.99Z  
2057.6672   75460   43.3861  -70.1863  223.0    8.8    5.066      32.452     1018.6        450.243176    437.132336    nd            nd            0.200000      2008-01-16T20:57:40.03Z  
2057.9998   75480   43.3850  -70.1879  225.0    8.8    5.057      32.458     1018.6        449.948870    436.848728    nd            nd            0.200000      2008-01-16T20:57:59.99Z  
2058.3339   75500   43.3839  -70.1895  226.0    9.2    5.067      32.471     1018.6        449.847219    436.747634    393.436904    388.476777    0.200000      2008-01-16T20:58:20.03Z  
2058.6666   75520   43.3827  -70.1911  226.0    9.0    5.123      32.491     1018.6        449.813728    436.701574    393.421424    388.453365    0.200000      2008-01-16T20:58:40.00Z  
2059.0006   75540   43.3816  -70.1927  224.0    8.7    5.173      32.500     1018.6        450.127298    436.993770    393.547464    388.570545    0.200000      2008-01-16T20:59:00.04Z  
2059.3333   75560   43.3805  -70.1943  227.0    8.8    5.209      32.500     1018.6        450.797790    437.635695    nd            nd            0.200000      2008-01-16T20:59:20.00Z  
2059.6501   75579   43.3795  -70.1958  227.0    8.7    5.219      32.502     1018.6        451.830454    438.635779    393.469574    388.481027    0.200000      2008-01-16T20:59:39.01Z  
2100.0000   75600   43.3783  -70.1974  224.0    8.8    5.235      32.504     1018.6        452.904160    439.674188    393.292608    388.301448    0.100000      2008-01-16T21:00:00.00Z  
2100.3326   75620   43.3771  -70.1989  220.0    8.9    5.233      32.508     1018.6        453.803303    440.547573    393.440806    388.449154    0.000000      2008-01-16T21:00:19.96Z  
2100.6667   75640   43.3759  -70.2002  215.0    8.9    5.256      32.515     1018.6        454.506292    441.224307    393.342075    388.348672    0.000000      2008-01-16T21:00:40.00Z  
2100.9994   75660   43.3746  -70.2016  219.0    9.1    5.283      32.518     1018.6        455.189155    441.880351    nd            nd            0.000000      2008-01-16T21:00:59.96Z  
2101.3334   75680   43.3734  -70.2030  220.0    8.9    5.291      32.512     1018.6        456.095510    442.758371    nd            nd            0.000000      2008-01-16T21:01:20.00Z  
2101.6661   75700   43.3722  -70.2044  220.0    8.9    5.290      32.504     1018.6        456.981658    443.618692    393.294401    388.293164    0.000000      2008-01-16T21:01:39.97Z  
2102.0002   75720   43.3709  -70.2058  216.0    8.9    5.279      32.499     1018.6        457.340342    443.969584    393.189816    388.191811    0.000000      2008-01-16T21:02:00.01Z  
2102.3328   75740   43.3697  -70.2072  219.0    8.9    5.277      32.500     1018.6        457.697835    444.317317    393.276285    388.278017    0.000000      2008-01-16T21:02:19.97Z  
2102.6669   75760   43.3684  -70.2086  221.0    9.1    5.281      32.501     1018.6        457.696698    444.315059    nd            nd            0.000000      2008-01-16T21:02:40.01Z  
2102.9995   75780   43.3672  -70.2102  222.0    9.2    5.289      32.500     1018.6        457.814898    444.427958    nd            nd            0.000000      2008-01-16T21:02:59.97Z  
2103.3336   75800   43.3659  -70.2116  218.0    9.0    5.289      32.498     1018.6        458.037465    444.643927    nd            nd            0.000000      2008-01-16T21:03:20.02Z  
2103.6662   75820   43.3647  -70.2130  218.0    8.9    5.289      32.496     1018.6        458.138943    444.742432    393.755028    388.747450    0.000000      2008-01-16T21:03:39.97Z  
2104.0003   75840   43.3635  -70.2144  222.0    9.0    5.294      32.491     1018.6        458.298272    444.895850    393.602322    388.595713    0.000000      2008-01-16T21:04:00.02Z  
2104.3330   75860   43.3623  -70.2159  221.0    8.8    5.287      32.490     1018.6        458.327593    444.926152    393.430328    388.427332    0.000000      2008-01-16T21:04:19.98Z  
2104.6670   75880   43.3611  -70.2173  220.0    8.7    5.289      32.491     1018.6        458.496115    445.089175    393.384044    388.381307    0.000000      2008-01-16T21:04:40.02Z  
2104.9997   75900   43.3599  -70.2187  223.0    8.6    5.289      32.486     1018.6        458.541900    445.133563    nd            nd            0.000000      2008-01-16T21:04:59.98Z  
2105.3338   75920   43.3588  -70.2202  225.0    8.8    5.278      32.482     1018.6        458.465445    445.062120    nd            nd            0.000000      2008-01-16T21:05:20.03Z  
2105.6664   75940   43.3576  -70.2218  222.0    9.3    5.273      32.477     1018.6        458.265131    444.868897    393.390022    388.390518    0.000000      2008-01-16T21:05:39.98Z  
2106.0005   75960   43.3564  -70.2233  221.0    8.9    5.260      32.474     1018.6        458.082628    444.695059    393.419729    388.423595    0.000000      2008-01-16T21:06:00.03Z  
2106.3331   75980   43.3552  -70.2247  222.0    9.1    5.246      32.467     1018.6        457.771076    444.396120    393.290788    388.297714    0.000000      2008-01-16T21:06:19.99Z  
2106.6672   76000   43.3540  -70.2262  223.0    9.0    5.231      32.456     1018.6        457.430950    444.069731    nd            nd            0.000000      2008-01-16T21:06:40.03Z  
2106.9998   76020   43.3528  -70.2277  216.0    9.0    5.202      32.444     1018.6        457.135988    443.790473    393.047363    388.068355    0.000000      2008-01-16T21:06:59.99Z  
2107.3339   76040   43.3516  -70.2292  225.0    9.1    5.187      32.437     1018.6        456.834788    443.501914    392.900597    387.924836    0.000000      2008-01-16T21:07:20.03Z  
2107.6666   76060   43.3504  -70.2307  223.0    8.9    5.178      32.431     1018.6        456.312233    442.996705    nd            nd            0.000000      2008-01-16T21:07:40.00Z  
2108.0006   76080   43.3492  -70.2322  224.0    8.9    5.177      32.424     1018.6        456.086382    442.777829    nd            nd            0.000000      2008-01-16T21:08:00.04Z  
2108.3333   76100   43.3481  -70.2337  222.0    8.9    5.180      32.420     1018.6        455.776780    442.476516    392.973657    387.999373    0.000000      2008-01-16T21:08:20.00Z  
2108.6674   76120   43.3469  -70.2352  226.0    9.1    5.170      32.417     1018.6        455.873916    442.573217    nd            nd            0.000000      2008-01-16T21:08:40.04Z  
2109.0000   76140   43.3458  -70.2367  220.0    8.3    5.173      32.413     1018.6        456.159674    442.849759    392.678919    387.708959    0.000000      2008-01-16T21:09:00.00Z  
2109.3326   76160   43.3447  -70.2381  222.0    8.4    5.163      32.411     1018.6        456.679063    443.356585    392.574411    387.607762    0.000000      2008-01-16T21:09:19.96Z  
2109.6667   76180   43.3435  -70.2395  221.0    8.9    5.150      32.410     1018.6        457.181386    443.847615    nd            nd            0.000000      2008-01-16T21:09:40.00Z  
2109.9994   76200   43.3423  -70.2410  219.0    9.0    5.140      32.409     1018.6        457.354661    444.018298    392.634876    387.673404    0.000000      2008-01-16T21:09:59.96Z  
2110.3334   76220   43.3410  -70.2423  214.0    9.1    5.139      32.411     1018.6        457.277789    443.943917    392.726380    387.763682    0.000000      2008-01-16T21:10:20.00Z  
2110.6661   76240   43.3398  -70.2437  226.0    8.9    5.142      32.407     1018.6        456.890630    443.567263    392.659189    387.696867    0.000000      2008-01-16T21:10:39.97Z  
2111.0002   76260   43.3386  -70.2453  222.0    8.8    5.122      32.393     1018.6        456.556521    443.247888    nd            nd            0.000000      2008-01-16T21:11:00.01Z  
2111.3328   76280   43.3375  -70.2468  222.0    9.0    5.075      32.375     1018.6        456.274149    442.985340    392.372784    387.434122    0.000000      2008-01-16T21:11:19.97Z  
2111.6669   76300   43.3363  -70.2484  226.0    9.4    5.019      32.362     1018.6        455.908696    442.644216    392.314058    387.380598    0.000000      2008-01-16T21:11:40.01Z  
2111.9995   76320   43.3352  -70.2500  225.0    9.0    4.978      32.354     1018.6        455.020431    441.791978    392.684556    387.755631    0.000000      2008-01-16T21:11:59.97Z  
2112.3336   76340   43.3340  -70.2516  225.0    9.0    4.949      32.344     1018.6        453.832400    440.645458    nd            nd            0.000000      2008-01-16T21:12:20.02Z  
2112.5165   76351   43.3334  -70.2525  226.0    9.4    4.938      32.338     1018.6        452.860258    439.704341    nd            nd            0.000000      2008-01-16T21:12:30.99Z  
nd          nd      nd       nd        nd       nd     nd         nd         nd            nd            nd            nd            nd            nd            nd                
nd          nd      nd       nd        nd       nd     nd         nd         nd            nd            nd            nd            nd            nd            nd                
nd          nd      nd       nd        nd       nd     nd         nd         nd            nd            nd            nd            nd            nd            nd                
2114.0328   76442   43.3278  -70.2587  216.0    8.9    4.875      32.266     1021.4        449.073203    437.242085    nd            nd            0.000000      2008-01-16T21:14:01.97Z  
2114.3338   76460   43.3266  -70.2599  214.0    9.3    4.849      32.249     1021.3        448.927687    437.090658    392.371294    388.524386    0.000000      2008-01-16T21:14:20.03Z  
2114.6664   76480   43.3253  -70.2611  216.0    8.9    4.821      32.240     1021.4        448.449187    436.644312    392.350726    388.522092    0.000000      2008-01-16T21:14:39.98Z  
2115.0005   76500   43.3239  -70.2624  216.0    9.0    4.820      32.234     1021.3        448.209083    436.400204    392.209984    388.358376    0.000000      2008-01-16T21:15:00.03Z  
2115.3331   76520   43.3226  -70.2637  217.0    9.0    4.820      32.231     1021.4        447.973001    436.181670    392.530476    388.718981    0.000000      2008-01-16T21:15:19.99Z  
2115.6672   76540   43.3213  -70.2648  207.0    8.9    4.814      32.232     1021.4        448.005588    436.245606    392.466384    388.673280    0.000000      2008-01-16T21:15:40.03Z  
2115.9998   76560   43.3199  -70.2660  218.0    8.8    4.815      32.228     1021.4        448.179071    436.411924    nd            nd            0.000000      2008-01-16T21:15:59.99Z  
2116.3339   76580   43.3187  -70.2673  219.0    9.1    4.822      32.233     1021.4        448.177938    436.388635    392.198396    388.399397    0.000000      2008-01-16T21:16:20.03Z  
2116.6666   76600   43.3176  -70.2688  228.0    8.6    4.827      32.235     1021.4        448.186375    436.383531    nd            nd            0.000000      2008-01-16T21:16:40.00Z  
2117.0006   76620   43.3167  -70.2707  239.0    9.0    4.841      32.234     1021.4        448.305601    436.514362    nd            nd            0.000000      2008-01-16T21:17:00.04Z  
2117.3333   76640   43.3156  -70.2722  222.0    9.0    4.840      32.229     1021.4        448.652748    436.858814    nd            nd            0.000000      2008-01-16T21:17:20.00Z  
2117.6674   76660   43.3143  -70.2736  215.0    9.2    4.821      32.207     1021.4        449.124525    437.333120    392.341304    388.537837    0.000000      2008-01-16T21:17:40.04Z  
2118.0000   76680   43.3129  -70.2748  211.0    9.2    4.786      32.209     1021.5        449.740815    437.951815    391.981839    388.193089    0.000000      2008-01-16T21:18:00.00Z  
2118.3326   76700   43.3116  -70.2762  218.0    9.1    4.762      32.213     1021.5        451.513931    439.678338    nd            nd            0.000000      2008-01-16T21:18:19.96Z  
2118.6667   76720   43.3103  -70.2774  211.0    9.0    4.755      32.213     1021.5        450.814048    439.011231    nd            nd            0.000000      2008-01-16T21:18:40.00Z  
2118.9994   76740   43.3090  -70.2788  225.0    9.2    4.754      32.214     1021.4        449.543890    437.743079    nd            nd            0.000000      2008-01-16T21:18:59.96Z  
2119.3334   76760   43.3078  -70.2803  215.0    8.8    4.760      32.214     1021.5        448.439422    436.686319    nd            nd            0.000000      2008-01-16T21:19:20.00Z  
2119.6661   76780   43.3065  -70.2816  221.0    9.0    4.749      32.217     1021.5        447.556784    435.829015    nd            nd            0.000000      2008-01-16T21:19:39.97Z  
2120.0002   76800   43.3052  -70.2830  211.0    9.1    4.749      32.217     1021.5        447.114606    435.419306    nd            nd            0.000000      2008-01-16T21:20:00.01Z  
2120.3328   76820   43.3039  -70.2843  219.0    8.9    4.768      32.220     1021.5        446.418566    434.716337    392.641350    388.876880    0.000000      2008-01-16T21:20:19.97Z  
2120.6669   76840   43.3027  -70.2856  219.0    9.1    4.792      32.227     1021.4        445.916422    434.213362    392.104379    388.292953    0.000000      2008-01-16T21:20:40.01Z  
2120.9995   76860   43.3014  -70.2870  214.0    9.0    4.826      32.220     1021.5        445.851467    434.158140    nd            nd            0.000000      2008-01-16T21:20:59.97Z  
2121.3336   76880   43.3001  -70.2884  223.0    8.8    4.797      32.188     1021.5        446.451196    434.742817    392.089731    388.304138    0.000000      2008-01-16T21:21:20.02Z  
2121.6662   76900   43.2989  -70.2898  219.0    8.8    4.768      32.165     1021.5        447.262517    435.550688    392.605292    388.838930    0.000000      2008-01-16T21:21:39.97Z  
2122.0003   76920   43.2976  -70.2911  215.0    9.3    4.753      32.157     1021.5        447.412812    435.707667    392.273279    388.507955    0.000000      2008-01-16T21:22:00.02Z  
2122.3330   76940   43.2963  -70.2924  216.0    8.9    4.743      32.146     1021.5        447.607781    435.906099    392.167317    388.422735    0.000000      2008-01-16T21:22:19.98Z  
2122.6670   76960   43.2951  -70.2939  224.0    8.9    4.736      32.140     1021.5        447.550560    435.840632    nd            nd            0.000000      2008-01-16T21:22:40.02Z  
2122.9997   76980   43.2938  -70.2953  216.0    8.9    4.732      32.138     1021.5        447.397664    435.713054    392.129417    388.383361    0.000000      2008-01-16T21:22:59.98Z  
2123.3338   77000   43.2926  -70.2966  218.0    9.0    4.726      32.131     1021.6        447.519100    435.843871    392.187108    388.464118    0.000000      2008-01-16T21:23:20.03Z  
2123.6664   77020   43.2913  -70.2979  212.0    9.0    4.726      32.127     1021.6        447.605124    435.940119    392.273921    388.550544    0.000000      2008-01-16T21:23:39.98Z  
2124.0005   77040   43.2899  -70.2991  213.0    9.0    4.725      32.121     1021.6        447.728547    436.054533    392.354504    388.624162    0.000000      2008-01-16T21:24:00.03Z  
2124.3331   77060   43.2886  -70.3003  219.0    9.0    4.725      32.116     1021.6        447.877485    436.195465    392.233758    388.502816    0.000000      2008-01-16T21:24:19.99Z  
2124.6672   77080   43.2873  -70.3017  215.0    9.1    4.725      32.113     1021.6        447.850161    436.172978    392.307928    388.580633    0.000000      2008-01-16T21:24:40.03Z  
2124.9998   77100   43.2860  -70.3031  220.0    9.1    4.726      32.109     1021.6        447.806764    436.131790    392.294524    388.567397    0.000000      2008-01-16T21:24:59.99Z  
2125.3339   77120   43.2848  -70.3045  222.0    8.8    4.719      32.106     1021.6        447.640758    435.967966    392.073543    388.354017    0.000000      2008-01-16T21:25:20.03Z  
2125.6666   77140   43.2836  -70.3060  217.0    9.0    4.713      32.109     1021.6        447.406750    435.754920    392.313954    388.599200    0.000000      2008-01-16T21:25:40.00Z  
2126.0006   77160   43.2822  -70.3073  214.0    9.2    4.716      32.110     1021.6        447.232385    435.591875    392.317018    388.606544    0.000000      2008-01-16T21:26:00.04Z  
2126.3333   77180   43.2810  -70.3087  219.0    9.0    4.719      32.106     1021.6        446.880548    435.242307    nd            nd            0.000000      2008-01-16T21:26:20.00Z  
2126.6674   77200   43.2797  -70.3101  222.0    8.8    4.722      32.111     1021.6        446.567022    434.948318    392.289523    388.590720    0.000000      2008-01-16T21:26:40.04Z  
2127.0000   77220   43.2784  -70.3114  210.0    8.9    4.724      32.112     1021.7        446.376056    434.770498    392.273791    388.575216    0.000000      2008-01-16T21:27:00.00Z  
2127.3326   77240   43.2771  -70.3126  220.0    8.9    4.726      32.118     1021.6        446.507052    434.880883    392.338533    388.622952    0.000000      2008-01-16T21:27:19.96Z  
2127.6667   77260   43.2759  -70.3141  222.0    9.1    4.728      32.121     1021.6        446.395812    434.774490    392.385122    388.672939    0.000000      2008-01-16T21:27:40.00Z  
2127.9994   77280   43.2748  -70.3158  228.0    9.1    4.729      32.121     1021.6        446.502355    434.865098    392.257949    388.532567    0.000000      2008-01-16T21:27:59.96Z  
2128.3334   77300   43.2737  -70.3174  225.0    9.0    4.728      32.119     1021.6        446.720583    435.087533    392.387062    388.670066    0.000000      2008-01-16T21:28:20.00Z  
2128.6661   77320   43.2725  -70.3190  226.0    9.2    4.729      32.123     1021.6        446.759997    435.125121    392.351960    388.636660    0.000000      2008-01-16T21:28:39.97Z  
2129.0002   77340   43.2714  -70.3206  227.0    9.1    4.727      32.126     1021.7        446.684951    435.068424    392.420985    388.715589    0.000000      2008-01-16T21:29:00.01Z  
2129.3328   77360   43.2703  -70.3222  224.0    9.0    4.729      32.128     1021.6        446.742498    435.109031    nd            nd            0.000000      2008-01-16T21:29:19.97Z  
2129.6669   77380   43.2691  -70.3238  226.0    9.1    4.732      32.129     1021.7        446.823730    435.217374    392.354351    388.665327    0.000000      2008-01-16T21:29:40.01Z  
2129.9995   77400   43.2681  -70.3255  229.0    9.0    4.730      32.133     1021.7        446.844785    435.228512    392.319675    388.621831    0.000000      2008-01-16T21:29:59.97Z  
2130.3336   77420   43.2670  -70.3271  226.0    8.9    4.738      32.136     1021.6        447.068250    435.435311    392.488416    388.777885    0.000000      2008-01-16T21:30:20.02Z  
2130.6662   77440   43.2659  -70.3288  229.0    9.1    4.742      32.140     1021.6        447.079659    435.442163    392.575885    388.867594    0.000000      2008-01-16T21:30:39.97Z  
2131.0003   77460   43.2649  -70.3304  228.0    8.9    4.742      32.144     1021.7        447.201716    435.567516    392.355766    388.641619    0.000000      2008-01-16T21:31:00.02Z  
2131.3330   77480   43.2637  -70.3321  226.0    9.0    4.745      32.145     1021.6        447.375580    435.734521    nd            nd            0.000000      2008-01-16T21:31:19.98Z  
2131.6670   77500   43.2626  -70.3337  227.0    9.0    4.748      32.143     1021.7        447.298189    435.659776    392.568047    388.861356    0.000000      2008-01-16T21:31:40.02Z  
2131.9997   77520   43.2615  -70.3353  225.0    8.9    4.746      32.147     1021.7        447.299958    435.663963    392.698097    388.989517    0.000000      2008-01-16T21:31:59.98Z  
2132.3338   77540   43.2603  -70.3368  223.0    9.1    4.743      32.147     1021.7        447.291099    435.665067    392.700812    389.001522    0.000000      2008-01-16T21:32:20.03Z  
2132.6664   77560   43.2592  -70.3384  224.0    8.8    4.744      32.149     1021.7        447.378046    435.748881    392.777233    389.075696    0.000000      2008-01-16T21:32:39.98Z  
2133.0005   77580   43.2581  -70.3400  228.0    9.0    4.745      32.150     1021.7        447.318205    435.702291    392.772605    389.081130    0.000000      2008-01-16T21:33:00.03Z  
2133.3331   77600   43.2570  -70.3416  225.0    9.0    4.749      32.152     1021.7        447.251033    435.628153    392.729637    389.031741    0.000000      2008-01-16T21:33:19.99Z  
2133.6672   77620   43.2558  -70.3432  226.0    9.1    4.742      32.154     1021.7        447.340244    435.704752    392.873286    389.166454    0.000000      2008-01-16T21:33:40.03Z  
2133.9998   77640   43.2547  -70.3447  226.0    9.0    4.731      32.159     1021.7        447.329825    435.728263    nd            nd            0.000000      2008-01-16T21:33:59.99Z  
2134.3339   77660   43.2536  -70.3463  224.0    8.9    4.727      32.163     1021.8        447.275376    435.687342    392.585703    388.919538    0.000000      2008-01-16T21:34:20.03Z  
2134.6666   77680   43.2524  -70.3479  224.0    9.1    4.735      32.165     1021.8        447.116520    435.540692    392.589119    388.927150    0.000000      2008-01-16T21:34:40.00Z  
2135.0006   77700   43.2513  -70.3494  223.0    8.7    4.733      32.170     1021.8        446.944325    435.380419    392.377081    388.726019    0.000000      2008-01-16T21:35:00.04Z  
2135.3333   77720   43.2502  -70.3510  228.0    9.2    4.742      32.173     1021.8        446.829946    435.273573    392.638454    388.991403    0.000000      2008-01-16T21:35:20.00Z  
2135.6674   77740   43.2491  -70.3527  225.0    9.0    4.746      32.175     1021.8        446.723758    435.173367    392.576605    388.931857    0.000000      2008-01-16T21:35:40.04Z  
2136.0000   77760   43.2479  -70.3542  222.0    9.0    4.746      32.178     1021.8        446.801007    435.238285    392.402139    388.751400    0.000000      2008-01-16T21:36:00.00Z  
2136.3326   77780   43.2468  -70.3558  227.0    9.0    4.746      32.180     1021.8        446.666892    435.100587    nd            nd            0.000000      2008-01-16T21:36:19.96Z  
2136.6667   77800   43.2456  -70.3573  220.0    8.9    4.744      32.180     1021.8        446.589420    435.045697    392.452843    388.815842    0.000000      2008-01-16T21:36:40.00Z  
2136.9994   77820   43.2444  -70.3589  228.0    9.0    4.744      32.181     1021.8        446.528534    434.967170    392.621604    388.961136    0.000000      2008-01-16T21:36:59.96Z  
2137.3334   77840   43.2434  -70.3605  227.0    8.9    4.742      32.184     1021.8        446.438133    434.889524    392.580743    388.939821    0.000000      2008-01-16T21:37:20.00Z  
2137.6661   77860   43.2423  -70.3621  224.0    8.9    4.741      32.197     1021.8        446.171731    434.640158    392.700664    389.065837    0.000000      2008-01-16T21:37:39.97Z  
2138.0002   77880   43.2411  -70.3637  223.0    9.1    4.749      32.201     1021.8        445.913947    434.388483    392.417063    388.779119    0.000000      2008-01-16T21:38:00.01Z  
2138.3328   77900   43.2400  -70.3652  224.0    9.0    4.755      32.202     1021.8        445.622978    434.091704    392.354584    388.703839    0.000000      2008-01-16T21:38:19.97Z  
2138.6669   77920   43.2388  -70.3668  225.0    9.0    4.755      32.203     1021.8        445.508167    433.997321    392.529790    388.893172    0.000000      2008-01-16T21:38:40.01Z  
2138.9995   77940   43.2377  -70.3683  222.0    8.8    4.759      32.205     1021.9        445.388899    433.901562    392.382642    388.766453    0.000000      2008-01-16T21:38:59.97Z  
2139.3336   77960   43.2365  -70.3699  226.0    9.2    4.768      32.205     1021.8        445.343409    433.830607    392.729550    389.082253    0.000000      2008-01-16T21:39:20.02Z  
2139.6662   77980   43.2353  -70.3715  223.0    9.2    4.769      32.207     1021.8        445.336618    433.824919    nd            nd            0.000000      2008-01-16T21:39:39.97Z  
2140.0003   78000   43.2341  -70.3730  220.0    9.0    4.768      32.207     1021.9        445.400141    433.898447    392.235608    388.614067    0.000000      2008-01-16T21:40:00.02Z  
2140.3330   78020   43.2329  -70.3744  218.0    9.1    4.767      32.209     1021.9        445.376012    433.875079    392.245122    388.617133    0.000000      2008-01-16T21:40:19.98Z  
2140.6670   78040   43.2316  -70.3759  228.0    9.2    4.772      32.210     1021.8        445.303698    433.791789    392.405097    388.767374    0.000000      2008-01-16T21:40:40.02Z  
2140.9997   78060   43.2306  -70.3776  224.0    8.9    4.774      32.210     1021.9        445.253130    433.764431    392.100017    388.479376    0.000000      2008-01-16T21:40:59.98Z  
2141.3338   78080   43.2294  -70.3791  225.0    9.1    4.778      32.210     1021.9        445.267285    433.764928    392.292287    388.657636    0.000000      2008-01-16T21:41:20.03Z  
2141.6664   78100   43.2283  -70.3807  225.0    9.1    4.767      32.194     1021.8        445.336881    433.829630    391.975725    388.343738    0.000000      2008-01-16T21:41:39.98Z  
2142.0005   78120   43.2272  -70.3824  225.0    8.9    4.746      32.183     1021.9        445.292694    433.807672    nd            nd            0.000000      2008-01-16T21:42:00.03Z  
2142.3331   78140   43.2260  -70.3838  220.0    9.0    4.732      32.176     1021.9        445.044930    433.579808    392.214054    388.607062    0.000000      2008-01-16T21:42:19.99Z  
2142.6672   78160   43.2248  -70.3853  227.0    8.9    4.723      32.173     1021.9        444.856086    433.383399    392.199897    388.584966    0.000000      2008-01-16T21:42:40.03Z  
2142.9998   78180   43.2237  -70.3870  226.0    9.0    4.717      32.176     1021.9        444.659685    433.202223    392.158687    388.552032    0.000000      2008-01-16T21:42:59.99Z  
2143.3339   78200   43.2225  -70.3885  222.0    9.1    4.710      32.179     1021.9        444.346536    432.893648    392.130356    388.522729    0.000000      2008-01-16T21:43:20.03Z  
2143.6666   78220   43.2213  -70.3900  220.0    9.3    4.716      32.181     1021.9        444.353684    432.908508    392.040997    388.442122    0.000000      2008-01-16T21:43:40.00Z  
2144.0006   78240   43.2201  -70.3916  226.0    8.9    4.720      32.187     1021.9        443.999528    432.545473    391.862565    388.242926    0.000000      2008-01-16T21:44:00.04Z  
2144.3333   78260   43.2190  -70.3931  221.0    9.2    4.735      32.193     1021.9        443.923474    432.483308    392.106566    388.499452    0.000000      2008-01-16T21:44:20.00Z  
2144.6674   78280   43.2177  -70.3947  226.0    9.2    4.757      32.196     1021.9        444.049512    432.604520    392.104148    388.499456    0.000000      2008-01-16T21:44:40.04Z  
2145.0000   78300   43.2166  -70.3964  224.0    9.2    4.768      32.197     1022.0        444.494034    433.057433    392.121023    388.532107    0.000000      2008-01-16T21:45:00.00Z  
2145.3326   78320   43.2154  -70.3979  225.0    9.0    4.771      32.201     1021.9        445.154305    433.685304    392.203825    388.601895    0.000000      2008-01-16T21:45:19.96Z  
2145.6667   78340   43.2143  -70.3995  224.0    9.0    4.772      32.200     1021.9        445.886798    434.405205    nd            nd            0.000000      2008-01-16T21:45:40.00Z  
2145.9994   78360   43.2132  -70.4011  228.0    9.0    4.778      32.199     1021.9        446.425141    434.911967    nd            nd            0.000000      2008-01-16T21:45:59.96Z  
2146.3334   78380   43.2122  -70.4029  231.0    8.9    4.772      32.196     1022.0        446.718482    435.218325    392.239938    388.654581    0.000000      2008-01-16T21:46:20.00Z  
2146.6661   78400   43.2110  -70.4044  218.0    9.0    4.763      32.199     1022.0        446.853498    435.378898    392.223331    388.653210    0.000000      2008-01-16T21:46:39.97Z  
2147.0002   78420   43.2098  -70.4057  216.0    8.7    4.765      32.202     1022.0        446.849473    435.364719    392.192564    388.612379    0.000000      2008-01-16T21:47:00.01Z  
2147.3328   78440   43.2085  -70.4070  217.0    8.9    4.768      32.200     1022.0        446.678771    435.220350    392.264047    388.704332    0.000000      2008-01-16T21:47:19.97Z  
2147.6669   78460   43.2072  -70.4083  214.0    8.9    4.772      32.198     1022.0        446.534154    435.077641    392.250622    388.688023    0.000000      2008-01-16T21:47:40.01Z  
2147.9995   78480   43.2059  -70.4095  213.0    8.8    4.781      32.198     1022.0        446.511092    435.055360    392.129654    388.585008    0.000000      2008-01-16T21:47:59.97Z  
2148.3336   78500   43.2046  -70.4108  219.0    9.0    4.789      32.199     1022.0        446.423760    434.950494    392.241560    388.665471    0.000000      2008-01-16T21:48:20.02Z  
2148.6662   78520   43.2034  -70.4123  224.0    8.9    4.794      32.204     1022.1        446.310342    434.860180    392.229184    388.664443    0.000000      2008-01-16T21:48:39.97Z  
2149.0003   78540   43.2022  -70.4138  219.0    8.9    4.791      32.209     1022.1        446.306358    434.871758    392.218906    388.670609    0.000000      2008-01-16T21:49:00.02Z  
2149.3330   78560   43.2009  -70.4151  216.0    9.0    4.796      32.211     1022.1        446.629767    435.171498    392.333480    388.773502    0.000000      2008-01-16T21:49:19.98Z  
2149.6670   78580   43.1997  -70.4166  226.0    9.3    4.801      32.211     1022.1        446.951991    435.488272    392.355000    388.794692    0.000000      2008-01-16T21:49:40.02Z  
2149.9997   78600   43.1986  -70.4183  224.0    9.1    4.804      32.212     1022.1        447.290032    435.818335    392.418031    388.856894    0.000000      2008-01-16T21:49:59.98Z  
2150.3338   78620   43.1974  -70.4197  220.0    8.9    4.797      32.217     1022.1        447.651532    436.188439    392.319378    388.777659    0.000000      2008-01-16T21:50:20.03Z  
2150.6664   78640   43.1962  -70.4212  224.0    9.0    4.812      32.220     1022.1        447.746475    436.278041    392.361371    388.816961    0.000000      2008-01-16T21:50:39.98Z  
2151.0005   78660   43.1950  -70.4227  219.0    8.7    4.837      32.225     1022.1        448.058373    436.585471    392.383232    388.840441    0.000000      2008-01-16T21:51:00.03Z  
2151.3331   78680   43.1938  -70.4241  220.0    9.0    4.838      32.225     1022.2        448.860914    437.375024    392.344255    388.808151    0.000000      2008-01-16T21:51:19.99Z  
2151.6672   78700   43.1926  -70.4255  219.0    9.1    4.850      32.225     1022.2        449.885756    438.374368    392.205331    388.674184    0.000000      2008-01-16T21:51:40.03Z  
2151.9998   78720   43.1913  -70.4270  221.0    9.0    4.851      32.219     1022.2        450.641291    439.111290    nd            nd            0.000000      2008-01-16T21:51:59.99Z  
2152.3339   78740   43.1902  -70.4285  228.0    9.0    4.848      32.220     1022.1        451.449156    439.886703    nd            nd            0.000000      2008-01-16T21:52:20.03Z  
2152.6666   78760   43.1891  -70.4302  225.0    9.0    4.852      32.214     1022.2        451.923009    440.359597    nd            nd            0.000000      2008-01-16T21:52:40.00Z  
2153.0006   78780   43.1880  -70.4317  223.0    9.0    4.829      32.210     1022.2        452.412046    440.843873    392.200628    388.664907    0.000000      2008-01-16T21:53:00.04Z  
2153.3333   78800   43.1868  -70.4333  225.0    9.1    4.813      32.205     1022.1        452.565487    440.976556    nd            nd            0.000000      2008-01-16T21:53:20.00Z  
2153.6674   78820   43.1857  -70.4349  226.0    8.8    4.783      32.203     1022.1        452.367242    440.791645    nd            nd            0.000000      2008-01-16T21:53:40.04Z  
2154.0000   78840   43.1846  -70.4364  224.0    8.9    4.765      32.202     1022.1        452.145711    440.581570    392.883727    389.347985    0.000000      2008-01-16T21:54:00.00Z  
2154.3326   78860   43.1834  -70.4379  225.0    8.7    4.760      32.202     1022.1        451.937980    440.388676    392.445242    388.919642    0.000000      2008-01-16T21:54:19.96Z  
2154.6667   78880   43.1823  -70.4394  221.0    8.8    4.767      32.202     1022.2        451.993653    440.447467    392.347548    388.823891    0.000000      2008-01-16T21:54:40.00Z  
2154.9994   78900   43.1811  -70.4408  221.0    8.9    4.766      32.198     1022.2        452.320284    440.772344    392.517371    389.002096    0.000000      2008-01-16T21:54:59.96Z  
2155.3334   78920   43.1799  -70.4423  218.0    9.0    4.747      32.192     1022.2        452.270924    440.722016    nd            nd            0.000000      2008-01-16T21:55:20.00Z  
2155.6661   78940   43.1788  -70.4439  235.0    8.8    4.729      32.186     1022.2        452.376128    440.843258    nd            nd            0.000000      2008-01-16T21:55:39.97Z  
2156.0002   78960   43.1778  -70.4455  221.0    8.9    4.726      32.181     1022.2        451.948485    440.438035    392.632379    389.119480    0.000000      2008-01-16T21:56:00.01Z  
2156.3328   78980   43.1765  -70.4469  218.0    9.0    4.700      32.176     1022.2        451.474655    439.989184    392.536306    389.002302    0.000000      2008-01-16T21:56:19.97Z  
2156.6669   79000   43.1753  -70.4482  220.0    8.6    4.654      32.159     1022.3        451.054065    439.617533    nd            nd            0.000000      2008-01-16T21:56:40.01Z  
2156.9995   79020   43.1740  -70.4495  211.0    8.8    4.627      32.148     1022.4        450.469792    439.082879    nd            nd            0.000000      2008-01-16T21:56:59.97Z  
2157.3336   79040   43.1727  -70.4508  223.0    9.0    4.612      32.140     1022.4        449.475647    438.116241    392.773755    389.350120    0.000000      2008-01-16T21:57:20.02Z  
2157.6662   79060   43.1717  -70.4524  228.0    8.9    4.608      32.133     1022.4        448.530396    437.197020    392.908563    389.496932    0.000000      2008-01-16T21:57:39.97Z  
2158.0003   79080   43.1706  -70.4540  227.0    9.0    4.591      32.132     1022.4        447.667907    436.360393    nd            nd            0.000000      2008-01-16T21:58:00.02Z  
2158.3330   79100   43.1696  -70.4557  231.0    8.8    4.571      32.129     1022.4        446.830625    435.570941    392.674881    389.284781    0.000000      2008-01-16T21:58:19.98Z  
2158.6670   79120   43.1685  -70.4573  224.0    8.9    4.563      32.130     1022.4        446.335105    435.092045    392.766997    389.385319    0.000000      2008-01-16T21:58:40.02Z  
2158.9997   79140   43.1673  -70.4588  222.0    8.8    4.548      32.128     1022.5        445.854520    434.644092    393.005783    389.613323    0.000000      2008-01-16T21:58:59.98Z  
2159.3338   79160   43.1662  -70.4603  218.0    8.7    4.542      32.124     1022.5        445.657199    434.470597    nd            nd            0.000000      2008-01-16T21:59:20.03Z  
2159.6506   79179   43.1650  -70.4616  224.0    8.8    4.540      32.123     1022.5        445.673955    434.476552    nd            nd            0.000000      2008-01-16T21:59:39.04Z  
2200.0005   79200   43.1637  -70.4631  218.0    9.2    4.541      32.122     1022.5        445.661708    434.478592    nd            nd            -0.150000     2008-01-16T22:00:00.03Z  
2200.3331   79220   43.1625  -70.4646  225.0    8.8    4.534      32.122     1022.5        445.662341    434.491859    nd            nd            -0.300000     2008-01-16T22:00:19.99Z  
2200.6672   79240   43.1614  -70.4662  226.0    8.9    4.541      32.120     1022.5        445.730477    434.540903    392.640414    389.295579    -0.300000     2008-01-16T22:00:40.03Z  
2200.9998   79260   43.1603  -70.4677  221.0    9.0    4.549      32.119     1022.6        445.754929    434.591425    392.598969    389.278213    -0.300000     2008-01-16T22:00:59.99Z  
2201.3339   79280   43.1591  -70.4691  218.0    9.0    4.532      32.121     1022.6        445.691108    434.548781    nd            nd            -0.300000     2008-01-16T22:01:20.03Z  
2201.6666   79300   43.1577  -70.4704  212.0    9.1    4.532      32.123     1022.6        445.687851    434.546765    nd            nd            -0.300000     2008-01-16T22:01:40.00Z  
2202.0006   79320   43.1563  -70.4715  211.0    9.0    4.531      32.123     1022.6        445.809807    434.675696    nd            nd            -0.300000     2008-01-16T22:02:00.04Z  
2202.3333   79340   43.1550  -70.4728  221.0    9.0    4.529      32.122     1022.6        445.754534    434.617674    nd            nd            -0.300000     2008-01-16T22:02:20.00Z  
2202.6674   79360   43.1538  -70.4743  220.0    9.0    4.536      32.122     1022.6        445.624333    434.503291    nd            nd            -0.300000     2008-01-16T22:02:40.04Z  
2203.0000   79380   43.1526  -70.4758  219.0    9.2    4.537      32.126     1022.6        445.820143    434.693316    392.637591    389.353689    -0.300000     2008-01-16T22:03:00.00Z  
2203.3326   79400   43.1514  -70.4773  227.0    8.7    4.532      32.128     1022.7        445.654234    434.559000    nd            nd            -0.300000     2008-01-16T22:03:19.96Z  
2203.6667   79420   43.1503  -70.4788  224.0    8.9    4.536      32.129     1022.7        445.690216    434.595569    nd            nd            -0.300000     2008-01-16T22:03:40.00Z  
2203.9994   79440   43.1492  -70.4803  223.0    8.9    4.546      32.130     1022.7        445.536800    434.455967    nd            nd            -0.300000     2008-01-16T22:03:59.96Z  
2204.3334   79460   43.1480  -70.4819  223.0    8.8    4.543      32.133     1022.7        445.474802    434.390755    nd            nd            -0.300000     2008-01-16T22:04:20.00Z  
2204.6661   79480   43.1468  -70.4834  222.0    9.0    4.554      32.138     1022.7        445.536380    434.443888    nd            nd            -0.300000     2008-01-16T22:04:39.97Z  
2205.0002   79500   43.1457  -70.4848  224.0    8.8    4.549      32.141     1022.7        445.370955    434.293945    nd            nd            -0.300000     2008-01-16T22:05:00.01Z  
2205.3328   79520   43.1445  -70.4864  222.0    9.0    4.560      32.149     1022.7        445.316961    434.236740    nd            nd            -0.300000     2008-01-16T22:05:19.97Z  
2205.6669   79540   43.1433  -70.4879  222.0    9.1    4.571      32.152     1022.7        445.463378    434.379576    nd            nd            -0.300000     2008-01-16T22:05:40.01Z  
2205.9995   79560   43.1422  -70.4895  225.0    9.0    4.576      32.156     1022.8        445.391482    434.330491    nd            nd            -0.300000     2008-01-16T22:05:59.97Z  
2206.3336   79580   43.1410  -70.4910  223.0    9.1    4.573      32.160     1022.8        445.501272    434.441343    nd            nd            -0.300000     2008-01-16T22:06:20.02Z  
2206.6662   79600   43.1397  -70.4924  217.0    8.8    4.569      32.162     1022.8        445.593479    434.542094    nd            nd            -0.300000     2008-01-16T22:06:39.97Z  
2207.0003   79620   43.1385  -70.4938  222.0    9.0    4.563      32.161     1022.8        445.639235    434.569237    392.576112    389.346529    -0.300000     2008-01-16T22:07:00.02Z  
2207.3330   79640   43.1374  -70.4954  226.0    8.9    4.556      32.160     1022.8        445.629472    434.565704    nd            nd            -0.300000     2008-01-16T22:07:19.98Z  
2207.6670   79660   43.1362  -70.4969  221.0    8.9    4.556      32.166     1022.8        445.649903    434.587576    nd            nd            -0.300000     2008-01-16T22:07:40.02Z  
2207.9997   79680   43.1350  -70.4984  222.0    9.1    4.558      32.171     1022.8        445.824698    434.771893    nd            nd            -0.300000     2008-01-16T22:07:59.98Z  
2208.3338   79700   43.1338  -70.4999  223.0    8.7    4.561      32.180     1022.9        445.710854    434.672473    nd            nd            -0.300000     2008-01-16T22:08:20.03Z  
2208.6664   79720   43.1326  -70.5013  218.0    9.0    4.565      32.174     1022.8        445.966028    434.912488    nd            nd            -0.300000     2008-01-16T22:08:39.98Z  
2209.0005   79740   43.1314  -70.5028  222.0    8.9    4.556      32.170     1022.8        447.056964    435.970544    nd            nd            -0.300000     2008-01-16T22:09:00.03Z  
2209.3331   79760   43.1303  -70.5043  226.0    9.0    4.548      32.166     1022.8        448.588324    437.456593    nd            nd            -0.300000     2008-01-16T22:09:19.99Z  
2209.6672   79780   43.1291  -70.5058  219.0    9.0    4.533      32.161     1022.9        449.951341    438.809618    nd            nd            -0.300000     2008-01-16T22:09:40.03Z  
2209.9998   79800   43.1279  -70.5073  226.0    9.0    4.515      32.159     1022.9        451.112194    439.947962    nd            nd            -0.300000     2008-01-16T22:09:59.99Z  
2210.3339   79820   43.1268  -70.5089  228.0    9.1    4.516      32.155     1022.8        452.015420    440.820421    nd            nd            -0.300000     2008-01-16T22:10:20.03Z  
2210.6666   79840   43.1257  -70.5106  226.0    9.0    4.516      32.159     1022.9        452.573905    441.372192    nd            nd            -0.300000     2008-01-16T22:10:40.00Z  
2211.0006   79860   43.1245  -70.5121  224.0    8.8    4.512      32.156     1022.8        452.812192    441.599288    nd            nd            -0.300000     2008-01-16T22:11:00.04Z  
2211.3333   79880   43.1235  -70.5136  224.0    8.7    4.492      32.149     1022.9        452.956049    441.765299    nd            nd            -0.300000     2008-01-16T22:11:20.00Z  
2211.6674   79900   43.1223  -70.5152  225.0    9.0    4.494      32.147     1022.8        452.816522    441.593059    nd            nd            -0.300000     2008-01-16T22:11:40.04Z  
2212.0000   79920   43.1211  -70.5167  220.0    9.2    4.489      32.140     1022.8        452.603071    441.394128    392.725398    389.504596    -0.300000     2008-01-16T22:12:00.00Z  
2212.3326   79940   43.1198  -70.5180  214.0    9.0    4.476      32.139     1022.8        452.076975    440.894636    nd            nd            -0.300000     2008-01-16T22:12:19.96Z  
2212.6667   79960   43.1184  -70.5193  215.0    9.1    4.487      32.139     1022.8        451.524367    440.340044    nd            nd            -0.300000     2008-01-16T22:12:40.00Z  
2212.9994   79980   43.1171  -70.5207  217.0    9.1    4.472      32.140     1022.8        450.937045    439.783289    392.951392    389.724698    -0.300000     2008-01-16T22:12:59.96Z  
2213.3334   80000   43.1158  -70.5220  220.0    9.1    4.464      32.145     1022.8        450.683627    439.528668    392.805110    389.597733    -0.300000     2008-01-16T22:13:20.00Z  
2213.6661   80020   43.1146  -70.5235  221.0    8.9    4.476      32.146     1022.9        450.583656    439.442265    392.786319    389.594357    -0.300000     2008-01-16T22:13:39.97Z  
2214.0002   80040   43.1134  -70.5249  218.0    9.3    4.482      32.144     1022.8        450.511301    439.357983    nd            nd            -0.300000     2008-01-16T22:14:00.01Z  
2214.3328   80060   43.1121  -70.5264  222.0    9.2    4.476      32.138     1022.8        450.691667    439.534457    nd            nd            -0.300000     2008-01-16T22:14:19.97Z  
2214.6669   80080   43.1108  -70.5279  220.0    9.1    4.484      32.129     1022.8        450.775696    439.617635    nd            nd            -0.300000     2008-01-16T22:14:40.01Z  
2214.9995   80100   43.1097  -70.5294  221.0    8.9    4.460      32.128     1022.9        450.623947    439.486756    393.081934    389.882889    -0.300000     2008-01-16T22:14:59.97Z  
2215.3336   80120   43.1084  -70.5308  223.0    9.1    4.442      32.127     1022.8        450.256114    439.122497    393.234223    390.037034    -0.300000     2008-01-16T22:15:20.02Z  
2215.6662   80140   43.1073  -70.5323  221.0    9.0    4.429      32.108     1022.9        450.057767    438.942387    393.241382    390.054385    -0.300000     2008-01-16T22:15:39.97Z  
2216.0003   80160   43.1060  -70.5338  220.0    9.3    4.403      32.093     1022.8        449.843559    438.723396    nd            nd            -0.300000     2008-01-16T22:16:00.02Z  
2216.3330   80180   43.1048  -70.5353  226.0    9.0    4.352      32.084     1022.9        449.194063    438.141113    393.696140    390.538552    -0.300000     2008-01-16T22:16:19.98Z  
2216.6670   80200   43.1037  -70.5369  223.0    9.1    4.328      32.071     1022.9        448.477025    437.452081    nd            nd            -0.300000     2008-01-16T22:16:40.02Z  
2216.9997   80220   43.1025  -70.5385  225.0    8.8    4.319      32.060     1022.9        447.375889    436.383535    nd            nd            -0.300000     2008-01-16T22:16:59.98Z  
2217.3338   80240   43.1015  -70.5400  227.0    8.9    4.290      32.047     1022.9        446.463434    435.497770    nd            nd            -0.300000     2008-01-16T22:17:20.03Z  
2217.6664   80260   43.1003  -70.5416  223.0    9.0    4.280      32.041     1023.0        445.559228    434.627794    393.558982    390.431598    -0.300000     2008-01-16T22:17:39.98Z  
2218.0005   80280   43.0992  -70.5432  224.0    8.9    4.264      32.036     1022.9        444.627419    433.713028    393.749014    390.618653    -0.300000     2008-01-16T22:18:00.03Z  
2218.3331   80300   43.0980  -70.5447  220.0    9.4    4.244      32.027     1022.9        443.881592    432.990881    nd            nd            -0.300000     2008-01-16T22:18:19.99Z  
2218.6672   80320   43.0966  -70.5462  221.0    9.3    4.208      32.022     1022.9        443.331473    432.454732    nd            nd            -0.300000     2008-01-16T22:18:40.03Z  
2218.9998   80340   43.0955  -70.5478  228.0    8.8    4.183      32.015     1023.0        442.736425    431.903629    394.158942    391.061924    -0.300000     2008-01-16T22:18:59.99Z  
2219.3339   80360   43.0944  -70.5493  218.0    9.0    4.171      32.007     1023.0        442.135434    431.320399    nd            nd            -0.300000     2008-01-16T22:19:20.03Z  
2219.6666   80380   43.0931  -70.5506  219.0    8.9    4.156      32.000     1023.0        441.562196    430.770559    nd            nd            -0.300000     2008-01-16T22:19:40.00Z  
2220.0006   80400   43.0919  -70.5521  219.0    9.0    4.156      31.987     1023.0        440.823098    430.043745    nd            nd            -0.300000     2008-01-16T22:20:00.04Z  
2220.3333   80420   43.0906  -70.5534  216.0    8.9    4.149      31.981     1023.0        440.407343    429.664444    nd            nd            -0.300000     2008-01-16T22:20:20.00Z  
2220.6674   80440   43.0893  -70.5548  218.0    9.1    4.140      31.987     1023.0        440.056466    429.310433    nd            nd            -0.300000     2008-01-16T22:20:40.04Z  
2221.0000   80460   43.0880  -70.5562  219.0    9.3    4.135      31.983     1023.0        439.627803    428.878472    nd            nd            -0.300000     2008-01-16T22:21:00.00Z  
2221.3326   80480   43.0867  -70.5577  217.0    9.6    4.124      31.979     1023.0        439.250580    428.514000    nd            nd            -0.300000     2008-01-16T22:21:19.96Z  
2221.6667   80500   43.0854  -70.5591  218.0    8.9    4.119      31.978     1023.0        438.810414    428.107321    nd            nd            -0.300000     2008-01-16T22:21:40.00Z  
2221.9994   80520   43.0841  -70.5605  219.0    9.3    4.117      31.978     1022.9        438.574513    427.847732    394.437162    391.324699    -0.300000     2008-01-16T22:21:59.96Z  
2222.3334   80540   43.0828  -70.5619  215.0    9.2    4.118      31.977     1023.0        438.338725    427.634239    nd            nd            -0.300000     2008-01-16T22:22:20.00Z  
2222.6661   80560   43.0815  -70.5632  217.0    9.1    4.109      31.966     1023.0        438.166873    427.478522    nd            nd            -0.300000     2008-01-16T22:22:39.97Z  
2223.0002   80580   43.0802  -70.5646  215.0    9.1    4.111      31.952     1023.0        438.082371    427.386300    nd            nd            -0.300000     2008-01-16T22:23:00.01Z  
2223.3328   80600   43.0789  -70.5659  217.0    8.8    4.102      31.940     1023.0        437.931270    427.255088    nd            nd            -0.300000     2008-01-16T22:23:19.97Z  
2223.6669   80620   43.0776  -70.5672  219.0    9.0    4.093      31.919     1023.0        437.771628    427.102248    nd            nd            -0.300000     2008-01-16T22:23:40.01Z  
2223.9995   80640   43.0764  -70.5686  219.0    8.9    4.082      31.916     1023.0        437.270454    426.622473    nd            nd            -0.300000     2008-01-16T22:23:59.97Z  
2224.3336   80660   43.0751  -70.5700  217.0    9.1    4.080      31.909     1023.0        436.741813    426.093855    nd            nd            -0.300000     2008-01-16T22:24:20.02Z  
2224.6662   80680   43.0739  -70.5714  220.0    8.5    4.080      31.901     1023.1        436.108441    425.503341    nd            nd            -0.300000     2008-01-16T22:24:39.97Z  
2225.0003   80700   43.0728  -70.5729  229.0    8.8    4.073      31.895     1023.0        435.450263    424.840113    nd            nd            -0.300000     2008-01-16T22:25:00.02Z  
2225.3330   80720   43.0720  -70.5747  242.0    9.0    4.074      31.896     1023.0        435.039996    424.424525    nd            nd            -0.300000     2008-01-16T22:25:19.98Z  
2225.6670   80740   43.0714  -70.5768  250.0    8.7    4.078      31.890     1023.1        434.512860    423.949921    nd            nd            -0.300000     2008-01-16T22:25:40.02Z  
2225.9997   80760   43.0710  -70.5788  257.0    8.7    4.090      31.878     1023.1        433.923215    423.363464    nd            nd            -0.300000     2008-01-16T22:25:59.98Z  
2226.3338   80780   43.0706  -70.5809  253.0    8.9    4.100      31.875     1023.1        433.402153    422.859710    nd            nd            -0.300000     2008-01-16T22:26:20.03Z  
2226.6664   80800   43.0701  -70.5830  251.0    9.0    4.109      31.874     1023.1        433.117182    422.581488    nd            nd            -0.300000     2008-01-16T22:26:39.98Z  
2227.0005   80820   43.0696  -70.5852  254.0    9.1    4.120      31.868     1023.1        432.757824    422.235446    nd            nd            -0.300000     2008-01-16T22:27:00.03Z  
2227.3331   80840   43.0693  -70.5873  256.0    8.8    4.113      31.860     1023.1        432.541184    422.028328    nd            nd            -0.300000     2008-01-16T22:27:19.99Z  
2227.6672   80860   43.0689  -70.5895  258.0    9.1    4.119      31.851     1023.1        432.272272    421.767064    nd            nd            -0.300000     2008-01-16T22:27:40.03Z  
2227.9998   80880   43.0686  -70.5916  256.0    8.9    4.108      31.839     1023.1        432.166164    421.668420    393.067481    390.045576    -0.300000     2008-01-16T22:27:59.99Z  
2228.3339   80900   43.0682  -70.5938  255.0    8.9    4.096      31.816     1023.1        432.063308    421.579312    nd            nd            -0.300000     2008-01-16T22:28:20.03Z  
2228.6666   80920   43.0679  -70.5960  261.0    9.4    4.086      31.809     1023.1        431.841983    421.354087    nd            nd            -0.300000     2008-01-16T22:28:40.00Z  
2229.0006   80940   43.0675  -70.5982  254.0    8.9    4.055      31.811     1023.2        431.569677    421.131557    nd            nd            -0.300000     2008-01-16T22:29:00.04Z  
2229.3333   80960   43.0672  -70.6003  258.0    9.0    4.036      31.810     1023.2        431.280860    420.861115    nd            nd            -0.300000     2008-01-16T22:29:20.00Z  
2229.6674   80980   43.0668  -70.6025  254.0    8.9    4.041      31.796     1023.2        430.764459    420.347418    nd            nd            -0.300000     2008-01-16T22:29:40.04Z  
2230.0000   81000   43.0664  -70.6046  256.0    9.0    4.043      31.786     1023.2        430.686516    420.276390    nd            nd            -0.300000     2008-01-16T22:30:00.00Z  
2230.3326   81020   43.0661  -70.6068  260.0    8.7    4.047      31.786     1023.2        430.593039    420.194224    nd            nd            -0.300000     2008-01-16T22:30:19.96Z  
2230.6667   81040   43.0657  -70.6089  256.0    8.8    4.051      31.785     1023.3        430.420694    420.037601    nd            nd            -0.300000     2008-01-16T22:30:40.00Z  
2230.9994   81060   43.0654  -70.6110  258.0    8.7    4.048      31.781     1023.2        430.467214    420.076545    nd            nd            -0.300000     2008-01-16T22:30:59.96Z  
2231.3334   81080   43.0651  -70.6131  259.0    8.7    4.052      31.773     1023.3        430.520727    420.152189    nd            nd            -0.300000     2008-01-16T22:31:20.00Z  
2231.6661   81100   43.0648  -70.6152  259.0    8.8    4.060      31.764     1023.3        430.442053    420.071586    nd            nd            -0.300000     2008-01-16T22:31:39.97Z  
2232.0002   81120   43.0645  -70.6173  257.0    8.7    4.072      31.762     1023.3        430.316358    419.948545    nd            nd            -0.300000     2008-01-16T22:32:00.01Z  
2232.3328   81140   43.0641  -70.6194  254.0    8.9    4.070      31.779     1023.3        430.081476    419.712874    nd            nd            -0.300000     2008-01-16T22:32:19.97Z  
2232.6669   81160   43.0636  -70.6215  250.0    8.8    4.064      31.790     1023.3        429.974523    419.623765    nd            nd            -0.300000     2008-01-16T22:32:40.01Z  
2232.9995   81180   43.0631  -70.6236  251.0    9.0    4.061      31.793     1023.3        430.220498    419.862957    nd            nd            -0.300000     2008-01-16T22:32:59.97Z  
2233.3336   81200   43.0625  -70.6256  248.0    8.7    4.056      31.797     1023.4        430.580654    420.230682    393.301196    390.363519    -0.300000     2008-01-16T22:33:20.02Z  
2233.6662   81220   43.0620  -70.6276  251.0    9.0    4.046      31.799     1023.3        430.843899    420.478346    nd            nd            -0.300000     2008-01-16T22:33:39.97Z  
2234.0003   81240   43.0615  -70.6298  250.0    9.0    4.029      31.805     1023.3        430.940060    420.565242    nd            nd            -0.300000     2008-01-16T22:34:00.02Z  
2234.3330   81260   43.0609  -70.6318  247.0    8.7    4.005      31.807     1023.4        431.067505    420.718483    nd            nd            -0.300000     2008-01-16T22:34:19.98Z  
2234.6670   81280   43.0604  -70.6339  252.0    9.1    3.992      31.804     1023.3        431.497832    421.130238    nd            nd            -0.300000     2008-01-16T22:34:40.02Z  
2234.9997   81300   43.0599  -70.6360  255.0    8.9    3.997      31.791     1023.4        431.809130    421.453174    nd            nd            -0.300000     2008-01-16T22:34:59.98Z  
2235.3338   81320   43.0596  -70.6381  259.0    9.0    3.983      31.788     1023.3        431.919225    421.542912    nd            nd            -0.300000     2008-01-16T22:35:20.03Z  
2235.6664   81340   43.0593  -70.6403  255.0    8.9    3.980      31.785     1023.4        431.907944    421.548374    nd            nd            -0.300000     2008-01-16T22:35:39.98Z  
2236.0005   81360   43.0588  -70.6424  251.0    9.0    3.981      31.783     1023.4        431.752795    421.392740    nd            nd            -0.300000     2008-01-16T22:36:00.03Z  
2236.3331   81380   43.0583  -70.6445  252.0    8.9    3.974      31.783     1023.4        431.527095    421.183777    393.696831    390.801566    -0.300000     2008-01-16T22:36:19.99Z  
2236.6672   81400   43.0578  -70.6466  252.0    8.9    3.968      31.787     1023.4        431.425442    421.096408    393.486223    390.594284    -0.300000     2008-01-16T22:36:40.03Z  
2236.9998   81420   43.0574  -70.6487  257.0    8.9    3.967      31.793     1023.5        431.355972    421.051347    393.588877    390.718557    -0.300000     2008-01-16T22:36:59.99Z  
2237.3339   81440   43.0571  -70.6508  253.0    8.3    3.979      31.793     1023.5        431.355439    421.076067    393.750984    390.924072    -0.300000     2008-01-16T22:37:20.03Z  
2237.6666   81460   43.0565  -70.6527  248.0    8.8    3.991      31.791     1023.4        431.507900    421.179724    nd            nd            -0.300000     2008-01-16T22:37:40.00Z  
2238.0006   81480   43.0560  -70.6549  257.0    9.1    3.996      31.784     1023.4        431.656015    421.327253    nd            nd            -0.300000     2008-01-16T22:38:00.04Z  
2238.3333   81500   43.0557  -70.6570  254.0    8.8    3.988      31.784     1023.5        431.780237    421.476997    nd            nd            -0.300000     2008-01-16T22:38:20.00Z  
2238.6674   81520   43.0551  -70.6590  246.0    8.5    3.977      31.780     1023.5        431.707032    421.424304    nd            nd            -0.300000     2008-01-16T22:38:40.04Z  
2239.0000   81540   43.0545  -70.6609  245.0    8.6    3.965      31.776     1023.6        431.582174    421.311894    nd            nd            -0.300000     2008-01-16T22:39:00.00Z  
2239.3326   81560   43.0539  -70.6629  250.0    8.6    3.955      31.772     1023.6        431.009578    420.765201    nd            nd            -0.300000     2008-01-16T22:39:19.96Z  
2239.6667   81580   43.0534  -70.6649  253.0    8.7    3.936      31.767     1023.6        430.212878    419.996365    nd            nd            -0.300000     2008-01-16T22:39:40.00Z  
2239.9994   81600   43.0531  -70.6670  257.0    8.8    3.926      31.762     1023.6        429.366303    419.184951    nd            nd            -0.300000     2008-01-16T22:39:59.96Z  
2240.3334   81620   43.0527  -70.6691  255.0    8.8    3.908      31.759     1023.6        428.679016    418.515949    nd            nd            -0.300000     2008-01-16T22:40:20.00Z  
2240.6661   81640   43.0522  -70.6712  254.0    8.9    3.891      31.756     1023.6        428.322508    418.151074    nd            nd            -0.300000     2008-01-16T22:40:39.97Z  
2241.0002   81660   43.0518  -70.6733  252.0    8.9    3.881      31.752     1023.6        428.165457    418.002385    nd            nd            -0.300000     2008-01-16T22:41:00.01Z  
2241.3328   81680   43.0513  -70.6754  251.0    9.2    3.864      31.746     1023.6        428.121104    417.966121    nd            nd            -0.300000     2008-01-16T22:41:19.97Z  
2241.6669   81700   43.0508  -70.6776  253.0    9.1    3.851      31.744     1023.6        428.377933    418.239232    nd            nd            -0.300000     2008-01-16T22:41:40.01Z  
2241.9995   81720   43.0503  -70.6797  251.0    8.8    3.833      31.740     1023.7        428.704022    418.573746    395.772132    392.992146    -0.300000     2008-01-16T22:41:59.97Z  
2242.3336   81740   43.0498  -70.6817  250.0    8.7    3.811      31.735     1023.7        428.973699    418.841089    395.817757    393.035441    -0.300000     2008-01-16T22:42:20.02Z  
2242.6662   81760   43.0493  -70.6837  249.0    8.9    3.792      31.731     1023.6        429.209926    419.070714    nd            nd            -0.300000     2008-01-16T22:42:39.97Z  
2243.0003   81780   43.0487  -70.6858  251.0    8.9    3.768      31.726     1023.7        429.230128    419.100247    nd            nd            -0.300000     2008-01-16T22:43:00.02Z  
2243.3330   81800   43.0482  -70.6879  251.0    8.8    3.750      31.726     1023.7        429.348850    419.233445    nd            nd            -0.300000     2008-01-16T22:43:19.98Z  
2243.6670   81820   43.0478  -70.6900  257.0    8.8    3.743      31.724     1023.7        429.350926    419.252851    nd            nd            -0.300000     2008-01-16T22:43:40.02Z  
2243.9997   81840   43.0477  -70.6921  273.0    8.9    3.731      31.721     1023.7        429.339802    419.251358    nd            nd            -0.300000     2008-01-16T22:43:59.98Z  
2244.3338   81860   43.0479  -70.6943  283.0    8.7    3.707      31.675     1023.7        429.234357    419.152459    nd            nd            -0.300000     2008-01-16T22:44:20.03Z  
2244.6664   81880   43.0485  -70.6962  296.0    8.6    3.605      31.228     1023.8        429.157930    419.110992    nd            nd            -0.300000     2008-01-16T22:44:39.98Z  
2245.0005   81900   43.0493  -70.6980  308.0    8.6    3.486      31.010     1023.8        428.756849    418.739423    nd            nd            -0.300000     2008-01-16T22:45:00.03Z  
2245.3331   81920   43.0504  -70.6994  325.0    8.7    3.416      30.920     1023.7        427.570786    417.584404    394.957428    392.291877    -0.300000     2008-01-16T22:45:19.99Z  
2245.6672   81940   43.0519  -70.7003  342.0    8.7    3.359      30.691     1023.7        425.688862    415.743473    394.958691    392.278795    -0.300000     2008-01-16T22:45:40.03Z  
2245.9998   81960   43.0534  -70.7009  342.0    8.8    3.311      30.493     1023.7        423.985767    414.105493    394.531663    391.898932    -0.300000     2008-01-16T22:45:59.99Z  
2246.3339   81980   43.0549  -70.7016  342.0    8.8    3.287      30.492     1023.8        422.021980    412.213952    394.530856    391.909885    -0.300000     2008-01-16T22:46:20.03Z  
2246.6666   82000   43.0564  -70.7022  344.0    8.9    3.278      30.511     1023.8        420.151136    410.389314    nd            nd            -0.300000     2008-01-16T22:46:40.00Z  
2247.0006   82020   43.0580  -70.7027  347.0    8.9    3.286      30.578     1023.8        418.688537    408.979077    394.084277    391.487427    -0.300000     2008-01-16T22:47:00.04Z  
2247.3333   82040   43.0596  -70.7032  349.0    8.9    3.311      30.711     1023.8        417.438521    407.746846    394.343210    391.732880    -0.300000     2008-01-16T22:47:20.00Z  
2247.6674   82060   43.0611  -70.7036  349.0    9.0    3.343      30.842     1023.9        416.715681    407.047115    394.313462    391.717010    -0.300000     2008-01-16T22:47:40.04Z  
2248.0000   82080   43.0627  -70.7039  352.0    9.0    3.369      30.919     1023.9        416.740369    407.060868    nd            nd            -0.300000     2008-01-16T22:48:00.00Z  
2248.3326   82100   43.0644  -70.7042  354.0    9.0    3.393      31.014     1023.9        417.033191    407.353883    394.567701    391.955549    -0.300000     2008-01-16T22:48:19.96Z  
2248.6667   82120   43.0660  -70.7044  353.0    9.0    3.422      31.114     1023.9        417.626959    407.925120    394.536689    391.920680    -0.300000     2008-01-16T22:48:40.00Z  
2248.9994   82140   43.0676  -70.7046  354.0    9.1    3.444      31.187     1023.9        418.301298    408.574243    nd            nd            -0.300000     2008-01-16T22:48:59.96Z  
2249.3334   82160   43.0692  -70.7049  353.0    9.1    3.463      31.237     1023.9        419.015555    409.273832    394.372975    391.749944    -0.300000     2008-01-16T22:49:20.00Z  
2249.6661   82180   43.0708  -70.7051  350.0    8.9    3.478      31.271     1023.9        419.673580    409.924607    nd            nd            -0.300000     2008-01-16T22:49:39.97Z  
2250.0002   82200   43.0723  -70.7057  335.0    7.8    3.493      31.295     1024.0        420.277379    410.532450    nd            nd            -0.300000     2008-01-16T22:50:00.01Z  
2250.3328   82220   43.0733  -70.7066  321.0    5.8    3.507      31.316     1024.0        420.886063    411.155091    nd            nd            -0.300000     2008-01-16T22:50:19.97Z  
2250.6669   82240   43.0740  -70.7075  314.0    4.7    3.471      30.409     1024.0        421.233818    411.505615    nd            nd            -0.300000     2008-01-16T22:50:40.01Z  
2250.9995   82260   43.0746  -70.7083  308.0    4.6    3.159      27.683     1024.1        421.451712    411.786950    nd            nd            -0.300000     2008-01-16T22:50:59.97Z  
2251.3336   82280   43.0750  -70.7093  284.0    4.6    2.904      26.930     1024.1        419.467540    409.900413    nd            nd            -0.300000     2008-01-16T22:51:20.02Z  
2251.6662   82300   43.0750  -70.7104  268.0    4.7    2.798      26.843     1024.1        413.248128    403.834182    nd            nd            -0.300000     2008-01-16T22:51:39.97Z  
=========================
date      month  day  year  day_of_year  
-------------------------
20080416  04     16   2008  107          
=========================
time        secDay  lat      lon       heading  speed  temp       sal        pressure_atm  xCO2_w        fCO2_w        xCO2_a        fCO2_a        air_temp      ISO_DateTime_UTC  
-------------------------
1107.5840   40055   43.0765  -70.7497  150.0    0.1    nd         nd         1024.9        nd            nd            nd            nd            4.000000      2008-04-16T11:07:35.04Z  
1107.9166   40075   43.0767  -70.7498  333.0    2.2    nd         nd         1024.9        nd            nd            nd            nd            4.000000      2008-04-16T11:07:55.00Z  
1108.2334   40094   43.0771  -70.7500  344.0    3.4    nd         nd         1024.9        nd            nd            nd            nd            4.000000      2008-04-16T11:08:14.00Z  
1108.5834   40115   43.0778  -70.7501  149.0    3.6    nd         nd         1024.9        nd            nd            nd            nd            4.000000      2008-04-16T11:08:35.00Z  
1108.9160   40135   43.0782  -70.7496  66.0     3.6    nd         nd         1024.9        nd            nd            nd            nd            4.000000      2008-04-16T11:08:54.96Z  
1109.2501   40155   43.0784  -70.7487  78.0     3.8    nd         nd         1024.9        nd            nd            nd            nd            4.000000      2008-04-16T11:09:15.01Z  
1109.5827   40175   43.0785  -70.7477  85.0     4.2    nd         nd         1024.9        nd            nd            nd            nd            4.000000      2008-04-16T11:09:34.96Z  
1109.9168   40195   43.0785  -70.7467  95.0     3.8    nd         nd         1024.9        nd            nd            nd            nd            4.000000      2008-04-16T11:09:55.01Z  
1110.2494   40215   43.0783  -70.7458  110.0    3.6    nd         nd         1024.9        nd            nd            nd            nd            4.000000      2008-04-16T11:10:14.96Z  
1110.5835   40235   43.0781  -70.7450  105.0    3.5    nd         nd         1024.9        nd            nd            nd            nd            4.000000      2008-04-16T11:10:35.01Z  
1110.9162   40255   43.0780  -70.7441  106.0    3.5    nd         nd         1024.9        nd            nd            nd            nd            4.000000      2008-04-16T11:10:54.97Z  
1111.2502   40275   43.0777  -70.7434  118.0    3.4    nd         nd         1024.9        nd            nd            nd            nd            4.000000      2008-04-16T11:11:15.01Z  
1111.5829   40295   43.0774  -70.7426  127.0    3.6    nd         nd         1024.9        nd            nd            nd            nd            4.000000      2008-04-16T11:11:34.97Z  
1111.9170   40315   43.0769  -70.7420  147.0    3.7    nd         nd         1024.9        nd            nd            nd            nd            4.000000      2008-04-16T11:11:55.02Z  
1112.2496   40335   43.0763  -70.7415  145.0    3.7    nd         nd         1024.9        nd            nd            nd            nd            4.000000      2008-04-16T11:12:14.98Z  
1112.5837   40355   43.0758  -70.7410  142.0    3.5    nd         nd         1024.9        nd            nd            nd            nd            4.000000      2008-04-16T11:12:35.02Z  
1112.9163   40375   43.0752  -70.7405  145.0    3.8    nd         nd         1024.9        nd            nd            nd            nd            4.000000      2008-04-16T11:12:54.98Z  
1113.2504   40395   43.0747  -70.7399  139.0    3.9    nd         nd         1024.9        nd            nd            nd            nd            4.000000      2008-04-16T11:13:15.02Z  
1113.5830   40415   43.0743  -70.7392  117.0    4.1    nd         nd         1024.9        nd            nd            nd            nd            4.000000      2008-04-16T11:13:34.98Z  
1113.9171   40435   43.0739  -70.7383  119.0    4.2    nd         nd         1024.9        nd            nd            nd            nd            4.000000      2008-04-16T11:13:55.03Z  
1114.2498   40455   43.0735  -70.7374  115.0    4.1    nd         nd         1025.0        nd            nd            nd            nd            4.000000      2008-04-16T11:14:14.99Z  
1114.5838   40475   43.0734  -70.7364  88.0     4.2    nd         nd         1024.9        nd            nd            nd            nd            4.000000      2008-04-16T11:14:35.03Z  
1114.9165   40495   43.0734  -70.7353  87.0     4.2    nd         nd         1024.9        nd            nd            nd            nd            4.000000      2008-04-16T11:14:54.99Z  
1115.2506   40515   43.0735  -70.7343  88.0     4.3    nd         nd         1025.0        nd            nd            nd            nd            4.000000      2008-04-16T11:15:15.04Z  
1115.5832   40535   43.0735  -70.7332  86.0     4.3    nd         nd         1025.0        nd            nd            nd            nd            4.000000      2008-04-16T11:15:34.99Z  
1115.9173   40555   43.0736  -70.7322  82.0     4.3    nd         nd         1025.0        nd            nd            nd            nd            4.000000      2008-04-16T11:15:55.04Z  
1116.2499   40575   43.0736  -70.7311  85.0     4.3    nd         nd         1025.0        nd            nd            nd            nd            4.000000      2008-04-16T11:16:14.99Z  
1116.5840   40595   43.0737  -70.7300  80.0     4.4    nd         nd         1025.0        nd            nd            nd            nd            4.000000      2008-04-16T11:16:35.04Z  
1116.9166   40615   43.0739  -70.7290  81.0     4.5    nd         nd         1025.0        nd            nd            nd            nd            4.000000      2008-04-16T11:16:55.00Z  
1117.2507   40635   43.0740  -70.7278  83.0     4.6    nd         nd         1025.0        nd            nd            nd            nd            4.000000      2008-04-16T11:17:15.04Z  
1117.5834   40655   43.0740  -70.7267  85.0     4.8    nd         nd         1025.0        nd            nd            nd            nd            4.000000      2008-04-16T11:17:35.00Z  
1117.9160   40675   43.0741  -70.7255  82.0     4.7    nd         nd         1025.0        nd            nd            nd            nd            4.000000      2008-04-16T11:17:54.96Z  
1118.2501   40695   43.0742  -70.7244  83.0     4.6    nd         nd         1025.0        nd            nd            nd            nd            4.000000      2008-04-16T11:18:15.01Z  
1118.5827   40715   43.0743  -70.7232  86.0     4.6    nd         nd         1025.0        nd            nd            nd            nd            4.000000      2008-04-16T11:18:34.96Z  
1118.9168   40735   43.0743  -70.7221  88.0     4.6    nd         nd         1025.0        nd            nd            nd            nd            4.000000      2008-04-16T11:18:55.01Z  
1119.2494   40755   43.0743  -70.7209  85.0     4.7    nd         nd         1025.0        nd            nd            nd            nd            4.000000      2008-04-16T11:19:14.96Z  
1119.5835   40775   43.0744  -70.7198  87.0     4.7    nd         nd         1025.0        nd            nd            nd            nd            4.000000      2008-04-16T11:19:35.01Z  
1119.9162   40795   43.0744  -70.7186  85.0     4.7    nd         nd         1025.0        nd            nd            nd            nd            4.000000      2008-04-16T11:19:54.97Z  
1120.2502   40815   43.0745  -70.7174  83.0     4.7    nd         nd         1025.0        nd            nd            nd            nd            4.000000      2008-04-16T11:20:15.01Z  
1120.5829   40835   43.0746  -70.7163  81.0     4.8    nd         nd         1025.0        nd            nd            nd            nd            4.000000      2008-04-16T11:20:34.97Z  
1120.9170   40855   43.0747  -70.7151  84.0     5.1    nd         nd         1025.0        nd            nd            nd            nd            4.000000      2008-04-16T11:20:55.02Z  
1121.2496   40875   43.0748  -70.7138  92.0     5.1    nd         nd         1025.0        nd            nd            nd            nd            4.000000      2008-04-16T11:21:14.98Z  
1121.5837   40895   43.0747  -70.7125  93.0     5.0    nd         nd         1025.0        nd            nd            nd            nd            4.000000      2008-04-16T11:21:35.02Z  
1121.9163   40915   43.0746  -70.7113  94.0     4.9    nd         nd         1025.0        nd            nd            nd            nd            4.000000      2008-04-16T11:21:54.98Z  
1122.2504   40935   43.0744  -70.7101  107.0    5.0    nd         nd         1025.0        nd            nd            nd            nd            4.000000      2008-04-16T11:22:15.02Z  
1122.5830   40955   43.0740  -70.7090  128.0    5.2    nd         nd         1025.0        nd            nd            nd            nd            4.000000      2008-04-16T11:22:34.98Z  
1122.9171   40975   43.0733  -70.7082  143.0    5.2    nd         nd         1025.0        nd            nd            nd            nd            4.000000      2008-04-16T11:22:55.03Z  
1123.2498   40995   43.0725  -70.7075  151.0    5.2    nd         nd         1025.0        nd            nd            nd            nd            4.000000      2008-04-16T11:23:14.99Z  
1123.5838   41015   43.0716  -70.7070  157.0    5.2    nd         nd         1025.0        nd            nd            nd            nd            4.000000      2008-04-16T11:23:35.03Z  
1123.9165   41035   43.0707  -70.7066  165.0    5.8    nd         nd         1024.9        nd            nd            nd            nd            4.000000      2008-04-16T11:23:54.99Z  
1124.2506   41055   43.0695  -70.7062  170.0    6.7    nd         nd         1024.9        nd            nd            nd            nd            4.000000      2008-04-16T11:24:15.04Z  
1124.5832   41075   43.0682  -70.7060  171.0    7.4    nd         nd         1024.9        nd            nd            nd            nd            4.000000      2008-04-16T11:24:34.99Z  
1124.9173   41095   43.0669  -70.7057  172.0    7.6    nd         nd         1024.9        nd            nd            nd            nd            4.000000      2008-04-16T11:24:55.04Z  
1125.2499   41115   43.0656  -70.7054  169.0    7.5    nd         nd         1024.9        nd            nd            nd            nd            4.000000      2008-04-16T11:25:14.99Z  
1125.5840   41135   43.0642  -70.7050  167.0    7.8    nd         nd         1024.9        nd            nd            nd            nd            4.000000      2008-04-16T11:25:35.04Z  
1125.9166   41155   43.0628  -70.7046  166.0    7.9    nd         nd         1024.9        nd            nd            nd            nd            4.000000      2008-04-16T11:25:55.00Z  
1126.2493   41175   43.0615  -70.7040  160.0    7.7    nd         nd         1024.9        nd            nd            nd            nd            4.000000      2008-04-16T11:26:14.96Z  
1126.5834   41195   43.0602  -70.7033  156.0    7.8    nd         nd         1024.9        nd            nd            nd            nd            4.000000      2008-04-16T11:26:35.00Z  
1126.9160   41215   43.0589  -70.7025  155.0    7.8    nd         nd         1024.9        nd            nd            nd            nd            4.000000      2008-04-16T11:26:54.96Z  
1127.2501   41235   43.0576  -70.7016  151.0    7.8    nd         nd         1024.9        nd            nd            nd            nd            4.000000      2008-04-16T11:27:15.01Z  
1127.5827   41255   43.0564  -70.7007  150.0    7.8    nd         nd         1024.9        nd            nd            nd            nd            4.000000      2008-04-16T11:27:34.96Z  
1127.9168   41275   43.0552  -70.6996  145.0    8.0    nd         nd         1024.9        nd            nd            nd            nd            4.000000      2008-04-16T11:27:55.01Z  
1128.2494   41295   43.0540  -70.6985  144.0    8.0    nd         nd         1024.9        nd            nd            nd            nd            4.000000      2008-04-16T11:28:14.96Z  
1128.5835   41315   43.0528  -70.6973  143.0    8.1    nd         nd         1024.9        nd            nd            nd            nd            4.000000      2008-04-16T11:28:35.01Z  
1128.9162   41335   43.0517  -70.6962  142.0    8.1    nd         nd         1024.9        nd            nd            nd            nd            4.000000      2008-04-16T11:28:54.97Z  
1129.2502   41355   43.0505  -70.6948  137.0    8.2    nd         nd         1024.9        nd            nd            nd            nd            4.000000      2008-04-16T11:29:15.01Z  
1129.5829   41375   43.0495  -70.6934  131.0    8.2    nd         nd         1024.9        nd            nd            nd            nd            4.000000      2008-04-16T11:29:34.97Z  
1129.9170   41395   43.0487  -70.6917  110.0    8.2    nd         nd         1024.9        nd            nd            nd            nd            4.000000      2008-04-16T11:29:55.02Z  
1130.2496   41415   43.0487  -70.6897  79.0     8.1    nd         nd         1024.9        nd            nd            nd            nd            4.000000      2008-04-16T11:30:14.98Z  
1130.5837   41435   43.0492  -70.6878  70.0     8.1    nd         nd         1024.9        nd            nd            nd            nd            4.000000      2008-04-16T11:30:35.02Z  
1130.9163   41455   43.0496  -70.6859  73.0     8.1    5.281      26.467     1024.9        208.917002    200.560616    nd            nd            4.000000      2008-04-16T11:30:54.98Z  
1131.2504   41475   43.0500  -70.6840  74.0     8.1    5.274      26.949     1024.9        208.965454    200.609284    nd            nd            4.000000      2008-04-16T11:31:15.02Z  
1131.5830   41495   43.0504  -70.6821  75.0     8.0    5.218      28.150     1024.9        208.919422    200.571341    nd            nd            4.000000      2008-04-16T11:31:34.98Z  
1131.9171   41515   43.0507  -70.6802  77.0     8.1    5.156      28.941     1024.9        208.925694    200.586535    nd            nd            4.000000      2008-04-16T11:31:55.03Z  
1132.2498   41535   43.0511  -70.6782  73.0     8.0    5.105      29.806     1024.9        209.496222    201.141238    nd            nd            4.000000      2008-04-16T11:32:14.99Z  
1132.5838   41555   43.0517  -70.6764  60.0     8.0    5.089      30.006     1024.8        210.068597    201.687492    nd            nd            4.000000      2008-04-16T11:32:35.03Z  
1132.9165   41575   43.0525  -70.6748  53.0     8.0    5.084      30.098     1024.8        210.819520    202.403934    nd            nd            4.000000      2008-04-16T11:32:54.99Z  
1133.2506   41595   43.0533  -70.6732  51.0     8.0    5.085      30.165     1024.8        211.103956    202.679721    nd            nd            4.000000      2008-04-16T11:33:15.04Z  
1133.5832   41615   43.0542  -70.6717  52.0     8.0    5.100      30.287     1024.8        211.188407    202.761565    nd            nd            4.000000      2008-04-16T11:33:34.99Z  
1133.9173   41635   43.0551  -70.6701  53.0     7.9    5.132      30.290     1024.8        211.043714    202.619034    nd            nd            4.000000      2008-04-16T11:33:55.04Z  
1134.2499   41655   43.0559  -70.6686  51.0     8.0    5.158      30.300     1024.8        210.632891    202.222724    nd            nd            4.000000      2008-04-16T11:34:14.99Z  
1134.5840   41675   43.0569  -70.6671  47.0     8.0    5.170      30.291     1024.9        210.147749    201.757964    nd            nd            4.000000      2008-04-16T11:34:35.04Z  
1134.9166   41695   43.0579  -70.6657  47.0     7.9    5.202      30.284     1024.9        209.828337    201.447872    nd            nd            4.000000      2008-04-16T11:34:55.00Z  
1135.2493   41715   43.0588  -70.6642  48.0     7.9    5.221      30.296     1024.9        209.830083    201.450551    nd            nd            4.000000      2008-04-16T11:35:14.96Z  
1135.5834   41735   43.0598  -70.6628  47.0     7.9    5.214      30.330     1024.9        210.127217    201.738292    nd            nd            4.000000      2008-04-16T11:35:35.00Z  
1135.9160   41755   43.0608  -70.6614  43.0     7.9    5.191      30.354     1024.9        210.541328    202.140362    nd            nd            4.000000      2008-04-16T11:35:54.96Z  
1136.2501   41775   43.0618  -70.6601  42.0     7.9    5.186      30.343     1024.9        210.653399    202.248406    nd            nd            4.000000      2008-04-16T11:36:15.01Z  
1136.5827   41795   43.0629  -70.6588  41.0     8.0    5.184      30.360     1024.9        210.322597    201.933213    nd            nd            4.000000      2008-04-16T11:36:34.96Z  
1136.9168   41815   43.0640  -70.6575  40.0     8.0    5.185      30.386     1024.9        209.826866    201.456666    nd            nd            4.000000      2008-04-16T11:36:55.01Z  
1137.2494   41835   43.0651  -70.6562  41.0     8.0    5.184      30.421     1024.9        209.340055    200.987909    nd            nd            4.000000      2008-04-16T11:37:14.96Z  
1137.5835   41855   43.0661  -70.6549  41.0     8.0    5.193      30.426     1024.9        208.709230    200.381377    nd            nd            4.000000      2008-04-16T11:37:35.01Z  
1137.9162   41875   43.0672  -70.6536  40.0     8.0    5.219      30.415     1024.9        207.191495    198.919927    nd            nd            4.000000      2008-04-16T11:37:54.97Z  
1138.2502   41895   43.0683  -70.6523  39.0     8.1    5.216      30.401     1024.9        205.538369    197.336317    nd            nd            4.000000      2008-04-16T11:38:15.01Z  
1138.5829   41915   43.0695  -70.6512  32.0     8.0    5.229      30.355     1024.9        204.906188    196.728523    nd            nd            4.000000      2008-04-16T11:38:34.97Z  
1138.9170   41935   43.0708  -70.6502  28.0     8.0    5.268      30.328     1024.9        205.182289    196.991704    nd            nd            4.000000      2008-04-16T11:38:55.02Z  
1139.2496   41955   43.0721  -70.6493  26.0     8.2    5.291      30.351     1024.9        205.890635    197.667647    nd            nd            4.000000      2008-04-16T11:39:14.98Z  
1139.5837   41975   43.0734  -70.6484  25.0     8.1    5.289      30.374     1024.9        206.175514    197.937619    nd            nd            4.000000      2008-04-16T11:39:35.02Z  
1139.9163   41995   43.0747  -70.6475  30.0     8.0    5.295      30.398     1024.9        206.082074    197.850249    408.309883    405.618556    4.000000      2008-04-16T11:39:54.98Z  
1140.2504   42015   43.0759  -70.6465  25.0     8.1    5.301      30.417     1024.9        205.584337    197.365971    408.558804    405.843289    4.000000      2008-04-16T11:40:15.02Z  
1140.5830   42035   43.0772  -70.6456  28.0     8.1    5.288      30.441     1024.9        205.237700    197.034866    nd            nd            4.000000      2008-04-16T11:40:34.98Z  
1140.9171   42055   43.0785  -70.6446  29.0     8.1    5.257      30.464     1024.9        205.312199    197.112067    nd            nd            4.000000      2008-04-16T11:40:55.03Z  
1141.2498   42075   43.0798  -70.6437  29.0     8.1    5.223      30.488     1024.9        205.378767    197.183109    407.134237    404.467553    4.000000      2008-04-16T11:41:14.99Z  
1141.5838   42095   43.0810  -70.6427  29.0     8.1    5.207      30.488     1024.9        205.464153    197.269245    406.867951    404.210834    4.000000      2008-04-16T11:41:35.03Z  
1141.9165   42115   43.0823  -70.6417  28.0     8.1    5.196      30.499     1024.9        205.392111    197.203705    nd            nd            4.000000      2008-04-16T11:41:54.99Z  
1142.2506   42135   43.0836  -70.6408  28.0     8.1    5.185      30.489     1024.9        205.364649    197.182389    nd            nd            4.000000      2008-04-16T11:42:15.04Z  
1142.5832   42155   43.0849  -70.6398  29.0     8.1    5.190      30.488     1024.9        205.514127    197.320040    nd            nd            4.000000      2008-04-16T11:42:34.99Z  
1142.9173   42175   43.0861  -70.6389  27.0     8.0    5.188      30.509     1024.9        205.470112    197.273938    nd            nd            4.000000      2008-04-16T11:42:55.04Z  
1143.2499   42195   43.0874  -70.6379  28.0     8.1    5.186      30.530     1024.9        205.486348    197.288961    nd            nd            4.000000      2008-04-16T11:43:14.99Z  
1143.5840   42215   43.0887  -70.6370  28.0     8.1    5.176      30.555     1024.9        205.569762    197.375911    411.563632    408.883511    4.000000      2008-04-16T11:43:35.04Z  
1143.9166   42235   43.0900  -70.6360  28.0     8.1    5.187      30.494     1024.9        205.471624    197.276280    411.689503    408.999770    4.000000      2008-04-16T11:43:55.00Z  
1144.2507   42255   43.0912  -70.6351  30.0     8.1    5.227      30.432     1024.9        204.989895    196.805383    nd            nd            4.000000      2008-04-16T11:44:15.04Z  
1144.5834   42275   43.0924  -70.6340  35.0     8.1    5.264      30.414     1024.9        204.711528    196.536981    nd            nd            4.000000      2008-04-16T11:44:35.00Z  
1144.9160   42295   43.0936  -70.6328  35.0     8.1    5.295      30.407     1024.9        204.617508    196.445557    407.787936    405.099827    4.000000      2008-04-16T11:44:54.96Z  
1145.2501   42315   43.0948  -70.6317  34.0     8.1    5.331      30.405     1024.9        204.573126    196.401937    nd            nd            4.000000      2008-04-16T11:45:15.01Z  
1145.5827   42335   43.0960  -70.6306  33.0     8.1    5.373      30.396     1024.9        204.471606    196.302515    nd            nd            4.000000      2008-04-16T11:45:34.96Z  
1145.9168   42355   43.0973  -70.6294  34.0     8.1    5.403      30.406     1025.0        204.174634    196.016185    nd            nd            4.000000      2008-04-16T11:45:55.01Z  
1146.2494   42375   43.0985  -70.6283  34.0     8.1    5.426      30.418     1025.0        203.842774    195.695372    413.624497    410.886885    4.000000      2008-04-16T11:46:14.96Z  
1146.5835   42395   43.0997  -70.6272  33.0     8.1    5.464      30.430     1025.0        203.687751    195.543468    413.880166    411.135602    4.000000      2008-04-16T11:46:35.01Z  
1146.9162   42415   43.1009  -70.6261  34.0     8.1    5.490      30.434     1025.0        203.581157    195.437038    nd            nd            4.000000      2008-04-16T11:46:54.97Z  
1147.2502   42435   43.1021  -70.6249  34.0     8.2    5.495      30.432     1025.0        203.370394    195.233224    410.766068    408.039708    4.000000      2008-04-16T11:47:15.01Z  
1147.5829   42455   43.1033  -70.6238  33.0     8.1    5.494      30.426     1025.0        203.279463    195.148930    410.780717    408.052471    4.000000      2008-04-16T11:47:34.97Z  
1147.9170   42475   43.1045  -70.6226  35.0     8.1    5.497      30.423     1025.0        202.883454    194.770397    nd            nd            4.000000      2008-04-16T11:47:55.02Z  
1148.2496   42495   43.1057  -70.6215  35.0     8.1    5.505      30.427     1025.0        202.432129    194.336874    nd            nd            4.000000      2008-04-16T11:48:14.98Z  
1148.5837   42515   43.1069  -70.6203  35.0     8.1    5.509      30.435     1025.0        202.301435    194.211849    413.439435    410.698593    4.000000      2008-04-16T11:48:35.02Z  
1148.9163   42535   43.1080  -70.6191  39.0     8.2    5.498      30.423     1025.0        201.828722    193.759906    413.310364    410.569962    4.000000      2008-04-16T11:48:54.98Z  
1149.2504   42555   43.1092  -70.6178  39.0     8.1    5.473      30.407     1025.0        201.589004    193.534525    nd            nd            4.000000      2008-04-16T11:49:15.02Z  
1149.5830   42575   43.1103  -70.6165  41.0     8.1    5.470      30.405     1025.0        201.893464    193.828063    nd            nd            4.000000      2008-04-16T11:49:34.98Z  
1149.9171   42595   43.1113  -70.6151  44.0     8.2    5.474      30.395     1025.0        202.330724    194.244831    nd            nd            4.000000      2008-04-16T11:49:55.03Z  
1150.2498   42615   43.1122  -70.6136  58.0     8.1    5.481      30.387     1025.0        202.787500    194.685149    407.982034    405.288412    4.000000      2008-04-16T11:50:14.99Z  
1150.5838   42635   43.1130  -70.6118  61.0     8.1    5.491      30.394     1025.0        203.314763    195.191064    407.908710    405.213040    4.000000      2008-04-16T11:50:35.03Z  
1150.9165   42655   43.1136  -70.6101  61.0     8.1    5.496      30.400     1025.0        203.894219    195.749067    407.503108    404.818236    4.000000      2008-04-16T11:50:54.99Z  
1151.2506   42675   43.1143  -70.6083  61.0     8.1    5.498      30.402     1025.0        204.264829    196.105707    407.645285    404.960168    4.000000      2008-04-16T11:51:15.04Z  
1151.5832   42695   43.1150  -70.6065  61.0     8.1    5.514      30.403     1025.0        204.066886    195.915479    407.605401    404.919672    4.000000      2008-04-16T11:51:34.99Z  
1151.9173   42715   43.1157  -70.6048  61.0     8.2    5.530      30.361     1025.0        203.482788    195.352411    407.428443    404.739605    4.000000      2008-04-16T11:51:55.04Z  
1152.2499   42735   43.1164  -70.6030  61.0     8.1    5.539      30.330     1025.0        203.473950    195.343123    407.515353    404.825039    4.000000      2008-04-16T11:52:14.99Z  
1152.5840   42755   43.1171  -70.6012  61.0     8.2    5.552      30.327     1025.0        204.182823    196.021742    nd            nd            4.000000      2008-04-16T11:52:35.04Z  
1152.9166   42775   43.1178  -70.5995  61.0     8.2    5.560      30.334     1025.0        205.102229    196.903620    nd            nd            4.000000      2008-04-16T11:52:55.00Z  
1153.2493   42795   43.1185  -70.5977  61.0     8.2    5.565      30.335     1025.0        205.774881    197.549730    nd            nd            4.000000      2008-04-16T11:53:14.96Z  
1153.5834   42815   43.1193  -70.5960  60.0     8.2    5.567      30.329     1025.0        206.456833    198.204879    nd            nd            4.000000      2008-04-16T11:53:35.00Z  
1153.9160   42835   43.1200  -70.5942  61.0     8.2    5.564      30.319     1025.1        207.047821    198.775394    nd            nd            4.000000      2008-04-16T11:53:54.96Z  
1154.2501   42855   43.1207  -70.5924  61.0     8.1    5.558      30.338     1025.1        207.388347    199.103500    nd            nd            4.000000      2008-04-16T11:54:15.01Z  
1154.5827   42875   43.1213  -70.5906  62.0     8.1    5.551      30.370     1025.1        207.766056    199.469100    nd            nd            4.000000      2008-04-16T11:54:34.96Z  
1154.9168   42895   43.1220  -70.5889  59.0     8.1    5.536      30.390     1025.1        207.934644    199.633176    419.146243    416.392191    4.000000      2008-04-16T11:54:55.01Z  
1155.2494   42915   43.1228  -70.5872  58.0     8.1    5.550      30.372     1025.1        208.193055    199.881136    419.259667    416.506708    4.000000      2008-04-16T11:55:14.96Z  
1155.5835   42935   43.1236  -70.5855  57.0     8.1    5.600      30.344     1025.1        208.106121    199.791844    419.314837    416.549727    4.000000      2008-04-16T11:55:35.01Z  
1155.9162   42955   43.1243  -70.5838  57.0     8.1    5.608      30.335     1025.1        207.686940    199.390971    419.748670    416.984151    4.000000      2008-04-16T11:55:54.97Z  
1156.2502   42975   43.1251  -70.5821  58.0     8.1    5.613      30.335     1025.1        207.220783    198.945070    420.024473    417.256571    4.000000      2008-04-16T11:56:15.01Z  
1156.5829   42995   43.1259  -70.5804  56.0     8.0    5.627      30.317     1025.1        207.189221    198.914279    420.517769    417.748506    4.000000      2008-04-16T11:56:34.97Z  
1156.9170   43015   43.1267  -70.5788  52.0     8.0    5.634      30.279     1025.1        207.484670    199.197464    nd            nd            4.000000      2008-04-16T11:56:55.02Z  
1157.2496   43035   43.1276  -70.5773  51.0     8.1    5.603      30.202     1025.1        208.036453    199.732441    nd            nd            4.000000      2008-04-16T11:57:14.98Z  
1157.5837   43055   43.1285  -70.5757  53.0     8.0    5.548      30.118     1025.1        208.599873    200.280028    nd            nd            4.000000      2008-04-16T11:57:35.02Z  
1157.9163   43075   43.1294  -70.5741  51.0     8.0    5.534      30.069     1025.1        209.018877    200.684847    nd            nd            4.000000      2008-04-16T11:57:54.98Z  
1158.2504   43095   43.1303  -70.5726  49.0     8.0    5.536      30.044     1025.1        209.333197    200.986162    nd            nd            4.000000      2008-04-16T11:58:15.02Z  
1158.5830   43115   43.1313  -70.5712  43.0     8.1    5.538      30.025     1025.1        209.269315    200.924915    nd            nd            4.000000      2008-04-16T11:58:34.98Z  
1158.9171   43135   43.1323  -70.5698  44.0     8.1    5.541      30.011     1025.1        209.188129    200.844299    426.200448    423.419634    4.000000      2008-04-16T11:58:55.03Z  
1159.2498   43155   43.1334  -70.5684  44.0     8.1    5.549      30.022     1025.1        209.143488    200.801039    426.328925    423.546059    4.000000      2008-04-16T11:59:14.99Z  
1159.5838   43175   43.1345  -70.5670  44.0     8.1    5.558      30.033     1025.1        208.907430    200.572920    426.271922    423.483931    4.000000      2008-04-16T11:59:35.03Z  
1159.9165   43195   43.1355  -70.5656  44.0     8.2    5.575      30.034     1025.1        208.998347    200.656452    nd            nd            4.138889      2008-04-16T11:59:54.99Z  
1200.2506   43215   43.1365  -70.5642  42.0     8.2    5.591      30.032     1025.1        208.928146    200.588713    nd            nd            4.500000      2008-04-16T12:00:15.04Z  
1200.5832   43235   43.1376  -70.5628  44.0     8.2    5.595      30.032     1025.1        208.938157    200.598260    nd            nd            4.500000      2008-04-16T12:00:34.99Z  
1200.9173   43255   43.1387  -70.5614  43.0     8.1    5.595      30.045     1025.1        208.853084    200.516986    nd            nd            4.500000      2008-04-16T12:00:55.04Z  
1201.2499   43275   43.1397  -70.5600  45.0     8.1    5.598      30.055     1025.1        208.825581    200.491483    nd            nd            4.500000      2008-04-16T12:01:14.99Z  
1201.5840   43295   43.1407  -70.5586  43.0     8.1    5.616      30.063     1025.1        208.681948    200.351763    nd            nd            4.500000      2008-04-16T12:01:35.04Z  
1201.9166   43315   43.1418  -70.5572  43.0     8.2    5.644      30.065     1025.1        208.589260    200.259481    nd            nd            4.500000      2008-04-16T12:01:55.00Z  
1202.2507   43335   43.1429  -70.5558  44.0     8.1    5.670      30.075     1025.1        208.487449    200.160828    nd            nd            4.500000      2008-04-16T12:02:15.04Z  
1202.5834   43355   43.1439  -70.5544  44.0     8.1    5.697      30.080     1025.1        208.403344    200.077707    nd            nd            4.500000      2008-04-16T12:02:35.00Z  
1202.9160   43375   43.1449  -70.5530  43.0     8.1    5.708      30.092     1025.2        208.433251    200.107399    nd            nd            4.500000      2008-04-16T12:02:54.96Z  
1203.2501   43395   43.1460  -70.5516  43.0     8.1    5.697      30.105     1025.2        208.496056    200.169502    417.505836    414.764518    4.500000      2008-04-16T12:03:15.01Z  
1203.5827   43415   43.1470  -70.5502  45.0     8.2    5.680      30.114     1025.2        208.542548    200.216662    417.614338    414.860981    4.500000      2008-04-16T12:03:34.96Z  
1203.9168   43435   43.1481  -70.5487  44.0     8.2    5.638      30.127     1025.2        208.331483    200.020955    nd            nd            4.500000      2008-04-16T12:03:55.01Z  
1204.2494   43455   43.1491  -70.5474  43.0     8.2    5.593      30.124     1025.2        208.272463    199.969078    nd            nd            4.500000      2008-04-16T12:04:14.96Z  
1204.5835   43475   43.1502  -70.5459  44.0     8.2    5.551      30.125     1025.2        207.976016    199.691002    413.697251    411.022794    4.500000      2008-04-16T12:04:35.01Z  
1204.9162   43495   43.1512  -70.5445  44.0     8.1    5.516      30.129     1025.2        207.753752    199.483284    413.614595    410.947032    4.500000      2008-04-16T12:04:54.97Z  
1205.2502   43515   43.1523  -70.5431  43.0     8.1    5.501      30.133     1025.2        207.608648    199.345558    413.274280    410.611994    4.500000      2008-04-16T12:05:15.01Z  
1205.5829   43535   43.1533  -70.5417  45.0     8.2    5.488      30.140     1025.2        207.601756    199.341671    413.228486    410.569910    4.500000      2008-04-16T12:05:34.97Z  
1205.9170   43555   43.1544  -70.5403  43.0     8.1    5.462      30.150     1025.2        207.638556    199.380316    nd            nd            4.500000      2008-04-16T12:05:55.02Z  
1206.2496   43575   43.1554  -70.5390  43.0     8.1    5.443      30.191     1025.2        207.739451    199.480998    nd            nd            4.500000      2008-04-16T12:06:14.98Z  
1206.5837   43595   43.1565  -70.5376  44.0     8.1    5.444      30.219     1025.2        207.798318    199.537277    nd            nd            4.500000      2008-04-16T12:06:35.02Z  
1206.9163   43615   43.1575  -70.5362  46.0     8.1    5.468      30.248     1025.2        207.831786    199.566719    408.909393    406.283549    4.500000      2008-04-16T12:06:54.98Z  
1207.2504   43635   43.1585  -70.5347  48.0     8.1    5.496      30.258     1025.2        207.773524    199.508369    408.838656    406.217335    4.500000      2008-04-16T12:07:15.02Z  
1207.5830   43655   43.1595  -70.5332  47.0     8.1    5.505      30.259     1025.2        207.525434    199.270770    nd            nd            4.500000      2008-04-16T12:07:34.98Z  
1207.9171   43675   43.1605  -70.5317  47.0     8.1    5.498      30.244     1025.2        207.380864    199.132412    nd            nd            4.500000      2008-04-16T12:07:55.03Z  
1208.2498   43695   43.1615  -70.5303  46.0     8.1    5.501      30.245     1025.2        207.421684    199.172450    nd            nd            4.500000      2008-04-16T12:08:14.99Z  
1208.5838   43715   43.1625  -70.5288  46.0     8.1    5.507      30.247     1025.2        207.362177    199.116344    411.908862    409.269660    4.500000      2008-04-16T12:08:35.03Z  
1208.9165   43735   43.1635  -70.5274  46.0     8.1    5.514      30.249     1025.2        207.486600    199.235750    nd            nd            4.500000      2008-04-16T12:08:54.99Z  
1209.2506   43755   43.1645  -70.5259  47.0     8.1    5.524      30.261     1025.2        207.530429    199.275374    nd            nd            4.500000      2008-04-16T12:09:15.04Z  
1209.5832   43775   43.1655  -70.5245  44.0     8.1    5.531      30.270     1025.2        207.514080    199.260286    nd            nd            4.500000      2008-04-16T12:09:34.99Z  
1209.9173   43795   43.1666  -70.5231  42.0     8.1    5.472      30.211     1025.2        207.453541    199.209086    413.761699    411.125837    4.500000      2008-04-16T12:09:55.04Z  
1210.2499   43815   43.1677  -70.5217  43.0     8.2    5.386      30.153     1025.2        206.507007    198.310257    414.023456    411.402362    4.500000      2008-04-16T12:10:14.99Z  
1210.5840   43835   43.1687  -70.5203  43.0     8.1    5.352      30.081     1025.2        204.279227    196.174457    414.237549    411.625968    4.500000      2008-04-16T12:10:35.04Z  
1210.9166   43855   43.1698  -70.5189  45.0     8.2    5.372      30.051     1025.2        201.757418    193.750326    nd            nd            4.500000      2008-04-16T12:10:55.00Z  
1211.2493   43875   43.1708  -70.5175  43.0     8.1    5.395      30.030     1025.2        199.418835    191.499973    nd            nd            4.500000      2008-04-16T12:11:14.96Z  
1211.5834   43895   43.1719  -70.5161  45.0     8.2    5.395      29.954     1025.2        197.863832    190.007494    412.144792    409.529863    4.500000      2008-04-16T12:11:35.00Z  
1211.9160   43915   43.1729  -70.5147  43.0     8.1    5.415      29.901     1025.2        196.638895    188.827797    411.755713    409.135045    4.500000      2008-04-16T12:11:54.96Z  
1212.2501   43935   43.1740  -70.5133  44.0     8.1    5.437      29.866     1025.2        195.777388    187.998595    411.667737    409.048537    4.500000      2008-04-16T12:12:15.01Z  
1212.5827   43955   43.1750  -70.5119  43.0     8.1    5.457      29.847     1025.2        194.989328    187.239304    nd            nd            4.500000      2008-04-16T12:12:34.96Z  
1212.9168   43975   43.1761  -70.5106  44.0     8.1    5.460      29.798     1025.2        194.638289    186.902360    nd            nd            4.500000      2008-04-16T12:12:55.01Z  
1213.2494   43995   43.1771  -70.5091  47.0     8.1    5.463      29.764     1025.2        194.291211    186.567229    nd            nd            4.500000      2008-04-16T12:13:14.96Z  
1213.5835   44015   43.1781  -70.5077  44.0     8.1    5.472      29.745     1025.2        193.847034    186.139184    nd            nd            4.500000      2008-04-16T12:13:35.01Z  
1213.9162   44035   43.1791  -70.5062  45.0     8.1    5.486      29.735     1025.2        193.543177    185.845297    405.531018    402.930594    4.500000      2008-04-16T12:13:54.97Z  
1214.2502   44055   43.1801  -70.5048  46.0     8.1    5.497      29.729     1025.2        193.268375    185.579868    405.515048    402.911694    4.500000      2008-04-16T12:14:15.01Z  
1214.5829   44075   43.1812  -70.5034  45.0     8.2    5.496      29.720     1025.2        193.142032    185.457704    nd            nd            4.500000      2008-04-16T12:14:34.97Z  
1214.9170   44095   43.1822  -70.5019  46.0     8.2    5.483      29.709     1025.2        193.021659    185.344737    nd            nd            4.500000      2008-04-16T12:14:55.02Z  
1215.2496   44115   43.1832  -70.5004  46.0     8.2    5.464      29.696     1025.2        192.839231    185.171126    407.737801    405.126210    4.500000      2008-04-16T12:15:14.98Z  
1215.5837   44135   43.1842  -70.4990  45.0     8.2    5.449      29.683     1025.2        192.839963    185.172871    408.243213    405.634680    4.500000      2008-04-16T12:15:35.02Z  
1215.9163   44155   43.1852  -70.4976  45.0     8.2    5.451      29.679     1025.2        192.670222    185.009161    408.356421    405.735545    4.500000      2008-04-16T12:15:54.98Z  
1216.2504   44175   43.1863  -70.4961  46.0     8.2    5.452      29.684     1025.2        192.680243    185.019178    408.895480    406.277735    4.500000      2008-04-16T12:16:15.02Z  
1216.5830   44195   43.1873  -70.4947  45.0     8.2    5.449      29.695     1025.2        192.579642    184.922553    409.020383    406.401917    4.500000      2008-04-16T12:16:34.98Z  
1216.9171   44215   43.1883  -70.4932  46.0     8.2    5.441      29.706     1025.2        192.615443    184.959006    409.013533    406.400581    4.500000      2008-04-16T12:16:55.03Z  
1217.2498   44235   43.1893  -70.4918  44.0     8.2    5.430      29.724     1025.2        192.715513    185.055695    408.930732    406.320507    4.500000      2008-04-16T12:17:14.99Z  
1217.5838   44255   43.1904  -70.4903  45.0     8.2    5.415      29.747     1025.2        192.761300    185.101230    408.299207    405.696438    4.500000      2008-04-16T12:17:35.03Z  
1217.9165   44275   43.1914  -70.4889  45.0     8.2    5.387      29.778     1025.2        192.702927    185.049262    408.149746    405.556835    4.500000      2008-04-16T12:17:54.99Z  
1218.2506   44295   43.1925  -70.4875  43.0     8.2    5.360      29.804     1025.2        192.711081    185.060601    407.959435    405.376615    4.500000      2008-04-16T12:18:15.04Z  
1218.5832   44315   43.1935  -70.4861  44.0     8.2    5.341      29.834     1025.2        192.585373    184.943191    407.950772    405.372085    4.500000      2008-04-16T12:18:34.99Z  
1218.9173   44335   43.1946  -70.4846  44.0     8.2    5.315      29.870     1025.2        192.537210    184.899215    407.845544    405.272314    4.500000      2008-04-16T12:18:55.04Z  
1219.2499   44355   43.1957  -70.4832  44.0     8.2    5.283      29.914     1025.2        192.476037    184.846304    407.948170    405.385475    4.500000      2008-04-16T12:19:14.99Z  
1219.5840   44375   43.1967  -70.4818  44.0     8.2    5.257      30.002     1025.2        192.495773    184.869550    nd            nd            4.500000      2008-04-16T12:19:35.04Z  
1219.9166   44395   43.1978  -70.4804  44.0     8.2    5.260      30.081     1025.2        192.432154    184.807916    409.244631    406.680645    4.500000      2008-04-16T12:19:55.00Z  
1220.2493   44415   43.1988  -70.4790  44.0     8.2    5.273      30.170     1025.2        192.439535    184.815232    409.888067    407.319745    4.500000      2008-04-16T12:20:14.96Z  
1220.5834   44435   43.1999  -70.4775  44.0     8.2    5.251      30.214     1025.2        192.663053    185.033144    409.861716    407.303593    4.500000      2008-04-16T12:20:35.00Z  
1220.9160   44455   43.2009  -70.4761  45.0     8.2    5.213      30.217     1025.3        192.947954    185.313221    410.031009    407.486320    4.500000      2008-04-16T12:20:54.96Z  
1221.2501   44475   43.2020  -70.4747  45.0     8.1    5.207      30.223     1025.3        193.150350    185.509398    410.000940    407.458817    4.500000      2008-04-16T12:21:15.01Z  
1221.5827   44495   43.2030  -70.4733  43.0     8.1    5.205      30.223     1025.3        193.189106    185.547455    409.874028    407.335721    4.500000      2008-04-16T12:21:34.96Z  
1221.9168   44515   43.2040  -70.4719  46.0     8.1    5.202      30.196     1025.3        193.209303    185.568252    409.748656    407.214236    4.500000      2008-04-16T12:21:55.01Z  
1222.2494   44535   43.2050  -70.4704  45.0     8.1    5.203      30.160     1025.3        193.087493    185.454006    409.924293    407.389669    4.500000      2008-04-16T12:22:14.96Z  
1222.5835   44555   43.2061  -70.4690  44.0     8.1    5.209      30.152     1025.3        192.961942    185.331978    409.763870    407.232358    4.500000      2008-04-16T12:22:35.01Z  
1222.9162   44575   43.2071  -70.4676  45.0     8.0    5.221      30.139     1025.3        192.623182    185.007216    409.249913    406.722099    4.500000      2008-04-16T12:22:54.97Z  
1223.2502   44595   43.2081  -70.4662  46.0     8.0    5.244      30.149     1025.3        192.272550    184.668191    409.182157    406.651298    4.500000      2008-04-16T12:23:15.01Z  
1223.5829   44615   43.2091  -70.4648  45.0     8.0    5.277      30.168     1025.3        191.927506    184.334294    408.797457    406.266024    4.500000      2008-04-16T12:23:34.97Z  
1223.9170   44635   43.2101  -70.4633  44.0     8.1    5.308      30.178     1025.3        191.657849    184.073016    nd            nd            4.500000      2008-04-16T12:23:55.02Z  
1224.2496   44655   43.2111  -70.4619  46.0     8.1    5.331      30.196     1025.3        191.363492    183.788135    408.909243    406.368388    4.500000      2008-04-16T12:24:14.98Z  
1224.5837   44675   43.2122  -70.4605  44.0     8.0    5.354      30.219     1025.3        191.156985    183.588347    nd            nd            4.500000      2008-04-16T12:24:35.02Z  
1224.9163   44695   43.2132  -70.4591  45.0     8.1    5.378      30.224     1025.3        191.190102    183.618619    nd            nd            4.500000      2008-04-16T12:24:54.98Z  
1225.2504   44715   43.2142  -70.4577  45.0     8.1    5.391      30.243     1025.3        191.172280    183.601312    410.368086    407.810401    4.500000      2008-04-16T12:25:15.02Z  
1225.5830   44735   43.2152  -70.4563  46.0     8.1    5.398      30.298     1025.3        191.127860    183.558700    410.335185    407.774521    4.500000      2008-04-16T12:25:34.98Z  
1225.9171   44755   43.2163  -70.4548  44.0     8.1    5.395      30.361     1025.3        191.165134    183.594848    409.815288    407.265897    4.500000      2008-04-16T12:25:55.03Z  
1226.2498   44775   43.2173  -70.4534  44.0     8.1    5.396      30.360     1025.3        191.171010    183.600116    409.486067    406.931693    4.500000      2008-04-16T12:26:14.99Z  
1226.5838   44795   43.2184  -70.4520  42.0     8.1    5.416      30.322     1025.3        191.270868    183.694447    nd            nd            4.500000      2008-04-16T12:26:35.03Z  
1226.9165   44815   43.2194  -70.4507  45.0     8.1    5.440      30.292     1025.3        191.261618    183.682476    nd            nd            4.500000      2008-04-16T12:26:54.99Z  
1227.2506   44835   43.2204  -70.4493  45.0     8.1    5.469      30.264     1025.3        190.998202    183.426232    nd            nd            4.500000      2008-04-16T12:27:15.04Z  
1227.5832   44855   43.2214  -70.4478  46.0     8.1    5.496      30.214     1025.3        190.980009    183.405268    nd            nd            4.500000      2008-04-16T12:27:34.99Z  
1227.9173   44875   43.2224  -70.4464  44.0     8.1    5.526      30.175     1025.3        190.695143    183.128607    411.670019    409.071879    4.500000      2008-04-16T12:27:55.04Z  
1228.2499   44895   43.2235  -70.4450  45.0     8.1    5.553      30.170     1025.3        190.308773    182.754589    nd            nd            4.500000      2008-04-16T12:28:14.99Z  
1228.5840   44915   43.2245  -70.4436  46.0     8.1    5.563      30.149     1025.3        190.088528    182.542716    nd            nd            4.500000      2008-04-16T12:28:35.04Z  
1228.9166   44935   43.2255  -70.4422  43.0     8.1    5.579      30.121     1025.3        189.958979    182.417115    nd            nd            4.500000      2008-04-16T12:28:55.00Z  
1229.2493   44955   43.2266  -70.4408  44.0     8.1    5.605      30.103     1025.3        189.813521    182.274409    415.350197    412.711473    4.500000      2008-04-16T12:29:14.96Z  
1229.5834   44975   43.2276  -70.4394  44.0     8.1    5.625      30.091     1025.3        189.585906    182.052996    nd            nd            4.500000      2008-04-16T12:29:35.00Z  
1229.9160   44995   43.2286  -70.4379  45.0     8.1    5.637      30.082     1025.3        189.495373    181.965435    nd            nd            4.500000      2008-04-16T12:29:54.96Z  
1230.2501   45015   43.2296  -70.4365  47.0     8.1    5.649      30.078     1025.3        189.483847    181.954362    413.669002    411.032344    4.500000      2008-04-16T12:30:15.01Z  
1230.5827   45035   43.2307  -70.4350  44.0     8.2    5.659      30.065     1025.4        189.447248    181.919231    413.910755    411.262562    4.500000      2008-04-16T12:30:34.96Z  
1230.9168   45055   43.2317  -70.4336  44.0     8.1    5.670      30.051     1025.4        189.430711    181.903115    413.984597    411.352435    4.500000      2008-04-16T12:30:55.01Z  
1231.2494   45075   43.2328  -70.4322  44.0     8.1    5.684      30.046     1025.4        189.428468    181.899913    nd            nd            4.500000      2008-04-16T12:31:14.96Z  
1231.5835   45095   43.2338  -70.4308  44.0     8.1    5.697      30.030     1025.4        189.339177    181.814468    412.738176    410.106872    4.500000      2008-04-16T12:31:35.01Z  
1231.9162   45115   43.2348  -70.4294  46.0     8.1    5.676      29.955     1025.4        189.142363    181.627566    412.673138    410.047109    4.500000      2008-04-16T12:31:54.97Z  
1232.2502   45135   43.2358  -70.4279  46.0     8.1    5.628      29.823     1025.4        188.963752    181.463783    412.605948    409.997293    4.500000      2008-04-16T12:32:15.01Z  
1232.5829   45155   43.2368  -70.4265  45.0     8.1    5.595      29.731     1025.4        188.377340    180.905073    412.589439    409.990846    4.500000      2008-04-16T12:32:34.97Z  
1232.9170   45175   43.2379  -70.4251  44.0     8.1    5.570      29.657     1025.4        187.513689    180.079204    412.768072    410.175625    4.500000      2008-04-16T12:32:55.02Z  
1233.2496   45195   43.2389  -70.4237  44.0     8.1    5.553      29.599     1025.4        186.622917    179.226597    412.582169    409.997466    4.500000      2008-04-16T12:33:14.98Z  
1233.5837   45215   43.2399  -70.4223  44.0     8.0    5.548      29.558     1025.4        185.563239    178.209397    412.548487    409.965354    4.500000      2008-04-16T12:33:35.02Z  
1233.9163   45235   43.2410  -70.4209  45.0     8.1    5.543      29.508     1025.4        184.542248    177.231830    412.220104    409.645138    4.500000      2008-04-16T12:33:54.98Z  
1234.2504   45255   43.2420  -70.4195  45.0     8.1    5.549      29.421     1025.4        183.496818    176.227132    411.989685    409.416695    4.500000      2008-04-16T12:34:15.02Z  
1234.5830   45275   43.2430  -70.4181  42.0     8.1    5.568      29.355     1025.4        182.649212    175.411891    412.055009    409.477224    4.500000      2008-04-16T12:34:34.98Z  
1234.9171   45295   43.2441  -70.4167  46.0     8.1    5.595      29.310     1025.4        181.863533    174.654266    411.999540    409.414999    4.500000      2008-04-16T12:34:55.03Z  
1235.2498   45315   43.2451  -70.4152  46.0     8.1    5.614      29.260     1025.4        181.161403    173.978671    412.243945    409.656015    4.500000      2008-04-16T12:35:14.99Z  
1235.5838   45335   43.2461  -70.4138  46.0     8.1    5.630      29.209     1025.4        180.562831    173.404318    412.166755    409.580246    4.500000      2008-04-16T12:35:35.03Z  
1235.9165   45355   43.2471  -70.4123  45.0     8.1    5.644      29.168     1025.4        180.119214    172.976946    412.360177    409.766688    4.500000      2008-04-16T12:35:54.99Z  
1236.2506   45375   43.2481  -70.4109  46.0     8.1    5.661      29.135     1025.4        179.585724    172.463633    nd            nd            4.500000      2008-04-16T12:36:15.04Z  
1236.5832   45395   43.2491  -70.4095  45.0     8.1    5.677      29.110     1025.4        179.181928    172.074639    413.373389    410.771874    4.500000      2008-04-16T12:36:34.99Z  
1236.9173   45415   43.2501  -70.4081  45.0     8.1    5.695      29.083     1025.5        178.744688    171.656022    nd            nd            4.500000      2008-04-16T12:36:55.04Z  
1237.2499   45435   43.2511  -70.4067  44.0     8.0    5.713      29.059     1025.5        178.376262    171.301889    411.741450    409.151917    4.500000      2008-04-16T12:37:14.99Z  
1237.5840   45455   43.2521  -70.4053  45.0     8.1    5.724      29.024     1025.5        178.164988    171.099094    411.246578    408.666482    4.500000      2008-04-16T12:37:35.04Z  
1237.9166   45475   43.2531  -70.4038  45.0     8.1    5.725      28.997     1025.5        177.804552    170.753973    411.072490    408.491517    4.500000      2008-04-16T12:37:55.00Z  
1238.2507   45495   43.2542  -70.4024  45.0     8.1    5.725      28.973     1025.5        177.452097    170.417873    410.954256    408.363692    4.500000      2008-04-16T12:38:15.04Z  
1238.5834   45515   43.2552  -70.4010  44.0     8.1    5.724      28.954     1025.5        177.019909    170.004041    nd            nd            4.500000      2008-04-16T12:38:35.00Z  
1238.9160   45535   43.2562  -70.3995  46.0     8.1    5.731      28.943     1025.5        176.453632    169.458780    nd            nd            4.500000      2008-04-16T12:38:54.96Z  
1239.2501   45555   43.2572  -70.3981  44.0     8.1    5.741      28.943     1025.5        176.099377    169.118235    nd            nd            4.500000      2008-04-16T12:39:15.01Z  
1239.5827   45575   43.2583  -70.3967  44.0     8.1    5.760      28.937     1025.5        175.776770    168.806769    nd            nd            4.500000      2008-04-16T12:39:34.96Z  
1239.9168   45595   43.2593  -70.3953  46.0     8.0    5.778      28.927     1025.5        175.592067    168.629446    414.697709    412.095748    4.500000      2008-04-16T12:39:55.01Z  
1240.2494   45615   43.2603  -70.3938  47.0     8.1    5.780      28.896     1025.5        175.455095    168.496068    414.623965    412.017964    4.500000      2008-04-16T12:40:14.96Z  
1240.5835   45635   43.2613  -70.3924  45.0     8.1    5.689      28.733     1025.5        175.410270    168.460905    414.368378    411.775250    4.500000      2008-04-16T12:40:35.01Z  
1240.9162   45655   43.2623  -70.3910  47.0     8.0    5.610      28.612     1025.5        175.015128    168.089005    413.713544    411.150144    4.500000      2008-04-16T12:40:54.97Z  
1241.2502   45675   43.2633  -70.3895  46.0     8.1    5.597      28.552     1025.5        174.144031    167.251402    413.809828    411.240781    4.500000      2008-04-16T12:41:15.01Z  
1241.5829   45695   43.2643  -70.3881  46.0     8.0    5.598      28.514     1025.5        173.148733    166.296605    413.741802    411.173659    4.500000      2008-04-16T12:41:34.97Z  
1241.9170   45715   43.2652  -70.3866  45.0     8.0    5.620      28.469     1025.5        172.317111    165.495694    413.306745    410.728078    4.500000      2008-04-16T12:41:55.02Z  
1242.2496   45735   43.2663  -70.3852  44.0     8.0    5.653      28.433     1025.5        171.517814    164.723192    nd            nd            4.500000      2008-04-16T12:42:14.98Z  
1242.5837   45755   43.2673  -70.3838  43.0     8.0    5.692      28.393     1025.5        171.034264    164.255814    412.306588    409.723427    4.500000      2008-04-16T12:42:35.02Z  
1242.9163   45775   43.2684  -70.3825  43.0     8.1    5.734      28.367     1025.5        170.647514    163.880877    412.036400    409.448229    4.500000      2008-04-16T12:42:54.98Z  
1243.2504   45795   43.2694  -70.3811  44.0     8.0    5.776      28.341     1025.5        170.304893    163.549744    411.920388    409.330469    4.500000      2008-04-16T12:43:15.02Z  
1243.5830   45815   43.2704  -70.3797  45.0     8.1    5.805      28.325     1025.5        170.065606    163.316470    411.899832    409.300400    4.500000      2008-04-16T12:43:34.98Z  
1243.9171   45835   43.2715  -70.3783  44.0     8.1    5.823      28.317     1025.5        169.853172    163.111552    412.263711    409.650000    4.500000      2008-04-16T12:43:55.03Z  
1244.2498   45855   43.2725  -70.3769  44.0     8.1    5.839      28.313     1025.5        169.715852    162.978261    412.334649    409.726954    4.500000      2008-04-16T12:44:14.99Z  
1244.5838   45875   43.2735  -70.3755  44.0     8.1    5.848      28.317     1025.5        169.614522    162.881252    412.432033    409.825142    4.500000      2008-04-16T12:44:35.03Z  
1244.9165   45895   43.2746  -70.3740  44.0     8.1    5.847      28.325     1025.5        169.696391    162.960406    412.333074    409.728434    4.500000      2008-04-16T12:44:54.99Z  
1245.2506   45915   43.2756  -70.3726  45.0     8.1    5.836      28.332     1025.5        169.567145    162.837637    412.309307    409.707450    4.500000      2008-04-16T12:45:15.04Z  
1245.5832   45935   43.2766  -70.3712  42.0     8.1    5.829      28.333     1025.5        169.521787    162.796290    412.072784    409.476242    4.500000      2008-04-16T12:45:34.99Z  
1245.9173   45955   43.2777  -70.3699  42.0     8.1    5.830      28.322     1025.5        169.479762    162.756259    412.103016    409.509777    4.500000      2008-04-16T12:45:55.04Z  
1246.2499   45975   43.2788  -70.3685  44.0     8.1    5.816      28.312     1025.5        169.325902    162.609476    411.941845    409.350625    4.500000      2008-04-16T12:46:14.99Z  
1246.5840   45995   43.2798  -70.3671  45.0     8.0    5.792      28.300     1025.5        169.162816    162.456607    411.670900    409.090015    4.500000      2008-04-16T12:46:35.04Z  
1246.9166   46015   43.2808  -70.3657  44.0     8.0    5.787      28.290     1025.5        168.995187    162.295498    411.428531    408.846295    4.500000      2008-04-16T12:46:55.00Z  
1247.2507   46035   43.2818  -70.3643  46.0     8.1    5.803      28.279     1025.5        168.776136    162.083690    411.428100    408.844667    4.500000      2008-04-16T12:47:15.04Z  
1247.5834   46055   43.2828  -70.3628  44.0     8.1    5.819      28.271     1025.5        168.563333    161.876582    411.353600    408.764227    4.500000      2008-04-16T12:47:35.00Z  
1247.9160   46075   43.2839  -70.3614  45.0     8.1    5.832      28.267     1025.5        168.537134    161.849431    411.379292    408.786228    4.500000      2008-04-16T12:47:54.96Z  
1248.2501   46095   43.2849  -70.3600  45.0     8.0    5.845      28.269     1025.5        168.326086    161.646349    411.257150    408.663191    4.500000      2008-04-16T12:48:15.01Z  
1248.5827   46115   43.2859  -70.3586  45.0     8.1    5.864      28.288     1025.5        168.276327    161.596845    411.170837    408.572285    4.500000      2008-04-16T12:48:34.96Z  
1248.9168   46135   43.2869  -70.3572  44.0     8.1    5.874      28.311     1025.5        168.283777    161.602926    411.059051    408.460937    4.500000      2008-04-16T12:48:55.01Z  
1249.2494   46155   43.2879  -70.3558  44.0     8.0    5.894      28.314     1025.5        168.608096    161.912317    nd            nd            4.500000      2008-04-16T12:49:14.96Z  
1249.5835   46175   43.2890  -70.3544  45.0     8.0    5.912      28.321     1025.5        168.875091    162.167638    nd            nd            4.500000      2008-04-16T12:49:35.01Z  
1249.9162   46195   43.2900  -70.3529  45.0     8.0    5.933      28.323     1025.5        169.216297    162.494636    nd            nd            4.500000      2008-04-16T12:49:54.97Z  
1250.2502   46215   43.2910  -70.3516  44.0     8.0    5.938      28.303     1025.5        169.534552    162.799288    407.923089    405.333099    4.500000      2008-04-16T12:50:15.01Z  
1250.5829   46235   43.2920  -70.3501  45.0     8.0    5.941      28.285     1025.5        169.781804    163.035253    407.785527    405.192832    4.500000      2008-04-16T12:50:34.97Z  
1250.9170   46255   43.2930  -70.3487  46.0     8.0    5.951      28.278     1025.5        169.975506    163.219688    407.636729    405.040555    4.500000      2008-04-16T12:50:55.02Z  
1251.2496   46275   43.2940  -70.3473  44.0     8.1    5.953      28.278     1025.5        170.223550    163.456708    407.611070    405.012186    4.500000      2008-04-16T12:51:14.98Z  
1251.5837   46295   43.2951  -70.3459  41.0     8.0    5.959      28.274     1025.5        170.358803    163.586899    407.512890    404.916820    4.500000      2008-04-16T12:51:35.02Z  
1251.9163   46315   43.2962  -70.3446  45.0     8.0    5.979      28.269     1025.5        170.611502    163.827889    407.418950    404.817375    4.500000      2008-04-16T12:51:54.98Z  
1252.2504   46335   43.2972  -70.3432  42.0     8.0    5.996      28.276     1025.5        170.975072    164.177185    407.461333    404.860450    4.500000      2008-04-16T12:52:15.02Z  
1252.5830   46355   43.2982  -70.3418  45.0     8.0    6.006      28.271     1025.5        171.340668    164.527308    nd            nd            4.500000      2008-04-16T12:52:34.98Z  
1252.9171   46375   43.2992  -70.3404  45.0     8.0    6.016      28.280     1025.5        171.540432    164.717768    408.157419    405.548335    4.500000      2008-04-16T12:52:55.03Z  
1253.2498   46395   43.3002  -70.3390  44.0     8.0    6.030      28.283     1025.6        171.969208    165.129708    408.488467    405.874041    4.500000      2008-04-16T12:53:14.99Z  
1253.5838   46415   43.3012  -70.3376  46.0     7.9    6.042      28.286     1025.6        172.493946    165.632909    nd            nd            4.500000      2008-04-16T12:53:35.03Z  
1253.9165   46435   43.3022  -70.3361  47.0     7.9    6.050      28.241     1025.6        173.191139    166.301452    nd            nd            4.500000      2008-04-16T12:53:54.99Z  
1254.2506   46455   43.3032  -70.3347  45.0     7.9    6.016      27.981     1025.6        173.941187    167.025565    nd            nd            4.500000      2008-04-16T12:54:15.04Z  
1254.5832   46475   43.3042  -70.3333  46.0     7.9    5.980      27.842     1025.6        175.651141    168.672411    nd            nd            4.500000      2008-04-16T12:54:34.99Z  
1254.9173   46495   43.3051  -70.3319  47.0     7.9    5.978      27.785     1025.6        177.629328    170.572078    nd            nd            4.500000      2008-04-16T12:54:55.04Z  
1255.2499   46515   43.3061  -70.3305  45.0     7.9    5.998      27.768     1025.6        179.625056    172.487371    nd            nd            4.500000      2008-04-16T12:55:14.99Z  
1255.5840   46535   43.3071  -70.3291  45.0     7.9    6.021      27.764     1025.6        181.135361    173.935206    nd            nd            4.500000      2008-04-16T12:55:35.04Z  
1255.9166   46555   43.3081  -70.3277  46.0     7.9    6.044      27.776     1025.6        182.292463    175.043835    nd            nd            4.500000      2008-04-16T12:55:55.00Z  
1256.2493   46575   43.3091  -70.3263  47.0     7.9    6.055      27.784     1025.6        182.997533    175.720867    nd            nd            4.500000      2008-04-16T12:56:14.96Z  
1256.5834   46595   43.3100  -70.3248  46.0     7.9    6.050      27.763     1025.6        183.582906    176.283915    nd            nd            4.500000      2008-04-16T12:56:35.00Z  
1256.9160   46615   43.3110  -70.3234  44.0     7.9    6.051      27.751     1025.6        184.064537    176.747198    nd            nd            4.500000      2008-04-16T12:56:54.96Z  
1257.2501   46635   43.3120  -70.3221  43.0     8.0    6.045      27.739     1025.6        184.533088    177.198147    411.568889    408.953113    4.500000      2008-04-16T12:57:15.01Z  
1257.5827   46655   43.3131  -70.3207  43.0     8.0    6.045      27.741     1025.6        184.870099    177.522123    nd            nd            4.500000      2008-04-16T12:57:34.96Z  
1257.9168   46675   43.3141  -70.3194  44.0     8.0    6.050      27.748     1025.6        185.125208    177.765919    411.985323    409.357215    4.500000      2008-04-16T12:57:55.01Z  
1258.2494   46695   43.3151  -70.3180  44.0     8.1    6.059      27.767     1025.6        185.308731    177.942476    411.976756    409.344879    4.500000      2008-04-16T12:58:14.96Z  
1258.5835   46715   43.3162  -70.3166  44.0     8.0    6.062      27.787     1025.6        185.511831    178.136828    412.603981    409.975196    4.500000      2008-04-16T12:58:35.01Z  
1258.9162   46735   43.3172  -70.3152  45.0     7.9    6.075      27.805     1025.6        185.631814    178.251171    nd            nd            4.500000      2008-04-16T12:58:54.97Z  
1259.2502   46755   43.3182  -70.3138  43.0     8.0    6.059      27.837     1025.6        185.808232    178.422185    413.249313    410.619207    4.500000      2008-04-16T12:59:15.01Z  
1259.5829   46775   43.3193  -70.3124  43.0     8.0    6.049      27.861     1025.6        185.984081    178.593124    414.049742    411.417718    4.500000      2008-04-16T12:59:34.97Z  
1259.9170   46795   43.3203  -70.3111  43.0     8.0    6.040      27.883     1025.6        186.075718    178.682831    414.443530    411.806661    4.694444      2008-04-16T12:59:55.02Z  
1300.2496   46815   43.3213  -70.3097  45.0     8.0    6.034      27.902     1025.6        186.099480    178.707022    414.454929    411.825904    5.200000      2008-04-16T13:00:14.98Z  
1300.5837   46835   43.3223  -70.3082  44.0     8.0    6.025      27.911     1025.6        186.097786    178.706637    nd            nd            5.200000      2008-04-16T13:00:35.02Z  
1300.9163   46855   43.3234  -70.3069  42.0     8.0    6.018      27.927     1025.6        186.238126    178.841770    415.906794    413.274827    5.200000      2008-04-16T13:00:54.98Z  
1301.2504   46875   43.3244  -70.3055  45.0     8.0    6.008      27.937     1025.6        186.266794    178.873082    415.896757    413.272119    5.200000      2008-04-16T13:01:15.02Z  
1301.5830   46895   43.3255  -70.3041  43.0     8.0    5.979      27.929     1025.6        186.404181    179.008164    415.964093    413.344340    5.200000      2008-04-16T13:01:34.98Z  
1301.9171   46915   43.3265  -70.3027  44.0     8.0    5.946      27.923     1025.6        186.498690    179.103918    416.219436    413.611976    5.200000      2008-04-16T13:01:55.03Z  
1302.2498   46935   43.3275  -70.3013  46.0     8.0    5.921      27.913     1025.6        186.574825    179.181107    416.251260    413.650623    5.200000      2008-04-16T13:02:14.99Z  
1302.5838   46955   43.3285  -70.2999  45.0     8.0    5.895      27.902     1025.6        186.629985    179.235998    416.272227    413.669609    5.200000      2008-04-16T13:02:35.03Z  
1302.9165   46975   43.3295  -70.2985  45.0     8.0    5.875      27.904     1025.6        186.654803    179.262979    nd            nd            5.200000      2008-04-16T13:02:54.99Z  
1303.2506   46995   43.3305  -70.2971  46.0     8.0    5.861      27.916     1025.6        186.562797    179.176093    416.684348    414.097694    5.200000      2008-04-16T13:03:15.04Z  
1303.5832   47015   43.3315  -70.2956  48.0     8.0    5.852      27.938     1025.6        186.416686    179.037963    416.726185    414.135400    5.200000      2008-04-16T13:03:34.99Z  
1303.9173   47035   43.3325  -70.2942  46.0     7.9    5.845      27.948     1025.6        186.055590    178.690560    416.952081    414.370071    5.200000      2008-04-16T13:03:55.04Z  
1304.2499   47055   43.3335  -70.2928  47.0     8.0    5.825      27.943     1025.6        185.694844    178.346045    416.925576    414.335637    5.200000      2008-04-16T13:04:14.99Z  
1304.5840   47075   43.3345  -70.2913  45.0     8.0    5.785      27.500     1025.6        185.515226    178.175818    416.915023    414.335340    5.200000      2008-04-16T13:04:35.04Z  
1304.9166   47095   43.3355  -70.2899  48.0     8.1    5.633      26.566     1025.6        185.096904    177.790410    417.012443    414.470108    5.200000      2008-04-16T13:04:55.00Z  
1305.2493   47115   43.3365  -70.2884  43.0     8.0    5.672      27.103     1025.6        183.365865    176.125539    416.952599    414.405528    5.200000      2008-04-16T13:05:14.96Z  
1305.5834   47135   43.3375  -70.2870  46.0     8.0    5.862      27.682     1025.6        180.300384    173.160865    417.046525    414.448956    5.200000      2008-04-16T13:05:35.00Z  
1305.9160   47155   43.3385  -70.2856  46.0     8.0    5.962      27.722     1025.6        176.795870    169.785025    417.218781    414.601655    5.200000      2008-04-16T13:05:54.96Z  
1306.2501   47175   43.3395  -70.2842  44.0     8.1    5.810      26.529     1025.6        174.382317    167.481145    417.356473    414.769153    5.200000      2008-04-16T13:06:15.01Z  
1306.5827   47195   43.3406  -70.2827  45.0     8.1    5.622      26.151     1025.6        172.611135    165.797523    417.466925    414.924377    5.200000      2008-04-16T13:06:34.96Z  
1306.9168   47215   43.3416  -70.2813  43.0     8.1    5.644      26.834     1025.6        171.519471    164.747367    417.462500    414.915091    5.200000      2008-04-16T13:06:55.01Z  
1307.2494   47235   43.3427  -70.2799  44.0     8.1    5.820      27.654     1025.6        170.530748    163.779164    417.564456    414.972419    5.200000      2008-04-16T13:07:14.96Z  
1307.5835   47255   43.3437  -70.2785  45.0     8.1    5.930      27.840     1025.6        169.307702    162.593921    417.423590    414.809093    5.200000      2008-04-16T13:07:35.01Z  
1307.9162   47275   43.3448  -70.2771  43.0     8.1    5.988      27.862     1025.6        168.483721    161.795200    417.129826    414.484545    5.200000      2008-04-16T13:07:54.97Z  
1308.2502   47295   43.3458  -70.2757  44.0     8.1    6.016      27.867     1025.6        167.943173    161.273653    417.101383    414.460303    5.200000      2008-04-16T13:08:15.01Z  
1308.5829   47315   43.3469  -70.2743  44.0     8.1    6.032      27.840     1025.6        167.566384    160.910602    416.887650    414.246123    5.200000      2008-04-16T13:08:34.97Z  
1308.9170   47335   43.3479  -70.2729  44.0     8.1    6.037      27.798     1025.6        167.288101    160.642718    416.889118    414.245167    5.200000      2008-04-16T13:08:55.02Z  
1309.2496   47355   43.3490  -70.2716  42.0     8.0    6.044      27.804     1025.6        166.881859    160.252797    416.606712    413.965802    5.200000      2008-04-16T13:09:14.98Z  
1309.5837   47375   43.3500  -70.2702  46.0     8.1    6.058      27.819     1025.6        166.603615    159.982609    416.434036    413.787665    5.200000      2008-04-16T13:09:35.02Z  
1309.9163   47395   43.3510  -70.2687  44.0     8.1    6.053      27.777     1025.6        166.513527    159.897376    415.873875    413.231953    5.200000      2008-04-16T13:09:54.98Z  
1310.2504   47415   43.3521  -70.2674  43.0     8.1    6.051      27.741     1025.6        166.452721    159.837837    415.700425    413.056786    5.200000      2008-04-16T13:10:15.02Z  
1310.5830   47435   43.3531  -70.2660  45.0     8.1    6.050      27.715     1025.6        166.182669    159.579550    415.576258    412.935481    5.200000      2008-04-16T13:10:34.98Z  
1310.9171   47455   43.3541  -70.2645  47.0     8.1    6.046      27.688     1025.6        165.960507    159.367325    415.548227    412.911058    5.200000      2008-04-16T13:10:55.03Z  
1311.2498   47475   43.3551  -70.2631  45.0     8.1    6.049      27.670     1025.6        165.638674    159.058482    415.448883    412.813712    5.200000      2008-04-16T13:11:14.99Z  
1311.5838   47495   43.3562  -70.2616  45.0     8.1    6.055      27.647     1025.6        165.194497    158.632936    415.341307    412.709138    5.200000      2008-04-16T13:11:35.03Z  
1311.9165   47515   43.3572  -70.2602  44.0     8.0    6.055      27.635     1025.6        164.816731    158.270513    415.384112    412.751706    5.200000      2008-04-16T13:11:54.99Z  
1312.2506   47535   43.3582  -70.2588  48.0     8.0    6.058      27.632     1025.6        164.210017    157.687977    415.529356    412.895449    5.200000      2008-04-16T13:12:15.04Z  
1312.5832   47555   43.3592  -70.2573  47.0     8.0    6.047      27.630     1025.6        163.739613    157.239035    415.535550    412.909911    5.200000      2008-04-16T13:12:34.99Z  
1312.9173   47575   43.3601  -70.2559  45.0     8.0    6.020      27.636     1025.6        163.391100    156.907435    415.663078    413.049017    5.200000      2008-04-16T13:12:55.04Z  
1313.2499   47595   43.3611  -70.2544  47.0     8.0    5.992      27.656     1025.7        162.977273    156.513933    415.429690    412.819127    5.200000      2008-04-16T13:13:14.99Z  
1313.5840   47615   43.3621  -70.2530  45.0     8.0    5.974      27.670     1025.7        162.714930    156.264004    415.427100    412.819253    5.200000      2008-04-16T13:13:35.04Z  
1313.9166   47635   43.3631  -70.2516  46.0     8.0    5.963      27.615     1025.7        162.573302    156.128547    415.556277    412.955855    5.200000      2008-04-16T13:13:55.00Z  
1314.2493   47655   43.3641  -70.2501  47.0     8.0    5.954      27.503     1025.7        162.433707    155.995627    415.441065    412.844123    5.200000      2008-04-16T13:14:14.96Z  
1314.5834   47675   43.3651  -70.2487  45.0     8.0    5.950      27.438     1025.7        162.641697    156.196617    415.326813    412.740557    5.200000      2008-04-16T13:14:35.00Z  
1314.9160   47695   43.3661  -70.2473  42.0     8.0    5.962      27.392     1025.6        163.038006    156.573966    415.339035    412.736009    5.200000      2008-04-16T13:14:54.96Z  
1315.2501   47715   43.3672  -70.2460  41.0     8.0    5.968      27.367     1025.7        163.169870    156.701197    415.243371    412.643036    5.200000      2008-04-16T13:15:15.01Z  
1315.5827   47735   43.3683  -70.2447  42.0     8.0    5.969      27.356     1025.7        163.185130    156.715097    415.285028    412.695829    5.200000      2008-04-16T13:15:34.96Z  
1315.9168   47755   43.3693  -70.2433  45.0     8.0    5.973      27.368     1025.6        163.130640    156.660026    415.007492    412.408808    5.200000      2008-04-16T13:15:55.01Z  
1316.2494   47775   43.3703  -70.2418  48.0     8.0    5.978      27.374     1025.6        162.975467    156.512112    415.517180    412.909740    5.200000      2008-04-16T13:16:14.96Z  
1316.5835   47795   43.3713  -70.2404  45.0     7.9    5.985      27.367     1025.6        162.914506    156.451027    415.399641    412.781262    5.200000      2008-04-16T13:16:35.01Z  
1316.9162   47815   43.3723  -70.2390  44.0     8.0    5.984      27.376     1025.6        162.829193    156.367734    415.894672    413.268592    5.200000      2008-04-16T13:16:54.97Z  
1317.2502   47835   43.3733  -70.2376  45.0     8.0    5.984      27.394     1025.6        162.832991    156.370124    415.557011    412.937460    5.200000      2008-04-16T13:17:15.01Z  
1317.5829   47855   43.3743  -70.2362  45.0     8.0    5.989      27.434     1025.6        162.876878    156.411742    415.359606    412.734971    5.200000      2008-04-16T13:17:34.97Z  
1317.9170   47875   43.3754  -70.2348  44.0     8.0    5.985      27.530     1025.6        162.991708    156.520737    415.351733    412.727757    5.200000      2008-04-16T13:17:55.02Z  
1318.2496   47895   43.3764  -70.2335  44.0     8.0    5.978      27.659     1025.6        163.086850    156.611839    nd            nd            5.200000      2008-04-16T13:18:14.98Z  
1318.5837   47915   43.3774  -70.2321  45.0     8.1    5.980      27.715     1025.6        163.098487    156.622278    415.241856    412.612733    5.200000      2008-04-16T13:18:35.02Z  
1318.9163   47935   43.3785  -70.2307  44.0     8.0    5.990      27.741     1025.6        163.096612    156.619244    415.219826    412.589392    5.200000      2008-04-16T13:18:54.98Z  
1319.2504   47955   43.3795  -70.2293  42.0     8.0    6.006      27.761     1025.6        163.280938    156.794336    415.270773    412.630659    5.200000      2008-04-16T13:19:15.02Z  
1319.5830   47975   43.3806  -70.2279  44.0     8.1    6.023      27.771     1025.6        163.473485    156.976559    415.345050    412.702363    5.200000      2008-04-16T13:19:34.98Z  
1319.9171   47995   43.3816  -70.2266  42.0     8.1    6.030      27.778     1025.6        163.764010    157.254396    415.344537    412.698837    5.200000      2008-04-16T13:19:55.03Z  
1320.2498   48015   43.3827  -70.2252  45.0     8.1    6.038      27.780     1025.6        164.045918    157.524847    415.261243    412.616552    5.200000      2008-04-16T13:20:14.99Z  
1320.5838   48035   43.3837  -70.2237  47.0     8.1    6.051      27.787     1025.6        164.331744    157.795661    415.208500    412.552767    5.200000      2008-04-16T13:20:35.03Z  
1320.9165   48055   43.3847  -70.2223  46.0     8.1    6.060      27.801     1025.6        164.506323    157.964359    414.872305    412.222873    5.200000      2008-04-16T13:20:54.99Z  
1321.2506   48075   43.3857  -70.2208  45.0     8.0    6.066      27.810     1025.6        164.792120    158.240034    414.834402    412.189716    5.200000      2008-04-16T13:21:15.04Z  
1321.5832   48095   43.3867  -70.2194  47.0     8.1    6.081      27.823     1025.6        165.040306    158.476850    414.784622    412.132053    5.200000      2008-04-16T13:21:34.99Z  
1321.9173   48115   43.3877  -70.2180  44.0     8.0    6.090      27.821     1025.6        165.320953    158.745805    nd            nd            5.200000      2008-04-16T13:21:55.04Z  
1322.2499   48135   43.3888  -70.2166  43.0     8.0    6.093      27.815     1025.6        165.705664    159.115657    nd            nd            5.200000      2008-04-16T13:22:14.99Z  
1322.5840   48155   43.3898  -70.2152  46.0     8.1    6.088      27.822     1025.6        165.968635    159.367789    nd            nd            5.200000      2008-04-16T13:22:35.04Z  
1322.9166   48175   43.3908  -70.2137  47.0     8.1    6.084      27.823     1025.6        166.172102    159.565288    nd            nd            5.200000      2008-04-16T13:22:55.00Z  
1323.2507   48195   43.3918  -70.2122  45.0     8.1    6.086      27.840     1025.6        166.301261    159.688018    411.572682    408.947034    5.200000      2008-04-16T13:23:15.04Z  
1323.5834   48215   43.3928  -70.2108  44.0     8.1    6.081      27.842     1025.6        166.380542    159.767631    411.021425    408.406465    5.200000      2008-04-16T13:23:35.00Z  
1323.9160   48235   43.3938  -70.2094  46.0     8.0    6.073      27.824     1025.6        166.462473    159.846975    410.994023    408.381804    5.200000      2008-04-16T13:23:54.96Z  
1324.2501   48255   43.3948  -70.2079  48.0     8.1    6.071      27.794     1025.6        166.447627    159.833945    410.739855    408.127583    5.200000      2008-04-16T13:24:15.01Z  
1324.5827   48275   43.3958  -70.2065  46.0     8.1    6.068      27.773     1025.6        166.195874    159.591279    410.373699    407.765894    5.200000      2008-04-16T13:24:34.96Z  
1324.9168   48295   43.3968  -70.2050  46.0     8.1    6.072      27.766     1025.6        165.956108    159.362044    410.491317    407.883756    5.200000      2008-04-16T13:24:55.01Z  
1325.2494   48315   43.3978  -70.2036  46.0     8.1    6.082      27.763     1025.6        165.725304    159.138285    410.506385    407.894481    5.200000      2008-04-16T13:25:14.96Z  
1325.5835   48335   43.3988  -70.2021  45.0     8.0    6.094      27.709     1025.6        165.488409    158.910679    410.732658    408.118429    5.200000      2008-04-16T13:25:35.01Z  
1325.9162   48355   43.3998  -70.2007  47.0     8.0    6.109      27.510     1025.6        165.340178    158.766687    410.913031    408.292056    5.200000      2008-04-16T13:25:54.97Z  
1326.2502   48375   43.4008  -70.1993  46.0     8.0    6.115      27.443     1025.6        165.344089    158.771153    410.542678    407.929211    5.200000      2008-04-16T13:26:15.01Z  
1326.5829   48395   43.4018  -70.1978  42.0     8.0    6.129      27.319     1025.6        165.417980    158.840865    410.845813    408.222888    5.200000      2008-04-16T13:26:34.97Z  
1326.9170   48415   43.4028  -70.1965  44.0     8.1    6.131      27.212     1025.6        165.611587    159.024875    410.093284    407.471332    5.200000      2008-04-16T13:26:55.02Z  
1327.2496   48435   43.4039  -70.1951  45.0     8.0    6.135      27.140     1025.6        165.725609    159.134010    409.855295    407.236022    5.200000      2008-04-16T13:27:14.98Z  
1327.5837   48455   43.4049  -70.1937  44.0     8.1    6.142      27.109     1025.6        165.765570    159.170952    nd            nd            5.200000      2008-04-16T13:27:35.02Z  
1327.9163   48475   43.4059  -70.1923  43.0     8.0    6.153      27.070     1025.6        165.742736    159.147128    410.478886    407.848139    5.200000      2008-04-16T13:27:54.98Z  
1328.2504   48495   43.4069  -70.1909  47.0     8.0    6.150      26.945     1025.6        165.674026    159.081347    410.751670    408.118553    5.200000      2008-04-16T13:28:15.02Z  
1328.5830   48515   43.4079  -70.1894  48.0     8.0    6.137      26.836     1025.6        165.780739    159.183946    410.498119    407.867111    5.200000      2008-04-16T13:28:34.98Z  
1328.9171   48535   43.4089  -70.1879  47.0     8.1    6.128      26.786     1025.6        165.887276    159.286407    410.332153    407.703045    5.200000      2008-04-16T13:28:55.03Z  
1329.2498   48555   43.4099  -70.1864  46.0     8.1    6.133      26.785     1025.6        166.000386    159.393764    410.088073    407.456249    5.200000      2008-04-16T13:29:14.99Z  
1329.5838   48575   43.4109  -70.1850  47.0     8.1    6.157      26.804     1025.6        166.057424    159.445620    nd            nd            5.200000      2008-04-16T13:29:35.03Z  
1329.9165   48595   43.4119  -70.1835  43.0     8.1    6.182      26.824     1025.6        165.936167    159.325355    409.712581    407.066857    5.200000      2008-04-16T13:29:54.99Z  
1330.2506   48615   43.4130  -70.1822  40.0     8.1    6.210      26.849     1025.6        166.037721    159.419827    409.565188    406.912937    5.200000      2008-04-16T13:30:15.04Z  
1330.5832   48635   43.4141  -70.1809  40.0     8.1    6.237      26.876     1025.6        165.847904    159.232786    409.574624    406.910733    5.200000      2008-04-16T13:30:34.99Z  
1330.9173   48655   43.4152  -70.1795  45.0     8.1    6.244      26.892     1025.6        165.803218    159.188634    409.339880    406.674842    5.200000      2008-04-16T13:30:55.04Z  
1331.2499   48675   43.4162  -70.1780  47.0     8.1    6.256      26.939     1025.6        165.646813    159.038128    409.290589    406.624251    5.200000      2008-04-16T13:31:14.99Z  
1331.5840   48695   43.4172  -70.1765  48.0     8.1    6.274      27.013     1025.6        165.622151    159.012285    409.274229    406.603485    5.200000      2008-04-16T13:31:35.04Z  
1331.9166   48715   43.4182  -70.1751  47.0     8.2    6.280      27.075     1025.6        165.492381    158.886750    409.009190    406.337931    5.200000      2008-04-16T13:31:55.00Z  
1332.2507   48735   43.4192  -70.1736  45.0     8.1    6.283      27.142     1025.6        165.369933    158.769323    408.956640    406.286132    5.200000      2008-04-16T13:32:15.04Z  
1332.5834   48755   43.4202  -70.1722  44.0     8.1    6.279      27.193     1025.6        165.202837    158.608133    408.583830    405.913099    5.200000      2008-04-16T13:32:35.00Z  
1332.9160   48775   43.4212  -70.1707  45.0     8.1    6.278      27.223     1025.6        165.171297    158.579671    408.565382    405.900121    5.200000      2008-04-16T13:32:54.96Z  
1333.2501   48795   43.4222  -70.1693  45.0     8.1    6.264      27.250     1025.6        165.119793    158.531104    408.334992    405.669163    5.200000      2008-04-16T13:33:15.01Z  
1333.5827   48815   43.4233  -70.1679  43.0     8.2    6.251      27.273     1025.6        165.145807    158.556473    408.942747    406.277942    5.200000      2008-04-16T13:33:34.96Z  
1333.9168   48835   43.4244  -70.1665  42.0     8.2    6.238      27.293     1025.6        165.138058    158.551205    409.075326    406.412526    5.200000      2008-04-16T13:33:55.01Z  
1334.2494   48855   43.4255  -70.1651  43.0     8.2    6.224      27.333     1025.6        165.213084    158.624178    409.635932    406.974843    5.200000      2008-04-16T13:34:14.96Z  
1334.5835   48875   43.4265  -70.1638  41.0     8.2    6.216      27.404     1025.6        165.394959    158.800057    410.271359    407.601712    5.200000      2008-04-16T13:34:35.01Z  
1334.9162   48895   43.4276  -70.1624  44.0     8.2    6.216      27.478     1025.6        165.543775    158.943825    410.039178    407.379792    5.200000      2008-04-16T13:34:54.97Z  
1335.2502   48915   43.4287  -70.1610  44.0     8.2    6.223      27.526     1025.6        165.510497    158.912929    410.076193    407.420213    5.200000      2008-04-16T13:35:15.01Z  
1335.5829   48935   43.4297  -70.1596  44.0     8.2    6.224      27.559     1025.6        165.366835    158.775526    410.006283    407.350792    5.200000      2008-04-16T13:35:34.97Z  
1335.9170   48955   43.4308  -70.1582  42.0     8.2    6.230      27.583     1025.6        165.361250    158.771238    409.898480    407.246889    5.200000      2008-04-16T13:35:55.02Z  
1336.2496   48975   43.4319  -70.1568  42.0     8.2    6.241      27.599     1025.6        165.366124    158.775258    409.825108    407.172760    5.200000      2008-04-16T13:36:14.98Z  
1336.5837   48995   43.4330  -70.1554  42.0     8.2    6.253      27.626     1025.6        165.414853    158.820566    409.704114    407.048211    5.200000      2008-04-16T13:36:35.02Z  
1336.9163   49015   43.4340  -70.1540  45.0     8.2    6.263      27.666     1025.6        165.523292    158.923552    409.789062    407.131749    5.200000      2008-04-16T13:36:54.98Z  
1337.2504   49035   43.4350  -70.1525  46.0     8.2    6.257      27.699     1025.6        165.856520    159.243369    410.218791    407.557472    5.200000      2008-04-16T13:37:15.02Z  
1337.5830   49055   43.4361  -70.1511  44.0     8.2    6.251      27.720     1025.6        166.400472    159.766604    410.195972    407.536018    5.200000      2008-04-16T13:37:34.98Z  
1337.9171   49075   43.4371  -70.1496  47.0     8.2    6.245      27.761     1025.6        166.823408    160.172196    410.361640    407.700430    5.200000      2008-04-16T13:37:55.03Z  
1338.2498   49095   43.4381  -70.1481  47.0     8.2    6.249      27.798     1025.6        167.259915    160.592206    410.407040    407.745953    5.200000      2008-04-16T13:38:14.99Z  
1338.5838   49115   43.4391  -70.1466  48.0     8.2    6.253      27.837     1025.6        167.431209    160.756575    410.344207    407.684358    5.200000      2008-04-16T13:38:35.03Z  
1338.9165   49135   43.4401  -70.1451  46.0     8.2    6.253      27.859     1025.6        167.507459    160.829559    410.234884    407.575814    5.200000      2008-04-16T13:38:54.99Z  
1339.2506   49155   43.4411  -70.1436  44.0     8.2    6.253      27.889     1025.6        167.518103    160.838693    410.064651    407.403335    5.200000      2008-04-16T13:39:15.04Z  
1339.5832   49175   43.4421  -70.1422  46.0     8.2    6.258      27.922     1025.6        167.603406    160.922021    409.882066    407.225164    5.200000      2008-04-16T13:39:34.99Z  
1339.9173   49195   43.4432  -70.1407  44.0     8.1    6.267      27.957     1025.6        167.663581    160.980938    409.689455    407.037698    5.200000      2008-04-16T13:39:55.04Z  
1340.2499   49215   43.4442  -70.1393  44.0     8.1    6.267      27.999     1025.6        167.938310    161.244092    409.651934    406.998786    5.200000      2008-04-16T13:40:14.99Z  
1340.5840   49235   43.4452  -70.1379  48.0     8.3    6.244      28.037     1025.6        168.383495    161.674832    409.770238    407.125516    5.200000      2008-04-16T13:40:35.04Z  
1340.9166   49255   43.4462  -70.1363  47.0     8.2    6.247      28.080     1025.6        168.860370    162.133956    nd            nd            5.200000      2008-04-16T13:40:55.00Z  
1341.2493   49275   43.4472  -70.1348  46.0     8.3    6.250      28.122     1025.6        169.325085    162.580479    411.133239    408.484525    5.200000      2008-04-16T13:41:14.96Z  
1341.5834   49295   43.4482  -70.1333  48.0     8.3    6.254      28.147     1025.6        169.996972    163.226100    411.110609    408.461116    5.200000      2008-04-16T13:41:35.00Z  
1341.9160   49315   43.4493  -70.1318  43.0     8.3    6.255      28.177     1025.6        170.835165    164.031740    411.469401    408.818221    5.200000      2008-04-16T13:41:54.96Z  
1342.2501   49335   43.4503  -70.1304  44.0     8.2    6.251      28.210     1025.6        171.660856    164.825885    411.403047    408.756917    5.200000      2008-04-16T13:42:15.01Z  
1342.5827   49355   43.4514  -70.1290  43.0     8.2    6.260      28.242     1025.6        172.307023    165.445856    411.362864    408.716950    5.200000      2008-04-16T13:42:34.96Z  
1342.9168   49375   43.4525  -70.1276  43.0     8.2    6.268      28.268     1025.7        173.059675    166.168664    411.330604    408.684144    5.200000      2008-04-16T13:42:55.01Z  
1343.2494   49395   43.4536  -70.1262  43.0     8.3    6.274      28.283     1025.6        173.781329    166.859447    411.240453    408.590100    5.200000      2008-04-16T13:43:14.96Z  
1343.5835   49415   43.4546  -70.1247  45.0     8.3    6.294      28.311     1025.6        174.250445    167.308062    411.140956    408.486842    5.200000      2008-04-16T13:43:35.01Z  
1343.9162   49435   43.4557  -70.1233  43.0     8.3    6.300      28.341     1025.6        174.755166    167.790086    411.082623    408.423259    5.200000      2008-04-16T13:43:54.97Z  
1344.2502   49455   43.4568  -70.1219  45.0     8.3    6.303      28.356     1025.6        175.261975    168.277526    410.905013    408.248011    5.200000      2008-04-16T13:44:15.01Z  
1344.5829   49475   43.4578  -70.1204  44.0     8.4    6.297      28.360     1025.6        175.865672    168.854955    410.833347    408.173765    5.200000      2008-04-16T13:44:34.97Z  
1344.9170   49495   43.4589  -70.1190  42.0     8.3    6.331      28.373     1025.6        176.157993    169.132089    410.609794    407.942524    5.200000      2008-04-16T13:44:55.02Z  
1345.2496   49515   43.4600  -70.1175  44.0     8.3    6.376      28.391     1025.6        176.347669    169.307435    410.589716    407.907318    5.200000      2008-04-16T13:45:14.98Z  
1345.5837   49535   43.4611  -70.1161  43.0     8.3    6.388      28.410     1025.6        176.538206    169.489411    410.777185    408.089986    5.200000      2008-04-16T13:45:35.02Z  
1345.9163   49555   43.4622  -70.1147  45.0     8.3    6.378      28.423     1025.6        177.037130    169.967727    410.956444    408.266603    5.200000      2008-04-16T13:45:54.98Z  
1346.2504   49575   43.4632  -70.1132  46.0     8.4    6.368      28.442     1025.6        177.258152    170.180889    410.927993    408.240012    5.200000      2008-04-16T13:46:15.02Z  
1346.5830   49595   43.4643  -70.1118  43.0     8.4    6.353      28.471     1025.6        177.545262    170.457923    410.872249    408.186174    5.200000      2008-04-16T13:46:34.98Z  
1346.9171   49615   43.4654  -70.1103  44.0     8.4    6.337      28.502     1025.6        177.982212    170.879213    nd            nd            5.200000      2008-04-16T13:46:55.03Z  
1347.2498   49635   43.4665  -70.1088  44.0     8.4    6.325      28.527     1025.6        178.481498    171.360161    nd            nd            5.200000      2008-04-16T13:47:14.99Z  
1347.5838   49655   43.4676  -70.1074  43.0     8.4    6.310      28.553     1025.6        178.772590    171.640542    408.790337    406.128301    5.200000      2008-04-16T13:47:35.03Z  
1347.9165   49675   43.4687  -70.1059  44.0     8.4    6.282      28.577     1025.6        178.898059    171.764027    408.807532    406.152949    5.200000      2008-04-16T13:47:54.99Z  
1348.2506   49695   43.4697  -70.1044  46.0     8.4    6.266      28.632     1025.6        179.092548    171.953884    408.849474    406.202856    5.200000      2008-04-16T13:48:15.04Z  
1348.5832   49715   43.4708  -70.1029  46.0     8.4    6.249      28.719     1025.6        179.392687    172.244266    nd            nd            5.200000      2008-04-16T13:48:34.99Z  
1348.9173   49735   43.4718  -70.1014  46.0     8.4    6.233      28.807     1025.6        179.907797    172.742002    409.698755    407.058631    5.200000      2008-04-16T13:48:55.04Z  
1349.2499   49755   43.4729  -70.1000  43.0     8.3    6.235      28.862     1025.6        180.711271    173.514652    409.962260    407.322414    5.200000      2008-04-16T13:49:14.99Z  
1349.5840   49775   43.4740  -70.0985  45.0     8.3    6.233      28.902     1025.6        181.586427    174.355632    410.263147    407.623395    5.200000      2008-04-16T13:49:35.04Z  
1349.9166   49795   43.4750  -70.0970  46.0     8.4    6.234      28.964     1025.6        182.296191    175.039085    nd            nd            5.200000      2008-04-16T13:49:55.00Z  
1350.2493   49815   43.4760  -70.0955  48.0     8.4    6.214      29.022     1025.6        183.151203    175.863366    nd            nd            5.200000      2008-04-16T13:50:14.96Z  
1350.5834   49835   43.4771  -70.0940  45.0     8.4    6.171      29.074     1025.7        184.058189    176.740370    nd            nd            5.200000      2008-04-16T13:50:35.00Z  
1350.9160   49855   43.4781  -70.0924  47.0     8.4    6.173      29.136     1025.7        184.769817    177.424324    414.772750    412.129347    5.200000      2008-04-16T13:50:54.96Z  
1351.2501   49875   43.4791  -70.0909  46.0     8.4    6.173      29.168     1025.7        185.595016    178.217682    414.998228    412.357202    5.200000      2008-04-16T13:51:15.01Z  
1351.5827   49895   43.4802  -70.0894  45.0     8.5    6.139      29.221     1025.7        186.375513    178.969728    415.052509    412.413578    5.200000      2008-04-16T13:51:34.96Z  
1351.9168   49915   43.4812  -70.0879  47.0     8.5    6.108      29.268     1025.7        187.165123    179.734339    nd            nd            5.200000      2008-04-16T13:51:55.01Z  
1352.2494   49935   43.4823  -70.0864  46.0     8.4    6.106      29.315     1025.7        187.613062    180.167011    nd            nd            5.200000      2008-04-16T13:52:14.96Z  
1352.5835   49955   43.4833  -70.0849  45.0     8.4    6.113      29.360     1025.7        188.351165    180.876122    nd            nd            5.200000      2008-04-16T13:52:35.01Z  
1352.9162   49975   43.4844  -70.0834  43.0     8.4    6.083      29.406     1025.7        189.145926    181.645497    418.224797    415.601221    5.200000      2008-04-16T13:52:54.97Z  
1353.2502   49995   43.4855  -70.0820  42.0     8.3    6.079      29.418     1025.7        189.976767    182.444395    418.348627    415.728738    5.200000      2008-04-16T13:53:15.01Z  
1353.5829   50015   43.4866  -70.0806  46.0     8.4    6.074      29.290     1025.7        190.645124    183.088865    418.475337    415.860003    5.200000      2008-04-16T13:53:34.97Z  
1353.9170   50035   43.4876  -70.0791  42.0     8.4    6.035      29.185     1025.7        190.927988    183.367127    418.489423    415.884321    5.200000      2008-04-16T13:53:55.02Z  
1354.2496   50055   43.4888  -70.0777  42.0     8.4    6.000      29.028     1025.7        190.598249    183.055494    419.424903    416.836823    5.200000      2008-04-16T13:54:14.98Z  
1354.5837   50075   43.4899  -70.0763  42.0     8.4    5.978      28.913     1025.8        189.347377    181.860152    419.399209    416.813998    5.200000      2008-04-16T13:54:35.02Z  
1354.9163   50095   43.4910  -70.0748  43.0     8.4    5.984      28.874     1025.8        187.824810    180.398312    419.753877    417.167571    5.200000      2008-04-16T13:54:54.98Z  
1355.2504   50115   43.4920  -70.0734  43.0     8.4    6.008      28.846     1025.8        186.256504    178.889903    nd            nd            5.200000      2008-04-16T13:55:15.02Z  
1355.5830   50135   43.4931  -70.0720  44.0     8.4    6.021      28.832     1025.8        184.965448    177.651173    421.389763    418.796528    5.200000      2008-04-16T13:55:34.98Z  
1355.9171   50155   43.4942  -70.0705  42.0     8.4    6.042      28.827     1025.8        184.042349    176.760685    421.458883    418.855110    5.200000      2008-04-16T13:55:55.03Z  
1356.2498   50175   43.4953  -70.0691  45.0     8.4    6.060      28.814     1025.8        183.639542    176.375167    421.459746    418.859974    5.200000      2008-04-16T13:56:14.99Z  
1356.5838   50195   43.4964  -70.0676  46.0     8.4    6.080      28.797     1025.8        183.350376    176.094745    421.333305    418.728286    5.200000      2008-04-16T13:56:35.03Z  
1356.9165   50215   43.4974  -70.0661  46.0     8.4    6.074      28.791     1025.8        183.153137    175.909456    nd            nd            5.200000      2008-04-16T13:56:54.99Z  
1357.2506   50235   43.4984  -70.0646  46.0     8.4    6.061      28.792     1025.8        183.398296    176.144768    421.982120    419.383417    5.200000      2008-04-16T13:57:15.04Z  
1357.5832   50255   43.4995  -70.0631  46.0     8.4    6.056      28.797     1025.8        183.857979    176.590440    421.901869    419.310994    5.200000      2008-04-16T13:57:34.99Z  
1357.9173   50275   43.5005  -70.0616  47.0     8.4    6.052      28.799     1025.8        184.227463    176.946746    421.695711    419.110172    5.200000      2008-04-16T13:57:55.04Z  
1358.2499   50295   43.5015  -70.0601  44.0     8.4    6.055      28.788     1025.8        184.469691    177.181545    420.753633    418.169116    5.200000      2008-04-16T13:58:14.99Z  
1358.5840   50315   43.5026  -70.0586  47.0     8.4    6.044      28.785     1025.9        185.034706    177.727420    420.951924    418.383042    5.200000      2008-04-16T13:58:35.04Z  
1358.9166   50335   43.5036  -70.0571  46.0     8.3    6.029      28.770     1025.9        185.628232    178.299287    420.446054    417.888289    5.200000      2008-04-16T13:58:55.00Z  
1359.2493   50355   43.5047  -70.0556  46.0     8.3    6.025      28.750     1025.9        186.077032    178.731082    420.382092    417.823922    5.200000      2008-04-16T13:59:14.96Z  
1359.5834   50375   43.5057  -70.0540  48.0     8.4    6.040      28.717     1025.9        185.985122    178.642527    nd            nd            5.200000      2008-04-16T13:59:35.00Z  
1359.9160   50395   43.5067  -70.0525  46.0     8.3    6.051      28.677     1025.9        185.479689    178.157058    419.031297    416.478802    5.505556      2008-04-16T13:59:54.96Z  
1400.2501   50415   43.5077  -70.0510  47.0     8.4    6.060      28.668     1025.9        184.421450    177.140193    nd            nd            6.300000      2008-04-16T14:00:15.01Z  
1400.5827   50435   43.5088  -70.0495  43.0     8.4    6.080      28.667     1025.9        183.311973    176.073722    nd            nd            6.300000      2008-04-16T14:00:34.96Z  
1400.9168   50455   43.5098  -70.0481  44.0     8.4    6.079      28.670     1025.9        182.909597    175.688186    nd            nd            6.300000      2008-04-16T14:00:55.01Z  
1401.2494   50475   43.5109  -70.0466  44.0     8.3    6.074      28.679     1025.9        182.810105    175.593426    416.327318    413.788625    6.300000      2008-04-16T14:01:14.96Z  
1401.5835   50495   43.5120  -70.0452  44.0     8.3    6.076      28.682     1025.9        182.881903    175.663528    416.382315    413.850551    6.300000      2008-04-16T14:01:35.01Z  
1401.9162   50515   43.5130  -70.0437  45.0     8.3    6.053      28.689     1025.9        183.165298    175.938914    nd            nd            6.300000      2008-04-16T14:01:54.97Z  
1402.2502   50535   43.5141  -70.0423  42.0     8.3    6.037      28.704     1025.9        183.245840    176.019468    415.615880    413.102927    6.300000      2008-04-16T14:02:15.01Z  
1402.5829   50555   43.5152  -70.0408  44.0     8.3    6.019      28.716     1025.9        183.352817    176.124487    415.853682    413.345263    6.300000      2008-04-16T14:02:34.97Z  
1402.9170   50575   43.5163  -70.0394  42.0     8.4    6.015      28.745     1025.9        183.495344    176.262482    415.836606    413.330026    6.300000      2008-04-16T14:02:55.02Z  
1403.2496   50595   43.5174  -70.0379  46.0     8.4    6.020      28.756     1025.9        183.857394    176.608142    416.009663    413.498905    6.300000      2008-04-16T14:03:14.98Z  
1403.5837   50615   43.5185  -70.0365  42.0     8.5    5.960      28.697     1025.9        184.477963    177.211535    nd            nd            6.300000      2008-04-16T14:03:35.02Z  
1403.9163   50635   43.5196  -70.0350  46.0     8.4    5.899      28.582     1025.9        186.006223    178.687340    416.214957    413.735234    6.300000      2008-04-16T14:03:54.98Z  
1404.2504   50655   43.5206  -70.0335  45.0     8.4    5.858      28.523     1025.9        189.559932    182.105100    415.885796    413.416098    6.300000      2008-04-16T14:04:15.02Z  
1404.5830   50675   43.5217  -70.0320  47.0     8.5    5.834      28.509     1025.9        193.401330    185.796597    415.579493    413.114709    6.300000      2008-04-16T14:04:34.98Z  
1404.9171   50695   43.5227  -70.0305  44.0     8.4    5.809      28.485     1025.9        196.049596    188.345510    415.447940    412.993094    6.300000      2008-04-16T14:04:55.03Z  
1405.2498   50715   43.5238  -70.0290  46.0     8.4    5.805      28.451     1025.9        198.327862    190.533997    nd            nd            6.300000      2008-04-16T14:05:14.99Z  
1405.5838   50735   43.5248  -70.0275  44.0     8.4    5.805      28.450     1025.9        199.794981    191.942921    416.320989    413.858925    6.300000      2008-04-16T14:05:35.03Z  
1405.9165   50755   43.5259  -70.0260  46.0     8.4    5.839      28.445     1025.9        200.746751    192.852329    416.277670    413.809161    6.300000      2008-04-16T14:05:54.99Z  
1406.2506   50775   43.5269  -70.0245  45.0     8.5    5.859      28.398     1025.9        201.489969    193.565015    nd            nd            6.300000      2008-04-16T14:06:15.04Z  
1406.5832   50795   43.5280  -70.0230  46.0     8.4    5.858      28.352     1025.9        201.990477    194.045423    nd            nd            6.300000      2008-04-16T14:06:34.99Z  
1406.9173   50815   43.5290  -70.0215  44.0     8.4    5.850      28.346     1025.9        201.856585    193.920250    nd            nd            6.300000      2008-04-16T14:06:55.04Z  
1407.2499   50835   43.5301  -70.0200  45.0     8.4    5.825      28.367     1025.9        201.346403    193.431204    nd            nd            6.300000      2008-04-16T14:07:14.99Z  
1407.5840   50855   43.5312  -70.0185  44.0     8.4    5.823      28.419     1025.9        200.773748    192.878978    nd            nd            6.300000      2008-04-16T14:07:35.04Z  
1407.9166   50875   43.5323  -70.0171  44.0     8.4    5.832      28.458     1025.9        200.933008    193.031359    409.527626    407.093339    6.300000      2008-04-16T14:07:55.00Z  
1408.2507   50895   43.5334  -70.0156  45.0     8.4    5.829      28.490     1025.9        201.319287    193.402211    409.750163    407.317208    6.300000      2008-04-16T14:08:15.04Z  
1408.5834   50915   43.5344  -70.0141  44.0     8.4    5.832      28.507     1025.9        201.863737    193.924490    409.757786    407.322749    6.300000      2008-04-16T14:08:35.00Z  
1408.9160   50935   43.5355  -70.0126  46.0     8.4    5.820      28.509     1025.9        202.256701    194.302513    409.723437    407.289253    6.300000      2008-04-16T14:08:54.96Z  
1409.2501   50955   43.5365  -70.0111  46.0     8.4    5.826      28.529     1025.9        202.364575    194.404241    409.499222    407.062643    6.300000      2008-04-16T14:09:15.01Z  
1409.5827   50975   43.5376  -70.0096  45.0     8.4    5.829      28.566     1025.9        202.098928    194.148115    409.412162    406.975131    6.300000      2008-04-16T14:09:34.96Z  
1409.9168   50995   43.5387  -70.0082  43.0     8.4    5.805      28.577     1025.9        201.931021    193.988027    409.138180    406.705366    6.300000      2008-04-16T14:09:55.01Z  
1410.2494   51015   43.5398  -70.0067  42.0     8.4    5.803      28.570     1025.9        202.446639    194.482854    408.818155    406.385894    6.300000      2008-04-16T14:10:14.96Z  
1410.5835   51035   43.5409  -70.0053  45.0     8.4    5.819      28.448     1025.9        202.772073    194.793016    408.631898    406.195115    6.300000      2008-04-16T14:10:35.01Z  
1410.9162   51055   43.5419  -70.0037  48.0     8.4    5.816      28.299     1025.9        202.865750    194.884556    408.604317    406.171146    6.300000      2008-04-16T14:10:54.97Z  
1411.2502   51075   43.5429  -70.0022  48.0     8.4    5.778      28.221     1025.9        202.350025    194.392619    408.620576    406.195125    6.300000      2008-04-16T14:11:15.01Z  
1411.5829   51095   43.5439  -70.0007  46.0     8.5    5.743      28.140     1025.9        201.281641    193.368303    408.834180    406.410819    6.300000      2008-04-16T14:11:34.97Z  
1411.9170   51115   43.5449  -69.9991  48.0     8.4    5.728      28.054     1025.9        200.102247    192.235651    409.180372    406.756160    6.300000      2008-04-16T14:11:55.02Z  
1412.2496   51135   43.5460  -69.9975  47.0     8.4    5.708      27.964     1025.9        199.065585    191.243666    409.293740    406.874337    6.300000      2008-04-16T14:12:14.98Z  
1412.5837   51155   43.5470  -69.9961  44.0     8.5    5.712      27.903     1025.9        197.636480    189.870179    409.456866    407.038190    6.300000      2008-04-16T14:12:35.02Z  
1412.9163   51175   43.5481  -69.9946  45.0     8.4    5.707      27.803     1025.9        196.750536    189.018909    409.486591    407.067069    6.300000      2008-04-16T14:12:54.98Z  
1413.2504   51195   43.5492  -69.9931  43.0     8.5    5.684      27.755     1025.9        195.726855    188.037656    409.733759    407.316337    6.300000      2008-04-16T14:13:15.02Z  
1413.5830   51215   43.5503  -69.9916  43.0     8.5    5.662      27.726     1025.9        194.597992    186.956233    409.570738    407.160949    6.300000      2008-04-16T14:13:34.98Z  
1413.9171   51235   43.5514  -69.9902  42.0     8.5    5.664      27.744     1025.9        193.529919    185.930398    409.338969    406.930778    6.300000      2008-04-16T14:13:55.03Z  
1414.2498   51255   43.5525  -69.9887  42.0     8.5    5.681      27.735     1025.9        192.843137    185.269278    409.218293    406.808200    6.300000      2008-04-16T14:14:14.99Z  
1414.5838   51275   43.5536  -69.9873  42.0     8.5    5.691      27.665     1025.9        192.641807    185.074359    nd            nd            6.300000      2008-04-16T14:14:35.03Z  
1414.9165   51295   43.5548  -69.9859  44.0     8.5    5.702      27.615     1025.9        192.546789    184.983231    408.779524    406.368885    6.300000      2008-04-16T14:14:54.99Z  
1415.2506   51315   43.5559  -69.9844  42.0     8.5    5.700      27.578     1025.9        192.467904    184.908529    408.577785    406.173142    6.300000      2008-04-16T14:15:15.04Z  
1415.5832   51335   43.5570  -69.9830  43.0     8.5    5.695      27.559     1025.9        192.186427    184.637808    408.272988    405.868207    6.300000      2008-04-16T14:15:34.99Z  
1415.9173   51355   43.5581  -69.9816  43.0     8.4    5.731      27.542     1025.9        191.996788    184.451904    408.256821    405.844649    6.300000      2008-04-16T14:15:55.04Z  
1416.2499   51375   43.5592  -69.9801  45.0     8.5    5.786      27.499     1025.9        191.764585    184.223008    408.353966    405.934110    6.300000      2008-04-16T14:16:14.99Z  
1416.5840   51395   43.5603  -69.9786  43.0     8.5    5.788      27.462     1025.9        191.629070    184.092009    408.668075    406.232504    6.300000      2008-04-16T14:16:35.04Z  
1416.9166   51415   43.5614  -69.9772  42.0     8.5    5.753      27.428     1025.9        191.500187    183.973743    409.192746    406.775120    6.300000      2008-04-16T14:16:55.00Z  
1417.2507   51435   43.5625  -69.9758  42.0     8.5    5.753      27.383     1025.9        191.329268    183.808612    409.446469    407.021371    6.300000      2008-04-16T14:17:15.04Z  
1417.5834   51455   43.5636  -69.9743  45.0     8.4    5.777      27.344     1025.9        191.251668    183.733304    409.450885    407.024175    6.300000      2008-04-16T14:17:35.00Z  
1417.9160   51475   43.5647  -69.9728  45.0     8.5    5.774      27.356     1025.9        191.038164    183.529901    409.473427    407.050642    6.300000      2008-04-16T14:17:54.96Z  
1418.2501   51495   43.5657  -69.9713  44.0     8.4    5.815      27.384     1025.9        190.812937    183.309584    409.140045    406.712052    6.300000      2008-04-16T14:18:15.01Z  
1418.5827   51515   43.5668  -69.9697  47.0     8.5    5.829      27.396     1025.9        190.937505    183.428956    408.998107    406.570705    6.300000      2008-04-16T14:18:34.96Z  
1418.9168   51535   43.5679  -69.9682  45.0     9.1    5.822      27.369     1025.9        190.970042    183.456622    409.160310    406.719867    6.300000      2008-04-16T14:18:55.01Z  
1419.2494   51555   43.5691  -69.9665  44.0     9.5    5.795      27.330     1025.9        191.157747    183.640860    nd            nd            6.300000      2008-04-16T14:19:14.96Z  
1419.5835   51575   43.5703  -69.9649  46.0     9.4    5.810      27.271     1025.9        191.186115    183.665827    408.245951    405.817511    6.300000      2008-04-16T14:19:35.01Z  
1419.9162   51595   43.5715  -69.9632  46.0     9.4    5.797      27.181     1025.9        191.370055    183.845068    408.094039    405.672509    6.300000      2008-04-16T14:19:54.97Z  
1420.2502   51615   43.5726  -69.9615  46.0     9.4    5.786      27.151     1025.9        191.916081    184.372924    408.064486    405.651844    6.300000      2008-04-16T14:20:15.01Z  
1420.5829   51635   43.5738  -69.9598  45.0     9.3    5.817      27.135     1025.9        192.656482    185.080312    407.336345    404.918368    6.300000      2008-04-16T14:20:34.97Z  
1420.9170   51655   43.5750  -69.9581  46.0     9.4    5.833      27.095     1025.9        192.724074    185.145476    407.385850    404.970102    6.300000      2008-04-16T14:20:55.02Z  
1421.2496   51675   43.5761  -69.9565  44.0     9.2    5.833      27.046     1025.9        192.409253    184.845842    406.806482    404.398059    6.300000      2008-04-16T14:21:14.98Z  
1421.5837   51695   43.5773  -69.9549  45.0     8.6    5.875      26.982     1025.9        192.250845    184.691572    406.941922    404.526524    6.300000      2008-04-16T14:21:35.02Z  
1421.9163   51715   43.5783  -69.9535  45.0     8.2    5.862      26.943     1026.0        192.374218    184.813426    406.451970    404.050042    6.300000      2008-04-16T14:21:54.98Z  
1422.2504   51735   43.5793  -69.9520  45.0     8.2    5.837      26.893     1026.0        192.539242    184.975713    406.523521    404.128216    6.300000      2008-04-16T14:22:15.02Z  
1422.5830   51755   43.5804  -69.9506  44.0     8.2    5.874      26.839     1026.0        192.614506    185.046123    406.412701    404.014234    6.300000      2008-04-16T14:22:34.98Z  
1422.9171   51775   43.5814  -69.9491  45.0     8.2    5.922      26.751     1026.0        192.511260    184.941771    406.524026    404.113686    6.300000      2008-04-16T14:22:55.03Z  
1423.2498   51795   43.5825  -69.9477  43.0     8.1    5.947      26.713     1026.0        192.463744    184.892853    406.426759    404.011544    6.300000      2008-04-16T14:23:14.99Z  
1423.5838   51815   43.5835  -69.9463  44.0     8.1    6.026      26.702     1026.0        192.522635    184.942319    406.501878    404.070738    6.300000      2008-04-16T14:23:35.03Z  
1423.9165   51835   43.5846  -69.9449  45.0     8.1    6.059      26.693     1026.0        193.499597    185.875724    406.588319    404.146712    6.300000      2008-04-16T14:23:54.99Z  
1424.2506   51855   43.5856  -69.9434  48.0     8.2    6.035      26.660     1026.0        195.736553    188.028617    406.548794    404.115541    6.300000      2008-04-16T14:24:15.04Z  
1424.5832   51875   43.5866  -69.9419  45.0     8.2    5.995      26.654     1026.0        197.609622    189.833832    406.601111    404.177174    6.300000      2008-04-16T14:24:34.99Z  
1424.9173   51895   43.5876  -69.9405  45.0     8.2    5.998      26.652     1026.0        199.035214    191.203625    406.526900    404.104446    6.300000      2008-04-16T14:24:55.04Z  
1425.2499   51915   43.5887  -69.9391  44.0     8.2    6.024      26.645     1026.0        199.945814    192.075259    406.533603    404.106463    6.300000      2008-04-16T14:25:14.99Z  
1425.5840   51935   43.5898  -69.9377  43.0     8.1    6.050      26.642     1026.0        200.877930    192.968264    406.485564    404.053669    6.300000      2008-04-16T14:25:35.04Z  
1425.9166   51955   43.5908  -69.9362  46.0     8.1    6.058      26.614     1026.0        202.248126    194.283071    406.350440    403.916800    6.300000      2008-04-16T14:25:55.00Z  
1426.2493   51975   43.5918  -69.9348  47.0     8.2    6.040      26.592     1026.0        203.396571    195.387010    406.337350    403.905064    6.300000      2008-04-16T14:26:14.96Z  
1426.5834   51995   43.5928  -69.9333  44.0     8.2    6.007      26.591     1026.0        204.059403    196.029757    406.472414    404.051658    6.300000      2008-04-16T14:26:35.00Z  
1426.9160   52015   43.5939  -69.9318  47.0     8.2    6.029      26.615     1026.0        204.587009    196.531855    406.549199    404.117537    6.300000      2008-04-16T14:26:54.96Z  
1427.2501   52035   43.5948  -69.9303  48.0     8.2    6.079      26.635     1026.0        205.145941    197.063531    406.419036    403.979609    6.300000      2008-04-16T14:27:15.01Z  
1427.5827   52055   43.5959  -69.9289  43.0     8.2    6.106      26.628     1026.0        205.854357    197.741698    406.293349    403.848568    6.300000      2008-04-16T14:27:34.96Z  
1427.9168   52075   43.5969  -69.9274  45.0     8.2    6.136      26.625     1026.0        206.246052    198.115256    406.583576    404.132972    6.300000      2008-04-16T14:27:55.01Z  
1428.2494   52095   43.5980  -69.9260  43.0     8.2    6.076      26.563     1026.0        206.056010    197.940414    406.724624    404.287302    6.300000      2008-04-16T14:28:14.96Z  
1428.5835   52115   43.5991  -69.9246  43.0     8.2    6.000      26.431     1026.0        205.132733    197.064153    406.601285    404.187148    6.300000      2008-04-16T14:28:35.01Z  
1428.9162   52135   43.6001  -69.9232  43.0     8.2    5.898      26.340     1026.0        203.188193    195.209026    406.540835    404.150905    6.300000      2008-04-16T14:28:54.97Z  
1429.2502   52155   43.6012  -69.9218  43.0     8.2    5.852      26.246     1026.0        200.767335    192.888151    406.563031    404.183209    6.300000      2008-04-16T14:29:15.01Z  
1429.5829   52175   43.6023  -69.9204  44.0     8.3    5.900      26.193     1026.0        198.346852    190.557119    406.606077    404.215047    6.300000      2008-04-16T14:29:34.97Z  
1429.9170   52195   43.6034  -69.9190  43.0     8.3    5.975      26.151     1026.0        196.638961    188.908011    406.806835    404.397822    6.300000      2008-04-16T14:29:55.02Z  
1430.2496   52215   43.6044  -69.9176  43.0     8.3    6.138      26.122     1026.0        195.782497    188.065548    406.807529    404.358612    6.300000      2008-04-16T14:30:14.98Z  
1430.5837   52235   43.6055  -69.9161  46.0     8.3    6.233      26.071     1026.0        195.648089    187.925230    406.553785    404.082742    6.300000      2008-04-16T14:30:35.02Z  
1430.9163   52255   43.6065  -69.9146  44.0     8.4    6.204      25.892     1026.0        195.746416    188.024607    406.549988    404.091086    6.300000      2008-04-16T14:30:54.98Z  
1431.2504   52275   43.6076  -69.9131  46.0     8.3    6.120      25.719     1026.0        195.130098    187.442081    406.520483    404.072833    6.300000      2008-04-16T14:31:15.02Z  
1431.5830   52295   43.6086  -69.9116  46.0     8.3    6.075      25.673     1026.0        193.326669    185.716700    406.220755    403.797043    6.300000      2008-04-16T14:31:34.98Z  
1431.9171   52315   43.6096  -69.9102  46.0     8.3    6.095      25.642     1026.0        191.134447    183.607602    406.120929    403.690847    6.300000      2008-04-16T14:31:55.03Z  
1432.2498   52335   43.6107  -69.9087  46.0     8.3    6.103      25.512     1026.0        189.641470    182.172497    406.110104    403.677675    6.300000      2008-04-16T14:32:14.99Z  
1432.5838   52355   43.6117  -69.9071  48.0     8.3    6.050      25.342     1026.0        189.025526    181.588651    406.006687    403.592449    6.300000      2008-04-16T14:32:35.03Z  
1432.9165   52375   43.6127  -69.9056  46.0     8.3    5.955      25.311     1026.0        189.101965    181.671738    406.052297    403.655111    6.300000      2008-04-16T14:32:54.99Z  
1433.2506   52395   43.6137  -69.9041  46.0     8.3    5.945      25.329     1026.0        189.088899    181.659616    nd            nd            6.300000      2008-04-16T14:33:15.04Z  
1433.5832   52415   43.6147  -69.9026  47.0     8.4    5.995      25.325     1026.0        189.137313    181.700533    406.055514    403.650286    6.300000      2008-04-16T14:33:34.99Z  
1433.9173   52435   43.6158  -69.9011  46.0     8.3    5.991      25.320     1026.0        189.276257    181.835601    405.847404    403.447409    6.300000      2008-04-16T14:33:55.04Z  
1434.2499   52455   43.6168  -69.8996  42.0     8.3    5.961      25.108     1026.0        190.430397    182.947443    405.844207    403.449533    6.300000      2008-04-16T14:34:14.99Z  
1434.5840   52475   43.6179  -69.8982  44.0     8.3    5.833      24.505     1026.0        192.026230    184.495476    405.857654    403.494054    6.300000      2008-04-16T14:34:35.04Z  
1434.9166   52495   43.6190  -69.8968  44.0     8.3    5.575      23.837     1026.1        194.886038    187.272893    405.761610    403.459240    6.300000      2008-04-16T14:34:55.00Z  
1435.2493   52515   43.6201  -69.8953  45.0     8.4    5.462      23.540     1026.0        199.065196    191.301115    405.709275    403.431441    6.300000      2008-04-16T14:35:14.96Z  
1435.5834   52535   43.6211  -69.8938  46.0     8.4    5.411      23.616     1026.0        203.249442    195.327232    405.728861    403.461521    6.300000      2008-04-16T14:35:35.00Z  
1435.9160   52555   43.6222  -69.8924  43.0     8.4    5.407      23.742     1026.1        206.437583    198.395368    405.821685    403.561269    6.300000      2008-04-16T14:35:54.96Z  
1436.2501   52575   43.6233  -69.8909  43.0     8.4    5.377      23.382     1026.1        208.814619    200.682063    405.877846    403.622559    6.300000      2008-04-16T14:36:15.01Z  
1436.5827   52595   43.6244  -69.8895  43.0     8.3    5.217      23.129     1026.1        211.556923    203.340998    405.866757    403.656411    6.300000      2008-04-16T14:36:34.96Z  
1436.9168   52615   43.6255  -69.8881  42.0     8.3    5.076      23.314     1026.1        214.052569    205.756232    405.878374    403.697168    6.300000      2008-04-16T14:36:55.01Z  
1437.2494   52635   43.6265  -69.8866  46.0     8.4    5.086      23.364     1026.1        215.089613    206.753211    405.806277    403.626183    6.300000      2008-04-16T14:37:14.96Z  
1437.5835   52655   43.6276  -69.8852  45.0     8.3    5.158      23.393     1026.1        215.297684    206.946101    405.791453    403.598464    6.300000      2008-04-16T14:37:35.01Z  
1437.9162   52675   43.6287  -69.8837  43.0     8.3    5.177      23.501     1026.1        215.622228    207.255959    405.866188    403.670092    6.300000      2008-04-16T14:37:54.97Z  
1438.2502   52695   43.6298  -69.8823  42.0     8.4    5.208      23.582     1026.1        215.850448    207.470486    405.715317    403.509789    6.300000      2008-04-16T14:38:15.01Z  
1438.5829   52715   43.6309  -69.8809  43.0     8.4    5.257      23.566     1026.1        215.983813    207.594488    405.974329    403.759978    6.300000      2008-04-16T14:38:34.97Z  
1438.9170   52735   43.6319  -69.8794  45.0     8.4    5.268      23.544     1026.1        216.309642    207.904835    405.834658    403.616028    6.300000      2008-04-16T14:38:55.02Z  
1439.2496   52755   43.6330  -69.8779  46.0     8.3    5.262      23.535     1026.1        216.581193    208.168951    405.692100    403.481124    6.300000      2008-04-16T14:39:14.98Z  
1439.5837   52775   43.6340  -69.8764  46.0     8.3    5.299      23.419     1026.1        216.538511    208.122261    405.822676    403.600143    6.300000      2008-04-16T14:39:35.02Z  
1439.9163   52795   43.6350  -69.8749  46.0     8.3    5.224      23.809     1026.1        216.702115    208.289538    405.784884    403.580348    6.300000      2008-04-16T14:39:54.98Z  
1440.2504   52815   43.6361  -69.8734  45.0     8.3    5.307      23.418     1026.1        216.469315    208.055757    405.725957    403.502228    6.300000      2008-04-16T14:40:15.02Z  
1440.5830   52835   43.6372  -69.8720  44.0     8.3    5.415      23.058     1026.1        216.399692    207.975147    405.568478    403.321825    6.300000      2008-04-16T14:40:34.98Z  
1440.9171   52855   43.6382  -69.8705  45.0     8.3    5.493      23.110     1026.1        216.809256    208.359597    405.509786    403.244807    6.300000      2008-04-16T14:40:55.03Z  
1441.2498   52875   43.6393  -69.8691  43.0     8.3    5.527      23.019     1026.1        217.267170    208.793169    405.478208    403.202338    6.300000      2008-04-16T14:41:14.99Z  
1441.5838   52895   43.6403  -69.8677  44.0     8.3    5.507      23.262     1026.1        217.853719    209.359972    405.439972    403.170020    6.300000      2008-04-16T14:41:35.03Z  
1441.9165   52915   43.6414  -69.8662  45.0     8.3    5.477      23.519     1026.1        217.947501    209.453324    405.462113    403.198642    6.300000      2008-04-16T14:41:54.99Z  
1442.2506   52935   43.6424  -69.8648  47.0     8.3    5.523      23.678     1026.1        217.618150    209.131500    405.403874    403.131652    6.300000      2008-04-16T14:42:15.04Z  
1442.5832   52955   43.6435  -69.8633  45.0     8.3    5.595      23.694     1026.1        217.633027    209.135467    405.397069    403.104935    6.300000      2008-04-16T14:42:34.99Z  
1442.9173   52975   43.6445  -69.8618  47.0     8.2    5.631      23.822     1026.1        217.942404    209.428346    405.457055    403.157103    6.300000      2008-04-16T14:42:55.04Z  
1443.2499   52995   43.6455  -69.8603  45.0     8.2    5.690      22.309     1026.1        218.403440    209.862784    405.540686    403.221958    6.300000      2008-04-16T14:43:14.99Z  
1443.5840   53015   43.6466  -69.8588  45.0     8.2    5.898      19.570     1026.1        218.255587    209.690940    405.538469    403.171774    6.300000      2008-04-16T14:43:35.04Z  
1443.9166   53035   43.6476  -69.8574  45.0     8.3    5.923      19.189     1026.1        216.792952    208.282485    405.762661    403.384425    6.300000      2008-04-16T14:43:55.00Z  
1444.2493   53055   43.6486  -69.8559  46.0     8.2    5.926      19.191     1026.1        214.800920    206.368367    405.740997    403.363062    6.300000      2008-04-16T14:44:14.96Z  
1444.5834   53075   43.6496  -69.8544  47.0     8.3    5.981      18.699     1026.1        213.228305    204.849231    405.785856    403.391186    6.300000      2008-04-16T14:44:35.00Z  
1444.9160   53095   43.6507  -69.8529  45.0     8.3    6.008      17.954     1026.1        212.254787    203.910560    405.903677    403.502120    6.300000      2008-04-16T14:44:54.96Z  
1445.2501   53115   43.6517  -69.8514  45.0     8.2    6.003      17.105     1026.1        211.593939    203.274744    405.856115    403.453617    6.300000      2008-04-16T14:45:15.01Z  
1445.5827   53135   43.6527  -69.8500  47.0     8.2    5.981      16.934     1026.1        210.289306    202.021977    405.929939    403.527636    6.300000      2008-04-16T14:45:34.96Z  
1445.9168   53155   43.6537  -69.8485  45.0     8.2    6.002      16.598     1026.1        208.366048    200.171181    405.992209    403.583597    6.300000      2008-04-16T14:45:55.01Z  
1446.2494   53175   43.6548  -69.8470  44.0     8.2    6.016      16.023     1026.1        207.210072    199.056408    405.891014    403.474449    6.300000      2008-04-16T14:46:14.96Z  
1446.5835   53195   43.6558  -69.8456  46.0     8.2    6.072      15.544     1026.1        206.464963    198.331970    406.006417    403.571611    6.300000      2008-04-16T14:46:35.01Z  
1446.9162   53215   43.6568  -69.8441  46.0     8.2    6.122      15.598     1026.0        205.917241    197.797030    405.816526    403.366170    6.300000      2008-04-16T14:46:54.97Z  
1447.2502   53235   43.6578  -69.8426  47.0     8.2    6.141      15.797     1026.0        205.690662    197.576656    406.023034    403.565042    6.300000      2008-04-16T14:47:15.01Z  
1447.5829   53255   43.6589  -69.8412  43.0     8.1    6.161      16.113     1026.0        205.400806    197.296548    405.938674    403.480148    6.300000      2008-04-16T14:47:34.97Z  
1447.9170   53275   43.6599  -69.8398  44.0     8.1    6.160      16.447     1026.0        205.121383    197.026373    405.737766    403.280083    6.300000      2008-04-16T14:47:55.02Z  
1448.2496   53295   43.6610  -69.8384  45.0     8.2    6.138      16.828     1026.0        204.720222    196.643431    406.006698    403.550522    6.300000      2008-04-16T14:48:14.98Z  
1448.5837   53315   43.6620  -69.8369  46.0     8.2    6.125      17.271     1026.0        204.282206    196.222735    406.150819    403.691783    6.300000      2008-04-16T14:48:35.02Z  
1448.9163   53335   43.6630  -69.8354  46.0     8.2    6.108      17.582     1026.0        203.941737    195.896290    406.067155    403.609330    6.300000      2008-04-16T14:48:54.98Z  
1449.2504   53355   43.6640  -69.8340  45.0     8.1    5.992      17.998     1026.0        203.790632    195.763612    406.234986    403.800285    6.300000      2008-04-16T14:49:15.02Z  
1449.5830   53375   43.6651  -69.8325  45.0     8.2    5.874      18.589     1026.0        203.392198    195.395664    406.174224    403.765395    6.300000      2008-04-16T14:49:34.98Z  
1449.9171   53395   43.6661  -69.8311  44.0     8.2    5.833      18.998     1026.0        202.700292    194.734156    406.296159    403.897675    6.300000      2008-04-16T14:49:55.03Z  
1450.2498   53415   43.6672  -69.8297  46.0     8.2    5.681      19.966     1026.0        202.218059    194.287983    406.310234    403.942878    6.300000      2008-04-16T14:50:14.99Z  
1450.5838   53435   43.6682  -69.8282  44.0     8.2    5.480      20.940     1026.0        202.007533    194.107886    406.150433    403.827133    6.300000      2008-04-16T14:50:35.03Z  
1450.9165   53455   43.6692  -69.8268  44.0     8.1    5.335      21.513     1026.0        202.129824    194.242160    406.077254    403.787889    6.300000      2008-04-16T14:50:54.99Z  
1451.2506   53475   43.6703  -69.8253  45.0     8.1    5.343      21.305     1025.9        202.463176    194.558522    405.927761    403.631908    6.300000      2008-04-16T14:51:15.04Z  
1451.5832   53495   43.6713  -69.8239  44.0     8.1    5.503      20.228     1025.9        202.690284    194.756404    406.077056    403.742886    6.300000      2008-04-16T14:51:34.99Z  
1451.9173   53515   43.6724  -69.8225  43.0     8.2    5.743      19.181     1025.9        202.730436    194.764900    406.046632    403.651236    6.300000      2008-04-16T14:51:55.04Z  
1452.2499   53535   43.6734  -69.8211  43.0     8.2    5.851      18.715     1025.9        203.054841    195.061613    406.154949    403.727425    6.300000      2008-04-16T14:52:14.99Z  
1452.5840   53555   43.6745  -69.8197  45.0     8.2    5.761      19.150     1025.9        203.132280    195.147334    406.005724    403.601356    6.300000      2008-04-16T14:52:35.04Z  
1452.9166   53575   43.6756  -69.8183  46.0     8.2    5.598      19.734     1025.9        202.521202    194.577927    405.849738    403.481915    6.300000      2008-04-16T14:52:55.00Z  
1453.2507   53595   43.6766  -69.8168  44.0     8.2    5.467      20.220     1025.9        201.656359    193.762127    405.868395    403.529867    6.300000      2008-04-16T14:53:15.04Z  
1453.5834   53615   43.6777  -69.8154  44.0     8.2    5.417      20.153     1025.9        200.949153    193.085797    405.817506    403.486786    6.300000      2008-04-16T14:53:35.00Z  
1453.9160   53635   43.6787  -69.8139  45.0     8.2    5.425      20.056     1025.9        200.649559    192.797966    405.775490    403.444800    6.300000      2008-04-16T14:53:54.96Z  
1454.2501   53655   43.6797  -69.8124  47.0     8.2    5.480      19.690     1025.9        200.375602    192.525805    405.776662    403.428380    6.300000      2008-04-16T14:54:15.01Z  
1454.5827   53675   43.6807  -69.8109  47.0     8.2    5.592      19.444     1025.9        200.287663    192.427630    405.686078    403.309526    6.300000      2008-04-16T14:54:34.96Z  
1454.9168   53695   43.6817  -69.8094  46.0     8.2    5.544      20.343     1025.9        200.409150    192.550308    405.558387    403.194209    6.300000      2008-04-16T14:54:55.01Z  
1455.2494   53715   43.6828  -69.8080  46.0     8.2    5.465      21.041     1025.9        200.788499    192.923862    405.700918    403.353859    6.300000      2008-04-16T14:55:14.96Z  
1455.5835   53735   43.6838  -69.8065  44.0     8.2    5.457      21.408     1025.9        201.252229    193.370209    405.626054    403.282224    6.300000      2008-04-16T14:55:35.01Z  
1455.9162   53755   43.6849  -69.8051  45.0     8.1    5.553      21.525     1025.9        201.786531    193.873430    405.506799    403.143874    6.300000      2008-04-16T14:55:54.97Z  
1456.2502   53775   43.6859  -69.8037  43.0     8.1    5.557      22.191     1025.9        202.809199    194.854764    405.511900    403.144188    6.300000      2008-04-16T14:56:15.01Z  
1456.5829   53795   43.6869  -69.8022  46.0     8.2    5.427      22.320     1025.9        204.144040    196.151187    405.642086    403.299990    6.300000      2008-04-16T14:56:34.97Z  
1456.9170   53815   43.6880  -69.8008  42.0     8.2    5.327      22.099     1025.9        204.894192    196.881940    405.628279    403.306656    6.300000      2008-04-16T14:56:55.02Z  
1457.2496   53835   43.6891  -69.7994  43.0     8.2    5.278      21.839     1025.9        204.843198    196.837277    405.768404    403.454614    6.300000      2008-04-16T14:57:14.98Z  
1457.5837   53855   43.6901  -69.7979  46.0     8.2    5.241      21.877     1025.9        204.282074    196.302452    405.783001    403.477596    6.300000      2008-04-16T14:57:35.02Z  
1457.9163   53875   43.6911  -69.7965  44.0     8.2    5.220      21.964     1025.9        203.653641    195.700906    405.878144    403.576287    6.300000      2008-04-16T14:57:54.98Z  
1458.2504   53895   43.6922  -69.7951  44.0     8.2    5.186      22.206     1025.8        203.345616    195.406602    405.870500    403.572267    6.300000      2008-04-16T14:58:15.02Z  
1458.5830   53915   43.6932  -69.7936  44.0     8.1    5.178      22.350     1025.8        203.123115    195.193397    405.877648    403.581221    6.300000      2008-04-16T14:58:34.98Z  
1458.9171   53935   43.6943  -69.7922  44.0     8.2    5.178      22.428     1025.8        203.054698    195.126532    405.866836    403.567407    6.300000      2008-04-16T14:58:55.03Z  
1459.2498   53955   43.6953  -69.7908  45.0     8.2    5.186      22.448     1025.8        203.155365    195.221794    406.228533    403.923222    6.300000      2008-04-16T14:59:14.99Z  
1459.5838   53975   43.6964  -69.7893  43.0     8.2    5.181      22.546     1025.8        203.421805    195.477532    406.050361    403.746455    6.300000      2008-04-16T14:59:35.03Z  
1459.9165   53995   43.6975  -69.7880  43.0     8.3    5.157      22.988     1025.8        203.706076    195.752080    406.063184    403.761277    6.522222      2008-04-16T14:59:54.99Z  
1500.2506   54015   43.6985  -69.7865  44.0     8.3    5.098      23.618     1025.8        204.167772    196.202245    406.073778    403.784998    7.100000      2008-04-16T15:00:15.04Z  
1500.5832   54035   43.6996  -69.7852  40.0     8.3    5.062      23.940     1025.8        205.033605    197.036561    405.987513    403.704108    7.100000      2008-04-16T15:00:34.99Z  
1500.9173   54055   43.7008  -69.7839  32.0     8.4    5.106      23.760     1025.8        206.028742    197.987849    405.988537    403.694595    7.100000      2008-04-16T15:00:55.04Z  
1501.2499   54075   43.7021  -69.7828  33.0     8.4    5.154      23.849     1025.8        207.310144    199.212211    405.885012    403.576798    7.100000      2008-04-16T15:01:14.99Z  
1501.5840   54095   43.7034  -69.7817  31.0     8.3    5.222      23.753     1025.8        208.552311    200.396923    405.772317    403.452484    7.100000      2008-04-16T15:01:35.04Z  
1501.9166   54115   43.7047  -69.7806  31.0     8.3    5.388      23.198     1025.8        209.931367    201.700678    405.623116    403.242413    7.100000      2008-04-16T15:01:55.00Z  
1502.2507   54135   43.7060  -69.7796  29.0     8.3    5.570      22.353     1025.8        211.077509    202.779665    405.586308    403.181007    7.100000      2008-04-16T15:02:15.04Z  
1502.5834   54155   43.7072  -69.7785  32.0     8.2    5.674      21.619     1025.8        212.636211    204.260663    405.462689    403.031325    7.100000      2008-04-16T15:02:35.00Z  
1502.9160   54175   43.7085  -69.7774  32.0     8.2    5.851      21.020     1025.8        213.770519    205.326878    405.049854    402.574326    7.100000      2008-04-16T15:02:54.96Z  
1503.2501   54195   43.7097  -69.7763  31.0     8.2    6.080      20.695     1025.8        215.016818    206.494888    405.063752    402.547430    7.100000      2008-04-16T15:03:15.01Z  
1503.5827   54215   43.7110  -69.7752  31.0     8.2    6.105      21.565     1025.8        217.233029    208.620487    404.737894    402.213777    7.100000      2008-04-16T15:03:34.96Z  
1503.9168   54235   43.7123  -69.7742  30.0     8.2    6.018      22.435     1025.8        219.404653    210.718280    404.728516    402.218416    7.100000      2008-04-16T15:03:55.01Z  
1504.2494   54255   43.7136  -69.7732  29.0     8.2    6.058      22.765     1025.8        222.210981    213.408144    404.671614    402.152358    7.100000      2008-04-16T15:04:14.96Z  
1504.5835   54275   43.7148  -69.7722  30.0     8.3    6.071      24.147     1025.8        224.872814    215.961988    404.442512    401.919590    7.100000      2008-04-16T15:04:35.01Z  
1504.9162   54295   43.7161  -69.7711  33.0     8.3    5.823      26.884     1025.8        228.685229    219.659575    404.440739    401.979026    7.100000      2008-04-16T15:04:54.97Z  
1505.2502   54315   43.7173  -69.7699  33.0     8.2    5.636      27.714     1025.7        236.545815    227.234771    404.375851    401.957129    7.100000      2008-04-16T15:05:15.01Z  
1505.5829   54335   43.7186  -69.7689  31.0     8.2    5.560      27.615     1025.7        245.436163    235.784725    404.131341    401.728262    7.100000      2008-04-16T15:05:34.97Z  
1505.9170   54355   43.7199  -69.7678  28.0     8.2    5.599      26.506     1025.7        250.997599    241.120823    403.927251    401.516118    7.100000      2008-04-16T15:05:55.02Z  
1506.2496   54375   43.7212  -69.7668  30.0     8.3    5.651      26.505     1025.7        252.379614    242.437631    403.802753    401.375258    7.100000      2008-04-16T15:06:14.98Z  
1506.5837   54395   43.7224  -69.7658  30.0     8.1    5.711      27.756     1025.7        252.695432    242.735555    403.534585    401.100071    7.100000      2008-04-16T15:06:35.02Z  
1506.9163   54415   43.7237  -69.7648  28.0     8.1    5.747      28.169     1025.7        256.808562    246.679848    403.358075    400.914472    7.100000      2008-04-16T15:06:54.98Z  
1507.2504   54435   43.7250  -69.7638  29.0     8.1    5.641      28.401     1025.7        263.724782    253.339160    403.426951    401.006008    7.100000      2008-04-16T15:07:15.02Z  
1507.5830   54455   43.7263  -69.7630  22.0     8.1    5.622      28.440     1025.7        268.190750    257.631656    403.172165    400.757331    7.100000      2008-04-16T15:07:34.98Z  
1507.9171   54475   43.7277  -69.7623  14.0     8.1    5.708      28.350     1025.7        273.472972    262.691135    403.283025    400.843738    7.100000      2008-04-16T15:07:55.03Z  
1508.2498   54495   43.7291  -69.7621  4.0      8.1    5.765      28.260     1025.7        281.207973    270.109035    403.145623    400.691572    7.100000      2008-04-16T15:08:14.99Z  
1508.5838   54515   43.7306  -69.7619  4.0      8.1    5.816      28.231     1025.7        287.808625    276.441063    403.242498    400.777137    7.100000      2008-04-16T15:08:35.03Z  
1508.9165   54535   43.7320  -69.7618  3.0      8.0    5.826      28.273     1025.7        292.060927    280.524152    403.193195    400.725547    7.100000      2008-04-16T15:08:54.99Z  
1509.2506   54555   43.7335  -69.7617  101.0    8.0    5.762      28.327     1025.7        294.766502    283.130507    403.170285    400.708665    7.100000      2008-04-16T15:09:15.04Z  
1509.5832   54575   43.7349  -69.7618  351.0    8.0    5.622      27.813     1025.7        296.311145    284.632172    403.294131    400.859874    7.100000      2008-04-16T15:09:34.99Z  
1509.9173   54595   43.7363  -69.7623  341.0    8.0    5.563      27.127     1025.7        294.389591    282.795600    403.128392    400.698416    7.100000      2008-04-16T15:09:55.04Z  
1510.2499   54615   43.7377  -69.7630  338.0    8.1    5.609      26.092     1025.7        289.208401    277.805313    403.165247    400.724708    7.100000      2008-04-16T15:10:14.99Z  
1510.5840   54635   43.7390  -69.7639  327.0    8.0    5.686      25.382     1025.7        283.403610    272.211327    403.062103    400.604758    7.100000      2008-04-16T15:10:35.04Z  
1510.9166   54655   43.7401  -69.7651  320.0    7.8    5.629      26.894     1025.7        277.021435    266.092532    nd            nd            7.100000      2008-04-16T15:10:55.00Z  
1511.2493   54675   43.7412  -69.7663  320.0    7.8    5.495      27.427     1025.6        270.954595    260.284092    nd            nd            7.100000      2008-04-16T15:11:14.96Z  
1511.5834   54695   43.7422  -69.7676  314.0    7.8    5.545      25.178     1025.6        266.756321    256.238184    nd            nd            7.100000      2008-04-16T15:11:35.00Z  
1511.9160   54715   43.7432  -69.7690  312.0    7.9    5.605      22.785     1025.6        259.808681    249.548334    403.288167    400.830593    7.100000      2008-04-16T15:11:54.96Z  
1512.2501   54735   43.7441  -69.7705  310.0    7.9    5.717      20.763     1025.6        250.552966    240.638242    nd            nd            7.100000      2008-04-16T15:12:15.01Z  
1512.5827   54755   43.7450  -69.7720  308.0    7.7    5.677      19.712     1025.6        241.758940    232.196289    nd            nd            7.100000      2008-04-16T15:12:34.96Z  
1512.9168   54775   43.7459  -69.7734  311.0    7.4    5.559      18.468     1025.6        233.351067    224.137594    nd            nd            7.100000      2008-04-16T15:12:55.01Z  
1513.2494   54795   43.7468  -69.7748  314.0    7.5    5.466      15.552     1025.6        225.834133    216.928740    nd            nd            7.100000      2008-04-16T15:13:14.96Z  
1513.5835   54815   43.7478  -69.7761  314.0    7.4    5.389      14.477     1025.6        218.325538    209.722025    nd            nd            7.100000      2008-04-16T15:13:35.01Z  
1513.9162   54835   43.7487  -69.7774  316.0    7.5    5.246      14.366     1025.6        212.359638    204.003459    nd            nd            7.100000      2008-04-16T15:13:54.97Z  
1514.2502   54855   43.7498  -69.7786  324.0    7.6    5.119      13.619     1025.6        208.601189    200.410980    nd            nd            7.100000      2008-04-16T15:14:15.01Z  
1514.5829   54875   43.7509  -69.7796  331.0    7.5    5.111      11.487     1025.6        205.738675    197.659838    nd            nd            7.100000      2008-04-16T15:14:34.97Z  
1514.9170   54895   43.7522  -69.7803  338.0    7.4    5.187      9.781      1025.6        204.658469    196.613188    nd            nd            7.100000      2008-04-16T15:14:55.02Z  
1515.2496   54915   43.7534  -69.7810  338.0    7.2    5.205      9.861      1025.6        210.647368    202.364701    nd            nd            7.100000      2008-04-16T15:15:14.98Z  
1515.5837   54935   43.7546  -69.7817  339.0    7.2    5.196      9.473      1025.6        217.070747    208.534868    nd            nd            7.100000      2008-04-16T15:15:35.02Z  
1515.9163   54955   43.7558  -69.7823  340.0    7.5    5.211      8.616      1025.6        220.598256    211.919813    nd            nd            7.100000      2008-04-16T15:15:54.98Z  
1516.2504   54975   43.7571  -69.7829  340.0    7.6    5.262      7.798      1025.6        227.337086    218.383453    nd            nd            7.100000      2008-04-16T15:16:15.02Z  
1516.5830   54995   43.7585  -69.7835  342.0    7.8    5.365      7.061      1025.6        239.046135    229.613286    nd            nd            7.100000      2008-04-16T15:16:34.98Z  
1516.9171   55015   43.7598  -69.7841  345.0    7.6    5.485      6.519      1025.6        254.808818    244.733775    nd            nd            7.100000      2008-04-16T15:16:55.03Z  
1517.2498   55035   43.7611  -69.7844  350.0    7.3    5.484      7.061      1025.6        275.618535    264.720526    nd            nd            7.100000      2008-04-16T15:17:14.99Z  
1517.5838   55055   43.7624  -69.7846  357.0    7.2    5.483      7.133      1025.6        284.668330    273.410101    nd            nd            7.100000      2008-04-16T15:17:35.03Z  
1517.9165   55075   43.7637  -69.7847  357.0    7.2    5.491      6.097      1025.6        285.643329    274.344759    nd            nd            7.100000      2008-04-16T15:17:54.99Z  
1518.2506   55095   43.7650  -69.7848  258.0    7.1    5.446      5.602      1025.6        296.334021    284.619381    nd            nd            7.100000      2008-04-16T15:18:15.04Z  
1518.5832   55115   43.7663  -69.7848  357.0    7.2    5.369      5.651      1025.6        315.644850    303.181522    nd            nd            7.100000      2008-04-16T15:18:34.99Z  
1518.9173   55135   43.7676  -69.7849  314.0    7.3    5.320      5.990      1025.6        326.751109    313.855382    nd            nd            7.100000      2008-04-16T15:18:55.04Z  
1519.2499   55155   43.7690  -69.7852  351.0    7.5    5.274      6.380      1025.6        331.076014    318.019495    nd            nd            7.100000      2008-04-16T15:19:14.99Z  
1519.5840   55175   43.7703  -69.7855  347.0    7.6    5.350      5.973      1025.6        326.003215    313.132783    nd            nd            7.100000      2008-04-16T15:19:35.04Z  
1519.9166   55195   43.7716  -69.7860  344.0    7.6    5.501      5.161      1025.6        324.862370    312.005457    nd            nd            7.100000      2008-04-16T15:19:55.00Z  
1520.2493   55215   43.7729  -69.7866  343.0    7.6    5.506      5.203      1025.5        340.769856    327.276594    nd            nd            7.100000      2008-04-16T15:20:14.96Z  
1520.5834   55235   43.7743  -69.7871  343.0    7.5    5.530      5.346      1025.5        356.763083    342.622577    nd            nd            7.100000      2008-04-16T15:20:35.00Z  
1520.9160   55255   43.7755  -69.7877  337.0    7.7    5.518      5.765      1025.5        365.217827    350.736011    nd            nd            7.100000      2008-04-16T15:20:54.96Z  
1521.2501   55275   43.7768  -69.7885  335.0    7.7    5.457      6.662      1025.5        365.742921    351.244514    nd            nd            7.100000      2008-04-16T15:21:15.01Z  
1521.5827   55295   43.7781  -69.7891  345.0    7.6    5.390      6.968      1025.4        352.921928    338.939060    nd            nd            7.100000      2008-04-16T15:21:34.96Z  
1521.9168   55315   43.7795  -69.7893  62.0     7.5    5.457      5.803      1025.4        333.086120    319.862960    nd            nd            7.100000      2008-04-16T15:21:55.01Z  
1522.2494   55335   43.7808  -69.7891  8.0      7.4    5.544      5.326      1025.4        333.611573    320.348853    nd            nd            7.100000      2008-04-16T15:22:14.96Z  
1522.5835   55355   43.7821  -69.7888  9.0      7.3    5.592      5.032      1025.4        348.940707    335.056322    nd            nd            7.100000      2008-04-16T15:22:35.01Z  
1522.9162   55375   43.7834  -69.7885  9.0      7.3    5.560      4.927      1025.4        365.175035    350.649360    nd            nd            7.100000      2008-04-16T15:22:54.97Z  
1523.2502   55395   43.7847  -69.7882  9.0      7.3    5.445      4.933      1025.4        379.672668    364.599261    nd            nd            7.100000      2008-04-16T15:23:15.01Z  
1523.5829   55415   43.7860  -69.7878  10.0     7.4    5.394      4.583      1025.4        388.453633    373.040564    nd            nd            7.100000      2008-04-16T15:23:34.97Z  
1523.9170   55435   43.7874  -69.7875  8.0      7.5    5.397      4.205      1025.4        398.195988    382.392664    nd            nd            7.100000      2008-04-16T15:23:55.02Z  
1524.2496   55455   43.7887  -69.7873  9.0      7.6    5.364      4.208      1025.4        414.333916    397.897361    nd            nd            7.100000      2008-04-16T15:24:14.98Z  
1524.5837   55475   43.7901  -69.7870  8.0      7.6    5.314      4.095      1025.4        427.283486    410.347973    nd            nd            7.100000      2008-04-16T15:24:35.02Z  
1524.9163   55495   43.7914  -69.7867  5.0      7.5    5.321      3.654      1025.4        435.013356    417.774294    nd            nd            7.100000      2008-04-16T15:24:54.98Z  
1525.2504   55515   43.7928  -69.7866  5.0      7.5    5.350      3.362      1025.4        448.782832    430.988509    nd            nd            7.100000      2008-04-16T15:25:15.02Z  
1525.5830   55535   43.7941  -69.7864  5.0      7.5    5.394      2.889      1025.4        466.841754    448.318837    nd            nd            7.100000      2008-04-16T15:25:34.98Z  
1525.9171   55555   43.7955  -69.7862  4.0      7.5    5.421      2.701      1025.4        487.081701    467.745481    nd            nd            7.100000      2008-04-16T15:25:55.03Z  
1526.2498   55575   43.7968  -69.7862  276.0    7.6    5.397      2.788      1025.4        508.904208    488.711120    nd            nd            7.100000      2008-04-16T15:26:14.99Z  
1526.5838   55595   43.7982  -69.7865  350.0    7.7    5.357      2.618      1025.4        522.646105    501.920329    nd            nd            7.100000      2008-04-16T15:26:35.03Z  
1526.9165   55615   43.7996  -69.7868  350.0    7.8    5.386      2.219      1025.4        532.313294    511.194866    nd            nd            7.100000      2008-04-16T15:26:54.99Z  
1527.2506   55635   43.8010  -69.7872  344.0    7.8    5.405      2.148      1025.4        548.507646    526.739950    nd            nd            7.100000      2008-04-16T15:27:15.04Z  
1527.5832   55655   43.8023  -69.7878  343.0    7.8    5.322      2.493      1025.4        562.912066    540.599798    nd            nd            7.100000      2008-04-16T15:27:34.99Z  
1527.9173   55675   43.8037  -69.7884  338.0    7.9    5.343      2.812      1025.4        568.878028    546.318046    nd            nd            7.100000      2008-04-16T15:27:55.04Z  
1528.2499   55695   43.8049  -69.7893  327.0    7.9    5.391      2.738      1025.4        565.389584    542.943525    nd            nd            7.100000      2008-04-16T15:28:14.99Z  
1528.5840   55715   43.8060  -69.7905  319.0    7.6    5.407      2.736      1025.4        565.336411    542.879031    nd            nd            7.100000      2008-04-16T15:28:35.04Z  
1528.9166   55735   43.8070  -69.7918  311.0    7.5    5.341      3.495      1025.3        569.607443    546.987697    nd            nd            7.100000      2008-04-16T15:28:55.00Z  
1529.2493   55755   43.8079  -69.7933  310.0    7.4    5.443      4.199      1025.3        562.074247    539.715406    nd            nd            7.100000      2008-04-16T15:29:14.96Z  
1529.5834   55775   43.8087  -69.7946  310.0    7.3    5.404      5.044      1025.3        537.545423    516.175612    nd            nd            7.100000      2008-04-16T15:29:35.00Z  
1529.9160   55795   43.8096  -69.7960  309.0    7.1    5.343      5.015      1025.3        501.704104    481.774708    nd            nd            7.100000      2008-04-16T15:29:54.96Z  
1530.2501   55815   43.8104  -69.7973  311.0    7.0    5.379      4.788      1025.3        471.635154    452.890870    nd            nd            7.100000      2008-04-16T15:30:15.01Z  
1530.5827   55835   43.8112  -69.7986  311.0    6.9    5.436      4.740      1025.3        455.630825    437.501850    nd            nd            7.100000      2008-04-16T15:30:34.96Z  
1530.9168   55855   43.8121  -69.7999  309.0    7.0    5.486      4.160      1025.3        446.629319    428.838790    nd            nd            7.100000      2008-04-16T15:30:55.01Z  
1531.2494   55875   43.8128  -69.8013  308.0    7.0    5.460      3.913      1025.3        450.016035    432.089206    nd            nd            7.100000      2008-04-16T15:31:14.96Z  
1531.5835   55895   43.8137  -69.8027  314.0    7.0    5.479      3.891      1025.3        460.654594    442.298128    nd            nd            7.100000      2008-04-16T15:31:35.01Z  
1531.9162   55915   43.8146  -69.8039  320.0    7.1    5.493      3.769      1025.3        470.158219    451.420028    nd            nd            7.100000      2008-04-16T15:31:54.97Z  
1532.2502   55935   43.8158  -69.8046  342.0    7.1    5.402      3.281      1025.2        475.734435    456.792650    nd            nd            7.100000      2008-04-16T15:32:15.01Z  
1532.5829   55955   43.8170  -69.8048  356.0    7.0    5.318      3.161      1025.2        488.188566    468.770130    nd            nd            7.100000      2008-04-16T15:32:34.97Z  
1532.9170   55975   43.8183  -69.8048  23.0     7.1    5.269      3.082      1025.2        502.035357    482.074946    nd            nd            7.100000      2008-04-16T15:32:55.02Z  
1533.2496   55995   43.8196  -69.8046  5.0      7.1    5.156      3.066      1025.2        511.981807    491.650356    nd            nd            7.100000      2008-04-16T15:33:14.98Z  
1533.5837   56015   43.8208  -69.8045  5.0      7.0    5.109      3.022      1025.2        519.199444    498.586581    nd            nd            7.100000      2008-04-16T15:33:35.02Z  
1533.9163   56035   43.8221  -69.8043  5.0      7.2    5.104      3.004      1025.2        524.821226    503.982717    nd            nd            7.100000      2008-04-16T15:33:54.98Z  
1534.2504   56055   43.8234  -69.8040  12.0     7.2    5.077      3.117      1025.2        529.491081    508.484669    nd            nd            7.100000      2008-04-16T15:34:15.02Z  
1534.5830   56075   43.8246  -69.8035  22.0     7.2    5.077      3.184      1025.2        530.420856    509.372239    nd            nd            7.100000      2008-04-16T15:34:34.98Z  
1534.9171   56095   43.8258  -69.8026  34.0     7.4    5.053      3.344      1025.2        529.621105    508.612334    nd            nd            7.100000      2008-04-16T15:34:55.03Z  
1535.2498   56115   43.8267  -69.8012  52.0     7.7    5.040      3.402      1025.2        526.249603    505.362526    nd            nd            7.100000      2008-04-16T15:35:14.99Z  
1535.5838   56135   43.8275  -69.7996  56.0     7.8    5.040      3.477      1025.2        521.671062    500.961736    nd            nd            7.100000      2008-04-16T15:35:35.03Z  
1535.9165   56155   43.8285  -69.7983  32.0     7.5    5.012      3.656      1025.2        517.797672    497.252884    nd            nd            7.100000      2008-04-16T15:35:54.99Z  
1536.2506   56175   43.8297  -69.7978  12.0     7.4    4.965      3.757      1025.2        512.130235    491.831139    nd            nd            7.100000      2008-04-16T15:36:15.04Z  
1536.5832   56195   43.8310  -69.7973  14.0     7.4    4.967      3.544      1025.2        503.583726    483.615006    nd            nd            7.100000      2008-04-16T15:36:34.99Z  
1536.9173   56215   43.8323  -69.7969  14.0     7.4    5.008      3.029      1025.2        501.691702    481.793771    nd            nd            7.100000      2008-04-16T15:36:55.04Z  
1537.2499   56235   43.8336  -69.7965  9.0      7.3    5.108      2.573      1025.2        509.942763    489.689050    nd            nd            7.100000      2008-04-16T15:37:14.99Z  
1537.5840   56255   43.8349  -69.7962  8.0      7.2    5.291      2.388      1025.2        526.852182    505.873734    nd            nd            7.100000      2008-04-16T15:37:35.04Z  
1537.9166   56275   43.8362  -69.7960  7.0      7.4    5.286      2.464      1025.2        546.051654    524.307771    nd            nd            7.100000      2008-04-16T15:37:55.00Z  
1538.2507   56295   43.8376  -69.7958  4.0      7.6    5.193      2.507      1025.2        558.723236    536.501618    nd            nd            7.100000      2008-04-16T15:38:15.04Z  
1538.5834   56315   43.8389  -69.7956  8.0      7.3    5.124      2.486      1025.2        564.747078    542.310493    nd            nd            7.100000      2008-04-16T15:38:35.00Z  
1538.9160   56335   43.8402  -69.7953  9.0      7.1    5.210      2.270      1025.2        568.152113    545.554946    nd            nd            7.100000      2008-04-16T15:38:54.96Z  
1539.2501   56355   43.8415  -69.7950  8.0      6.9    5.327      2.471      1025.2        574.245480    551.372155    nd            nd            7.100000      2008-04-16T15:39:15.01Z  
1539.5827   56375   43.8427  -69.7949  43.0     6.8    5.158      2.833      1025.2        580.862823    557.783568    nd            nd            7.100000      2008-04-16T15:39:34.96Z  
1539.9168   56395   43.8439  -69.7949  358.0    6.8    5.030      2.686      1025.2        573.964721    551.198858    nd            nd            7.100000      2008-04-16T15:39:55.01Z  
1540.2494   56415   43.8452  -69.7950  354.0    6.8    4.967      2.557      1025.2        569.399311    546.829969    nd            nd            7.100000      2008-04-16T15:40:14.96Z  
1540.5835   56435   43.8464  -69.7952  352.0    6.7    4.909      2.504      1025.2        569.474715    546.919859    nd            nd            7.100000      2008-04-16T15:40:35.01Z  
1540.9162   56455   43.8476  -69.7954  353.0    6.7    4.858      2.509      1025.2        570.975845    548.375818    nd            nd            7.100000      2008-04-16T15:40:54.97Z  
1541.2502   56475   43.8488  -69.7956  353.0    6.7    4.832      2.499      1025.2        571.913318    549.282909    nd            nd            7.100000      2008-04-16T15:41:15.01Z  
1541.5829   56495   43.8500  -69.7958  352.0    6.6    4.816      2.491      1025.2        572.138246    549.500206    nd            nd            7.100000      2008-04-16T15:41:34.97Z  
1541.9170   56515   43.8512  -69.7960  352.0    6.5    4.812      2.474      1025.2        572.582880    549.924904    nd            nd            7.100000      2008-04-16T15:41:55.02Z  
1542.2496   56535   43.8523  -69.7961  102.0    6.5    4.885      2.270      1025.1        573.009628    550.305945    nd            nd            7.100000      2008-04-16T15:42:14.98Z  
1542.5837   56555   43.8535  -69.7959  5.0      6.5    4.927      1.973      1025.1        576.656494    553.787573    nd            nd            7.100000      2008-04-16T15:42:35.02Z  
1542.9163   56575   43.8547  -69.7958  3.0      6.7    4.917      1.836      1025.1        585.620246    562.390908    nd            nd            7.100000      2008-04-16T15:42:54.98Z  
1543.2504   56595   43.8559  -69.7957  2.0      6.8    4.904      1.809      1025.1        596.187329    572.534500    nd            nd            7.100000      2008-04-16T15:43:15.02Z  
1543.5830   56615   43.8572  -69.7955  9.0      6.9    4.921      1.743      1025.1        604.025054    580.049148    nd            nd            7.100000      2008-04-16T15:43:34.98Z  
1543.9171   56635   43.8584  -69.7952  10.0     7.1    4.936      1.681      1025.1        610.501471    586.259816    nd            nd            7.100000      2008-04-16T15:43:55.03Z  
1544.2498   56655   43.8597  -69.7950  7.0      7.1    4.899      1.752      1025.1        616.664123    592.192807    nd            nd            7.100000      2008-04-16T15:44:14.99Z  
1544.5838   56675   43.8610  -69.7948  3.0      7.1    4.886      1.729      1025.1        619.768520    595.185723    nd            nd            7.100000      2008-04-16T15:44:35.03Z  
1544.9165   56695   43.8622  -69.7947  5.0      7.1    4.912      1.672      1025.1        621.085309    596.434971    nd            nd            7.100000      2008-04-16T15:44:54.99Z  
1545.2506   56715   43.8635  -69.7945  3.0      7.2    4.887      1.663      1025.1        625.072513    600.268896    nd            nd            7.100000      2008-04-16T15:45:15.04Z  
1545.5832   56735   43.8648  -69.7945  354.0    7.2    4.917      1.528      1025.1        627.130940    602.234884    nd            nd            7.100000      2008-04-16T15:45:34.99Z  
1545.9173   56755   43.8661  -69.7948  352.0    7.3    4.904      1.597      1025.1        630.908843    605.868989    nd            nd            7.100000      2008-04-16T15:45:55.04Z  
1546.2499   56775   43.8674  -69.7950  353.0    7.2    4.847      1.722      1025.1        633.799220    608.655028    nd            nd            7.100000      2008-04-16T15:46:14.99Z  
1546.5840   56795   43.8687  -69.7952  352.0    7.2    4.788      1.784      1025.1        632.894921    607.799815    nd            nd            7.100000      2008-04-16T15:46:35.04Z  
1546.9166   56815   43.8700  -69.7954  295.0    7.3    4.737      1.834      1025.0        630.357732    605.372333    nd            nd            7.100000      2008-04-16T15:46:55.00Z  
1547.2507   56835   43.8714  -69.7954  6.0      7.4    4.699      1.858      1025.0        627.430756    602.567274    nd            nd            7.100000      2008-04-16T15:47:15.04Z  
1547.5834   56855   43.8727  -69.7951  8.0      7.5    4.682      1.793      1025.0        624.403138    599.666452    nd            nd            7.100000      2008-04-16T15:47:35.00Z  
1547.9160   56875   43.8740  -69.7949  64.0     7.5    4.672      1.737      1025.0        623.359797    598.657998    nd            nd            7.100000      2008-04-16T15:47:54.96Z  
1548.2501   56895   43.8754  -69.7948  160.0    7.6    4.682      1.672      1025.0        623.917744    599.181636    nd            nd            7.100000      2008-04-16T15:48:15.01Z  
1548.5827   56915   43.8768  -69.7950  348.0    7.6    4.682      1.603      1025.0        625.653961    600.852223    nd            nd            7.100000      2008-04-16T15:48:34.96Z  
1548.9168   56935   43.8780  -69.7957  328.0    7.4    4.682      1.556      1025.0        628.102967    603.208773    nd            nd            7.100000      2008-04-16T15:48:55.01Z  
1549.2494   56955   43.8789  -69.7969  305.0    7.3    4.694      1.509      1025.0        631.003247    605.967286    nd            nd            7.100000      2008-04-16T15:49:14.96Z  
1549.5835   56975   43.8795  -69.7986  290.0    7.3    4.742      1.231      1024.9        633.895855    608.696604    nd            nd            7.100000      2008-04-16T15:49:35.01Z  
1549.9162   56995   43.8799  -69.8003  284.0    7.2    4.814      0.877      1025.0        639.925060    614.485017    nd            nd            7.100000      2008-04-16T15:49:54.97Z  
1550.2502   57015   43.8802  -69.8021  285.0    7.3    4.917      0.687      1025.0        651.300269    625.368640    nd            nd            7.100000      2008-04-16T15:50:15.01Z  
1550.5829   57035   43.8805  -69.8039  279.0    7.5    4.943      0.683      1025.0        663.760880    637.323033    nd            nd            7.100000      2008-04-16T15:50:34.97Z  
1550.9170   57055   43.8807  -69.8057  276.0    7.6    4.857      0.779      1024.9        673.435067    646.613199    nd            nd            7.100000      2008-04-16T15:50:55.02Z  
1551.2496   57075   43.8811  -69.8075  298.0    7.5    4.785      0.861      1024.8        678.824614    651.769368    nd            nd            7.100000      2008-04-16T15:51:14.98Z  
1551.5837   57095   43.8820  -69.8089  318.0    7.7    4.751      0.900      1024.9        680.695609    653.608582    nd            nd            7.100000      2008-04-16T15:51:35.02Z  
1551.9163   57115   43.8831  -69.8100  331.0    7.8    4.772      0.780      1025.0        680.873923    653.810709    nd            nd            7.100000      2008-04-16T15:51:54.98Z  
1552.2504   57135   43.8844  -69.8107  347.0    7.8    4.827      0.674      1025.0        682.770469    655.642703    nd            nd            7.100000      2008-04-16T15:52:15.02Z  
1552.5830   57155   43.8858  -69.8110  350.0    7.7    4.894      0.643      1025.0        685.637934    658.363125    nd            nd            7.100000      2008-04-16T15:52:34.98Z  
1552.9171   57175   43.8872  -69.8114  343.0    7.7    4.945      0.620      1025.0        689.450977    662.000617    nd            nd            7.100000      2008-04-16T15:52:55.03Z  
1553.2498   57195   43.8884  -69.8120  337.0    6.7    5.029      0.562      1025.0        692.789709    665.179001    nd            nd            7.100000      2008-04-16T15:53:14.99Z  
1553.5838   57215   43.8894  -69.8126  332.0    5.3    5.061      0.547      1025.0        696.630127    668.863593    nd            nd            7.100000      2008-04-16T15:53:35.03Z  
1553.9165   57235   43.8902  -69.8132  330.0    4.6    5.058      0.528      1025.0        699.608486    671.720616    nd            nd            7.100000      2008-04-16T15:53:54.99Z  
1554.2506   57255   43.8907  -69.8137  329.0    3.1    5.051      0.484      1025.0        702.138164    674.153221    nd            nd            7.100000      2008-04-16T15:54:15.04Z  
1554.5832   57275   43.8912  -69.8140  326.0    2.5    5.047      0.433      1025.0        704.557662    676.481786    nd            nd            7.100000      2008-04-16T15:54:34.99Z  
1554.9173   57295   43.8915  -69.8144  325.0    2.5    5.070      0.396      1025.0        706.752669    678.592359    nd            nd            7.100000      2008-04-16T15:54:55.04Z  
1555.2499   57315   43.8919  -69.8147  328.0    1.6    5.050      0.404      1025.1        708.711865    680.507406    nd            nd            7.100000      2008-04-16T15:55:14.99Z  
1555.5840   57335   43.8920  -69.8148  327.0    0.9    5.017      0.410      1025.1        710.160780    681.899727    nd            nd            7.100000      2008-04-16T15:55:35.04Z  
1555.9166   57355   43.8922  -69.8149  335.0    0.7    4.978      0.432      1025.0        710.931403    682.638287    nd            nd            7.100000      2008-04-16T15:55:55.00Z  
1556.2493   57375   43.8923  -69.8149  342.0    0.4    4.979      0.437      1025.0        711.120292    682.833254    nd            nd            7.100000      2008-04-16T15:56:14.96Z  
1556.5834   57395   43.8923  -69.8150  211.0    0.1    4.938      0.465      1025.1        711.331720    683.058503    nd            nd            7.100000      2008-04-16T15:56:35.00Z  
1556.9160   57415   43.8923  -69.8150  114.0    0.3    4.877      0.496      1025.0        711.392864    683.126008    nd            nd            7.100000      2008-04-16T15:56:54.96Z  
1557.2501   57435   43.8923  -69.8150  205.0    0.2    4.854      0.510      1025.0        710.940343    682.691354    nd            nd            7.100000      2008-04-16T15:57:15.01Z  
1557.5827   57455   43.8923  -69.8150  182.0    0.2    4.831      0.515      1025.0        710.335751    682.105712    nd            nd            7.100000      2008-04-16T15:57:34.96Z  
1557.9168   57475   43.8923  -69.8149  73.0     0.1    4.806      0.518      1025.0        710.072872    681.856884    nd            nd            7.100000      2008-04-16T15:57:55.01Z  
1558.2494   57495   43.8923  -69.8149  95.0     0.2    4.786      0.517      1024.9        709.839567    681.584504    nd            nd            7.100000      2008-04-16T15:58:14.96Z  
1558.5835   57515   43.8922  -69.8147  127.0    2.7    4.798      0.520      1024.8        709.737032    681.433829    nd            nd            7.100000      2008-04-16T15:58:35.01Z  
1558.9162   57535   43.8916  -69.8141  151.0    4.4    4.812      0.525      1024.8        709.345716    681.053317    nd            nd            7.100000      2008-04-16T15:58:54.97Z  
1559.2502   57555   43.8909  -69.8136  150.0    4.5    4.819      0.523      1024.8        709.231912    680.924943    nd            nd            7.100000      2008-04-16T15:59:15.01Z  
1559.5829   57575   43.8902  -69.8130  148.0    4.5    4.846      0.482      1024.8        709.203989    680.892513    nd            nd            7.100000      2008-04-16T15:59:34.97Z  
1559.9170   57595   43.8895  -69.8124  151.0    4.6    4.895      0.443      1024.8        709.479637    681.149696    nd            nd            7.544444      2008-04-16T15:59:55.02Z  
1600.2496   57615   43.8887  -69.8119  159.0    5.0    4.948      0.425      1024.8        710.036720    681.667362    nd            nd            8.700000      2008-04-16T16:00:14.98Z  
1600.5837   57635   43.8878  -69.8115  164.0    5.1    4.954      0.414      1024.8        710.472856    682.084453    nd            nd            8.700000      2008-04-16T16:00:35.02Z  
1600.9163   57655   43.8869  -69.8112  166.0    5.1    4.980      0.386      1024.8        710.913532    682.490456    nd            nd            8.700000      2008-04-16T16:00:54.98Z  
1601.2504   57675   43.8860  -69.8109  165.0    5.1    4.995      0.375      1024.9        711.427015    682.992133    nd            nd            8.700000      2008-04-16T16:01:15.02Z  
1601.5830   57695   43.8852  -69.8106  165.0    5.0    4.991      0.380      1024.9        711.978409    683.532037    nd            nd            8.700000      2008-04-16T16:01:34.98Z  
1601.9171   57715   43.8843  -69.8103  165.0    5.1    5.000      0.401      1024.9        712.245155    683.791838    nd            nd            8.700000      2008-04-16T16:01:55.03Z  
1602.2498   57735   43.8834  -69.8100  164.0    5.1    4.992      0.486      1024.9        712.336284    683.874974    nd            nd            8.700000      2008-04-16T16:02:14.99Z  
1602.5838   57755   43.8825  -69.8096  157.0    5.1    4.975      0.557      1024.8        712.298770    683.832647    nd            nd            8.700000      2008-04-16T16:02:35.03Z  
1602.9165   57775   43.8818  -69.8089  144.0    5.1    4.985      0.569      1024.9        711.242014    682.841310    nd            nd            8.700000      2008-04-16T16:02:54.99Z  
1603.2506   57795   43.8811  -69.8080  125.0    5.1    4.995      0.554      1024.9        709.531437    681.229450    nd            nd            8.700000      2008-04-16T16:03:15.04Z  
1603.5832   57815   43.8807  -69.8069  114.0    5.3    4.983      0.547      1025.0        708.670294    680.417582    nd            nd            8.700000      2008-04-16T16:03:34.99Z  
1603.9173   57835   43.8804  -69.8057  102.0    4.8    4.977      0.560      1025.0        708.112327    679.900047    nd            nd            8.700000      2008-04-16T16:03:55.04Z  
1604.2499   57855   43.8804  -69.8047  88.0     3.2    4.953      0.614      1025.0        707.704995    679.535887    nd            nd            8.700000      2008-04-16T16:04:14.99Z  
1604.5840   57875   43.8803  -69.8042  127.0    1.4    4.914      0.618      1025.0        707.427194    679.270848    nd            nd            8.700000      2008-04-16T16:04:35.04Z  
1604.9166   57895   43.8802  -69.8041  132.0    0.4    4.850      0.697      1025.0        706.488075    678.373903    nd            nd            8.700000      2008-04-16T16:04:55.00Z  
1605.2493   57915   43.8802  -69.8041  316.0    0.4    4.757      0.795      1024.9        704.949060    676.929729    nd            nd            8.700000      2008-04-16T16:05:14.96Z  
1605.5834   57935   43.8803  -69.8042  207.0    0.1    4.687      0.833      1025.0        701.887966    674.023246    nd            nd            8.700000      2008-04-16T16:05:35.00Z  
1605.9160   57955   43.8802  -69.8041  136.0    0.3    4.654      0.827      1025.0        698.371109    670.670217    nd            nd            8.700000      2008-04-16T16:05:54.96Z  
1606.2501   57975   43.8802  -69.8041  109.0    0.4    4.612      0.828      1025.0        695.807667    668.219293    nd            nd            8.700000      2008-04-16T16:06:15.01Z  
1606.5827   57995   43.8802  -69.8040  78.0     0.5    4.594      0.854      1025.0        694.221334    666.710384    nd            nd            8.700000      2008-04-16T16:06:34.96Z  
1606.9168   58015   43.8803  -69.8040  48.0     0.3    4.599      0.856      1025.0        692.415222    664.993369    nd            nd            8.700000      2008-04-16T16:06:55.01Z  
1607.2494   58035   43.8804  -69.8040  82.0     0.1    4.585      0.847      1025.0        690.672584    663.325749    nd            nd            8.700000      2008-04-16T16:07:14.96Z  
1607.5835   58055   43.8804  -69.8040  182.0    0.1    4.569      0.847      1025.0        689.806208    662.502381    nd            nd            8.700000      2008-04-16T16:07:35.01Z  
1607.9162   58075   43.8804  -69.8040  264.0    0.4    4.553      0.861      1025.0        689.355668    662.073526    nd            nd            8.700000      2008-04-16T16:07:54.97Z  
1608.2502   58095   43.8804  -69.8041  163.0    0.2    4.529      0.879      1025.0        688.607336    661.355331    nd            nd            8.700000      2008-04-16T16:08:15.01Z  
1608.5829   58115   43.8803  -69.8041  176.0    0.2    4.515      0.886      1025.0        687.773162    660.551563    nd            nd            8.700000      2008-04-16T16:08:34.97Z  
1608.9170   58135   43.8803  -69.8041  214.0    0.4    4.509      0.884      1025.0        686.644233    659.477091    nd            nd            8.700000      2008-04-16T16:08:55.02Z  
1609.2496   58155   43.8802  -69.8042  240.0    0.2    4.513      0.861      1025.0        685.753281    658.604933    nd            nd            8.700000      2008-04-16T16:09:14.98Z  
1609.5837   58175   43.8803  -69.8042  304.0    0.1    4.522      0.845      1025.0        685.320768    658.182677    nd            nd            8.700000      2008-04-16T16:09:35.02Z  
1609.9163   58195   43.8803  -69.8042  299.0    0.1    4.530      0.843      1025.0        685.586453    658.430188    nd            nd            8.700000      2008-04-16T16:09:54.98Z  
1610.2504   58215   43.8803  -69.8042  154.0    0.2    4.563      0.822      1024.9        685.743732    658.554456    nd            nd            8.700000      2008-04-16T16:10:15.02Z  
1610.5830   58235   43.8803  -69.8042  257.0    0.1    4.575      0.812      1025.0        686.466614    659.253314    nd            nd            8.700000      2008-04-16T16:10:34.98Z  
1610.9171   58255   43.8803  -69.8043  269.0    0.2    4.562      0.808      1025.0        686.864956    659.653659    nd            nd            8.700000      2008-04-16T16:10:55.03Z  
1611.2498   58275   43.8803  -69.8044  251.0    0.3    4.557      0.805      1025.0        687.609695    660.363323    nd            nd            8.700000      2008-04-16T16:11:14.99Z  
1611.5838   58295   43.8803  -69.8044  123.0    0.1    4.552      0.790      1025.0        688.173703    660.900084    nd            nd            8.700000      2008-04-16T16:11:35.03Z  
1611.9165   58315   43.8803  -69.8043  146.0    0.1    4.550      0.792      1025.0        688.770021    661.489712    nd            nd            8.700000      2008-04-16T16:11:54.99Z  
1612.2506   58335   43.8803  -69.8043  206.0    0.1    4.548      0.818      1025.0        689.124492    661.818087    nd            nd            8.700000      2008-04-16T16:12:15.04Z  
1612.5832   58355   43.8803  -69.8044  168.0    0.1    4.545      0.823      1024.9        689.223170    661.891397    nd            nd            8.700000      2008-04-16T16:12:34.99Z  
1612.9173   58375   43.8803  -69.8044  199.0    0.2    4.545      0.819      1024.9        689.053608    661.734911    nd            nd            8.700000      2008-04-16T16:12:55.04Z  
1613.2499   58395   43.8802  -69.8044  202.0    0.3    4.553      0.805      1025.0        688.849460    661.548696    nd            nd            8.700000      2008-04-16T16:13:14.99Z  
1613.5840   58415   43.8802  -69.8044  160.0    0.2    4.563      0.785      1024.9        688.836830    661.508879    nd            nd            8.700000      2008-04-16T16:13:35.04Z  
1613.9166   58435   43.8802  -69.8044  185.0    0.1    4.574      0.802      1024.9        689.176246    661.841801    nd            nd            8.700000      2008-04-16T16:13:55.00Z  
1614.2493   58455   43.8802  -69.8045  241.0    0.1    4.567      0.812      1025.0        689.760286    662.430210    nd            nd            8.700000      2008-04-16T16:14:14.96Z  
1614.5834   58475   43.8802  -69.8045  260.0    0.1    4.560      0.798      1024.9        689.738891    662.381154    nd            nd            8.700000      2008-04-16T16:14:35.00Z  
1614.9160   58495   43.8802  -69.8045  308.0    0.3    4.565      0.787      1024.9        689.874685    662.510332    nd            nd            8.700000      2008-04-16T16:14:54.96Z  
1615.2501   58515   43.8803  -69.8046  300.0    0.5    4.571      0.797      1024.9        690.119014    662.757336    nd            nd            8.700000      2008-04-16T16:15:15.01Z  
1615.5827   58535   43.8803  -69.8048  298.0    0.4    4.564      0.819      1024.9        690.393222    663.022655    nd            nd            8.700000      2008-04-16T16:15:34.96Z  
1615.9168   58555   43.8803  -69.8048  117.0    0.1    4.560      0.807      1024.9        690.335259    662.947927    nd            nd            8.700000      2008-04-16T16:15:55.01Z  
1616.2494   58575   43.8803  -69.8047  199.0    0.4    4.566      0.795      1024.9        690.286041    662.863710    nd            nd            8.700000      2008-04-16T16:16:14.96Z  
1616.5835   58595   43.8805  -69.8046  82.0     2.8    4.580      0.806      1024.9        690.694974    663.305238    nd            nd            8.700000      2008-04-16T16:16:35.01Z  
1616.9162   58615   43.8805  -69.8035  104.0    5.8    4.599      0.792      1024.9        690.490640    663.074696    nd            nd            8.700000      2008-04-16T16:16:54.97Z  
1617.2502   58635   43.8802  -69.8018  100.0    7.2    4.638      0.796      1024.9        690.662422    663.245193    nd            nd            8.700000      2008-04-16T16:17:15.01Z  
1617.5829   58655   43.8799  -69.8000  104.0    7.8    4.617      0.799      1024.9        690.780272    663.354589    nd            nd            8.700000      2008-04-16T16:17:34.97Z  
1617.9170   58675   43.8794  -69.7982  114.0    8.0    4.625      0.774      1024.9        690.683094    663.228651    nd            nd            8.700000      2008-04-16T16:17:55.02Z  
1618.2496   58695   43.8786  -69.7965  135.0    8.5    4.674      0.760      1024.9        691.171299    663.667680    nd            nd            8.700000      2008-04-16T16:18:14.98Z  
1618.5837   58715   43.8772  -69.7956  169.0    8.9    4.724      0.780      1024.8        692.133901    664.546740    nd            nd            8.700000      2008-04-16T16:18:35.02Z  
1618.9163   58735   43.8756  -69.7956  181.0    9.1    4.768      0.774      1024.8        693.240501    665.573266    nd            nd            8.700000      2008-04-16T16:18:54.98Z  
1619.2504   58755   43.8739  -69.7957  182.0    9.3    4.796      0.796      1024.8        693.777615    666.074006    nd            nd            8.700000      2008-04-16T16:19:15.02Z  
1619.5830   58775   43.8722  -69.7957  178.0    9.4    4.814      0.915      1024.8        694.751200    667.003883    nd            nd            8.700000      2008-04-16T16:19:34.98Z  
1619.9171   58795   43.8705  -69.7956  176.0    9.6    4.808      1.064      1024.8        693.107369    665.417862    nd            nd            8.700000      2008-04-16T16:19:55.03Z  
1620.2498   58815   43.8688  -69.7954  173.0    9.8    4.758      1.280      1024.7        690.079606    662.516422    nd            nd            8.700000      2008-04-16T16:20:14.99Z  
1620.5838   58835   43.8670  -69.7950  170.0    9.9    4.712      1.305      1024.8        683.430033    656.185975    nd            nd            8.700000      2008-04-16T16:20:35.03Z  
1620.9165   58855   43.8653  -69.7948  178.0    9.8    4.701      1.253      1024.8        677.031033    650.039849    394.431724    391.858360    8.700000      2008-04-16T16:20:54.99Z  
1621.2506   58875   43.8635  -69.7949  184.0    9.9    4.710      1.237      1024.8        673.484299    646.630982    394.361875    391.788244    8.700000      2008-04-16T16:21:15.04Z  
1621.5832   58895   43.8618  -69.7951  186.0    8.9    4.699      1.286      1024.8        671.737390    644.962543    394.427956    391.857319    8.700000      2008-04-16T16:21:34.99Z  
1621.9173   58915   43.8603  -69.7953  184.0    7.9    4.706      1.325      1024.8        669.518361    642.863543    394.082151    391.531354    8.700000      2008-04-16T16:21:55.04Z  
1622.2499   58935   43.8589  -69.7955  184.0    7.8    4.718      1.392      1024.9        667.228766    640.669399    nd            nd            8.700000      2008-04-16T16:22:14.99Z  
1622.5840   58955   43.8574  -69.7957  186.0    9.3    4.694      1.450      1024.8        664.713980    638.231819    393.930033    391.374426    8.700000      2008-04-16T16:22:35.04Z  
1622.9166   58975   43.8556  -69.7959  182.0    10.1   4.686      1.470      1024.8        661.386543    635.003175    394.425465    391.849412    8.700000      2008-04-16T16:22:55.00Z  
1623.2507   58995   43.8538  -69.7958  177.0    10.4   4.704      1.494      1024.8        658.310703    632.051431    nd            nd            8.700000      2008-04-16T16:23:15.04Z  
1623.5834   59015   43.8519  -69.7957  175.0    10.6   4.736      1.506      1024.8        655.998407    629.826752    nd            nd            8.700000      2008-04-16T16:23:35.00Z  
1623.9160   59035   43.8499  -69.7955  177.0    10.6   4.742      1.514      1024.8        653.990483    627.913395    nd            nd            8.700000      2008-04-16T16:23:54.96Z  
1624.2501   59055   43.8480  -69.7954  177.0    10.5   4.737      1.543      1024.8        652.679586    626.632670    nd            nd            8.700000      2008-04-16T16:24:15.01Z  
1624.5827   59075   43.8462  -69.7952  178.0    10.5   4.740      1.517      1024.8        651.450407    625.473795    nd            nd            8.700000      2008-04-16T16:24:34.96Z  
1624.9168   59095   43.8443  -69.7952  180.0    10.4   4.744      1.556      1024.8        650.494796    624.568785    nd            nd            8.700000      2008-04-16T16:24:55.01Z  
1625.2494   59115   43.8424  -69.7953  183.0    10.4   4.728      1.662      1024.8        649.505658    623.627425    nd            nd            8.700000      2008-04-16T16:25:14.96Z  
1625.5835   59135   43.8405  -69.7956  187.0    10.3   4.711      1.808      1024.8        646.933609    621.157522    nd            nd            8.700000      2008-04-16T16:25:35.01Z  
1625.9162   59155   43.8387  -69.7959  185.0    10.3   4.702      1.853      1024.8        641.962008    616.385191    nd            nd            8.700000      2008-04-16T16:25:54.97Z  
1626.2502   59175   43.8368  -69.7962  188.0    10.2   4.703      1.932      1024.8        636.278145    610.898208    394.408086    391.818603    8.700000      2008-04-16T16:26:15.01Z  
1626.5829   59195   43.8350  -69.7965  188.0    10.4   4.694      2.405      1024.8        632.054748    606.873515    nd            nd            8.700000      2008-04-16T16:26:34.97Z  
1626.9170   59215   43.8331  -69.7970  190.0    10.5   4.680      2.728      1024.8        621.562485    596.803958    nd            nd            8.700000      2008-04-16T16:26:55.02Z  
1627.2496   59235   43.8313  -69.7975  192.0    10.5   4.710      2.459      1024.8        603.977887    579.886522    nd            nd            8.700000      2008-04-16T16:27:14.98Z  
1627.5837   59255   43.8294  -69.7980  193.0    10.4   4.761      2.205      1024.8        594.359128    570.645484    nd            nd            8.700000      2008-04-16T16:27:35.02Z  
1627.9163   59275   43.8278  -69.7991  216.0    10.3   4.793      2.096      1024.7        595.135597    571.361799    nd            nd            8.700000      2008-04-16T16:27:54.98Z  
1628.2504   59295   43.8265  -69.8009  229.0    10.2   4.773      2.415      1024.8        599.793698    575.859367    nd            nd            8.700000      2008-04-16T16:28:15.02Z  
1628.5830   59315   43.8251  -69.8025  209.0    10.3   4.741      2.666      1024.8        598.387465    574.554014    394.511527    391.957056    8.700000      2008-04-16T16:28:34.98Z  
1628.9171   59335   43.8234  -69.8035  196.0    10.5   4.743      2.627      1024.9        589.662190    566.187479    394.956597    392.405937    8.700000      2008-04-16T16:28:55.03Z  
1629.2498   59355   43.8215  -69.8040  187.0    10.3   4.750      2.856      1024.9        582.888185    559.678659    394.908545    392.356871    8.700000      2008-04-16T16:29:14.99Z  
1629.5838   59375   43.8197  -69.8042  182.0    10.4   4.710      3.369      1024.8        576.702719    553.705830    nd            nd            8.700000      2008-04-16T16:29:35.03Z  
1629.9165   59395   43.8178  -69.8041  177.0    10.3   4.670      3.969      1024.8        561.455874    539.103131    nd            nd            8.700000      2008-04-16T16:29:54.99Z  
1630.2506   59415   43.8160  -69.8039  168.0    10.1   4.648      4.418      1024.9        539.586404    518.144203    nd            nd            8.700000      2008-04-16T16:30:15.04Z  
1630.5832   59435   43.8143  -69.8029  148.0    10.1   4.651      4.502      1024.8        514.290239    493.833932    nd            nd            8.700000      2008-04-16T16:30:34.99Z  
1630.9173   59455   43.8128  -69.8014  142.0    10.1   4.663      4.291      1024.9        492.241826    472.667074    nd            nd            8.700000      2008-04-16T16:30:55.04Z  
1631.2499   59475   43.8114  -69.7998  137.0    10.1   4.691      4.094      1024.8        479.936119    460.814842    nd            nd            8.700000      2008-04-16T16:31:14.99Z  
1631.5840   59495   43.8101  -69.7981  138.0    10.0   4.724      4.060      1024.8        476.783519    457.782616    nd            nd            8.700000      2008-04-16T16:31:35.04Z  
1631.9166   59515   43.8087  -69.7964  138.0    10.0   4.728      4.526      1024.9        475.318203    456.405068    nd            nd            8.700000      2008-04-16T16:31:55.00Z  
1632.2507   59535   43.8073  -69.7948  142.0    10.0   4.680      5.679      1024.9        469.556984    450.901397    nd            nd            8.700000      2008-04-16T16:32:15.04Z  
1632.5834   59555   43.8059  -69.7932  135.0    10.0   4.643      6.201      1024.9        445.549806    427.856360    nd            nd            8.700000      2008-04-16T16:32:35.00Z  
1632.9160   59575   43.8047  -69.7914  132.0    9.9    4.636      6.565      1024.9        416.754951    400.204736    nd            nd            8.700000      2008-04-16T16:32:54.96Z  
1633.2501   59595   43.8035  -69.7897  137.0    9.8    4.649      6.475      1024.9        388.696995    373.268805    nd            nd            8.700000      2008-04-16T16:33:15.01Z  
1633.5827   59615   43.8021  -69.7883  149.0    9.6    4.666      6.319      1024.9        372.092126    357.320288    nd            nd            8.700000      2008-04-16T16:33:34.96Z  
1633.9168   59635   43.8005  -69.7873  162.0    9.5    4.680      6.370      1024.9        360.255845    345.940590    nd            nd            8.700000      2008-04-16T16:33:55.01Z  
1634.2494   59655   43.7988  -69.7867  166.0    9.5    4.703      6.423      1024.8        353.623334    339.550781    nd            nd            8.700000      2008-04-16T16:34:14.96Z  
1634.5835   59675   43.7971  -69.7863  175.0    9.4    4.726      6.419      1024.8        347.946136    334.088588    nd            nd            8.700000      2008-04-16T16:34:35.01Z  
1634.9162   59695   43.7955  -69.7863  182.0    9.3    4.761      5.907      1024.8        343.513670    329.825927    nd            nd            8.700000      2008-04-16T16:34:54.97Z  
1635.2502   59715   43.7938  -69.7865  186.0    9.3    4.785      5.556      1024.9        345.579402    331.827802    395.193656    392.651196    8.700000      2008-04-16T16:35:15.01Z  
1635.5829   59735   43.7921  -69.7867  184.0    9.4    4.806      5.782      1024.9        355.317654    341.177741    nd            nd            8.700000      2008-04-16T16:35:34.97Z  
1635.9170   59755   43.7904  -69.7869  185.0    9.5    4.821      6.321      1024.9        361.886917    347.487192    nd            nd            8.700000      2008-04-16T16:35:55.02Z  
1636.2496   59775   43.7887  -69.7871  187.0    9.4    4.851      6.834      1024.9        357.816349    343.581354    395.608911    393.063932    8.700000      2008-04-16T16:36:14.98Z  
1636.5837   59795   43.7871  -69.7875  191.0    8.8    4.836      7.806      1025.0        349.243861    335.366394    395.793544    393.260427    8.700000      2008-04-16T16:36:35.02Z  
1636.9163   59815   43.7855  -69.7880  191.0    9.3    4.876      7.824      1025.0        330.774093    317.626630    nd            nd            8.700000      2008-04-16T16:36:54.98Z  
1637.2504   59835   43.7838  -69.7885  192.0    9.5    4.944      8.138      1025.0        311.277902    298.892809    nd            nd            8.700000      2008-04-16T16:37:15.02Z  
1637.5830   59855   43.7821  -69.7889  189.0    9.6    4.989      8.405      1025.0        299.621728    287.699153    nd            nd            8.700000      2008-04-16T16:37:34.98Z  
1637.9171   59875   43.7804  -69.7892  183.0    9.6    5.024      7.263      1025.0        286.539802    275.143016    395.750658    393.210407    8.700000      2008-04-16T16:37:55.03Z  
1638.2498   59895   43.7787  -69.7889  168.0    9.5    5.051      6.369      1025.1        285.384908    274.036974    nd            nd            8.700000      2008-04-16T16:38:14.99Z  
1638.5838   59915   43.7770  -69.7884  164.0    9.5    5.077      5.991      1025.1        298.104413    286.253454    395.850590    393.317437    8.700000      2008-04-16T16:38:35.03Z  
1638.9165   59935   43.7754  -69.7877  162.0    9.3    5.093      5.719      1025.1        316.194443    303.623180    nd            nd            8.700000      2008-04-16T16:38:54.99Z  
1639.2506   59955   43.7738  -69.7870  163.0    9.5    5.112      5.534      1025.1        331.199211    318.037738    nd            nd            8.700000      2008-04-16T16:39:15.04Z  
1639.5832   59975   43.7721  -69.7863  162.0    9.7    5.127      6.154      1025.2        348.392422    334.555643    nd            nd            8.700000      2008-04-16T16:39:34.99Z  
1639.9173   59995   43.7705  -69.7856  165.0    9.7    5.102      6.917      1025.2        352.513714    338.529210    nd            nd            8.700000      2008-04-16T16:39:55.04Z  
1640.2499   60015   43.7687  -69.7852  172.0    9.9    5.082      7.402      1025.2        342.087921    328.511790    nd            nd            8.700000      2008-04-16T16:40:14.99Z  
1640.5840   60035   43.7670  -69.7850  176.0    9.7    5.088      7.580      1025.2        325.725904    312.800152    nd            nd            8.700000      2008-04-16T16:40:35.04Z  
1640.9166   60055   43.7652  -69.7849  180.0    9.8    5.151      6.903      1025.2        310.122059    297.810314    nd            nd            8.700000      2008-04-16T16:40:55.00Z  
1641.2493   60075   43.7634  -69.7849  179.0    9.9    5.272      6.056      1025.2        305.159252    293.023738    396.007652    393.464148    8.700000      2008-04-16T16:41:14.96Z  
1641.5834   60095   43.7617  -69.7849  178.0    9.6    5.389      5.592      1025.2        315.412865    302.857599    396.278645    393.725195    8.700000      2008-04-16T16:41:35.00Z  
1641.9160   60115   43.7602  -69.7848  175.0    6.9    5.453      5.312      1025.3        333.110553    319.859168    396.494345    393.957088    8.700000      2008-04-16T16:41:54.96Z  
1642.2501   60135   43.7593  -69.7845  162.0    4.6    5.481      5.140      1025.3        352.150172    338.133980    nd            nd            8.700000      2008-04-16T16:42:15.01Z  
1642.5827   60155   43.7585  -69.7841  153.0    4.3    5.493      5.164      1025.3        369.542483    354.828465    nd            nd            8.700000      2008-04-16T16:42:34.96Z  
1642.9168   60175   43.7579  -69.7837  161.0    3.5    5.513      5.103      1025.3        380.689939    365.528518    nd            nd            8.700000      2008-04-16T16:42:55.01Z  
1643.2494   60195   43.7575  -69.7836  162.0    1.1    5.505      5.104      1025.4        389.207447    373.753448    nd            nd            8.700000      2008-04-16T16:43:14.96Z  
1643.5835   60215   43.7575  -69.7834  83.0     0.8    5.499      5.160      1025.4        396.022620    380.304641    nd            nd            8.700000      2008-04-16T16:43:35.01Z  
1643.9162   60235   43.7575  -69.7832  96.0     0.8    5.498      5.186      1025.4        399.578614    383.723153    nd            nd            8.700000      2008-04-16T16:43:54.97Z  
1644.2502   60255   43.7575  -69.7830  98.0     0.7    5.514      5.144      1025.4        401.721603    385.779738    nd            nd            8.700000      2008-04-16T16:44:15.01Z  
1644.5829   60275   43.7575  -69.7829  88.0     0.3    5.529      5.146      1025.5        403.798636    387.772882    nd            nd            8.700000      2008-04-16T16:44:34.97Z  
1644.9170   60295   43.7575  -69.7828  107.0    0.3    5.542      5.175      1025.4        405.705284    389.598914    nd            nd            8.700000      2008-04-16T16:44:55.02Z  
1645.2496   60315   43.7574  -69.7827  108.0    0.3    5.552      5.248      1025.4        406.881751    390.717689    nd            nd            8.700000      2008-04-16T16:45:14.98Z  
1645.5837   60335   43.7574  -69.7827  160.0    0.4    5.562      5.383      1025.4        406.165032    390.023946    nd            nd            8.700000      2008-04-16T16:45:35.02Z  
1645.9163   60355   43.7575  -69.7827  335.0    0.5    5.569      5.433      1025.4        402.972097    386.958246    nd            nd            8.700000      2008-04-16T16:45:54.98Z  
1646.2504   60375   43.7576  -69.7828  147.0    0.1    5.519      6.545      1025.4        399.274510    383.419922    nd            nd            8.700000      2008-04-16T16:46:15.02Z  
1646.5830   60395   43.7575  -69.7828  198.0    0.2    5.380      8.478      1025.4        387.405162    372.054429    nd            nd            8.700000      2008-04-16T16:46:34.98Z  
1646.9171   60415   43.7575  -69.7828  230.0    0.4    5.268      9.281      1025.4        355.713885    341.641631    nd            nd            8.700000      2008-04-16T16:46:55.03Z  
1647.2498   60435   43.7575  -69.7829  236.0    0.4    5.200      9.434      1025.4        319.579541    306.954874    nd            nd            8.700000      2008-04-16T16:47:14.99Z  
1647.5838   60455   43.7575  -69.7828  104.0    0.2    5.161      9.615      1025.4        292.890963    281.320716    nd            nd            8.700000      2008-04-16T16:47:35.03Z  
1647.9165   60475   43.7575  -69.7829  238.0    0.2    5.134      9.720      1025.4        274.370831    263.534300    nd            nd            8.700000      2008-04-16T16:47:54.99Z  
1648.2506   60495   43.7575  -69.7830  285.0    0.4    5.164      8.940      1025.4        259.683863    249.428034    nd            nd            8.700000      2008-04-16T16:48:15.04Z  
1648.5832   60515   43.7575  -69.7831  267.0    0.5    5.209      8.459      1025.4        253.821977    243.784951    nd            nd            8.700000      2008-04-16T16:48:34.99Z  
1648.9173   60535   43.7575  -69.7832  242.0    0.6    5.206      8.815      1025.4        254.140971    244.091561    nd            nd            8.700000      2008-04-16T16:48:55.04Z  
1649.2499   60555   43.7575  -69.7833  200.0    0.3    5.201      8.928      1025.4        252.039962    242.069822    nd            nd            8.700000      2008-04-16T16:49:14.99Z  
1649.5840   60575   43.7574  -69.7832  125.0    0.2    5.227      8.447      1025.4        248.169647    238.351021    nd            nd            8.700000      2008-04-16T16:49:35.04Z  
1649.9166   60595   43.7574  -69.7832  125.0    0.3    5.283      7.468      1025.4        248.263574    238.432266    nd            nd            8.700000      2008-04-16T16:49:55.00Z  
1650.2493   60615   43.7574  -69.7832  251.0    0.1    5.328      6.983      1025.4        256.852046    246.670899    nd            nd            8.700000      2008-04-16T16:50:14.96Z  
1650.5834   60635   43.7574  -69.7832  221.0    0.4    5.369      6.877      1025.3        271.057529    260.298398    nd            nd            8.700000      2008-04-16T16:50:35.00Z  
1650.9160   60655   43.7575  -69.7832  306.0    0.3    5.380      6.905      1025.4        282.780239    271.558245    nd            nd            8.700000      2008-04-16T16:50:54.96Z  
1651.2501   60675   43.7575  -69.7832  250.0    0.1    5.390      6.931      1025.3        291.320498    279.754350    nd            nd            8.700000      2008-04-16T16:51:15.01Z  
1651.5827   60695   43.7575  -69.7832  166.0    0.1    5.361      7.584      1025.4        296.420439    284.667857    nd            nd            8.700000      2008-04-16T16:51:34.96Z  
1651.9168   60715   43.7575  -69.7832  271.0    0.4    5.287      8.442      1025.4        294.966119    283.283029    nd            nd            8.700000      2008-04-16T16:51:55.01Z  
1652.2494   60735   43.7575  -69.7833  223.0    0.2    5.215      9.078      1025.4        284.419555    273.162511    nd            nd            8.700000      2008-04-16T16:52:14.96Z  
1652.5835   60755   43.7574  -69.7833  136.0    0.3    5.151      9.598      1025.4        270.809384    260.106552    nd            nd            8.700000      2008-04-16T16:52:35.01Z  
1652.9162   60775   43.7575  -69.7833  343.0    0.4    5.130      9.821      1025.4        258.077823    247.880452    nd            nd            8.700000      2008-04-16T16:52:54.97Z  
1653.2502   60795   43.7575  -69.7833  219.0    0.1    5.141      8.941      1025.4        246.975658    237.223299    nd            nd            8.700000      2008-04-16T16:53:15.01Z  
1653.5829   60815   43.7574  -69.7833  205.0    0.3    5.145      8.160      1025.4        243.364701    233.750928    nd            nd            8.700000      2008-04-16T16:53:34.97Z  
1653.9170   60835   43.7575  -69.7833  182.0    0.7    5.157      7.860      1025.4        247.474559    237.695561    nd            nd            8.700000      2008-04-16T16:53:55.02Z  
1654.2496   60855   43.7576  -69.7832  19.0     0.4    5.144      8.150      1025.4        254.075677    244.035072    nd            nd            8.700000      2008-04-16T16:54:14.98Z  
1654.5837   60875   43.7576  -69.7832  185.0    0.2    5.137      8.057      1025.4        257.282741    247.130622    nd            nd            8.700000      2008-04-16T16:54:35.02Z  
1654.9163   60895   43.7576  -69.7833  197.0    0.5    5.168      7.818      1025.4        258.155337    247.955856    nd            nd            8.700000      2008-04-16T16:54:54.98Z  
1655.2504   60915   43.7575  -69.7833  177.0    0.2    5.192      7.865      1025.4        261.355450    251.021875    nd            nd            8.700000      2008-04-16T16:55:15.02Z  
1655.5830   60935   43.7575  -69.7833  136.0    0.1    5.189      8.200      1025.4        264.056999    253.620035    nd            nd            8.700000      2008-04-16T16:55:34.98Z  
1655.9171   60955   43.7575  -69.7832  141.0    0.3    5.163      8.509      1025.4        263.455085    253.048245    nd            nd            8.700000      2008-04-16T16:55:55.03Z  
1656.2498   60975   43.7576  -69.7832  48.0     0.3    5.124      8.715      1025.5        259.751311    249.507118    nd            nd            8.700000      2008-04-16T16:56:14.99Z  
1656.5838   60995   43.7576  -69.7832  171.0    0.1    5.097      8.904      1025.5        255.443809    245.378556    nd            nd            8.700000      2008-04-16T16:56:35.03Z  
1656.9165   61015   43.7576  -69.7832  269.0    0.2    5.078      9.061      1025.5        251.342567    241.440284    nd            nd            8.700000      2008-04-16T16:56:54.99Z  
1657.2506   61035   43.7576  -69.7832  247.0    0.2    5.084      8.941      1025.5        247.389339    237.644006    nd            nd            8.700000      2008-04-16T16:57:15.04Z  
1657.5832   61055   43.7575  -69.7832  153.0    0.4    5.103      8.831      1025.5        245.170190    235.506547    nd            nd            8.700000      2008-04-16T16:57:34.99Z  
1657.9173   61075   43.7575  -69.7832  47.0     0.4    5.113      8.746      1025.4        244.165436    234.534632    nd            nd            8.700000      2008-04-16T16:57:55.04Z  
1658.2499   61095   43.7575  -69.7831  181.0    0.3    5.090      8.910      1025.4        244.135490    234.502395    nd            nd            8.700000      2008-04-16T16:58:14.99Z  
1658.5840   61115   43.7577  -69.7831  235.0    0.8    5.068      8.946      1025.4        243.552815    233.948382    nd            nd            8.700000      2008-04-16T16:58:35.04Z  
1658.9166   61135   43.7577  -69.7831  181.0    0.1    5.099      8.634      1025.4        242.165542    232.612388    nd            nd            8.700000      2008-04-16T16:58:55.00Z  
1659.2493   61155   43.7577  -69.7831  293.0    0.2    5.117      8.733      1025.4        243.361544    233.759750    nd            nd            8.700000      2008-04-16T16:59:14.96Z  
1659.5834   61175   43.7577  -69.7832  297.0    0.4    5.097      9.299      1025.4        244.912834    235.256921    nd            nd            8.700000      2008-04-16T16:59:35.00Z  
1659.9160   61195   43.7578  -69.7832  168.0    1.5    5.074      9.451      1025.4        243.215539    233.610483    nd            nd            8.588889      2008-04-16T16:59:54.96Z  
1700.2501   61215   43.7575  -69.7827  146.0    3.9    5.054      9.705      1025.3        239.482959    230.006934    nd            nd            8.300000      2008-04-16T17:00:15.01Z  
1700.5827   61235   43.7567  -69.7822  153.0    5.7    5.014      9.942      1025.3        236.101296    226.764546    nd            nd            8.300000      2008-04-16T17:00:34.96Z  
1700.9168   61255   43.7556  -69.7815  156.0    7.9    5.002      9.963      1025.3        232.193500    223.016093    nd            nd            8.300000      2008-04-16T17:00:55.01Z  
1701.2494   61275   43.7542  -69.7806  156.0    8.7    5.002      10.549     1025.3        229.310778    220.250463    nd            nd            8.300000      2008-04-16T17:01:14.96Z  
1701.5835   61295   43.7527  -69.7799  164.0    9.3    5.077      9.100      1025.3        225.733924    216.803927    nd            nd            8.300000      2008-04-16T17:01:35.01Z  
1701.9162   61315   43.7511  -69.7793  161.0    9.1    5.124      8.173      1025.3        226.839859    217.856115    nd            nd            8.300000      2008-04-16T17:01:54.97Z  
1702.2502   61335   43.7496  -69.7782  142.0    9.3    5.119      8.172      1025.2        235.877563    226.525372    nd            nd            8.300000      2008-04-16T17:02:15.01Z  
1702.5829   61355   43.7483  -69.7767  140.0    9.5    5.088      9.134      1025.2        243.920751    234.253637    nd            nd            8.300000      2008-04-16T17:02:34.97Z  
1702.9170   61375   43.7469  -69.7752  141.0    9.7    5.045      11.342     1025.2        245.198150    235.491341    nd            nd            8.300000      2008-04-16T17:02:55.02Z  
1703.2496   61395   43.7456  -69.7737  137.0    9.2    5.028      11.975     1025.3        237.773627    228.373019    nd            nd            8.300000      2008-04-16T17:03:14.98Z  
1703.5837   61415   43.7444  -69.7721  134.0    9.0    5.027      11.379     1025.3        227.936356    218.923934    398.794915    396.327999    8.300000      2008-04-16T17:03:35.02Z  
1703.9163   61435   43.7434  -69.7704  127.0    9.4    4.990      11.808     1025.2        221.422802    212.662481    399.082213    396.606202    8.300000      2008-04-16T17:03:54.98Z  
1704.2504   61455   43.7423  -69.7686  132.0    9.2    4.940      13.749     1025.3        217.205581    208.626489    399.297446    396.847191    8.300000      2008-04-16T17:04:15.02Z  
1704.5830   61475   43.7411  -69.7671  143.0    8.7    4.923      13.740     1025.3        211.950367    203.584589    399.571488    397.129811    8.300000      2008-04-16T17:04:34.98Z  
1704.9171   61495   43.7397  -69.7660  148.0    8.9    4.927      13.249     1025.3        207.359906    199.173853    399.486236    397.042160    8.300000      2008-04-16T17:04:55.03Z  
1705.2498   61515   43.7383  -69.7649  154.0    9.2    4.913      15.132     1025.3        204.158084    196.099803    399.486710    397.040642    8.300000      2008-04-16T17:05:14.99Z  
1705.5838   61535   43.7367  -69.7640  164.0    9.4    4.873      16.796     1025.3        202.273472    194.295955    399.288000    396.861386    8.300000      2008-04-16T17:05:35.03Z  
1705.9165   61555   43.7351  -69.7636  172.0    9.5    4.854      17.365     1025.3        201.395550    193.455049    nd            nd            8.300000      2008-04-16T17:05:54.99Z  
1706.2506   61575   43.7334  -69.7634  178.0    9.4    4.841      16.927     1025.3        201.045612    193.117863    nd            nd            8.300000      2008-04-16T17:06:15.04Z  
1706.5832   61595   43.7317  -69.7635  186.0    9.2    4.840      16.407     1025.2        200.674126    192.756355    398.200454    395.769440    8.300000      2008-04-16T17:06:34.99Z  
1706.9173   61615   43.7301  -69.7639  192.0    9.1    4.844      16.567     1025.2        199.618273    191.739483    398.188507    395.754222    8.300000      2008-04-16T17:06:55.04Z  
1707.2499   61635   43.7285  -69.7646  204.0    8.8    4.832      17.035     1025.2        198.929402    191.079068    nd            nd            8.300000      2008-04-16T17:07:14.99Z  
1707.5840   61655   43.7272  -69.7656  207.0    8.7    4.842      17.090     1025.2        198.541432    190.706415    nd            nd            8.300000      2008-04-16T17:07:35.04Z  
1707.9166   61675   43.7257  -69.7664  196.0    8.4    4.871      17.424     1025.3        198.687655    190.851467    397.694384    395.275278    8.300000      2008-04-16T17:07:55.00Z  
1708.2507   61695   43.7243  -69.7669  191.0    8.4    4.891      18.784     1025.3        198.750532    190.909048    397.855438    395.428245    8.300000      2008-04-16T17:08:15.04Z  
1708.5834   61715   43.7227  -69.7673  189.0    8.5    4.929      19.833     1025.2        199.850668    191.959619    397.987355    395.552131    8.300000      2008-04-16T17:08:35.00Z  
1708.9160   61735   43.7212  -69.7676  189.0    8.4    5.012      19.933     1025.2        202.418676    194.416258    nd            nd            8.300000      2008-04-16T17:08:54.96Z  
1709.2501   61755   43.7198  -69.7680  189.0    8.4    5.057      19.937     1025.2        204.429064    196.341762    nd            nd            8.300000      2008-04-16T17:09:15.01Z  
1709.5827   61775   43.7183  -69.7684  191.0    8.4    5.107      19.723     1025.2        205.589457    197.450041    nd            nd            8.300000      2008-04-16T17:09:34.96Z  
1709.9168   61795   43.7168  -69.7688  194.0    8.5    5.209      19.285     1025.2        206.378267    198.193513    398.582406    396.085381    8.300000      2008-04-16T17:09:55.01Z  
1710.2494   61815   43.7153  -69.7695  201.0    8.6    5.307      19.168     1025.2        206.789615    198.574762    nd            nd            8.300000      2008-04-16T17:10:14.96Z  
1710.5835   61835   43.7139  -69.7703  203.0    8.6    5.330      19.405     1025.2        207.189896    198.957439    398.896707    396.360559    8.300000      2008-04-16T17:10:35.01Z  
1710.9162   61855   43.7125  -69.7712  204.0    8.5    5.258      19.439     1025.2        207.471393    199.239854    398.874906    396.356391    8.300000      2008-04-16T17:10:54.97Z  
1711.2502   61875   43.7111  -69.7721  205.0    8.3    5.235      19.392     1025.2        207.480781    199.251076    399.070458    396.555581    8.300000      2008-04-16T17:11:15.01Z  
1711.5829   61895   43.7098  -69.7729  205.0    8.3    5.282      19.928     1025.2        207.718722    199.475281    398.791062    396.276267    8.300000      2008-04-16T17:11:34.97Z  
1711.9170   61915   43.7084  -69.7738  201.0    8.2    5.354      21.895     1025.2        208.631798    200.340780    399.000678    396.469053    8.300000      2008-04-16T17:11:55.02Z  
1712.2496   61935   43.7070  -69.7745  202.0    8.2    5.591      22.300     1025.2        211.821139    203.373274    399.008193    396.377661    8.300000      2008-04-16T17:12:14.98Z  
1712.5837   61955   43.7056  -69.7753  203.0    8.2    5.996      22.563     1025.2        215.709138    207.052090    nd            nd            8.300000      2008-04-16T17:12:35.02Z  
1712.9163   61975   43.7043  -69.7761  203.0    8.1    6.277      22.032     1025.2        221.535619    212.611280    nd            nd            8.300000      2008-04-16T17:12:54.98Z  
1713.2504   61995   43.7030  -69.7769  203.0    7.5    6.521      21.954     1025.2        226.224722    217.084853    399.611537    396.804186    8.300000      2008-04-16T17:13:15.02Z  
1713.5830   62015   43.7020  -69.7776  222.0    5.5    6.786      21.761     1025.2        230.129720    220.796170    nd            nd            8.300000      2008-04-16T17:13:34.98Z  
1713.9171   62035   43.7019  -69.7787  285.0    4.9    6.934      21.828     1025.3        233.974316    224.473843    nd            nd            8.300000      2008-04-16T17:13:55.03Z  
1714.2498   62055   43.7022  -69.7795  314.0    2.4    6.971      22.434     1025.4        237.049202    227.436529    nd            nd            8.300000      2008-04-16T17:14:14.99Z  
1714.5838   62075   43.7024  -69.7798  296.0    0.9    6.882      23.316     1025.3        238.870217    229.186292    nd            nd            8.300000      2008-04-16T17:14:35.03Z  
1714.9165   62095   43.7024  -69.7799  250.0    0.4    6.820      23.091     1025.3        239.753980    230.036606    nd            nd            8.300000      2008-04-16T17:14:54.99Z  
1715.2506   62115   43.7023  -69.7799  234.0    0.3    6.746      22.784     1025.3        240.971213    231.217695    nd            nd            8.300000      2008-04-16T17:15:15.04Z  
1715.5832   62135   43.7023  -69.7800  227.0    0.2    6.635      22.957     1025.3        241.029824    231.291090    nd            nd            8.300000      2008-04-16T17:15:34.99Z  
1715.9173   62155   43.7023  -69.7800  255.0    0.2    6.575      22.877     1025.3        240.505111    230.794708    nd            nd            8.300000      2008-04-16T17:15:55.04Z  
1716.2499   62175   43.7023  -69.7800  255.0    0.1    6.585      22.751     1025.3        240.063626    230.367960    nd            nd            8.300000      2008-04-16T17:16:14.99Z  
1716.5840   62195   43.7023  -69.7800  226.0    0.2    6.592      22.721     1025.3        239.550474    229.877535    nd            nd            8.300000      2008-04-16T17:16:35.04Z  
1716.9166   62215   43.7023  -69.7800  196.0    0.2    6.596      22.718     1025.3        239.393446    229.725402    nd            nd            8.300000      2008-04-16T17:16:55.00Z  
1717.2507   62235   43.7023  -69.7800  104.0    0.2    6.600      22.714     1025.3        239.525508    229.852167    nd            nd            8.300000      2008-04-16T17:17:15.04Z  
1717.5834   62255   43.7023  -69.7800  83.0     0.2    6.604      22.713     1025.3        241.214634    231.474815    nd            nd            8.300000      2008-04-16T17:17:35.00Z  
1717.9160   62275   43.7023  -69.7800  111.0    0.2    6.607      22.713     1025.3        246.939228    236.974646    nd            nd            8.300000      2008-04-16T17:17:54.96Z  
1718.2501   62295   43.7023  -69.7800  114.0    0.2    6.602      22.727     1025.3        252.993111    242.783720    nd            nd            8.300000      2008-04-16T17:18:15.01Z  
1718.5827   62315   43.7023  -69.7799  111.0    0.2    6.578      22.870     1025.3        256.561959    246.209707    nd            nd            8.300000      2008-04-16T17:18:34.96Z  
1718.9168   62335   43.7023  -69.7799  135.0    0.1    6.551      22.985     1025.3        257.626666    247.232453    nd            nd            8.300000      2008-04-16T17:18:55.01Z  
1719.2494   62355   43.7024  -69.7799  159.0    0.2    6.487      23.364     1025.3        255.677762    245.366376    nd            nd            8.300000      2008-04-16T17:19:14.96Z  
1719.5835   62375   43.7024  -69.7799  105.0    0.2    6.434      23.368     1025.3        252.907984    242.711866    nd            nd            8.300000      2008-04-16T17:19:35.01Z  
1719.9162   62395   43.7024  -69.7799  112.0    0.1    6.426      23.235     1025.3        249.673926    239.608306    nd            nd            8.300000      2008-04-16T17:19:54.97Z  
1720.2502   62415   43.7024  -69.7799  119.0    0.2    6.381      23.678     1025.3        246.220364    236.302854    nd            nd            8.300000      2008-04-16T17:20:15.01Z  
1720.5829   62435   43.7024  -69.7798  102.0    0.2    6.262      24.372     1025.3        243.826428    234.024432    nd            nd            8.300000      2008-04-16T17:20:34.97Z  
1720.9170   62455   43.7024  -69.7798  115.0    0.2    6.189      24.423     1025.3        242.292762    232.563296    nd            nd            8.300000      2008-04-16T17:20:55.02Z  
1721.2496   62475   43.7023  -69.7798  124.0    0.2    6.196      24.052     1025.3        241.016065    231.335329    nd            nd            8.300000      2008-04-16T17:21:14.98Z  
1721.5837   62495   43.7023  -69.7798  85.0     0.2    6.223      23.879     1025.3        239.956434    230.315117    nd            nd            8.300000      2008-04-16T17:21:35.02Z  
1721.9163   62515   43.7023  -69.7798  115.0    0.2    6.224      23.902     1025.3        239.080637    229.474400    nd            nd            8.300000      2008-04-16T17:21:54.98Z  
1722.2504   62535   43.7023  -69.7797  102.0    0.2    6.238      23.783     1025.3        238.322754    228.742115    nd            nd            8.300000      2008-04-16T17:22:15.02Z  
1722.5830   62555   43.7023  -69.7797  112.0    0.1    6.278      23.650     1025.3        237.850598    228.283476    nd            nd            8.300000      2008-04-16T17:22:34.98Z  
1722.9171   62575   43.7023  -69.7797  117.0    0.2    6.317      23.421     1025.3        237.336698    227.786867    nd            nd            8.300000      2008-04-16T17:22:55.03Z  
1723.2498   62595   43.7023  -69.7797  126.0    0.2    6.386      23.151     1025.3        236.985406    227.439596    nd            nd            8.300000      2008-04-16T17:23:14.99Z  
1723.5838   62615   43.7023  -69.7796  129.0    0.2    6.442      23.013     1025.3        236.702450    227.162284    nd            nd            8.300000      2008-04-16T17:23:35.03Z  
1723.9165   62635   43.7022  -69.7796  127.0    0.2    6.480      22.963     1025.3        236.509639    226.966037    nd            nd            8.300000      2008-04-16T17:23:54.99Z  
1724.2506   62655   43.7022  -69.7796  109.0    0.2    6.495      22.960     1025.2        236.432184    226.888461    nd            nd            8.300000      2008-04-16T17:24:15.04Z  
1724.5832   62675   43.7022  -69.7796  122.0    0.1    6.499      22.975     1025.3        236.369682    226.829041    nd            nd            8.300000      2008-04-16T17:24:34.99Z  
1724.9173   62695   43.7022  -69.7795  98.0     0.2    6.506      22.961     1025.3        236.337652    226.801275    nd            nd            8.300000      2008-04-16T17:24:55.04Z  
1725.2499   62715   43.7022  -69.7795  108.0    0.2    6.520      22.916     1025.3        236.431060    226.889788    nd            nd            8.300000      2008-04-16T17:25:14.99Z  
1725.5840   62735   43.7022  -69.7795  101.0    0.2    6.540      22.883     1025.3        236.536169    226.988679    nd            nd            8.300000      2008-04-16T17:25:35.04Z  
1725.9166   62755   43.7022  -69.7794  123.0    0.2    6.560      22.861     1025.3        236.598628    227.052592    nd            nd            8.300000      2008-04-16T17:25:55.00Z  
1726.2493   62775   43.7022  -69.7794  108.0    0.2    6.573      22.853     1025.3        236.705589    227.149162    nd            nd            8.300000      2008-04-16T17:26:14.96Z  
1726.5834   62795   43.7021  -69.7794  130.0    0.1    6.584      22.860     1025.3        237.482754    227.892697    nd            nd            8.300000      2008-04-16T17:26:35.00Z  
1726.9160   62815   43.7021  -69.7794  106.0    0.2    6.588      22.869     1025.3        239.156228    229.498532    nd            nd            8.300000      2008-04-16T17:26:54.96Z  
1727.2501   62835   43.7021  -69.7794  124.0    0.2    6.594      22.872     1025.3        241.179635    231.441611    nd            nd            8.300000      2008-04-16T17:27:15.01Z  
1727.5827   62855   43.7021  -69.7793  127.0    0.1    6.597      22.867     1025.3        241.874819    232.109297    nd            nd            8.300000      2008-04-16T17:27:34.96Z  
1727.9168   62875   43.7021  -69.7793  157.0    0.1    6.610      22.848     1025.3        241.416341    231.667124    nd            nd            8.300000      2008-04-16T17:27:55.01Z  
1728.2494   62895   43.7021  -69.7793  142.0    0.2    6.620      22.830     1025.3        240.776735    231.053031    nd            nd            8.300000      2008-04-16T17:28:14.96Z  
1728.5835   62915   43.7021  -69.7793  141.0    0.2    6.638      22.815     1025.3        240.304334    230.595353    nd            nd            8.300000      2008-04-16T17:28:35.01Z  
1728.9162   62935   43.7021  -69.7793  158.0    0.2    6.649      22.797     1025.3        240.143059    230.436518    nd            nd            8.300000      2008-04-16T17:28:54.97Z  
1729.2502   62955   43.7021  -69.7793  199.0    0.2    6.646      22.790     1025.3        240.027749    230.323777    nd            nd            8.300000      2008-04-16T17:29:15.01Z  
1729.5829   62975   43.7020  -69.7793  155.0    0.2    6.637      22.779     1025.3        239.957645    230.258742    nd            nd            8.300000      2008-04-16T17:29:34.97Z  
1729.9170   62995   43.7020  -69.7793  135.0    0.2    6.587      22.789     1025.3        239.853274    230.167596    nd            nd            8.300000      2008-04-16T17:29:55.02Z  
1730.2496   63015   43.7020  -69.7793  198.0    0.3    6.563      22.760     1025.3        239.598967    229.926566    nd            nd            8.300000      2008-04-16T17:30:14.98Z  
1730.5837   63035   43.7020  -69.7793  206.0    0.6    6.578      22.708     1025.3        239.096713    229.441616    nd            nd            8.300000      2008-04-16T17:30:35.02Z  
1730.9163   63055   43.7019  -69.7793  145.0    0.3    6.597      22.624     1025.3        238.928813    229.275994    nd            nd            8.300000      2008-04-16T17:30:54.98Z  
1731.2504   63075   43.7019  -69.7793  79.0     0.2    6.544      22.697     1025.3        238.832600    229.192982    nd            nd            8.300000      2008-04-16T17:31:15.02Z  
1731.5830   63095   43.7019  -69.7793  225.0    0.1    6.408      23.023     1025.3        238.982403    229.357514    nd            nd            8.300000      2008-04-16T17:31:34.98Z  
1731.9171   63115   43.7019  -69.7793  239.0    0.1    6.253      23.929     1025.3        238.616191    229.030194    nd            nd            8.300000      2008-04-16T17:31:55.03Z  
1732.2498   63135   43.7019  -69.7793  246.0    0.1    6.164      24.023     1025.3        238.333293    228.773358    nd            nd            8.300000      2008-04-16T17:32:14.99Z  
1732.5838   63155   43.7019  -69.7793  228.0    0.2    6.205      23.191     1025.3        238.041719    228.486689    nd            nd            8.300000      2008-04-16T17:32:35.03Z  
1732.9165   63175   43.7019  -69.7794  249.0    0.2    6.346      22.569     1025.3        237.246114    227.701496    nd            nd            8.300000      2008-04-16T17:32:54.99Z  
1733.2506   63195   43.7019  -69.7794  251.0    0.2    6.479      22.267     1025.3        236.760166    227.215220    nd            nd            8.300000      2008-04-16T17:33:15.04Z  
1733.5832   63215   43.7019  -69.7794  236.0    0.2    6.566      22.149     1025.3        236.497667    226.950005    nd            nd            8.300000      2008-04-16T17:33:34.99Z  
1733.9173   63235   43.7019  -69.7794  239.0    0.2    6.618      22.105     1025.3        236.599725    227.038917    nd            nd            8.300000      2008-04-16T17:33:55.04Z  
1734.2499   63255   43.7019  -69.7795  219.0    0.1    6.648      22.081     1025.3        236.874824    227.298056    nd            nd            8.300000      2008-04-16T17:34:14.99Z  
1734.5840   63275   43.7019  -69.7795  155.0    0.2    6.676      22.057     1025.3        237.027122    227.439182    nd            nd            8.300000      2008-04-16T17:34:35.04Z  
1734.9166   63295   43.7018  -69.7795  247.0    0.3    6.698      22.041     1025.3        237.442577    227.835767    nd            nd            8.300000      2008-04-16T17:34:55.00Z  
1735.2493   63315   43.7018  -69.7795  192.0    0.2    6.716      22.026     1025.3        237.680878    228.073128    nd            nd            8.300000      2008-04-16T17:35:14.96Z  
1735.5834   63335   43.7018  -69.7795  190.0    0.1    6.695      22.130     1025.4        237.865191    228.264250    nd            nd            8.300000      2008-04-16T17:35:35.00Z  
1735.9160   63355   43.7018  -69.7795  116.0    0.2    6.644      22.144     1025.4        238.151634    228.554533    nd            nd            8.300000      2008-04-16T17:35:54.96Z  
1736.2501   63375   43.7018  -69.7795  211.0    0.1    6.679      22.077     1025.4        238.005543    228.413256    nd            nd            8.300000      2008-04-16T17:36:15.01Z  
1736.5827   63395   43.7019  -69.7795  208.0    0.1    6.658      22.074     1025.4        237.866236    228.284522    nd            nd            8.300000      2008-04-16T17:36:34.96Z  
1736.9168   63415   43.7019  -69.7795  201.0    0.1    6.674      22.025     1025.4        237.744815    228.160265    nd            nd            8.300000      2008-04-16T17:36:55.01Z  
1737.2494   63435   43.7019  -69.7795  163.0    0.1    6.729      21.972     1025.4        237.648754    228.054378    nd            nd            8.300000      2008-04-16T17:37:14.96Z  
1737.5835   63455   43.7019  -69.7795  115.0    0.0    6.780      21.938     1025.4        237.929590    228.305872    nd            nd            8.300000      2008-04-16T17:37:35.01Z  
1737.9162   63475   43.7019  -69.7794  213.0    0.1    6.806      21.914     1025.3        238.409398    228.755190    nd            nd            8.300000      2008-04-16T17:37:54.97Z  
1738.2502   63495   43.7019  -69.7793  109.0    2.1    6.816      21.899     1025.3        238.847069    229.166605    nd            nd            8.300000      2008-04-16T17:38:15.01Z  
1738.5829   63515   43.7014  -69.7791  195.0    4.2    6.797      21.908     1025.2        239.297772    229.588248    nd            nd            8.300000      2008-04-16T17:38:34.97Z  
1738.9170   63535   43.7008  -69.7798  237.0    4.5    6.722      21.925     1025.2        239.223670    229.527606    nd            nd            8.300000      2008-04-16T17:38:55.02Z  
1739.2496   63555   43.7004  -69.7808  239.0    5.1    6.666      21.962     1025.2        238.753503    229.081496    nd            nd            8.300000      2008-04-16T17:39:14.98Z  
1739.5837   63575   43.6998  -69.7820  231.0    5.9    6.656      22.223     1025.2        238.238787    228.587858    nd            nd            8.300000      2008-04-16T17:39:35.02Z  
1739.9163   63595   43.6991  -69.7831  236.0    6.0    6.615      22.488     1025.2        238.006090    228.366753    nd            nd            8.300000      2008-04-16T17:39:54.98Z  
1740.2504   63615   43.6985  -69.7846  242.0    7.3    6.621      22.942     1025.1        238.050196    228.400724    nd            nd            8.300000      2008-04-16T17:40:15.02Z  
1740.5830   63635   43.6979  -69.7863  241.0    8.4    6.605      23.485     1025.1        237.813640    228.167137    399.265944    396.393614    8.300000      2008-04-16T17:40:34.98Z  
1740.9171   63655   43.6972  -69.7882  243.0    8.3    6.533      24.492     1025.1        237.190393    227.581709    398.793947    395.951200    8.300000      2008-04-16T17:40:55.03Z  
1741.2498   63675   43.6964  -69.7900  240.0    8.3    6.488      25.252     1025.1        236.670736    227.090697    398.824772    395.991106    8.300000      2008-04-16T17:41:14.99Z  
1741.5838   63695   43.6957  -69.7918  238.0    8.3    6.446      25.519     1025.1        236.804919    227.222887    398.593627    395.766634    8.300000      2008-04-16T17:41:35.03Z  
1741.9165   63715   43.6949  -69.7935  237.0    8.3    6.390      25.459     1025.1        236.750656    227.177198    398.509645    395.693804    8.300000      2008-04-16T17:41:54.99Z  
1742.2506   63735   43.6941  -69.7952  236.0    8.3    6.331      25.407     1025.1        236.340467    226.794621    398.424343    395.625635    8.300000      2008-04-16T17:42:15.04Z  
1742.5832   63755   43.6932  -69.7970  236.0    8.4    6.274      25.390     1025.1        235.730127    226.215217    398.490224    395.703116    8.300000      2008-04-16T17:42:34.99Z  
1742.9173   63775   43.6924  -69.7987  237.0    8.3    6.238      25.267     1025.1        234.907121    225.431489    398.520377    395.741988    8.300000      2008-04-16T17:42:55.04Z  
1743.2499   63795   43.6916  -69.8005  240.0    8.4    6.221      25.162     1025.1        233.937760    224.501217    398.746521    395.966986    8.300000      2008-04-16T17:43:14.99Z  
1743.5840   63815   43.6909  -69.8023  239.0    8.3    6.212      25.090     1025.1        233.002953    223.603825    398.777008    395.997134    8.300000      2008-04-16T17:43:35.04Z  
1743.9166   63835   43.6901  -69.8040  236.0    8.4    6.196      24.976     1025.1        231.968171    222.610920    398.876431    396.095845    8.300000      2008-04-16T17:43:55.00Z  
1744.2493   63855   43.6893  -69.8058  236.0    8.3    6.184      24.802     1025.1        230.865376    221.552413    398.830102    396.047748    8.300000      2008-04-16T17:44:14.96Z  
1744.5834   63875   43.6884  -69.8075  237.0    8.2    6.177      24.579     1025.1        229.513631    220.258196    398.825321    396.048687    8.300000      2008-04-16T17:44:35.00Z  
1744.9160   63895   43.6876  -69.8092  237.0    8.2    6.208      24.301     1025.1        228.150569    218.944204    398.900317    396.112425    8.300000      2008-04-16T17:44:54.96Z  
1745.2501   63915   43.6868  -69.8109  236.0    8.1    6.251      24.114     1025.1        226.782973    217.624968    398.741336    395.944148    8.300000      2008-04-16T17:45:15.01Z  
1745.5827   63935   43.6861  -69.8126  238.0    8.1    6.289      23.915     1025.1        225.449585    216.341795    398.788579    395.986693    8.300000      2008-04-16T17:45:34.96Z  
1745.9168   63955   43.6853  -69.8143  239.0    8.1    6.332      23.877     1025.1        224.387954    215.314699    398.430133    395.613494    8.300000      2008-04-16T17:45:55.01Z  
1746.2494   63975   43.6846  -69.8160  239.0    8.0    6.351      24.066     1025.1        223.689301    214.640486    398.624243    395.798131    8.300000      2008-04-16T17:46:14.96Z  
1746.5835   63995   43.6839  -69.8177  239.0    8.1    6.508      23.211     1025.1        223.258326    214.205867    398.621295    395.755191    8.300000      2008-04-16T17:46:35.01Z  
1746.9162   64015   43.6831  -69.8194  240.0    8.0    6.755      22.190     1025.1        223.290369    214.201950    398.629451    395.706360    8.300000      2008-04-16T17:46:54.97Z  
1747.2502   64035   43.6824  -69.8211  239.0    8.0    6.955      21.452     1025.1        223.546092    214.417010    398.185178    395.201621    8.300000      2008-04-16T17:47:15.01Z  
1747.5829   64055   43.6817  -69.8228  238.0    8.0    6.996      21.510     1025.1        223.840431    214.693325    398.467349    395.485517    8.300000      2008-04-16T17:47:34.97Z  
1747.9170   64075   43.6809  -69.8246  239.0    8.0    7.050      21.086     1025.0        223.945026    214.783586    398.292554    395.292952    8.300000      2008-04-16T17:47:55.02Z  
1748.2496   64095   43.6802  -69.8263  239.0    7.9    7.131      20.880     1025.0        223.872642    214.700649    398.265320    395.238829    8.300000      2008-04-16T17:48:14.98Z  
1748.5837   64115   43.6795  -69.8280  238.0    8.0    7.098      21.280     1025.0        223.917934    214.748047    398.551619    395.527028    8.300000      2008-04-16T17:48:35.02Z  
1748.9163   64135   43.6787  -69.8297  238.0    8.0    7.031      21.664     1025.0        224.061341    214.897275    398.413484    395.417713    8.300000      2008-04-16T17:48:54.98Z  
1749.2504   64155   43.6779  -69.8314  239.0    8.0    6.982      22.375     1025.0        224.291569    215.126989    398.557595    395.569558    8.300000      2008-04-16T17:49:15.02Z  
1749.5830   64175   43.6772  -69.8331  240.0    8.0    6.848      23.198     1025.0        224.995644    215.821090    398.297726    395.339655    8.300000      2008-04-16T17:49:34.98Z  
1749.9171   64195   43.6765  -69.8348  241.0    7.9    6.717      23.257     1025.0        226.039008    216.838374    398.311404    395.390196    8.300000      2008-04-16T17:49:55.03Z  
1750.2498   64215   43.6758  -69.8365  241.0    8.0    6.672      22.751     1025.0        226.510806    217.294851    398.464611    395.545698    8.300000      2008-04-16T17:50:14.99Z  
1750.5838   64235   43.6752  -69.8383  241.0    7.9    6.649      22.364     1025.0        226.180845    216.983107    nd            nd            8.300000      2008-04-16T17:50:35.03Z  
1750.9165   64255   43.6745  -69.8400  240.0    7.9    6.662      21.960     1025.0        225.505388    216.330071    398.493968    395.589590    8.300000      2008-04-16T17:50:54.99Z  
1751.2506   64275   43.6737  -69.8417  239.0    8.0    6.709      21.453     1025.0        224.791980    215.638557    398.719607    395.794252    8.300000      2008-04-16T17:51:15.04Z  
1751.5832   64295   43.6730  -69.8434  241.0    8.0    6.752      21.196     1025.0        224.096821    214.966920    398.253358    395.320119    8.300000      2008-04-16T17:51:34.99Z  
1751.9173   64315   43.6723  -69.8452  240.0    8.0    6.761      21.075     1025.0        223.459303    214.349679    nd            nd            8.300000      2008-04-16T17:51:55.04Z  
1752.2499   64335   43.6716  -69.8469  239.0    8.0    6.840      20.544     1025.0        222.620281    213.533959    398.509282    395.548171    8.300000      2008-04-16T17:52:14.99Z  
1752.5840   64355   43.6709  -69.8486  239.0    7.9    6.926      20.199     1025.0        221.639238    212.579407    nd            nd            8.300000      2008-04-16T17:52:35.04Z  
1752.9166   64375   43.6702  -69.8503  238.0    7.9    6.983      19.920     1025.0        220.788503    211.755701    398.574845    395.564463    8.300000      2008-04-16T17:52:55.00Z  
1753.2507   64395   43.6694  -69.8519  235.0    8.0    7.076      19.576     1025.0        220.213482    211.188978    398.540259    395.506275    8.300000      2008-04-16T17:53:15.04Z  
1753.5834   64415   43.6686  -69.8536  236.0    8.0    7.138      19.362     1025.0        219.956055    210.935525    398.578152    395.536468    8.300000      2008-04-16T17:53:35.00Z  
1753.9160   64435   43.6678  -69.8552  236.0    8.0    7.212      19.060     1025.0        219.784692    210.755727    398.777644    395.708550    8.300000      2008-04-16T17:53:54.96Z  
1754.2501   64455   43.6670  -69.8569  235.0    8.0    7.318      18.656     1025.0        220.033960    210.981809    398.581498    395.497202    8.300000      2008-04-16T17:54:15.01Z  
1754.5827   64475   43.6662  -69.8585  236.0    8.0    7.388      18.611     1025.0        220.576562    211.493653    398.553596    395.440832    8.300000      2008-04-16T17:54:34.96Z  
1754.9168   64495   43.6654  -69.8602  237.0    8.0    7.367      19.097     1025.0        221.543807    212.423531    398.719974    395.612372    8.300000      2008-04-16T17:54:55.01Z  
1755.2494   64515   43.6646  -69.8618  237.0    8.0    7.336      19.615     1025.0        222.794986    213.629068    398.643209    395.552812    8.300000      2008-04-16T17:55:14.96Z  
1755.5835   64535   43.6638  -69.8635  235.0    8.0    7.364      19.949     1025.0        223.876214    214.661194    398.684134    395.584749    8.300000      2008-04-16T17:55:35.01Z  
1755.9162   64555   43.6630  -69.8651  235.0    8.0    7.333      20.495     1025.0        225.094675    215.834437    398.517558    395.426039    8.300000      2008-04-16T17:55:54.97Z  
1756.2502   64575   43.6622  -69.8668  236.0    7.9    7.387      20.630     1025.0        226.258152    216.943943    398.423027    395.335182    8.300000      2008-04-16T17:56:15.01Z  
1756.5829   64595   43.6614  -69.8684  236.0    8.0    7.570      20.465     1025.0        227.243450    217.860664    398.586857    395.439297    8.300000      2008-04-16T17:56:34.97Z  
1756.9170   64615   43.6606  -69.8701  237.0    7.9    7.725      20.434     1025.0        229.083932    219.603205    398.261597    395.064470    8.300000      2008-04-16T17:56:55.02Z  
1757.2496   64635   43.6599  -69.8717  236.0    8.0    7.842      20.612     1025.0        231.522896    221.920504    398.387700    395.165796    8.300000      2008-04-16T17:57:14.98Z  
1757.5837   64655   43.6591  -69.8734  237.0    8.0    7.824      21.394     1025.0        234.110454    224.401288    nd            nd            8.300000      2008-04-16T17:57:35.02Z  
1757.9163   64675   43.6583  -69.8750  235.0    8.0    7.660      22.106     1025.0        235.991470    226.230984    398.134468    394.950253    8.300000      2008-04-16T17:57:54.98Z  
1758.2504   64695   43.6575  -69.8767  237.0    7.9    7.614      22.612     1025.0        237.176205    227.373433    nd            nd            8.300000      2008-04-16T17:58:15.02Z  
1758.5830   64715   43.6567  -69.8783  235.0    7.9    7.538      23.482     1025.0        238.165512    228.331879    nd            nd            8.300000      2008-04-16T17:58:34.98Z  
1758.9171   64735   43.6559  -69.8799  235.0    7.9    7.328      24.039     1025.0        240.049771    230.173870    nd            nd            8.300000      2008-04-16T17:58:55.03Z  
1759.2498   64755   43.6551  -69.8816  236.0    8.0    7.144      24.556     1025.0        241.062195    231.170991    398.457788    395.404559    8.300000      2008-04-16T17:59:14.99Z  
1759.5838   64775   43.6543  -69.8832  235.0    7.9    6.942      24.950     1025.0        241.329231    231.459533    nd            nd            8.300000      2008-04-16T17:59:35.03Z  
1759.9165   64795   43.6535  -69.8848  235.0    7.9    6.784      25.182     1024.9        240.282187    230.475878    397.809244    394.834028    8.161111      2008-04-16T17:59:54.99Z  
1800.2506   64815   43.6527  -69.8864  235.0    7.9    6.628      25.322     1024.9        237.104412    227.447942    nd            nd            7.800000      2008-04-16T18:00:15.04Z  
1800.5832   64835   43.6519  -69.8881  234.0    7.9    6.435      25.466     1024.9        233.456982    223.975976    nd            nd            7.800000      2008-04-16T18:00:34.99Z  
1800.9173   64855   43.6511  -69.8897  235.0    7.9    6.308      25.482     1024.9        228.342561    219.086914    nd            nd            7.800000      2008-04-16T18:00:55.04Z  
1801.2499   64875   43.6503  -69.8913  240.0    7.9    6.274      25.471     1024.9        223.726415    214.663863    nd            nd            7.800000      2008-04-16T18:01:14.99Z  
1801.5840   64895   43.6497  -69.8931  245.0    8.0    6.290      25.473     1024.9        219.468652    210.576628    397.691839    394.852522    7.800000      2008-04-16T18:01:35.04Z  
1801.9166   64915   43.6490  -69.8948  236.0    7.9    6.276      25.481     1024.9        216.096887    207.340957    nd            nd            7.800000      2008-04-16T18:01:55.00Z  
1802.2507   64935   43.6482  -69.8965  241.0    8.0    6.254      25.447     1024.9        213.566939    204.919569    397.459664    394.624035    7.800000      2008-04-16T18:02:15.04Z  
1802.5834   64955   43.6475  -69.8982  237.0    8.0    6.252      25.384     1024.9        211.157988    202.604596    397.269935    394.426999    7.800000      2008-04-16T18:02:35.00Z  
1802.9160   64975   43.6467  -69.8998  236.0    7.9    6.293      25.334     1024.9        209.416605    200.931990    nd            nd            7.800000      2008-04-16T18:02:54.96Z  
1803.2501   64995   43.6459  -69.9015  235.0    8.0    6.307      25.313     1024.9        208.286575    199.844340    nd            nd            7.800000      2008-04-16T18:03:15.01Z  
1803.5827   65015   43.6451  -69.9031  233.0    7.9    6.317      25.314     1024.9        207.133190    198.738042    nd            nd            7.800000      2008-04-16T18:03:34.96Z  
1803.9168   65035   43.6442  -69.9047  235.0    7.9    6.329      25.307     1024.9        205.890895    197.542903    nd            nd            7.800000      2008-04-16T18:03:55.01Z  
1804.2494   65055   43.6434  -69.9063  235.0    7.9    6.357      25.302     1024.9        204.457708    196.163985    397.416740    394.553359    7.800000      2008-04-16T18:04:14.96Z  
1804.5835   65075   43.6426  -69.9079  235.0    7.9    6.385      25.299     1024.9        203.161157    194.917355    nd            nd            7.800000      2008-04-16T18:04:35.01Z  
1804.9162   65095   43.6418  -69.9095  235.0    7.9    6.392      25.388     1024.9        201.859081    193.665812    nd            nd            7.800000      2008-04-16T18:04:54.97Z  
1805.2502   65115   43.6410  -69.9111  235.0    7.9    6.391      25.473     1024.9        200.568626    192.427415    nd            nd            7.800000      2008-04-16T18:05:15.01Z  
1805.5829   65135   43.6402  -69.9127  234.0    7.9    6.401      25.553     1024.9        198.718172    190.650437    nd            nd            7.800000      2008-04-16T18:05:34.97Z  
1805.9170   65155   43.6393  -69.9143  234.0    7.9    6.404      25.609     1024.9        196.845779    188.851735    nd            nd            7.800000      2008-04-16T18:05:55.02Z  
1806.2496   65175   43.6385  -69.9159  233.0    7.9    6.408      25.653     1024.9        194.839643    186.926568    nd            nd            7.800000      2008-04-16T18:06:14.98Z  
1806.5837   65195   43.6377  -69.9175  234.0    7.9    6.408      25.709     1024.9        193.289418    185.435847    nd            nd            7.800000      2008-04-16T18:06:35.02Z  
1806.9163   65215   43.6368  -69.9191  233.0    7.9    6.453      25.785     1024.9        192.173970    184.360818    nd            nd            7.800000      2008-04-16T18:06:54.98Z  
1807.2504   65235   43.6360  -69.9206  233.0    7.9    6.487      25.889     1024.9        191.595119    183.801043    nd            nd            7.800000      2008-04-16T18:07:15.02Z  
1807.5830   65255   43.6351  -69.9222  234.0    7.9    6.447      25.993     1024.9        191.143416    183.372400    nd            nd            7.800000      2008-04-16T18:07:34.98Z  
1807.9171   65275   43.6343  -69.9238  235.0    7.9    6.409      26.026     1024.9        190.654881    182.907444    nd            nd            7.800000      2008-04-16T18:07:55.03Z  
1808.2498   65295   43.6335  -69.9254  234.0    7.9    6.403      26.049     1024.9        189.795318    182.079051    nd            nd            7.800000      2008-04-16T18:08:14.99Z  
1808.5838   65315   43.6327  -69.9271  235.0    7.9    6.420      26.119     1024.9        189.375319    181.675268    nd            nd            7.800000      2008-04-16T18:08:35.03Z  
1808.9165   65335   43.6319  -69.9287  235.0    7.9    6.425      26.205     1024.9        189.487991    181.780154    nd            nd            7.800000      2008-04-16T18:08:54.99Z  
1809.2506   65355   43.6311  -69.9303  235.0    7.9    6.429      26.278     1024.9        189.851057    182.130753    nd            nd            7.800000      2008-04-16T18:09:15.04Z  
1809.5832   65375   43.6303  -69.9319  234.0    7.9    6.465      26.341     1024.9        190.272474    182.530015    nd            nd            7.800000      2008-04-16T18:09:34.99Z  
1809.9173   65395   43.6295  -69.9335  235.0    7.9    6.480      26.425     1024.8        190.791344    183.021941    nd            nd            7.800000      2008-04-16T18:09:55.04Z  
1810.2499   65415   43.6287  -69.9351  236.0    7.9    6.483      26.485     1024.8        191.617429    183.814194    nd            nd            7.800000      2008-04-16T18:10:14.99Z  
1810.5840   65435   43.6279  -69.9367  236.0    7.8    6.547      26.497     1024.8        192.295238    184.455540    nd            nd            7.800000      2008-04-16T18:10:35.04Z  
1810.9166   65455   43.6271  -69.9383  236.0    7.9    6.645      26.545     1024.8        193.393946    185.496220    nd            nd            7.800000      2008-04-16T18:10:55.00Z  
1811.2493   65475   43.6264  -69.9400  236.0    7.8    6.719      26.625     1024.8        195.052441    187.078797    nd            nd            7.800000      2008-04-16T18:11:14.96Z  
1811.5834   65495   43.6256  -69.9416  234.0    7.9    6.754      26.742     1024.8        196.671023    188.626168    nd            nd            7.800000      2008-04-16T18:11:35.00Z  
1811.9160   65515   43.6247  -69.9432  235.0    7.9    6.697      26.791     1024.8        198.430243    190.319783    nd            nd            7.800000      2008-04-16T18:11:54.96Z  
1812.2501   65535   43.6240  -69.9448  237.0    7.9    6.671      26.828     1024.8        199.348973    191.204624    nd            nd            7.800000      2008-04-16T18:12:15.01Z  
1812.5827   65555   43.6232  -69.9465  237.0    7.9    6.676      26.897     1024.8        199.574050    191.418708    nd            nd            7.800000      2008-04-16T18:12:34.96Z  
1812.9168   65575   43.6224  -69.9481  235.0    7.8    6.665      27.004     1024.8        199.813691    191.652539    nd            nd            7.800000      2008-04-16T18:12:55.01Z  
1813.2494   65595   43.6216  -69.9497  235.0    7.7    6.628      27.108     1024.8        199.774064    191.619990    nd            nd            7.800000      2008-04-16T18:13:14.96Z  
1813.5835   65615   43.6208  -69.9512  234.0    7.9    6.583      27.255     1024.8        199.360623    191.228162    nd            nd            7.800000      2008-04-16T18:13:35.01Z  
1813.9162   65635   43.6200  -69.9529  239.0    7.8    6.537      27.430     1024.8        199.356229    191.230598    nd            nd            7.800000      2008-04-16T18:13:54.97Z  
1814.2502   65655   43.6193  -69.9546  240.0    7.8    6.503      27.626     1024.8        199.341180    191.219853    nd            nd            7.800000      2008-04-16T18:14:15.01Z  
1814.5829   65675   43.6186  -69.9562  237.0    7.8    6.440      27.797     1024.8        199.522860    191.401153    nd            nd            7.800000      2008-04-16T18:14:34.97Z  
1814.9170   65695   43.6178  -69.9579  235.0    7.9    6.407      27.771     1024.8        199.975237    191.838563    nd            nd            7.800000      2008-04-16T18:14:55.02Z  
1815.2496   65715   43.6170  -69.9595  235.0    7.9    6.423      27.699     1024.8        200.270496    192.119441    nd            nd            7.800000      2008-04-16T18:15:14.98Z  
1815.5837   65735   43.6162  -69.9611  235.0    7.9    6.441      27.720     1024.8        200.300586    192.142843    nd            nd            7.800000      2008-04-16T18:15:35.02Z  
1815.9163   65755   43.6154  -69.9627  236.0    7.8    6.477      27.764     1024.8        200.461952    192.297253    nd            nd            7.800000      2008-04-16T18:15:54.98Z  
1816.2504   65775   43.6146  -69.9643  233.0    7.9    6.536      27.769     1024.8        200.810773    192.622888    nd            nd            7.800000      2008-04-16T18:16:15.02Z  
1816.5830   65795   43.6138  -69.9658  232.0    7.8    6.605      27.779     1024.8        201.301168    193.085054    nd            nd            7.800000      2008-04-16T18:16:34.98Z  
1816.9171   65815   43.6129  -69.9674  233.0    7.9    6.653      27.922     1024.8        201.719787    193.478335    nd            nd            7.800000      2008-04-16T18:16:55.03Z  
1817.2498   65835   43.6121  -69.9690  234.0    7.9    6.685      28.102     1024.8        202.569060    194.292265    396.981288    394.005690    7.800000      2008-04-16T18:17:14.99Z  
1817.5838   65855   43.6113  -69.9706  235.0    7.9    6.708      28.327     1024.8        203.634675    195.310259    nd            nd            7.800000      2008-04-16T18:17:35.03Z  
1817.9165   65875   43.6105  -69.9722  236.0    7.9    6.680      28.517     1024.8        204.927629    196.555135    nd            nd            7.800000      2008-04-16T18:17:54.99Z  
1818.2506   65895   43.6097  -69.9738  235.0    7.8    6.627      28.587     1024.8        206.410322    197.985622    nd            nd            7.800000      2008-04-16T18:18:15.04Z  
1818.5832   65915   43.6089  -69.9754  235.0    7.9    6.586      28.575     1024.8        207.494197    199.027902    nd            nd            7.800000      2008-04-16T18:18:34.99Z  
1818.9173   65935   43.6081  -69.9770  235.0    7.9    6.589      28.570     1024.8        208.403312    199.900367    nd            nd            7.800000      2008-04-16T18:18:55.04Z  
1819.2499   65955   43.6073  -69.9786  233.0    7.8    6.598      28.575     1024.8        208.958723    200.429469    nd            nd            7.800000      2008-04-16T18:19:14.99Z  
1819.5840   65975   43.6064  -69.9802  232.0    7.9    6.618      28.546     1024.8        209.597736    201.039977    nd            nd            7.800000      2008-04-16T18:19:35.04Z  
1819.9166   65995   43.6056  -69.9818  235.0    7.9    6.649      28.542     1024.8        209.896723    201.319980    nd            nd            7.800000      2008-04-16T18:19:55.00Z  
1820.2493   66015   43.6048  -69.9834  238.0    7.9    6.670      28.649     1024.8        210.167718    201.578364    nd            nd            7.800000      2008-04-16T18:20:14.96Z  
1820.5834   66035   43.6041  -69.9851  238.0    7.9    6.678      28.804     1024.8        210.595508    201.984805    396.832053    393.834656    7.800000      2008-04-16T18:20:35.00Z  
1820.9160   66055   43.6033  -69.9868  235.0    8.0    6.686      28.966     1024.8        211.469752    202.821754    396.900677    393.910170    7.800000      2008-04-16T18:20:54.96Z  
1821.2501   66075   43.6025  -69.9884  235.0    8.0    6.675      29.188     1024.8        212.681422    203.981234    396.997114    394.002790    7.800000      2008-04-16T18:21:15.01Z  
1821.5827   66095   43.6017  -69.9900  236.0    8.0    6.593      29.454     1024.8        214.271150    205.516912    396.954769    393.988724    7.800000      2008-04-16T18:21:34.96Z  
1821.9168   66115   43.6009  -69.9917  235.0    8.0    6.493      29.606     1024.7        215.745184    206.942694    397.185099    394.228665    7.800000      2008-04-16T18:21:55.01Z  
1822.2494   66135   43.6001  -69.9934  238.0    8.0    6.390      29.702     1024.7        216.879689    208.044664    nd            nd            7.800000      2008-04-16T18:22:14.96Z  
1822.5835   66155   43.5993  -69.9950  236.0    8.0    6.339      29.765     1024.7        217.529024    208.670906    397.012889    394.084981    7.800000      2008-04-16T18:22:35.01Z  
1822.9162   66175   43.5985  -69.9967  236.0    8.0    6.393      29.797     1024.7        217.792267    208.917419    396.956699    394.032008    7.800000      2008-04-16T18:22:54.97Z  
1823.2502   66195   43.5978  -69.9983  236.0    7.9    6.460      29.782     1024.7        218.180095    209.278031    397.309726    394.346187    7.800000      2008-04-16T18:23:15.01Z  
1823.5829   66215   43.5970  -70.0000  236.0    7.9    6.499      29.768     1024.7        218.728670    209.796953    397.248186    394.279106    7.800000      2008-04-16T18:23:34.97Z  
1823.9170   66235   43.5962  -70.0016  234.0    7.9    6.500      29.731     1024.7        219.103772    210.157327    397.149146    394.167062    7.800000      2008-04-16T18:23:55.02Z  
1824.2496   66255   43.5953  -70.0032  235.0    8.0    6.438      29.687     1024.7        218.885171    209.953574    397.134693    394.177791    7.800000      2008-04-16T18:24:14.98Z  
1824.5837   66275   43.5946  -70.0049  236.0    7.9    6.351      29.647     1024.7        218.319633    209.421465    397.134580    394.192563    7.800000      2008-04-16T18:24:35.02Z  
1824.9163   66295   43.5938  -70.0065  236.0    7.9    6.255      29.617     1024.7        217.497863    208.648218    397.213493    394.295891    7.800000      2008-04-16T18:24:54.98Z  
1825.2504   66315   43.5930  -70.0082  234.0    8.0    6.191      29.585     1024.7        216.399605    207.599878    397.197577    394.289131    7.800000      2008-04-16T18:25:15.02Z  
1825.5830   66335   43.5922  -70.0098  236.0    8.0    6.175      29.551     1024.7        215.113075    206.366873    397.147411    394.245114    7.800000      2008-04-16T18:25:34.98Z  
1825.9171   66355   43.5914  -70.0114  236.0    8.0    6.182      29.523     1024.7        213.635610    204.948747    397.045299    394.147079    7.800000      2008-04-16T18:25:55.03Z  
1826.2498   66375   43.5906  -70.0131  236.0    8.0    6.172      29.492     1024.7        212.540016    203.897651    397.304981    394.391084    7.800000      2008-04-16T18:26:14.99Z  
1826.5838   66395   43.5898  -70.0147  236.0    7.9    6.190      29.465     1024.7        211.513062    202.912054    397.194305    394.280314    7.800000      2008-04-16T18:26:35.03Z  
1826.9165   66415   43.5890  -70.0164  238.0    8.0    6.234      29.432     1024.7        210.637059    202.065592    nd            nd            7.800000      2008-04-16T18:26:54.99Z  
1827.2506   66435   43.5882  -70.0181  237.0    8.0    6.272      29.404     1024.7        209.944221    201.392387    397.069243    394.138324    7.800000      2008-04-16T18:27:15.04Z  
1827.5832   66455   43.5875  -70.0197  237.0    8.0    6.273      29.376     1024.7        209.412490    200.880359    397.250542    394.309707    7.800000      2008-04-16T18:27:34.99Z  
1827.9173   66475   43.5867  -70.0214  235.0    8.0    6.258      29.341     1024.7        208.887381    200.381381    397.415555    394.484678    7.800000      2008-04-16T18:27:55.04Z  
1828.2499   66495   43.5859  -70.0230  238.0    7.9    6.248      29.318     1024.7        208.182594    199.705964    397.181295    394.256817    7.800000      2008-04-16T18:28:14.99Z  
1828.5840   66515   43.5851  -70.0247  237.0    7.9    6.261      29.287     1024.7        207.423048    198.974600    397.794472    394.861311    7.800000      2008-04-16T18:28:35.04Z  
1828.9166   66535   43.5844  -70.0264  236.0    7.9    6.249      29.254     1024.7        206.472355    198.062586    397.141878    394.193034    7.800000      2008-04-16T18:28:55.00Z  
1829.2493   66555   43.5836  -70.0280  235.0    7.9    6.223      29.232     1024.7        205.719074    197.343357    nd            nd            7.800000      2008-04-16T18:29:14.96Z  
1829.5834   66575   43.5827  -70.0296  234.0    8.0    6.195      29.212     1024.6        204.685049    196.351706    397.445257    394.513590    7.800000      2008-04-16T18:29:35.00Z  
1829.9160   66595   43.5819  -70.0312  235.0    7.9    6.173      29.201     1024.7        203.843974    195.547943    nd            nd            7.800000      2008-04-16T18:29:54.96Z  
1830.2501   66615   43.5811  -70.0329  236.0    8.0    6.173      29.181     1024.6        202.683765    194.432557    397.373434    394.443055    7.800000      2008-04-16T18:30:15.01Z  
1830.5827   66635   43.5803  -70.0345  235.0    7.9    6.182      29.164     1024.6        201.731155    193.514987    397.513209    394.578640    7.800000      2008-04-16T18:30:34.96Z  
1830.9168   66655   43.5795  -70.0362  235.0    7.9    6.200      29.138     1024.6        200.815999    192.635916    397.568216    394.619164    7.800000      2008-04-16T18:30:55.01Z  
1831.2494   66675   43.5788  -70.0378  236.0    8.0    6.212      29.119     1024.6        199.851927    191.707818    397.555626    394.614777    7.800000      2008-04-16T18:31:14.96Z  
1831.5835   66695   43.5780  -70.0394  236.0    7.9    6.241      29.114     1024.6        198.876641    190.771244    397.873311    394.919596    7.800000      2008-04-16T18:31:35.01Z  
1831.9162   66715   43.5772  -70.0411  236.0    8.0    6.230      29.125     1024.6        198.138837    190.065269    397.935459    394.989114    7.800000      2008-04-16T18:31:54.97Z  
1832.2502   66735   43.5764  -70.0427  236.0    8.0    6.203      29.141     1024.6        197.490872    189.445197    nd            nd            7.800000      2008-04-16T18:32:15.01Z  
1832.5829   66755   43.5756  -70.0444  240.0    8.0    6.211      29.126     1024.6        196.702920    188.686169    397.824351    394.881724    7.800000      2008-04-16T18:32:34.97Z  
1832.9170   66775   43.5749  -70.0461  234.0    7.9    6.262      29.094     1024.6        196.303080    188.298166    nd            nd            7.800000      2008-04-16T18:32:55.02Z  
1833.2496   66795   43.5740  -70.0476  230.0    8.0    6.332      29.063     1024.6        196.024101    188.019078    398.141650    395.155170    7.800000      2008-04-16T18:33:14.98Z  
1833.5837   66815   43.5731  -70.0492  231.0    7.9    6.404      29.034     1024.6        195.941316    187.932192    397.824462    394.826466    7.800000      2008-04-16T18:33:35.02Z  
1833.9163   66835   43.5722  -70.0507  231.0    7.9    6.451      29.046     1024.6        195.910901    187.898218    nd            nd            7.800000      2008-04-16T18:33:54.98Z  
1834.2504   66855   43.5713  -70.0522  229.0    7.9    6.479      29.087     1024.6        196.138295    188.113267    nd            nd            7.800000      2008-04-16T18:34:15.02Z  
1834.5830   66875   43.5703  -70.0537  228.0    7.9    6.519      29.134     1024.6        196.250217    188.215191    nd            nd            7.800000      2008-04-16T18:34:34.98Z  
1834.9171   66895   43.5695  -70.0550  227.0    6.6    6.524      29.201     1024.7        196.619659    188.579984    nd            nd            7.800000      2008-04-16T18:34:55.03Z  
1835.2498   66915   43.5688  -70.0560  226.0    5.2    6.522      29.215     1024.7        197.144501    189.081379    nd            nd            7.800000      2008-04-16T18:35:14.99Z  
1835.5838   66935   43.5682  -70.0569  228.0    3.8    6.518      29.237     1024.7        197.592371    189.518757    nd            nd            7.800000      2008-04-16T18:35:35.03Z  
1835.9165   66955   43.5679  -70.0574  225.0    1.9    6.524      29.253     1024.7        197.756450    189.681189    nd            nd            7.800000      2008-04-16T18:35:54.99Z  
1836.2506   66975   43.5678  -70.0575  124.0    0.6    6.518      29.266     1024.7        197.847562    189.766531    nd            nd            7.800000      2008-04-16T18:36:15.04Z  
1836.5832   66995   43.5678  -70.0574  159.0    0.4    6.504      29.318     1024.7        198.203447    190.111093    nd            nd            7.800000      2008-04-16T18:36:34.99Z  
1836.9173   67015   43.5679  -70.0574  287.0    0.3    6.481      29.361     1024.7        198.417131    190.317286    nd            nd            7.800000      2008-04-16T18:36:55.04Z  
1837.2499   67035   43.5679  -70.0575  270.0    0.3    6.461      29.401     1024.7        198.376788    190.280775    nd            nd            7.800000      2008-04-16T18:37:14.99Z  
1837.5840   67055   43.5680  -70.0575  259.0    0.3    6.377      29.621     1024.7        198.490044    190.397463    nd            nd            7.800000      2008-04-16T18:37:35.04Z  
1837.9166   67075   43.5680  -70.0575  213.0    0.4    6.221      29.802     1024.7        199.096029    190.994870    nd            nd            7.800000      2008-04-16T18:37:55.00Z  
1838.2507   67095   43.5681  -70.0575  257.0    0.4    6.230      29.628     1024.7        200.942770    192.764272    nd            nd            7.800000      2008-04-16T18:38:15.04Z  
1838.5834   67115   43.5682  -70.0575  238.0    0.5    6.317      29.531     1024.7        201.654540    193.434860    nd            nd            7.800000      2008-04-16T18:38:35.00Z  
1838.9160   67135   43.5683  -70.0575  122.0    0.4    6.423      29.430     1024.7        201.420013    193.195494    nd            nd            7.800000      2008-04-16T18:38:54.96Z  
1839.2501   67155   43.5684  -70.0575  187.0    0.5    6.481      29.356     1024.7        201.077805    192.859706    nd            nd            7.800000      2008-04-16T18:39:15.01Z  
1839.5827   67175   43.5684  -70.0575  227.0    0.5    6.501      29.352     1024.7        200.565813    192.368072    nd            nd            7.800000      2008-04-16T18:39:34.96Z  
1839.9168   67195   43.5685  -70.0575  236.0    0.4    6.499      29.364     1024.7        200.039816    191.866592    nd            nd            7.800000      2008-04-16T18:39:55.01Z  
1840.2494   67215   43.5686  -70.0575  237.0    0.4    6.486      29.379     1024.7        199.479568    191.330836    nd            nd            7.800000      2008-04-16T18:40:14.96Z  
1840.5835   67235   43.5687  -70.0575  205.0    0.4    6.491      29.386     1024.7        199.173179    191.034942    nd            nd            7.800000      2008-04-16T18:40:35.01Z  
1840.9162   67255   43.5688  -70.0576  162.0    0.4    6.493      29.400     1024.7        199.179880    191.040404    nd            nd            7.800000      2008-04-16T18:40:54.97Z  
1841.2502   67275   43.5689  -70.0576  202.0    0.5    6.493      29.408     1024.7        199.287001    191.138926    nd            nd            7.800000      2008-04-16T18:41:15.01Z  
1841.5829   67295   43.5690  -70.0576  203.0    0.4    6.501      29.412     1024.7        199.451128    191.295182    nd            nd            7.800000      2008-04-16T18:41:34.97Z  
1841.9170   67315   43.5691  -70.0576  168.0    0.5    6.515      29.403     1024.6        199.567819    191.404602    nd            nd            7.800000      2008-04-16T18:41:55.02Z  
1842.2496   67335   43.5692  -70.0576  207.0    0.4    6.514      29.421     1024.6        199.734883    191.562793    nd            nd            7.800000      2008-04-16T18:42:14.98Z  
1842.5837   67355   43.5692  -70.0576  159.0    0.4    6.505      29.435     1024.6        199.924457    191.745284    nd            nd            7.800000      2008-04-16T18:42:35.02Z  
1842.9163   67375   43.5693  -70.0576  224.0    0.4    6.496      29.435     1024.6        200.170695    191.981398    nd            nd            7.800000      2008-04-16T18:42:54.98Z  
1843.2504   67395   43.5694  -70.0576  199.0    0.4    6.497      29.424     1024.6        200.120853    191.934950    nd            nd            7.800000      2008-04-16T18:43:15.02Z  
1843.5830   67415   43.5695  -70.0576  253.0    0.4    6.490      29.424     1024.7        200.120517    191.938073    nd            nd            7.800000      2008-04-16T18:43:34.98Z  
1843.9171   67435   43.5695  -70.0576  221.0    0.5    6.487      29.424     1024.7        200.191618    192.008915    nd            nd            7.800000      2008-04-16T18:43:55.03Z  
1844.2498   67455   43.5696  -70.0576  217.0    0.4    6.492      29.428     1024.6        199.993795    191.812500    nd            nd            7.800000      2008-04-16T18:44:14.99Z  
1844.5838   67475   43.5697  -70.0576  161.0    0.4    6.494      29.419     1024.6        200.041860    191.859237    nd            nd            7.800000      2008-04-16T18:44:35.03Z  
1844.9165   67495   43.5698  -70.0576  181.0    0.5    6.511      29.410     1024.6        200.020171    191.828408    nd            nd            7.800000      2008-04-16T18:44:54.99Z  
1845.2506   67515   43.5699  -70.0576  144.0    0.4    6.533      29.401     1024.6        199.990876    191.794763    nd            nd            7.800000      2008-04-16T18:45:15.04Z  
1845.5832   67535   43.5700  -70.0576  182.0    0.4    6.544      29.394     1024.6        200.148898    191.943886    nd            nd            7.800000      2008-04-16T18:45:34.99Z  
1845.9173   67555   43.5700  -70.0576  202.0    0.4    6.562      29.388     1024.6        200.239521    192.028919    nd            nd            7.800000      2008-04-16T18:45:55.04Z  
1846.2499   67575   43.5701  -70.0576  188.0    0.4    6.564      29.404     1024.6        200.309669    192.093974    nd            nd            7.800000      2008-04-16T18:46:14.99Z  
1846.5840   67595   43.5702  -70.0576  162.0    0.5    6.530      29.442     1024.6        200.421588    192.206280    nd            nd            7.800000      2008-04-16T18:46:35.04Z  
1846.9166   67615   43.5703  -70.0576  162.0    0.4    6.518      29.428     1024.6        200.660120    192.438452    nd            nd            7.800000      2008-04-16T18:46:55.00Z  
1847.2507   67635   43.5704  -70.0576  143.0    0.4    6.510      29.434     1024.6        200.601150    192.383068    nd            nd            7.800000      2008-04-16T18:47:15.04Z  
1847.5834   67655   43.5705  -70.0576  147.0    0.4    6.508      29.434     1024.6        200.470008    192.258135    nd            nd            7.800000      2008-04-16T18:47:35.00Z  
1847.9160   67675   43.5706  -70.0576  183.0    0.4    6.499      29.452     1024.6        200.377533    192.169315    nd            nd            7.800000      2008-04-16T18:47:54.96Z  
1848.2501   67695   43.5707  -70.0576  223.0    0.4    6.478      29.472     1024.6        200.312918    192.112387    nd            nd            7.800000      2008-04-16T18:48:15.01Z  
1848.5827   67715   43.5708  -70.0576  165.0    0.4    6.474      29.473     1024.6        200.501363    192.291774    nd            nd            7.800000      2008-04-16T18:48:34.96Z  
1848.9168   67735   43.5708  -70.0576  202.0    0.5    6.469      29.465     1024.6        200.688682    192.469652    nd            nd            7.800000      2008-04-16T18:48:55.01Z  
1849.2494   67755   43.5709  -70.0576  187.0    0.4    6.473      29.459     1024.6        200.608504    192.391250    nd            nd            7.800000      2008-04-16T18:49:14.96Z  
1849.5835   67775   43.5710  -70.0576  162.0    0.4    6.482      29.438     1024.6        200.803622    192.575825    nd            nd            7.800000      2008-04-16T18:49:35.01Z  
1849.9162   67795   43.5711  -70.0576  180.0    0.4    6.494      29.421     1024.5        200.688470    192.459957    nd            nd            7.800000      2008-04-16T18:49:54.97Z  
1850.2502   67815   43.5712  -70.0576  223.0    0.5    6.497      29.423     1024.5        200.659010    192.432669    nd            nd            7.800000      2008-04-16T18:50:15.01Z  
1850.5829   67835   43.5713  -70.0576  238.0    0.5    6.491      29.424     1024.5        200.487116    192.269852    nd            nd            7.800000      2008-04-16T18:50:34.97Z  
1850.9170   67855   43.5714  -70.0577  218.0    0.4    6.495      29.406     1024.6        200.456099    192.243126    nd            nd            7.800000      2008-04-16T18:50:55.02Z  
1851.2496   67875   43.5715  -70.0577  206.0    0.5    6.511      29.397     1024.6        200.276085    192.067331    nd            nd            7.800000      2008-04-16T18:51:14.98Z  
1851.5837   67895   43.5716  -70.0577  224.0    0.5    6.517      29.405     1024.6        200.110243    191.907954    nd            nd            7.800000      2008-04-16T18:51:35.02Z  
1851.9163   67915   43.5716  -70.0577  183.0    0.4    6.524      29.409     1024.6        200.009315    191.810331    nd            nd            7.800000      2008-04-16T18:51:54.98Z  
1852.2504   67935   43.5717  -70.0577  182.0    0.4    6.534      29.409     1024.6        200.031523    191.831152    nd            nd            7.800000      2008-04-16T18:52:15.02Z  
1852.5830   67955   43.5718  -70.0577  183.0    0.4    6.546      29.406     1024.5        200.123111    191.913789    nd            nd            7.800000      2008-04-16T18:52:34.98Z  
1852.9171   67975   43.5719  -70.0577  204.0    0.4    6.557      29.407     1024.5        200.226511    192.008428    nd            nd            7.800000      2008-04-16T18:52:55.03Z  
1853.2498   67995   43.5720  -70.0577  200.0    0.4    6.562      29.412     1024.5        200.422673    192.198505    nd            nd            7.800000      2008-04-16T18:53:14.99Z  
1853.5838   68015   43.5721  -70.0577  220.0    0.4    6.561      29.418     1024.5        200.613360    192.379821    nd            nd            7.800000      2008-04-16T18:53:35.03Z  
1853.9165   68035   43.5721  -70.0577  219.0    0.4    6.558      29.427     1024.6        200.774987    192.539551    nd            nd            7.800000      2008-04-16T18:53:54.99Z  
1854.2506   68055   43.5722  -70.0577  143.0    0.4    6.562      29.429     1024.6        200.891221    192.651538    nd            nd            7.800000      2008-04-16T18:54:15.04Z  
1854.5832   68075   43.5723  -70.0577  205.0    0.5    6.557      29.438     1024.5        201.058450    192.809817    nd            nd            7.800000      2008-04-16T18:54:34.99Z  
1854.9173   68095   43.5724  -70.0577  184.0    0.5    6.539      29.446     1024.5        201.158109    192.906838    nd            nd            7.800000      2008-04-16T18:54:55.04Z  
1855.2499   68115   43.5725  -70.0577  145.0    0.4    6.546      29.438     1024.5        201.238070    192.975806    nd            nd            7.800000      2008-04-16T18:55:14.99Z  
1855.5840   68135   43.5725  -70.0577  183.0    0.4    6.555      29.431     1024.5        201.134577    192.874209    nd            nd            7.800000      2008-04-16T18:55:35.04Z  
1855.9166   68155   43.5726  -70.0577  181.0    0.4    6.559      29.436     1024.5        200.933144    192.685923    nd            nd            7.800000      2008-04-16T18:55:55.00Z  
1856.2493   68175   43.5727  -70.0577  201.0    0.4    6.557      29.448     1024.5        201.024579    192.770609    nd            nd            7.800000      2008-04-16T18:56:14.96Z  
1856.5834   68195   43.5728  -70.0577  188.0    0.4    6.551      29.445     1024.5        201.152072    192.886491    nd            nd            7.800000      2008-04-16T18:56:35.00Z  
1856.9160   68215   43.5729  -70.0577  164.0    0.5    6.557      29.427     1024.5        201.156011    192.887540    nd            nd            7.800000      2008-04-16T18:56:54.96Z  
1857.2501   68235   43.5730  -70.0577  203.0    0.5    6.563      29.419     1024.5        201.159810    192.889123    nd            nd            7.800000      2008-04-16T18:57:15.01Z  
1857.5827   68255   43.5731  -70.0577  127.0    0.5    6.568      29.423     1024.4        200.988740    192.720989    nd            nd            7.800000      2008-04-16T18:57:34.96Z  
1857.9168   68275   43.5732  -70.0577  174.0    0.5    6.576      29.417     1024.4        201.020559    192.746913    nd            nd            7.800000      2008-04-16T18:57:55.01Z  
1858.2494   68295   43.5732  -70.0577  193.0    0.5    6.573      29.419     1024.4        200.992124    192.718405    nd            nd            7.800000      2008-04-16T18:58:14.96Z  
1858.5835   68315   43.5734  -70.0577  167.0    0.5    6.575      29.429     1024.4        200.961942    192.690441    nd            nd            7.800000      2008-04-16T18:58:35.01Z  
1858.9162   68335   43.5735  -70.0577  148.0    0.5    6.559      29.447     1024.4        201.122830    192.843901    nd            nd            7.800000      2008-04-16T18:58:54.97Z  
1859.2502   68355   43.5736  -70.0577  104.0    0.7    6.534      29.456     1024.4        201.296779    193.013722    nd            nd            7.800000      2008-04-16T18:59:15.01Z  
1859.5829   68375   43.5736  -70.0575  92.0     0.9    6.529      29.458     1024.4        201.309840    193.032731    nd            nd            7.800000      2008-04-16T18:59:34.97Z  
1859.9170   68395   43.5735  -70.0573  152.0    1.0    6.517      29.464     1024.4        201.180983    192.910802    nd            nd            7.855556      2008-04-16T18:59:55.02Z  
1900.2496   68415   43.5733  -70.0572  153.0    1.2    6.514      29.464     1024.4        201.181264    192.909785    nd            nd            8.000000      2008-04-16T19:00:14.98Z  
1900.5837   68435   43.5731  -70.0571  156.0    1.1    6.510      29.466     1024.4        201.366610    193.089058    nd            nd            8.000000      2008-04-16T19:00:35.02Z  
1900.9163   68455   43.5730  -70.0570  158.0    0.8    6.485      29.498     1024.4        201.549529    193.268332    nd            nd            8.000000      2008-04-16T19:00:54.98Z  
1901.2504   68475   43.5729  -70.0569  137.0    0.5    6.420      29.592     1024.4        201.759960    193.476223    nd            nd            8.000000      2008-04-16T19:01:15.02Z  
1901.5830   68495   43.5727  -70.0568  161.0    1.0    6.374      29.607     1024.4        202.207046    193.908610    nd            nd            8.000000      2008-04-16T19:01:34.98Z  
1901.9171   68515   43.5726  -70.0568  184.0    1.0    6.390      29.537     1024.4        202.691474    194.366759    nd            nd            8.000000      2008-04-16T19:01:55.03Z  
1902.2498   68535   43.5724  -70.0569  191.0    1.1    6.433      29.481     1024.4        202.592970    194.266156    nd            nd            8.000000      2008-04-16T19:02:14.99Z  
1902.5838   68555   43.5721  -70.0569  178.0    1.5    6.461      29.473     1024.4        202.178602    193.866394    nd            nd            8.000000      2008-04-16T19:02:35.03Z  
1902.9165   68575   43.5719  -70.0568  171.0    1.6    6.467      29.483     1024.4        201.960518    193.656045    nd            nd            8.000000      2008-04-16T19:02:54.99Z  
1903.2506   68595   43.5716  -70.0568  165.0    1.1    6.465      29.492     1024.4        201.755532    193.460085    nd            nd            8.000000      2008-04-16T19:03:15.04Z  
1903.5832   68615   43.5715  -70.0567  178.0    0.4    6.468      29.487     1024.4        201.713302    193.415017    nd            nd            8.000000      2008-04-16T19:03:34.99Z  
1903.9173   68635   43.5714  -70.0568  214.0    0.9    6.476      29.485     1024.3        201.598769    193.299790    nd            nd            8.000000      2008-04-16T19:03:55.04Z  
1904.2499   68655   43.5712  -70.0570  202.0    1.1    6.491      29.473     1024.3        201.486725    193.190480    nd            nd            8.000000      2008-04-16T19:04:14.99Z  
1904.5840   68675   43.5710  -70.0570  200.0    1.3    6.510      29.455     1024.3        201.446723    193.146935    nd            nd            8.000000      2008-04-16T19:04:35.04Z  
1904.9166   68695   43.5708  -70.0572  207.0    1.1    6.506      29.469     1024.3        201.316844    193.020780    nd            nd            8.000000      2008-04-16T19:04:55.00Z  
1905.2493   68715   43.5707  -70.0573  206.0    1.0    6.497      29.474     1024.3        201.373669    193.078553    nd            nd            8.000000      2008-04-16T19:05:14.96Z  
1905.5834   68735   43.5705  -70.0574  215.0    0.8    6.490      29.472     1024.3        201.279078    192.986304    nd            nd            8.000000      2008-04-16T19:05:35.00Z  
1905.9160   68755   43.5704  -70.0575  216.0    0.9    6.484      29.488     1024.3        201.315009    193.021014    nd            nd            8.000000      2008-04-16T19:05:54.96Z  
1906.2501   68775   43.5703  -70.0577  212.0    1.0    6.472      29.496     1024.3        201.244949    192.954599    nd            nd            8.000000      2008-04-16T19:06:15.01Z  
1906.5827   68795   43.5701  -70.0578  215.0    0.8    6.455      29.506     1024.3        201.331467    193.039889    nd            nd            8.000000      2008-04-16T19:06:34.96Z  
1906.9168   68815   43.5700  -70.0579  211.0    0.6    6.449      29.511     1024.3        201.359014    193.067567    nd            nd            8.000000      2008-04-16T19:06:55.01Z  
1907.2494   68835   43.5700  -70.0579  221.0    0.1    6.453      29.514     1024.3        201.325416    193.039255    nd            nd            8.000000      2008-04-16T19:07:14.96Z  
1907.5835   68855   43.5698  -70.0579  165.0    2.0    6.441      29.534     1024.3        201.379074    193.085353    nd            nd            8.000000      2008-04-16T19:07:35.01Z  
1907.9162   68875   43.5693  -70.0576  159.0    3.3    6.447      29.524     1024.3        201.449714    193.153135    nd            nd            8.000000      2008-04-16T19:07:54.97Z  
1908.2502   68895   43.5688  -70.0573  163.0    3.3    6.437      29.512     1024.3        201.599578    193.298306    nd            nd            8.000000      2008-04-16T19:08:15.01Z  
1908.5829   68915   43.5682  -70.0571  166.0    3.2    6.422      29.515     1024.3        201.484710    193.191490    nd            nd            8.000000      2008-04-16T19:08:34.97Z  
1908.9170   68935   43.5677  -70.0570  164.0    2.3    6.421      29.495     1024.3        201.374043    193.087504    nd            nd            8.000000      2008-04-16T19:08:55.02Z  
1909.2496   68955   43.5675  -70.0568  107.0    0.9    6.423      29.495     1024.3        201.300376    193.010622    nd            nd            8.000000      2008-04-16T19:09:14.98Z  
1909.5837   68975   43.5676  -70.0566  58.0     0.6    6.416      29.501     1024.3        201.115276    192.835408    nd            nd            8.000000      2008-04-16T19:09:35.02Z  
1909.9163   68995   43.5676  -70.0565  44.0     0.6    6.405      29.505     1024.3        201.113608    192.836694    nd            nd            8.000000      2008-04-16T19:09:54.98Z  
1910.2504   69015   43.5677  -70.0565  34.0     0.5    6.403      29.507     1024.3        201.123049    192.844951    nd            nd            8.000000      2008-04-16T19:10:15.02Z  
1910.5830   69035   43.5678  -70.0564  43.0     0.5    6.403      29.516     1024.3        201.013130    192.739298    nd            nd            8.000000      2008-04-16T19:10:34.98Z  
1910.9171   69055   43.5679  -70.0564  81.0     0.6    6.395      29.526     1024.3        200.849079    192.583439    nd            nd            8.000000      2008-04-16T19:10:55.03Z  
1911.2498   69075   43.5680  -70.0564  52.0     0.5    6.400      29.522     1024.3        200.929467    192.659584    nd            nd            8.000000      2008-04-16T19:11:14.99Z  
1911.5838   69095   43.5681  -70.0563  98.0     0.4    6.400      29.516     1024.3        200.884095    192.617529    nd            nd            8.000000      2008-04-16T19:11:35.03Z  
1911.9165   69115   43.5682  -70.0563  157.0    0.5    6.405      29.513     1024.3        200.638447    192.380443    nd            nd            8.000000      2008-04-16T19:11:54.99Z  
1912.2506   69135   43.5683  -70.0563  132.0    0.4    6.418      29.511     1024.3        200.679287    192.416216    nd            nd            8.000000      2008-04-16T19:12:15.04Z  
1912.5832   69155   43.5683  -70.0563  191.0    0.5    6.428      29.515     1024.3        200.486879    192.228385    nd            nd            8.000000      2008-04-16T19:12:34.99Z  
1912.9173   69175   43.5684  -70.0563  89.0     0.4    6.439      29.520     1024.3        200.504901    192.244617    nd            nd            8.000000      2008-04-16T19:12:55.04Z  
1913.2499   69195   43.5685  -70.0563  131.0    0.4    6.443      29.523     1024.3        200.644327    192.375508    nd            nd            8.000000      2008-04-16T19:13:14.99Z  
1913.5840   69215   43.5686  -70.0563  138.0    0.5    6.433      29.539     1024.3        200.670577    192.401066    nd            nd            8.000000      2008-04-16T19:13:35.04Z  
1913.9166   69235   43.5687  -70.0563  152.0    0.4    6.426      29.546     1024.3        200.716472    192.442744    nd            nd            8.000000      2008-04-16T19:13:55.00Z  
1914.2493   69255   43.5688  -70.0563  167.0    0.5    6.426      29.553     1024.3        201.121533    192.831499    nd            nd            8.000000      2008-04-16T19:14:14.96Z  
1914.5834   69275   43.5689  -70.0563  143.0    0.5    6.407      29.571     1024.3        201.429464    193.128254    nd            nd            8.000000      2008-04-16T19:14:35.00Z  
1914.9160   69295   43.5689  -70.0563  147.0    0.4    6.400      29.545     1024.2        201.703253    193.390453    nd            nd            8.000000      2008-04-16T19:14:54.96Z  
1915.2501   69315   43.5690  -70.0563  151.0    0.4    6.413      29.525     1024.2        201.716940    193.401586    nd            nd            8.000000      2008-04-16T19:15:15.01Z  
1915.5827   69335   43.5691  -70.0563  110.0    0.4    6.422      29.519     1024.3        201.569218    193.260469    nd            nd            8.000000      2008-04-16T19:15:34.96Z  
1915.9168   69355   43.5692  -70.0563  153.0    0.4    6.430      29.514     1024.3        201.253377    192.956787    nd            nd            8.000000      2008-04-16T19:15:55.01Z  
1916.2494   69375   43.5693  -70.0563  174.0    0.5    6.439      29.507     1024.3        201.130835    192.841272    nd            nd            8.000000      2008-04-16T19:16:14.96Z  
1916.5835   69395   43.5694  -70.0563  201.0    0.5    6.450      29.505     1024.3        201.042583    192.754438    nd            nd            8.000000      2008-04-16T19:16:35.01Z  
1916.9162   69415   43.5695  -70.0563  146.0    0.4    6.454      29.504     1024.3        200.919802    192.642890    nd            nd            8.000000      2008-04-16T19:16:54.97Z  
1917.2502   69435   43.5695  -70.0563  146.0    0.4    6.471      29.507     1024.3        200.915381    192.643319    nd            nd            8.000000      2008-04-16T19:17:15.01Z  
1917.5829   69455   43.5696  -70.0563  108.0    0.3    6.502      29.512     1024.3        201.006497    192.727752    nd            nd            8.000000      2008-04-16T19:17:34.97Z  
1917.9170   69475   43.5697  -70.0562  32.0     0.5    6.513      29.512     1024.3        201.041304    192.755515    nd            nd            8.000000      2008-04-16T19:17:55.02Z  
1918.2496   69495   43.5698  -70.0562  41.0     0.5    6.504      29.513     1024.3        201.052753    192.755291    nd            nd            8.000000      2008-04-16T19:18:14.98Z  
1918.5837   69515   43.5699  -70.0562  64.0     0.5    6.486      29.512     1024.2        200.947892    192.643176    nd            nd            8.000000      2008-04-16T19:18:35.02Z  
1918.9163   69535   43.5700  -70.0561  74.0     0.5    6.467      29.510     1024.2        201.134324    192.824867    nd            nd            8.000000      2008-04-16T19:18:54.98Z  
1919.2504   69555   43.5701  -70.0561  31.0     0.5    6.444      29.511     1024.2        201.305998    192.992805    nd            nd            8.000000      2008-04-16T19:19:15.02Z  
1919.5830   69575   43.5702  -70.0561  108.0    0.5    6.434      29.509     1024.2        201.415412    193.097986    nd            nd            8.000000      2008-04-16T19:19:34.98Z  
1919.9171   69595   43.5703  -70.0561  112.0    0.5    6.419      29.506     1024.2        201.364482    193.050471    nd            nd            8.000000      2008-04-16T19:19:55.03Z  
1920.2498   69615   43.5703  -70.0561  66.0     0.4    6.409      29.503     1024.2        201.199595    192.894865    nd            nd            8.000000      2008-04-16T19:20:14.99Z  
1920.5838   69635   43.5704  -70.0561  108.0    0.4    6.414      29.502     1024.2        200.874558    192.587257    nd            nd            8.000000      2008-04-16T19:20:35.03Z  
1920.9165   69655   43.5705  -70.0560  183.0    0.4    6.430      29.503     1024.2        200.670552    192.394054    nd            nd            8.000000      2008-04-16T19:20:54.99Z  
1921.2506   69675   43.5706  -70.0560  181.0    0.4    6.451      29.507     1024.3        200.543204    192.278539    nd            nd            8.000000      2008-04-16T19:21:15.04Z  
1921.5832   69695   43.5706  -70.0560  170.0    0.4    6.490      29.512     1024.3        200.477975    192.208130    nd            nd            8.000000      2008-04-16T19:21:34.99Z  
1921.9173   69715   43.5707  -70.0560  128.0    0.5    6.525      29.517     1024.2        200.768537    192.480094    nd            nd            8.000000      2008-04-16T19:21:55.04Z  
1922.2499   69735   43.5708  -70.0560  73.0     0.5    6.537      29.516     1024.2        200.897431    192.586966    nd            nd            8.000000      2008-04-16T19:22:14.99Z  
1922.5840   69755   43.5709  -70.0560  59.0     0.5    6.535      29.518     1024.1        201.097803    192.767454    nd            nd            8.000000      2008-04-16T19:22:35.04Z  
1922.9166   69775   43.5710  -70.0560  106.0    0.5    6.527      29.526     1024.1        201.263709    192.924355    nd            nd            8.000000      2008-04-16T19:22:55.00Z  
1923.2507   69795   43.5711  -70.0559  178.0    0.6    6.506      29.535     1024.1        201.742353    193.385681    nd            nd            8.000000      2008-04-16T19:23:15.04Z  
1923.5834   69815   43.5712  -70.0559  158.0    0.6    6.487      29.544     1024.1        202.153471    193.780433    nd            nd            8.000000      2008-04-16T19:23:35.00Z  
1923.9160   69835   43.5713  -70.0559  178.0    0.6    6.469      29.548     1024.1        202.386490    194.003656    nd            nd            8.000000      2008-04-16T19:23:54.96Z  
1924.2501   69855   43.5714  -70.0559  150.0    0.5    6.460      29.548     1024.1        202.335875    193.954981    nd            nd            8.000000      2008-04-16T19:24:15.01Z  
1924.5827   69875   43.5715  -70.0559  151.0    0.5    6.463      29.545     1024.0        202.319991    193.935544    nd            nd            8.000000      2008-04-16T19:24:34.96Z  
1924.9168   69895   43.5716  -70.0559  168.0    0.4    6.466      29.552     1024.0        202.298536    193.913285    nd            nd            8.000000      2008-04-16T19:24:55.01Z  
1925.2494   69915   43.5717  -70.0559  231.0    0.5    6.471      29.559     1024.0        202.271284    193.885231    nd            nd            8.000000      2008-04-16T19:25:14.96Z  
1925.5835   69935   43.5718  -70.0559  204.0    0.4    6.472      29.565     1024.0        202.212438    193.827131    nd            nd            8.000000      2008-04-16T19:25:35.01Z  
1925.9162   69955   43.5719  -70.0559  228.0    0.5    6.471      29.573     1024.0        202.260680    193.871647    nd            nd            8.000000      2008-04-16T19:25:54.97Z  
1926.2502   69975   43.5719  -70.0559  238.0    0.6    6.468      29.583     1024.0        202.356905    193.961661    nd            nd            8.000000      2008-04-16T19:26:15.01Z  
1926.5829   69995   43.5720  -70.0559  258.0    0.5    6.469      29.591     1024.0        202.597313    194.187767    nd            nd            8.000000      2008-04-16T19:26:34.97Z  
1926.9170   70015   43.5721  -70.0560  215.0    0.5    6.467      29.585     1024.0        202.785177    194.367889    nd            nd            8.000000      2008-04-16T19:26:55.02Z  
1927.2496   70035   43.5722  -70.0560  230.0    0.5    6.437      29.614     1024.0        202.971819    194.553153    nd            nd            8.000000      2008-04-16T19:27:14.98Z  
1927.5837   70055   43.5723  -70.0560  226.0    0.4    6.415      29.624     1024.0        203.122902    194.699796    nd            nd            8.000000      2008-04-16T19:27:35.02Z  
1927.9163   70075   43.5724  -70.0559  73.0     1.6    6.416      29.616     1024.0        203.224342    194.793110    nd            nd            8.000000      2008-04-16T19:27:54.98Z  
1928.2504   70095   43.5723  -70.0555  157.0    2.6    6.429      29.612     1023.9        203.357589    194.909020    nd            nd            8.000000      2008-04-16T19:28:15.02Z  
1928.5830   70115   43.5718  -70.0558  216.0    4.1    6.432      29.615     1023.9        203.396010    194.937058    nd            nd            8.000000      2008-04-16T19:28:34.98Z  
1928.9171   70135   43.5712  -70.0565  217.0    4.5    6.425      29.613     1023.9        203.374001    194.915898    nd            nd            8.000000      2008-04-16T19:28:55.03Z  
1929.2498   70155   43.5428  -70.0572  213.0    5.8    6.403      29.622     1023.8        204.099149    195.608324    nd            nd            8.000000      2008-04-16T19:29:14.99Z  
1929.5838   70175   43.5695  -70.0581  213.0    6.5    6.389      29.649     1023.8        204.210816    195.714463    nd            nd            8.000000      2008-04-16T19:29:35.03Z  
1929.9165   70195   43.5685  -70.0590  214.0    6.8    6.370      29.705     1023.8        204.410858    195.907952    nd            nd            8.000000      2008-04-16T19:29:54.99Z  
1930.2506   70215   43.5674  -70.0600  215.0    7.4    6.352      29.768     1023.8        204.733341    196.210820    nd            nd            8.000000      2008-04-16T19:30:15.04Z  
1930.5832   70235   43.5663  -70.0611  214.0    7.8    6.341      29.814     1023.7        205.264985    196.717998    nd            nd            8.000000      2008-04-16T19:30:34.99Z  
1930.9173   70255   43.5651  -70.0622  214.0    7.9    6.352      29.830     1023.7        206.275032    197.682837    nd            nd            8.000000      2008-04-16T19:30:55.04Z  
1931.2499   70275   43.5640  -70.0634  215.0    7.9    6.365      29.845     1023.7        207.062572    198.434751    nd            nd            8.000000      2008-04-16T19:31:14.99Z  
1931.5840   70295   43.5628  -70.0645  217.0    7.9    6.379      29.837     1023.7        207.628315    198.976464    nd            nd            8.000000      2008-04-16T19:31:35.04Z  
1931.9166   70315   43.5617  -70.0657  216.0    7.8    6.393      29.826     1023.7        208.152979    199.475997    nd            nd            8.000000      2008-04-16T19:31:55.00Z  
1932.2507   70335   43.5606  -70.0668  215.0    7.9    6.400      29.840     1023.7        208.418897    199.731113    nd            nd            8.000000      2008-04-16T19:32:15.04Z  
1932.5834   70355   43.5594  -70.0680  215.0    7.9    6.381      29.893     1023.7        208.821679    200.119502    nd            nd            8.000000      2008-04-16T19:32:35.00Z  
1932.9160   70375   43.5582  -70.0691  214.0    7.9    6.353      29.948     1023.7        209.129594    200.416021    nd            nd            8.000000      2008-04-16T19:32:54.96Z  
1933.2501   70395   43.5571  -70.0702  215.0    7.9    6.311      29.999     1023.7        209.637510    200.903884    396.168434    392.860881    8.000000      2008-04-16T19:33:15.01Z  
1933.5827   70415   43.5559  -70.0714  216.0    7.9    6.279      30.045     1023.7        210.261362    201.505568    nd            nd            8.000000      2008-04-16T19:33:34.96Z  
1933.9168   70435   43.5548  -70.0725  215.0    7.8    6.253      30.093     1023.7        210.835551    202.058424    nd            nd            8.000000      2008-04-16T19:33:55.01Z  
1934.2494   70455   43.5536  -70.0737  214.0    7.9    6.214      30.147     1023.7        211.552419    202.751156    nd            nd            8.000000      2008-04-16T19:34:14.96Z  
1934.5835   70475   43.5524  -70.0748  214.0    7.9    6.188      30.182     1023.7        212.389154    203.553008    nd            nd            8.000000      2008-04-16T19:34:35.01Z  
1934.9162   70495   43.5513  -70.0759  214.0    7.9    6.169      30.211     1023.7        213.179470    204.310893    nd            nd            8.000000      2008-04-16T19:34:54.97Z  
1935.2502   70515   43.5501  -70.0770  215.0    7.9    6.150      30.241     1023.7        213.884325    204.986879    nd            nd            8.000000      2008-04-16T19:35:15.01Z  
1935.5829   70535   43.5489  -70.0782  214.0    7.9    6.126      30.271     1023.7        214.484737    205.562657    nd            nd            8.000000      2008-04-16T19:35:34.97Z  
1935.9170   70555   43.5478  -70.0793  214.0    7.9    6.107      30.297     1023.7        215.198821    206.249891    nd            nd            8.000000      2008-04-16T19:35:55.02Z  
1936.2496   70575   43.5466  -70.0804  215.0    8.0    6.095      30.327     1023.7        215.728196    206.759278    nd            nd            8.000000      2008-04-16T19:36:14.98Z  
1936.5837   70595   43.5454  -70.0816  214.0    7.9    6.114      30.309     1023.7        216.243209    207.252898    nd            nd            8.000000      2008-04-16T19:36:35.02Z  
1936.9163   70615   43.5442  -70.0827  214.0    7.9    6.139      30.298     1023.7        216.767675    207.749831    nd            nd            8.000000      2008-04-16T19:36:54.98Z  
1937.2504   70635   43.5431  -70.0838  215.0    7.9    6.153      30.288     1023.7        217.032463    208.001012    nd            nd            8.000000      2008-04-16T19:37:15.02Z  
1937.5830   70655   43.5419  -70.0849  214.0    7.9    6.157      30.298     1023.7        217.189129    208.153316    nd            nd            8.000000      2008-04-16T19:37:34.98Z  
1937.9171   70675   43.5407  -70.0861  214.0    8.0    6.160      30.310     1023.7        217.447315    208.397388    396.220360    392.927766    8.000000      2008-04-16T19:37:55.03Z  
1938.2498   70695   43.5395  -70.0872  214.0    8.0    6.163      30.333     1023.7        217.579720    208.525240    395.989298    392.704513    8.000000      2008-04-16T19:38:14.99Z  
1938.5838   70715   43.5383  -70.0883  214.0    8.1    6.143      30.370     1023.6        217.956654    208.885736    396.080287    392.793497    8.000000      2008-04-16T19:38:35.03Z  
1938.9165   70735   43.5371  -70.0895  214.0    8.1    6.152      30.369     1023.6        218.291252    209.205376    395.949402    392.660879    8.000000      2008-04-16T19:38:54.99Z  
1939.2506   70755   43.5360  -70.0906  215.0    8.0    6.150      30.383     1023.6        218.629707    209.530728    nd            nd            8.000000      2008-04-16T19:39:15.04Z  
1939.5832   70775   43.5348  -70.0918  213.0    8.1    6.128      30.417     1023.7        218.881817    209.776456    395.906803    392.631887    8.000000      2008-04-16T19:39:34.99Z  
1939.9173   70795   43.5335  -70.0929  214.0    8.1    6.085      30.453     1023.6        219.124650    210.011953    396.055865    392.781823    8.000000      2008-04-16T19:39:55.04Z  
1940.2499   70815   43.5323  -70.0940  213.0    8.0    6.059      30.458     1023.6        219.505842    210.381834    396.209407    392.943241    8.000000      2008-04-16T19:40:14.99Z  
1940.5840   70835   43.5312  -70.0951  214.0    8.0    6.032      30.465     1023.6        219.886784    210.750037    nd            nd            8.000000      2008-04-16T19:40:35.04Z  
1940.9166   70855   43.5300  -70.0963  215.0    8.0    6.046      30.419     1023.6        220.257237    211.103214    396.319434    393.048716    8.000000      2008-04-16T19:40:55.00Z  
1941.2493   70875   43.5288  -70.0974  214.0    7.9    6.107      30.371     1023.6        220.122282    210.966699    396.010878    392.737094    8.000000      2008-04-16T19:41:14.96Z  
1941.5834   70895   43.5276  -70.0986  215.0    8.0    6.141      30.365     1023.6        219.832853    210.683684    nd            nd            8.000000      2008-04-16T19:41:35.00Z  
1941.9160   70915   43.5264  -70.0997  214.0    8.0    6.165      30.367     1023.6        219.487499    210.346927    nd            nd            8.000000      2008-04-16T19:41:54.96Z  
1942.2501   70935   43.5252  -70.1008  214.0    8.0    6.159      30.386     1023.6        219.326937    210.190853    396.229023    392.918704    8.000000      2008-04-16T19:42:15.01Z  
1942.5827   70955   43.5240  -70.1019  213.0    8.1    6.142      30.410     1023.6        219.220536    210.092969    396.115531    392.821696    8.000000      2008-04-16T19:42:34.96Z  
1942.9168   70975   43.5228  -70.1031  214.0    8.1    6.144      30.417     1023.6        219.504193    210.364255    396.149743    392.853615    8.000000      2008-04-16T19:42:55.01Z  
1943.2494   70995   43.5216  -70.1042  214.0    8.0    6.162      30.413     1023.6        219.897535    210.739342    396.214360    392.915266    8.000000      2008-04-16T19:43:14.96Z  
1943.5835   71015   43.5205  -70.1053  212.0    8.0    6.188      30.395     1023.6        220.491146    211.305163    nd            nd            8.000000      2008-04-16T19:43:35.01Z  
1943.9162   71035   43.5193  -70.1064  215.0    8.0    6.264      30.309     1023.6        221.182778    211.957239    nd            nd            8.000000      2008-04-16T19:43:54.97Z  
1944.2502   71055   43.5181  -70.1075  213.0    8.0    6.449      30.097     1023.6        221.490295    212.223860    396.142871    392.771083    8.000000      2008-04-16T19:44:15.01Z  
1944.5829   71075   43.5169  -70.1086  213.0    8.0    6.599      29.973     1023.6        220.846378    211.589381    396.328747    392.931684    8.000000      2008-04-16T19:44:34.97Z  
1944.9170   71095   43.5157  -70.1097  214.0    8.0    6.673      29.876     1023.6        220.235359    210.991475    395.989689    392.561133    8.000000      2008-04-16T19:44:55.02Z  
1945.2496   71115   43.5145  -70.1108  213.0    7.9    6.708      29.810     1023.6        219.253000    210.047613    395.891957    392.467927    8.000000      2008-04-16T19:45:14.98Z  
1945.5837   71135   43.5133  -70.1119  213.0    7.9    6.730      29.732     1023.6        218.005543    208.848603    nd            nd            8.000000      2008-04-16T19:45:35.02Z  
1945.9163   71155   43.5121  -70.1130  215.0    7.9    6.728      29.672     1023.6        216.866154    207.755388    396.013033    392.575139    8.000000      2008-04-16T19:45:54.98Z  
1946.2504   71175   43.5110  -70.1142  214.0    7.9    6.759      29.496     1023.6        215.602523    206.538792    396.108487    392.646930    8.000000      2008-04-16T19:46:15.02Z  
1946.5830   71195   43.5098  -70.1153  214.0    7.9    6.776      29.392     1023.6        213.918981    204.919258    nd            nd            8.000000      2008-04-16T19:46:34.98Z  
1946.9171   71215   43.5086  -70.1164  214.0    8.0    6.758      29.318     1023.6        211.681432    202.780827    396.113737    392.664178    8.000000      2008-04-16T19:46:55.03Z  
1947.2498   71235   43.5074  -70.1175  212.0    8.0    6.766      29.203     1023.6        209.876000    201.049257    395.958033    392.500658    8.000000      2008-04-16T19:47:14.99Z  
1947.5838   71255   43.5061  -70.1185  209.0    8.0    6.769      29.146     1023.6        207.627458    198.894486    396.115635    392.652686    8.000000      2008-04-16T19:47:35.03Z  
1947.9165   71275   43.5049  -70.1195  209.0    8.0    6.766      29.089     1023.6        205.634204    196.981970    396.184737    392.713200    8.000000      2008-04-16T19:47:54.99Z  
1948.2506   71295   43.5036  -70.1205  210.0    8.0    6.760      29.007     1023.6        204.030003    195.444211    396.182420    392.710022    8.000000      2008-04-16T19:48:15.04Z  
1948.5832   71315   43.5024  -70.1216  216.0    7.9    6.765      28.862     1023.6        202.357695    193.843178    nd            nd            8.000000      2008-04-16T19:48:34.99Z  
1948.9173   71335   43.5013  -70.1228  218.0    7.9    6.771      28.746     1023.6        200.415678    191.980105    nd            nd            8.000000      2008-04-16T19:48:55.04Z  
1949.2499   71355   43.5002  -70.1240  219.0    7.9    6.762      28.652     1023.6        198.237798    189.898678    nd            nd            8.000000      2008-04-16T19:49:14.99Z  
1949.5840   71375   43.4991  -70.1253  218.0    7.9    6.754      28.562     1023.6        196.331786    188.071593    396.052767    392.589615    8.000000      2008-04-16T19:49:35.04Z  
1949.9166   71395   43.4980  -70.1265  218.0    7.9    6.739      28.478     1023.6        194.141176    185.977070    nd            nd            8.000000      2008-04-16T19:49:55.00Z  
1950.2493   71415   43.4969  -70.1277  217.0    7.9    6.719      28.423     1023.6        192.136212    184.059171    396.298309    392.835808    8.000000      2008-04-16T19:50:14.96Z  
1950.5834   71435   43.4957  -70.1289  217.0    7.9    6.697      28.377     1023.6        190.230218    182.236111    nd            nd            8.000000      2008-04-16T19:50:35.00Z  
1950.9160   71455   43.4946  -70.1300  217.0    7.9    6.675      28.340     1023.5        188.418959    180.498394    396.709225    393.246839    8.000000      2008-04-16T19:50:54.96Z  
1951.2501   71475   43.4935  -70.1312  217.0    7.9    6.653      28.293     1023.6        186.820218    178.972444    nd            nd            8.000000      2008-04-16T19:51:15.01Z  
1951.5827   71495   43.4924  -70.1324  218.0    7.9    6.641      28.242     1023.6        185.213318    177.432981    396.175962    392.742998    8.000000      2008-04-16T19:51:34.96Z  
1951.9168   71515   43.4912  -70.1337  218.0    7.9    6.636      28.206     1023.6        183.899588    176.173802    396.065934    392.639173    8.000000      2008-04-16T19:51:55.01Z  
1952.2494   71535   43.4901  -70.1349  218.0    7.9    6.638      28.163     1023.6        182.509177    174.843595    396.380396    392.942728    8.000000      2008-04-16T19:52:14.96Z  
1952.5835   71555   43.4890  -70.1361  217.0    8.0    6.647      28.143     1023.6        181.298931    173.684345    396.221195    392.779546    8.000000      2008-04-16T19:52:35.01Z  
1952.9162   71575   43.4879  -70.1373  217.0    7.9    6.646      28.135     1023.6        180.185669    172.619540    396.512426    393.079745    8.000000      2008-04-16T19:52:54.97Z  
1953.2502   71595   43.4867  -70.1385  216.0    7.9    6.668      28.100     1023.6        179.153747    171.626287    396.195794    392.750649    8.000000      2008-04-16T19:53:15.01Z  
1953.5829   71615   43.4856  -70.1397  217.0    7.9    6.703      28.058     1023.6        178.334809    170.840242    396.368420    392.928439    8.000000      2008-04-16T19:53:34.97Z  
1953.9170   71635   43.4844  -70.1409  218.0    7.9    6.721      28.005     1023.6        177.557885    170.089935    396.175435    392.717103    8.000000      2008-04-16T19:53:55.02Z  
1954.2496   71655   43.4833  -70.1421  215.0    8.0    6.718      27.963     1023.6        176.626302    169.199328    396.363573    392.905812    8.000000      2008-04-16T19:54:14.98Z  
1954.5837   71675   43.4821  -70.1433  216.0    8.0    6.710      27.943     1023.6        175.577302    168.193505    396.320132    392.857810    8.000000      2008-04-16T19:54:35.02Z  
1954.9163   71695   43.4810  -70.1445  216.0    8.0    6.707      27.921     1023.6        174.709631    167.364180    396.240272    392.783622    8.000000      2008-04-16T19:54:54.98Z  
1955.2504   71715   43.4798  -70.1456  216.0    8.0    6.699      27.898     1023.6        173.861084    166.551832    396.367639    392.911979    8.000000      2008-04-16T19:55:15.02Z  
1955.5830   71735   43.4786  -70.1468  216.0    8.0    6.683      27.876     1023.6        173.193837    165.916716    396.382494    392.935241    8.000000      2008-04-16T19:55:34.98Z  
1955.9171   71755   43.4775  -70.1480  215.0    8.0    6.670      27.866     1023.6        172.584021    165.335238    396.223300    392.780101    8.000000      2008-04-16T19:55:55.03Z  
1956.2498   71775   43.4763  -70.1492  217.0    8.0    6.666      27.854     1023.6        172.253847    165.017958    396.319028    392.876220    8.000000      2008-04-16T19:56:14.99Z  
1956.5838   71795   43.4751  -70.1504  216.0    8.1    6.673      27.841     1023.6        172.053177    164.821770    396.205314    392.753725    8.000000      2008-04-16T19:56:35.03Z  
1956.9165   71815   43.4740  -70.1515  215.0    8.1    6.682      27.825     1023.6        171.720428    164.501574    396.230628    392.774984    8.000000      2008-04-16T19:56:54.99Z  
1957.2506   71835   43.4728  -70.1527  217.0    8.1    6.689      27.807     1023.6        171.565417    164.352191    396.212310    392.760008    8.000000      2008-04-16T19:57:15.04Z  
1957.5832   71855   43.4716  -70.1539  217.0    8.0    6.687      27.794     1023.6        171.427464    164.221019    396.510798    393.054250    8.000000      2008-04-16T19:57:34.99Z  
1957.9173   71875   43.4705  -70.1551  216.0    8.0    6.676      27.791     1023.6        171.274902    164.076215    396.226048    392.774578    8.000000      2008-04-16T19:57:55.04Z  
1958.2499   71895   43.4693  -70.1563  217.0    7.9    6.669      27.781     1023.6        171.103259    163.910791    396.580511    393.125278    8.000000      2008-04-16T19:58:14.99Z  
1958.5840   71915   43.4682  -70.1575  216.0    8.0    6.661      27.768     1023.6        170.924852    163.741281    396.308012    392.855995    8.000000      2008-04-16T19:58:35.04Z  
1958.9166   71935   43.4670  -70.1587  216.0    8.0    6.655      27.763     1023.6        170.865396    163.684849    396.367360    392.915771    8.000000      2008-04-16T19:58:55.00Z  
1959.2493   71955   43.4658  -70.1599  216.0    8.0    6.650      27.760     1023.5        170.681253    163.507245    396.331034    392.879926    8.000000      2008-04-16T19:59:14.96Z  
1959.5834   71975   43.4647  -70.1610  215.0    8.0    6.646      27.753     1023.5        170.596828    163.427775    396.563785    393.114166    8.000000      2008-04-16T19:59:35.00Z  
1959.9160   71995   43.4635  -70.1622  215.0    8.0    6.641      27.744     1023.6        170.629051    163.461277    396.375770    392.930384    8.027778      2008-04-16T19:59:54.96Z  
2000.2501   72015   43.4623  -70.1633  215.0    8.0    6.653      27.733     1023.6        170.468066    163.305057    396.540215    393.092196    8.100000      2008-04-16T20:00:15.01Z  
2000.5827   72035   43.4611  -70.1645  217.0    8.0    6.678      27.716     1023.6        170.490453    163.325873    396.513214    393.064346    8.100000      2008-04-16T20:00:34.96Z  
2000.9168   72055   43.4600  -70.1658  217.0    8.0    6.672      27.710     1023.6        170.590614    163.422207    396.453587    392.997328    8.100000      2008-04-16T20:00:55.01Z  
2001.2494   72075   43.4589  -70.1670  219.0    8.0    6.675      27.693     1023.6        170.622193    163.452179    396.358443    392.908783    8.100000      2008-04-16T20:01:14.96Z  
2001.5835   72095   43.4577  -70.1682  218.0    8.0    6.685      27.672     1023.6        170.526304    163.358213    396.394198    392.937245    8.100000      2008-04-16T20:01:35.01Z  
2001.9162   72115   43.4566  -70.1695  218.0    8.0    6.681      27.656     1023.6        170.775893    163.598291    396.373400    392.923240    8.100000      2008-04-16T20:01:54.97Z  
2002.2502   72135   43.4554  -70.1707  218.0    8.0    6.680      27.640     1023.6        170.724331    163.549383    396.214034    392.771508    8.100000      2008-04-16T20:02:15.01Z  
2002.5829   72155   43.4543  -70.1720  219.0    8.0    6.690      27.620     1023.6        170.657303    163.486192    396.310008    392.854312    8.100000      2008-04-16T20:02:34.97Z  
2002.9170   72175   43.4532  -70.1732  219.0    7.9    6.699      27.603     1023.6        170.782994    163.604014    nd            nd            8.100000      2008-04-16T20:02:55.02Z  
2003.2496   72195   43.4521  -70.1745  218.0    8.0    6.694      27.590     1023.6        170.884338    163.702091    396.270013    392.818258    8.100000      2008-04-16T20:03:14.98Z  
2003.5837   72215   43.4509  -70.1757  217.0    8.0    6.695      27.574     1023.6        170.990039    163.806824    396.371924    392.923700    8.100000      2008-04-16T20:03:35.02Z  
2003.9163   72235   43.4498  -70.1769  218.0    8.0    6.695      27.564     1023.6        171.107230    163.917012    396.607076    393.154737    8.100000      2008-04-16T20:03:54.98Z  
2004.2504   72255   43.4487  -70.1782  220.0    8.0    6.701      27.560     1023.6        171.215147    164.020541    396.499626    393.055580    8.100000      2008-04-16T20:04:15.02Z  
2004.5830   72275   43.4476  -70.1794  219.0    8.0    6.714      27.553     1023.6        171.060214    163.871602    396.437980    392.989030    8.100000      2008-04-16T20:04:34.98Z  
2004.9171   72295   43.4465  -70.1807  216.0    8.0    6.735      27.540     1023.6        171.196125    164.000354    396.585363    393.129192    8.100000      2008-04-16T20:04:55.03Z  
2005.2498   72315   43.4453  -70.1818  213.0    8.0    6.747      27.529     1023.6        171.371320    164.166881    396.593529    393.133702    8.100000      2008-04-16T20:05:14.99Z  
2005.5838   72335   43.4441  -70.1829  213.0    8.0    6.751      27.534     1023.6        171.305749    164.105970    nd            nd            8.100000      2008-04-16T20:05:35.03Z  
2005.9165   72355   43.4428  -70.1840  213.0    8.0    6.756      27.531     1023.6        171.173268    163.978328    396.153355    392.704009    8.100000      2008-04-16T20:05:54.99Z  
2006.2506   72375   43.4417  -70.1851  214.0    8.0    6.759      27.523     1023.6        171.296460    164.098336    396.355429    392.908031    8.100000      2008-04-16T20:06:15.04Z  
2006.5832   72395   43.4405  -70.1862  214.0    8.0    6.782      27.512     1023.6        171.326520    164.120982    396.282398    392.822468    8.100000      2008-04-16T20:06:34.99Z  
2006.9173   72415   43.4393  -70.1874  213.0    8.0    6.809      27.494     1023.6        171.347286    164.140061    396.220466    392.758754    8.100000      2008-04-16T20:06:55.04Z  
2007.2499   72435   43.4380  -70.1884  212.0    8.0    6.824      27.494     1023.6        171.436798    164.224395    396.187096    392.722025    8.100000      2008-04-16T20:07:14.99Z  
2007.5840   72455   43.4368  -70.1895  213.0    8.0    6.825      27.497     1023.6        171.425129    164.211931    nd            nd            8.100000      2008-04-16T20:07:35.04Z  
2007.9166   72475   43.4356  -70.1906  214.0    8.0    6.823      27.492     1023.6        171.511486    164.295488    396.416953    392.952107    8.100000      2008-04-16T20:07:55.00Z  
2008.2507   72495   43.4344  -70.1918  214.0    8.0    6.836      27.477     1023.6        171.649304    164.427380    396.443517    392.980421    8.100000      2008-04-16T20:08:15.04Z  
2008.5834   72515   43.4332  -70.1929  212.0    8.0    6.854      27.466     1023.6        171.657491    164.433304    396.291182    392.818716    8.100000      2008-04-16T20:08:35.00Z  
2008.9160   72535   43.4320  -70.1939  213.0    8.0    6.862      27.470     1023.6        171.754758    164.524372    396.560517    393.079299    8.100000      2008-04-16T20:08:54.96Z  
2009.2501   72555   43.4308  -70.1950  213.0    8.1    6.859      27.471     1023.6        171.870993    164.634065    396.086102    392.605988    8.100000      2008-04-16T20:09:15.01Z  
2009.5827   72575   43.4296  -70.1961  212.0    8.0    6.863      27.450     1023.6        171.787016    164.554340    396.338882    392.860240    8.100000      2008-04-16T20:09:34.96Z  
2009.9168   72595   43.4284  -70.1972  213.0    8.0    6.862      27.440     1023.6        171.774199    164.539495    nd            nd            8.100000      2008-04-16T20:09:55.01Z  
2010.2494   72615   43.4272  -70.1983  212.0    8.0    6.857      27.447     1023.6        171.885022    164.650117    nd            nd            8.100000      2008-04-16T20:10:14.96Z  
2010.5835   72635   43.4259  -70.1993  212.0    8.0    6.852      27.447     1023.6        171.926895    164.690267    396.206887    392.735460    8.100000      2008-04-16T20:10:35.01Z  
2010.9162   72655   43.4247  -70.2004  213.0    8.0    6.845      27.442     1023.6        171.961857    164.726106    396.697613    393.221354    8.100000      2008-04-16T20:10:54.97Z  
2011.2502   72675   43.4235  -70.2015  213.0    8.0    6.837      27.452     1023.6        171.971903    164.734839    396.305041    392.833280    8.100000      2008-04-16T20:11:15.01Z  
2011.5829   72695   43.4223  -70.2026  213.0    8.0    6.819      27.469     1023.6        172.110400    164.868340    396.327900    392.853698    8.100000      2008-04-16T20:11:34.97Z  
2011.9170   72715   43.4211  -70.2037  212.0    8.0    6.784      27.484     1023.6        172.039141    164.801733    396.293885    392.830501    8.100000      2008-04-16T20:11:55.02Z  
2012.2496   72735   43.4199  -70.2048  214.0    8.0    6.755      27.511     1023.6        172.061090    164.829189    396.260615    392.808935    8.100000      2008-04-16T20:12:14.98Z  
2012.5837   72755   43.4187  -70.2059  214.0    8.0    6.718      27.539     1023.6        172.055071    164.826517    396.320440    392.877041    8.100000      2008-04-16T20:12:35.02Z  
2012.9163   72775   43.4175  -70.2070  212.0    8.0    6.685      27.567     1023.6        171.998187    164.775134    396.093587    392.665730    8.100000      2008-04-16T20:12:54.98Z  
2013.2504   72795   43.4162  -70.2081  212.0    8.0    6.656      27.589     1023.6        171.928557    164.710229    396.403364    392.963224    8.100000      2008-04-16T20:13:15.02Z  
2013.5830   72815   43.4150  -70.2092  214.0    8.0    6.632      27.618     1023.6        171.890842    164.677698    396.321657    392.892767    8.100000      2008-04-16T20:13:34.98Z  
2013.9171   72835   43.4138  -70.2103  214.0    8.0    6.605      27.668     1023.6        171.859341    164.651438    396.064667    392.651521    8.100000      2008-04-16T20:13:55.03Z  
2014.2498   72855   43.4126  -70.2114  213.0    8.1    6.578      27.712     1023.6        171.825402    164.620995    396.123564    392.709364    8.100000      2008-04-16T20:14:14.99Z  
2014.5838   72875   43.4114  -70.2125  212.0    8.0    6.566      27.756     1023.6        171.922473    164.715968    396.260152    392.854405    8.100000      2008-04-16T20:14:35.03Z  
2014.9165   72895   43.4102  -70.2136  212.0    8.0    6.558      27.808     1023.6        172.113607    164.901512    396.143488    392.746258    8.100000      2008-04-16T20:14:54.99Z  
2015.2506   72915   43.4090  -70.2146  213.0    8.0    6.557      27.869     1023.6        172.323349    165.102758    nd            nd            8.100000      2008-04-16T20:15:15.04Z  
2015.5832   72935   43.4078  -70.2157  213.0    8.0    6.598      27.902     1023.6        172.524233    165.291055    396.078893    392.670610    8.100000      2008-04-16T20:15:34.99Z  
2015.9173   72955   43.4066  -70.2169  214.0    8.0    6.650      27.926     1023.6        173.027635    165.771034    396.295866    392.884745    8.100000      2008-04-16T20:15:55.04Z  
2016.2499   72975   43.4054  -70.2179  212.0    8.0    6.625      27.986     1023.6        173.191792    165.930109    396.284418    392.875117    8.100000      2008-04-16T20:16:14.99Z  
2016.5840   72995   43.4041  -70.2190  213.0    8.0    6.537      28.064     1023.6        173.194644    165.943802    396.259009    392.875208    8.100000      2008-04-16T20:16:35.04Z  
2016.9166   73015   43.4029  -70.2201  213.0    8.1    6.436      28.130     1023.6        172.710500    165.489639    396.224766    392.860264    8.100000      2008-04-16T20:16:55.00Z  
2017.2507   73035   43.4017  -70.2212  213.0    8.1    6.392      28.146     1023.6        172.312647    165.111729    396.154969    392.798187    8.100000      2008-04-16T20:17:15.04Z  
2017.5834   73055   43.4005  -70.2223  213.0    8.0    6.357      28.173     1023.6        171.750654    164.577290    396.268642    392.922583    8.100000      2008-04-16T20:17:35.00Z  
2017.9160   73075   43.3993  -70.2235  213.0    8.0    6.329      28.209     1023.6        171.502705    164.343423    nd            nd            8.100000      2008-04-16T20:17:54.96Z  
2018.2501   73095   43.3981  -70.2245  212.0    8.0    6.357      28.232     1023.6        171.235042    164.081779    nd            nd            8.100000      2008-04-16T20:18:15.01Z  
2018.5827   73115   43.3968  -70.2256  211.0    8.0    6.434      28.249     1023.6        171.266916    164.104616    396.485342    393.118338    8.100000      2008-04-16T20:18:34.96Z  
2018.9168   73135   43.3956  -70.2267  213.0    8.0    6.511      28.262     1023.6        171.667771    164.481462    396.305872    392.919905    8.100000      2008-04-16T20:18:55.01Z  
2019.2494   73155   43.3944  -70.2278  213.0    8.0    6.564      28.261     1023.6        172.241157    165.025812    396.663767    393.272581    8.100000      2008-04-16T20:19:14.96Z  
2019.5835   73175   43.3932  -70.2289  213.0    8.0    6.571      28.262     1023.6        172.893866    165.649905    nd            nd            8.100000      2008-04-16T20:19:35.01Z  
2019.9162   73195   43.3920  -70.2300  212.0    8.0    6.569      28.249     1023.6        173.351834    166.088764    396.590597    393.192215    8.100000      2008-04-16T20:19:54.97Z  
2020.2502   73215   43.3908  -70.2310  211.0    8.0    6.577      28.226     1023.6        173.687708    166.408002    396.517149    393.113141    8.100000      2008-04-16T20:20:15.01Z  
2020.5829   73235   43.3895  -70.2321  212.0    8.0    6.570      28.204     1023.6        173.882401    166.594851    396.441064    393.036954    8.100000      2008-04-16T20:20:34.97Z  
2020.9170   73255   43.3883  -70.2332  212.0    8.1    6.558      28.190     1023.6        174.023426    166.731530    396.473086    393.071581    8.100000      2008-04-16T20:20:55.02Z  
2021.2496   73275   43.3871  -70.2342  210.0    8.0    6.550      28.171     1023.6        173.845186    166.561779    396.502715    393.090286    8.100000      2008-04-16T20:21:14.98Z  
2021.5837   73295   43.3858  -70.2352  207.0    8.0    6.550      28.154     1023.6        173.794405    166.513857    nd            nd            8.100000      2008-04-16T20:21:35.02Z  
2021.9163   73315   43.3845  -70.2361  207.0    8.0    6.554      28.139     1023.6        173.692498    166.416387    396.637994    393.239453    8.100000      2008-04-16T20:21:54.98Z  
2022.2504   73335   43.3832  -70.2370  208.0    8.0    6.559      28.123     1023.6        173.593876    166.321795    396.719399    393.325315    8.100000      2008-04-16T20:22:15.02Z  
2022.5830   73355   43.3820  -70.2380  210.0    8.0    6.555      28.107     1023.6        173.451650    166.185329    396.383244    392.990801    8.100000      2008-04-16T20:22:34.98Z  
2022.9171   73375   43.3807  -70.2390  210.0    8.0    6.550      28.101     1023.6        173.455878    166.189951    nd            nd            8.100000      2008-04-16T20:22:55.03Z  
2023.2498   73395   43.3795  -70.2400  210.0    8.0    6.550      28.100     1023.6        173.381318    166.116357    396.722580    393.320575    8.100000      2008-04-16T20:23:14.99Z  
2023.5838   73415   43.3782  -70.2410  209.0    8.0    6.562      28.090     1023.6        173.179184    165.921652    396.695511    393.290722    8.100000      2008-04-16T20:23:35.03Z  
2023.9165   73435   43.3770  -70.2420  210.0    8.0    6.560      28.079     1023.6        173.114431    165.860985    nd            nd            8.100000      2008-04-16T20:23:54.99Z  
2024.2506   73455   43.3757  -70.2430  212.0    8.0    6.560      28.072     1023.6        172.921990    165.676836    nd            nd            8.100000      2008-04-16T20:24:15.04Z  
2024.5832   73475   43.3745  -70.2442  215.0    8.0    6.566      28.058     1023.6        172.714019    165.475371    396.581483    393.177854    8.100000      2008-04-16T20:24:34.99Z  
2024.9173   73495   43.3734  -70.2453  217.0    8.0    6.570      28.050     1023.6        172.580477    165.347919    396.745325    393.339081    8.100000      2008-04-16T20:24:55.04Z  
2025.2499   73515   43.3722  -70.2465  216.0    8.0    6.574      28.036     1023.6        172.498938    165.269208    nd            nd            8.100000      2008-04-16T20:25:14.99Z  
2025.5840   73535   43.3710  -70.2477  214.0    8.0    6.560      28.013     1023.6        172.355904    165.133059    nd            nd            8.100000      2008-04-16T20:25:35.04Z  
2025.9166   73555   43.3698  -70.2488  214.0    8.0    6.546      27.993     1023.6        172.196563    164.979123    396.585901    393.179592    8.100000      2008-04-16T20:25:55.00Z  
2026.2493   73575   43.3686  -70.2500  215.0    8.1    6.530      27.983     1023.6        172.052519    164.843143    396.752355    393.347052    8.100000      2008-04-16T20:26:14.96Z  
2026.5834   73595   43.3674  -70.2511  214.0    8.0    6.533      27.980     1023.6        171.763365    164.563474    396.815187    393.404265    8.100000      2008-04-16T20:26:35.00Z  
2026.9160   73615   43.3662  -70.2522  215.0    8.0    6.540      27.975     1023.6        171.727012    164.525809    396.930954    393.511482    8.100000      2008-04-16T20:26:54.96Z  
2027.2501   73635   43.3651  -70.2534  216.0    8.1    6.546      27.980     1023.6        171.497707    164.305914    397.154255    393.729990    8.100000      2008-04-16T20:27:15.01Z  
2027.5827   73655   43.3639  -70.2546  215.0    8.1    6.560      27.973     1023.6        171.538170    164.342885    396.996459    393.568223    8.100000      2008-04-16T20:27:34.96Z  
2027.9168   73675   43.3627  -70.2558  215.0    8.1    6.579      27.963     1023.6        171.534074    164.337111    nd            nd            8.100000      2008-04-16T20:27:55.01Z  
2028.2494   73695   43.3615  -70.2569  215.0    8.1    6.604      27.962     1023.6        171.693535    164.487092    nd            nd            8.100000      2008-04-16T20:28:14.96Z  
2028.5835   73715   43.3603  -70.2581  215.0    8.1    6.621      27.952     1023.6        171.827752    164.614430    nd            nd            8.100000      2008-04-16T20:28:35.01Z  
2028.9162   73735   43.3591  -70.2592  215.0    8.1    6.629      27.935     1023.6        171.922214    164.703656    396.884480    393.444414    8.100000      2008-04-16T20:28:54.97Z  
2029.2502   73755   43.3579  -70.2604  215.0    8.1    6.619      27.933     1023.6        172.106372    164.880127    396.886441    393.451147    8.100000      2008-04-16T20:29:15.01Z  
2029.5829   73775   43.3567  -70.2615  213.0    8.1    6.624      27.935     1023.6        172.099803    164.873725    nd            nd            8.100000      2008-04-16T20:29:34.97Z  
2029.9170   73795   43.3555  -70.2626  215.0    8.1    6.635      27.923     1023.6        172.224798    164.991260    nd            nd            8.100000      2008-04-16T20:29:55.02Z  
2030.2496   73815   43.3543  -70.2638  215.0    8.1    6.642      27.918     1023.6        172.281508    165.044154    396.734105    393.286511    8.100000      2008-04-16T20:30:14.98Z  
2030.5837   73835   43.3531  -70.2650  214.0    8.1    6.649      27.912     1023.6        172.465637    165.219754    396.948993    393.498120    8.100000      2008-04-16T20:30:35.02Z  
2030.9163   73855   43.3519  -70.2661  214.0    8.1    6.666      27.920     1023.6        172.786665    165.524037    397.033497    393.577750    8.100000      2008-04-16T20:30:54.98Z  
2031.2504   73875   43.3507  -70.2673  215.0    8.1    6.681      27.926     1023.6        172.839310    165.574448    397.066075    393.607870    8.100000      2008-04-16T20:31:15.02Z  
2031.5830   73895   43.3495  -70.2684  215.0    8.1    6.691      27.930     1023.6        173.044673    165.771015    396.869474    393.413672    8.100000      2008-04-16T20:31:34.98Z  
2031.9171   73915   43.3484  -70.2696  215.0    8.1    6.703      27.930     1023.6        173.291357    166.005131    396.998125    393.535581    8.100000      2008-04-16T20:31:55.03Z  
2032.2498   73935   43.3472  -70.2707  214.0    8.1    6.724      27.935     1023.6        173.496454    166.201524    397.147542    393.681227    8.100000      2008-04-16T20:32:14.99Z  
2032.5838   73955   43.3459  -70.2719  214.0    8.1    6.723      27.931     1023.6        173.852193    166.544046    397.002330    393.542726    8.100000      2008-04-16T20:32:35.03Z  
2032.9165   73975   43.3448  -70.2730  215.0    8.1    6.704      27.934     1023.6        174.037535    166.723974    396.965742    393.510181    8.100000      2008-04-16T20:32:54.99Z  
2033.2506   73995   43.3436  -70.2742  215.0    8.1    6.700      27.925     1023.6        174.127441    166.810476    396.991125    393.539107    8.100000      2008-04-16T20:33:15.04Z  
2033.5832   74015   43.3424  -70.2754  214.0    8.1    6.702      27.920     1023.6        174.314314    166.990868    397.044386    393.594872    8.100000      2008-04-16T20:33:34.99Z  
2033.9173   74035   43.3412  -70.2765  215.0    8.1    6.735      27.908     1023.6        174.302066    166.974817    397.013436    393.555951    8.100000      2008-04-16T20:33:55.04Z  
2034.2499   74055   43.3400  -70.2777  215.0    8.1    6.754      27.904     1023.6        174.385552    167.051920    397.028152    393.560420    8.100000      2008-04-16T20:34:14.99Z  
2034.5840   74075   43.3388  -70.2788  214.0    8.1    6.749      27.883     1023.6        174.614700    167.273225    396.897827    393.440957    8.100000      2008-04-16T20:34:35.04Z  
2034.9166   74095   43.3376  -70.2800  215.0    8.1    6.715      27.867     1023.6        174.647417    167.307276    397.011659    393.554245    8.100000      2008-04-16T20:34:55.00Z  
2035.2493   74115   43.3364  -70.2811  213.0    8.0    6.682      27.859     1023.6        174.428441    167.099613    397.114871    393.664097    8.100000      2008-04-16T20:35:14.96Z  
2035.5834   74135   43.3352  -70.2823  215.0    8.1    6.670      27.848     1023.6        174.100451    166.788256    396.957692    393.515439    8.100000      2008-04-16T20:35:35.00Z  
2035.9160   74155   43.3340  -70.2834  214.0    8.1    6.675      27.844     1023.6        173.884380    166.581902    397.156162    393.715780    8.100000      2008-04-16T20:35:54.96Z  
2036.2501   74175   43.3328  -70.2845  213.0    8.1    6.683      27.841     1023.6        173.689172    166.393615    397.219109    393.770895    8.100000      2008-04-16T20:36:15.01Z  
2036.5827   74195   43.3316  -70.2857  213.0    8.1    6.688      27.842     1023.6        173.556908    166.265444    397.099455    393.649783    8.100000      2008-04-16T20:36:34.96Z  
2036.9168   74215   43.3304  -70.2868  214.0    8.1    6.701      27.839     1023.6        173.393429    166.108481    396.772324    393.321545    8.100000      2008-04-16T20:36:55.01Z  
2037.2494   74235   43.3292  -70.2879  214.0    8.1    6.711      27.834     1023.6        173.330792    166.048529    nd            nd            8.100000      2008-04-16T20:37:14.96Z  
2037.5835   74255   43.3280  -70.2891  214.0    8.1    6.696      27.841     1023.6        173.262397    165.981796    nd            nd            8.100000      2008-04-16T20:37:35.01Z  
2037.9162   74275   43.3268  -70.2902  214.0    8.1    6.685      27.844     1023.6        173.211629    165.936264    nd            nd            8.100000      2008-04-16T20:37:54.97Z  
2038.2502   74295   43.3256  -70.2913  213.0    8.1    6.676      27.852     1023.6        173.055846    165.791082    397.486094    394.042274    8.100000      2008-04-16T20:38:15.01Z  
2038.5829   74315   43.3244  -70.2924  214.0    8.1    6.652      27.865     1023.6        173.200437    165.931313    nd            nd            8.100000      2008-04-16T20:38:34.97Z  
2038.9170   74335   43.3231  -70.2936  215.0    8.1    6.631      27.886     1023.6        173.163753    165.901094    nd            nd            8.100000      2008-04-16T20:38:55.02Z  
2039.2496   74355   43.3220  -70.2948  215.0    8.1    6.619      27.904     1023.6        173.399604    166.127423    397.590670    394.166161    8.100000      2008-04-16T20:39:14.98Z  
2039.5837   74375   43.3208  -70.2959  214.0    8.1    6.628      27.902     1023.6        173.504938    166.228714    397.468936    394.045910    8.100000      2008-04-16T20:39:35.02Z  
2039.9163   74395   43.3196  -70.2970  213.0    8.1    6.632      27.897     1023.6        173.816230    166.523781    nd            nd            8.100000      2008-04-16T20:39:54.98Z  
2040.2504   74415   43.3184  -70.2982  214.0    8.1    6.654      27.875     1023.6        173.810594    166.514923    nd            nd            8.100000      2008-04-16T20:40:15.02Z  
2040.5830   74435   43.3172  -70.2993  215.0    8.1    6.677      27.863     1023.6        173.810846    166.512742    397.456437    394.011058    8.100000      2008-04-16T20:40:34.98Z  
2040.9171   74455   43.3160  -70.3005  215.0    8.1    6.682      27.856     1023.6        173.768677    166.471283    397.522246    394.068509    8.100000      2008-04-16T20:40:55.03Z  
2041.2498   74475   43.3148  -70.3016  215.0    8.1    6.688      27.849     1023.6        173.734994    166.439989    nd            nd            8.100000      2008-04-16T20:41:14.99Z  
2041.5838   74495   43.3136  -70.3028  215.0    8.1    6.679      27.848     1023.6        173.472042    166.185996    nd            nd            8.100000      2008-04-16T20:41:35.03Z  
2041.9165   74515   43.3124  -70.3040  215.0    8.0    6.676      27.837     1023.6        173.378175    166.098375    nd            nd            8.100000      2008-04-16T20:41:54.99Z  
2042.2506   74535   43.3112  -70.3051  214.0    8.0    6.677      27.828     1023.6        173.181674    165.909788    nd            nd            8.100000      2008-04-16T20:42:15.04Z  
2042.5832   74555   43.3100  -70.3062  213.0    8.0    6.682      27.819     1023.6        172.877599    165.618245    397.913755    394.457950    8.100000      2008-04-16T20:42:34.99Z  
2042.9173   74575   43.3088  -70.3073  214.0    8.0    6.692      27.806     1023.6        172.505960    165.261254    397.782538    394.331460    8.100000      2008-04-16T20:42:55.04Z  
2043.2499   74595   43.3077  -70.3085  215.0    8.0    6.703      27.799     1023.6        172.312145    165.074013    397.828979    394.376064    8.100000      2008-04-16T20:43:14.99Z  
2043.5840   74615   43.3065  -70.3096  214.0    8.0    6.698      27.815     1023.6        171.978625    164.750646    397.936453    394.479835    8.100000      2008-04-16T20:43:35.04Z  
2043.9166   74635   43.3053  -70.3108  215.0    8.0    6.711      27.822     1023.6        171.696064    164.482097    nd            nd            8.100000      2008-04-16T20:43:55.00Z  
2044.2493   74655   43.3041  -70.3119  215.0    8.0    6.668      27.864     1023.6        171.488702    164.286587    397.611900    394.164599    8.100000      2008-04-16T20:44:14.96Z  
2044.5834   74675   43.3029  -70.3131  214.0    8.0    6.653      27.899     1023.6        171.319263    164.125230    397.630548    394.182910    8.100000      2008-04-16T20:44:35.00Z  
2044.9160   74695   43.3017  -70.3142  214.0    8.1    6.662      27.911     1023.6        171.277497    164.082935    397.686145    394.230302    8.100000      2008-04-16T20:44:54.96Z  
2045.2501   74715   43.3005  -70.3153  214.0    8.0    6.679      27.915     1023.6        171.523016    164.317498    nd            nd            8.100000      2008-04-16T20:45:15.01Z  
2045.5827   74735   43.2993  -70.3165  214.0    8.1    6.721      27.911     1023.6        171.543365    164.333418    nd            nd            8.100000      2008-04-16T20:45:34.96Z  
2045.9168   74755   43.2981  -70.3176  214.0    8.0    6.762      27.903     1023.6        171.506674    164.292994    nd            nd            8.100000      2008-04-16T20:45:55.01Z  
2046.2494   74775   43.2970  -70.3187  214.0    8.0    6.797      27.898     1023.6        171.487208    164.270294    398.247866    394.770411    8.100000      2008-04-16T20:46:14.96Z  
2046.5835   74795   43.2957  -70.3198  213.0    8.1    6.825      27.893     1023.6        171.193490    163.984182    nd            nd            8.100000      2008-04-16T20:46:35.01Z  
2046.9162   74815   43.2945  -70.3209  214.0    8.0    6.843      27.898     1023.6        171.117705    163.909499    nd            nd            8.100000      2008-04-16T20:46:54.97Z  
2047.2502   74835   43.2933  -70.3221  214.0    8.0    6.843      27.916     1023.6        170.865429    163.667949    nd            nd            8.100000      2008-04-16T20:47:15.01Z  
2047.5829   74855   43.2921  -70.3232  214.0    8.0    6.861      27.918     1023.6        170.732528    163.538367    nd            nd            8.100000      2008-04-16T20:47:34.97Z  
2047.9170   74875   43.2910  -70.3243  215.0    8.1    6.876      27.925     1023.6        170.602022    163.411413    397.930292    394.417670    8.100000      2008-04-16T20:47:55.02Z  
2048.2496   74895   43.2898  -70.3255  213.0    8.0    6.872      27.954     1023.6        170.624642    163.432623    397.627049    394.109732    8.100000      2008-04-16T20:48:14.98Z  
2048.5837   74915   43.2886  -70.3266  214.0    8.0    6.857      28.005     1023.6        170.725932    163.529857    nd            nd            8.100000      2008-04-16T20:48:35.02Z  
2048.9163   74935   43.2874  -70.3277  213.0    8.0    6.845      28.046     1023.5        171.126479    163.914158    398.283010    394.774578    8.100000      2008-04-16T20:48:54.98Z  
2049.2504   74955   43.2861  -70.3288  212.0    8.0    6.851      28.070     1023.5        171.579810    164.345366    398.249886    394.725339    8.100000      2008-04-16T20:49:15.02Z  
2049.5830   74975   43.2849  -70.3298  212.0    8.0    6.861      28.097     1023.5        171.953559    164.702351    397.865299    394.341438    8.100000      2008-04-16T20:49:34.98Z  
2049.9171   74995   43.2837  -70.3309  212.0    8.0    6.864      28.122     1023.5        172.402024    165.130179    nd            nd            8.100000      2008-04-16T20:49:55.03Z  
2050.2498   75015   43.2825  -70.3320  212.0    8.0    6.873      28.137     1023.5        172.998941    165.700488    398.116236    394.586937    8.100000      2008-04-16T20:50:14.99Z  
2050.5838   75035   43.2813  -70.3332  220.0    8.0    6.868      28.170     1023.5        173.339335    166.024265    398.393942    394.856741    8.100000      2008-04-16T20:50:35.03Z  
2050.9165   75055   43.2802  -70.3345  222.0    8.0    6.889      28.202     1023.5        173.907594    166.566258    397.942032    394.396218    8.100000      2008-04-16T20:50:54.99Z  
2051.2506   75075   43.2791  -70.3358  218.0    8.0    6.892      28.230     1023.5        174.436609    167.070250    nd            nd            8.100000      2008-04-16T20:51:15.04Z  
2051.5832   75095   43.2780  -70.3370  215.0    8.0    6.895      28.266     1023.5        174.874139    167.487820    398.547487    394.994103    8.100000      2008-04-16T20:51:34.99Z  
2051.9173   75115   43.2768  -70.3381  215.0    8.0    6.910      28.318     1023.5        175.373494    167.966066    398.492103    394.944008    8.100000      2008-04-16T20:51:55.04Z  
2052.2499   75135   43.2756  -70.3392  215.0    8.0    6.921      28.358     1023.5        175.967526    168.532273    nd            nd            8.100000      2008-04-16T20:52:14.99Z  
2052.5840   75155   43.2745  -70.3404  215.0    8.0    6.939      28.389     1023.5        176.578211    169.115631    398.447319    394.877052    8.100000      2008-04-16T20:52:35.04Z  
2052.9166   75175   43.2733  -70.3416  216.0    8.0    6.953      28.430     1023.5        177.430291    169.930558    399.105974    395.532969    8.100000      2008-04-16T20:52:55.00Z  
2053.2507   75195   43.2721  -70.3427  216.0    8.0    6.958      28.477     1023.5        178.267995    170.731293    399.004246    395.428563    8.100000      2008-04-16T20:53:15.04Z  
2053.5834   75215   43.2710  -70.3439  216.0    8.0    6.968      28.522     1023.5        179.039609    171.469215    399.127850    395.553744    8.100000      2008-04-16T20:53:35.00Z  
2053.9160   75235   43.2698  -70.3451  213.0    8.0    6.972      28.582     1023.5        179.805904    172.204350    398.702555    395.128320    8.100000      2008-04-16T20:53:54.96Z  
2054.2501   75255   43.2685  -70.3462  213.0    8.0    6.969      28.635     1023.5        180.571004    172.935951    398.791799    395.215406    8.100000      2008-04-16T20:54:15.01Z  
2054.5827   75275   43.2673  -70.3473  213.0    8.1    6.967      28.684     1023.5        181.351412    173.684475    nd            nd            8.100000      2008-04-16T20:54:34.96Z  
2054.9168   75295   43.2661  -70.3484  213.0    8.0    6.938      28.762     1023.5        182.205835    174.506523    nd            nd            8.100000      2008-04-16T20:54:55.01Z  
2055.2494   75315   43.2649  -70.3495  214.0    8.1    6.907      28.859     1023.5        182.876640    175.153109    398.635141    395.085043    8.100000      2008-04-16T20:55:14.96Z  
2055.5835   75335   43.2637  -70.3506  213.0    8.1    6.886      28.910     1023.5        183.662989    175.911071    398.575175    395.029691    8.100000      2008-04-16T20:55:35.01Z  
2055.9162   75355   43.2625  -70.3517  213.0    8.1    6.838      28.984     1023.5        184.400892    176.622958    398.630515    395.092120    8.100000      2008-04-16T20:55:54.97Z  
2056.2502   75375   43.2613  -70.3528  214.0    8.0    6.798      29.088     1023.5        184.953000    177.156591    399.009056    395.489948    8.100000      2008-04-16T20:56:15.01Z  
2056.5829   75395   43.2601  -70.3539  212.0    8.1    6.788      29.175     1023.5        185.520804    177.703339    399.083276    395.566679    8.100000      2008-04-16T20:56:34.97Z  
2056.9170   75415   43.2589  -70.3550  212.0    8.1    6.775      29.261     1023.5        186.283383    178.436351    398.956670    395.442887    8.100000      2008-04-16T20:56:55.02Z  
2057.2496   75435   43.2576  -70.3561  212.0    8.1    6.756      29.361     1023.5        186.945794    179.069121    nd            nd            8.100000      2008-04-16T20:57:14.98Z  
2057.5837   75455   43.2564  -70.3571  212.0    8.0    6.732      29.452     1023.5        187.850930    179.937109    nd            nd            8.100000      2008-04-16T20:57:35.02Z  
2057.9163   75475   43.2552  -70.3582  212.0    8.1    6.703      29.535     1023.5        188.589023    180.645359    nd            nd            8.100000      2008-04-16T20:57:54.98Z  
2058.2504   75495   43.2539  -70.3593  211.0    8.1    6.705      29.593     1023.5        189.521075    181.539187    nd            nd            8.100000      2008-04-16T20:58:15.02Z  
2058.5830   75515   43.2527  -70.3604  212.0    8.1    6.720      29.647     1023.5        190.233164    182.223765    398.950816    395.452872    8.100000      2008-04-16T20:58:34.98Z  
2058.9171   75535   43.2515  -70.3615  213.0    8.1    6.705      29.717     1023.5        191.073123    183.029942    398.939511    395.439199    8.100000      2008-04-16T20:58:55.03Z  
2059.2498   75555   43.2503  -70.3625  213.0    8.1    6.670      29.781     1023.5        191.857257    183.785616    398.826446    395.326648    8.100000      2008-04-16T20:59:14.99Z  
2059.5838   75575   43.2490  -70.3636  213.0    8.1    6.644      29.836     1023.5        192.381533    184.292534    nd            nd            8.100000      2008-04-16T20:59:35.03Z  
2059.9165   75595   43.2478  -70.3647  212.0    8.1    6.627      29.874     1023.5        192.773655    184.669863    399.461250    395.980045    8.100000      2008-04-16T20:59:54.99Z  
2100.2506   75615   43.2466  -70.3658  213.0    8.1    6.589      29.924     1023.5        193.200616    185.081623    399.852521    396.372380    8.100000      2008-04-16T21:00:15.04Z  
2100.5832   75635   43.2454  -70.3669  212.0    8.1    6.571      29.979     1023.5        193.557782    185.424004    nd            nd            8.100000      2008-04-16T21:00:34.99Z  
2100.9173   75655   43.2441  -70.3680  213.0    8.1    6.536      30.035     1023.5        193.873600    185.732649    nd            nd            8.100000      2008-04-16T21:00:55.04Z  
2101.2499   75675   43.2429  -70.3691  213.0    8.1    6.490      30.087     1023.5        194.228044    186.076854    399.515187    396.071375    8.100000      2008-04-16T21:01:14.99Z  
2101.5840   75695   43.2417  -70.3702  213.0    8.1    6.429      30.133     1023.5        194.493689    186.339789    399.349794    395.912676    8.100000      2008-04-16T21:01:35.04Z  
2101.9166   75715   43.2405  -70.3714  213.0    8.1    6.392      30.168     1023.5        194.628067    186.470717    nd            nd            8.100000      2008-04-16T21:01:55.00Z  
2102.2507   75735   43.2392  -70.3725  212.0    8.1    6.382      30.194     1023.5        194.689677    186.531817    nd            nd            8.100000      2008-04-16T21:02:15.04Z  
2102.5834   75755   43.2380  -70.3736  214.0    8.1    6.364      30.223     1023.5        194.865304    186.702221    nd            nd            8.100000      2008-04-16T21:02:35.00Z  
2102.9160   75775   43.2368  -70.3747  215.0    8.1    6.341      30.260     1023.5        194.920455    186.756069    nd            nd            8.100000      2008-04-16T21:02:54.96Z  
2103.2501   75795   43.2356  -70.3759  215.0    8.1    6.304      30.309     1023.5        195.096805    186.933468    nd            nd            8.100000      2008-04-16T21:03:15.01Z  
2103.5827   75815   43.2344  -70.3771  216.0    8.1    6.273      30.344     1023.5        195.152266    186.986614    nd            nd            8.100000      2008-04-16T21:03:34.96Z  
2103.9168   75835   43.2332  -70.3782  215.0    8.1    6.257      30.371     1023.5        195.118619    186.957671    400.011389    396.606442    8.100000      2008-04-16T21:03:55.01Z  
2104.2494   75855   43.2321  -70.3794  215.0    8.1    6.243      30.399     1023.5        195.340603    187.171442    399.986020    396.582879    8.100000      2008-04-16T21:04:14.96Z  
2104.5835   75875   43.2309  -70.3806  215.0    8.1    6.217      30.437     1023.5        195.356960    187.188685    399.793266    396.391675    8.100000      2008-04-16T21:04:35.01Z  
2104.9162   75895   43.2297  -70.3817  215.0    8.1    6.193      30.492     1023.5        195.518747    187.346179    nd            nd            8.100000      2008-04-16T21:04:54.97Z  
2105.2502   75915   43.2285  -70.3829  215.0    8.1    6.170      30.535     1023.5        195.590821    187.419245    nd            nd            8.100000      2008-04-16T21:05:15.01Z  
2105.5829   75935   43.2273  -70.3841  215.0    8.1    6.145      30.573     1023.5        195.768283    187.590348    399.758536    396.377007    8.100000      2008-04-16T21:05:34.97Z  
2105.9170   75955   43.2261  -70.3852  215.0    8.1    6.108      30.611     1023.5        195.790622    187.613095    400.043627    396.663104    8.100000      2008-04-16T21:05:55.02Z  
2106.2496   75975   43.2249  -70.3864  215.0    8.1    6.072      30.649     1023.5        195.916298    187.739098    400.097753    396.726684    8.100000      2008-04-16T21:06:14.98Z  
2106.5837   75995   43.2237  -70.3876  215.0    8.2    6.019      30.700     1023.5        195.945870    187.770383    400.129509    396.762667    8.100000      2008-04-16T21:06:35.02Z  
2106.9163   76015   43.2225  -70.3888  215.0    8.1    5.960      30.769     1023.4        195.774769    187.611473    400.234839    396.875142    8.100000      2008-04-16T21:06:54.98Z  
2107.2504   76035   43.2213  -70.3899  214.0    8.2    5.920      30.832     1023.4        195.741464    187.584183    400.459730    397.114060    8.100000      2008-04-16T21:07:15.02Z  
2107.5830   76055   43.2201  -70.3911  215.0    8.2    5.875      30.882     1023.4        195.871455    187.712082    nd            nd            8.100000      2008-04-16T21:07:34.98Z  
2107.9171   76075   43.2189  -70.3923  215.0    8.2    5.820      30.942     1023.4        196.032865    187.870371    400.109766    396.777533    8.100000      2008-04-16T21:07:55.03Z  
2108.2498   76095   43.2177  -70.3934  214.0    8.2    5.776      30.982     1023.4        196.072388    187.915717    400.138561    396.809522    8.100000      2008-04-16T21:08:14.99Z  
2108.5838   76115   43.2165  -70.3946  213.0    8.2    5.722      31.022     1023.4        196.208737    188.051613    nd            nd            8.100000      2008-04-16T21:08:35.03Z  
2108.9165   76135   43.2153  -70.3957  214.0    8.2    5.666      31.067     1023.4        196.238730    188.084618    400.120967    396.824364    8.100000      2008-04-16T21:08:54.99Z  
2109.2506   76155   43.2141  -70.3969  216.0    8.1    5.625      31.106     1023.4        196.237684    188.091553    nd            nd            8.100000      2008-04-16T21:09:15.04Z  
2109.5832   76175   43.2129  -70.3981  215.0    8.2    5.608      31.131     1023.4        196.306452    188.159149    400.766336    397.474403    8.100000      2008-04-16T21:09:34.99Z  
2109.9173   76195   43.2117  -70.3993  215.0    8.2    5.590      31.150     1023.4        196.555072    188.398393    nd            nd            8.100000      2008-04-16T21:09:55.04Z  
2110.2499   76215   43.2105  -70.4005  215.0    8.1    5.579      31.170     1023.4        196.750424    188.587766    nd            nd            8.100000      2008-04-16T21:10:14.99Z  
2110.5840   76235   43.2093  -70.4016  215.0    8.1    5.618      31.201     1023.4        196.821044    188.651348    nd            nd            8.100000      2008-04-16T21:10:35.04Z  
2110.9166   76255   43.2081  -70.4028  214.0    8.2    5.695      31.204     1023.4        197.129718    188.938551    400.795376    397.471094    8.100000      2008-04-16T21:10:55.00Z  
2111.2493   76275   43.2069  -70.4040  216.0    8.1    5.762      31.186     1023.4        197.537760    189.319443    400.725712    397.399650    8.100000      2008-04-16T21:11:14.96Z  
2111.5834   76295   43.2057  -70.4052  216.0    8.1    5.786      31.170     1023.4        198.136552    189.892037    400.721399    397.393943    8.100000      2008-04-16T21:11:35.00Z  
2111.9160   76315   43.2045  -70.4064  215.0    8.1    5.799      31.157     1023.4        198.698700    190.427548    nd            nd            8.100000      2008-04-16T21:11:54.96Z  
2112.2501   76335   43.2033  -70.4075  215.0    8.2    5.810      31.141     1023.4        199.199191    190.902394    401.085935    397.739866    8.100000      2008-04-16T21:12:15.01Z  
2112.5827   76355   43.2021  -70.4087  215.0    8.2    5.806      31.131     1023.4        199.588702    191.273657    400.620087    397.270420    8.100000      2008-04-16T21:12:34.96Z  
2112.9168   76375   43.2009  -70.4099  214.0    8.1    5.806      31.120     1023.4        199.986247    191.653970    400.985520    397.633152    8.100000      2008-04-16T21:12:55.01Z  
2113.2494   76395   43.1997  -70.4110  215.0    8.1    5.806      31.110     1023.4        200.245928    191.902475    400.930637    397.579364    8.100000      2008-04-16T21:13:14.96Z  
2113.5835   76415   43.1985  -70.4122  215.0    8.1    5.805      31.105     1023.4        200.578861    192.221526    400.558206    397.206526    8.100000      2008-04-16T21:13:35.01Z  
2113.9162   76435   43.1973  -70.4134  215.0    8.1    5.782      31.115     1023.4        200.845963    192.480647    400.772690    397.428543    8.100000      2008-04-16T21:13:54.97Z  
2114.2502   76455   43.1961  -70.4146  216.0    8.1    5.786      31.130     1023.4        201.075726    192.700838    400.913238    397.567589    8.100000      2008-04-16T21:14:15.01Z  
2114.5829   76475   43.1949  -70.4157  214.0    8.1    5.799      31.141     1023.4        201.008258    192.635466    400.937562    397.591773    8.100000      2008-04-16T21:14:34.97Z  
2114.9170   76495   43.1937  -70.4168  212.0    8.2    5.834      31.124     1023.4        201.095916    192.714145    nd            nd            8.100000      2008-04-16T21:14:55.02Z  
2115.2496   76515   43.1925  -70.4180  218.0    8.1    5.845      31.108     1023.4        201.199113    192.807752    400.991990    397.619647    8.100000      2008-04-16T21:15:14.98Z  
2115.5837   76535   43.1914  -70.4193  219.0    8.1    5.837      31.112     1023.4        201.457198    193.056092    401.209665    397.842232    8.100000      2008-04-16T21:15:35.02Z  
2115.9163   76555   43.1902  -70.4205  214.0    8.1    5.848      31.102     1023.3        201.598670    193.187743    nd            nd            8.100000      2008-04-16T21:15:54.98Z  
2116.2504   76575   43.1889  -70.4216  212.0    8.2    5.844      31.094     1023.3        201.859023    193.435264    nd            nd            8.100000      2008-04-16T21:16:15.02Z  
2116.5830   76595   43.1877  -70.4227  217.0    8.1    5.825      31.108     1023.3        201.997076    193.569097    401.370284    397.984034    8.100000      2008-04-16T21:16:34.98Z  
2116.9171   76615   43.1866  -70.4240  221.0    8.1    5.840      31.117     1023.3        201.811996    193.390681    401.100572    397.717255    8.100000      2008-04-16T21:16:55.03Z  
2117.2498   76635   43.1855  -70.4253  219.0    7.5    5.845      31.120     1023.4        202.120546    193.693130    400.907866    397.533723    8.100000      2008-04-16T21:17:14.99Z  
2117.5838   76655   43.1845  -70.4264  217.0    6.7    5.830      31.120     1023.4        202.224072    193.798990    nd            nd            8.100000      2008-04-16T21:17:35.03Z  
2117.9165   76675   43.1836  -70.4272  208.0    5.8    5.793      31.131     1023.4        202.352608    193.933540    nd            nd            8.100000      2008-04-16T21:17:54.99Z  
2118.2506   76695   43.1828  -70.4277  204.0    3.2    5.789      31.144     1023.5        202.152150    193.746232    nd            nd            8.100000      2008-04-16T21:18:15.04Z  
2118.5832   76715   43.1824  -70.4278  177.0    2.3    5.825      31.155     1023.5        201.999342    193.601584    nd            nd            8.100000      2008-04-16T21:18:34.99Z  
2118.9173   76735   43.1822  -70.4277  110.0    1.1    5.873      31.161     1023.5        202.113892    193.702915    nd            nd            8.100000      2008-04-16T21:18:55.04Z  
2119.2499   76755   43.1822  -70.4276  192.0    0.5    5.916      31.173     1023.6        202.494799    194.089607    nd            nd            8.100000      2008-04-16T21:19:14.99Z  
2119.5840   76775   43.1821  -70.4276  212.0    0.3    5.956      31.174     1023.6        202.728292    194.297900    nd            nd            8.100000      2008-04-16T21:19:35.04Z  
2119.9166   76795   43.1822  -70.4276  198.0    0.5    5.983      31.180     1023.6        202.858478    194.420533    nd            nd            8.100000      2008-04-16T21:19:55.00Z  
2120.2493   76815   43.1822  -70.4276  181.0    0.5    5.998      31.183     1023.5        203.005805    194.550276    nd            nd            8.100000      2008-04-16T21:20:14.96Z  
2120.5834   76835   43.1823  -70.4276  212.0    0.5    5.993      31.186     1023.5        203.090759    194.623477    nd            nd            8.100000      2008-04-16T21:20:35.00Z  
2120.9160   76855   43.1823  -70.4276  225.0    0.5    6.035      31.174     1023.5        203.250842    194.772048    nd            nd            8.100000      2008-04-16T21:20:54.96Z  
2121.2501   76875   43.1824  -70.4276  195.0    0.5    6.035      31.186     1023.5        203.274221    194.796613    nd            nd            8.100000      2008-04-16T21:21:15.01Z  
2121.5827   76895   43.1825  -70.4276  233.0    0.5    6.039      31.187     1023.5        203.326875    194.846572    nd            nd            8.100000      2008-04-16T21:21:34.96Z  
2121.9168   76915   43.1825  -70.4276  227.0    0.4    6.035      31.179     1023.5        203.682951    195.189316    nd            nd            8.100000      2008-04-16T21:21:55.01Z  
2122.2494   76935   43.1826  -70.4276  166.0    0.4    6.014      31.182     1023.5        203.705717    195.215454    nd            nd            8.100000      2008-04-16T21:22:14.96Z  
2122.5835   76955   43.1827  -70.4276  223.0    0.5    6.016      31.184     1023.5        203.604112    195.118289    nd            nd            8.100000      2008-04-16T21:22:35.01Z  
2122.9162   76975   43.1827  -70.4276  221.0    0.7    6.022      31.183     1023.5        203.653399    195.162399    nd            nd            8.100000      2008-04-16T21:22:54.97Z  
2123.2502   76995   43.1828  -70.4276  211.0    0.4    6.030      31.180     1023.5        203.746799    195.252610    nd            nd            8.100000      2008-04-16T21:23:15.01Z  
2123.5829   77015   43.1829  -70.4276  189.0    0.7    6.030      31.181     1023.5        203.776890    195.278897    nd            nd            8.100000      2008-04-16T21:23:34.97Z  
2123.9170   77035   43.1829  -70.4276  236.0    0.7    6.031      31.180     1023.5        203.773528    195.275146    nd            nd            8.100000      2008-04-16T21:23:55.02Z  
2124.2496   77055   43.1830  -70.4276  182.0    0.5    6.040      31.171     1023.5        204.092162    195.582695    nd            nd            8.100000      2008-04-16T21:24:14.98Z  
2124.5837   77075   43.1831  -70.4276  212.0    0.5    6.048      31.179     1023.5        204.141080    195.626339    nd            nd            8.100000      2008-04-16T21:24:35.02Z  
2124.9163   77095   43.1831  -70.4276  178.0    0.4    6.073      31.176     1023.5        204.129803    195.612178    nd            nd            8.100000      2008-04-16T21:24:54.98Z  
2125.2504   77115   43.1832  -70.4276  238.0    0.5    6.076      31.172     1023.5        204.292272    195.767680    nd            nd            8.100000      2008-04-16T21:25:15.02Z  
2125.5830   77135   43.1833  -70.4276  146.0    0.4    6.085      31.168     1023.5        204.340048    195.812493    nd            nd            8.100000      2008-04-16T21:25:34.98Z  
2125.9171   77155   43.1833  -70.4276  192.0    0.6    6.083      31.166     1023.5        204.376152    195.847723    nd            nd            8.100000      2008-04-16T21:25:55.03Z  
2126.2498   77175   43.1834  -70.4276  207.0    0.7    6.078      31.166     1023.5        204.423316    195.893054    nd            nd            8.100000      2008-04-16T21:26:14.99Z  
2126.5838   77195   43.1834  -70.4276  206.0    0.6    6.065      31.164     1023.5        204.488956    195.955746    nd            nd            8.100000      2008-04-16T21:26:35.03Z  
2126.9165   77215   43.1835  -70.4276  159.0    0.4    6.049      31.164     1023.5        204.531155    195.997099    nd            nd            8.100000      2008-04-16T21:26:54.99Z  
2127.2506   77235   43.1836  -70.4276  157.0    0.4    6.045      31.161     1023.5        204.438800    195.908011    nd            nd            8.100000      2008-04-16T21:27:15.04Z  
2127.5832   77255   43.1836  -70.4276  242.0    0.7    6.041      31.160     1023.5        204.364826    195.838662    nd            nd            8.100000      2008-04-16T21:27:34.99Z  
2127.9173   77275   43.1837  -70.4276  215.0    0.5    6.034      31.158     1023.5        204.489473    195.958770    nd            nd            8.100000      2008-04-16T21:27:55.04Z  
2128.2499   77295   43.1838  -70.4276  245.0    0.4    6.033      31.159     1023.5        204.406949    195.879325    nd            nd            8.100000      2008-04-16T21:28:14.99Z  
2128.5840   77315   43.1838  -70.4276  265.0    0.6    6.036      31.159     1023.5        204.233538    195.711889    nd            nd            8.100000      2008-04-16T21:28:35.04Z  
2128.9166   77335   43.1839  -70.4277  168.0    0.3    6.037      31.158     1023.5        204.260255    195.736932    nd            nd            8.100000      2008-04-16T21:28:55.00Z  
2129.2493   77355   43.1839  -70.4277  163.0    0.4    6.031      31.157     1023.4        204.136356    195.615315    nd            nd            8.100000      2008-04-16T21:29:14.96Z  
2129.5834   77375   43.1840  -70.4277  208.0    0.5    6.030      31.156     1023.4        204.131386    195.609962    nd            nd            8.100000      2008-04-16T21:29:35.00Z  
2129.9160   77395   43.1841  -70.4277  191.0    0.7    6.033      31.155     1023.4        203.964138    195.444679    nd            nd            8.100000      2008-04-16T21:29:54.96Z  
2130.2501   77415   43.1842  -70.4277  139.0    0.6    6.037      31.154     1023.4        203.943564    195.423634    nd            nd            8.100000      2008-04-16T21:30:15.01Z  
2130.5827   77435   43.1842  -70.4277  156.0    0.5    6.034      31.152     1023.4        204.142234    195.617817    nd            nd            8.100000      2008-04-16T21:30:34.96Z  
2130.9168   77455   43.1843  -70.4277  195.0    0.5    6.034      31.151     1023.4        204.019330    195.497099    nd            nd            8.100000      2008-04-16T21:30:55.01Z  
2131.2494   77475   43.1844  -70.4277  238.0    0.8    6.034      31.149     1023.4        204.007930    195.484341    nd            nd            8.100000      2008-04-16T21:31:14.96Z  
2131.5835   77495   43.1844  -70.4276  130.0    1.5    6.040      31.146     1023.4        203.950917    195.425845    nd            nd            8.100000      2008-04-16T21:31:35.01Z  
2131.9162   77515   43.1841  -70.4272  159.0    3.5    6.038      31.142     1023.3        204.183867    195.643624    nd            nd            8.100000      2008-04-16T21:31:54.97Z  
2132.2502   77535   43.1834  -70.4272  184.0    4.4    6.026      31.143     1023.3        203.876985    195.348524    nd            nd            8.100000      2008-04-16T21:32:15.01Z  
2132.5829   77555   43.1826  -70.4273  181.0    3.9    6.004      31.145     1023.4        203.884066    195.364738    nd            nd            8.100000      2008-04-16T21:32:34.97Z  
2132.9170   77575   43.1822  -70.4272  113.0    1.1    5.982      31.155     1023.4        204.158425    195.631329    nd            nd            8.100000      2008-04-16T21:32:55.02Z  
2133.2496   77595   43.1823  -70.4271  82.0     0.7    5.981      31.154     1023.4        204.351207    195.819168    nd            nd            8.100000      2008-04-16T21:33:14.98Z  
2133.5837   77615   43.1823  -70.4270  144.0    0.8    6.014      31.157     1023.4        204.373909    195.839200    nd            nd            8.100000      2008-04-16T21:33:35.02Z  
2133.9163   77635   43.1824  -70.4270  117.0    0.4    6.026      31.165     1023.4        204.606482    196.060603    nd            nd            8.100000      2008-04-16T21:33:54.98Z  
2134.2504   77655   43.1825  -70.4269  81.0     0.4    6.030      31.171     1023.4        204.483477    195.943130    nd            nd            8.100000      2008-04-16T21:34:15.02Z  
2134.5830   77675   43.1825  -70.4269  164.0    0.5    6.045      31.174     1023.4        204.219265    195.688800    nd            nd            8.100000      2008-04-16T21:34:34.98Z  
2134.9171   77695   43.1826  -70.4269  223.0    0.6    6.077      31.173     1023.4        204.254046    195.719727    nd            nd            8.100000      2008-04-16T21:34:55.03Z  
2135.2498   77715   43.1826  -70.4269  97.0     0.3    6.082      31.169     1023.4        204.628601    196.080470    nd            nd            8.100000      2008-04-16T21:35:14.99Z  
2135.5838   77735   43.1827  -70.4269  133.0    0.4    6.072      31.167     1023.4        204.624234    196.078607    nd            nd            8.100000      2008-04-16T21:35:35.03Z  
2135.9165   77755   43.1827  -70.4268  192.0    0.6    6.064      31.166     1023.4        204.658771    196.114781    nd            nd            8.100000      2008-04-16T21:35:54.99Z  
2136.2506   77775   43.1828  -70.4268  239.0    0.4    6.074      31.165     1023.4        204.636966    196.092760    nd            nd            8.100000      2008-04-16T21:36:15.04Z  
2136.5832   77795   43.1829  -70.4268  192.0    0.6    6.092      31.163     1023.5        204.602247    196.057570    nd            nd            8.100000      2008-04-16T21:36:34.99Z  
2136.9173   77815   43.1829  -70.4268  239.0    0.6    6.092      31.162     1023.5        204.639579    196.093724    nd            nd            8.100000      2008-04-16T21:36:55.04Z  
2137.2499   77835   43.1830  -70.4268  237.0    0.7    6.098      31.159     1023.4        204.708465    196.158134    nd            nd            8.100000      2008-04-16T21:37:14.99Z  
2137.5840   77855   43.1831  -70.4268  261.0    0.5    6.118      31.148     1023.5        204.879117    196.319442    nd            nd            8.100000      2008-04-16T21:37:35.04Z  
2137.9166   77875   43.1831  -70.4268  209.0    0.8    6.098      31.154     1023.5        204.823329    196.269464    nd            nd            8.100000      2008-04-16T21:37:55.00Z  
2138.2507   77895   43.1832  -70.4269  175.0    0.5    6.101      31.152     1023.4        204.828841    196.271493    nd            nd            8.100000      2008-04-16T21:38:15.04Z  
2138.5834   77915   43.1833  -70.4268  214.0    0.6    6.096      31.149     1023.4        204.793601    196.236281    nd            nd            8.100000      2008-04-16T21:38:35.00Z  
2138.9160   77935   43.1833  -70.4269  229.0    0.4    6.098      31.145     1023.4        204.781651    196.224372    nd            nd            8.100000      2008-04-16T21:38:54.96Z  
2139.2501   77955   43.1834  -70.4269  241.0    0.7    6.099      31.142     1023.4        204.889438    196.327958    nd            nd            8.100000      2008-04-16T21:39:15.01Z  
2139.5827   77975   43.1835  -70.4269  174.0    0.4    6.096      31.143     1023.4        204.689775    196.134912    nd            nd            8.100000      2008-04-16T21:39:34.96Z  
2139.9168   77995   43.1835  -70.4269  167.0    0.4    6.094      31.141     1023.4        204.742583    196.184285    nd            nd            8.100000      2008-04-16T21:39:55.01Z  
2140.2494   78015   43.1836  -70.4269  205.0    0.4    6.095      31.141     1023.4        204.709154    196.153606    nd            nd            8.100000      2008-04-16T21:40:14.96Z  
2140.5835   78035   43.1836  -70.4269  146.0    0.3    6.096      31.140     1023.4        204.528260    195.980554    nd            nd            8.100000      2008-04-16T21:40:35.01Z  
2140.9162   78055   43.1837  -70.4268  172.0    0.4    6.087      31.141     1023.4        204.457345    195.915288    nd            nd            8.100000      2008-04-16T21:40:54.97Z  
2141.2502   78075   43.1837  -70.4268  204.0    0.6    6.086      31.141     1023.4        204.488860    195.946567    nd            nd            8.100000      2008-04-16T21:41:15.01Z  
2141.5829   78095   43.1838  -70.4268  253.0    0.7    6.093      31.139     1023.4        204.622008    196.070772    nd            nd            8.100000      2008-04-16T21:41:34.97Z  
2141.9170   78115   43.1839  -70.4268  253.0    0.7    6.094      31.140     1023.4        204.741815    196.186308    nd            nd            8.100000      2008-04-16T21:41:55.02Z  
2142.2496   78135   43.1839  -70.4268  242.0    0.5    6.086      31.139     1023.4        204.832493    196.272834    nd            nd            8.100000      2008-04-16T21:42:14.98Z  
2142.5837   78155   43.1840  -70.4268  170.0    0.4    6.080      31.137     1023.4        204.791894    196.235470    nd            nd            8.100000      2008-04-16T21:42:35.02Z  
2142.9163   78175   43.1841  -70.4268  235.0    0.6    6.069      31.138     1023.4        204.809204    196.253486    nd            nd            8.100000      2008-04-16T21:42:54.98Z  
2143.2504   78195   43.1841  -70.4268  203.0    0.6    6.063      31.136     1023.4        204.826193    196.272314    nd            nd            8.100000      2008-04-16T21:43:15.02Z  
2143.5830   78215   43.1842  -70.4268  240.0    0.5    6.057      31.137     1023.4        204.909089    196.352463    nd            nd            8.100000      2008-04-16T21:43:34.98Z  
2143.9171   78235   43.1843  -70.4268  190.0    0.7    6.054      31.136     1023.4        204.855378    196.301757    nd            nd            8.100000      2008-04-16T21:43:55.03Z  
2144.2498   78255   43.1843  -70.4268  161.0    0.5    6.057      31.134     1023.4        204.706389    196.158506    nd            nd            8.100000      2008-04-16T21:44:14.99Z  
2144.5838   78275   43.1844  -70.4268  209.0    0.5    6.059      31.134     1023.4        204.606980    196.063867    nd            nd            8.100000      2008-04-16T21:44:35.03Z  
2144.9165   78295   43.1844  -70.4268  200.0    0.4    6.060      31.134     1023.4        204.481743    195.944944    nd            nd            8.100000      2008-04-16T21:44:54.99Z  
2145.2506   78315   43.1845  -70.4268  238.0    0.5    6.054      31.135     1023.4        204.428425    195.894045    nd            nd            8.100000      2008-04-16T21:45:15.04Z  
2145.5832   78335   43.1846  -70.4268  226.0    0.6    6.045      31.135     1023.5        204.543021    196.008248    nd            nd            8.100000      2008-04-16T21:45:34.99Z  
2145.9173   78355   43.1846  -70.4268  165.0    0.5    6.037      31.135     1023.5        204.527776    195.994270    nd            nd            8.100000      2008-04-16T21:45:55.04Z  
2146.2499   78375   43.1847  -70.4268  174.0    0.7    6.035      31.134     1023.5        204.477964    195.945735    nd            nd            8.100000      2008-04-16T21:46:14.99Z  
2146.5840   78395   43.1848  -70.4267  254.0    0.7    6.038      31.133     1023.5        204.467533    195.937332    nd            nd            8.100000      2008-04-16T21:46:35.04Z  
2146.9166   78415   43.1848  -70.4267  194.0    0.6    6.033      31.132     1023.5        204.534433    196.000205    nd            nd            8.100000      2008-04-16T21:46:55.00Z  
2147.2507   78435   43.1849  -70.4267  203.0    0.6    6.036      31.132     1023.5        204.548913    196.016267    nd            nd            8.100000      2008-04-16T21:47:15.04Z  
2147.5834   78455   43.1850  -70.4267  119.0    0.8    6.037      31.130     1023.5        204.697440    196.155380    nd            nd            8.100000      2008-04-16T21:47:35.00Z  
2147.9160   78475   43.1849  -70.4265  133.0    2.0    6.034      31.129     1023.4        204.579653    196.039046    nd            nd            8.100000      2008-04-16T21:47:54.96Z  
2148.2501   78495   43.1845  -70.4267  221.0    4.4    6.029      31.127     1023.4        204.428170    195.880968    nd            nd            8.100000      2008-04-16T21:48:15.01Z  
2148.5827   78515   43.1839  -70.4277  230.0    5.6    6.022      31.127     1023.4        204.445588    195.898797    nd            nd            8.100000      2008-04-16T21:48:34.96Z  
2148.9168   78535   43.1832  -70.4289  230.0    6.3    6.005      31.129     1023.3        204.780599    196.217565    nd            nd            8.100000      2008-04-16T21:48:55.01Z  
2149.2494   78555   43.1824  -70.4301  231.0    6.9    5.993      31.126     1023.3        205.131335    196.551936    nd            nd            8.100000      2008-04-16T21:49:14.96Z  
2149.5835   78575   43.1816  -70.4315  228.0    7.4    5.984      31.113     1023.3        205.417426    196.823220    nd            nd            8.100000      2008-04-16T21:49:35.01Z  
2149.9162   78595   43.1807  -70.4329  229.0    7.5    5.962      31.110     1023.3        205.440376    196.844604    nd            nd            8.100000      2008-04-16T21:49:54.97Z  
2150.2502   78615   43.1798  -70.4343  229.0    7.8    5.953      31.114     1023.3        205.257858    196.670388    nd            nd            8.100000      2008-04-16T21:50:15.01Z  
2150.5829   78635   43.1788  -70.4358  227.0    8.0    5.953      31.114     1023.3        205.147376    196.561852    401.210002    397.782471    8.100000      2008-04-16T21:50:34.97Z  
2150.9170   78655   43.1779  -70.4373  227.0    8.0    5.958      31.108     1023.3        205.087703    196.502903    400.941647    397.516181    8.100000      2008-04-16T21:50:55.02Z  
2151.2496   78675   43.1769  -70.4387  226.0    8.0    5.978      31.108     1023.3        205.080524    196.492810    400.964715    397.530221    8.100000      2008-04-16T21:51:14.98Z  
2151.5837   78695   43.1759  -70.4402  227.0    8.0    5.971      31.116     1023.2        205.105138    196.515124    400.966918    397.529218    8.100000      2008-04-16T21:51:35.02Z  
2151.9163   78715   43.1749  -70.4416  224.0    8.1    5.989      31.126     1023.2        205.142488    196.545906    401.119693    397.666625    8.100000      2008-04-16T21:51:54.98Z  
2152.2504   78735   43.1739  -70.4430  223.0    8.1    6.026      31.103     1023.2        205.180162    196.579164    401.039730    397.583385    8.100000      2008-04-16T21:52:15.02Z  
2152.5830   78755   43.1728  -70.4444  224.0    8.1    6.027      31.088     1023.3        205.386541    196.778478    401.203962    397.748210    8.100000      2008-04-16T21:52:34.98Z  
2152.9171   78775   43.1717  -70.4458  224.0    8.2    6.044      31.093     1023.3        205.604285    196.985938    401.045102    397.590802    8.100000      2008-04-16T21:52:55.03Z  
2153.2498   78795   43.1707  -70.4472  223.0    8.1    6.045      31.086     1023.3        205.565765    196.952505    401.141336    397.694513    8.100000      2008-04-16T21:53:14.99Z  
2153.5838   78815   43.1696  -70.4486  222.0    8.1    6.058      31.084     1023.3        205.717528    197.098672    401.289530    397.840994    8.100000      2008-04-16T21:53:35.03Z  
2153.9165   78835   43.1685  -70.4499  221.0    8.1    6.051      31.091     1023.3        205.860091    197.238218    nd            nd            8.100000      2008-04-16T21:53:54.99Z  
2154.2506   78855   43.1674  -70.4512  220.0    8.2    6.015      31.118     1023.3        205.927620    197.305258    nd            nd            8.100000      2008-04-16T21:54:15.04Z  
2154.5832   78875   43.1663  -70.4525  219.0    8.1    6.018      31.132     1023.3        205.714095    197.101866    401.152959    397.713728    8.100000      2008-04-16T21:54:34.99Z  
2154.9173   78895   43.1651  -70.4538  219.0    8.1    6.037      31.107     1023.3        205.832557    197.211967    401.087841    397.648270    8.100000      2008-04-16T21:54:55.04Z  
2155.2499   78915   43.1640  -70.4551  219.0    8.2    6.017      31.115     1023.3        205.956671    197.331771    401.215584    397.777172    8.100000      2008-04-16T21:55:14.99Z  
2155.5840   78935   43.1628  -70.4564  219.0    8.2    6.008      31.129     1023.3        205.928065    197.306387    401.318522    397.881693    8.100000      2008-04-16T21:55:35.04Z  
2155.9166   78955   43.1617  -70.4576  219.0    8.2    5.997      31.123     1023.3        205.892112    197.273476    401.071595    397.641662    8.100000      2008-04-16T21:55:55.00Z  
2156.2493   78975   43.1605  -70.4589  217.0    8.2    5.955      31.142     1023.3        205.911616    197.296888    400.969239    397.547068    8.100000      2008-04-16T21:56:14.96Z  
2156.5834   78995   43.1594  -70.4602  221.0    8.2    5.921      31.151     1023.3        205.707890    197.105245    400.626106    397.217845    8.100000      2008-04-16T21:56:35.00Z  
2156.9160   79015   43.1583  -70.4615  222.0    8.2    5.892      31.176     1023.3        205.551889    196.962310    nd            nd            8.100000      2008-04-16T21:56:54.96Z  
2157.2501   79035   43.1572  -70.4629  220.0    8.1    5.917      31.198     1023.3        205.300782    196.719239    401.023675    397.615973    8.100000      2008-04-16T21:57:15.01Z  
2157.5827   79055   43.1560  -70.4642  220.0    8.2    5.919      31.204     1023.3        205.180587    196.604542    401.113094    397.706421    8.100000      2008-04-16T21:57:34.96Z  
2157.9168   79075   43.1549  -70.4655  221.0    8.2    5.906      31.209     1023.3        205.238219    196.662337    401.015346    397.615270    8.100000      2008-04-16T21:57:55.01Z  
2158.2494   79095   43.1538  -70.4669  222.0    8.1    5.911      31.208     1023.3        205.203442    196.630003    400.830416    397.430777    8.100000      2008-04-16T21:58:14.96Z  
2158.5835   79115   43.1527  -70.4682  220.0    8.2    5.949      31.173     1023.3        205.259497    196.679158    nd            nd            8.100000      2008-04-16T21:58:35.01Z  
2158.9162   79135   43.1516  -70.4695  220.0    8.2    5.977      31.144     1023.3        205.257035    196.672694    400.967858    397.551659    8.100000      2008-04-16T21:58:54.97Z  
2159.2502   79155   43.1505  -70.4708  221.0    8.2    5.971      31.139     1023.3        205.579316    196.981162    400.786621    397.372487    8.100000      2008-04-16T21:59:15.01Z  
2159.5829   79175   43.1494  -70.4722  221.0    8.2    5.947      31.140     1023.3        205.632767    197.035294    400.818430    397.409980    8.100000      2008-04-16T21:59:34.97Z  
2159.9170   79195   43.1483  -70.4736  222.0    8.3    5.910      31.152     1023.3        205.565937    196.976966    400.822452    397.423748    8.127778      2008-04-16T21:59:55.02Z  
2200.2496   79215   43.1472  -70.4749  222.0    8.2    5.865      31.170     1023.3        205.542777    196.957973    400.718775    397.328316    8.200000      2008-04-16T22:00:14.98Z  
2200.5837   79235   43.1461  -70.4763  221.0    8.1    5.818      31.202     1023.3        205.229700    196.664964    400.841598    397.464968    8.200000      2008-04-16T22:00:35.02Z  
2200.9163   79255   43.1450  -70.4776  222.0    8.1    5.772      31.242     1023.3        204.933952    196.386869    400.662002    397.294389    8.200000      2008-04-16T22:00:54.98Z  
2201.2504   79275   43.1439  -70.4789  221.0    8.1    5.786      31.299     1023.3        204.596953    196.062697    400.860800    397.490018    8.200000      2008-04-16T22:01:15.02Z  
2201.5830   79295   43.1428  -70.4803  221.0    8.2    5.824      31.320     1023.3        204.485774    195.951323    400.855669    397.475871    8.200000      2008-04-16T22:01:34.98Z  
2201.9171   79315   43.1417  -70.4815  219.0    8.2    5.911      31.366     1023.3        204.798941    196.240388    400.703474    397.305519    8.200000      2008-04-16T22:01:55.03Z  
2202.2498   79335   43.1405  -70.4829  223.0    8.2    6.020      31.353     1023.3        205.456629    196.856133    400.703742    397.277093    8.200000      2008-04-16T22:02:14.99Z  
2202.5838   79355   43.1395  -70.4843  221.0    8.2    6.169      31.273     1023.3        206.206955    197.555893    400.938599    397.485570    8.200000      2008-04-16T22:02:35.03Z  
2202.9165   79375   43.1383  -70.4856  222.0    8.2    6.258      31.216     1023.3        207.106381    198.402180    400.690068    397.195252    8.200000      2008-04-16T22:02:54.99Z  
2203.2506   79395   43.1372  -70.4870  221.0    8.2    6.257      31.174     1023.3        208.121080    199.373721    400.559141    397.065697    8.200000      2008-04-16T22:03:15.04Z  
2203.5832   79415   43.1361  -70.4883  221.0    8.2    6.291      31.093     1023.3        208.873888    200.092349    400.607915    397.108934    8.200000      2008-04-16T22:03:34.99Z  
2203.9173   79435   43.1350  -70.4897  220.0    8.2    6.332      30.942     1023.3        209.415067    200.606144    400.446578    396.941059    8.200000      2008-04-16T22:03:55.04Z  
2204.2499   79455   43.1339  -70.4910  221.0    8.2    6.351      30.896     1023.3        209.787709    200.958927    400.455436    396.941700    8.200000      2008-04-16T22:04:14.99Z  
2204.5840   79475   43.1328  -70.4923  220.0    8.2    6.336      30.905     1023.3        209.979792    201.143498    400.541406    397.026396    8.200000      2008-04-16T22:04:35.04Z  
2204.9166   79495   43.1317  -70.4936  223.0    8.2    6.316      30.901     1023.2        210.158495    201.313192    nd            nd            8.200000      2008-04-16T22:04:55.00Z  
2205.2493   79515   43.1306  -70.4950  223.0    8.2    6.310      30.876     1023.2        210.119251    201.274592    400.622863    397.101322    8.200000      2008-04-16T22:05:14.96Z  
2205.5834   79535   43.1295  -70.4965  224.0    8.2    6.297      30.857     1023.2        210.135967    201.293481    400.501827    396.988535    8.200000      2008-04-16T22:05:35.00Z  
2205.9160   79555   43.1285  -70.4979  224.0    8.2    6.280      30.845     1023.2        210.106474    201.268219    400.426872    396.919412    8.200000      2008-04-16T22:05:54.96Z  
2206.2501   79575   43.1274  -70.4993  224.0    8.2    6.235      30.839     1023.2        210.047118    201.214894    400.369330    396.868958    8.200000      2008-04-16T22:06:15.01Z  
2206.5827   79595   43.1263  -70.5007  222.0    8.2    6.228      30.827     1023.2        209.823451    201.002328    400.440896    396.943570    8.200000      2008-04-16T22:06:34.96Z  
2206.9168   79615   43.1253  -70.5021  223.0    8.3    6.240      30.791     1023.2        209.792580    200.968258    400.528446    397.023275    8.200000      2008-04-16T22:06:55.01Z  
2207.2494   79635   43.1242  -70.5035  223.0    8.3    6.243      30.757     1023.2        209.631546    200.812368    nd            nd            8.200000      2008-04-16T22:07:14.96Z  
2207.5835   79655   43.1231  -70.5049  223.0    8.3    6.245      30.723     1023.2        209.557006    200.737586    400.291986    396.779848    8.200000      2008-04-16T22:07:35.01Z  
2207.9162   79675   43.1220  -70.5063  224.0    8.3    6.245      30.697     1023.2        209.402845    200.590307    400.209022    396.695143    8.200000      2008-04-16T22:07:54.97Z  
2208.2502   79695   43.1209  -70.5077  223.0    8.3    6.288      30.594     1023.2        209.203973    200.395323    400.259514    396.737691    8.200000      2008-04-16T22:08:15.01Z  
2208.5829   79715   43.1198  -70.5091  223.0    8.2    6.367      30.497     1023.2        209.259550    200.440616    400.338046    396.801239    8.200000      2008-04-16T22:08:34.97Z  
2208.9170   79735   43.1188  -70.5105  224.0    8.2    6.373      30.458     1023.2        209.071824    200.257469    400.264692    396.721836    8.200000      2008-04-16T22:08:55.02Z  
2209.2496   79755   43.1177  -70.5120  225.0    8.2    6.374      30.407     1023.2        209.021608    200.210786    400.423609    396.879154    8.200000      2008-04-16T22:09:14.98Z  
2209.5837   79775   43.1166  -70.5134  223.0    8.2    6.323      30.364     1023.2        208.647466    199.860165    399.989254    396.461623    8.200000      2008-04-16T22:09:35.02Z  
2209.9163   79795   43.1155  -70.5148  222.0    8.3    6.282      30.307     1023.2        208.162817    199.399269    400.310649    396.790208    8.200000      2008-04-16T22:09:54.98Z  
2210.2504   79815   43.1145  -70.5162  224.0    8.3    6.266      30.275     1023.2        207.616071    198.881030    400.163167    396.655543    8.200000      2008-04-16T22:10:15.02Z  
2210.5830   79835   43.1134  -70.5176  222.0    8.2    6.261      30.271     1023.2        206.922529    198.217793    400.004422    396.500666    8.200000      2008-04-16T22:10:34.98Z  
2210.9171   79855   43.1123  -70.5190  222.0    8.3    6.254      30.268     1023.2        206.307865    197.629827    400.002083    396.495659    8.200000      2008-04-16T22:10:55.03Z  
2211.2498   79875   43.1112  -70.5204  222.0    8.3    6.227      30.273     1023.2        205.889776    197.233643    400.036401    396.545452    8.200000      2008-04-16T22:11:14.99Z  
2211.5838   79895   43.1101  -70.5218  224.0    8.3    6.202      30.275     1023.2        205.435654    196.801811    400.029938    396.541523    8.200000      2008-04-16T22:11:35.03Z  
2211.9165   79915   43.1090  -70.5232  225.0    8.3    6.157      30.277     1023.2        205.174893    196.558415    399.912973    396.437487    8.200000      2008-04-16T22:11:54.99Z  
2212.2506   79935   43.1080  -70.5247  224.0    8.4    6.126      30.279     1023.2        204.822791    196.222993    399.873921    396.399920    8.200000      2008-04-16T22:12:15.04Z  
2212.5832   79955   43.1069  -70.5261  223.0    8.3    6.075      30.287     1023.2        204.346108    195.772812    399.918934    396.458938    8.200000      2008-04-16T22:12:34.99Z  
2212.9173   79975   43.1058  -70.5275  225.0    8.3    6.002      30.296     1023.2        204.194637    195.634159    399.857970    396.410640    8.200000      2008-04-16T22:12:55.04Z  
2213.2499   79995   43.1047  -70.5290  223.0    8.3    5.944      30.302     1023.2        203.801675    195.265182    399.859855    396.428368    8.200000      2008-04-16T22:13:14.99Z  
2213.5840   80015   43.1036  -70.5304  221.0    8.4    5.919      30.288     1023.2        203.495451    194.975649    399.819956    396.394886    8.200000      2008-04-16T22:13:35.04Z  
2213.9166   80035   43.1025  -70.5318  223.0    8.3    5.930      30.271     1023.2        203.290051    194.774988    399.576532    396.149525    8.200000      2008-04-16T22:13:55.00Z  
2214.2493   80055   43.1014  -70.5332  223.0    8.4    5.925      30.284     1023.2        203.223319    194.710019    399.484874    396.056572    8.200000      2008-04-16T22:14:14.96Z  
2214.5834   80075   43.1003  -70.5346  224.0    8.3    5.909      30.310     1023.2        202.954049    194.453384    399.766590    396.334125    8.200000      2008-04-16T22:14:35.00Z  
2214.9160   80095   43.0992  -70.5360  223.0    8.3    5.895      30.308     1023.2        202.945117    194.449737    399.808686    396.387289    8.200000      2008-04-16T22:14:54.96Z  
2215.2501   80115   43.0981  -70.5375  224.0    8.3    5.920      30.293     1023.2        203.052721    194.550005    399.762908    396.337385    8.200000      2008-04-16T22:15:15.01Z  
2215.5827   80135   43.0970  -70.5389  222.0    8.3    5.956      30.284     1023.2        203.135096    194.625031    399.556690    396.123637    8.200000      2008-04-16T22:15:34.96Z  
2215.9168   80155   43.0959  -70.5403  222.0    8.3    5.985      30.278     1023.2        203.500444    194.970678    399.722465    396.280147    8.200000      2008-04-16T22:15:55.01Z  
2216.2494   80175   43.0948  -70.5416  222.0    8.3    5.999      30.282     1023.2        203.711640    195.170515    399.686250    396.241547    8.200000      2008-04-16T22:16:14.96Z  
2216.5835   80195   43.0937  -70.5431  224.0    8.3    6.015      30.281     1023.2        204.034002    195.476963    399.861248    396.404405    8.200000      2008-04-16T22:16:35.01Z  
2216.9162   80215   43.0927  -70.5445  226.0    8.3    6.031      30.282     1023.2        204.371282    195.800760    399.843601    396.392749    8.200000      2008-04-16T22:16:54.97Z  
2217.2502   80235   43.0916  -70.5459  224.0    8.3    6.051      30.276     1023.2        204.746014    196.158010    399.814991    396.359611    8.200000      2008-04-16T22:17:15.01Z  
2217.5829   80255   43.0905  -70.5474  223.0    8.3    6.069      30.280     1023.2        204.994343    196.391760    399.796491    396.332529    8.200000      2008-04-16T22:17:34.97Z  
2217.9170   80275   43.0894  -70.5487  222.0    8.3    6.097      30.280     1023.2        205.183205    196.566829    399.979806    396.504513    8.200000      2008-04-16T22:17:55.02Z  
2218.2496   80295   43.0883  -70.5502  224.0    8.3    6.123      30.289     1023.2        205.476573    196.847872    399.687725    396.212829    8.200000      2008-04-16T22:18:14.98Z  
2218.5837   80315   43.0873  -70.5516  224.0    8.3    6.142      30.300     1023.2        205.673233    197.034477    399.881869    396.402460    8.200000      2008-04-16T22:18:35.02Z  
2218.9163   80335   43.0863  -70.5530  227.0    8.2    6.154      30.314     1023.2        205.820493    197.171022    nd            nd            8.200000      2008-04-16T22:18:54.98Z  
2219.2504   80355   43.0852  -70.5545  221.0    8.3    6.175      30.329     1023.2        206.035619    197.369373    399.691711    396.186010    8.200000      2008-04-16T22:19:15.02Z  
2219.5830   80375   43.0841  -70.5558  220.0    8.3    6.179      30.341     1023.2        206.157937    197.484774    399.612573    396.110188    8.200000      2008-04-16T22:19:34.98Z  
2219.9171   80395   43.0830  -70.5572  223.0    8.2    6.171      30.355     1023.2        206.224221    197.548767    399.580847    396.078650    8.200000      2008-04-16T22:19:55.03Z  
2220.2498   80415   43.0819  -70.5586  225.0    8.3    6.173      30.360     1023.2        206.359136    197.682620    399.726609    396.232501    8.200000      2008-04-16T22:20:14.99Z  
2220.5838   80435   43.0809  -70.5601  227.0    8.2    6.183      30.357     1023.2        206.438514    197.759192    399.804363    396.310963    8.200000      2008-04-16T22:20:35.03Z  
2220.9165   80455   43.0799  -70.5616  229.0    8.2    6.206      30.327     1023.2        206.645595    197.955340    399.794245    396.296841    8.200000      2008-04-16T22:20:54.99Z  
2221.2506   80475   43.0789  -70.5631  227.0    8.3    6.236      30.306     1023.2        206.954087    198.248098    399.912210    396.408882    8.200000      2008-04-16T22:21:15.04Z  
2221.5832   80495   43.0779  -70.5646  228.0    8.3    6.264      30.283     1023.2        207.458495    198.726982    400.128773    396.613640    8.200000      2008-04-16T22:21:34.99Z  
2221.9173   80515   43.0769  -70.5662  232.0    8.3    6.269      30.272     1023.2        208.254178    199.488633    400.065589    396.551789    8.200000      2008-04-16T22:21:55.04Z  
2222.2499   80535   43.0760  -70.5678  232.0    8.3    6.266      30.269     1023.2        209.088348    200.293247    400.067937    396.565004    8.200000      2008-04-16T22:22:14.99Z  
2222.5840   80555   43.0751  -70.5694  230.0    8.2    6.257      30.262     1023.3        209.710354    200.891923    399.822639    396.330394    8.200000      2008-04-16T22:22:35.04Z  
2222.9166   80575   43.0742  -70.5710  234.0    8.3    6.248      30.254     1023.3        210.159262    201.323640    400.458966    396.966423    8.200000      2008-04-16T22:22:55.00Z  
2223.2507   80595   43.0733  -70.5727  233.0    8.2    6.260      30.259     1023.3        210.365636    201.522068    nd            nd            8.200000      2008-04-16T22:23:15.04Z  
2223.5834   80615   43.0724  -70.5743  234.0    8.3    6.285      30.250     1023.3        210.549183    201.693685    400.225407    396.722081    8.200000      2008-04-16T22:23:35.00Z  
2223.9160   80635   43.0717  -70.5761  246.0    8.3    6.276      30.255     1023.3        210.781478    201.921006    400.082393    396.590509    8.200000      2008-04-16T22:23:54.96Z  
2224.2501   80655   43.0711  -70.5780  251.0    8.4    6.273      30.263     1023.3        210.855276    201.992805    400.128204    396.639477    8.200000      2008-04-16T22:24:15.01Z  
2224.5827   80675   43.0707  -70.5800  255.0    8.2    6.256      30.265     1023.3        210.860639    202.002965    400.151884    396.656387    8.200000      2008-04-16T22:24:34.96Z  
2224.9168   80695   43.0702  -70.5819  249.0    8.3    6.236      30.270     1023.3        210.705021    201.854331    400.192923    396.720687    8.200000      2008-04-16T22:24:55.01Z  
2225.2494   80715   43.0697  -70.5838  249.0    8.4    6.223      30.272     1023.3        210.746133    201.893799    400.215670    396.735831    8.200000      2008-04-16T22:25:14.96Z  
2225.5835   80735   43.0692  -70.5857  250.0    8.3    6.226      30.274     1023.3        210.743558    201.896019    400.311166    396.837412    8.200000      2008-04-16T22:25:35.01Z  
2225.9162   80755   43.0688  -70.5877  253.0    8.4    6.219      30.284     1023.3        210.479013    201.643698    400.566399    397.093375    8.200000      2008-04-16T22:25:54.97Z  
2226.2502   80775   43.0683  -70.5897  252.0    8.3    6.200      30.293     1023.3        210.403259    201.575560    nd            nd            8.200000      2008-04-16T22:26:15.01Z  
2226.5829   80795   43.0679  -70.5916  257.0    8.3    6.192      30.278     1023.3        210.247306    201.432517    400.607038    397.164743    8.200000      2008-04-16T22:26:34.97Z  
2226.9170   80815   43.0676  -70.5936  259.0    8.3    6.208      30.265     1023.4        210.005385    201.201032    400.511972    397.062770    8.200000      2008-04-16T22:26:55.02Z  
2227.2496   80835   43.0673  -70.5956  255.0    8.4    6.206      30.269     1023.4        209.962006    201.162105    400.555834    397.119160    8.200000      2008-04-16T22:27:14.98Z  
2227.5837   80855   43.0670  -70.5976  257.0    8.3    6.190      30.276     1023.4        210.119821    201.315289    400.482951    397.042430    8.200000      2008-04-16T22:27:35.02Z  
2227.9163   80875   43.0666  -70.5996  254.0    8.4    6.194      30.289     1023.4        210.046758    201.247985    400.498217    397.061454    8.200000      2008-04-16T22:27:54.98Z  
2228.2504   80895   43.0662  -70.6016  259.0    8.4    6.216      30.289     1023.4        209.985846    201.194687    400.559798    397.133689    8.200000      2008-04-16T22:28:15.02Z  
2228.5830   80915   43.0659  -70.6037  255.0    8.4    6.259      30.290     1023.4        210.147186    201.346071    400.413001    396.982158    8.200000      2008-04-16T22:28:34.98Z  
2228.9171   80935   43.0655  -70.6057  254.0    8.4    6.293      30.294     1023.4        210.358940    201.545358    400.427102    396.988795    8.200000      2008-04-16T22:28:55.03Z  
2229.2498   80955   43.0652  -70.6077  258.0    8.3    6.309      30.292     1023.5        210.668432    201.843541    400.532614    397.098219    8.200000      2008-04-16T22:29:14.99Z  
2229.5838   80975   43.0649  -70.6097  259.0    8.3    6.307      30.296     1023.5        210.938129    202.104702    400.708304    397.279135    8.200000      2008-04-16T22:29:35.03Z  
2229.9165   80995   43.0645  -70.6117  255.0    8.4    6.284      30.295     1023.5        211.203487    202.360096    400.668825    397.239329    8.200000      2008-04-16T22:29:54.99Z  
2230.2506   81015   43.0642  -70.6137  253.0    8.3    6.260      30.297     1023.5        211.265310    202.422994    400.704122    397.280666    8.200000      2008-04-16T22:30:15.04Z  
2230.5832   81035   43.0637  -70.6156  251.0    8.3    6.250      30.298     1023.5        211.235965    202.394401    400.539138    397.118892    8.200000      2008-04-16T22:30:34.99Z  
2230.9173   81055   43.0632  -70.6176  253.0    8.5    6.240      30.301     1023.5        210.949288    202.120398    400.616615    397.191182    8.200000      2008-04-16T22:30:55.04Z  
2231.2499   81075   43.0628  -70.6196  254.0    8.4    6.223      30.301     1023.5        210.723649    201.906465    nd            nd            8.200000      2008-04-16T22:31:14.99Z  
2231.5840   81095   43.0624  -70.6216  254.0    8.4    6.206      30.300     1023.5        210.568704    201.761824    400.499904    397.094291    8.200000      2008-04-16T22:31:35.04Z  
2231.9166   81115   43.0620  -70.6235  253.0    8.4    6.210      30.298     1023.5        210.536223    201.727895    400.321454    396.904191    8.200000      2008-04-16T22:31:55.00Z  
2232.2507   81135   43.0616  -70.6256  255.0    8.4    6.230      30.296     1023.4        210.400374    201.590061    400.642500    397.214487    8.200000      2008-04-16T22:32:15.04Z  
2232.5834   81155   43.0611  -70.6275  252.0    8.3    6.267      30.303     1023.4        210.385543    201.571724    400.365983    396.931972    8.200000      2008-04-16T22:32:35.00Z  
2232.9160   81175   43.0607  -70.6295  253.0    8.3    6.274      30.318     1023.4        210.602787    201.782246    400.244835    396.830537    8.200000      2008-04-16T22:32:54.96Z  
2233.2501   81195   43.0604  -70.6315  259.0    8.3    6.282      30.326     1023.5        210.692910    201.874404    400.506313    397.080745    8.200000      2008-04-16T22:33:15.01Z  
2233.5827   81215   43.0600  -70.6335  254.0    8.4    6.293      30.330     1023.5        210.749117    201.924432    400.479061    397.051423    8.200000      2008-04-16T22:33:34.96Z  
2233.9168   81235   43.0596  -70.6355  253.0    8.3    6.299      30.326     1023.4        210.812540    201.980888    400.529609    397.093103    8.200000      2008-04-16T22:33:55.01Z  
2234.2494   81255   43.0592  -70.6375  256.0    8.3    6.304      30.332     1023.5        210.845092    202.012135    400.640414    397.207718    8.200000      2008-04-16T22:34:14.96Z  
2234.5835   81275   43.0588  -70.6394  254.0    8.4    6.306      30.338     1023.4        210.845232    202.006968    400.863931    397.418868    8.200000      2008-04-16T22:34:35.01Z  
2234.9162   81295   43.0584  -70.6414  254.0    8.3    6.305      30.331     1023.4        210.845690    202.008393    400.514561    397.070675    8.200000      2008-04-16T22:34:54.97Z  
2235.2502   81315   43.0580  -70.6434  254.0    8.3    6.303      30.315     1023.4        211.013542    202.170650    nd            nd            8.200000      2008-04-16T22:35:15.01Z  
2235.5829   81335   43.0577  -70.6454  256.0    8.4    6.314      30.289     1023.4        211.177950    202.325389    nd            nd            8.200000      2008-04-16T22:35:34.97Z  
2235.9170   81355   43.0572  -70.6474  251.0    8.3    6.336      30.257     1023.5        211.300068    202.444884    nd            nd            8.200000      2008-04-16T22:35:55.02Z  
2236.2496   81375   43.0568  -70.6493  255.0    8.3    6.338      30.226     1023.5        211.703891    202.830700    400.418330    396.973864    8.200000      2008-04-16T22:36:14.98Z  
2236.5837   81395   43.0565  -70.6513  255.0    8.3    6.349      30.208     1023.5        212.042507    203.153696    400.408329    396.965398    8.200000      2008-04-16T22:36:35.02Z  
2236.9163   81415   43.0559  -70.6532  246.0    8.4    6.392      30.189     1023.5        212.204321    203.304858    nd            nd            8.200000      2008-04-16T22:36:54.98Z  
2237.2504   81435   43.0554  -70.6552  253.0    8.3    6.411      30.175     1023.5        212.738565    203.814334    nd            nd            8.200000      2008-04-16T22:37:15.02Z  
2237.5830   81455   43.0550  -70.6571  254.0    8.3    6.450      30.178     1023.5        213.061077    204.117205    400.278266    396.805965    8.200000      2008-04-16T22:37:34.98Z  
2237.9171   81475   43.0546  -70.6591  253.0    8.5    6.471      30.146     1023.4        213.534838    204.564081    400.430811    396.948364    8.200000      2008-04-16T22:37:55.03Z  
2238.2498   81495   43.0542  -70.6611  256.0    8.4    6.467      30.135     1023.4        214.128577    205.133654    400.465439    396.984595    8.200000      2008-04-16T22:38:14.99Z  
2238.5838   81515   43.0538  -70.6631  251.0    8.4    6.483      30.081     1023.4        214.343740    205.337588    400.593035    397.116809    8.200000      2008-04-16T22:38:35.03Z  
2238.9165   81535   43.0533  -70.6651  252.0    8.5    6.520      29.935     1023.4        214.761848    205.732390    400.168274    396.670072    8.200000      2008-04-16T22:38:54.99Z  
2239.2506   81555   43.0529  -70.6671  255.0    8.6    6.553      29.858     1023.4        215.523554    206.457466    400.406616    396.903190    8.200000      2008-04-16T22:39:15.04Z  
2239.5832   81575   43.0524  -70.6691  251.0    8.5    6.579      29.823     1023.4        216.266901    207.161161    400.411091    396.892493    8.200000      2008-04-16T22:39:34.99Z  
2239.9173   81595   43.0520  -70.6711  253.0    8.6    6.576      29.777     1023.4        216.997015    207.862613    400.311439    396.797274    8.200000      2008-04-16T22:39:55.04Z  
2240.2499   81615   43.0515  -70.6731  252.0    8.6    6.589      29.693     1023.4        217.446026    208.289071    400.326926    396.805849    8.200000      2008-04-16T22:40:14.99Z  
2240.5840   81635   43.0511  -70.6751  254.0    8.6    6.629      29.624     1023.4        217.938665    208.756399    400.469349    396.939273    8.200000      2008-04-16T22:40:35.04Z  
2240.9166   81655   43.0507  -70.6771  255.0    8.5    6.642      29.545     1023.4        218.488914    209.278527    400.726880    397.186629    8.200000      2008-04-16T22:40:55.00Z  
2241.2493   81675   43.0503  -70.6792  255.0    8.5    6.621      29.389     1023.4        219.186029    209.947119    400.939422    397.397995    8.200000      2008-04-16T22:41:14.96Z  
2241.5834   81695   43.0498  -70.6812  254.0    8.6    6.554      29.299     1023.4        220.069075    210.800062    401.195755    397.664617    8.200000      2008-04-16T22:41:35.00Z  
2241.9160   81715   43.0494  -70.6832  254.0    8.6    6.431      29.288     1023.3        221.326213    212.013930    401.242224    397.716790    8.200000      2008-04-16T22:41:54.96Z  
2242.2501   81735   43.0490  -70.6852  260.0    8.4    6.314      29.075     1023.3        222.545589    213.196410    400.896499    397.411294    8.200000      2008-04-16T22:42:15.01Z  
2242.5827   81755   43.0490  -70.6873  269.0    8.6    6.282      28.607     1023.3        223.505300    214.116177    401.152915    397.663433    8.200000      2008-04-16T22:42:34.96Z  
2242.9168   81775   43.0488  -70.6894  264.0    8.6    6.255      28.299     1023.3        223.441370    214.057996    401.049952    397.567352    8.200000      2008-04-16T22:42:55.01Z  
2243.2494   81795   43.0490  -70.6915  288.0    8.3    6.218      28.256     1023.3        223.239798    213.872784    400.728283    397.255878    8.200000      2008-04-16T22:43:14.96Z  
2243.5835   81815   43.0498  -70.6931  311.0    8.2    6.150      28.307     1023.4        222.279549    212.966561    400.235532    396.800513    8.200000      2008-04-16T22:43:35.01Z  
2243.9162   81835   43.0508  -70.6946  312.0    8.2    6.153      27.469     1023.4        220.517303    211.276364    400.102022    396.663287    8.200000      2008-04-16T22:43:54.97Z  
2244.2502   81855   43.0519  -70.6959  322.0    8.2    6.257      26.388     1023.4        218.253620    209.091531    400.227770    396.759220    8.200000      2008-04-16T22:44:15.01Z  
2244.5829   81875   43.0530  -70.6973  315.0    8.3    6.358      25.548     1023.4        215.682162    206.615850    400.129223    396.639874    8.200000      2008-04-16T22:44:34.97Z  
2244.9170   81895   43.0542  -70.6985  332.0    8.2    6.413      24.993     1023.4        213.008381    204.045730    400.254108    396.745589    8.200000      2008-04-16T22:44:55.02Z  
2245.2496   81915   43.0555  -70.6994  332.0    8.3    6.432      25.237     1023.4        210.502576    201.645848    400.288194    396.781315    8.200000      2008-04-16T22:45:14.98Z  
2245.5837   81935   43.0569  -70.7002  338.0    8.4    6.390      25.116     1023.4        208.513092    199.745034    400.390865    396.893294    8.200000      2008-04-16T22:45:35.02Z  
2245.9163   81955   43.0583  -70.7010  338.0    8.3    6.353      24.600     1023.4        207.221270    198.511679    400.386633    396.895197    8.200000      2008-04-16T22:45:54.98Z  
2246.2504   81975   43.0597  -70.7017  340.0    8.4    6.348      24.219     1023.4        206.776650    198.085525    400.472058    396.980235    8.200000      2008-04-16T22:46:15.02Z  
2246.5830   81995   43.0611  -70.7023  343.0    8.4    6.375      23.994     1023.4        206.327682    197.652489    400.432985    396.935276    8.200000      2008-04-16T22:46:34.98Z  
2246.9171   82015   43.0626  -70.7029  343.0    8.4    6.388      24.259     1023.4        205.817400    197.161268    400.495825    396.993998    8.200000      2008-04-16T22:46:55.03Z  
2247.2498   82035   43.0641  -70.7034  349.0    8.3    6.382      23.967     1023.4        205.141171    196.513575    400.496712    396.994134    8.200000      2008-04-16T22:47:14.99Z  
2247.5838   82055   43.0655  -70.7039  343.0    8.4    6.471      22.540     1023.4        204.847856    196.220548    400.583896    397.058603    8.200000      2008-04-16T22:47:35.03Z  
2247.9165   82075   43.0670  -70.7044  345.0    8.3    6.584      21.803     1023.4        203.927246    195.325295    400.559350    397.008194    8.200000      2008-04-16T22:47:54.99Z  
2248.2506   82095   43.0684  -70.7050  342.0    8.3    6.602      22.401     1023.4        202.751945    194.197167    400.545125    396.989281    8.200000      2008-04-16T22:48:15.04Z  
2248.5832   82115   43.0699  -70.7055  349.0    8.5    6.648      21.613     1023.4        202.151865    193.615674    400.365968    396.796666    8.200000      2008-04-16T22:48:34.99Z  
2248.9173   82135   43.0714  -70.7058  348.0    8.5    6.721      21.148     1023.4        201.633377    193.111923    400.380345    396.799202    8.200000      2008-04-16T22:48:55.04Z  
2249.2499   82155   43.0728  -70.7065  335.0    7.5    6.749      21.301     1023.4        200.959231    192.469376    nd            nd            8.200000      2008-04-16T22:49:14.99Z  
2249.5840   82175   43.0738  -70.7073  322.0    6.0    6.746      21.459     1023.4        200.535079    192.064852    nd            nd            8.200000      2008-04-16T22:49:35.04Z  
2249.9166   82195   43.0745  -70.7083  308.0    5.7    6.757      21.178     1023.4        200.544933    192.072233    nd            nd            8.200000      2008-04-16T22:49:55.00Z  
2250.2493   82215   43.0750  -70.7095  294.0    5.7    6.777      20.919     1023.4        200.462998    191.989244    nd            nd            8.200000      2008-04-16T22:50:14.96Z  
2250.5834   82235   43.0753  -70.7108  282.0    5.7    6.807      20.781     1023.4        200.159141    191.693445    nd            nd            8.200000      2008-04-16T22:50:35.00Z  
2250.9160   82255   43.0754  -70.7122  271.0    5.7    6.820      20.737     1023.4        199.930077    191.469361    nd            nd            8.200000      2008-04-16T22:50:54.96Z  
2251.2501   82275   43.0754  -70.7136  271.0    5.8    6.849      20.305     1023.4        199.764297    191.305441    nd            nd            8.200000      2008-04-16T22:51:15.01Z  
2251.5827   82295   43.0754  -70.7151  269.0    5.8    6.889      20.015     1023.4        199.624379    191.164929    nd            nd            8.200000      2008-04-16T22:51:34.96Z  
2251.9168   82315   43.0754  -70.7165  268.0    6.0    6.906      20.118     1023.4        199.408980    190.954701    nd            nd            8.200000      2008-04-16T22:51:55.01Z  
2252.2494   82335   43.0753  -70.7180  266.0    6.0    6.901      20.343     1023.3        199.304736    190.851275    nd            nd            8.200000      2008-04-16T22:52:14.96Z  
2252.5835   82355   43.0752  -70.7195  265.0    6.1    6.889      20.521     1023.3        199.437453    190.973781    nd            nd            8.200000      2008-04-16T22:52:35.01Z  
2252.9162   82375   43.0752  -70.7210  268.0    6.2    6.861      20.896     1023.3        199.433009    190.971772    nd            nd            8.200000      2008-04-16T22:52:54.97Z  
2253.2502   82395   43.0751  -70.7225  265.0    6.3    6.835      20.840     1023.3        199.324695    190.867305    nd            nd            8.200000      2008-04-16T22:53:15.01Z  
2253.5829   82415   43.0750  -70.7241  264.0    6.3    6.836      20.538     1023.3        199.465356    190.999694    nd            nd            8.200000      2008-04-16T22:53:34.97Z  
=========================
date      month  day  year  day_of_year  
-------------------------
20110616  06     16   2011  167          
=========================
time        secDay  lat      lon       heading  speed  temp       sal        pressure_atm  xCO2_w        fCO2_w        xCO2_a        fCO2_a        air_temp      ISO_DateTime_UTC  
-------------------------
1053.5829   39215   43.0722  -70.7111  122.0    0.0    15.561     27.298     1010.5        nd            nd            nd            nd            13.900000     2011-06-16T10:53:34.97Z  
1053.9170   39235   43.0721  -70.7111  276.0    0.0    15.563     27.297     1010.5        nd            nd            nd            nd            13.900000     2011-06-16T10:53:55.02Z  
1054.2496   39255   43.0721  -70.7111  250.0    0.0    15.564     27.293     1010.4        nd            nd            nd            nd            13.900000     2011-06-16T10:54:14.98Z  
1054.5837   39275   43.0721  -70.7111  213.0    0.0    15.564     27.292     1010.4        nd            nd            nd            nd            13.900000     2011-06-16T10:54:35.02Z  
1054.9163   39295   43.0721  -70.7111  231.0    0.0    15.567     27.285     1010.4        nd            nd            nd            nd            13.900000     2011-06-16T10:54:54.98Z  
1055.2504   39315   43.0721  -70.7111  211.0    0.0    15.572     27.274     1010.4        nd            nd            nd            nd            13.900000     2011-06-16T10:55:15.02Z  
1055.5830   39335   43.0721  -70.7111  223.0    0.0    15.578     27.269     1010.4        nd            nd            nd            nd            13.900000     2011-06-16T10:55:34.98Z  
1055.9171   39355   43.0721  -70.7111  226.0    0.0    15.581     27.268     1010.4        nd            nd            nd            nd            13.900000     2011-06-16T10:55:55.03Z  
1056.2498   39375   43.0721  -70.7111  203.0    0.0    15.583     27.269     1010.3        nd            nd            nd            nd            13.900000     2011-06-16T10:56:14.99Z  
1056.5838   39395   43.0721  -70.7111  211.0    0.0    15.585     27.269     1010.3        nd            nd            nd            nd            13.900000     2011-06-16T10:56:35.03Z  
1056.9165   39415   43.0721  -70.7111  227.0    0.0    15.590     27.259     1010.3        nd            nd            nd            nd            13.900000     2011-06-16T10:56:54.99Z  
1057.2506   39435   43.0721  -70.7111  195.0    0.0    15.596     27.251     1010.3        nd            nd            nd            nd            13.900000     2011-06-16T10:57:15.04Z  
1057.5832   39455   43.0721  -70.7111  194.0    0.0    15.602     27.242     1010.3        nd            nd            nd            nd            13.900000     2011-06-16T10:57:34.99Z  
1057.9173   39475   43.0721  -70.7111  206.0    0.0    15.608     27.236     1010.3        nd            nd            nd            nd            13.900000     2011-06-16T10:57:55.04Z  
1058.2499   39495   43.0721  -70.7111  225.0    0.0    15.613     27.234     1010.3        nd            nd            nd            nd            13.900000     2011-06-16T10:58:14.99Z  
1058.5840   39515   43.0721  -70.7111  234.0    0.0    15.616     27.234     1010.2        nd            nd            nd            nd            13.900000     2011-06-16T10:58:35.04Z  
1058.9166   39535   43.0721  -70.7111  233.0    0.0    15.622     27.227     1010.2        nd            nd            nd            nd            13.900000     2011-06-16T10:58:55.00Z  
1059.2507   39555   43.0721  -70.7111  214.0    0.0    15.628     27.215     1010.3        nd            nd            nd            nd            13.900000     2011-06-16T10:59:15.04Z  
1059.5834   39575   43.0721  -70.7111  205.0    0.0    15.634     27.207     1010.3        nd            nd            nd            nd            13.900000     2011-06-16T10:59:35.00Z  
1059.9002   39594   43.0721  -70.7111  221.0    0.0    15.638     27.202     1010.3        nd            nd            nd            nd            14.033333     2011-06-16T10:59:54.01Z  
1100.2501   39615   43.0721  -70.7111  242.0    0.0    15.644     27.195     1010.4        nd            nd            nd            nd            14.700000     2011-06-16T11:00:15.01Z  
1100.5827   39635   43.0721  -70.7111  226.0    0.1    15.647     27.192     1010.4        nd            nd            nd            nd            14.700000     2011-06-16T11:00:34.96Z  
1100.9168   39655   43.0721  -70.7111  68.0     0.1    15.651     27.186     1010.5        nd            nd            nd            nd            14.700000     2011-06-16T11:00:55.01Z  
1101.2494   39675   43.0721  -70.7111  146.0    0.0    15.654     27.180     1010.6        nd            nd            nd            nd            14.700000     2011-06-16T11:01:14.96Z  
1101.5835   39695   43.0721  -70.7111  169.0    0.0    15.657     27.173     1010.6        nd            nd            nd            nd            14.700000     2011-06-16T11:01:35.01Z  
1101.9162   39715   43.0721  -70.7111  223.0    0.0    15.662     27.165     1010.6        475.591002    464.481299    nd            nd            14.700000     2011-06-16T11:01:54.97Z  
1102.2502   39735   43.0721  -70.7111  157.0    0.0    15.668     27.160     1010.7        475.398088    464.320365    nd            nd            14.700000     2011-06-16T11:02:15.01Z  
1102.5829   39755   43.0721  -70.7111  170.0    0.0    15.673     27.157     1010.8        475.621065    464.563206    nd            nd            14.700000     2011-06-16T11:02:34.97Z  
1102.9170   39775   43.0721  -70.7111  172.0    0.0    15.675     27.157     1010.8        476.067350    465.012034    nd            nd            14.700000     2011-06-16T11:02:55.02Z  
1103.2496   39795   43.0721  -70.7111  185.0    0.0    15.676     27.158     1010.8        476.590736    465.527704    nd            nd            14.700000     2011-06-16T11:03:14.98Z  
1103.5837   39815   43.0721  -70.7111  195.0    0.0    15.677     27.156     1010.8        477.074075    466.000707    nd            nd            14.700000     2011-06-16T11:03:35.02Z  
1103.9163   39835   43.0721  -70.7111  192.0    0.0    15.679     27.155     1010.8        477.253583    466.182816    nd            nd            14.700000     2011-06-16T11:03:54.98Z  
1104.2504   39855   43.0721  -70.7111  191.0    0.0    15.679     27.155     1010.8        477.515855    466.435709    nd            nd            14.700000     2011-06-16T11:04:15.02Z  
1104.5830   39875   43.0721  -70.7111  184.0    0.0    15.679     27.156     1010.8        477.690008    466.610236    nd            nd            14.700000     2011-06-16T11:04:34.98Z  
1104.9171   39895   43.0721  -70.7111  203.0    0.0    15.678     27.155     1010.8        477.969101    466.870411    nd            nd            14.700000     2011-06-16T11:04:55.03Z  
1105.2498   39915   43.0721  -70.7111  212.0    0.0    15.677     27.154     1010.8        478.018013    466.915952    nd            nd            14.700000     2011-06-16T11:05:14.99Z  
1105.5838   39935   43.0721  -70.7111  181.0    0.0    15.677     27.152     1010.8        478.066960    466.961689    nd            nd            14.700000     2011-06-16T11:05:35.03Z  
1105.9165   39955   43.0721  -70.7111  156.0    0.0    15.677     27.153     1010.8        478.050469    466.946237    nd            nd            14.700000     2011-06-16T11:05:54.99Z  
1106.2506   39975   43.0721  -70.7111  192.0    0.0    15.677     27.153     1010.8        478.004955    466.890619    nd            nd            14.700000     2011-06-16T11:06:15.04Z  
1106.5832   39995   43.0721  -70.7111  232.0    0.0    15.677     27.153     1010.7        478.151302    467.025150    nd            nd            14.700000     2011-06-16T11:06:34.99Z  
1106.9173   40015   43.0721  -70.7111  200.0    0.0    15.678     27.153     1010.7        478.337298    467.203985    nd            nd            14.700000     2011-06-16T11:06:55.04Z  
1107.2499   40035   43.0721  -70.7111  203.0    0.0    15.678     27.153     1010.7        478.289998    467.146412    nd            nd            14.700000     2011-06-16T11:07:14.99Z  
1107.5840   40055   43.0721  -70.7111  202.0    0.0    15.677     27.154     1010.7        478.296994    467.155647    nd            nd            14.700000     2011-06-16T11:07:35.04Z  
1107.9166   40075   43.0721  -70.7111  199.0    0.0    15.676     27.154     1010.7        478.207893    467.071826    nd            nd            14.700000     2011-06-16T11:07:55.00Z  
1108.2493   40095   43.0721  -70.7111  191.0    0.0    15.673     27.155     1010.7        478.087266    466.963434    nd            nd            14.700000     2011-06-16T11:08:14.96Z  
1108.5834   40115   43.0721  -70.7111  224.0    0.0    15.671     27.158     1010.8        478.084335    466.971307    nd            nd            14.700000     2011-06-16T11:08:35.00Z  
1108.9160   40135   43.0721  -70.7111  185.0    0.0    15.670     27.159     1010.8        478.014405    466.914738    nd            nd            14.700000     2011-06-16T11:08:54.96Z  
1109.2501   40155   43.0721  -70.7111  179.0    0.0    15.671     27.157     1010.8        477.975844    466.876587    nd            nd            14.700000     2011-06-16T11:09:15.01Z  
1109.5827   40175   43.0721  -70.7111  189.0    0.0    15.673     27.154     1010.8        478.117565    467.019284    nd            nd            14.700000     2011-06-16T11:09:34.96Z  
1109.9168   40195   43.0721  -70.7111  193.0    0.0    15.676     27.153     1010.8        478.000108    466.910088    nd            nd            14.700000     2011-06-16T11:09:55.01Z  
1110.2494   40215   43.0721  -70.7111  192.0    0.0    15.680     27.150     1010.8        477.896086    466.816436    nd            nd            14.700000     2011-06-16T11:10:14.96Z  
1110.5835   40235   43.0721  -70.7111  211.0    0.0    15.683     27.145     1010.8        477.997518    466.913017    nd            nd            14.700000     2011-06-16T11:10:35.01Z  
1110.9162   40255   43.0721  -70.7111  208.0    0.0    15.686     27.138     1010.8        477.993339    466.916386    nd            nd            14.700000     2011-06-16T11:10:54.97Z  
1111.2502   40275   43.0721  -70.7111  189.0    0.0    15.690     27.131     1010.8        478.032434    466.951701    nd            nd            14.700000     2011-06-16T11:11:15.01Z  
1111.5829   40295   43.0721  -70.7111  168.0    0.0    15.691     27.127     1010.9        478.501599    467.415906    nd            nd            14.700000     2011-06-16T11:11:34.97Z  
1111.9170   40315   43.0721  -70.7111  190.0    0.0    15.692     27.126     1010.9        478.680162    467.593619    nd            nd            14.700000     2011-06-16T11:11:55.02Z  
1112.2496   40335   43.0721  -70.7111  197.0    0.0    15.694     27.128     1010.9        478.903903    467.818834    nd            nd            14.700000     2011-06-16T11:12:14.98Z  
1112.5837   40355   43.0721  -70.7111  176.0    0.0    15.695     27.124     1010.9        479.039331    467.954316    nd            nd            14.700000     2011-06-16T11:12:35.02Z  
1112.9163   40375   43.0721  -70.7111  195.0    0.0    15.698     27.120     1010.9        479.230472    468.144176    nd            nd            14.700000     2011-06-16T11:12:54.98Z  
1113.2504   40395   43.0721  -70.7111  187.0    0.0    15.700     27.119     1010.9        479.358926    468.267574    nd            nd            14.700000     2011-06-16T11:13:15.02Z  
1113.5830   40415   43.0721  -70.7111  200.0    0.0    15.702     27.118     1010.9        479.411939    468.319186    nd            nd            14.700000     2011-06-16T11:13:34.98Z  
1113.9171   40435   43.0721  -70.7111  211.0    0.0    15.706     27.119     1010.9        479.663597    468.558919    nd            nd            14.700000     2011-06-16T11:13:55.03Z  
1114.2498   40455   43.0721  -70.7111  212.0    0.0    15.710     27.120     1010.9        479.634556    468.526715    nd            nd            14.700000     2011-06-16T11:14:14.99Z  
1114.5838   40475   43.0721  -70.7111  192.0    0.0    15.709     27.121     1010.9        479.719579    468.607658    nd            nd            14.700000     2011-06-16T11:14:35.03Z  
1114.9165   40495   43.0721  -70.7111  216.0    0.0    15.708     27.123     1010.9        479.865955    468.747498    nd            nd            14.700000     2011-06-16T11:14:54.99Z  
1115.2506   40515   43.0721  -70.7111  234.0    0.0    15.707     27.124     1010.9        479.959615    468.837298    nd            nd            14.700000     2011-06-16T11:15:15.04Z  
1115.5832   40535   43.0721  -70.7111  190.0    0.0    15.705     27.125     1010.9        480.072035    468.948663    nd            nd            14.700000     2011-06-16T11:15:34.99Z  
1115.9173   40555   43.0721  -70.7111  176.0    0.0    15.704     27.125     1010.9        479.843579    468.720633    nd            nd            14.700000     2011-06-16T11:15:55.04Z  
1116.2499   40575   43.0721  -70.7111  215.0    0.0    15.708     27.125     1010.9        479.904822    468.775487    nd            nd            14.700000     2011-06-16T11:16:14.99Z  
1116.5840   40595   43.0721  -70.7111  185.0    0.0    15.714     27.117     1010.9        480.106366    468.970562    nd            nd            14.700000     2011-06-16T11:16:35.04Z  
1116.9166   40615   43.0721  -70.7111  180.0    0.0    15.716     27.115     1010.9        480.222767    469.080551    nd            nd            14.700000     2011-06-16T11:16:55.00Z  
1117.2507   40635   43.0721  -70.7111  205.0    0.0    15.714     27.113     1010.8        480.259451    469.113466    nd            nd            14.700000     2011-06-16T11:17:15.04Z  
1117.5834   40655   43.0721  -70.7111  218.0    0.0    15.714     27.114     1010.8        480.558034    469.401256    nd            nd            14.700000     2011-06-16T11:17:35.00Z  
1117.9160   40675   43.0721  -70.7111  187.0    0.0    15.716     27.112     1010.8        480.626116    469.468015    nd            nd            14.700000     2011-06-16T11:17:54.96Z  
1118.2501   40695   43.0721  -70.7111  178.0    0.0    15.718     27.109     1010.8        480.790793    469.628718    nd            nd            14.700000     2011-06-16T11:18:15.01Z  
1118.5827   40715   43.0721  -70.7111  213.0    0.0    15.720     27.107     1010.8        480.972997    469.806238    nd            nd            14.700000     2011-06-16T11:18:34.96Z  
1118.9168   40735   43.0721  -70.7111  197.0    0.0    15.721     27.106     1010.8        481.100997    469.931542    nd            nd            14.700000     2011-06-16T11:18:55.01Z  
1119.2494   40755   43.0721  -70.7111  183.0    0.0    15.723     27.102     1010.8        481.029414    469.858428    nd            nd            14.700000     2011-06-16T11:19:14.96Z  
1119.5835   40775   43.0721  -70.7111  191.0    0.0    15.725     27.099     1010.8        481.299760    470.120117    nd            nd            14.700000     2011-06-16T11:19:35.01Z  
1119.9162   40795   43.0721  -70.7111  205.0    0.0    15.729     27.093     1010.8        481.486410    470.299838    nd            nd            14.700000     2011-06-16T11:19:54.97Z  
1120.2502   40815   43.0721  -70.7111  214.0    0.0    15.730     27.093     1010.8        481.411725    470.227167    nd            nd            14.700000     2011-06-16T11:20:15.01Z  
1120.5829   40835   43.0721  -70.7111  181.0    0.0    15.733     27.092     1010.8        481.402699    470.220520    nd            nd            14.700000     2011-06-16T11:20:34.97Z  
1120.9170   40855   43.0721  -70.7111  169.0    0.0    15.735     27.093     1010.8        481.394410    470.212916    nd            nd            14.700000     2011-06-16T11:20:55.02Z  
1121.2496   40875   43.0721  -70.7111  210.0    0.0    15.735     27.092     1010.9        481.544405    470.363353    nd            nd            14.700000     2011-06-16T11:21:14.98Z  
1121.5837   40895   43.0721  -70.7111  147.0    0.0    15.737     27.090     1010.9        481.476810    470.296618    nd            nd            14.700000     2011-06-16T11:21:35.02Z  
1121.9163   40915   43.0721  -70.7111  198.0    0.0    15.739     27.090     1010.9        481.440529    470.264377    nd            nd            14.700000     2011-06-16T11:21:54.98Z  
1122.2504   40935   43.0721  -70.7111  181.0    0.0    15.741     27.089     1010.9        481.403676    470.233060    nd            nd            14.700000     2011-06-16T11:22:15.02Z  
1122.5830   40955   43.0721  -70.7111  184.0    0.0    15.741     27.090     1010.9        481.650504    470.480769    nd            nd            14.700000     2011-06-16T11:22:34.98Z  
1122.9171   40975   43.0721  -70.7111  144.0    0.0    15.741     27.090     1010.9        481.638917    470.472997    nd            nd            14.700000     2011-06-16T11:22:55.03Z  
1123.2498   40995   43.0721  -70.7111  98.0     0.0    15.740     27.090     1010.9        481.846706    470.679699    nd            nd            14.700000     2011-06-16T11:23:14.99Z  
1123.5838   41015   43.0721  -70.7111  138.0    0.0    15.739     27.090     1010.9        482.014970    470.853397    nd            nd            14.700000     2011-06-16T11:23:35.03Z  
1123.9165   41035   43.0721  -70.7111  187.0    0.0    15.741     27.091     1010.9        482.118445    470.944738    nd            nd            14.700000     2011-06-16T11:23:54.99Z  
1124.2506   41055   43.0721  -70.7110  141.0    0.2    15.743     27.091     1010.9        481.961581    470.790647    nd            nd            14.700000     2011-06-16T11:24:15.04Z  
1124.5832   41075   43.0720  -70.7111  184.0    0.6    15.745     27.091     1010.9        482.170906    470.991175    nd            nd            14.700000     2011-06-16T11:24:34.99Z  
1124.9173   41095   43.0721  -70.7108  59.0     1.6    15.747     27.089     1010.9        482.127461    470.954505    nd            nd            14.700000     2011-06-16T11:24:55.04Z  
1125.2499   41115   43.0725  -70.7104  28.0     2.6    15.750     27.086     1010.9        481.941196    470.777228    nd            nd            14.700000     2011-06-16T11:25:14.99Z  
1125.5840   41135   43.0730  -70.7102  23.0     3.0    15.754     27.083     1010.9        481.864838    470.700871    nd            nd            14.700000     2011-06-16T11:25:35.04Z  
1125.9166   41155   43.0733  -70.7095  64.0     3.5    15.756     27.079     1010.9        481.978932    470.805986    nd            nd            14.700000     2011-06-16T11:25:55.00Z  
1126.2493   41175   43.0733  -70.7085  98.0     4.1    15.758     27.077     1010.9        482.118874    470.935479    nd            nd            14.700000     2011-06-16T11:26:14.96Z  
1126.5834   41195   43.0729  -70.7076  119.0    4.1    15.761     27.075     1010.9        481.799854    470.615819    nd            nd            14.700000     2011-06-16T11:26:35.00Z  
1126.9160   41215   43.0724  -70.7069  136.0    4.1    15.763     27.073     1010.9        482.002940    470.812020    nd            nd            14.700000     2011-06-16T11:26:54.96Z  
1127.2501   41235   43.0717  -70.7064  154.0    4.1    15.764     27.073     1010.9        481.957581    470.752864    nd            nd            14.700000     2011-06-16T11:27:15.01Z  
1127.5827   41255   43.0708  -70.7062  169.0    5.3    15.764     27.073     1010.8        481.933507    470.716582    nd            nd            14.700000     2011-06-16T11:27:34.96Z  
1127.9168   41275   43.0698  -70.7060  173.0    5.9    15.763     27.072     1010.8        481.726660    470.500774    nd            nd            14.700000     2011-06-16T11:27:55.01Z  
1128.2494   41295   43.0686  -70.7057  171.0    7.1    15.766     27.071     1010.8        481.746301    470.529097    nd            nd            14.700000     2011-06-16T11:28:14.96Z  
1128.5835   41315   43.0672  -70.7055  172.0    7.7    15.768     27.070     1010.8        481.884330    470.663637    nd            nd            14.700000     2011-06-16T11:28:35.01Z  
1128.9162   41335   43.0657  -70.7051  170.0    8.1    15.768     27.070     1010.8        481.870285    470.646772    nd            nd            14.700000     2011-06-16T11:28:54.97Z  
1129.2502   41355   43.0643  -70.7046  166.0    8.4    15.770     27.070     1010.8        482.020349    470.793255    nd            nd            14.700000     2011-06-16T11:29:15.01Z  
1129.5829   41375   43.0628  -70.7041  165.0    8.7    15.771     27.070     1010.8        482.150666    470.931059    nd            nd            14.700000     2011-06-16T11:29:34.97Z  
1129.9170   41395   43.0613  -70.7034  162.0    8.7    15.771     27.070     1010.8        482.241076    471.017497    nd            nd            14.700000     2011-06-16T11:29:55.02Z  
1130.2496   41415   43.0598  -70.7028  162.0    8.7    15.772     27.070     1010.8        482.316571    471.089579    nd            nd            14.700000     2011-06-16T11:30:14.98Z  
1130.5837   41435   43.0583  -70.7020  160.0    8.8    15.776     27.070     1010.9        482.639553    471.415308    nd            nd            14.700000     2011-06-16T11:30:35.02Z  
1130.9163   41455   43.0569  -70.7011  155.0    8.8    15.777     27.068     1010.9        483.441217    472.192967    nd            nd            14.700000     2011-06-16T11:30:54.98Z  
1131.2504   41475   43.0554  -70.7002  154.0    8.8    15.781     27.068     1010.9        484.342071    473.069331    nd            nd            14.700000     2011-06-16T11:31:15.02Z  
1131.5830   41495   43.0541  -70.6991  150.0    8.8    15.785     27.066     1010.9        485.245589    473.959120    nd            nd            14.700000     2011-06-16T11:31:34.98Z  
1131.9171   41515   43.0528  -70.6980  147.0    8.7    15.787     27.069     1010.9        485.820844    474.520735    nd            nd            14.700000     2011-06-16T11:31:55.03Z  
1132.2498   41535   43.0514  -70.6970  153.0    8.7    15.787     27.079     1010.9        486.497839    475.180924    nd            nd            14.700000     2011-06-16T11:32:14.99Z  
1132.5838   41555   43.0500  -70.6961  154.0    8.8    15.787     27.083     1010.9        487.189434    475.861156    nd            nd            14.700000     2011-06-16T11:32:35.03Z  
1132.9165   41575   43.0487  -70.6949  143.0    8.6    15.792     27.071     1010.9        487.900197    476.553718    nd            nd            14.700000     2011-06-16T11:32:54.99Z  
1133.2506   41595   43.0475  -70.6935  139.0    8.6    15.801     27.041     1010.9        488.326022    476.972080    423.328198    413.490804    14.700000     2011-06-16T11:33:15.04Z  
1133.5832   41615   43.0464  -70.6920  136.0    8.6    15.811     27.018     1010.9        488.437163    477.068548    422.974730    413.125966    14.700000     2011-06-16T11:33:34.99Z  
1133.9173   41635   43.0455  -70.6904  127.0    8.5    15.827     26.973     1010.9        488.262636    476.889119    423.116922    413.261005    14.700000     2011-06-16T11:33:55.04Z  
1134.2499   41655   43.0448  -70.6886  118.0    8.5    15.844     26.943     1010.9        487.864810    476.492636    423.418705    413.548882    14.700000     2011-06-16T11:34:14.99Z  
1134.5840   41675   43.0443  -70.6866  106.0    8.5    15.855     26.950     1010.9        487.077552    475.724065    423.414529    413.545099    14.700000     2011-06-16T11:34:35.04Z  
1134.9166   41695   43.0442  -70.6845  92.0     8.6    15.859     26.987     1010.9        485.287921    473.979134    423.372558    413.506704    14.700000     2011-06-16T11:34:55.00Z  
1135.2493   41715   43.0443  -70.6823  87.0     8.9    15.862     27.016     1010.9        482.233013    470.990628    423.571282    413.693372    14.700000     2011-06-16T11:35:14.96Z  
1135.5834   41735   43.0445  -70.6801  83.0     8.9    15.860     27.050     1010.9        478.667183    467.517194    422.692281    412.827190    14.700000     2011-06-16T11:35:35.00Z  
1135.9160   41755   43.0447  -70.6779  83.0     9.0    15.851     27.091     1010.9        474.709285    463.665722    nd            nd            14.700000     2011-06-16T11:35:54.96Z  
1136.2501   41775   43.0449  -70.6757  82.0     9.0    15.827     27.188     1010.9        471.137227    460.189830    nd            nd            14.700000     2011-06-16T11:36:15.01Z  
1136.5827   41795   43.0452  -70.6736  80.0     9.0    15.782     27.326     1011.0        467.697559    456.860210    nd            nd            14.700000     2011-06-16T11:36:34.96Z  
1136.9168   41815   43.0455  -70.6714  81.0     9.0    15.720     27.483     1011.0        465.058545    454.317220    424.820917    415.018287    14.700000     2011-06-16T11:36:55.01Z  
1137.2494   41835   43.0458  -70.6692  79.0     9.0    15.675     27.526     1011.0        462.588921    451.928283    424.632476    414.846642    14.700000     2011-06-16T11:37:14.96Z  
1137.5835   41855   43.0460  -70.6670  80.0     9.1    15.659     27.520     1011.0        460.460099    449.857083    424.543861    414.769764    14.700000     2011-06-16T11:37:35.01Z  
1137.9162   41875   43.0463  -70.6648  80.0     9.1    15.654     27.519     1011.0        458.611373    448.046797    nd            nd            14.700000     2011-06-16T11:37:54.97Z  
1138.2502   41895   43.0466  -70.6626  79.0     9.1    15.656     27.506     1010.9        456.840209    446.302781    426.596827    416.753093    14.700000     2011-06-16T11:38:15.01Z  
1138.5829   41915   43.0470  -70.6604  78.0     9.1    15.656     27.512     1010.9        455.015788    444.513866    426.571870    416.726488    14.700000     2011-06-16T11:38:34.97Z  
1138.9170   41935   43.0473  -70.6583  79.0     9.0    15.655     27.510     1010.9        452.717680    442.261608    426.295799    416.468465    14.700000     2011-06-16T11:38:55.02Z  
1139.2496   41955   43.0477  -70.6561  76.0     9.0    15.649     27.516     1010.9        449.944566    439.546196    nd            nd            14.700000     2011-06-16T11:39:14.98Z  
1139.5837   41975   43.0480  -70.6540  76.0     9.0    15.637     27.535     1010.9        445.965610    435.663953    nd            nd            14.700000     2011-06-16T11:39:35.02Z  
1139.9163   41995   43.0484  -70.6518  78.0     9.0    15.626     27.562     1010.9        440.565466    430.391791    nd            nd            14.700000     2011-06-16T11:39:54.98Z  
1140.2504   42015   43.0487  -70.6497  77.0     9.0    15.622     27.577     1010.9        433.966690    423.948483    423.946424    414.163005    14.700000     2011-06-16T11:40:15.02Z  
1140.5830   42035   43.0491  -70.6475  77.0     9.0    15.605     27.645     1010.9        425.914404    416.095306    424.878526    415.085194    14.700000     2011-06-16T11:40:34.98Z  
1140.9171   42055   43.0495  -70.6454  77.0     9.0    15.562     27.765     1010.9        417.234990    407.637140    424.678738    414.906603    14.700000     2011-06-16T11:40:55.03Z  
1141.2498   42075   43.0498  -70.6432  77.0     9.0    15.505     27.904     1010.9        408.356564    398.993367    425.069801    415.322677    14.700000     2011-06-16T11:41:14.99Z  
1141.5838   42095   43.0502  -70.6411  79.0     9.0    15.434     28.070     1010.9        400.309860    391.160098    nd            nd            14.700000     2011-06-16T11:41:35.03Z  
1141.7667   42106   43.0504  -70.6398  76.0     9.0    15.384     28.201     1010.9        395.793184    386.765197    nd            nd            14.700000     2011-06-16T11:41:46.00Z  
nd          nd      nd       nd        nd       nd     nd         nd         nd            nd            nd            nd            nd            nd            nd                
nd          nd      nd       nd        nd       nd     nd         nd         nd            nd            nd            nd            nd            nd            nd                
nd          nd      nd       nd        nd       nd     nd         nd         nd            nd            nd            nd            nd            nd            nd                
nd          nd      nd       nd        nd       nd     nd         nd         nd            nd            nd            nd            nd            nd            nd                
nd          nd      nd       nd        nd       nd     nd         nd         nd            nd            nd            nd            nd            nd            nd                
nd          nd      nd       nd        nd       nd     nd         nd         nd            nd            nd            nd            nd            nd            nd                
nd          nd      nd       nd        nd       nd     nd         nd         nd            nd            nd            nd            nd            nd            nd                
nd          nd      nd       nd        nd       nd     nd         nd         nd            nd            nd            nd            nd            nd            nd                
nd          nd      nd       nd        nd       nd     nd         nd         nd            nd            nd            nd            nd            nd            nd                
nd          nd      nd       nd        nd       nd     nd         nd         nd            nd            nd            nd            nd            nd            nd                
nd          nd      nd       nd        nd       nd     nd         nd         nd            nd            nd            nd            nd            nd            nd                
nd          nd      nd       nd        nd       nd     nd         nd         nd            nd            nd            nd            nd            nd            nd                
nd          nd      nd       nd        nd       nd     nd         nd         nd            nd            nd            nd            nd            nd            nd                
nd          nd      nd       nd        nd       nd     nd         nd         nd            nd            nd            nd            nd            nd            nd                
nd          nd      nd       nd        nd       nd     nd         nd         nd            nd            nd            nd            nd            nd            nd                
nd          nd      nd       nd        nd       nd     nd         nd         nd            nd            nd            nd            nd            nd            nd                
nd          nd      nd       nd        nd       nd     nd         nd         nd            nd            nd            nd            nd            nd            nd                
nd          nd      nd       nd        nd       nd     nd         nd         nd            nd            nd            nd            nd            nd            nd                
nd          nd      nd       nd        nd       nd     nd         nd         nd            nd            nd            nd            nd            nd            nd                
nd          nd      nd       nd        nd       nd     nd         nd         nd            nd            nd            nd            nd            nd            nd                
nd          nd      nd       nd        nd       nd     nd         nd         nd            nd            nd            nd            nd            nd            nd                
nd          nd      nd       nd        nd       nd     nd         nd         nd            nd            nd            nd            nd            nd            nd                
nd          nd      nd       nd        nd       nd     nd         nd         nd            nd            nd            nd            nd            nd            nd                
nd          nd      nd       nd        nd       nd     nd         nd         nd            nd            nd            nd            nd            nd            nd                
1150.3506   42621   43.0657  -70.5877  68.0     8.9    14.754     29.020     1010.9        323.070151    315.914483    nd            nd            14.700000     2011-06-16T11:50:21.04Z  
1150.5838   42635   43.0662  -70.5864  65.0     8.9    14.757     29.021     1010.9        323.117580    315.960290    424.368280    414.960203    14.700000     2011-06-16T11:50:35.03Z  
1150.9165   42655   43.0668  -70.5844  69.0     8.9    14.760     29.023     1010.9        322.913873    315.750024    424.845371    415.418369    14.700000     2011-06-16T11:50:54.99Z  
1151.2506   42675   43.0674  -70.5823  69.0     8.9    14.755     29.055     1010.9        323.086506    315.921726    425.109594    415.682182    14.700000     2011-06-16T11:51:15.04Z  
1151.5832   42695   43.0680  -70.5803  69.0     8.9    14.720     29.133     1010.9        323.046603    315.891127    425.363935    415.941971    14.700000     2011-06-16T11:51:34.99Z  
1151.9173   42715   43.0686  -70.5783  65.0     8.8    14.694     29.164     1010.9        323.126543    315.978761    425.406557    415.996103    14.700000     2011-06-16T11:51:55.04Z  
1152.2499   42735   43.0692  -70.5763  67.0     8.8    14.674     29.162     1010.9        323.571829    316.425188    425.417796    416.021542    14.700000     2011-06-16T11:52:14.99Z  
1152.5840   42755   43.0700  -70.5744  61.0     8.8    14.652     29.154     1010.9        324.035419    316.887594    425.479556    416.093830    14.700000     2011-06-16T11:52:35.04Z  
1152.9166   42775   43.0709  -70.5726  55.0     8.8    14.632     29.165     1010.9        324.418816    317.271172    425.574582    416.199828    14.700000     2011-06-16T11:52:55.00Z  
1153.2493   42795   43.0719  -70.5710  50.0     8.8    14.614     29.197     1010.9        324.863133    317.718750    425.383322    416.026985    14.700000     2011-06-16T11:53:14.96Z  
1153.5834   42815   43.0729  -70.5693  48.0     8.8    14.586     29.225     1010.9        324.991467    317.856444    425.653344    416.308177    14.700000     2011-06-16T11:53:35.00Z  
1153.9160   42835   43.0740  -70.5678  48.0     8.7    14.537     29.269     1010.9        325.378283    318.250532    425.668989    416.344101    14.700000     2011-06-16T11:53:54.96Z  
1154.2501   42855   43.0750  -70.5662  47.0     8.8    14.485     29.290     1010.9        325.663550    318.549363    425.906457    416.599463    14.700000     2011-06-16T11:54:15.01Z  
1154.5827   42875   43.0761  -70.5646  47.0     8.7    14.446     29.295     1010.9        325.788348    318.681888    nd            nd            14.700000     2011-06-16T11:54:34.96Z  
1154.9168   42895   43.0772  -70.5631  47.0     8.7    14.413     29.319     1010.9        325.808254    318.716065    425.968170    416.697377    14.700000     2011-06-16T11:54:55.01Z  
1155.2494   42915   43.0783  -70.5615  46.0     8.7    14.332     29.482     1010.9        326.009171    318.936184    425.983774    416.733965    14.700000     2011-06-16T11:55:14.96Z  
1155.5835   42935   43.0793  -70.5600  47.0     8.7    14.238     29.577     1010.9        326.117878    319.070185    426.296358    417.086043    14.700000     2011-06-16T11:55:35.01Z  
1155.9162   42955   43.0804  -70.5585  45.0     8.7    14.169     29.563     1010.9        326.223404    319.198383    426.240760    417.061763    14.700000     2011-06-16T11:55:54.97Z  
1156.2502   42975   43.0815  -70.5569  48.0     8.7    14.117     29.539     1010.9        326.634822    319.614994    426.407663    417.243416    14.700000     2011-06-16T11:56:15.01Z  
1156.5829   42995   43.0825  -70.5553  47.0     8.7    14.084     29.518     1010.9        327.239145    320.219972    426.321206    417.172090    14.700000     2011-06-16T11:56:34.97Z  
1156.9170   43015   43.0836  -70.5537  47.0     8.7    14.060     29.500     1010.9        327.686864    320.659986    427.092664    417.936209    14.700000     2011-06-16T11:56:55.02Z  
1157.2496   43035   43.0847  -70.5521  47.0     8.7    14.062     29.496     1010.9        328.328988    321.290526    426.959546    417.809921    14.700000     2011-06-16T11:57:14.98Z  
1157.5837   43055   43.0857  -70.5506  48.0     8.8    14.074     29.489     1010.9        328.600368    321.550834    427.050908    417.883221    14.700000     2011-06-16T11:57:35.02Z  
1157.9163   43075   43.0868  -70.5490  48.0     8.8    14.076     29.479     1010.9        328.800662    321.742963    427.349567    418.176359    14.700000     2011-06-16T11:57:54.98Z  
1158.2504   43095   43.0878  -70.5474  47.0     8.7    14.059     29.467     1010.9        328.920845    321.868061    427.373240    418.209259    14.700000     2011-06-16T11:58:15.02Z  
1158.5830   43115   43.0890  -70.5459  45.0     8.7    14.028     29.460     1010.9        328.803002    321.755334    427.595052    418.430375    14.700000     2011-06-16T11:58:34.98Z  
1158.9171   43135   43.0900  -70.5443  47.0     8.8    13.994     29.460     1010.9        328.695405    321.657114    427.739818    418.580553    14.700000     2011-06-16T11:58:55.03Z  
1159.2498   43155   43.0912  -70.5428  42.0     8.8    13.969     29.466     1010.9        328.386730    321.363990    427.915241    418.763869    14.700000     2011-06-16T11:59:14.99Z  
1159.5838   43175   43.0924  -70.5414  41.0     8.8    13.959     29.472     1010.9        327.967953    320.953401    428.187437    419.029233    14.700000     2011-06-16T11:59:35.03Z  
1159.9006   43194   43.0935  -70.5400  42.0     8.8    13.956     29.478     1010.9        327.376639    320.373336    428.265333    419.103623    14.783333     2011-06-16T11:59:54.04Z  
1200.2506   43215   43.0947  -70.5384  45.0     8.8    13.965     29.481     1010.9        326.923488    319.922307    428.498293    419.321684    15.200000     2011-06-16T12:00:15.04Z  
1200.5832   43235   43.0958  -70.5369  45.0     8.8    13.981     29.483     1010.8        326.335249    319.334706    428.488762    419.296657    15.200000     2011-06-16T12:00:34.99Z  
1200.9173   43255   43.0969  -70.5354  42.0     8.8    14.005     29.490     1010.8        325.826405    318.827939    428.586564    419.380738    15.200000     2011-06-16T12:00:55.04Z  
1201.2499   43275   43.0982  -70.5340  39.0     8.7    14.014     29.490     1010.8        325.262668    318.271875    428.835211    419.618191    15.200000     2011-06-16T12:01:14.99Z  
1201.5840   43295   43.0993  -70.5326  43.0     8.7    14.017     29.493     1010.8        325.170286    318.176318    428.840209    419.616270    15.200000     2011-06-16T12:01:35.04Z  
1201.9166   43315   43.1005  -70.5311  43.0     8.7    14.014     29.500     1010.8        324.826900    317.836446    428.797106    419.569592    15.200000     2011-06-16T12:01:55.00Z  
1202.2507   43335   43.1016  -70.5296  44.0     8.8    14.011     29.513     1010.8        324.843430    317.854809    428.917789    419.684573    15.200000     2011-06-16T12:02:15.04Z  
1202.5834   43355   43.1028  -70.5282  40.0     8.8    14.035     29.605     1010.8        324.786004    317.792838    428.992814    419.755737    15.200000     2011-06-16T12:02:35.00Z  
1202.9160   43375   43.1041  -70.5269  36.0     8.8    14.156     29.779     1010.8        324.772733    317.741158    429.138979    419.847620    15.200000     2011-06-16T12:02:54.96Z  
1203.2501   43395   43.1053  -70.5256  39.0     8.8    14.333     29.898     1010.8        325.027705    317.937130    429.147556    419.785415    15.200000     2011-06-16T12:03:15.01Z  
1203.5827   43415   43.1066  -70.5242  39.0     8.9    14.418     29.921     1010.8        325.406707    318.277715    429.268092    419.863535    15.200000     2011-06-16T12:03:34.96Z  
1203.9168   43435   43.1078  -70.5228  41.0     8.9    14.435     29.917     1010.8        326.146349    318.992993    429.518747    420.101366    15.200000     2011-06-16T12:03:55.01Z  
1204.2494   43455   43.1090  -70.5213  41.0     8.9    14.421     29.903     1010.8        326.924065    319.757934    nd            nd            15.200000     2011-06-16T12:04:14.96Z  
1204.5835   43475   43.1102  -70.5198  42.0     8.9    14.390     29.903     1010.8        327.745858    320.571491    429.476612    420.079289    15.200000     2011-06-16T12:04:35.01Z  
1204.9162   43495   43.1114  -70.5184  40.0     8.9    14.398     29.942     1010.8        328.534660    321.340452    429.699671    420.287090    15.200000     2011-06-16T12:04:54.97Z  
1205.2502   43515   43.1126  -70.5169  44.0     8.9    14.469     29.961     1010.8        329.270826    322.034367    429.778465    420.332968    15.200000     2011-06-16T12:05:15.01Z  
1205.5829   43535   43.1137  -70.5154  43.0     8.8    14.529     29.966     1010.8        329.669273    322.410037    429.690348    420.228508    15.200000     2011-06-16T12:05:34.97Z  
1205.9170   43555   43.1149  -70.5140  41.0     8.8    14.567     29.968     1010.8        330.177049    322.891366    430.016980    420.528074    15.200000     2011-06-16T12:05:55.02Z  
1206.2496   43575   43.1161  -70.5126  41.0     8.7    14.581     29.969     1010.8        330.584902    323.285785    430.015763    420.521110    15.200000     2011-06-16T12:06:14.98Z  
1206.5837   43595   43.1173  -70.5112  42.0     8.8    14.571     29.965     1010.8        331.196566    323.885766    430.208611    420.712068    15.200000     2011-06-16T12:06:35.02Z  
1206.9163   43615   43.1184  -70.5097  42.0     8.8    14.499     29.891     1010.8        331.757682    324.454040    430.199908    420.726143    15.200000     2011-06-16T12:06:54.98Z  
1207.2504   43635   43.1196  -70.5083  43.0     8.7    14.405     29.826     1010.8        332.373813    325.089500    nd            nd            15.200000     2011-06-16T12:07:15.02Z  
1207.5830   43655   43.1208  -70.5069  39.0     8.6    14.355     29.802     1010.8        332.839973    325.560736    nd            nd            15.200000     2011-06-16T12:07:34.98Z  
1207.9171   43675   43.1220  -70.5056  40.0     8.6    14.338     29.792     1010.8        333.181954    325.899748    430.758509    421.337520    15.200000     2011-06-16T12:07:55.03Z  
1208.2498   43695   43.1232  -70.5042  41.0     8.6    14.321     29.782     1010.8        333.501637    326.216591    430.867823    421.455743    15.200000     2011-06-16T12:08:14.99Z  
1208.5838   43715   43.1243  -70.5028  42.0     8.7    14.320     29.789     1010.8        333.644178    326.353443    431.124337    421.703321    15.200000     2011-06-16T12:08:35.03Z  
1208.9165   43735   43.1255  -70.5013  43.0     8.8    14.366     29.838     1010.8        333.667052    326.363514    431.311365    421.870357    15.200000     2011-06-16T12:08:54.99Z  
1209.2506   43755   43.1267  -70.4999  40.0     8.8    14.413     29.840     1010.8        333.662560    326.340146    431.442454    421.974043    15.200000     2011-06-16T12:09:15.04Z  
1209.5832   43775   43.1279  -70.4985  41.0     8.8    14.419     29.813     1010.7        333.662002    326.332007    431.479128    422.000097    15.200000     2011-06-16T12:09:34.99Z  
1209.9173   43795   43.1291  -70.4970  43.0     8.8    14.400     29.801     1010.7        333.744002    326.414870    431.517148    422.039869    15.200000     2011-06-16T12:09:55.04Z  
1210.2499   43815   43.1302  -70.4956  41.0     8.8    14.371     29.799     1010.7        333.664233    326.341254    431.757022    422.282138    15.200000     2011-06-16T12:10:14.99Z  
1210.5840   43835   43.1314  -70.4942  40.0     8.7    14.356     29.812     1010.7        333.537481    326.212825    431.727614    422.236980    15.200000     2011-06-16T12:10:35.04Z  
1210.9166   43855   43.1326  -70.4928  43.0     8.7    14.385     29.864     1010.7        333.127997    325.802061    431.912984    422.414473    15.200000     2011-06-16T12:10:55.00Z  
1211.2493   43875   43.1338  -70.4913  41.0     8.7    14.335     29.826     1010.7        332.740362    325.432044    432.061258    422.571299    15.200000     2011-06-16T12:11:14.96Z  
1211.5834   43895   43.1349  -70.4899  41.0     8.7    14.078     29.696     1010.6        332.609949    325.383447    432.102288    422.713990    15.200000     2011-06-16T12:11:35.00Z  
1211.9160   43915   43.1361  -70.4885  44.0     8.7    13.919     29.633     1010.6        332.859210    325.673896    432.292346    422.960441    15.200000     2011-06-16T12:11:54.96Z  
1212.2501   43935   43.1372  -70.4871  42.0     8.6    13.895     29.578     1010.6        332.918270    325.739424    432.237399    422.916733    15.200000     2011-06-16T12:12:15.01Z  
1212.5827   43955   43.1384  -70.4857  41.0     8.6    13.928     29.559     1010.6        332.651686    325.470422    432.115455    422.786807    15.200000     2011-06-16T12:12:34.96Z  
1212.9168   43975   43.1395  -70.4842  44.0     8.7    13.969     29.534     1010.6        332.189235    325.005121    432.396627    423.045203    15.200000     2011-06-16T12:12:55.01Z  
1213.2494   43995   43.1407  -70.4828  40.0     8.7    14.017     29.510     1010.6        331.677473    324.490985    432.485991    423.115375    15.200000     2011-06-16T12:13:14.96Z  
1213.5835   44015   43.1419  -70.4814  41.0     8.7    14.087     29.461     1010.6        331.359700    324.155049    nd            nd            15.200000     2011-06-16T12:13:35.01Z  
1213.9162   44035   43.1431  -70.4800  40.0     8.7    14.184     29.419     1010.6        331.028409    323.800563    433.313588    423.834612    15.200000     2011-06-16T12:13:54.97Z  
1214.2502   44055   43.1443  -70.4787  40.0     8.6    14.248     29.398     1010.6        330.658875    323.414416    433.200689    423.713990    15.200000     2011-06-16T12:14:15.01Z  
1214.5829   44075   43.1455  -70.4773  40.0     8.7    14.287     29.386     1010.6        330.052984    322.806314    nd            nd            15.200000     2011-06-16T12:14:34.97Z  
1214.9170   44095   43.1466  -70.4759  42.0     8.7    14.312     29.361     1010.6        329.503776    322.262917    434.283774    424.738729    15.200000     2011-06-16T12:14:55.02Z  
1215.2496   44115   43.1478  -70.4745  41.0     8.6    14.336     29.341     1010.6        329.111845    321.869589    434.330941    424.773116    15.200000     2011-06-16T12:15:14.98Z  
1215.5837   44135   43.1490  -70.4731  40.0     8.7    14.359     29.335     1010.6        328.715063    321.474307    434.485246    424.914467    15.200000     2011-06-16T12:15:35.02Z  
1215.9163   44155   43.1502  -70.4717  41.0     8.6    14.372     29.333     1010.6        328.336009    321.097663    434.666699    425.084062    15.200000     2011-06-16T12:15:54.98Z  
1216.2504   44175   43.1513  -70.4703  41.0     8.6    14.374     29.328     1010.6        328.004179    320.771385    434.843951    425.255068    15.200000     2011-06-16T12:16:15.02Z  
1216.5830   44195   43.1525  -70.4689  43.0     8.7    14.375     29.321     1010.6        327.842229    320.609121    434.829530    425.235810    15.200000     2011-06-16T12:16:34.98Z  
1216.9171   44215   43.1536  -70.4674  44.0     8.6    14.371     29.312     1010.6        327.592144    320.367736    434.800741    425.211885    15.200000     2011-06-16T12:16:55.03Z  
1217.2498   44235   43.1548  -70.4660  41.0     8.6    14.365     29.309     1010.6        327.650923    320.425984    434.826944    425.238520    15.200000     2011-06-16T12:17:14.99Z  
1217.5838   44255   43.1559  -70.4646  42.0     8.6    14.358     29.304     1010.6        327.589032    320.366385    435.009097    425.417888    15.200000     2011-06-16T12:17:35.03Z  
1217.9165   44275   43.1571  -70.4632  40.0     8.6    14.351     29.298     1010.6        327.611371    320.388794    435.092348    425.500055    15.200000     2011-06-16T12:17:54.99Z  
1218.2506   44295   43.1583  -70.4619  39.0     8.6    14.343     29.282     1010.6        327.635280    320.415666    435.047397    425.460721    15.200000     2011-06-16T12:18:15.04Z  
1218.5832   44315   43.1595  -70.4605  40.0     8.5    14.345     29.271     1010.6        327.626484    320.399499    435.344734    425.741450    15.200000     2011-06-16T12:18:34.99Z  
1218.9173   44335   43.1606  -70.4591  43.0     8.6    14.351     29.260     1010.5        327.684498    320.446888    435.286712    425.672302    15.200000     2011-06-16T12:18:55.04Z  
1219.2499   44355   43.1618  -70.4577  42.0     8.6    14.359     29.245     1010.6        327.814372    320.572206    435.269312    425.653041    15.200000     2011-06-16T12:19:14.99Z  
1219.5840   44375   43.1629  -70.4562  43.0     8.6    14.373     29.229     1010.5        328.041044    320.787084    435.267360    425.642138    15.200000     2011-06-16T12:19:35.04Z  
1219.9166   44395   43.1641  -70.4549  40.0     8.6    14.393     29.214     1010.5        328.170249    320.906984    435.282525    425.653256    15.200000     2011-06-16T12:19:55.00Z  
1220.2493   44415   43.1653  -70.4535  42.0     8.5    14.410     29.202     1010.5        328.372423    321.097225    435.542320    425.892982    15.200000     2011-06-16T12:20:14.96Z  
1220.5834   44435   43.1664  -70.4521  43.0     8.5    14.431     29.191     1010.5        328.604493    321.315797    435.473754    425.812567    15.200000     2011-06-16T12:20:35.00Z  
1220.9160   44455   43.1676  -70.4508  38.0     8.6    14.447     29.185     1010.5        328.586923    321.294102    435.525075    425.858640    15.200000     2011-06-16T12:20:54.96Z  
1221.2501   44475   43.1688  -70.4494  41.0     8.7    14.449     29.207     1010.5        328.989818    321.690103    435.835088    426.167803    15.200000     2011-06-16T12:21:15.01Z  
1221.5827   44495   43.1699  -70.4480  40.0     8.7    14.415     29.284     1010.6        329.213495    321.925528    435.667646    426.022877    15.200000     2011-06-16T12:21:34.96Z  
1221.9168   44515   43.1711  -70.4466  42.0     8.6    14.378     29.328     1010.6        329.524541    322.242485    435.624435    425.997536    15.200000     2011-06-16T12:21:55.01Z  
1222.2494   44535   43.1722  -70.4452  44.0     8.5    14.351     29.341     1010.6        329.922450    322.638745    435.584773    425.968183    15.200000     2011-06-16T12:22:14.96Z  
1222.5835   44555   43.1734  -70.4437  42.0     8.6    14.339     29.319     1010.6        330.662843    323.365531    435.674436    426.059474    15.200000     2011-06-16T12:22:35.01Z  
1222.9162   44575   43.1745  -70.4423  42.0     8.7    14.342     29.295     1010.6        331.314908    324.008026    435.496362    425.891675    15.200000     2011-06-16T12:22:54.97Z  
1223.2502   44595   43.1757  -70.4409  41.0     8.5    14.326     29.327     1010.6        331.944665    324.635476    435.507229    425.917500    15.200000     2011-06-16T12:23:15.01Z  
1223.5829   44615   43.1768  -70.4396  41.0     8.4    14.312     29.316     1010.6        332.640201    325.313650    435.503811    425.911473    15.200000     2011-06-16T12:23:34.97Z  
1223.9170   44635   43.1779  -70.4381  45.0     8.5    14.322     29.300     1010.6        333.058316    325.719768    435.449309    425.854524    15.200000     2011-06-16T12:23:55.02Z  
1224.2496   44655   43.1790  -70.4366  44.0     8.6    14.329     29.291     1010.6        333.652596    326.298632    435.282223    425.688093    15.200000     2011-06-16T12:24:14.98Z  
1224.5837   44675   43.1802  -70.4353  38.0     8.6    14.336     29.277     1010.6        334.123134    326.761324    435.267651    425.676901    15.200000     2011-06-16T12:24:35.02Z  
1224.9163   44695   43.1815  -70.4341  34.0     8.5    14.314     29.340     1010.6        334.688203    327.316362    nd            nd            15.200000     2011-06-16T12:24:54.98Z  
1225.2504   44715   43.1828  -70.4329  35.0     8.6    14.246     29.427     1010.6        334.867973    327.513176    435.245944    425.689367    15.200000     2011-06-16T12:25:15.02Z  
1225.5830   44735   43.1840  -70.4317  35.0     8.7    14.215     29.447     1010.6        335.014222    327.671614    435.141643    425.602191    15.200000     2011-06-16T12:25:34.98Z  
1225.9171   44755   43.1853  -70.4305  33.0     8.7    14.161     29.583     1010.6        335.122040    327.787812    435.249074    425.740051    15.200000     2011-06-16T12:25:55.03Z  
1226.2498   44775   43.1867  -70.4295  26.0     8.7    14.002     29.783     1010.6        335.230665    327.950495    435.100202    425.651001    15.200000     2011-06-16T12:26:14.99Z  
1226.5838   44795   43.1882  -70.4287  20.0     8.9    13.907     29.868     1010.6        335.311326    328.057589    435.175378    425.761129    15.200000     2011-06-16T12:26:35.03Z  
1226.9165   44815   43.1898  -70.4281  15.0     8.9    13.864     29.955     1010.6        335.487321    328.244999    434.953400    425.563697    15.200000     2011-06-16T12:26:54.99Z  
1227.2506   44835   43.1914  -70.4279  5.0      9.1    13.823     30.163     1010.5        335.280510    328.045869    434.855321    425.471903    15.200000     2011-06-16T12:27:15.04Z  
1227.5832   44855   43.1929  -70.4272  27.0     8.9    13.792     30.325     1010.5        334.961591    327.737567    434.709625    425.334197    15.200000     2011-06-16T12:27:34.99Z  
1227.9173   44875   43.1939  -70.4255  53.0     9.0    13.788     30.415     1010.5        334.320555    327.110662    434.514739    425.143906    15.200000     2011-06-16T12:27:55.04Z  
1228.2499   44895   43.1948  -70.4236  53.0     9.0    13.798     30.441     1010.5        333.318424    326.125376    434.362885    424.989113    15.200000     2011-06-16T12:28:14.99Z  
1228.5840   44915   43.1958  -70.4219  49.0     9.1    13.804     30.425     1010.5        332.421012    325.248139    434.265673    424.895063    15.200000     2011-06-16T12:28:35.04Z  
1228.9166   44935   43.1970  -70.4203  44.0     9.1    13.811     30.385     1010.5        331.336652    324.184822    434.062217    424.692906    15.200000     2011-06-16T12:28:55.00Z  
1229.2493   44955   43.1983  -70.4189  41.0     9.1    13.802     30.341     1010.5        330.769587    323.631993    434.079248    424.712194    15.200000     2011-06-16T12:29:14.96Z  
1229.5834   44975   43.1996  -70.4176  33.0     9.2    13.772     30.324     1010.5        330.360637    323.241140    434.094254    424.739055    15.200000     2011-06-16T12:29:35.00Z  
1229.9160   44995   43.2010  -70.4164  33.0     9.2    13.741     30.268     1010.5        330.539112    323.425657    433.927155    424.591899    15.200000     2011-06-16T12:29:54.96Z  
1230.2501   45015   43.2024  -70.4152  32.0     9.2    13.777     30.180     1010.5        330.390319    323.268584    433.904816    424.562475    15.200000     2011-06-16T12:30:15.01Z  
1230.5827   45035   43.2038  -70.4140  32.0     9.2    13.869     30.134     1010.5        330.473317    323.319339    433.947110    424.552996    15.200000     2011-06-16T12:30:34.96Z  
1230.9168   45055   43.2053  -70.4128  31.0     9.2    13.971     30.130     1010.5        330.363954    323.177438    434.244920    424.798477    15.200000     2011-06-16T12:30:55.01Z  
1231.2494   45075   43.2067  -70.4116  33.0     9.2    14.071     30.147     1010.5        330.459353    323.244948    434.278791    424.797691    15.200000     2011-06-16T12:31:14.96Z  
1231.5835   45095   43.2080  -70.4103  34.0     9.2    14.148     30.160     1010.5        330.842083    323.598672    434.555927    425.032223    15.200000     2011-06-16T12:31:35.01Z  
1231.9162   45115   43.2094  -70.4091  35.0     9.1    14.204     30.188     1010.5        331.123556    323.856670    434.637880    425.099088    15.200000     2011-06-16T12:31:54.97Z  
1232.2502   45135   43.2107  -70.4077  37.0     9.2    14.262     30.213     1010.5        331.570727    324.276753    434.643490    425.081924    15.200000     2011-06-16T12:32:15.01Z  
1232.5829   45155   43.2120  -70.4063  37.0     9.2    14.309     30.225     1010.5        331.984247    324.668521    434.701686    425.120533    15.200000     2011-06-16T12:32:34.97Z  
1232.9170   45175   43.2134  -70.4051  33.0     9.2    14.334     30.234     1010.6        332.494362    325.162938    435.131414    425.544383    15.200000     2011-06-16T12:32:55.02Z  
1233.2496   45195   43.2148  -70.4039  32.0     9.2    14.341     30.238     1010.6        333.008185    325.664580    434.775800    425.188444    15.200000     2011-06-16T12:33:14.98Z  
1233.5837   45215   43.2162  -70.4027  32.0     9.2    14.351     30.241     1010.6        333.861258    326.496570    434.991353    425.396986    15.200000     2011-06-16T12:33:35.02Z  
1233.9163   45235   43.2176  -70.4015  32.0     9.2    14.358     30.243     1010.6        334.426628    327.045040    434.811881    425.215222    15.200000     2011-06-16T12:33:54.98Z  
1234.2504   45255   43.2190  -70.4003  32.0     9.2    14.376     30.248     1010.6        334.969482    327.573341    434.919175    425.318845    15.200000     2011-06-16T12:34:15.02Z  
1234.5830   45275   43.2204  -70.3991  33.0     9.2    14.408     30.251     1010.6        335.601261    328.181768    435.235712    425.628929    15.200000     2011-06-16T12:34:34.98Z  
1234.9171   45295   43.2217  -70.3978  35.0     9.2    14.435     30.253     1010.6        335.995335    328.562741    435.351534    425.721616    15.200000     2011-06-16T12:34:55.03Z  
1235.2498   45315   43.2232  -70.3966  31.0     9.1    14.463     30.254     1010.6        336.409299    328.956909    435.355627    425.711140    15.200000     2011-06-16T12:35:14.99Z  
1235.5838   45335   43.2245  -70.3953  34.0     9.2    14.487     30.251     1010.6        336.803826    329.335500    435.546588    425.888566    15.200000     2011-06-16T12:35:35.03Z  
1235.9165   45355   43.2259  -70.3941  34.0     9.2    14.506     30.247     1010.6        337.194379    329.712197    435.175020    425.517328    15.200000     2011-06-16T12:35:54.99Z  
1236.2506   45375   43.2273  -70.3928  34.0     9.2    14.516     30.245     1010.6        337.515117    330.021257    435.270440    425.605957    15.200000     2011-06-16T12:36:15.04Z  
1236.5832   45395   43.2286  -70.3916  33.0     9.1    14.533     30.253     1010.6        337.880533    330.378590    435.238054    425.574327    15.200000     2011-06-16T12:36:34.99Z  
1236.9173   45415   43.2300  -70.3904  33.0     9.2    14.551     30.254     1010.6        338.184528    330.665044    435.192148    425.515557    15.200000     2011-06-16T12:36:55.04Z  
1237.2499   45435   43.2314  -70.3891  32.0     9.2    14.554     30.249     1010.6        338.465301    330.939559    435.131246    425.455987    15.200000     2011-06-16T12:37:14.99Z  
1237.5840   45455   43.2328  -70.3879  33.0     9.2    14.564     30.244     1010.6        338.706009    331.172391    435.084041    425.406590    15.200000     2011-06-16T12:37:35.04Z  
1237.9166   45475   43.2342  -70.3867  32.0     9.3    14.583     30.241     1010.6        338.800675    331.252139    435.073565    425.379897    15.200000     2011-06-16T12:37:55.00Z  
1238.2507   45495   43.2356  -70.3854  33.0     9.3    14.609     30.227     1010.6        339.008946    331.445427    435.161058    425.452163    15.200000     2011-06-16T12:38:15.04Z  
1238.5834   45515   43.2370  -70.3842  32.0     9.3    14.616     30.217     1010.6        339.216730    331.644381    435.170063    425.454535    15.200000     2011-06-16T12:38:35.00Z  
1238.9160   45535   43.2384  -70.3830  32.0     9.2    14.627     30.219     1010.6        339.429140    331.851278    435.084764    425.368059    15.200000     2011-06-16T12:38:54.96Z  
1239.2501   45555   43.2398  -70.3818  33.0     9.1    14.657     30.233     1010.6        339.730088    332.130119    434.959062    425.225209    15.200000     2011-06-16T12:39:15.01Z  
1239.5827   45575   43.2412  -70.3805  33.0     9.1    14.676     30.240     1010.6        340.143837    332.529391    434.996201    425.259385    15.200000     2011-06-16T12:39:34.96Z  
1239.9168   45595   43.2426  -70.3793  34.0     9.2    14.670     30.228     1010.6        340.533201    332.909013    nd            nd            15.200000     2011-06-16T12:39:55.01Z  
1240.2494   45615   43.2439  -70.3780  36.0     9.2    14.667     30.220     1010.6        340.931179    333.302363    434.938367    425.204563    15.200000     2011-06-16T12:40:14.96Z  
1240.5835   45635   43.2452  -70.3766  36.0     9.2    14.679     30.226     1010.6        341.337253    333.694334    434.696029    424.962554    15.200000     2011-06-16T12:40:35.01Z  
1240.9162   45655   43.2466  -70.3754  34.0     9.3    14.690     30.237     1010.6        341.932050    334.270472    434.853851    425.110042    15.200000     2011-06-16T12:40:54.97Z  
1241.2502   45675   43.2480  -70.3741  33.0     9.3    14.699     30.244     1010.6        342.467181    334.791902    434.888488    425.141738    15.200000     2011-06-16T12:41:15.01Z  
1241.5829   45695   43.2494  -70.3729  34.0     9.3    14.713     30.257     1010.5        343.045697    335.348511    434.746088    424.991198    15.200000     2011-06-16T12:41:34.97Z  
1241.9170   45715   43.2508  -70.3716  34.0     9.3    14.727     30.269     1010.6        343.464203    335.756206    434.742242    424.985642    15.200000     2011-06-16T12:41:55.02Z  
1242.2496   45735   43.2522  -70.3703  34.0     9.3    14.734     30.278     1010.6        343.838817    336.121819    434.868193    425.108014    15.200000     2011-06-16T12:42:14.98Z  
1242.5837   45755   43.2536  -70.3690  33.0     9.3    14.731     30.287     1010.6        344.056736    336.334313    434.786758    425.027732    15.200000     2011-06-16T12:42:35.02Z  
1242.9163   45775   43.2550  -70.3678  32.0     9.3    14.734     30.291     1010.6        344.119376    336.396016    434.882994    425.122402    15.200000     2011-06-16T12:42:54.98Z  
1243.2504   45795   43.2564  -70.3666  32.0     9.2    14.738     30.295     1010.5        343.845876    336.123809    434.799687    425.034605    15.200000     2011-06-16T12:43:15.02Z  
1243.5830   45815   43.2578  -70.3654  33.0     9.3    14.738     30.295     1010.5        343.652220    335.931733    434.535354    424.772795    15.200000     2011-06-16T12:43:34.98Z  
1243.9171   45835   43.2592  -70.3641  34.0     9.3    14.749     30.300     1010.5        343.518338    335.797599    434.675461    424.905771    15.200000     2011-06-16T12:43:55.03Z  
1244.2498   45855   43.2606  -70.3628  34.0     9.2    14.747     30.306     1010.5        343.428270    335.707099    434.499080    424.730253    15.200000     2011-06-16T12:44:14.99Z  
1244.5838   45875   43.2620  -70.3616  33.0     9.2    14.731     30.313     1010.5        343.502062    335.785653    434.399499    424.641019    15.200000     2011-06-16T12:44:35.03Z  
1244.9165   45895   43.2634  -70.3604  33.0     9.3    14.707     30.319     1010.5        343.305099    335.603261    434.293269    424.550018    15.200000     2011-06-16T12:44:54.99Z  
1245.2506   45915   43.2648  -70.3591  33.0     9.2    14.695     30.321     1010.5        342.945090    335.253676    434.231897    424.493005    15.200000     2011-06-16T12:45:15.04Z  
1245.5832   45935   43.2661  -70.3579  34.0     9.2    14.683     30.323     1010.6        342.457508    334.786731    434.078353    424.355192    15.200000     2011-06-16T12:45:34.99Z  
1245.9173   45955   43.2675  -70.3566  34.0     9.1    14.663     30.333     1010.5        341.986069    334.331536    434.068152    424.352431    15.200000     2011-06-16T12:45:55.04Z  
1246.2499   45975   43.2689  -70.3554  33.0     9.1    14.635     30.355     1010.6        341.741577    334.105468    434.087621    424.387915    15.200000     2011-06-16T12:46:14.99Z  
1246.5840   45995   43.2703  -70.3541  33.0     9.1    14.606     30.371     1010.6        341.520725    333.900434    433.998682    424.314794    15.200000     2011-06-16T12:46:35.04Z  
1246.9166   46015   43.2716  -70.3529  32.0     9.2    14.567     30.377     1010.6        341.302112    333.699862    433.975214    424.308586    15.200000     2011-06-16T12:46:55.00Z  
1247.2507   46035   43.2731  -70.3518  31.0     9.1    14.557     30.384     1010.6        341.064109    333.468363    433.914039    424.250309    15.200000     2011-06-16T12:47:15.04Z  
1247.5834   46055   43.2744  -70.3505  33.0     9.1    14.564     30.393     1010.6        340.797598    333.207294    433.828810    424.166345    15.200000     2011-06-16T12:47:35.00Z  
1247.9160   46075   43.2758  -70.3493  33.0     9.1    14.568     30.398     1010.5        340.657720    333.064432    433.879219    424.206721    15.200000     2011-06-16T12:47:54.96Z  
1248.2501   46095   43.2772  -70.3481  33.0     9.1    14.570     30.417     1010.6        340.411505    332.826055    433.941099    424.280740    15.200000     2011-06-16T12:48:15.01Z  
1248.5827   46115   43.2785  -70.3468  34.0     9.0    14.576     30.442     1010.5        340.261425    332.674504    433.876383    424.201942    15.200000     2011-06-16T12:48:34.96Z  
1248.9168   46135   43.2799  -70.3456  32.0     9.0    14.603     30.470     1010.6        340.218790    332.625327    433.861865    424.178195    15.200000     2011-06-16T12:48:55.01Z  
1249.2494   46155   43.2813  -70.3445  32.0     9.0    14.630     30.489     1010.5        340.145753    332.542236    433.802794    424.105544    15.200000     2011-06-16T12:49:14.96Z  
1249.5835   46175   43.2826  -70.3432  33.0     8.9    14.628     30.494     1010.6        339.891346    332.297953    433.649847    423.962506    15.200000     2011-06-16T12:49:35.01Z  
1249.9162   46195   43.2840  -70.3420  33.0     9.0    14.626     30.508     1010.5        340.010130    332.411982    433.765359    424.071928    15.200000     2011-06-16T12:49:54.97Z  
1250.2502   46215   43.2854  -70.3408  32.0     9.0    14.626     30.539     1010.6        339.961899    332.366409    433.750716    424.059621    15.200000     2011-06-16T12:50:15.01Z  
1250.5829   46235   43.2867  -70.3396  34.0     9.0    14.625     30.558     1010.5        340.304811    332.698575    433.758413    424.063219    15.200000     2011-06-16T12:50:34.97Z  
1250.9170   46255   43.2881  -70.3384  33.0     9.0    14.630     30.573     1010.5        340.392995    332.782957    433.658953    423.963912    15.200000     2011-06-16T12:50:55.02Z  
1251.2496   46275   43.2894  -70.3372  33.0     9.0    14.634     30.584     1010.5        340.424397    332.809599    433.739053    424.036024    15.200000     2011-06-16T12:51:14.98Z  
1251.5837   46295   43.2908  -70.3360  33.0     9.0    14.642     30.598     1010.5        340.426535    332.809565    433.748714    424.043533    15.200000     2011-06-16T12:51:35.02Z  
1251.9163   46315   43.2921  -70.3347  35.0     8.9    14.634     30.614     1010.6        340.384662    332.779322    433.787079    424.094664    15.200000     2011-06-16T12:51:54.98Z  
1252.2504   46335   43.2934  -70.3335  35.0     8.7    14.601     30.633     1010.5        340.546876    332.943597    433.722267    424.038536    15.200000     2011-06-16T12:52:15.02Z  
1252.5830   46355   43.2947  -70.3322  36.0     8.7    14.560     30.647     1010.6        340.806948    333.215004    433.768181    424.105245    15.200000     2011-06-16T12:52:34.98Z  
1252.9171   46375   43.2959  -70.3310  35.0     8.6    14.341     30.280     1010.6        340.780569    333.262616    433.861625    424.290070    15.200000     2011-06-16T12:52:55.03Z  
1253.2498   46395   43.2972  -70.3298  35.0     8.6    13.842     29.732     1010.6        340.775968    333.418296    433.835075    424.468014    15.200000     2011-06-16T12:53:14.99Z  
1253.5838   46415   43.2985  -70.3286  35.0     8.6    13.552     29.599     1010.6        340.487839    333.237111    433.673543    424.438260    15.200000     2011-06-16T12:53:35.03Z  
1253.9165   46435   43.2998  -70.3274  34.0     8.6    13.416     29.564     1010.6        340.174284    332.975875    433.779999    424.600659    15.200000     2011-06-16T12:53:54.99Z  
1254.2506   46455   43.3010  -70.3262  34.0     8.6    13.345     29.550     1010.6        339.453686    332.307497    433.782961    424.650802    15.200000     2011-06-16T12:54:15.04Z  
1254.5832   46475   43.3023  -70.3251  34.0     8.6    13.298     29.543     1010.7        338.762038    331.658056    433.874560    424.769411    15.200000     2011-06-16T12:54:34.99Z  
1254.9173   46495   43.3036  -70.3239  33.0     8.6    13.269     29.540     1010.7        338.111416    331.041063    433.794643    424.716385    15.200000     2011-06-16T12:54:55.04Z  
1255.2499   46515   43.3049  -70.3227  33.0     8.6    13.255     29.542     1010.7        338.144353    331.065131    433.520340    424.458134    15.200000     2011-06-16T12:55:14.99Z  
1255.5840   46535   43.3062  -70.3216  32.0     8.6    13.257     29.530     1010.7        338.004790    330.931640    433.925224    424.841798    15.200000     2011-06-16T12:55:35.04Z  
1255.9166   46555   43.3075  -70.3204  33.0     8.6    13.263     29.510     1010.7        338.317387    331.235411    433.836777    424.755151    15.200000     2011-06-16T12:55:55.00Z  
1256.2493   46575   43.3088  -70.3192  35.0     8.6    13.277     29.490     1010.6        338.990300    331.880006    433.727956    424.630395    15.200000     2011-06-16T12:56:14.96Z  
1256.5834   46595   43.3101  -70.3181  34.0     8.5    13.291     29.467     1010.6        339.739505    332.592661    433.750085    424.625462    15.200000     2011-06-16T12:56:35.00Z  
1256.9160   46615   43.3114  -70.3170  31.0     8.5    13.319     29.452     1010.6        340.373957    333.208241    433.651516    424.518295    15.200000     2011-06-16T12:56:54.96Z  
1257.2501   46635   43.3127  -70.3158  33.0     8.5    13.345     29.444     1010.7        340.688202    333.525925    434.029721    424.905907    15.200000     2011-06-16T12:57:15.01Z  
1257.5827   46655   43.3139  -70.3146  35.0     8.6    13.362     29.442     1010.7        340.905320    333.760677    434.265695    425.159876    15.200000     2011-06-16T12:57:34.96Z  
1257.9168   46675   43.3152  -70.3134  34.0     8.6    13.370     29.439     1010.8        340.879838    333.740235    434.667252    425.559091    15.200000     2011-06-16T12:57:55.01Z  
1258.2494   46695   43.3165  -70.3122  34.0     8.5    13.404     29.415     1010.8        341.088997    333.943440    434.851939    425.741966    15.200000     2011-06-16T12:58:14.96Z  
1258.5835   46715   43.3178  -70.3111  33.0     8.5    13.421     29.400     1010.8        341.326161    334.175455    434.939363    425.828593    15.200000     2011-06-16T12:58:35.01Z  
1258.9162   46735   43.3191  -70.3099  35.0     8.6    13.420     29.390     1010.8        341.432124    334.271159    434.228882    425.096685    15.200000     2011-06-16T12:58:54.97Z  
1259.2502   46755   43.3204  -70.3087  33.0     8.5    13.418     29.384     1010.7        341.316485    334.138305    nd            nd            15.200000     2011-06-16T12:59:15.01Z  
1259.5829   46775   43.3216  -70.3076  32.0     8.4    13.419     29.382     1010.7        340.893454    333.702872    nd            nd            15.200000     2011-06-16T12:59:34.97Z  
1259.8838   46793   43.3228  -70.3065  35.0     8.5    13.420     29.376     1010.7        340.293967    333.122646    433.503014    424.367272    15.247059     2011-06-16T12:59:53.03Z  
1300.2496   46815   43.3242  -70.3054  31.0     8.5    13.426     29.372     1010.8        339.715517    332.578212    433.293266    424.189770    15.600000     2011-06-16T13:00:14.98Z  
1300.5837   46835   43.3255  -70.3042  33.0     8.5    13.450     29.362     1010.8        339.246756    332.128031    433.295225    424.202842    15.600000     2011-06-16T13:00:35.02Z  
1300.9163   46855   43.3268  -70.3031  33.0     8.5    13.473     29.352     1010.8        338.958447    331.847139    433.518798    424.420336    15.600000     2011-06-16T13:00:54.98Z  
1301.2504   46875   43.3281  -70.3019  32.0     8.5    13.496     29.345     1010.8        338.792036    331.683876    nd            nd            15.600000     2011-06-16T13:01:15.02Z  
1301.5830   46895   43.3293  -70.3008  34.0     8.5    13.508     29.344     1010.8        338.406386    331.293034    nd            nd            15.600000     2011-06-16T13:01:34.98Z  
1301.9171   46915   43.3306  -70.2996  33.0     8.5    13.517     29.342     1010.8        338.139903    331.021599    434.359874    425.216316    15.600000     2011-06-16T13:01:55.03Z  
1302.2498   46935   43.3319  -70.2984  36.0     8.5    13.517     29.342     1010.8        337.807450    330.684892    434.326389    425.168602    15.600000     2011-06-16T13:02:14.99Z  
1302.5838   46955   43.3332  -70.2973  32.0     8.5    13.528     29.336     1010.8        337.493384    330.375787    434.495908    425.332401    15.600000     2011-06-16T13:02:35.03Z  
1302.9165   46975   43.3345  -70.2962  33.0     8.4    13.549     29.326     1010.8        337.363532    330.239294    434.489219    425.313773    15.600000     2011-06-16T13:02:54.99Z  
1303.2506   46995   43.3357  -70.2950  35.0     8.6    13.572     29.319     1010.8        337.179554    330.052390    434.479757    425.295740    15.600000     2011-06-16T13:03:15.04Z  
1303.5832   47015   43.3370  -70.2938  33.0     8.5    13.619     29.296     1010.8        337.474365    330.333593    434.517605    425.324176    15.600000     2011-06-16T13:03:34.99Z  
1303.9173   47035   43.3383  -70.2927  32.0     8.5    13.696     29.266     1010.8        337.640462    330.479535    434.437198    425.222176    15.600000     2011-06-16T13:03:55.04Z  
1304.2499   47055   43.3396  -70.2916  34.0     8.6    13.760     29.257     1010.8        337.631164    330.456988    434.107106    424.882903    15.600000     2011-06-16T13:04:14.99Z  
1304.5840   47075   43.3409  -70.2904  33.0     8.5    13.810     29.248     1010.8        337.502264    330.318009    433.900630    424.664231    15.600000     2011-06-16T13:04:35.04Z  
1304.9166   47095   43.3422  -70.2892  34.0     8.5    13.838     29.243     1010.8        337.190575    330.005219    433.773234    424.529590    15.600000     2011-06-16T13:04:55.00Z  
1305.2493   47115   43.3434  -70.2881  34.0     8.5    13.858     29.241     1010.8        337.100583    329.906510    433.573290    424.323810    15.600000     2011-06-16T13:05:14.96Z  
1305.5834   47135   43.3447  -70.2869  33.0     8.5    13.883     29.231     1010.8        337.293241    330.078788    433.312409    424.044024    15.600000     2011-06-16T13:05:35.00Z  
1305.9160   47155   43.3460  -70.2857  35.0     8.6    13.906     29.226     1010.8        337.338983    330.114546    433.173412    423.896431    15.600000     2011-06-16T13:05:54.96Z  
1306.2501   47175   43.3473  -70.2845  36.0     8.5    13.929     29.217     1010.8        337.321783    330.095383    433.264223    423.981154    15.600000     2011-06-16T13:06:15.01Z  
1306.5827   47195   43.3486  -70.2834  32.0     8.5    13.943     29.214     1010.8        337.471153    330.241006    432.936434    423.659922    15.600000     2011-06-16T13:06:34.96Z  
1306.9168   47215   43.3498  -70.2822  34.0     8.5    13.956     29.213     1010.8        337.659374    330.416361    433.104648    423.828847    15.600000     2011-06-16T13:06:55.01Z  
1307.2494   47235   43.3511  -70.2811  33.0     8.5    13.981     29.211     1010.8        337.671678    330.425422    432.521191    423.237744    15.600000     2011-06-16T13:07:14.96Z  
1307.5835   47255   43.3524  -70.2799  32.0     8.5    14.011     29.206     1010.8        337.609109    330.352977    432.317304    423.018626    15.600000     2011-06-16T13:07:35.01Z  
1307.9162   47275   43.3537  -70.2788  32.0     8.5    14.019     29.200     1010.8        337.651380    330.397361    432.110462    422.826958    15.600000     2011-06-16T13:07:54.97Z  
1308.2502   47295   43.3550  -70.2777  32.0     8.5    14.002     29.192     1010.8        337.617278    330.369730    432.150700    422.873674    15.600000     2011-06-16T13:08:15.01Z  
1308.5829   47315   43.3563  -70.2765  34.0     8.5    14.000     29.178     1010.8        337.627634    330.382964    431.976962    422.707624    15.600000     2011-06-16T13:08:34.97Z  
1308.9170   47335   43.3576  -70.2753  35.0     8.6    13.945     29.138     1010.8        337.848678    330.610225    431.988753    422.730113    15.600000     2011-06-16T13:08:55.02Z  
1309.2496   47355   43.3588  -70.2742  33.0     8.6    13.892     29.105     1010.9        337.910503    330.695217    431.657435    422.441350    15.600000     2011-06-16T13:09:14.98Z  
1309.5837   47375   43.3602  -70.2731  32.0     8.5    13.868     29.084     1010.9        338.273881    331.059157    431.532168    422.328272    15.600000     2011-06-16T13:09:35.02Z  
1309.9163   47395   43.3614  -70.2719  34.0     8.6    13.858     29.052     1010.8        338.780620    331.555735    431.419372    422.218714    15.600000     2011-06-16T13:09:54.98Z  
1310.2504   47415   43.3627  -70.2707  34.0     8.5    13.847     29.021     1010.8        339.065726    331.839347    431.451052    422.255547    15.600000     2011-06-16T13:10:15.02Z  
1310.5830   47435   43.3640  -70.2696  33.0     8.5    13.820     29.003     1010.9        339.231264    332.013719    431.273424    422.100532    15.600000     2011-06-16T13:10:34.98Z  
1310.9171   47455   43.3652  -70.2684  34.0     8.5    13.828     28.985     1010.9        339.392258    332.167836    431.039869    421.863098    15.600000     2011-06-16T13:10:55.03Z  
1311.2498   47475   43.3665  -70.2672  35.0     8.5    13.848     28.935     1010.8        339.737543    332.494056    430.654874    421.456973    15.600000     2011-06-16T13:11:14.99Z  
1311.5838   47495   43.3678  -70.2660  35.0     8.6    13.882     28.912     1010.8        340.080080    332.814726    430.459997    421.265182    15.600000     2011-06-16T13:11:35.03Z  
1311.9165   47515   43.3690  -70.2648  35.0     8.6    13.922     28.887     1010.8        340.343551    333.053459    430.106609    420.893671    15.600000     2011-06-16T13:11:54.99Z  
1312.2506   47535   43.3703  -70.2636  35.0     8.5    13.959     28.856     1010.8        340.634526    333.324795    429.898792    420.673387    15.600000     2011-06-16T13:12:15.04Z  
1312.5832   47555   43.3716  -70.2624  34.0     8.5    13.989     28.836     1010.8        341.015109    333.685186    429.840680    420.601366    15.600000     2011-06-16T13:12:34.99Z  
1312.9173   47575   43.3729  -70.2612  35.0     8.5    14.012     28.815     1010.8        341.358041    334.021460    429.847531    420.608967    15.600000     2011-06-16T13:12:55.04Z  
1313.2499   47595   43.3741  -70.2600  36.0     8.6    14.029     28.802     1010.9        341.781372    334.438129    429.768430    420.534622    15.600000     2011-06-16T13:13:14.99Z  
1313.5840   47615   43.3753  -70.2588  35.0     8.5    14.046     28.794     1010.9        341.865225    334.520695    429.943797    420.706872    15.600000     2011-06-16T13:13:35.04Z  
1313.9166   47635   43.3766  -70.2576  33.0     8.4    14.060     28.767     1010.9        341.835690    334.486497    430.129761    420.879968    15.600000     2011-06-16T13:13:55.00Z  
1314.2493   47655   43.3779  -70.2564  35.0     8.5    14.084     28.752     1010.8        341.593904    334.235447    430.406078    421.134323    15.600000     2011-06-16T13:14:14.96Z  
1314.5834   47675   43.3791  -70.2552  35.0     8.5    14.114     28.743     1010.8        341.337573    333.971853    430.660028    421.365944    15.600000     2011-06-16T13:14:35.00Z  
1314.9160   47695   43.3804  -70.2541  32.0     8.4    14.142     28.731     1010.8        341.092749    333.720451    430.600828    421.293773    15.600000     2011-06-16T13:14:54.96Z  
1315.2501   47715   43.3816  -70.2529  36.0     8.5    14.165     28.714     1010.8        340.824258    333.446196    430.731360    421.408976    15.600000     2011-06-16T13:15:15.01Z  
1315.5827   47735   43.3829  -70.2517  35.0     8.4    14.190     28.694     1010.8        340.377498    332.995646    431.012717    421.662218    15.600000     2011-06-16T13:15:34.96Z  
1315.9168   47755   43.3842  -70.2506  32.0     8.4    14.216     28.664     1010.8        339.987550    332.608693    430.756634    421.407638    15.600000     2011-06-16T13:15:55.01Z  
1316.2494   47775   43.3854  -70.2494  35.0     8.4    14.245     28.638     1010.8        339.531536    332.148613    430.793378    421.424618    15.600000     2011-06-16T13:16:14.96Z  
1316.5835   47795   43.3867  -70.2482  35.0     8.4    14.275     28.623     1010.8        338.991123    331.615338    430.919323    421.545256    15.600000     2011-06-16T13:16:35.01Z  
1316.9162   47815   43.3879  -70.2471  33.0     8.4    14.302     28.612     1010.8        338.614949    331.240045    431.065832    421.677228    15.600000     2011-06-16T13:16:54.97Z  
1317.2502   47835   43.3892  -70.2459  36.0     8.4    14.323     28.597     1010.8        338.072144    330.699869    431.137662    421.736840    15.600000     2011-06-16T13:17:15.01Z  
1317.5829   47855   43.3904  -70.2446  37.0     8.5    14.351     28.577     1010.8        337.585595    330.203690    431.055060    421.629128    15.600000     2011-06-16T13:17:34.97Z  
1317.9170   47875   43.3916  -70.2434  35.0     8.5    14.458     28.060     1010.8        337.219388    329.807551    431.126483    421.650465    15.600000     2011-06-16T13:17:55.02Z  
1318.2496   47895   43.3929  -70.2422  34.0     8.4    14.747     27.094     1010.8        336.807978    329.302779    431.157360    421.549581    15.600000     2011-06-16T13:18:14.98Z  
1318.5837   47915   43.3941  -70.2409  39.0     8.5    14.970     26.766     1010.8        336.190808    328.622552    431.372505    421.661380    15.600000     2011-06-16T13:18:35.02Z  
1318.9163   47935   43.3954  -70.2397  34.0     8.5    15.116     26.601     1010.8        334.121416    326.550608    431.335395    421.561638    15.600000     2011-06-16T13:18:54.98Z  
1319.2504   47955   43.3966  -70.2385  35.0     8.5    15.194     26.530     1010.8        331.056920    323.526060    431.259272    421.448841    15.600000     2011-06-16T13:19:15.02Z  
1319.5830   47975   43.3979  -70.2373  36.0     8.5    15.232     26.477     1010.8        328.091927    320.614796    431.222420    421.394811    15.600000     2011-06-16T13:19:34.98Z  
1319.9171   47995   43.3991  -70.2361  36.0     8.6    15.262     26.381     1010.7        325.243050    317.815578    431.238373    421.390142    15.600000     2011-06-16T13:19:55.03Z  
1320.2498   48015   43.4004  -70.2349  34.0     8.5    15.294     26.247     1010.7        323.378588    315.982563    431.194627    421.332550    15.600000     2011-06-16T13:20:14.99Z  
1320.5838   48035   43.4017  -70.2337  34.0     8.5    15.330     26.116     1010.7        321.456808    314.085079    431.161789    421.274096    15.600000     2011-06-16T13:20:35.03Z  
1320.9165   48055   43.4029  -70.2325  37.0     8.6    15.343     26.154     1010.7        319.906773    312.567195    431.197787    421.304699    15.600000     2011-06-16T13:20:54.99Z  
1321.2506   48075   43.4042  -70.2313  33.0     8.6    15.255     26.692     1010.7        318.776420    311.489332    431.229434    421.371574    15.600000     2011-06-16T13:21:15.04Z  
1321.5832   48095   43.4055  -70.2301  33.0     8.7    14.711     28.415     1010.7        318.344834    311.248009    431.063231    421.453392    15.600000     2011-06-16T13:21:34.99Z  
1321.9173   48115   43.4068  -70.2289  34.0     8.6    14.247     28.964     1010.7        318.392949    311.439354    430.916638    421.505371    15.600000     2011-06-16T13:21:55.04Z  
1322.2499   48135   43.4081  -70.2278  32.0     8.6    14.022     29.079     1010.7        319.695797    312.773272    431.069917    421.726991    15.600000     2011-06-16T13:22:14.99Z  
1322.5840   48155   43.4094  -70.2266  34.0     8.6    13.926     29.152     1010.7        321.913856    314.969292    431.024815    421.729827    15.600000     2011-06-16T13:22:35.04Z  
1322.9166   48175   43.4107  -70.2255  33.0     8.6    13.869     29.174     1010.6        324.031508    317.049681    431.285376    421.992397    15.600000     2011-06-16T13:22:55.00Z  
1323.2507   48195   43.4120  -70.2243  34.0     8.6    13.836     29.186     1010.6        325.750654    318.739962    431.406808    422.122028    15.600000     2011-06-16T13:23:15.04Z  
1323.5834   48215   43.4133  -70.2231  32.0     8.7    13.812     29.195     1010.6        327.687244    320.643368    431.513151    422.237286    15.600000     2011-06-16T13:23:35.00Z  
1323.9160   48235   43.4147  -70.2220  33.0     8.7    13.796     29.210     1010.6        329.395871    322.321138    431.366864    422.101844    15.600000     2011-06-16T13:23:54.96Z  
1324.2501   48255   43.4160  -70.2209  31.0     8.7    13.790     29.246     1010.6        330.912179    323.801889    431.173441    421.908683    15.600000     2011-06-16T13:24:15.01Z  
1324.5827   48275   43.4173  -70.2197  32.0     8.7    13.767     29.283     1010.6        332.065122    324.933510    431.087390    421.828953    15.600000     2011-06-16T13:24:34.96Z  
1324.9168   48295   43.4186  -70.2186  32.0     8.7    13.722     29.298     1010.6        333.081525    325.941913    430.940490    421.703098    15.600000     2011-06-16T13:24:55.01Z  
1325.2494   48315   43.4200  -70.2174  33.0     8.7    13.703     29.353     1010.6        333.852959    326.706654    430.922409    421.698123    15.600000     2011-06-16T13:25:14.96Z  
1325.5835   48335   43.4213  -70.2162  33.0     8.8    13.720     29.428     1010.6        334.684828    327.515807    430.827912    421.599327    15.600000     2011-06-16T13:25:35.01Z  
1325.9162   48355   43.4226  -70.2151  33.0     8.7    13.711     29.438     1010.6        335.322308    328.136416    430.758306    421.534826    15.600000     2011-06-16T13:25:54.97Z  
1326.2502   48375   43.4239  -70.2138  34.0     8.8    13.696     29.435     1010.6        335.802388    328.605246    431.027486    421.789257    15.600000     2011-06-16T13:26:15.01Z  
1326.5829   48395   43.4252  -70.2127  32.0     8.7    13.673     29.421     1010.6        336.184347    328.988014    431.073229    421.848031    15.600000     2011-06-16T13:26:34.97Z  
1326.9170   48415   43.4266  -70.2116  31.0     8.7    13.642     29.381     1010.6        336.649118    329.450226    430.682820    421.472961    15.600000     2011-06-16T13:26:55.02Z  
1327.2496   48435   43.4279  -70.2105  31.0     8.7    13.614     29.366     1010.6        336.748426    329.561657    430.628983    421.436249    15.600000     2011-06-16T13:27:14.98Z  
1327.5837   48455   43.4292  -70.2093  33.0     8.7    13.621     29.320     1010.6        336.682801    329.495562    430.803867    421.607252    15.600000     2011-06-16T13:27:35.02Z  
1327.9163   48475   43.4306  -70.2081  31.0     8.7    13.638     29.291     1010.6        336.697836    329.500046    430.816358    421.606391    15.600000     2011-06-16T13:27:54.98Z  
1328.2504   48495   43.4319  -70.2070  32.0     8.7    13.647     29.294     1010.6        336.291853    329.098227    430.690077    421.477019    15.600000     2011-06-16T13:28:15.02Z  
1328.5830   48515   43.4332  -70.2058  32.0     8.8    13.653     29.308     1010.6        335.889129    328.705882    430.517901    421.310795    15.600000     2011-06-16T13:28:34.98Z  
1328.9171   48535   43.4346  -70.2047  32.0     8.8    13.680     29.329     1010.6        335.727564    328.535708    430.769061    421.541101    15.600000     2011-06-16T13:28:55.03Z  
1329.2498   48555   43.4359  -70.2035  33.0     8.8    13.682     29.362     1010.6        335.540150    328.349216    430.670142    421.440325    15.600000     2011-06-16T13:29:14.99Z  
1329.5838   48575   43.4373  -70.2024  32.0     8.8    13.700     29.318     1010.6        335.440101    328.251279    430.580509    421.352574    15.600000     2011-06-16T13:29:35.03Z  
1329.9165   48595   43.4386  -70.2012  31.0     8.8    13.738     29.304     1010.6        335.638379    328.434558    430.374234    421.136941    15.600000     2011-06-16T13:29:54.99Z  
1330.2506   48615   43.4400  -70.2001  32.0     8.8    13.753     29.310     1010.6        335.666985    328.456108    430.524642    421.275857    15.600000     2011-06-16T13:30:15.04Z  
1330.5832   48635   43.4413  -70.1989  33.0     8.9    13.790     29.327     1010.6        335.857686    328.633289    430.475374    421.215569    15.600000     2011-06-16T13:30:34.99Z  
1330.9173   48655   43.4427  -70.1978  30.0     8.8    13.817     29.354     1010.6        336.135328    328.897793    430.399882    421.132532    15.600000     2011-06-16T13:30:55.04Z  
1331.2499   48675   43.4441  -70.1967  30.0     8.9    13.830     29.367     1010.6        336.358654    329.110304    430.406968    421.131769    15.600000     2011-06-16T13:31:14.99Z  
1331.5840   48695   43.4454  -70.1955  35.0     8.8    13.796     29.361     1010.6        336.757369    329.513512    430.232799    420.978074    15.600000     2011-06-16T13:31:35.04Z  
1331.9166   48715   43.4467  -70.1943  34.0     8.8    13.769     29.361     1010.6        336.945204    329.705550    430.197452    420.955104    15.600000     2011-06-16T13:31:55.00Z  
1332.2507   48735   43.4480  -70.1931  33.0     8.7    13.756     29.391     1010.6        337.150849    329.913307    nd            nd            15.600000     2011-06-16T13:32:15.04Z  
1332.5834   48755   43.4493  -70.1918  38.0     8.7    13.722     29.400     1010.6        337.273154    330.041982    nd            nd            15.600000     2011-06-16T13:32:35.00Z  
1332.9160   48775   43.4505  -70.1905  36.0     8.7    13.695     29.410     1010.6        337.275819    330.053757    430.030341    420.824250    15.600000     2011-06-16T13:32:54.96Z  
1333.2501   48795   43.4518  -70.1893  35.0     8.7    13.672     29.439     1010.6        337.145467    329.934738    430.065606    420.865511    15.600000     2011-06-16T13:33:15.01Z  
1333.5827   48815   43.4531  -70.1880  36.0     8.7    13.638     29.497     1010.6        336.933722    329.743414    429.648521    420.477025    15.600000     2011-06-16T13:33:34.96Z  
1333.9168   48835   43.4544  -70.1867  36.0     8.7    13.579     29.579     1010.6        336.878916    329.713028    nd            nd            15.600000     2011-06-16T13:33:55.01Z  
1334.2494   48855   43.4556  -70.1855  36.0     8.6    13.521     29.617     1010.6        336.682421    329.538544    429.600693    420.488585    15.600000     2011-06-16T13:34:14.96Z  
1334.5835   48875   43.4569  -70.1842  36.0     8.6    13.501     29.644     1010.6        336.357335    329.232843    429.780378    420.674186    15.600000     2011-06-16T13:34:35.01Z  
1334.9162   48895   43.4581  -70.1829  37.0     8.6    13.488     29.619     1010.6        335.951661    328.840463    nd            nd            15.600000     2011-06-16T13:34:54.97Z  
1335.2502   48915   43.4594  -70.1816  37.0     8.7    13.475     29.589     1010.7        335.407123    328.312972    429.430237    420.344265    15.600000     2011-06-16T13:35:15.01Z  
1335.5829   48935   43.4606  -70.1803  37.0     8.6    13.482     29.563     1010.7        335.038798    327.951359    429.320761    420.238727    15.600000     2011-06-16T13:35:34.97Z  
1335.9170   48955   43.4619  -70.1791  37.0     8.7    13.474     29.558     1010.7        334.682917    327.606729    429.381183    420.302645    15.600000     2011-06-16T13:35:55.02Z  
1336.2496   48975   43.4631  -70.1778  36.0     8.6    13.460     29.568     1010.7        334.403852    327.343954    429.279266    420.216213    15.600000     2011-06-16T13:36:14.98Z  
1336.5837   48995   43.4644  -70.1766  36.0     8.7    13.459     29.575     1010.7        334.091643    327.040575    429.337888    420.276479    15.600000     2011-06-16T13:36:35.02Z  
1336.9163   49015   43.4657  -70.1754  34.0     8.6    13.457     29.553     1010.7        333.776620    326.738349    429.212061    420.161211    15.600000     2011-06-16T13:36:54.98Z  
1337.2504   49035   43.4669  -70.1741  37.0     8.6    13.441     29.523     1010.7        333.556426    326.523776    429.182246    420.133291    15.600000     2011-06-16T13:37:15.02Z  
1337.5830   49055   43.4682  -70.1728  37.0     8.6    13.438     29.493     1010.7        333.398668    326.373442    429.156182    420.113055    15.600000     2011-06-16T13:37:34.98Z  
1337.9171   49075   43.4694  -70.1716  35.0     8.6    13.433     29.474     1010.7        333.258992    326.243612    429.129108    420.095429    15.600000     2011-06-16T13:37:55.03Z  
1338.2498   49095   43.4707  -70.1704  36.0     8.6    13.415     29.461     1010.7        333.191181    326.178680    429.059034    420.028700    15.600000     2011-06-16T13:38:14.99Z  
1338.5838   49115   43.4719  -70.1691  37.0     8.6    13.410     29.451     1010.7        332.915949    325.914018    429.015440    419.992179    15.600000     2011-06-16T13:38:35.03Z  
1338.9165   49135   43.4731  -70.1678  39.0     8.5    13.407     29.447     1010.7        332.668828    325.671682    428.988309    419.965086    15.600000     2011-06-16T13:38:54.99Z  
1339.2506   49155   43.4743  -70.1664  40.0     8.6    13.404     29.446     1010.7        332.316123    325.325859    428.777497    419.758010    15.600000     2011-06-16T13:39:15.04Z  
1339.5832   49175   43.4755  -70.1651  39.0     8.6    13.393     29.447     1010.7        332.096838    325.113829    428.776049    419.760009    15.600000     2011-06-16T13:39:34.99Z  
1339.9173   49195   43.4768  -70.1637  37.0     8.6    13.378     29.449     1010.7        331.780308    324.813716    428.696938    419.695175    15.600000     2011-06-16T13:39:55.04Z  
1340.2499   49215   43.4780  -70.1624  38.0     8.6    13.358     29.450     1010.7        331.617522    324.655673    428.681529    419.681795    15.600000     2011-06-16T13:40:14.99Z  
1340.5840   49235   43.4792  -70.1612  37.0     8.6    13.347     29.456     1010.7        331.296484    324.343749    428.502416    419.509515    15.600000     2011-06-16T13:40:35.04Z  
1340.9166   49255   43.4804  -70.1598  38.0     8.6    13.338     29.463     1010.7        331.058972    324.111519    428.550363    419.556843    15.600000     2011-06-16T13:40:55.00Z  
1341.2493   49275   43.4816  -70.1585  40.0     8.6    13.315     29.468     1010.7        330.829176    323.897323    428.410143    419.433521    15.600000     2011-06-16T13:41:14.96Z  
1341.5834   49295   43.4828  -70.1571  40.0     8.6    13.348     29.447     1010.7        330.841096    323.895089    428.402851    419.408375    15.600000     2011-06-16T13:41:35.00Z  
1341.9160   49315   43.4840  -70.1557  42.0     8.6    13.407     29.394     1010.7        330.604995    323.647385    428.390380    419.374709    15.600000     2011-06-16T13:41:54.96Z  
1342.2501   49335   43.4851  -70.1543  40.0     8.6    13.465     29.366     1010.7        330.514671    323.542225    428.314345    419.278583    15.600000     2011-06-16T13:42:15.01Z  
1342.5827   49355   43.4863  -70.1530  40.0     8.6    13.516     29.361     1010.7        330.699221    323.706952    428.374500    419.316838    15.600000     2011-06-16T13:42:34.96Z  
1342.9168   49375   43.4875  -70.1516  41.0     8.6    13.557     29.358     1010.7        330.790462    323.780786    428.353334    419.276074    15.600000     2011-06-16T13:42:55.01Z  
1343.2494   49395   43.4887  -70.1502  40.0     8.5    13.591     29.354     1010.7        331.028868    324.004687    428.318916    419.230163    15.600000     2011-06-16T13:43:14.96Z  
1343.5835   49415   43.4898  -70.1488  42.0     8.6    13.623     29.348     1010.7        331.499265    324.453243    428.232823    419.130566    15.600000     2011-06-16T13:43:35.01Z  
1343.9162   49435   43.4910  -70.1474  42.0     8.6    13.636     29.347     1010.7        331.807435    324.750328    428.239875    419.131623    15.600000     2011-06-16T13:43:54.97Z  
1344.2502   49455   43.4921  -70.1460  42.0     8.5    13.675     29.355     1010.7        332.208978    325.132348    428.140499    419.020202    15.600000     2011-06-16T13:44:15.01Z  
1344.5829   49475   43.4933  -70.1446  42.0     8.5    13.727     29.351     1010.7        332.736180    325.627303    428.221123    419.072073    15.600000     2011-06-16T13:44:34.97Z  
1344.9170   49495   43.4944  -70.1431  42.0     8.6    13.753     29.342     1010.7        333.126651    326.006356    428.071142    418.921341    15.600000     2011-06-16T13:44:55.02Z  
1345.2496   49515   43.4956  -70.1417  42.0     8.6    13.762     29.336     1010.7        333.537791    326.402363    428.080402    418.923975    15.600000     2011-06-16T13:45:14.98Z  
1345.5837   49535   43.4967  -70.1403  41.0     8.6    13.804     29.339     1010.7        333.993602    326.834059    427.840286    418.668881    15.600000     2011-06-16T13:45:35.02Z  
1345.9163   49555   43.4978  -70.1388  44.0     8.6    13.852     29.342     1010.7        334.465865    327.279048    427.765046    418.595542    15.600000     2011-06-16T13:45:54.98Z  
1346.2504   49575   43.4990  -70.1374  43.0     8.6    13.884     29.342     1010.7        334.982150    327.777057    427.884004    418.682685    15.600000     2011-06-16T13:46:15.02Z  
1346.5830   49595   43.5001  -70.1359  42.0     8.6    13.903     29.347     1010.7        335.415617    328.190016    427.577702    418.364441    15.600000     2011-06-16T13:46:34.98Z  
1346.9171   49615   43.5012  -70.1345  43.0     8.6    13.936     29.361     1010.7        335.980559    328.736893    427.489851    418.273121    15.600000     2011-06-16T13:46:55.03Z  
1347.2498   49635   43.5024  -70.1330  44.0     8.6    13.964     29.373     1010.7        336.547355    329.280861    427.439301    418.210193    15.600000     2011-06-16T13:47:14.99Z  
1347.5838   49655   43.5035  -70.1315  43.0     8.6    13.980     29.371     1010.7        336.907326    329.626657    427.557562    418.316886    15.600000     2011-06-16T13:47:35.03Z  
1347.9165   49675   43.5046  -70.1300  46.0     8.6    13.983     29.368     1010.7        337.498301    330.201386    427.216557    417.978214    15.600000     2011-06-16T13:47:54.99Z  
1348.2506   49695   43.5057  -70.1285  47.0     8.6    14.002     29.365     1010.6        338.074386    330.752804    427.119627    417.869482    15.600000     2011-06-16T13:48:15.04Z  
1348.5832   49715   43.5067  -70.1269  48.0     8.7    14.024     29.365     1010.6        338.478135    331.140440    427.068581    417.810239    15.600000     2011-06-16T13:48:34.99Z  
1348.9173   49735   43.5078  -70.1254  45.0     8.6    14.051     29.380     1010.6        338.846116    331.491789    426.909195    417.645531    15.600000     2011-06-16T13:48:55.04Z  
1349.2499   49755   43.5089  -70.1239  45.0     8.6    14.078     29.388     1010.6        339.164955    331.792248    426.790890    417.513246    15.600000     2011-06-16T13:49:14.99Z  
1349.5840   49775   43.5100  -70.1223  46.0     8.6    14.083     29.389     1010.6        339.422048    332.035094    426.617901    417.333137    15.600000     2011-06-16T13:49:35.04Z  
1349.9166   49795   43.5110  -70.1208  47.0     8.6    14.075     29.397     1010.6        339.846114    332.452814    426.395367    417.119062    15.600000     2011-06-16T13:49:55.00Z  
1350.2493   49815   43.5121  -70.1192  46.0     8.6    14.067     29.440     1010.6        340.204991    332.801248    426.217203    416.941471    15.600000     2011-06-16T13:50:14.96Z  
1350.5834   49835   43.5132  -70.1177  45.0     8.6    14.043     29.445     1010.6        340.537757    333.135274    426.147428    416.883858    15.600000     2011-06-16T13:50:35.00Z  
1350.9160   49855   43.5142  -70.1162  48.0     8.5    14.060     29.375     1010.6        340.500989    333.091469    426.093292    416.821089    15.600000     2011-06-16T13:50:54.96Z  
1351.2501   49875   43.5153  -70.1146  48.0     8.6    14.080     29.354     1010.6        340.720050    333.296134    426.072348    416.788560    15.600000     2011-06-16T13:51:15.01Z  
1351.5827   49895   43.5163  -70.1130  49.0     8.5    14.092     29.381     1010.6        340.679147    333.252748    426.034061    416.748398    15.600000     2011-06-16T13:51:34.96Z  
1351.9168   49915   43.5173  -70.1115  49.0     8.5    14.123     29.385     1010.6        340.657094    333.213686    425.802242    416.510973    15.600000     2011-06-16T13:51:55.01Z  
1352.2494   49935   43.5182  -70.1098  53.0     8.5    14.140     29.379     1010.6        340.767699    333.314129    425.936025    416.617085    15.600000     2011-06-16T13:52:14.96Z  
1352.5835   49955   43.5191  -70.1080  55.0     8.6    14.155     29.380     1010.5        340.755502    333.291297    425.749112    416.422219    15.600000     2011-06-16T13:52:35.01Z  
1352.9162   49975   43.5200  -70.1063  54.0     8.6    14.165     29.384     1010.5        340.777404    333.312339    425.750117    416.425394    15.600000     2011-06-16T13:52:54.97Z  
1353.2502   49995   43.5209  -70.1046  56.0     8.6    14.172     29.384     1010.6        340.790071    333.324156    425.702974    416.376685    15.600000     2011-06-16T13:53:15.01Z  
1353.5829   50015   43.5218  -70.1028  56.0     8.6    14.175     29.373     1010.6        340.738886    333.275258    425.862075    416.535187    15.600000     2011-06-16T13:53:34.97Z  
1353.9170   50035   43.5226  -70.1011  54.0     8.6    14.195     29.371     1010.5        340.761985    333.286759    425.673672    416.337198    15.600000     2011-06-16T13:53:55.02Z  
1354.2496   50055   43.5236  -70.0994  50.0     8.6    14.199     29.400     1010.5        340.946378    333.466816    425.431352    416.097514    15.600000     2011-06-16T13:54:14.98Z  
1354.5837   50075   43.5247  -70.0978  48.0     8.7    14.176     29.437     1010.5        340.961501    333.486929    425.551159    416.222070    15.600000     2011-06-16T13:54:35.02Z  
1354.9163   50095   43.5258  -70.0964  43.0     8.7    14.185     29.473     1010.5        340.948382    333.472939    425.895068    416.566858    15.600000     2011-06-16T13:54:54.98Z  
1355.2504   50115   43.5271  -70.0950  38.0     8.7    14.212     29.461     1010.6        341.141930    333.655216    425.553740    416.212048    15.600000     2011-06-16T13:55:15.02Z  
1355.5830   50135   43.5284  -70.0939  31.0     8.7    14.229     29.498     1010.5        341.368752    333.870531    425.590901    416.242587    15.600000     2011-06-16T13:55:34.98Z  
1355.9171   50155   43.5298  -70.0929  25.0     8.7    14.272     29.482     1010.5        341.478757    333.960615    425.816914    416.441816    15.600000     2011-06-16T13:55:55.03Z  
1356.2498   50175   43.5313  -70.0921  22.0     8.8    14.332     29.461     1010.6        341.687637    334.149275    425.716349    416.323240    15.600000     2011-06-16T13:56:14.99Z  
1356.5838   50195   43.5327  -70.0913  24.0     8.8    14.365     29.491     1010.5        342.178251    334.617463    425.751365    416.343807    15.600000     2011-06-16T13:56:35.03Z  
1356.9165   50215   43.5342  -70.0904  24.0     8.8    14.316     29.533     1010.6        342.552245    335.003994    425.819361    416.436147    15.600000     2011-06-16T13:56:54.99Z  
1357.2506   50235   43.5356  -70.0895  24.0     8.8    14.237     29.591     1010.6        343.192961    335.654362    425.667466    416.317087    15.600000     2011-06-16T13:57:15.04Z  
1357.5832   50255   43.5371  -70.0886  23.0     8.8    14.087     29.688     1010.6        343.491950    336.002792    425.733074    416.450673    15.600000     2011-06-16T13:57:34.99Z  
1357.9173   50275   43.5385  -70.0878  24.0     8.8    13.962     29.814     1010.6        343.791568    336.335616    425.563454    416.333955    15.600000     2011-06-16T13:57:55.04Z  
1358.2499   50295   43.5399  -70.0869  24.0     8.7    13.807     30.031     1010.6        343.602741    336.202204    425.423810    416.260881    15.600000     2011-06-16T13:58:14.99Z  
1358.5840   50315   43.5414  -70.0860  23.0     8.7    13.811     29.771     1010.6        343.040850    335.648389    425.487288    416.317982    15.600000     2011-06-16T13:58:35.04Z  
1358.9166   50335   43.5428  -70.0852  23.0     8.7    13.971     29.539     1010.5        342.353015    334.913750    425.496676    416.250579    15.600000     2011-06-16T13:58:55.00Z  
1359.2493   50355   43.5442  -70.0843  24.0     8.7    14.060     29.479     1010.5        341.353948    333.911410    425.311251    416.038053    15.600000     2011-06-16T13:59:14.96Z  
1359.5834   50375   43.5457  -70.0834  24.0     8.8    14.107     29.464     1010.5        341.070155    333.618092    425.272939    415.980781    15.600000     2011-06-16T13:59:35.00Z  
1359.9002   50394   43.5471  -70.0826  24.0     8.7    14.154     29.462     1010.5        340.954263    333.486038    nd            nd            16.033333     2011-06-16T13:59:54.01Z  
1400.2501   50415   43.5485  -70.0816  25.0     8.7    14.188     29.461     1010.5        341.102163    333.618427    nd            nd            18.200000     2011-06-16T14:00:15.01Z  
1400.5827   50435   43.5500  -70.0807  24.0     8.8    14.188     29.469     1010.5        341.296806    333.805298    nd            nd            18.200000     2011-06-16T14:00:34.96Z  
1400.9168   50455   43.5514  -70.0799  23.0     8.7    14.196     29.454     1010.5        341.604159    334.100786    nd            nd            18.200000     2011-06-16T14:00:55.01Z  
1401.2494   50475   43.5529  -70.0790  23.0     8.7    14.243     29.426     1010.5        341.765558    334.241189    nd            nd            18.200000     2011-06-16T14:01:14.96Z  
1401.5835   50495   43.5543  -70.0782  23.0     8.7    14.276     29.417     1010.5        342.066633    334.522940    nd            nd            18.200000     2011-06-16T14:01:35.01Z  
1401.9162   50515   43.5558  -70.0773  23.0     8.8    14.250     29.458     1010.5        342.229074    334.688209    424.755511    415.397007    18.200000     2011-06-16T14:01:54.97Z  
1402.2502   50535   43.5572  -70.0764  25.0     8.8    14.208     29.496     1010.5        342.580300    335.046856    424.498324    415.163343    18.200000     2011-06-16T14:02:15.01Z  
1402.5829   50555   43.5587  -70.0755  25.0     8.7    14.186     29.509     1010.5        342.830809    335.298927    424.329547    415.007037    18.200000     2011-06-16T14:02:34.97Z  
1402.9170   50575   43.5601  -70.0746  25.0     8.8    14.164     29.536     1010.5        343.291765    335.756164    424.131005    414.820773    18.200000     2011-06-16T14:02:55.02Z  
1403.2496   50595   43.5615  -70.0737  23.0     8.8    14.078     29.641     1010.5        343.591208    336.077537    424.119407    414.844603    18.200000     2011-06-16T14:03:14.98Z  
1403.5837   50615   43.5630  -70.0729  22.0     8.8    13.974     29.742     1010.5        344.090483    336.596879    423.884833    414.653332    18.200000     2011-06-16T14:03:35.02Z  
1403.9163   50635   43.5644  -70.0720  25.0     8.8    13.950     29.797     1010.5        344.516914    337.021156    423.996043    414.771142    18.200000     2011-06-16T14:03:54.98Z  
1404.2504   50655   43.5659  -70.0712  24.0     8.8    13.923     29.827     1010.5        344.395498    336.908471    nd            nd            18.200000     2011-06-16T14:04:15.02Z  
1404.5830   50675   43.5673  -70.0703  24.0     8.8    13.908     29.735     1010.5        344.138454    336.662348    423.697920    414.482227    18.200000     2011-06-16T14:04:34.98Z  
1404.9171   50695   43.5688  -70.0694  23.0     8.9    13.814     29.811     1010.5        344.092370    336.644908    423.789995    414.617444    18.200000     2011-06-16T14:04:55.03Z  
1405.2498   50715   43.5703  -70.0685  25.0     8.9    13.652     29.926     1010.5        343.536957    336.153227    423.643094    414.537503    18.200000     2011-06-16T14:05:14.99Z  
1405.5838   50735   43.5717  -70.0676  23.0     8.9    13.503     30.056     1010.5        342.884175    335.566390    423.638969    414.597602    18.200000     2011-06-16T14:05:35.03Z  
1405.9165   50755   43.5732  -70.0667  23.0     8.9    13.286     30.221     1010.5        341.946939    334.713429    423.570971    414.610695    18.200000     2011-06-16T14:05:54.99Z  
1406.2506   50775   43.5747  -70.0659  23.0     9.0    13.116     30.298     1010.5        340.982427    333.825951    423.541202    414.651875    18.200000     2011-06-16T14:06:15.04Z  
1406.5832   50795   43.5762  -70.0649  25.0     8.9    12.950     30.448     1010.5        339.601573    332.523502    423.507049    414.680078    18.200000     2011-06-16T14:06:34.99Z  
1406.9173   50815   43.5776  -70.0640  25.0     9.0    12.766     30.593     1010.5        338.140730    331.152410    423.416879    414.661691    18.200000     2011-06-16T14:06:55.04Z  
1407.2499   50835   43.5791  -70.0631  23.0     9.0    12.791     30.414     1010.5        336.313454    329.353481    nd            nd            18.200000     2011-06-16T14:07:14.99Z  
1407.5840   50855   43.5806  -70.0622  25.0     9.0    13.007     30.187     1010.5        334.434297    327.448035    423.432409    414.582297    18.200000     2011-06-16T14:07:35.04Z  
1407.9166   50875   43.5821  -70.0613  23.0     9.0    13.069     30.160     1010.5        332.637514    325.671655    423.298879    414.434299    18.200000     2011-06-16T14:07:55.00Z  
1408.2507   50895   43.5836  -70.0604  24.0     9.0    13.087     30.205     1010.5        331.849959    324.899818    423.239448    414.375130    18.200000     2011-06-16T14:08:15.04Z  
1408.5834   50915   43.5850  -70.0596  23.0     8.9    13.091     30.265     1010.5        331.600199    324.655584    423.597363    414.742509    18.200000     2011-06-16T14:08:35.00Z  
1408.9160   50935   43.5865  -70.0587  23.0     9.0    13.232     30.229     1010.5        331.498171    324.511352    423.251970    414.362314    18.200000     2011-06-16T14:08:54.96Z  
1409.2501   50955   43.5880  -70.0578  25.0     9.0    13.259     30.174     1010.5        331.688334    324.690546    422.933198    413.993230    18.200000     2011-06-16T14:09:15.01Z  
1409.5827   50975   43.5895  -70.0568  25.0     9.1    13.181     30.206     1010.5        332.117971    325.133118    422.920454    414.025763    18.200000     2011-06-16T14:09:34.96Z  
1409.9168   50995   43.5909  -70.0560  23.0     8.5    13.068     30.227     1010.5        332.839139    325.885546    422.853383    413.995580    18.200000     2011-06-16T14:09:55.01Z  
1410.2494   51015   43.5917  -70.0556  15.0     4.1    12.944     30.267     1010.6        333.088474    326.175877    nd            nd            18.200000     2011-06-16T14:10:14.96Z  
1410.5835   51035   43.5922  -70.0555  15.0     2.7    13.005     30.124     1010.6        333.031622    326.102692    nd            nd            18.200000     2011-06-16T14:10:35.01Z  
1410.9162   51055   43.5926  -70.0553  17.0     2.6    13.066     30.092     1010.6        332.571854    325.631295    nd            nd            18.200000     2011-06-16T14:10:54.97Z  
1411.2502   51075   43.5930  -70.0551  18.0     2.6    13.206     30.028     1010.6        331.916140    324.951641    nd            nd            18.200000     2011-06-16T14:11:15.01Z  
1411.5829   51095   43.5935  -70.0549  16.0     2.5    13.445     29.978     1010.6        331.367828    324.338600    nd            nd            18.200000     2011-06-16T14:11:34.97Z  
1411.9170   51115   43.5939  -70.0547  15.0     2.5    13.424     30.020     1010.6        331.002291    323.991417    nd            nd            18.200000     2011-06-16T14:11:55.02Z  
1412.2496   51135   43.5944  -70.0546  15.0     2.5    13.645     29.803     1010.6        331.162069    324.079994    nd            nd            18.200000     2011-06-16T14:12:14.98Z  
1412.5837   51155   43.5948  -70.0544  16.0     2.5    13.803     29.790     1010.6        331.613647    324.474584    nd            nd            18.200000     2011-06-16T14:12:35.02Z  
1412.9163   51175   43.5952  -70.0542  17.0     2.7    13.888     29.717     1010.6        332.134304    324.954232    nd            nd            18.200000     2011-06-16T14:12:54.98Z  
1413.2504   51195   43.5962  -70.0537  23.0     6.2    13.885     29.785     1010.5        333.096565    325.889407    nd            nd            18.200000     2011-06-16T14:13:15.02Z  
1413.5830   51215   43.5976  -70.0528  23.0     8.2    13.569     30.011     1010.5        334.239921    327.105839    423.098488    414.092865    18.200000     2011-06-16T14:13:34.98Z  
1413.9171   51235   43.5990  -70.0520  23.0     8.6    13.218     30.159     1010.5        335.170353    328.128011    422.969241    414.081962    18.200000     2011-06-16T14:13:55.03Z  
1414.2498   51255   43.6005  -70.0511  24.0     8.9    13.101     30.081     1010.5        335.754752    328.736767    422.926965    414.086757    18.200000     2011-06-16T14:14:14.99Z  
1414.5838   51275   43.6020  -70.0503  23.0     9.0    13.357     29.868     1010.5        335.304068    328.214616    422.950257    414.007525    18.200000     2011-06-16T14:14:35.03Z  
1414.9165   51295   43.6035  -70.0494  23.0     9.1    13.262     30.016     1010.5        334.044939    327.011969    423.102960    414.195202    18.200000     2011-06-16T14:14:54.99Z  
1415.2506   51315   43.6049  -70.0485  24.0     9.0    13.233     29.963     1010.6        333.102069    326.100006    422.840027    413.935541    18.200000     2011-06-16T14:15:15.04Z  
1415.5832   51335   43.6064  -70.0476  22.0     9.0    13.272     29.926     1010.6        332.468757    325.473560    422.992331    414.096240    18.200000     2011-06-16T14:15:34.99Z  
1415.9173   51355   43.6080  -70.0468  22.0     9.0    13.421     29.787     1010.6        331.826090    324.798593    422.840676    413.874336    18.200000     2011-06-16T14:15:55.04Z  
1416.2499   51375   43.6094  -70.0459  24.0     9.0    13.681     29.613     1010.6        331.257771    324.162004    423.058091    413.999933    18.200000     2011-06-16T14:16:14.99Z  
1416.5840   51395   43.6109  -70.0450  23.0     9.0    13.784     29.579     1010.6        331.405557    324.277077    422.722049    413.608050    18.200000     2011-06-16T14:16:35.04Z  
1416.9166   51415   43.6124  -70.0440  29.0     8.9    13.901     29.524     1010.6        332.036202    324.857574    422.817576    413.676130    18.200000     2011-06-16T14:16:55.00Z  
1417.2507   51435   43.6137  -70.0428  32.0     8.8    14.069     29.476     1010.6        333.328442    326.067838    423.080524    413.876936    18.200000     2011-06-16T14:17:15.04Z  
1417.5834   51455   43.6150  -70.0416  34.0     8.9    14.135     29.426     1010.6        334.787494    327.472885    422.508183    413.273775    18.200000     2011-06-16T14:17:35.00Z  
1417.9160   51475   43.6164  -70.0404  32.0     8.9    14.300     29.260     1010.6        336.364662    328.957740    422.585891    413.280217    18.200000     2011-06-16T14:17:54.96Z  
1418.2501   51495   43.6177  -70.0392  35.0     8.9    14.426     29.229     1010.6        337.773158    330.298169    422.494633    413.144638    18.200000     2011-06-16T14:18:15.01Z  
1418.5827   51515   43.6190  -70.0380  32.0     8.9    14.509     29.214     1010.6        339.386083    331.850846    422.406428    413.027793    18.200000     2011-06-16T14:18:34.96Z  
1418.9168   51535   43.6204  -70.0368  32.0     8.9    14.562     29.205     1010.6        341.310705    333.715801    422.362967    412.964373    18.200000     2011-06-16T14:18:55.01Z  
1419.2494   51555   43.6217  -70.0356  34.0     8.9    14.711     29.167     1010.6        343.216602    335.531404    422.267207    412.811838    18.200000     2011-06-16T14:19:14.96Z  
1419.5835   51575   43.6231  -70.0343  35.0     8.9    14.834     29.137     1010.6        345.017421    337.247286    422.301825    412.791052    18.200000     2011-06-16T14:19:35.01Z  
1419.9162   51595   43.6243  -70.0330  36.0     8.8    14.850     29.138     1010.6        346.893359    339.076841    422.179235    412.666194    18.200000     2011-06-16T14:19:54.97Z  
1420.2502   51615   43.6257  -70.0318  34.0     8.9    14.821     29.146     1010.6        348.931575    341.079315    422.221922    412.720446    18.200000     2011-06-16T14:20:15.01Z  
1420.5829   51635   43.6270  -70.0306  32.0     9.0    14.802     29.151     1010.6        350.853656    342.963685    422.162457    412.668785    18.200000     2011-06-16T14:20:34.97Z  
1420.9170   51655   43.6284  -70.0295  31.0     8.9    14.826     29.156     1010.6        352.454910    344.523702    422.128036    412.628892    18.200000     2011-06-16T14:20:55.02Z  
1421.2496   51675   43.6298  -70.0283  33.0     8.9    14.878     29.159     1010.6        353.499945    345.527719    422.207802    412.685961    18.200000     2011-06-16T14:21:14.98Z  
1421.5837   51695   43.6311  -70.0271  34.0     8.9    14.875     29.156     1010.6        354.345211    346.353649    421.940956    412.424796    18.200000     2011-06-16T14:21:35.02Z  
1421.9163   51715   43.6324  -70.0258  36.0     8.9    14.865     29.156     1010.6        355.154516    347.150232    422.037616    412.525855    18.200000     2011-06-16T14:21:54.98Z  
1422.2504   51735   43.6337  -70.0245  36.0     8.9    14.852     29.160     1010.6        355.956260    347.936304    422.092894    412.582732    18.200000     2011-06-16T14:22:15.02Z  
1422.5830   51755   43.6350  -70.0232  35.0     8.9    14.882     29.163     1010.6        356.549779    348.506218    421.960760    412.441462    18.200000     2011-06-16T14:22:34.98Z  
1422.9171   51775   43.6364  -70.0220  33.0     9.0    14.983     29.167     1010.6        356.952737    348.859254    422.016300    412.447484    18.200000     2011-06-16T14:22:55.03Z  
1423.2498   51795   43.6377  -70.0208  32.0     8.9    15.035     29.170     1010.6        357.493196    349.371110    422.275253    412.683745    18.200000     2011-06-16T14:23:14.99Z  
1423.5838   51815   43.6390  -70.0196  35.0     9.0    15.007     29.176     1010.6        357.997177    349.873161    422.228653    412.646926    18.200000     2011-06-16T14:23:35.03Z  
1423.9165   51835   43.6404  -70.0183  33.0     9.0    14.921     29.179     1010.6        358.973120    350.861549    422.103471    412.564999    18.200000     2011-06-16T14:23:54.99Z  
1424.2506   51855   43.6417  -70.0171  34.0     8.9    14.852     29.189     1010.6        359.726967    351.621747    422.250111    412.737280    18.200000     2011-06-16T14:24:15.04Z  
1424.5832   51875   43.6431  -70.0159  34.0     9.0    14.779     29.188     1010.6        360.115611    352.027886    422.270737    412.785726    18.200000     2011-06-16T14:24:34.99Z  
1424.9173   51895   43.6444  -70.0146  33.0     9.0    14.757     29.187     1010.6        360.133880    352.052581    422.402360    412.921623    18.200000     2011-06-16T14:24:55.04Z  
1425.2499   51915   43.6458  -70.0135  30.0     8.5    14.737     29.180     1010.6        359.970055    351.909661    422.578456    413.110930    18.200000     2011-06-16T14:25:14.99Z  
1425.5840   51935   43.6465  -70.0131  22.0     4.2    14.735     29.176     1010.7        359.385216    351.347613    nd            nd            18.200000     2011-06-16T14:25:35.04Z  
1425.9166   51955   43.6468  -70.0130  14.0     1.6    14.756     29.175     1010.6        358.834267    350.798935    nd            nd            18.200000     2011-06-16T14:25:55.00Z  
1426.2493   51975   43.6470  -70.0129  40.0     0.9    14.763     29.173     1010.6        358.520737    350.488625    nd            nd            18.200000     2011-06-16T14:26:14.96Z  
1426.5834   51995   43.6472  -70.0129  138.0    1.2    14.772     29.171     1010.6        358.082813    350.051851    nd            nd            18.200000     2011-06-16T14:26:35.00Z  
1426.9160   52015   43.6475  -70.0122  58.0     3.8    14.823     29.174     1010.6        357.888338    349.835746    nd            nd            18.200000     2011-06-16T14:26:54.96Z  
1427.2501   52035   43.6481  -70.0110  52.0     5.7    14.868     29.175     1010.6        357.754739    349.691963    nd            nd            18.200000     2011-06-16T14:27:15.01Z  
1427.5827   52055   43.6491  -70.0099  39.0     7.7    14.893     29.174     1010.6        357.894017    349.803513    423.483363    413.904287    18.200000     2011-06-16T14:27:34.96Z  
1427.9168   52075   43.6505  -70.0087  31.0     9.1    14.888     29.167     1010.6        358.086272    349.992802    nd            nd            18.200000     2011-06-16T14:27:55.01Z  
1428.2494   52095   43.6520  -70.0076  28.0     9.1    14.853     29.150     1010.6        358.551290    350.458945    nd            nd            18.200000     2011-06-16T14:28:14.96Z  
1428.5835   52115   43.6534  -70.0065  32.0     9.0    14.832     29.136     1010.6        358.955944    350.865081    nd            nd            18.200000     2011-06-16T14:28:35.01Z  
1428.9162   52135   43.6548  -70.0052  34.0     9.1    14.799     29.109     1010.6        359.246263    351.161951    nd            nd            18.200000     2011-06-16T14:28:54.97Z  
1429.2502   52155   43.6561  -70.0039  34.0     9.1    14.783     29.089     1010.6        359.013369    350.944283    nd            nd            18.200000     2011-06-16T14:29:15.01Z  
1429.5829   52175   43.6575  -70.0027  33.0     9.1    14.786     29.081     1010.6        358.499170    350.436934    nd            nd            18.200000     2011-06-16T14:29:34.97Z  
1429.9170   52195   43.6589  -70.0015  32.0     9.1    14.828     29.077     1010.6        357.411520    349.358117    nd            nd            18.200000     2011-06-16T14:29:55.02Z  
1430.2496   52215   43.6603  -70.0004  31.0     9.1    14.933     29.069     1010.6        356.407176    348.340484    nd            nd            18.200000     2011-06-16T14:30:14.98Z  
1430.5837   52235   43.6616  -69.9991  33.0     9.1    15.002     29.073     1010.6        355.438312    347.367108    nd            nd            18.200000     2011-06-16T14:30:35.02Z  
1430.9163   52255   43.6630  -69.9979  34.0     9.1    14.941     29.091     1010.6        354.701926    346.669425    nd            nd            18.200000     2011-06-16T14:30:54.98Z  
1431.2504   52275   43.6644  -69.9966  35.0     9.1    14.944     29.109     1010.6        354.395640    346.364373    nd            nd            18.200000     2011-06-16T14:31:15.02Z  
1431.5830   52295   43.6657  -69.9953  32.0     9.2    14.984     29.133     1010.6        354.223999    346.186569    423.743871    414.121813    18.200000     2011-06-16T14:31:34.98Z  
1431.9171   52315   43.6671  -69.9941  34.0     9.2    15.014     29.154     1010.6        354.033682    345.991959    nd            nd            18.200000     2011-06-16T14:31:55.03Z  
1432.2498   52335   43.6685  -69.9928  35.0     9.1    15.000     29.172     1010.6        354.098034    346.063997    423.479001    413.873417    18.200000     2011-06-16T14:32:14.99Z  
1432.5838   52355   43.6698  -69.9915  34.0     9.2    14.967     29.186     1010.6        354.483687    346.454602    423.646985    414.051235    18.200000     2011-06-16T14:32:35.03Z  
1432.9165   52375   43.6712  -69.9903  32.0     9.1    14.959     29.205     1010.6        354.935716    346.899116    423.852181    414.255039    18.200000     2011-06-16T14:32:54.99Z  
1433.2506   52395   43.6726  -69.9890  34.0     9.2    14.990     29.231     1010.6        355.205163    347.148620    423.820712    414.207767    18.200000     2011-06-16T14:33:15.04Z  
1433.5832   52415   43.6740  -69.9878  33.0     9.2    15.062     29.250     1010.6        355.255271    347.170842    423.834890    414.189707    18.200000     2011-06-16T14:33:34.99Z  
1433.9173   52435   43.6753  -69.9865  34.0     9.2    15.207     29.247     1010.6        355.219964    347.082739    424.053796    414.339644    18.200000     2011-06-16T14:33:55.04Z  
1434.2499   52455   43.6767  -69.9852  34.0     9.2    15.246     29.236     1010.6        355.332119    347.174120    424.131547    414.393891    18.200000     2011-06-16T14:34:14.99Z  
1434.5840   52475   43.6777  -69.9836  56.0     8.8    15.271     29.220     1010.5        355.682571    347.493781    424.073841    414.310393    18.200000     2011-06-16T14:34:35.04Z  
1434.9166   52495   43.6773  -69.9816  111.0    8.4    15.232     29.202     1010.5        356.006941    347.822665    nd            nd            18.200000     2011-06-16T14:34:55.00Z  
1435.2493   52515   43.6768  -69.9795  101.0    8.7    15.196     29.199     1010.6        356.240687    348.075367    nd            nd            18.200000     2011-06-16T14:35:14.96Z  
1435.5834   52535   43.6769  -69.9773  87.0     8.9    15.201     29.191     1010.6        356.353530    348.183778    424.231028    414.504200    18.200000     2011-06-16T14:35:35.00Z  
1435.9160   52555   43.6770  -69.9751  86.0     8.9    15.130     29.194     1010.6        356.316336    348.180805    424.039477    414.357560    18.200000     2011-06-16T14:35:54.96Z  
1436.2501   52575   43.6771  -69.9729  88.0     8.9    15.112     29.194     1010.6        356.106203    347.978272    424.185394    414.503482    18.200000     2011-06-16T14:36:15.01Z  
1436.5827   52595   43.6771  -69.9707  89.0     8.9    15.125     29.191     1010.6        355.867232    347.743749    424.351211    414.664389    18.200000     2011-06-16T14:36:34.96Z  
1436.9168   52615   43.6771  -69.9685  90.0     8.9    15.113     29.180     1010.6        355.386623    347.275510    424.538032    414.822801    18.200000     2011-06-16T14:36:55.01Z  
1437.2494   52635   43.6770  -69.9663  93.0     8.9    15.097     29.143     1010.6        355.006388    346.906530    424.086875    414.405150    18.200000     2011-06-16T14:37:14.96Z  
1437.5835   52655   43.6769  -69.9641  95.0     8.9    14.971     29.108     1010.6        354.650495    346.608952    nd            nd            18.200000     2011-06-16T14:37:35.01Z  
1437.9162   52675   43.6768  -69.9619  95.0     8.9    14.826     29.087     1010.6        354.285630    346.305213    424.041013    414.491387    18.200000     2011-06-16T14:37:54.97Z  
1438.2502   52695   43.6766  -69.9597  95.0     8.9    14.811     29.083     1010.6        353.575076    345.617325    423.937163    414.395689    18.200000     2011-06-16T14:38:15.01Z  
1438.5829   52715   43.6765  -69.9575  96.0     8.9    15.075     29.075     1010.6        352.392016    344.367110    423.873249    414.221731    18.200000     2011-06-16T14:38:34.97Z  
1438.9170   52735   43.6763  -69.9553  95.0     8.9    15.154     29.066     1010.6        351.306633    343.280070    423.611531    413.932849    18.200000     2011-06-16T14:38:55.02Z  
1439.2496   52755   43.6761  -69.9531  97.0     8.9    15.078     29.055     1010.6        350.687032    342.703707    423.289771    413.653542    18.200000     2011-06-16T14:39:14.98Z  
1439.5837   52775   43.6760  -69.9509  95.0     8.9    15.060     29.051     1010.6        350.888537    342.907253    423.507172    413.873994    18.200000     2011-06-16T14:39:35.02Z  
1439.9163   52795   43.6758  -69.9487  95.0     8.9    15.146     29.043     1010.6        351.191077    343.179133    423.060659    413.440172    18.200000     2011-06-16T14:39:54.98Z  
1440.2504   52815   43.6757  -69.9465  93.0     9.0    15.175     29.034     1010.6        351.056551    343.038407    423.024732    413.360125    18.200000     2011-06-16T14:40:15.02Z  
1440.5830   52835   43.6756  -69.9443  95.0     9.0    15.245     29.022     1010.6        351.068515    343.026403    422.933608    413.245137    18.200000     2011-06-16T14:40:34.98Z  
1440.9171   52855   43.6754  -69.9420  96.0     9.0    15.332     29.006     1010.6        351.323781    343.244799    422.862936    413.138745    18.200000     2011-06-16T14:40:55.03Z  
1441.2498   52875   43.6753  -69.9398  94.0     8.9    15.312     28.992     1010.6        351.536783    343.465608    422.896130    413.186453    18.200000     2011-06-16T14:41:14.99Z  
1441.5838   52895   43.6752  -69.9376  95.0     9.0    15.256     28.989     1010.6        351.868005    343.810472    422.751855    413.071013    18.200000     2011-06-16T14:41:35.03Z  
1441.9165   52915   43.6750  -69.9354  97.0     9.0    15.139     28.986     1010.7        352.397610    344.371283    422.720900    413.091196    18.200000     2011-06-16T14:41:54.99Z  
1442.2506   52935   43.6748  -69.9332  97.0     9.0    15.039     28.985     1010.7        352.741757    344.743854    422.897558    413.307561    18.200000     2011-06-16T14:42:15.04Z  
1442.5832   52955   43.6746  -69.9310  95.0     9.0    14.962     28.988     1010.7        352.652240    344.693484    422.474563    412.939983    18.200000     2011-06-16T14:42:34.99Z  
1442.9173   52975   43.6746  -69.9287  90.0     9.0    15.015     28.982     1010.7        352.257115    344.290395    422.314383    412.763119    18.200000     2011-06-16T14:42:55.04Z  
1443.2499   52995   43.6745  -69.9265  93.0     9.0    14.966     28.976     1010.7        351.640853    343.705555    422.514091    412.978836    18.200000     2011-06-16T14:43:14.99Z  
1443.5840   53015   43.6743  -69.9243  97.0     9.0    14.864     28.988     1010.7        351.030737    343.150343    422.444950    412.954418    18.200000     2011-06-16T14:43:35.04Z  
1443.9166   53035   43.6743  -69.9221  89.0     9.0    14.815     29.005     1010.7        350.876319    343.022912    421.686442    412.261254    18.200000     2011-06-16T14:43:55.00Z  
1444.2493   53055   43.6747  -69.9199  74.0     9.0    14.821     29.039     1010.7        350.637340    342.786120    421.616231    412.183458    18.200000     2011-06-16T14:44:14.96Z  
1444.5834   53075   43.6754  -69.9179  64.0     9.1    14.916     29.077     1010.7        350.198769    342.330243    421.427535    411.948396    18.200000     2011-06-16T14:44:35.00Z  
1444.9160   53095   43.6763  -69.9159  60.0     9.1    14.996     29.099     1010.7        349.805899    341.915592    420.831655    411.344266    18.200000     2011-06-16T14:44:54.96Z  
1445.2501   53115   43.6771  -69.9140  60.0     9.0    14.933     29.108     1010.7        349.720030    341.860238    421.008296    411.543053    18.200000     2011-06-16T14:45:15.01Z  
1445.5827   53135   43.6779  -69.9120  60.0     9.0    14.927     29.113     1010.7        349.952879    342.086858    420.519690    411.067176    18.200000     2011-06-16T14:45:34.96Z  
1445.9168   53155   43.6787  -69.9101  60.0     9.1    15.052     29.117     1010.7        350.109935    342.196884    420.780909    411.280773    18.200000     2011-06-16T14:45:55.01Z  
1446.2494   53175   43.6795  -69.9081  62.0     9.1    15.015     29.155     1010.7        350.176222    342.274975    420.309078    410.825271    18.200000     2011-06-16T14:46:14.96Z  
1446.5835   53195   43.6803  -69.9061  59.0     9.2    14.844     29.166     1010.7        350.311315    342.467668    420.378582    410.945797    18.200000     2011-06-16T14:46:35.01Z  
1446.9162   53215   43.6812  -69.9042  59.0     9.2    14.634     29.136     1010.7        350.934696    343.151567    419.682890    410.400598    18.200000     2011-06-16T14:46:54.97Z  
1447.2502   53235   43.6820  -69.9022  59.0     9.2    14.474     29.104     1010.8        352.681338    344.919661    419.636104    410.339907    18.200000     2011-06-16T14:47:15.01Z  
1447.5829   53255   43.6829  -69.9003  59.0     9.1    14.278     29.081     1010.8        354.512447    346.780216    nd            nd            18.200000     2011-06-16T14:47:34.97Z  
1447.9170   53275   43.6837  -69.8983  60.0     9.2    14.178     29.065     1010.8        355.909896    348.180125    nd            nd            18.200000     2011-06-16T14:47:55.02Z  
1448.2496   53295   43.6845  -69.8963  62.0     9.2    14.188     29.044     1010.8        356.483070    348.745184    nd            nd            18.200000     2011-06-16T14:48:14.98Z  
1448.5837   53315   43.6852  -69.8943  62.0     9.2    14.403     28.935     1010.8        356.455270    348.646479    nd            nd            18.200000     2011-06-16T14:48:35.02Z  
1448.9163   53335   43.6859  -69.8923  65.0     9.1    14.520     28.814     1010.8        356.174362    348.330080    nd            nd            18.200000     2011-06-16T14:48:54.98Z  
1449.2504   53355   43.6865  -69.8902  71.0     9.1    14.578     28.724     1010.8        356.241540    348.380402    nd            nd            18.200000     2011-06-16T14:49:15.02Z  
1449.5830   53375   43.6869  -69.8880  75.0     9.1    14.537     28.681     1010.8        356.978709    349.112712    nd            nd            18.200000     2011-06-16T14:49:34.98Z  
1449.9171   53395   43.6874  -69.8858  74.0     9.1    14.466     28.710     1010.8        357.586205    349.734357    411.156867    402.148617    18.200000     2011-06-16T14:49:55.03Z  
1450.2498   53415   43.6878  -69.8837  75.0     9.0    14.458     28.704     1010.8        358.146234    350.286795    411.315375    402.294580    18.200000     2011-06-16T14:50:14.99Z  
1450.5838   53435   43.6882  -69.8815  74.0     9.0    14.598     28.595     1010.8        358.269698    350.357922    nd            nd            18.200000     2011-06-16T14:50:35.03Z  
1450.9165   53455   43.6886  -69.8793  76.0     9.0    14.649     28.518     1010.8        358.161282    350.233029    nd            nd            18.200000     2011-06-16T14:50:54.99Z  
1451.2506   53475   43.6891  -69.8772  74.0     8.7    14.687     28.503     1010.9        357.968122    350.047575    409.921711    400.842360    18.200000     2011-06-16T14:51:15.04Z  
1451.5832   53495   43.6893  -69.8757  78.0     6.2    14.814     28.404     1010.9        358.125345    350.181557    nd            nd            18.200000     2011-06-16T14:51:34.99Z  
1451.9173   53515   43.6895  -69.8745  81.0     4.6    14.860     28.364     1010.9        358.227682    350.266855    nd            nd            18.200000     2011-06-16T14:51:55.04Z  
1452.2499   53535   43.6896  -69.8739  78.0     2.4    14.831     28.366     1011.0        358.694945    350.739087    nd            nd            18.200000     2011-06-16T14:52:14.99Z  
1452.5840   53555   43.6896  -69.8737  69.0     0.8    14.823     28.366     1011.0        359.325393    351.360089    nd            nd            18.200000     2011-06-16T14:52:35.04Z  
1452.9166   53575   43.6897  -69.8733  68.0     2.2    14.781     28.352     1010.9        359.846623    351.867890    nd            nd            18.200000     2011-06-16T14:52:55.00Z  
1453.2507   53595   43.6899  -69.8721  76.0     5.2    14.755     27.949     1010.9        360.366206    352.374243    nd            nd            18.200000     2011-06-16T14:53:15.04Z  
1453.5834   53615   43.6903  -69.8703  74.0     7.6    14.854     26.931     1010.8        360.551449    352.490688    nd            nd            18.200000     2011-06-16T14:53:35.00Z  
1453.9160   53635   43.6904  -69.8682  90.0     8.4    14.987     25.941     1010.8        361.103823    352.979110    406.628375    397.469425    18.200000     2011-06-16T14:53:54.96Z  
1454.2501   53655   43.6899  -69.8662  109.0    8.5    14.977     25.483     1010.8        362.482929    354.330034    406.869931    397.713363    18.200000     2011-06-16T14:54:15.01Z  
1454.5827   53675   43.6893  -69.8643  113.0    8.5    14.967     25.116     1010.8        366.504959    358.260683    406.435611    397.291910    18.200000     2011-06-16T14:54:34.96Z  
1454.9168   53695   43.6888  -69.8623  109.0    8.5    14.973     24.897     1010.8        372.413071    364.039904    406.301905    397.177820    18.200000     2011-06-16T14:54:55.01Z  
1455.2494   53715   43.6883  -69.8602  108.0    8.6    15.023     24.738     1010.8        378.708390    370.167516    nd            nd            18.200000     2011-06-16T14:55:14.96Z  
1455.5835   53735   43.6878  -69.8582  106.0    8.5    14.989     24.681     1010.8        384.704668    376.048058    406.377303    397.237291    18.200000     2011-06-16T14:55:35.01Z  
1455.9162   53755   43.6877  -69.8561  95.0     8.5    15.034     24.409     1010.8        390.129812    381.336439    406.407933    397.247666    18.200000     2011-06-16T14:55:54.97Z  
1456.2502   53775   43.6875  -69.8541  99.0     8.1    15.126     24.214     1010.9        394.502856    385.592214    406.466341    397.276601    18.200000     2011-06-16T14:56:15.01Z  
1456.5829   53795   43.6872  -69.8528  107.0    4.9    15.129     24.124     1011.0        398.731924    389.757189    nd            nd            18.200000     2011-06-16T14:56:34.97Z  
1456.9170   53815   43.6871  -69.8524  117.0    1.7    15.109     24.070     1011.0        402.651234    393.601635    nd            nd            18.200000     2011-06-16T14:56:55.02Z  
1457.2496   53835   43.6870  -69.8523  140.0    0.5    15.142     23.978     1011.0        405.543810    396.419029    nd            nd            18.200000     2011-06-16T14:57:14.98Z  
1457.5837   53855   43.6870  -69.8523  193.0    0.3    15.306     23.807     1011.0        407.923875    398.677037    nd            nd            18.200000     2011-06-16T14:57:35.02Z  
1457.9163   53875   43.6869  -69.8523  189.0    0.6    15.567     23.633     1011.0        409.970256    400.562424    nd            nd            18.200000     2011-06-16T14:57:54.98Z  
1458.2504   53895   43.6866  -69.8526  216.0    2.0    15.756     23.586     1010.9        412.246499    402.685404    nd            nd            18.200000     2011-06-16T14:58:15.02Z  
1458.5830   53915   43.6860  -69.8535  227.0    5.4    15.796     23.620     1010.9        415.180945    405.534353    nd            nd            18.200000     2011-06-16T14:58:34.98Z  
1458.9171   53935   43.6854  -69.8550  244.0    7.1    15.868     23.567     1010.9        418.839453    409.062752    nd            nd            18.200000     2011-06-16T14:58:55.03Z  
1459.2498   53955   43.6850  -69.8571  256.0    8.6    16.049     23.486     1010.9        421.560192    411.624813    nd            nd            18.200000     2011-06-16T14:59:14.99Z  
1459.5838   53975   43.6846  -69.8593  253.0    9.5    16.234     23.533     1010.9        424.435276    414.345350    405.600334    395.956586    18.200000     2011-06-16T14:59:35.03Z  
1459.9006   53994   43.6840  -69.8615  250.0    9.7    16.283     23.762     1010.9        426.934595    416.756908    nd            nd            18.266667     2011-06-16T14:59:54.04Z  
1500.2506   54015   43.6834  -69.8638  250.0    9.6    16.067     24.290     1010.9        430.177081    420.036235    nd            nd            18.600000     2011-06-16T15:00:15.04Z  
1500.5832   54035   43.6828  -69.8661  250.0    9.5    15.774     24.693     1010.9        433.483976    423.409464    406.300963    396.891563    18.600000     2011-06-16T15:00:34.99Z  
1500.9173   54055   43.6821  -69.8683  249.0    9.5    15.346     25.175     1010.9        436.229203    426.292273    406.114491    396.780560    18.600000     2011-06-16T15:00:55.04Z  
1501.2499   54075   43.6816  -69.8705  254.0    9.5    15.116     25.201     1010.9        436.846451    426.998548    nd            nd            18.600000     2011-06-16T15:01:14.99Z  
1501.5840   54095   43.6812  -69.8728  253.0    9.5    15.137     25.152     1010.9        435.777587    425.952293    nd            nd            18.600000     2011-06-16T15:01:35.04Z  
1501.9166   54115   43.6807  -69.8751  256.0    9.4    15.051     25.528     1010.9        432.758835    423.047202    nd            nd            18.600000     2011-06-16T15:01:55.00Z  
1502.2507   54135   43.6804  -69.8773  259.0    9.3    14.998     26.067     1011.0        428.878236    419.289889    nd            nd            18.600000     2011-06-16T15:02:15.04Z  
1502.5834   54155   43.6801  -69.8796  261.0    9.2    14.834     27.739     1011.0        425.313017    415.886167    nd            nd            18.600000     2011-06-16T15:02:35.00Z  
1502.9160   54175   43.6799  -69.8818  261.0    9.0    14.669     28.282     1011.0        421.945306    412.675982    nd            nd            18.600000     2011-06-16T15:02:54.96Z  
1503.2501   54195   43.6796  -69.8840  260.0    9.1    14.749     28.344     1011.0        417.776067    408.563882    409.461422    400.392074    18.600000     2011-06-16T15:03:15.01Z  
1503.5827   54215   43.6793  -69.8862  259.0    9.1    15.036     28.353     1011.0        410.861012    401.682770    409.534331    400.385648    18.600000     2011-06-16T15:03:34.96Z  
1503.9168   54235   43.6792  -69.8884  267.0    8.9    15.043     28.459     1011.0        402.050649    393.071609    409.498272    400.353011    18.600000     2011-06-16T15:03:55.01Z  
1504.2494   54255   43.6791  -69.8906  266.0    8.9    14.955     28.511     1011.0        393.525339    384.768758    409.366164    400.256802    18.600000     2011-06-16T15:04:14.96Z  
1504.5835   54275   43.6787  -69.8928  257.0    9.0    14.886     28.567     1011.0        386.743230    378.161082    409.365616    400.272920    18.600000     2011-06-16T15:04:35.01Z  
1504.9162   54295   43.6783  -69.8949  255.0    8.9    14.676     28.678     1011.0        381.738572    373.354934    nd            nd            18.600000     2011-06-16T15:04:54.97Z  
1505.2502   54315   43.6779  -69.8971  254.0    9.0    14.442     28.732     1011.0        377.945753    369.730728    409.669635    400.757441    18.600000     2011-06-16T15:05:15.01Z  
1505.5829   54335   43.6775  -69.8992  257.0    9.0    14.353     28.769     1011.0        374.550397    366.443116    409.932498    401.059336    18.600000     2011-06-16T15:05:34.97Z  
1505.9170   54355   43.6771  -69.9014  257.0    9.0    14.276     28.860     1011.0        371.368720    363.362630    409.867330    401.031245    18.600000     2011-06-16T15:05:55.02Z  
1506.2496   54375   43.6767  -69.9036  254.0    9.1    14.271     28.891     1011.0        368.358687    360.413663    409.858728    401.018509    18.600000     2011-06-16T15:06:14.98Z  
1506.5837   54395   43.6763  -69.9057  254.0    9.0    14.450     28.913     1011.0        365.521110    357.573512    409.850985    400.939392    18.600000     2011-06-16T15:06:35.02Z  
1506.9163   54415   43.6758  -69.9079  254.0    9.0    14.548     29.028     1011.0        363.122234    355.191010    409.975475    401.005364    18.600000     2011-06-16T15:06:54.98Z  
1507.2504   54435   43.6754  -69.9100  254.0    9.1    14.506     29.124     1011.0        361.275109    353.384790    409.967413    401.013129    18.600000     2011-06-16T15:07:15.02Z  
1507.5830   54455   43.6750  -69.9122  255.0    9.0    14.561     29.154     1011.0        360.534567    352.651613    409.901754    400.939332    18.600000     2011-06-16T15:07:34.98Z  
1507.9171   54475   43.6745  -69.9144  252.0    9.2    14.631     29.181     1011.0        360.442068    352.529089    410.044441    401.037532    18.600000     2011-06-16T15:07:55.03Z  
1508.2498   54495   43.6740  -69.9165  254.0    8.9    14.708     29.214     1011.0        360.661443    352.732361    410.437553    401.422612    18.600000     2011-06-16T15:08:14.99Z  
1508.5838   54515   43.6738  -69.9177  262.0    4.3    14.855     29.227     1011.1        361.152127    353.182267    nd            nd            18.600000     2011-06-16T15:08:35.03Z  
1508.9165   54535   43.6738  -69.9180  281.0    1.0    14.972     29.182     1011.1        361.812134    353.786390    nd            nd            18.600000     2011-06-16T15:08:54.99Z  
1509.2506   54555   43.6739  -69.9179  38.0     0.2    15.101     29.143     1011.1        363.011949    354.913380    nd            nd            18.600000     2011-06-16T15:09:15.04Z  
1509.5832   54575   43.6739  -69.9179  14.0     0.2    15.155     29.167     1011.1        364.187620    356.045457    nd            nd            18.600000     2011-06-16T15:09:34.99Z  
1509.9173   54595   43.6739  -69.9179  60.0     0.2    14.607     29.346     1011.1        364.178920    356.238812    nd            nd            18.600000     2011-06-16T15:09:55.04Z  
1510.2499   54615   43.6740  -69.9179  281.0    0.2    14.083     29.397     1011.1        363.416007    355.681731    nd            nd            18.600000     2011-06-16T15:10:14.99Z  
1510.5840   54635   43.6740  -69.9179  351.0    0.2    13.805     29.378     1011.1        362.172550    354.559530    nd            nd            18.600000     2011-06-16T15:10:35.04Z  
1510.9166   54655   43.6740  -69.9179  352.0    0.2    13.702     29.333     1011.1        360.149775    352.616487    nd            nd            18.600000     2011-06-16T15:10:55.00Z  
1511.2493   54675   43.6741  -69.9179  351.0    0.2    13.601     29.377     1011.1        357.178735    349.741239    nd            nd            18.600000     2011-06-16T15:11:14.96Z  
1511.5834   54695   43.6741  -69.9179  350.0    0.2    13.488     29.387     1011.1        353.911916    346.580860    nd            nd            18.600000     2011-06-16T15:11:35.00Z  
1511.9160   54715   43.6741  -69.9179  351.0    0.2    13.471     29.314     1011.1        350.806061    343.542333    nd            nd            18.600000     2011-06-16T15:11:54.96Z  
1512.2501   54735   43.6742  -69.9179  345.0    0.2    13.473     29.305     1011.1        347.919219    340.712033    nd            nd            18.600000     2011-06-16T15:12:15.01Z  
1512.5827   54755   43.6742  -69.9180  350.0    0.2    13.503     29.276     1011.1        345.507143    338.341170    nd            nd            18.600000     2011-06-16T15:12:34.96Z  
1512.9168   54775   43.6742  -69.9180  334.0    0.2    13.556     29.255     1011.1        343.451511    336.308541    nd            nd            18.600000     2011-06-16T15:12:55.01Z  
1513.2494   54795   43.6743  -69.9180  353.0    0.2    13.608     29.251     1011.1        342.015363    334.884043    nd            nd            18.600000     2011-06-16T15:13:14.96Z  
1513.5835   54815   43.6743  -69.9180  351.0    0.2    13.685     29.232     1011.1        340.854210    333.723611    nd            nd            18.600000     2011-06-16T15:13:35.01Z  
1513.9162   54835   43.6744  -69.9180  338.0    0.2    13.759     29.221     1011.1        340.087438    332.947532    nd            nd            18.600000     2011-06-16T15:13:54.97Z  
1514.2502   54855   43.6744  -69.9180  251.0    0.2    13.774     29.226     1011.1        339.601453    332.462506    nd            nd            18.600000     2011-06-16T15:14:15.01Z  
1514.5829   54875   43.6744  -69.9180  180.0    0.2    13.712     29.249     1011.1        339.285754    332.172246    nd            nd            18.600000     2011-06-16T15:14:34.97Z  
1514.9170   54895   43.6745  -69.9180  109.0    0.2    13.634     29.261     1011.1        339.172925    332.086829    nd            nd            18.600000     2011-06-16T15:14:55.02Z  
1515.2496   54915   43.6745  -69.9180  233.0    0.2    13.584     29.266     1011.1        339.057664    331.984000    nd            nd            18.600000     2011-06-16T15:15:14.98Z  
1515.5837   54935   43.6746  -69.9180  285.0    0.2    13.570     29.269     1011.0        339.310080    332.232680    nd            nd            18.600000     2011-06-16T15:15:35.02Z  
1515.9163   54955   43.6746  -69.9180  303.0    0.2    13.586     29.260     1011.0        339.338974    332.254000    nd            nd            18.600000     2011-06-16T15:15:54.98Z  
1516.2504   54975   43.6746  -69.9180  352.0    0.2    13.622     29.253     1011.0        339.400161    332.298331    nd            nd            18.600000     2011-06-16T15:16:15.02Z  
1516.5830   54995   43.6747  -69.9180  352.0    0.2    13.623     29.261     1011.0        339.451375    332.345811    nd            nd            18.600000     2011-06-16T15:16:34.98Z  
1516.9171   55015   43.6747  -69.9180  352.0    0.2    13.596     29.259     1011.0        339.458590    332.358284    nd            nd            18.600000     2011-06-16T15:16:55.03Z  
1517.2498   55035   43.6747  -69.9180  349.0    0.2    13.585     29.252     1011.0        339.322534    332.228019    nd            nd            18.600000     2011-06-16T15:17:14.99Z  
1517.5838   55055   43.6748  -69.9180  348.0    0.2    13.572     29.254     1011.0        339.131192    332.044713    nd            nd            18.600000     2011-06-16T15:17:35.03Z  
1517.9165   55075   43.6748  -69.9180  344.0    0.2    13.542     29.269     1011.0        339.105232    332.031318    nd            nd            18.600000     2011-06-16T15:17:54.99Z  
1518.2506   55095   43.6748  -69.9180  343.0    0.2    13.510     29.285     1011.0        339.021802    331.959008    nd            nd            18.600000     2011-06-16T15:18:15.04Z  
1518.5832   55115   43.6749  -69.9180  345.0    0.2    13.495     29.288     1011.0        338.822341    331.768898    nd            nd            18.600000     2011-06-16T15:18:34.99Z  
1518.9173   55135   43.6749  -69.9180  346.0    0.2    13.489     29.294     1011.0        338.692172    331.644198    nd            nd            18.600000     2011-06-16T15:18:55.04Z  
1519.2499   55155   43.6749  -69.9181  345.0    0.2    13.476     29.305     1011.0        338.618435    331.578740    nd            nd            18.600000     2011-06-16T15:19:14.99Z  
1519.5840   55175   43.6750  -69.9181  349.0    0.2    13.503     29.289     1011.0        338.323434    331.283894    nd            nd            18.600000     2011-06-16T15:19:35.04Z  
1519.9166   55195   43.6750  -69.9181  349.0    0.2    13.545     29.286     1011.0        338.247403    331.197322    nd            nd            18.600000     2011-06-16T15:19:55.00Z  
1520.2493   55215   43.6750  -69.9181  347.0    0.2    13.577     29.284     1011.0        338.079492    331.025531    nd            nd            18.600000     2011-06-16T15:20:14.96Z  
1520.5834   55235   43.6751  -69.9181  349.0    0.2    13.604     29.272     1011.1        337.902276    330.848294    nd            nd            18.600000     2011-06-16T15:20:35.00Z  
1520.9160   55255   43.6751  -69.9181  285.0    0.2    13.628     29.266     1011.1        337.795192    330.735366    nd            nd            18.600000     2011-06-16T15:20:54.96Z  
1521.2501   55275   43.6751  -69.9181  303.0    0.2    13.631     29.267     1011.1        337.928428    330.866083    nd            nd            18.600000     2011-06-16T15:21:15.01Z  
1521.5827   55295   43.6752  -69.9181  216.0    0.2    13.619     29.269     1011.1        337.988427    330.930758    nd            nd            18.600000     2011-06-16T15:21:34.96Z  
1521.9168   55315   43.6752  -69.9181  284.0    0.2    13.547     29.301     1011.1        338.320850    331.280651    nd            nd            18.600000     2011-06-16T15:21:55.01Z  
1522.2494   55335   43.6752  -69.9181  319.0    0.2    13.452     29.340     1011.1        338.403882    331.392981    nd            nd            18.600000     2011-06-16T15:22:14.96Z  
1522.5835   55355   43.6753  -69.9181  318.0    0.2    13.384     29.362     1011.1        338.444550    331.454097    nd            nd            18.600000     2011-06-16T15:22:35.01Z  
1522.9162   55375   43.6753  -69.9181  350.0    0.2    13.360     29.360     1011.1        338.520579    331.536682    nd            nd            18.600000     2011-06-16T15:22:54.97Z  
1523.2502   55395   43.6754  -69.9181  350.0    0.2    13.400     29.330     1011.1        338.499259    331.507196    nd            nd            18.600000     2011-06-16T15:23:15.01Z  
1523.5829   55415   43.6754  -69.9181  352.0    0.2    13.462     29.320     1011.1        338.271034    331.266054    nd            nd            18.600000     2011-06-16T15:23:34.97Z  
1523.9170   55435   43.6754  -69.9181  352.0    0.2    13.445     29.348     1011.1        338.165818    331.169641    nd            nd            18.600000     2011-06-16T15:23:55.02Z  
1524.2496   55455   43.6755  -69.9181  351.0    0.2    13.494     29.305     1011.1        338.055565    331.045105    nd            nd            18.600000     2011-06-16T15:24:14.98Z  
1524.5837   55475   43.6755  -69.9181  348.0    0.2    13.553     29.287     1011.1        338.078671    331.053431    nd            nd            18.600000     2011-06-16T15:24:35.02Z  
1524.9163   55495   43.6755  -69.9182  350.0    0.2    13.542     29.318     1011.1        338.091158    331.068156    nd            nd            18.600000     2011-06-16T15:24:54.98Z  
1525.2504   55515   43.6756  -69.9182  348.0    0.2    13.494     29.344     1011.1        338.193848    331.186853    nd            nd            18.600000     2011-06-16T15:25:15.02Z  
1525.5830   55535   43.6756  -69.9182  349.0    0.2    13.466     29.355     1011.1        338.333160    331.333210    nd            nd            18.600000     2011-06-16T15:25:34.98Z  
1525.9171   55555   43.6756  -69.9182  352.0    0.2    13.420     29.374     1011.1        338.446412    331.458991    nd            nd            18.600000     2011-06-16T15:25:55.03Z  
1526.2498   55575   43.6757  -69.9182  320.0    0.2    13.432     29.348     1011.1        338.565225    331.572878    nd            nd            18.600000     2011-06-16T15:26:14.99Z  
1526.5838   55595   43.6757  -69.9182  268.0    0.2    13.519     29.288     1011.1        338.351490    331.335669    nd            nd            18.600000     2011-06-16T15:26:35.03Z  
1526.9165   55615   43.6757  -69.9182  216.0    0.2    13.629     29.251     1011.1        337.994417    330.951298    nd            nd            18.600000     2011-06-16T15:26:54.99Z  
1527.2506   55635   43.6758  -69.9182  357.0    0.2    13.678     29.248     1011.1        337.730771    330.680150    nd            nd            18.600000     2011-06-16T15:27:15.04Z  
1527.5832   55655   43.6758  -69.9182  353.0    0.2    13.661     29.266     1011.1        337.725541    330.680353    nd            nd            18.600000     2011-06-16T15:27:34.99Z  
1527.9173   55675   43.6758  -69.9182  309.0    0.4    13.654     29.271     1011.1        337.891281    330.844195    nd            nd            18.600000     2011-06-16T15:27:55.04Z  
1528.2499   55695   43.6757  -69.9186  246.0    1.5    13.694     29.247     1011.1        338.288739    331.222236    nd            nd            18.600000     2011-06-16T15:28:14.99Z  
1528.5840   55715   43.6757  -69.9188  247.0    0.9    13.807     29.217     1011.1        338.740667    331.628019    nd            nd            18.600000     2011-06-16T15:28:35.04Z  
1528.9166   55735   43.6756  -69.9189  255.0    0.5    13.941     29.218     1011.1        339.197423    332.031917    nd            nd            18.600000     2011-06-16T15:28:55.00Z  
1529.2493   55755   43.6756  -69.9190  268.0    0.3    14.421     29.175     1011.1        339.587954    332.256043    nd            nd            18.600000     2011-06-16T15:29:14.96Z  
1529.5834   55775   43.6756  -69.9191  282.0    0.3    14.903     29.145     1011.1        339.807767    332.308403    nd            nd            18.600000     2011-06-16T15:29:35.00Z  
1529.9160   55795   43.6756  -69.9191  299.0    0.2    15.129     29.141     1011.1        340.366331    332.778843    nd            nd            18.600000     2011-06-16T15:29:54.96Z  
1530.2501   55815   43.6757  -69.9192  305.0    0.2    15.080     29.167     1011.1        341.906882    334.303116    nd            nd            18.600000     2011-06-16T15:30:15.01Z  
1530.5827   55835   43.6757  -69.9192  310.0    0.2    14.735     29.228     1011.1        344.249821    336.712526    nd            nd            18.600000     2011-06-16T15:30:34.96Z  
1530.9168   55855   43.6757  -69.9192  319.0    0.2    14.465     29.262     1011.1        346.790661    339.292196    nd            nd            18.600000     2011-06-16T15:30:55.01Z  
1531.2494   55875   43.6757  -69.9192  326.0    0.2    14.125     29.334     1011.1        348.902926    341.472357    nd            nd            18.600000     2011-06-16T15:31:14.96Z  
1531.5835   55895   43.6757  -69.9192  326.0    0.2    13.830     29.366     1011.1        350.012619    342.656269    nd            nd            18.600000     2011-06-16T15:31:35.01Z  
1531.9162   55915   43.6758  -69.9193  331.0    0.2    13.670     29.376     1011.1        350.131935    342.824752    nd            nd            18.600000     2011-06-16T15:31:54.97Z  
1532.2502   55935   43.6758  -69.9193  335.0    0.2    13.601     29.367     1011.1        349.290780    342.020256    nd            nd            18.600000     2011-06-16T15:32:15.01Z  
1532.5829   55955   43.6758  -69.9193  337.0    0.2    13.543     29.375     1011.1        347.736070    340.514165    nd            nd            18.600000     2011-06-16T15:32:34.97Z  
1532.9170   55975   43.6759  -69.9193  345.0    0.2    13.523     29.369     1011.1        345.662219    338.485221    nd            nd            18.600000     2011-06-16T15:32:55.02Z  
1533.2496   55995   43.6759  -69.9193  344.0    0.2    13.556     29.332     1011.1        343.629330    336.481710    nd            nd            18.600000     2011-06-16T15:33:14.98Z  
1533.5837   56015   43.6759  -69.9193  349.0    0.2    13.635     29.292     1011.1        341.648027    334.513988    nd            nd            18.600000     2011-06-16T15:33:35.02Z  
1533.9163   56035   43.6760  -69.9193  348.0    0.2    13.752     29.255     1011.1        339.948332    332.808765    nd            nd            18.600000     2011-06-16T15:33:54.98Z  
1534.2504   56055   43.6760  -69.9193  348.0    0.2    13.809     29.243     1011.1        338.656188    331.520174    nd            nd            18.600000     2011-06-16T15:34:15.02Z  
1534.5830   56075   43.6760  -69.9194  345.0    0.2    13.833     29.240     1011.0        337.994797    330.861366    nd            nd            18.600000     2011-06-16T15:34:34.98Z  
1534.9171   56095   43.6761  -69.9194  348.0    0.2    13.852     29.231     1011.0        337.729697    330.594083    nd            nd            18.600000     2011-06-16T15:34:55.03Z  
1535.2498   56115   43.6761  -69.9194  354.0    0.2    13.836     29.235     1011.0        337.609893    330.480101    nd            nd            18.600000     2011-06-16T15:35:14.99Z  
1535.5838   56135   43.6761  -69.9194  351.0    0.2    13.805     29.245     1011.0        337.775451    330.650205    nd            nd            18.600000     2011-06-16T15:35:35.03Z  
1535.9165   56155   43.6762  -69.9194  349.0    0.2    13.768     29.248     1011.0        337.948503    330.828308    nd            nd            18.600000     2011-06-16T15:35:54.99Z  
1536.2506   56175   43.6762  -69.9194  349.0    0.2    13.795     29.235     1011.0        337.994642    330.866395    nd            nd            18.600000     2011-06-16T15:36:15.04Z  
1536.5832   56195   43.6762  -69.9194  346.0    0.2    13.819     29.237     1011.0        337.858705    330.725953    nd            nd            18.600000     2011-06-16T15:36:34.99Z  
1536.9173   56215   43.6763  -69.9194  348.0    0.2    13.807     29.244     1011.0        337.918966    330.787943    nd            nd            18.600000     2011-06-16T15:36:55.04Z  
1537.2499   56235   43.6763  -69.9194  348.0    0.2    13.819     29.232     1011.0        338.237346    331.094022    nd            nd            18.600000     2011-06-16T15:37:14.99Z  
1537.5840   56255   43.6763  -69.9194  346.0    0.2    13.916     29.210     1011.0        338.558927    331.376689    nd            nd            18.600000     2011-06-16T15:37:35.04Z  
1537.9166   56275   43.6764  -69.9195  342.0    0.2    13.950     29.225     1011.0        338.847011    331.644887    nd            nd            18.600000     2011-06-16T15:37:55.00Z  
1538.2507   56295   43.6764  -69.9195  343.0    0.2    13.897     29.242     1011.0        339.067751    331.874837    nd            nd            18.600000     2011-06-16T15:38:15.04Z  
1538.5834   56315   43.6764  -69.9195  345.0    0.2    13.853     29.256     1011.0        339.118985    331.941303    nd            nd            18.600000     2011-06-16T15:38:35.00Z  
1538.9160   56335   43.6765  -69.9195  347.0    0.2    13.764     29.290     1011.0        339.227951    332.077998    nd            nd            18.600000     2011-06-16T15:38:54.96Z  
1539.2501   56355   43.6765  -69.9195  347.0    0.2    13.669     29.316     1011.0        339.373237    332.249440    nd            nd            18.600000     2011-06-16T15:39:15.01Z  
1539.5827   56375   43.6765  -69.9195  344.0    0.2    13.611     29.317     1011.0        339.376094    332.272974    nd            nd            18.600000     2011-06-16T15:39:34.96Z  
1539.9168   56395   43.6766  -69.9196  344.0    0.2    13.614     29.299     1011.0        339.262532    332.158862    nd            nd            18.600000     2011-06-16T15:39:55.01Z  
1540.2494   56415   43.6766  -69.9196  338.0    0.2    13.615     29.288     1011.0        338.940267    331.844792    nd            nd            18.600000     2011-06-16T15:40:14.96Z  
1540.5835   56435   43.6766  -69.9196  335.0    0.2    13.602     29.292     1011.0        338.583087    331.499148    nd            nd            18.600000     2011-06-16T15:40:35.01Z  
1540.9162   56455   43.6767  -69.9196  336.0    0.2    13.611     29.292     1011.0        338.360129    331.278959    nd            nd            18.600000     2011-06-16T15:40:54.97Z  
1541.2502   56475   43.6767  -69.9196  338.0    0.2    13.614     29.297     1011.0        338.231602    331.149732    nd            nd            18.600000     2011-06-16T15:41:15.01Z  
1541.5829   56495   43.6767  -69.9196  344.0    0.2    13.614     29.299     1011.0        338.074544    330.998352    nd            nd            18.600000     2011-06-16T15:41:34.97Z  
1541.9170   56515   43.6768  -69.9196  346.0    0.2    13.598     29.303     1011.0        337.973023    330.904842    nd            nd            18.600000     2011-06-16T15:41:55.02Z  
1542.2496   56535   43.6768  -69.9197  348.0    0.2    13.582     29.299     1011.0        337.915584    330.853683    nd            nd            18.600000     2011-06-16T15:42:14.98Z  
1542.5837   56555   43.6768  -69.9197  349.0    0.2    13.594     29.283     1011.0        337.737227    330.675281    nd            nd            18.600000     2011-06-16T15:42:35.02Z  
1542.9163   56575   43.6769  -69.9197  349.0    0.2    13.626     29.272     1011.0        337.464096    330.398821    nd            nd            18.600000     2011-06-16T15:42:54.98Z  
1543.2504   56595   43.6769  -69.9197  347.0    0.2    13.657     29.266     1011.0        337.413253    330.335270    nd            nd            18.600000     2011-06-16T15:43:15.02Z  
1543.5830   56615   43.6770  -69.9197  348.0    0.2    13.630     29.284     1011.0        337.318361    330.251722    nd            nd            18.600000     2011-06-16T15:43:34.98Z  
1543.9171   56635   43.6770  -69.9197  351.0    0.2    13.573     29.310     1011.0        337.464724    330.411999    nd            nd            18.600000     2011-06-16T15:43:55.03Z  
1544.2498   56655   43.6770  -69.9197  352.0    0.2    13.523     29.329     1011.0        337.661992    330.618124    nd            nd            18.600000     2011-06-16T15:44:14.99Z  
1544.5838   56675   43.6771  -69.9197  355.0    0.2    13.488     29.339     1011.0        337.950469    330.911092    nd            nd            18.600000     2011-06-16T15:44:35.03Z  
1544.9165   56695   43.6771  -69.9197  353.0    0.2    13.471     29.324     1011.0        338.194435    331.152325    nd            nd            18.600000     2011-06-16T15:44:54.99Z  
1545.2506   56715   43.6771  -69.9197  354.0    0.2    13.522     29.288     1011.0        338.135489    331.077219    nd            nd            18.600000     2011-06-16T15:45:15.04Z  
1545.5832   56735   43.6772  -69.9197  351.0    0.2    13.549     29.283     1011.0        337.954676    330.887644    nd            nd            18.600000     2011-06-16T15:45:34.99Z  
1545.9173   56755   43.6772  -69.9197  350.0    0.2    13.547     29.284     1011.0        337.724911    330.661977    nd            nd            18.600000     2011-06-16T15:45:55.04Z  
1546.2499   56775   43.6772  -69.9197  350.0    0.2    13.552     29.282     1011.0        337.696824    330.629720    nd            nd            18.600000     2011-06-16T15:46:14.99Z  
1546.5840   56795   43.6773  -69.9197  353.0    0.2    13.581     29.273     1011.0        337.767259    330.689801    nd            nd            18.600000     2011-06-16T15:46:35.04Z  
1546.9166   56815   43.6773  -69.9198  356.0    0.2    13.718     29.236     1011.0        337.882362    330.757344    nd            nd            18.600000     2011-06-16T15:46:55.00Z  
1547.2507   56835   43.6774  -69.9198  109.0    0.2    13.826     29.226     1010.9        337.787420    330.625403    nd            nd            18.600000     2011-06-16T15:47:15.04Z  
1547.5834   56855   43.6774  -69.9197  74.0     0.2    13.796     29.244     1010.9        337.706213    330.558694    nd            nd            18.600000     2011-06-16T15:47:35.00Z  
1547.9160   56875   43.6774  -69.9198  356.0    0.2    13.681     29.271     1010.9        337.559914    330.450693    nd            nd            18.600000     2011-06-16T15:47:54.96Z  
1548.2501   56895   43.6775  -69.9198  350.0    0.2    13.604     29.282     1010.9        337.730523    330.642221    nd            nd            18.600000     2011-06-16T15:48:15.01Z  
1548.5827   56915   43.6775  -69.9198  351.0    0.2    13.621     29.267     1010.9        337.707113    330.611214    nd            nd            18.600000     2011-06-16T15:48:34.96Z  
1548.9168   56935   43.6775  -69.9198  350.0    0.2    13.672     29.255     1010.9        337.719685    330.605058    nd            nd            18.600000     2011-06-16T15:48:55.01Z  
1549.2494   56955   43.6776  -69.9198  346.0    0.2    13.657     29.265     1010.9        337.717804    330.607770    nd            nd            18.600000     2011-06-16T15:49:14.96Z  
1549.5835   56975   43.6776  -69.9198  342.0    0.2    13.637     29.272     1010.9        337.551325    330.445389    nd            nd            18.600000     2011-06-16T15:49:35.01Z  
1549.9162   56995   43.6777  -69.9198  343.0    0.2    13.626     29.282     1010.9        337.505858    330.403655    nd            nd            18.600000     2011-06-16T15:49:54.97Z  
1550.2502   57015   43.6777  -69.9198  346.0    0.2    13.633     29.277     1010.9        337.497275    330.387351    nd            nd            18.600000     2011-06-16T15:50:15.01Z  
1550.5829   57035   43.6777  -69.9199  350.0    0.2    13.660     29.276     1010.9        337.349271    330.233514    nd            nd            18.600000     2011-06-16T15:50:34.97Z  
1550.9170   57055   43.6778  -69.9199  302.0    0.5    13.612     29.300     1010.9        337.161526    330.057766    nd            nd            18.600000     2011-06-16T15:50:55.02Z  
1551.2496   57075   43.6775  -69.9206  240.0    3.4    13.619     29.278     1010.8        336.969361    329.858381    nd            nd            18.600000     2011-06-16T15:51:14.98Z  
1551.5837   57095   43.6769  -69.9217  236.0    5.8    13.733     29.247     1010.8        336.893833    329.738983    nd            nd            18.600000     2011-06-16T15:51:35.02Z  
1551.9163   57115   43.6762  -69.9231  233.0    6.9    14.045     29.210     1010.8        336.746409    329.494511    nd            nd            18.600000     2011-06-16T15:51:54.98Z  
1552.2504   57135   43.6754  -69.9245  235.0    7.2    14.696     29.149     1010.8        336.747044    329.268829    nd            nd            18.600000     2011-06-16T15:52:15.02Z  
1552.5830   57155   43.6749  -69.9264  251.0    8.2    15.053     29.127     1010.8        337.023914    329.411151    nd            nd            18.600000     2011-06-16T15:52:34.98Z  
1552.9171   57175   43.6744  -69.9285  250.0    8.7    15.234     29.119     1010.7        338.148903    330.442256    nd            nd            18.600000     2011-06-16T15:52:55.03Z  
1553.2498   57195   43.6740  -69.9306  256.0    8.8    15.330     29.109     1010.7        340.489659    332.698288    nd            nd            18.600000     2011-06-16T15:53:14.99Z  
1553.5838   57215   43.6737  -69.9328  259.0    8.8    15.327     29.085     1010.7        343.326972    335.472148    nd            nd            18.600000     2011-06-16T15:53:35.03Z  
1553.9165   57235   43.6735  -69.9350  265.0    9.0    15.272     29.060     1010.7        346.341340    338.435056    nd            nd            18.600000     2011-06-16T15:53:54.99Z  
1554.2506   57255   43.6735  -69.9372  268.0    8.9    15.164     29.044     1010.8        348.799398    340.883249    nd            nd            18.600000     2011-06-16T15:54:15.04Z  
1554.5832   57275   43.6735  -69.9394  271.0    9.0    15.153     29.032     1010.7        351.024596    343.056859    419.928765    410.388145    18.600000     2011-06-16T15:54:34.99Z  
1554.9173   57295   43.6736  -69.9417  272.0    9.1    15.198     29.020     1010.8        352.604192    344.594260    nd            nd            18.600000     2011-06-16T15:54:55.04Z  
1555.2499   57315   43.6736  -69.9439  273.0    9.2    15.223     29.017     1010.8        353.487940    345.445091    418.972699    409.439379    18.600000     2011-06-16T15:55:14.99Z  
1555.5840   57335   43.6737  -69.9462  272.0    9.2    15.299     29.019     1010.7        353.945911    345.857966    419.204169    409.626586    18.600000     2011-06-16T15:55:35.04Z  
1555.9166   57355   43.6739  -69.9485  276.0    9.1    15.422     29.017     1010.8        354.314849    346.181720    nd            nd            18.600000     2011-06-16T15:55:55.00Z  
1556.2493   57375   43.6740  -69.9507  274.0    9.2    15.524     29.017     1010.7        354.609265    346.421852    nd            nd            18.600000     2011-06-16T15:56:14.96Z  
1556.5834   57395   43.6742  -69.9530  275.0    9.3    15.465     29.018     1010.7        355.082235    346.907758    418.901757    409.257657    18.600000     2011-06-16T15:56:35.00Z  
1556.9160   57415   43.6744  -69.9553  277.0    9.1    15.473     29.017     1010.8        355.685405    347.500371    418.774894    409.137946    18.600000     2011-06-16T15:56:54.96Z  
1557.2501   57435   43.6745  -69.9575  275.0    9.1    15.439     29.016     1010.8        356.496946    348.305822    418.720044    409.099136    18.600000     2011-06-16T15:57:15.01Z  
1557.5827   57455   43.6747  -69.9598  275.0    9.2    15.389     29.017     1010.8        357.106939    348.919013    418.825372    409.222238    18.600000     2011-06-16T15:57:34.96Z  
1557.9168   57475   43.6748  -69.9620  275.0    9.1    15.343     29.026     1010.8        357.419608    349.241652    418.863535    409.279616    18.600000     2011-06-16T15:57:55.01Z  
1558.2494   57495   43.6750  -69.9643  276.0    9.2    15.238     29.036     1010.8        357.652764    349.512903    418.749426    409.218953    18.600000     2011-06-16T15:58:14.96Z  
1558.5835   57515   43.6751  -69.9666  274.0    9.2    15.154     29.044     1010.8        357.425512    349.316030    418.915088    409.407781    18.600000     2011-06-16T15:58:35.01Z  
1558.9162   57535   43.6752  -69.9688  274.0    9.1    15.155     29.049     1010.8        357.273146    349.173184    418.922272    409.424529    18.600000     2011-06-16T15:58:54.97Z  
1559.2502   57555   43.6753  -69.9711  274.0    9.2    15.191     29.059     1010.8        356.708488    348.605848    419.079780    409.560283    18.600000     2011-06-16T15:59:15.01Z  
1559.5829   57575   43.6754  -69.9733  275.0    9.2    15.211     29.073     1010.8        356.027109    347.932357    419.191983    409.659972    18.600000     2011-06-16T15:59:34.97Z  
1559.8997   57594   43.6756  -69.9755  274.0    9.2    15.252     29.080     1010.8        355.123610    347.035265    nd            nd            18.933333     2011-06-16T15:59:53.98Z  
1600.2496   57615   43.6756  -69.9779  274.0    9.2    15.391     29.086     1010.8        354.562104    346.440391    419.039495    409.440737    20.600000     2011-06-16T16:00:14.98Z  
1600.5837   57635   43.6758  -69.9802  274.0    9.1    15.453     29.094     1010.8        354.098075    345.964456    419.143698    409.515882    20.600000     2011-06-16T16:00:35.02Z  
1600.9163   57655   43.6759  -69.9824  274.0    9.2    15.443     29.105     1010.8        354.091692    345.960451    419.130751    409.504742    20.600000     2011-06-16T16:00:54.98Z  
1601.2504   57675   43.6759  -69.9847  272.0    9.2    15.455     29.116     1010.8        354.329963    346.182102    419.184430    409.550980    20.600000     2011-06-16T16:01:15.02Z  
1601.5830   57695   43.6761  -69.9870  275.0    9.2    15.544     29.135     1010.8        354.897888    346.704576    419.202827    409.518949    20.600000     2011-06-16T16:01:34.98Z  
1601.9171   57715   43.6762  -69.9893  274.0    9.2    15.738     29.166     1010.7        355.459015    347.168258    419.299576    409.519715    20.600000     2011-06-16T16:01:55.03Z  
1602.2498   57735   43.6763  -69.9915  275.0    9.1    15.858     29.201     1010.8        355.855909    347.517703    419.286605    409.460950    20.600000     2011-06-16T16:02:14.99Z  
1602.5838   57755   43.6764  -69.9938  272.0    9.4    15.842     29.220     1010.7        356.424934    348.071463    419.225693    409.400268    20.600000     2011-06-16T16:02:35.03Z  
1602.9165   57775   43.6765  -69.9961  274.0    9.2    15.820     29.225     1010.7        357.495453    349.124376    419.333812    409.514638    20.600000     2011-06-16T16:02:54.99Z  
1603.2506   57795   43.6767  -69.9984  275.0    9.2    15.853     29.223     1010.7        358.924283    350.507036    419.295269    409.461224    20.600000     2011-06-16T16:03:15.04Z  
1603.5832   57815   43.6767  -70.0007  273.0    9.2    15.906     29.222     1010.7        360.209943    351.743574    419.302404    409.447038    20.600000     2011-06-16T16:03:34.99Z  
1603.9173   57835   43.6769  -70.0029  274.0    9.1    15.925     29.232     1010.7        361.392628    352.884019    419.416344    409.541542    20.600000     2011-06-16T16:03:55.04Z  
1604.2499   57855   43.6770  -70.0052  274.0    9.2    15.946     29.249     1010.7        362.304812    353.772901    419.704424    409.826094    20.600000     2011-06-16T16:04:14.99Z  
1604.5840   57875   43.6772  -70.0074  276.0    9.2    15.996     29.259     1010.7        363.280976    354.703761    419.116171    409.218370    20.600000     2011-06-16T16:04:35.04Z  
1604.9166   57895   43.6774  -70.0097  278.0    9.1    15.977     29.243     1010.7        364.134534    355.549930    419.257245    409.373015    20.600000     2011-06-16T16:04:55.00Z  
1605.2493   57915   43.6776  -70.0119  276.0    9.1    15.849     29.218     1010.7        364.859470    356.305501    419.350633    409.519039    20.600000     2011-06-16T16:05:14.96Z  
1605.5834   57935   43.6778  -70.0141  278.0    9.0    15.742     29.191     1010.7        365.616199    357.090010    419.137797    409.360845    20.600000     2011-06-16T16:05:35.00Z  
1605.9160   57955   43.6780  -70.0164  276.0    9.1    15.694     29.156     1010.7        366.299057    357.773332    419.345988    409.586527    20.600000     2011-06-16T16:05:54.96Z  
1606.2501   57975   43.6781  -70.0186  276.0    9.2    15.583     29.133     1010.7        366.706601    358.213057    419.219404    409.509492    20.600000     2011-06-16T16:06:15.01Z  
1606.5827   57995   43.6783  -70.0209  277.0    9.1    15.430     29.128     1010.7        366.632597    358.205230    419.280678    409.643070    20.600000     2011-06-16T16:06:34.96Z  
1606.9168   58015   43.6785  -70.0231  276.0    9.2    15.330     29.132     1010.7        366.385943    357.998430    419.418599    409.816950    20.600000     2011-06-16T16:06:55.01Z  
1607.2494   58035   43.6787  -70.0254  278.0    9.1    15.278     29.143     1010.7        365.874696    357.514177    419.367552    409.784605    20.600000     2011-06-16T16:07:14.96Z  
1607.5835   58055   43.6791  -70.0276  281.0    9.1    15.211     29.150     1010.7        365.034922    356.725422    nd            nd            20.600000     2011-06-16T16:07:35.01Z  
1607.9162   58075   43.6795  -70.0298  287.0    9.2    15.259     29.146     1010.7        363.700071    355.390095    419.252377    409.666679    20.600000     2011-06-16T16:07:54.97Z  
1608.2502   58095   43.6803  -70.0318  300.0    9.1    15.359     29.183     1010.7        362.509710    354.197861    419.361114    409.743068    20.600000     2011-06-16T16:08:15.01Z  
1608.5829   58115   43.6813  -70.0335  311.0    9.0    15.516     29.216     1010.7        361.470679    353.122092    419.408483    409.721655    20.600000     2011-06-16T16:08:34.97Z  
1608.9170   58135   43.6826  -70.0349  320.0    9.2    15.615     29.223     1010.7        360.759976    352.381100    419.495865    409.761405    20.600000     2011-06-16T16:08:55.02Z  
1609.2496   58155   43.6840  -70.0362  326.0    9.3    15.678     29.202     1010.7        360.712651    352.304048    419.208477    409.432596    20.600000     2011-06-16T16:09:14.98Z  
1609.5837   58175   43.6855  -70.0370  323.0    9.1    15.694     29.198     1010.7        361.640430    353.197402    419.222226    409.434792    20.600000     2011-06-16T16:09:35.02Z  
1609.9163   58195   43.6871  -70.0365  16.0     9.1    15.642     29.206     1010.6        363.276076    354.807719    419.101660    409.331858    20.600000     2011-06-16T16:09:54.98Z  
1610.2504   58215   43.6886  -70.0357  21.0     9.3    15.616     29.217     1010.6        365.501474    356.995661    419.262962    409.505947    20.600000     2011-06-16T16:10:15.02Z  
1610.5830   58235   43.6901  -70.0347  24.0     9.2    15.624     29.220     1010.6        367.557658    358.998487    419.188973    409.427403    20.600000     2011-06-16T16:10:34.98Z  
1610.9171   58255   43.6917  -70.0338  23.0     9.3    15.646     29.215     1010.6        369.435762    360.826203    419.193213    409.424007    20.600000     2011-06-16T16:10:55.03Z  
1611.2498   58275   43.6932  -70.0329  25.0     9.3    15.715     29.207     1010.7        370.932716    362.263552    418.965090    409.169813    20.600000     2011-06-16T16:11:14.99Z  
1611.5838   58295   43.6947  -70.0319  25.0     9.3    15.787     29.192     1010.7        372.158724    363.434786    418.980153    409.159992    20.600000     2011-06-16T16:11:35.03Z  
1611.9165   58315   43.6962  -70.0308  28.0     9.2    15.811     29.156     1010.7        373.309479    364.545542    418.958892    409.123201    20.600000     2011-06-16T16:11:54.99Z  
1612.2506   58335   43.6976  -70.0297  27.0     9.0    15.842     29.121     1010.7        374.370681    365.572242    418.941305    409.095305    20.600000     2011-06-16T16:12:15.04Z  
1612.5832   58355   43.6991  -70.0287  27.0     9.1    15.696     29.144     1010.7        375.232922    366.468589    418.879651    409.095751    20.600000     2011-06-16T16:12:34.99Z  
1612.9173   58375   43.7005  -70.0277  28.0     9.1    15.242     29.217     1010.6        375.278659    366.690808    418.789757    409.206143    20.600000     2011-06-16T16:12:55.04Z  
1613.2499   58395   43.7020  -70.0266  27.0     9.2    14.986     29.241     1010.6        374.780876    366.297529    418.781245    409.301874    20.600000     2011-06-16T16:13:14.99Z  
1613.5840   58415   43.7035  -70.0256  27.0     9.2    14.771     29.234     1010.6        374.041222    365.657272    418.752856    409.366655    20.600000     2011-06-16T16:13:35.04Z  
1613.9166   58435   43.7050  -70.0246  24.0     9.2    14.757     29.200     1010.7        372.814271    364.469912    418.649436    409.279588    20.600000     2011-06-16T16:13:55.00Z  
1614.2493   58455   43.7065  -70.0237  23.0     9.2    14.928     29.149     1010.7        370.914245    362.547891    418.750513    409.270736    20.600000     2011-06-16T16:14:14.96Z  
1614.5834   58475   43.7080  -70.0228  23.0     9.1    15.152     29.080     1010.7        368.260720    359.867824    418.655836    409.114252    20.600000     2011-06-16T16:14:35.00Z  
1614.9160   58495   43.7095  -70.0220  23.0     9.1    15.495     29.047     1010.7        365.567650    357.109213    418.554723    408.892205    20.600000     2011-06-16T16:14:54.96Z  
1615.2501   58515   43.7110  -70.0210  25.0     9.2    15.802     29.020     1010.7        363.172377    354.657563    418.801622    408.967656    20.600000     2011-06-16T16:15:15.01Z  
1615.5827   58535   43.7126  -70.0201  23.0     9.1    16.013     29.003     1010.7        361.221626    352.672986    418.671386    408.763038    20.600000     2011-06-16T16:15:34.96Z  
1615.9168   58555   43.7140  -70.0191  28.0     9.1    16.148     28.988     1010.7        360.097562    351.521123    418.600839    408.630930    20.600000     2011-06-16T16:15:55.01Z  
1616.2494   58575   43.7155  -70.0180  28.0     9.1    16.230     28.973     1010.7        359.863587    351.266259    418.547777    408.548366    20.600000     2011-06-16T16:16:14.96Z  
1616.5835   58595   43.7169  -70.0170  26.0     9.1    16.285     28.961     1010.7        360.131688    351.510344    418.629096    408.607271    20.600000     2011-06-16T16:16:35.01Z  
1616.9162   58615   43.7184  -70.0160  25.0     9.2    16.262     28.952     1010.7        360.659102    352.033222    418.613804    408.598995    20.600000     2011-06-16T16:16:54.97Z  
1617.2502   58635   43.7199  -70.0150  26.0     9.2    16.033     28.949     1010.7        361.357500    352.809001    418.772045    408.865191    20.600000     2011-06-16T16:17:15.01Z  
1617.5829   58655   43.7214  -70.0140  26.0     9.2    15.840     28.957     1010.7        362.075601    353.588658    418.767904    408.937704    20.600000     2011-06-16T16:17:34.97Z  
1617.9170   58675   43.7229  -70.0130  25.0     9.2    15.618     28.974     1010.7        362.397533    353.993621    418.787401    409.086493    20.600000     2011-06-16T16:17:55.02Z  
1618.2496   58695   43.7244  -70.0120  27.0     9.3    15.281     29.009     1010.7        362.141979    353.870066    418.670639    409.107451    20.600000     2011-06-16T16:18:14.98Z  
1618.5837   58715   43.7259  -70.0110  26.0     9.4    14.995     29.025     1010.7        361.489625    353.333270    418.726274    409.278401    20.600000     2011-06-16T16:18:35.02Z  
1618.9163   58735   43.7275  -70.0100  25.0     9.4    14.925     29.019     1010.7        360.807301    352.690005    418.890614    409.466494    20.600000     2011-06-16T16:18:54.98Z  
1619.2504   58755   43.7290  -70.0090  24.0     9.3    14.952     29.029     1010.7        360.296991    352.187212    419.043475    409.605871    20.600000     2011-06-16T16:19:15.02Z  
1619.5830   58775   43.7305  -70.0081  24.0     9.3    14.926     29.033     1010.7        359.939968    351.844670    418.675166    409.260290    20.600000     2011-06-16T16:19:34.98Z  
1619.9171   58795   43.7318  -70.0073  24.0     7.5    14.965     29.024     1010.8        360.029086    351.954955    418.831243    409.443182    20.600000     2011-06-16T16:19:55.03Z  
1620.2498   58815   43.7326  -70.0068  22.0     4.7    15.067     29.016     1010.8        360.479054    352.356376    nd            nd            20.600000     2011-06-16T16:20:14.99Z  
1620.5838   58835   43.7333  -70.0064  25.0     4.4    15.080     29.010     1010.8        360.930576    352.791063    nd            nd            20.600000     2011-06-16T16:20:35.03Z  
1620.9165   58855   43.7340  -70.0059  25.0     4.4    15.124     29.006     1010.8        361.721794    353.549120    nd            nd            20.600000     2011-06-16T16:20:54.99Z  
1621.2506   58875   43.7347  -70.0055  27.0     4.4    15.212     29.002     1010.8        362.422828    354.196952    nd            nd            20.600000     2011-06-16T16:21:15.04Z  
1621.5832   58895   43.7355  -70.0049  29.0     4.8    15.302     29.003     1010.8        362.817923    354.545475    nd            nd            20.600000     2011-06-16T16:21:34.99Z  
1621.9173   58915   43.7363  -70.0043  26.0     5.3    15.335     29.005     1010.8        363.053202    354.760753    nd            nd            20.600000     2011-06-16T16:21:55.04Z  
1622.2499   58935   43.7373  -70.0037  26.0     5.7    15.274     29.009     1010.8        363.478839    355.201780    nd            nd            20.600000     2011-06-16T16:22:14.99Z  
1622.5840   58955   43.7382  -70.0031  24.0     5.7    15.156     29.011     1010.8        364.134783    355.884600    nd            nd            20.600000     2011-06-16T16:22:35.04Z  
1622.9166   58975   43.7391  -70.0025  26.0     5.6    15.118     29.016     1010.8        364.419412    356.175294    nd            nd            20.600000     2011-06-16T16:22:55.00Z  
1623.2507   58995   43.7401  -70.0018  27.0     6.1    14.985     29.033     1010.8        364.501436    356.297795    nd            nd            20.600000     2011-06-16T16:23:15.04Z  
1623.5834   59015   43.7412  -70.0010  27.0     7.2    14.690     29.095     1010.8        364.167155    356.076396    nd            nd            20.600000     2011-06-16T16:23:35.00Z  
1623.9160   59035   43.7424  -70.0003  24.0     7.3    14.459     29.108     1010.8        363.610317    355.614865    nd            nd            20.600000     2011-06-16T16:23:54.96Z  
1624.2501   59055   43.7436  -69.9996  22.0     7.3    14.413     29.077     1010.8        362.314370    354.367789    nd            nd            20.600000     2011-06-16T16:24:15.01Z  
1624.5827   59075   43.7448  -69.9988  24.0     7.4    14.586     29.001     1010.8        360.383850    352.414878    nd            nd            20.600000     2011-06-16T16:24:34.96Z  
1624.9168   59095   43.7460  -69.9980  28.0     7.4    14.884     28.958     1010.8        358.272900    350.247467    nd            nd            20.600000     2011-06-16T16:24:55.01Z  
1625.2494   59115   43.7472  -69.9971  28.0     7.4    15.040     28.945     1010.7        356.610223    348.554727    nd            nd            20.600000     2011-06-16T16:25:14.96Z  
1625.5835   59135   43.7482  -69.9964  26.0     6.1    15.068     28.940     1010.8        355.729877    347.697283    nd            nd            20.600000     2011-06-16T16:25:35.01Z  
1625.9162   59155   43.7490  -69.9959  25.0     4.5    15.171     28.916     1010.8        355.131477    347.068536    nd            nd            20.600000     2011-06-16T16:25:54.97Z  
1626.2502   59175   43.7497  -69.9955  24.0     4.3    15.303     28.919     1010.8        354.911708    346.809216    nd            nd            20.600000     2011-06-16T16:26:15.01Z  
1626.5829   59195   43.7504  -69.9951  23.0     4.3    15.346     28.928     1010.8        354.792072    346.676950    nd            nd            20.600000     2011-06-16T16:26:34.97Z  
1626.9170   59215   43.7511  -69.9947  22.0     4.2    15.391     28.938     1010.8        354.694626    346.566628    nd            nd            20.600000     2011-06-16T16:26:55.02Z  
1627.2496   59235   43.7518  -69.9943  23.0     4.2    15.375     28.966     1010.8        354.876587    346.754068    nd            nd            20.600000     2011-06-16T16:27:14.98Z  
1627.5837   59255   43.7525  -69.9939  23.0     4.2    15.351     28.978     1010.8        355.424573    347.299520    nd            nd            20.600000     2011-06-16T16:27:35.02Z  
1627.9163   59275   43.7532  -69.9935  24.0     4.2    15.311     28.992     1010.8        356.295701    348.163893    nd            nd            20.600000     2011-06-16T16:27:54.98Z  
1628.2504   59295   43.7539  -69.9931  22.0     4.2    15.325     28.999     1010.8        357.385067    349.223515    nd            nd            20.600000     2011-06-16T16:28:15.02Z  
1628.5830   59315   43.7546  -69.9927  24.0     4.2    15.331     29.008     1010.8        358.512498    350.325320    nd            nd            20.600000     2011-06-16T16:28:34.98Z  
1628.9171   59335   43.7552  -69.9922  24.0     4.2    15.226     29.018     1010.8        359.509990    351.339136    nd            nd            20.600000     2011-06-16T16:28:55.03Z  
1629.2498   59355   43.7559  -69.9918  23.0     4.2    15.121     29.022     1010.8        360.186460    352.036267    nd            nd            20.600000     2011-06-16T16:29:14.99Z  
1629.5838   59375   43.7566  -69.9914  23.0     4.2    15.058     29.021     1010.8        359.909405    351.787594    nd            nd            20.600000     2011-06-16T16:29:35.03Z  
1629.9165   59395   43.7573  -69.9910  26.0     4.2    15.034     29.023     1010.8        359.761935    351.651102    nd            nd            20.600000     2011-06-16T16:29:54.99Z  
1630.2506   59415   43.7579  -69.9905  27.0     3.9    14.958     29.033     1010.8        359.860226    351.776598    nd            nd            20.600000     2011-06-16T16:30:15.04Z  
1630.5832   59435   43.7584  -69.9902  25.0     2.3    14.867     29.041     1010.8        360.775039    352.702561    nd            nd            20.600000     2011-06-16T16:30:34.99Z  
1630.9173   59455   43.7586  -69.9901  28.0     1.5    14.800     29.047     1010.8        361.585372    353.518154    nd            nd            20.600000     2011-06-16T16:30:55.04Z  
1631.2499   59475   43.7588  -69.9899  31.0     1.6    14.723     29.058     1010.8        362.470616    354.409858    nd            nd            20.600000     2011-06-16T16:31:14.99Z  
1631.5840   59495   43.7592  -69.9896  27.0     2.2    14.622     29.065     1010.8        363.225860    355.179886    nd            nd            20.600000     2011-06-16T16:31:35.04Z  
1631.9166   59515   43.7596  -69.9892  35.0     3.2    14.530     29.066     1010.7        363.809552    355.778648    nd            nd            20.600000     2011-06-16T16:31:55.00Z  
1632.2507   59535   43.7601  -69.9887  35.0     3.6    14.485     29.069     1010.7        364.055075    356.035917    nd            nd            20.600000     2011-06-16T16:32:15.04Z  
1632.5834   59555   43.7606  -69.9883  32.0     3.0    14.545     29.060     1010.7        363.873626    355.835728    nd            nd            20.600000     2011-06-16T16:32:35.00Z  
1632.9160   59575   43.7610  -69.9879  33.0     2.7    14.778     29.035     1010.7        363.569432    355.452186    nd            nd            20.600000     2011-06-16T16:32:54.96Z  
1633.2501   59595   43.7614  -69.9876  29.0     2.6    14.966     29.024     1010.8        363.165458    354.997066    nd            nd            20.600000     2011-06-16T16:33:15.01Z  
1633.5827   59615   43.7619  -69.9875  181.0    2.3    15.018     29.020     1010.8        362.888258    354.709873    nd            nd            20.600000     2011-06-16T16:33:34.96Z  
1633.9168   59635   43.7619  -69.9876  258.0    0.7    14.963     29.016     1010.8        363.038869    354.874404    nd            nd            20.600000     2011-06-16T16:33:55.01Z  
1634.2494   59655   43.7619  -69.9879  264.0    1.0    14.902     29.016     1010.7        363.133142    354.984218    nd            nd            20.600000     2011-06-16T16:34:14.96Z  
1634.5835   59675   43.7619  -69.9881  267.0    1.0    14.834     29.019     1010.8        363.711334    355.578053    nd            nd            20.600000     2011-06-16T16:34:35.01Z  
1634.9162   59695   43.7619  -69.9883  260.0    0.7    14.787     29.015     1010.8        364.236283    356.107828    nd            nd            20.600000     2011-06-16T16:34:54.97Z  
1635.2502   59715   43.7619  -69.9884  269.0    0.4    14.772     29.017     1010.8        364.576878    356.445527    nd            nd            20.600000     2011-06-16T16:35:15.01Z  
1635.5829   59735   43.7619  -69.9884  184.0    0.5    14.757     29.019     1010.8        364.455199    356.335044    nd            nd            20.600000     2011-06-16T16:35:34.97Z  
1635.9170   59755   43.7619  -69.9885  229.0    0.4    14.778     29.014     1010.8        364.255407    356.130392    nd            nd            20.600000     2011-06-16T16:35:55.02Z  
1636.2496   59775   43.7618  -69.9885  206.0    0.5    14.739     29.018     1010.8        363.912793    355.811404    nd            nd            20.600000     2011-06-16T16:36:14.98Z  
1636.5837   59795   43.7618  -69.9885  238.0    0.2    14.716     29.018     1010.8        363.415375    355.329838    nd            nd            20.600000     2011-06-16T16:36:35.02Z  
1636.9163   59815   43.7619  -69.9885  137.0    0.5    14.759     29.016     1010.7        363.049982    354.944553    nd            nd            20.600000     2011-06-16T16:36:54.98Z  
1637.2504   59835   43.7619  -69.9883  89.0     0.8    14.803     29.019     1010.7        362.619396    354.509619    nd            nd            20.600000     2011-06-16T16:37:15.02Z  
1637.5830   59855   43.7619  -69.9882  112.0    0.3    14.802     29.017     1010.7        362.234360    354.128804    nd            nd            20.600000     2011-06-16T16:37:34.98Z  
1637.9171   59875   43.7619  -69.9882  143.0    0.1    14.755     29.029     1010.7        361.994181    353.912473    nd            nd            20.600000     2011-06-16T16:37:55.03Z  
1638.2498   59895   43.7619  -69.9882  88.0     0.3    14.677     29.041     1010.7        361.997433    353.950398    nd            nd            20.600000     2011-06-16T16:38:14.99Z  
1638.5838   59915   43.7619  -69.9881  59.0     0.4    14.745     29.026     1010.7        362.080918    354.006983    nd            nd            20.600000     2011-06-16T16:38:35.03Z  
1638.9165   59935   43.7619  -69.9880  44.0     0.3    14.820     29.018     1010.7        362.315892    354.207670    nd            nd            20.600000     2011-06-16T16:38:54.99Z  
1639.2506   59955   43.7620  -69.9880  31.0     0.3    14.831     29.016     1010.7        362.601486    354.482828    nd            nd            20.600000     2011-06-16T16:39:15.04Z  
1639.5832   59975   43.7620  -69.9880  18.0     0.3    14.808     29.017     1010.7        362.719090    354.603594    nd            nd            20.600000     2011-06-16T16:39:34.99Z  
1639.9173   59995   43.7621  -69.9879  9.0      0.2    14.762     29.021     1010.7        362.925802    354.819961    nd            nd            20.600000     2011-06-16T16:39:55.04Z  
1640.2499   60015   43.7621  -69.9879  145.0    0.2    14.694     29.025     1010.7        363.143917    355.054137    nd            nd            20.600000     2011-06-16T16:40:14.99Z  
1640.5840   60035   43.7621  -69.9879  355.0    0.3    14.697     29.020     1010.7        363.343204    355.246698    nd            nd            20.600000     2011-06-16T16:40:35.04Z  
1640.9166   60055   43.7622  -69.9880  350.0    0.3    14.726     29.015     1010.7        363.159056    355.053573    nd            nd            20.600000     2011-06-16T16:40:55.00Z  
1641.2493   60075   43.7622  -69.9880  346.0    0.3    14.727     29.018     1010.7        362.652908    354.556095    nd            nd            20.600000     2011-06-16T16:41:14.96Z  
1641.5834   60095   43.7623  -69.9880  346.0    0.3    14.662     29.028     1010.7        362.321532    354.258114    nd            nd            20.600000     2011-06-16T16:41:35.00Z  
1641.9160   60115   43.7623  -69.9880  345.0    0.3    14.616     29.030     1010.7        361.896185    353.857071    nd            nd            20.600000     2011-06-16T16:41:54.96Z  
1642.2501   60135   43.7623  -69.9880  343.0    0.3    14.627     29.025     1010.7        361.688636    353.649899    nd            nd            20.600000     2011-06-16T16:42:15.01Z  
1642.5827   60155   43.7624  -69.9880  342.0    0.3    14.664     29.020     1010.7        361.419530    353.375318    nd            nd            20.600000     2011-06-16T16:42:34.96Z  
1642.9168   60175   43.7624  -69.9880  343.0    0.3    14.691     29.019     1010.7        361.042595    352.996982    nd            nd            20.600000     2011-06-16T16:42:55.01Z  
1643.2494   60195   43.7625  -69.9881  343.0    0.3    14.721     29.017     1010.7        360.724272    352.675814    nd            nd            20.600000     2011-06-16T16:43:14.96Z  
1643.5835   60215   43.7625  -69.9881  344.0    0.3    14.757     29.013     1010.7        360.588281    352.530100    nd            nd            20.600000     2011-06-16T16:43:35.01Z  
1643.9162   60235   43.7626  -69.9881  343.0    0.3    14.778     29.012     1010.7        360.651220    352.586298    nd            nd            20.600000     2011-06-16T16:43:54.97Z  
1644.2502   60255   43.7626  -69.9881  346.0    0.3    14.803     29.012     1010.7        360.952823    352.871283    nd            nd            20.600000     2011-06-16T16:44:15.01Z  
1644.5829   60275   43.7627  -69.9881  346.0    0.3    14.830     29.011     1010.7        361.577232    353.472372    nd            nd            20.600000     2011-06-16T16:44:34.97Z  
1644.9170   60295   43.7627  -69.9882  345.0    0.3    14.851     29.011     1010.7        362.416073    354.285778    nd            nd            20.600000     2011-06-16T16:44:55.02Z  
1645.2496   60315   43.7628  -69.9882  346.0    0.3    14.857     29.012     1010.7        363.371463    355.219120    nd            nd            20.600000     2011-06-16T16:45:14.98Z  
1645.5837   60335   43.7628  -69.9882  347.0    0.2    14.856     29.013     1010.7        364.681034    356.499270    nd            nd            20.600000     2011-06-16T16:45:35.02Z  
1645.9163   60355   43.7628  -69.9882  347.0    0.3    14.846     29.015     1010.7        365.918361    357.712306    nd            nd            20.600000     2011-06-16T16:45:54.98Z  
1646.2504   60375   43.7629  -69.9882  352.0    0.3    14.835     29.018     1010.7        367.033416    358.806195    nd            nd            20.600000     2011-06-16T16:46:15.02Z  
1646.5830   60395   43.7629  -69.9882  354.0    0.2    14.807     29.025     1010.7        367.819913    359.587880    nd            nd            20.600000     2011-06-16T16:46:34.98Z  
1646.9171   60415   43.7630  -69.9882  355.0    0.2    14.764     29.031     1010.7        368.264616    360.038691    nd            nd            20.600000     2011-06-16T16:46:55.03Z  
1647.2498   60435   43.7630  -69.9882  355.0    0.2    14.708     29.041     1010.7        368.443295    360.233945    nd            nd            20.600000     2011-06-16T16:47:14.99Z  
1647.5838   60455   43.7630  -69.9882  356.0    0.2    14.637     29.051     1010.7        368.234998    360.056844    nd            nd            20.600000     2011-06-16T16:47:35.03Z  
1647.9165   60475   43.7631  -69.9882  357.0    0.2    14.577     29.054     1010.7        367.953797    359.802615    nd            nd            20.600000     2011-06-16T16:47:54.99Z  
1648.2506   60495   43.7631  -69.9882  357.0    0.2    14.563     29.050     1010.7        367.603546    359.462753    nd            nd            20.600000     2011-06-16T16:48:15.04Z  
1648.5832   60515   43.7632  -69.9882  354.0    0.2    14.566     29.046     1010.7        367.622451    359.479903    nd            nd            20.600000     2011-06-16T16:48:34.99Z  
1648.9173   60535   43.7632  -69.9882  349.0    0.2    14.581     29.037     1010.7        367.712737    359.560253    nd            nd            20.600000     2011-06-16T16:48:55.04Z  
1649.2499   60555   43.7632  -69.9882  345.0    0.2    14.606     29.032     1010.7        368.172520    359.999141    nd            nd            20.600000     2011-06-16T16:49:14.99Z  
1649.5840   60575   43.7633  -69.9883  313.0    0.4    14.620     29.033     1010.7        368.501689    360.309896    nd            nd            20.600000     2011-06-16T16:49:35.04Z  
1649.9166   60595   43.7631  -69.9885  221.0    1.4    14.618     29.036     1010.7        368.821652    360.620126    nd            nd            20.600000     2011-06-16T16:49:55.00Z  
1650.2493   60615   43.7628  -69.9883  152.0    1.9    14.620     29.037     1010.7        368.579972    360.381261    nd            nd            20.600000     2011-06-16T16:50:14.96Z  
1650.5834   60635   43.7625  -69.9880  143.0    2.2    14.657     29.028     1010.7        368.282649    360.076549    nd            nd            20.600000     2011-06-16T16:50:35.00Z  
1650.9160   60655   43.7622  -69.9877  154.0    2.2    14.766     29.013     1010.7        367.855454    359.617537    nd            nd            20.600000     2011-06-16T16:50:54.96Z  
1651.2501   60675   43.7618  -69.9876  164.0    2.2    14.821     29.023     1010.6        367.432473    359.180170    nd            nd            20.600000     2011-06-16T16:51:15.01Z  
1651.5827   60695   43.7615  -69.9874  155.0    2.1    14.857     29.023     1010.7        367.154726    358.901446    nd            nd            20.600000     2011-06-16T16:51:34.96Z  
1651.9168   60715   43.7613  -69.9873  132.0    0.7    14.917     29.024     1010.7        366.779245    358.510512    nd            nd            20.600000     2011-06-16T16:51:55.01Z  
1652.2494   60735   43.7613  -69.9872  97.0     0.1    14.943     29.024     1010.7        366.531510    358.256510    nd            nd            20.600000     2011-06-16T16:52:14.96Z  
1652.5835   60755   43.7613  -69.9872  56.0     0.1    14.854     29.033     1010.6        366.578839    358.333361    nd            nd            20.600000     2011-06-16T16:52:35.01Z  
1652.9162   60775   43.7614  -69.9872  27.0     0.1    14.638     29.055     1010.7        366.950235    358.778429    nd            nd            20.600000     2011-06-16T16:52:54.97Z  
1653.2502   60795   43.7614  -69.9872  10.0     0.2    14.489     29.061     1010.6        367.267996    359.141860    nd            nd            20.600000     2011-06-16T16:53:15.01Z  
1653.5829   60815   43.7614  -69.9872  180.0    0.2    14.392     29.080     1010.6        367.309435    359.216925    nd            nd            20.600000     2011-06-16T16:53:34.97Z  
1653.9170   60835   43.7614  -69.9872  346.0    0.2    14.286     29.104     1010.6        366.590557    358.549139    nd            nd            20.600000     2011-06-16T16:53:55.02Z  
1654.2496   60855   43.7615  -69.9872  338.0    0.2    14.210     29.112     1010.6        365.523545    357.528588    nd            nd            20.600000     2011-06-16T16:54:14.98Z  
1654.5837   60875   43.7615  -69.9872  334.0    0.2    14.191     29.114     1010.6        364.564860    356.601218    nd            nd            20.600000     2011-06-16T16:54:35.02Z  
1654.9163   60895   43.7615  -69.9872  331.0    0.2    14.181     29.118     1010.6        363.939757    355.987546    nd            nd            20.600000     2011-06-16T16:54:54.98Z  
1655.2504   60915   43.7615  -69.9872  326.0    0.2    14.180     29.105     1010.6        363.449942    355.506598    nd            nd            20.600000     2011-06-16T16:55:15.02Z  
1655.5830   60935   43.7616  -69.9873  322.0    0.2    14.228     29.073     1010.6        363.193887    355.239463    nd            nd            20.600000     2011-06-16T16:55:34.98Z  
1655.9171   60955   43.7616  -69.9873  316.0    0.2    14.278     29.066     1010.6        362.951218    354.983762    nd            nd            20.600000     2011-06-16T16:55:55.03Z  
1656.2498   60975   43.7616  -69.9873  316.0    0.2    14.326     29.060     1010.6        362.721011    354.741279    nd            nd            20.600000     2011-06-16T16:56:14.99Z  
1656.5838   60995   43.7616  -69.9874  310.0    0.2    14.376     29.053     1010.6        362.085096    354.100618    nd            nd            20.600000     2011-06-16T16:56:35.03Z  
1656.9165   61015   43.7617  -69.9874  307.0    0.2    14.428     29.053     1010.6        361.450757    353.461828    nd            nd            20.600000     2011-06-16T16:56:54.99Z  
1657.2506   61035   43.7617  -69.9874  305.0    0.1    14.429     29.057     1010.6        360.683834    352.714927    nd            nd            20.600000     2011-06-16T16:57:15.04Z  
1657.5832   61055   43.7617  -69.9874  310.0    0.1    14.429     29.056     1010.6        360.122302    352.163764    nd            nd            20.600000     2011-06-16T16:57:34.99Z  
1657.9173   61075   43.7617  -69.9875  317.0    0.1    14.412     29.072     1010.6        359.737325    351.790449    nd            nd            20.600000     2011-06-16T16:57:55.04Z  
1658.2499   61095   43.7617  -69.9875  317.0    0.1    14.393     29.081     1010.6        359.507493    351.568011    nd            nd            20.600000     2011-06-16T16:58:14.99Z  
1658.5840   61115   43.7618  -69.9875  316.0    0.2    14.369     29.086     1010.6        359.384251    351.453223    nd            nd            20.600000     2011-06-16T16:58:35.04Z  
1658.9166   61135   43.7618  -69.9875  314.0    0.2    14.353     29.089     1010.6        359.430046    351.501435    nd            nd            20.600000     2011-06-16T16:58:55.00Z  
1659.2493   61155   43.7618  -69.9876  310.0    0.2    14.341     29.089     1010.6        359.716630    351.785059    nd            nd            20.600000     2011-06-16T16:59:14.96Z  
1659.5834   61175   43.7618  -69.9876  307.0    0.2    14.343     29.086     1010.6        360.074769    352.134964    nd            nd            20.600000     2011-06-16T16:59:35.00Z  
1659.9002   61194   43.7618  -69.9877  308.0    0.2    14.374     29.076     1010.6        360.512813    352.552639    nd            nd            20.866667     2011-06-16T16:59:54.01Z  
1700.2501   61215   43.7619  -69.9877  309.0    0.2    14.424     29.064     1010.6        360.823894    352.838223    nd            nd            22.200000     2011-06-16T17:00:15.01Z  
1700.5827   61235   43.7619  -69.9877  310.0    0.2    14.469     29.056     1010.6        360.952225    352.946947    nd            nd            22.200000     2011-06-16T17:00:34.96Z  
1700.9168   61255   43.7619  -69.9878  310.0    0.2    14.506     29.051     1010.6        361.111258    353.092440    nd            nd            22.200000     2011-06-16T17:00:55.01Z  
1701.2494   61275   43.7619  -69.9878  317.0    0.2    14.533     29.046     1010.6        361.203808    353.171471    nd            nd            22.200000     2011-06-16T17:01:14.96Z  
1701.5835   61295   43.7620  -69.9878  316.0    0.2    14.565     29.040     1010.6        361.040523    353.002643    nd            nd            22.200000     2011-06-16T17:01:35.01Z  
1701.9162   61315   43.7620  -69.9878  319.0    0.2    14.597     29.034     1010.6        360.949090    352.902293    nd            nd            22.200000     2011-06-16T17:01:54.97Z  
1702.2502   61335   43.7621  -69.9878  109.0    0.8    14.630     29.031     1010.6        360.707829    352.647003    nd            nd            22.200000     2011-06-16T17:02:15.01Z  
1702.5829   61355   43.7621  -69.9874  104.0    2.0    14.664     29.029     1010.5        360.697838    352.612103    nd            nd            22.200000     2011-06-16T17:02:34.97Z  
1702.9170   61375   43.7615  -69.9875  198.0    3.6    14.694     29.027     1010.5        360.418531    352.325712    nd            nd            22.200000     2011-06-16T17:02:55.02Z  
1703.2496   61395   43.7608  -69.9882  214.0    4.7    14.715     29.032     1010.5        360.291753    352.198467    nd            nd            22.200000     2011-06-16T17:03:14.98Z  
1703.5837   61415   43.7601  -69.9889  216.0    4.8    14.687     29.044     1010.5        360.480936    352.393483    nd            nd            22.200000     2011-06-16T17:03:35.02Z  
1703.9163   61435   43.7594  -69.9896  218.0    4.8    14.656     29.035     1010.5        360.490107    352.414178    nd            nd            22.200000     2011-06-16T17:03:54.98Z  
1704.2504   61455   43.7587  -69.9904  218.0    4.8    14.838     29.032     1010.5        361.183881    353.022216    nd            nd            22.200000     2011-06-16T17:04:15.02Z  
1704.5830   61475   43.7580  -69.9911  215.0    4.8    14.958     29.049     1010.5        361.844090    353.627760    nd            nd            22.200000     2011-06-16T17:04:34.98Z  
1704.9171   61495   43.7573  -69.9917  215.0    4.8    14.904     29.063     1010.5        362.709334    354.490803    nd            nd            22.200000     2011-06-16T17:04:55.03Z  
1705.2498   61515   43.7567  -69.9925  220.0    4.7    14.966     29.052     1010.5        363.603928    355.341752    nd            nd            22.200000     2011-06-16T17:05:14.99Z  
1705.5838   61535   43.7560  -69.9931  214.0    4.7    15.011     29.045     1010.5        364.639352    356.336760    nd            nd            22.200000     2011-06-16T17:05:35.03Z  
1705.9165   61555   43.7553  -69.9938  213.0    4.7    15.051     29.032     1010.5        365.679532    357.347274    nd            nd            22.200000     2011-06-16T17:05:54.99Z  
1706.2506   61575   43.7545  -69.9944  212.0    4.7    15.062     29.030     1010.6        366.563279    358.211356    nd            nd            22.200000     2011-06-16T17:06:15.04Z  
1706.5832   61595   43.7539  -69.9950  214.0    4.5    15.137     29.022     1010.6        367.168025    358.777584    nd            nd            22.200000     2011-06-16T17:06:34.99Z  
1706.9173   61615   43.7532  -69.9956  213.0    4.5    15.322     28.997     1010.6        367.021543    358.567652    nd            nd            22.200000     2011-06-16T17:06:55.04Z  
1707.2499   61635   43.7525  -69.9961  207.0    4.5    15.476     28.966     1010.6        366.179367    357.687523    nd            nd            22.200000     2011-06-16T17:07:14.99Z  
1707.5840   61655   43.7517  -69.9966  204.0    4.5    15.522     28.960     1010.6        364.890049    356.407659    nd            nd            22.200000     2011-06-16T17:07:35.04Z  
1707.9166   61675   43.7510  -69.9970  200.0    4.5    15.501     28.961     1010.6        363.879426    355.426691    nd            nd            22.200000     2011-06-16T17:07:55.00Z  
1708.2507   61695   43.7502  -69.9974  204.0    5.0    15.490     28.955     1010.5        363.232362    354.788680    nd            nd            22.200000     2011-06-16T17:08:15.04Z  
1708.5834   61715   43.7492  -69.9980  201.0    5.6    15.529     28.942     1010.5        362.980012    354.525731    nd            nd            22.200000     2011-06-16T17:08:35.00Z  
1708.9160   61735   43.7484  -69.9984  200.0    5.1    15.585     28.932     1010.6        362.758894    354.294627    nd            nd            22.200000     2011-06-16T17:08:54.96Z  
1709.2501   61755   43.7476  -69.9988  199.0    4.2    15.633     28.926     1010.6        362.552930    354.073357    nd            nd            22.200000     2011-06-16T17:09:15.01Z  
1709.5827   61775   43.7469  -69.9991  199.0    4.1    15.590     28.937     1010.6        362.504275    354.045108    nd            nd            22.200000     2011-06-16T17:09:34.96Z  
1709.9168   61795   43.7463  -69.9994  199.0    4.1    15.547     28.948     1010.6        362.363224    353.924776    nd            nd            22.200000     2011-06-16T17:09:55.01Z  
1710.2494   61815   43.7456  -69.9997  198.0    4.1    15.532     28.959     1010.6        362.201085    353.772343    nd            nd            22.200000     2011-06-16T17:10:14.96Z  
1710.5835   61835   43.7449  -70.0000  199.0    4.1    15.549     28.967     1010.5        361.892967    353.460004    nd            nd            22.200000     2011-06-16T17:10:35.01Z  
1710.9162   61855   43.7442  -70.0004  199.0    4.1    15.578     28.973     1010.5        361.760590    353.319664    nd            nd            22.200000     2011-06-16T17:10:54.97Z  
1711.2502   61875   43.7435  -70.0007  197.0    4.1    15.517     28.979     1010.5        361.926134    353.501860    nd            nd            22.200000     2011-06-16T17:11:15.01Z  
1711.5829   61895   43.7428  -70.0011  204.0    4.1    15.428     28.984     1010.5        362.241694    353.835629    nd            nd            22.200000     2011-06-16T17:11:34.97Z  
1711.9170   61915   43.7420  -70.0016  204.0    5.1    15.319     28.992     1010.5        363.051433    354.659524    nd            nd            22.200000     2011-06-16T17:11:55.02Z  
1712.2496   61935   43.7409  -70.0022  204.0    6.9    15.223     29.006     1010.5        363.868385    355.482345    nd            nd            22.200000     2011-06-16T17:12:14.98Z  
1712.5837   61955   43.7397  -70.0030  205.0    7.5    15.115     29.022     1010.5        364.182934    355.828263    nd            nd            22.200000     2011-06-16T17:12:35.02Z  
1712.9163   61975   43.7384  -70.0037  202.0    7.7    15.060     29.044     1010.4        364.124577    355.784506    414.070189    404.572424    22.200000     2011-06-16T17:12:54.98Z  
1713.2504   61995   43.7371  -70.0045  204.0    8.2    15.108     29.035     1010.4        363.709425    355.355841    413.102502    403.611573    22.200000     2011-06-16T17:13:15.02Z  
1713.5830   62015   43.7357  -70.0054  205.0    8.3    15.094     29.033     1010.4        362.747436    354.425456    413.348850    403.865927    22.200000     2011-06-16T17:13:34.98Z  
1713.9171   62035   43.7343  -70.0062  204.0    8.3    15.037     29.032     1010.4        361.510207    353.237863    413.167468    403.712991    22.200000     2011-06-16T17:13:55.03Z  
1714.2498   62055   43.7329  -70.0071  204.0    8.6    15.012     29.022     1010.4        360.232445    351.998832    413.283871    403.837612    22.200000     2011-06-16T17:14:14.99Z  
1714.5838   62075   43.7315  -70.0079  203.0    8.7    14.978     29.016     1010.4        359.491383    351.289065    413.430017    403.996932    22.200000     2011-06-16T17:14:35.03Z  
1714.9165   62095   43.7300  -70.0084  192.0    8.7    14.907     29.033     1010.4        358.927859    350.764857    413.251060    403.852522    22.200000     2011-06-16T17:14:54.99Z  
1715.2506   62115   43.7284  -70.0088  191.0    8.7    14.714     29.062     1010.4        358.906575    350.805110    413.390828    404.041394    22.200000     2011-06-16T17:15:15.04Z  
1715.5832   62135   43.7269  -70.0093  191.0    8.6    14.620     29.061     1010.4        359.106316    351.034158    413.156550    403.874627    22.200000     2011-06-16T17:15:34.99Z  
1715.9173   62155   43.7254  -70.0097  193.0    8.6    14.669     29.055     1010.5        359.102195    351.025133    413.514756    404.221077    22.200000     2011-06-16T17:15:55.04Z  
1716.2499   62175   43.7239  -70.0106  205.0    8.6    14.688     29.050     1010.5        358.627047    350.559701    nd            nd            22.200000     2011-06-16T17:16:14.99Z  
1716.5840   62195   43.7226  -70.0117  214.0    8.6    14.676     29.049     1010.5        358.140439    350.090920    414.455369    405.142134    22.200000     2011-06-16T17:16:35.04Z  
1716.9166   62215   43.7213  -70.0129  212.0    8.7    14.687     29.052     1010.4        357.754992    349.696303    414.211823    404.891119    22.200000     2011-06-16T17:16:55.00Z  
1717.2507   62235   43.7200  -70.0140  208.0    8.7    14.745     29.048     1010.5        357.290753    349.233101    nd            nd            22.200000     2011-06-16T17:17:15.04Z  
1717.5834   62255   43.7186  -70.0150  208.0    8.7    14.863     29.043     1010.5        357.003519    348.907719    nd            nd            22.200000     2011-06-16T17:17:35.00Z  
1717.9160   62275   43.7172  -70.0160  209.0    8.7    14.863     29.044     1010.5        356.950279    348.854752    413.081260    403.703851    22.200000     2011-06-16T17:17:54.96Z  
1718.2501   62295   43.7158  -70.0171  209.0    8.7    14.893     29.030     1010.5        356.960453    348.858882    414.015733    404.606968    22.200000     2011-06-16T17:18:15.01Z  
1718.5827   62315   43.7145  -70.0181  209.0    8.7    15.130     28.991     1010.5        357.319485    349.123080    414.247661    404.745311    22.200000     2011-06-16T17:18:34.96Z  
1718.9168   62335   43.7131  -70.0192  209.0    8.8    15.483     28.967     1010.5        357.447943    349.112045    414.253191    404.592481    22.200000     2011-06-16T17:18:55.01Z  
1719.2494   62355   43.7117  -70.0203  209.0    9.0    15.820     28.964     1010.5        357.274666    348.822827    414.477937    404.672778    22.200000     2011-06-16T17:19:14.96Z  
1719.5835   62375   43.7103  -70.0214  210.0    9.0    16.092     28.965     1010.5        356.965230    348.414612    414.947085    405.007496    22.200000     2011-06-16T17:19:35.01Z  
1719.9162   62395   43.7089  -70.0225  212.0    9.0    16.129     28.976     1010.5        356.882341    348.317470    415.076030    405.114470    22.200000     2011-06-16T17:19:54.97Z  
1720.2502   62415   43.7075  -70.0237  212.0    9.0    16.136     28.991     1010.5        357.280331    348.701669    415.052162    405.080680    22.200000     2011-06-16T17:20:15.01Z  
1720.5829   62435   43.7061  -70.0249  212.0    9.0    16.078     29.006     1010.4        358.008551    349.430445    nd            nd            22.200000     2011-06-16T17:20:34.97Z  
1720.9170   62455   43.7048  -70.0261  211.0    9.0    15.927     29.042     1010.5        358.867196    350.327289    413.926872    404.117840    22.200000     2011-06-16T17:20:55.02Z  
1721.2496   62475   43.7034  -70.0272  211.0    9.0    15.705     29.101     1010.4        359.530411    351.051217    413.959254    404.196309    22.200000     2011-06-16T17:21:14.98Z  
1721.5837   62495   43.7020  -70.0283  211.0    8.9    15.582     29.140     1010.4        360.003441    351.554360    413.829115    404.117315    22.200000     2011-06-16T17:21:35.02Z  
1721.9163   62515   43.7006  -70.0295  212.0    8.9    15.477     29.179     1010.4        360.572623    352.152408    414.122164    404.451350    22.200000     2011-06-16T17:21:54.98Z  
1722.2504   62535   43.6993  -70.0307  214.0    8.8    15.394     29.172     1010.4        361.496115    353.085037    414.328165    404.687738    22.200000     2011-06-16T17:22:15.02Z  
1722.5830   62555   43.6984  -70.0324  235.0    8.8    15.548     29.139     1010.5        362.531421    354.052906    414.339242    404.649048    22.200000     2011-06-16T17:22:34.98Z  
1722.9171   62575   43.6976  -70.0343  240.0    8.9    15.704     29.133     1010.5        363.360586    354.802380    414.357182    404.604524    22.200000     2011-06-16T17:22:55.03Z  
1723.2498   62595   43.6968  -70.0362  240.0    8.9    15.808     29.167     1010.5        364.162130    355.545276    413.978057    404.190898    22.200000     2011-06-16T17:23:14.99Z  
1723.5838   62615   43.6960  -70.0381  239.0    8.9    15.919     29.201     1010.5        364.563424    355.897604    nd            nd            22.200000     2011-06-16T17:23:35.03Z  
1723.9165   62635   43.6951  -70.0400  239.0    9.0    15.923     29.224     1010.5        365.386048    356.700797    nd            nd            22.200000     2011-06-16T17:23:54.99Z  
1724.2506   62655   43.6943  -70.0420  241.0    9.0    15.826     29.240     1010.5        366.770928    358.093762    nd            nd            22.200000     2011-06-16T17:24:15.04Z  
1724.5832   62675   43.6939  -70.0441  260.0    8.9    15.615     29.254     1010.5        368.714006    360.075337    nd            nd            22.200000     2011-06-16T17:24:34.99Z  
1724.9173   62695   43.6940  -70.0463  274.0    9.0    15.447     29.263     1010.5        370.649165    362.032966    418.827268    409.110739    22.200000     2011-06-16T17:24:55.04Z  
1725.2499   62715   43.6943  -70.0485  281.0    9.0    15.376     29.275     1010.5        371.987950    363.363635    419.042655    409.326695    22.200000     2011-06-16T17:25:14.99Z  
1725.5840   62735   43.6948  -70.0506  287.0    8.9    15.360     29.291     1010.5        372.723173    364.095983    419.250380    409.546181    22.200000     2011-06-16T17:25:35.04Z  
1725.9166   62755   43.6955  -70.0526  300.0    9.0    15.305     29.307     1010.5        373.005728    364.378933    419.135447    409.441709    22.200000     2011-06-16T17:25:55.00Z  
1726.2493   62775   43.6966  -70.0542  315.0    8.7    15.109     29.315     1010.5        373.245399    364.688993    419.224372    409.613851    22.200000     2011-06-16T17:26:14.96Z  
1726.5834   62795   43.6979  -70.0553  329.0    8.9    14.935     29.319     1010.4        373.720237    365.207630    419.221335    409.669890    22.200000     2011-06-16T17:26:35.00Z  
1726.9160   62815   43.6993  -70.0565  328.0    8.9    14.894     29.313     1010.5        373.783384    365.297803    419.240844    409.723224    22.200000     2011-06-16T17:26:54.96Z  
1727.2501   62835   43.7007  -70.0576  332.0    9.0    15.001     29.294     1010.4        373.529102    364.989802    419.246230    409.661712    22.200000     2011-06-16T17:27:15.01Z  
1727.5827   62855   43.7023  -70.0582  345.0    9.0    15.148     29.259     1010.4        373.087819    364.501592    419.043409    409.399485    22.200000     2011-06-16T17:27:34.96Z  
1727.9168   62875   43.7038  -70.0587  345.0    8.6    15.204     29.188     1010.4        372.687739    364.097308    419.169201    409.506536    22.200000     2011-06-16T17:27:55.01Z  
1728.2494   62895   43.7051  -70.0592  346.0    7.6    15.140     29.128     1010.4        372.462056    363.902575    nd            nd            22.200000     2011-06-16T17:28:14.96Z  
1728.5835   62915   43.7063  -70.0596  345.0    6.7    14.972     29.135     1010.5        372.420325    363.938672    nd            nd            22.200000     2011-06-16T17:28:35.01Z  
1728.9162   62935   43.7073  -70.0600  345.0    5.3    14.451     29.422     1010.5        371.988858    363.705262    nd            nd            22.200000     2011-06-16T17:28:54.97Z  
1729.2502   62955   43.7082  -70.0603  346.0    5.1    13.897     29.572     1010.4        370.843284    362.779749    nd            nd            22.200000     2011-06-16T17:29:15.01Z  
1729.5829   62975   43.7090  -70.0606  345.0    5.0    13.692     29.495     1010.4        369.363871    361.402178    nd            nd            22.200000     2011-06-16T17:29:34.97Z  
1729.9170   62995   43.7099  -70.0609  345.0    5.0    13.656     29.438     1010.4        369.033597    361.088038    nd            nd            22.200000     2011-06-16T17:29:55.02Z  
1730.2496   63015   43.7108  -70.0613  345.0    5.0    13.745     29.399     1010.4        369.574366    361.583970    nd            nd            22.200000     2011-06-16T17:30:14.98Z  
1730.5837   63035   43.7117  -70.0616  346.0    5.1    13.882     29.351     1010.4        369.506149    361.469030    nd            nd            22.200000     2011-06-16T17:30:35.02Z  
1730.9163   63055   43.7125  -70.0618  350.0    4.9    14.009     29.325     1010.4        368.829883    360.762723    nd            nd            22.200000     2011-06-16T17:30:54.98Z  
1731.2504   63075   43.7132  -70.0620  346.0    3.7    14.123     29.311     1010.4        368.158668    360.072664    nd            nd            22.200000     2011-06-16T17:31:15.02Z  
1731.5830   63095   43.7135  -70.0621  311.0    1.2    14.151     29.309     1010.5        367.626428    359.553972    nd            nd            22.200000     2011-06-16T17:31:34.98Z  
1731.9171   63115   43.7135  -70.0621  112.0    0.4    14.182     29.297     1010.5        367.354014    359.279889    nd            nd            22.200000     2011-06-16T17:31:55.03Z  
1732.2498   63135   43.7134  -70.0620  122.0    0.3    14.220     29.296     1010.5        367.069403    358.982475    nd            nd            22.200000     2011-06-16T17:32:14.99Z  
1732.5838   63155   43.7134  -70.0619  135.0    0.2    14.102     29.316     1010.5        366.857402    358.814498    nd            nd            22.200000     2011-06-16T17:32:35.03Z  
1732.9165   63175   43.7134  -70.0619  162.0    0.1    14.064     29.309     1010.4        366.589964    358.558185    nd            nd            22.200000     2011-06-16T17:32:54.99Z  
1733.2506   63195   43.7134  -70.0619  194.0    0.1    14.079     29.306     1010.4        366.547876    358.504824    nd            nd            22.200000     2011-06-16T17:33:15.04Z  
1733.5832   63215   43.7134  -70.0619  208.0    0.1    14.096     29.304     1010.4        366.413004    358.356876    nd            nd            22.200000     2011-06-16T17:33:34.99Z  
1733.9173   63235   43.7134  -70.0620  215.0    0.1    14.097     29.306     1010.4        366.115152    358.061241    nd            nd            22.200000     2011-06-16T17:33:55.04Z  
1734.2499   63255   43.7134  -70.0620  222.0    0.1    14.102     29.306     1010.4        365.888870    357.836863    nd            nd            22.200000     2011-06-16T17:34:14.99Z  
1734.5840   63275   43.7133  -70.0620  233.0    0.1    14.101     29.307     1010.4        365.570870    357.525023    nd            nd            22.200000     2011-06-16T17:34:35.04Z  
1734.9166   63295   43.7133  -70.0620  242.0    0.1    14.121     29.306     1010.4        365.502158    357.449662    nd            nd            22.200000     2011-06-16T17:34:55.00Z  
1735.2493   63315   43.7133  -70.0620  246.0    0.1    14.127     29.308     1010.4        365.515042    357.455346    nd            nd            22.200000     2011-06-16T17:35:14.96Z  
1735.5834   63335   43.7133  -70.0621  246.0    0.1    14.124     29.308     1010.3        365.869523    357.799001    nd            nd            22.200000     2011-06-16T17:35:35.00Z  
1735.9160   63355   43.7133  -70.0621  251.0    0.1    14.133     29.306     1010.3        366.210741    358.124627    nd            nd            22.200000     2011-06-16T17:35:54.96Z  
1736.2501   63375   43.7133  -70.0621  251.0    0.1    14.130     29.306     1010.3        366.753600    358.654759    nd            nd            22.200000     2011-06-16T17:36:15.01Z  
1736.5827   63395   43.7133  -70.0621  257.0    0.1    14.117     29.308     1010.3        367.570393    359.457508    nd            nd            22.200000     2011-06-16T17:36:34.96Z  
1736.9168   63415   43.7133  -70.0622  253.0    0.1    14.107     29.308     1010.3        368.509181    360.377036    nd            nd            22.200000     2011-06-16T17:36:55.01Z  
1737.2494   63435   43.7133  -70.0622  252.0    0.1    14.101     29.307     1010.3        368.957800    360.820252    nd            nd            22.200000     2011-06-16T17:37:14.96Z  
1737.5835   63455   43.7133  -70.0622  251.0    0.1    14.109     29.306     1010.3        368.931559    360.792871    nd            nd            22.200000     2011-06-16T17:37:35.01Z  
1737.9162   63475   43.7133  -70.0622  117.0    0.2    14.126     29.304     1010.4        368.603565    360.476025    nd            nd            22.200000     2011-06-16T17:37:54.97Z  
1738.2502   63495   43.7133  -70.0622  101.0    0.2    14.138     29.303     1010.4        368.216251    360.098463    nd            nd            22.200000     2011-06-16T17:38:15.01Z  
1738.5829   63515   43.7133  -70.0621  156.0    0.1    14.133     29.306     1010.4        368.027420    359.915129    nd            nd            22.200000     2011-06-16T17:38:34.97Z  
1738.9170   63535   43.7133  -70.0621  211.0    0.1    14.106     29.313     1010.4        368.277711    360.163395    nd            nd            22.200000     2011-06-16T17:38:55.02Z  
1739.2496   63555   43.7132  -70.0622  228.0    0.2    14.073     29.318     1010.3        368.599207    360.474570    nd            nd            22.200000     2011-06-16T17:39:14.98Z  
1739.5837   63575   43.7132  -70.0622  192.0    0.1    14.071     29.316     1010.3        368.903232    360.763540    nd            nd            22.200000     2011-06-16T17:39:35.02Z  
1739.9163   63595   43.7132  -70.0621  81.0     0.2    14.098     29.313     1010.3        368.819194    360.690432    nd            nd            22.200000     2011-06-16T17:39:54.98Z  
1740.2504   63615   43.7132  -70.0621  113.0    0.1    14.078     29.319     1010.3        368.451492    360.337972    nd            nd            22.200000     2011-06-16T17:40:15.02Z  
1740.5830   63635   43.7132  -70.0621  177.0    0.1    14.024     29.326     1010.3        367.930439    359.840153    nd            nd            22.200000     2011-06-16T17:40:34.98Z  
1740.9171   63655   43.7132  -70.0621  214.0    0.1    14.011     29.324     1010.3        367.418892    359.340184    nd            nd            22.200000     2011-06-16T17:40:55.03Z  
1741.2498   63675   43.7132  -70.0621  238.0    0.2    14.032     29.319     1010.3        367.218107    359.127934    nd            nd            22.200000     2011-06-16T17:41:14.99Z  
1741.5838   63695   43.7132  -70.0621  119.0    0.1    14.058     29.317     1010.3        367.427062    359.328093    nd            nd            22.200000     2011-06-16T17:41:35.03Z  
1741.9165   63715   43.7132  -70.0621  121.0    0.1    14.070     29.318     1010.3        367.462551    359.361084    nd            nd            22.200000     2011-06-16T17:41:54.99Z  
1742.2506   63735   43.7131  -70.0621  186.0    0.1    14.061     29.320     1010.3        367.400610    359.300795    nd            nd            22.200000     2011-06-16T17:42:15.04Z  
1742.5832   63755   43.7131  -70.0621  218.0    0.1    14.058     29.322     1010.3        367.206883    359.100101    nd            nd            22.200000     2011-06-16T17:42:34.99Z  
1742.9173   63775   43.7131  -70.0621  234.0    0.2    14.053     29.322     1010.2        366.959717    358.850167    nd            nd            22.200000     2011-06-16T17:42:55.04Z  
1743.2499   63795   43.7131  -70.0622  232.0    0.2    14.065     29.320     1010.2        367.178737    359.047368    nd            nd            22.200000     2011-06-16T17:43:14.99Z  
1743.5840   63815   43.7131  -70.0622  236.0    0.2    14.056     29.323     1010.2        367.662015    359.514354    nd            nd            22.200000     2011-06-16T17:43:35.04Z  
1743.9166   63835   43.7131  -70.0622  248.0    0.2    14.009     29.331     1010.2        368.053672    359.911639    nd            nd            22.200000     2011-06-16T17:43:55.00Z  
1744.2493   63855   43.7131  -70.0623  249.0    0.2    13.953     29.337     1010.2        368.094502    359.967480    nd            nd            22.200000     2011-06-16T17:44:14.96Z  
1744.5834   63875   43.7130  -70.0623  249.0    0.2    13.958     29.331     1010.2        367.754519    359.633174    nd            nd            22.200000     2011-06-16T17:44:35.00Z  
1744.9160   63895   43.7130  -70.0624  221.0    0.5    14.003     29.325     1010.1        367.456667    359.322119    nd            nd            22.200000     2011-06-16T17:44:54.96Z  
1745.2501   63915   43.7129  -70.0625  205.0    0.6    14.033     29.324     1010.1        367.235149    359.095269    nd            nd            22.200000     2011-06-16T17:45:15.01Z  
1745.5827   63935   43.7128  -70.0625  207.0    0.5    14.044     29.323     1010.2        367.366566    359.221269    nd            nd            22.200000     2011-06-16T17:45:34.96Z  
1745.9168   63955   43.7127  -70.0626  212.0    0.4    14.056     29.323     1010.1        368.584794    360.406487    nd            nd            22.200000     2011-06-16T17:45:55.01Z  
1746.2494   63975   43.7127  -70.0626  217.0    0.4    14.011     29.332     1010.2        369.767736    361.582694    nd            nd            22.200000     2011-06-16T17:46:14.96Z  
1746.5835   63995   43.7126  -70.0627  221.0    0.4    13.958     29.334     1010.2        370.545108    362.363112    nd            nd            22.200000     2011-06-16T17:46:35.01Z  
1746.9162   64015   43.7126  -70.0627  230.0    0.3    13.989     29.327     1010.2        370.754744    362.556821    nd            nd            22.200000     2011-06-16T17:46:54.97Z  
1747.2502   64035   43.7125  -70.0628  237.0    0.3    14.037     29.321     1010.2        370.421402    362.211860    nd            nd            22.200000     2011-06-16T17:47:15.01Z  
1747.5829   64055   43.7125  -70.0629  238.0    0.3    14.061     29.322     1010.2        369.874115    361.667319    nd            nd            22.200000     2011-06-16T17:47:34.97Z  
1747.9170   64075   43.7125  -70.0629  237.0    0.3    14.054     29.326     1010.1        369.245251    361.052487    nd            nd            22.200000     2011-06-16T17:47:55.02Z  
1748.2496   64095   43.7125  -70.0630  234.0    0.2    13.997     29.336     1010.1        368.707759    360.547373    nd            nd            22.200000     2011-06-16T17:48:14.98Z  
1748.5837   64115   43.7124  -70.0630  231.0    0.2    13.951     29.338     1010.2        368.743279    360.602665    nd            nd            22.200000     2011-06-16T17:48:35.02Z  
1748.9163   64135   43.7124  -70.0630  231.0    0.2    13.928     29.340     1010.2        369.241334    361.095275    nd            nd            22.200000     2011-06-16T17:48:54.98Z  
1749.2504   64155   43.7124  -70.0631  231.0    0.3    13.900     29.341     1010.2        369.455440    361.315739    nd            nd            22.200000     2011-06-16T17:49:15.02Z  
1749.5830   64175   43.7123  -70.0631  230.0    0.3    13.904     29.338     1010.1        369.213919    361.072856    nd            nd            22.200000     2011-06-16T17:49:34.98Z  
1749.9171   64195   43.7123  -70.0632  231.0    0.3    13.931     29.333     1010.1        368.947636    360.800605    nd            nd            22.200000     2011-06-16T17:49:55.03Z  
1750.2498   64215   43.7123  -70.0632  230.0    0.3    13.969     29.330     1010.1        368.426133    360.273213    nd            nd            22.200000     2011-06-16T17:50:14.99Z  
1750.5838   64235   43.7123  -70.0633  230.0    0.3    13.981     29.331     1010.1        368.170425    360.014978    nd            nd            22.200000     2011-06-16T17:50:35.03Z  
1750.9165   64255   43.7122  -70.0633  233.0    0.3    13.984     29.331     1010.1        368.514006    360.349167    nd            nd            22.200000     2011-06-16T17:50:54.99Z  
1751.2506   64275   43.7122  -70.0634  238.0    0.3    13.992     29.329     1010.1        368.876112    360.703237    nd            nd            22.200000     2011-06-16T17:51:15.04Z  
1751.5832   64295   43.7122  -70.0634  239.0    0.3    14.007     29.328     1010.1        368.949037    360.771248    nd            nd            22.200000     2011-06-16T17:51:34.99Z  
1751.9173   64315   43.7122  -70.0635  238.0    0.3    14.014     29.328     1010.1        368.924677    360.742583    nd            nd            22.200000     2011-06-16T17:51:55.04Z  
1752.2499   64335   43.7121  -70.0635  237.0    0.3    14.040     29.323     1010.1        368.670756    360.486142    nd            nd            22.200000     2011-06-16T17:52:14.99Z  
1752.5840   64355   43.7121  -70.0636  241.0    0.3    14.070     29.320     1010.1        368.377731    360.192430    nd            nd            22.200000     2011-06-16T17:52:35.04Z  
1752.9166   64375   43.7121  -70.0636  242.0    0.3    14.070     29.323     1010.1        368.020262    359.844519    nd            nd            22.200000     2011-06-16T17:52:55.00Z  
1753.2507   64395   43.7121  -70.0637  242.0    0.3    14.060     29.323     1010.1        367.791342    359.623357    nd            nd            22.200000     2011-06-16T17:53:15.04Z  
1753.5834   64415   43.7120  -70.0637  242.0    0.3    14.086     29.317     1010.1        367.788924    359.615009    nd            nd            22.200000     2011-06-16T17:53:35.00Z  
1753.9160   64435   43.7120  -70.0638  242.0    0.3    14.120     29.315     1010.1        367.823100    359.637417    nd            nd            22.200000     2011-06-16T17:53:54.96Z  
1754.2501   64455   43.7120  -70.0638  241.0    0.3    14.159     29.311     1010.2        368.221984    360.023099    nd            nd            22.200000     2011-06-16T17:54:15.01Z  
1754.5827   64475   43.7120  -70.0639  238.0    0.2    14.200     29.309     1010.2        368.624944    360.404794    nd            nd            22.200000     2011-06-16T17:54:34.96Z  
1754.9168   64495   43.7120  -70.0639  238.0    0.2    14.230     29.310     1010.2        369.524683    361.276912    nd            nd            22.200000     2011-06-16T17:54:55.01Z  
1755.2494   64515   43.7119  -70.0640  240.0    0.2    14.232     29.312     1010.2        370.213947    361.949176    nd            nd            22.200000     2011-06-16T17:55:14.96Z  
1755.5835   64535   43.7119  -70.0640  240.0    0.2    14.211     29.316     1010.2        371.127415    362.852774    nd            nd            22.200000     2011-06-16T17:55:35.01Z  
1755.9162   64555   43.7119  -70.0642  245.0    1.1    14.186     29.319     1010.2        371.529266    363.257897    nd            nd            22.200000     2011-06-16T17:55:54.97Z  
1756.2502   64575   43.7121  -70.0645  325.0    2.6    14.170     29.321     1010.2        372.200586    363.905881    nd            nd            22.200000     2011-06-16T17:56:15.01Z  
1756.5829   64595   43.7130  -70.0645  3.0      5.4    14.169     29.321     1010.1        373.016392    364.699277    nd            nd            22.200000     2011-06-16T17:56:34.97Z  
1756.9170   64615   43.7143  -70.0646  353.0    7.2    14.225     29.312     1010.1        373.244699    364.897843    nd            nd            22.200000     2011-06-16T17:56:55.02Z  
1757.2496   64635   43.7157  -70.0649  355.0    7.9    14.229     29.323     1010.1        373.445320    365.093750    nd            nd            22.200000     2011-06-16T17:57:14.98Z  
1757.5837   64655   43.7171  -70.0648  38.0     7.9    14.169     29.326     1010.1        373.385773    365.051337    nd            nd            22.200000     2011-06-16T17:57:35.02Z  
1757.9163   64675   43.7186  -70.0647  2.0      8.0    14.134     29.329     1010.1        373.352196    365.033046    nd            nd            22.200000     2011-06-16T17:57:54.98Z  
1758.2504   64695   43.7200  -70.0648  250.0    8.2    13.995     29.352     1010.1        373.030062    364.768827    433.627281    424.029422    22.200000     2011-06-16T17:58:15.02Z  
1758.5830   64715   43.7216  -70.0649  354.0    8.6    13.883     29.370     1010.1        372.554930    364.348691    nd            nd            22.200000     2011-06-16T17:58:34.98Z  
1758.9171   64735   43.7230  -70.0657  333.0    8.6    13.809     29.378     1010.2        371.985767    363.829084    nd            nd            22.200000     2011-06-16T17:58:55.03Z  
1759.2498   64755   43.7242  -70.0671  318.0    8.7    13.804     29.372     1010.2        371.402284    363.257375    nd            nd            22.200000     2011-06-16T17:59:14.99Z  
1759.5838   64775   43.7251  -70.0689  305.0    8.8    13.864     29.365     1010.2        370.255156    362.117287    nd            nd            22.200000     2011-06-16T17:59:35.03Z  
1759.9006   64794   43.7258  -70.0708  296.0    8.9    13.932     29.361     1010.2        368.587823    360.457704    nd            nd            22.133333     2011-06-16T17:59:54.04Z  
1800.2506   64815   43.7264  -70.0729  290.0    8.9    14.070     29.356     1010.2        366.611773    358.477616    nd            nd            21.800000     2011-06-16T18:00:15.04Z  
1800.5832   64835   43.7268  -70.0751  284.0    9.0    14.243     29.352     1010.2        364.599935    356.450239    417.521481    408.192978    21.800000     2011-06-16T18:00:34.99Z  
1800.9173   64855   43.7268  -70.0773  262.0    8.9    14.391     29.356     1010.1        363.030809    354.851451    417.147297    407.736645    21.800000     2011-06-16T18:00:55.04Z  
1801.2499   64875   43.7260  -70.0792  239.0    8.9    14.475     29.370     1010.1        362.158859    353.958147    417.103928    407.658956    21.800000     2011-06-16T18:01:14.99Z  
1801.5840   64895   43.7251  -70.0811  240.0    9.0    14.382     29.398     1010.1        362.074432    353.913984    416.971605    407.573786    21.800000     2011-06-16T18:01:35.04Z  
1801.9166   64915   43.7244  -70.0831  242.0    9.0    14.147     29.412     1010.1        363.028993    354.938079    416.903167    407.611427    21.800000     2011-06-16T18:01:55.00Z  
1802.2507   64935   43.7236  -70.0850  243.0    9.0    13.942     29.420     1010.1        364.960336    356.903193    416.841078    407.638484    21.800000     2011-06-16T18:02:15.04Z  
1802.5834   64955   43.7229  -70.0870  240.0    9.0    14.111     29.383     1010.1        367.600633    359.418532    416.736404    407.460632    21.800000     2011-06-16T18:02:35.00Z  
1802.9160   64975   43.7218  -70.0887  228.0    9.0    14.336     29.357     1010.1        370.180657    361.858710    416.780869    407.411273    21.800000     2011-06-16T18:02:54.96Z  
1803.2501   64995   43.7206  -70.0902  224.0    8.9    14.456     29.347     1010.1        371.881320    363.477624    416.737660    407.320254    21.800000     2011-06-16T18:03:15.01Z  
1803.5827   65015   43.7195  -70.0918  225.0    9.0    14.516     29.345     1010.1        372.532587    364.086141    416.530897    407.086810    21.800000     2011-06-16T18:03:34.96Z  
1803.9168   65035   43.7183  -70.0933  224.0    9.0    14.559     29.348     1010.1        372.530562    364.065164    416.590313    407.123630    21.800000     2011-06-16T18:03:55.01Z  
1804.2494   65055   43.7171  -70.0948  222.0    9.1    14.620     29.351     1010.1        372.159335    363.677357    416.221328    406.747263    21.800000     2011-06-16T18:04:14.96Z  
1804.5835   65075   43.7159  -70.0964  222.0    9.2    14.679     29.357     1010.1        371.726365    363.237313    416.307175    406.797875    21.800000     2011-06-16T18:04:35.01Z  
1804.9162   65095   43.7147  -70.0979  224.0    9.3    14.627     29.380     1010.1        371.440013    362.972399    416.242612    406.749430    21.800000     2011-06-16T18:04:54.97Z  
1805.2502   65115   43.7135  -70.0996  226.0    9.2    14.464     29.404     1010.1        371.805158    363.388362    416.658377    407.241682    21.800000     2011-06-16T18:05:15.01Z  
1805.5829   65135   43.7124  -70.1012  226.0    9.2    14.331     29.416     1010.1        372.565507    364.177506    416.431990    407.055223    21.800000     2011-06-16T18:05:34.97Z  
1805.9170   65155   43.7111  -70.1027  222.0    9.2    14.266     29.405     1010.0        373.705037    365.301955    416.531514    407.165376    21.800000     2011-06-16T18:05:55.02Z  
1806.2496   65175   43.7098  -70.1042  218.0    9.2    14.225     29.395     1010.0        375.162463    366.725755    416.554830    407.187213    21.800000     2011-06-16T18:06:14.98Z  
1806.5837   65195   43.7085  -70.1055  216.0    9.2    14.124     29.406     1010.0        376.491871    368.059464    416.380219    407.054348    21.800000     2011-06-16T18:06:35.02Z  
1806.9163   65215   43.7072  -70.1069  217.0    9.1    14.047     29.422     1010.0        376.939182    368.519300    416.310424    407.009624    21.800000     2011-06-16T18:06:54.98Z  
1807.2504   65235   43.7059  -70.1083  218.0    9.2    14.057     29.432     1010.0        376.253493    367.849102    416.227358    406.929914    21.800000     2011-06-16T18:07:15.02Z  
1807.5830   65255   43.7046  -70.1097  219.0    9.1    14.090     29.421     1010.0        375.144190    366.746153    416.013269    406.701312    21.800000     2011-06-16T18:07:34.98Z  
1807.9171   65275   43.7033  -70.1111  218.0    9.1    14.111     29.396     1010.0        374.698899    366.294384    nd            nd            21.800000     2011-06-16T18:07:55.03Z  
1808.2498   65295   43.7021  -70.1125  218.0    9.1    14.199     29.392     1009.9        374.800069    366.357198    415.327801    405.969742    21.800000     2011-06-16T18:08:14.99Z  
1808.5838   65315   43.7009  -70.1140  226.0    9.1    14.236     29.388     1009.9        374.489829    366.033437    415.311987    405.930360    21.800000     2011-06-16T18:08:35.03Z  
1808.9165   65335   43.6999  -70.1159  234.0    9.1    14.230     29.382     1009.9        373.492319    365.065820    nd            nd            21.800000     2011-06-16T18:08:54.99Z  
1809.2506   65355   43.6990  -70.1177  235.0    9.1    14.333     29.370     1009.9        371.991495    363.558673    417.660717    408.153820    21.800000     2011-06-16T18:09:15.04Z  
1809.5832   65375   43.6980  -70.1196  234.0    9.1    14.492     29.353     1009.9        370.427640    361.965356    417.771228    408.227300    21.800000     2011-06-16T18:09:34.99Z  
1809.9173   65395   43.6969  -70.1212  225.0    9.1    14.463     29.357     1009.9        369.103552    360.666660    417.906185    408.353544    21.800000     2011-06-16T18:09:55.04Z  
1810.2499   65415   43.6956  -70.1226  220.0    9.1    14.488     29.369     1009.9        368.314655    359.883197    417.713715    408.146198    21.800000     2011-06-16T18:10:14.99Z  
1810.5840   65435   43.6943  -70.1240  217.0    9.2    14.539     29.368     1009.9        367.754114    359.315811    417.613870    408.031434    21.800000     2011-06-16T18:10:35.04Z  
1810.9166   65455   43.6930  -70.1254  217.0    9.1    14.495     29.391     1009.8        367.303067    358.889809    417.406864    407.845874    21.800000     2011-06-16T18:10:55.00Z  
1811.2493   65475   43.6917  -70.1267  218.0    9.1    14.494     29.382     1009.8        367.289093    358.865812    417.438410    407.867038    21.800000     2011-06-16T18:11:14.96Z  
1811.5834   65495   43.6904  -70.1282  219.0    9.1    14.474     29.365     1009.8        367.573851    359.142897    417.295058    407.722037    21.800000     2011-06-16T18:11:35.00Z  
1811.9160   65515   43.6892  -70.1296  219.0    9.2    14.435     29.384     1009.8        368.116428    359.685846    417.506993    407.945194    21.800000     2011-06-16T18:11:54.96Z  
1812.2501   65535   43.6879  -70.1310  219.0    9.1    14.374     29.399     1009.8        368.416253    360.005320    417.520841    407.988773    21.800000     2011-06-16T18:12:15.01Z  
1812.5827   65555   43.6866  -70.1324  219.0    9.1    14.367     29.409     1009.8        368.455820    360.045429    417.817242    408.278679    21.800000     2011-06-16T18:12:34.96Z  
1812.9168   65575   43.6853  -70.1338  219.0    9.1    14.352     29.400     1009.8        368.205582    359.808603    417.572548    408.049674    21.800000     2011-06-16T18:12:55.01Z  
1813.2494   65595   43.6840  -70.1352  218.0    9.0    14.373     29.379     1009.8        367.808461    359.412500    417.574879    408.060437    21.800000     2011-06-16T18:13:14.96Z  
1813.5835   65615   43.6828  -70.1366  218.0    9.0    14.639     29.361     1009.8        367.642458    359.153129    nd            nd            21.800000     2011-06-16T18:13:35.01Z  
1813.9162   65635   43.6815  -70.1380  218.0    9.0    14.733     29.361     1009.8        367.546485    359.031370    nd            nd            21.800000     2011-06-16T18:13:54.97Z  
1814.2502   65655   43.6802  -70.1393  218.0    9.0    14.909     29.328     1009.8        367.710818    359.122231    nd            nd            21.800000     2011-06-16T18:14:15.01Z  
1814.5829   65675   43.6789  -70.1407  217.0    9.1    14.945     29.323     1009.8        368.467984    359.846005    nd            nd            21.800000     2011-06-16T18:14:34.97Z  
1814.9170   65695   43.6776  -70.1420  217.0    9.0    14.948     29.312     1009.8        369.482799    360.835236    nd            nd            21.800000     2011-06-16T18:14:55.02Z  
1815.2496   65715   43.6763  -70.1434  218.0    9.0    14.950     29.309     1009.8        370.464086    361.790897    nd            nd            21.800000     2011-06-16T18:15:14.98Z  
1815.5837   65735   43.6750  -70.1448  219.0    8.9    14.851     29.312     1009.8        370.833977    362.182316    nd            nd            21.800000     2011-06-16T18:15:35.02Z  
1815.9163   65755   43.6738  -70.1462  218.0    8.9    14.813     29.324     1009.8        370.915402    362.270016    nd            nd            21.800000     2011-06-16T18:15:54.98Z  
1816.2504   65775   43.6725  -70.1474  216.0    8.9    15.083     29.319     1009.8        370.253444    361.521480    419.393866    409.474220    21.800000     2011-06-16T18:16:15.02Z  
1816.5830   65795   43.6712  -70.1488  218.0    8.9    15.199     29.306     1009.8        369.502107    360.746598    419.743442    409.795011    21.800000     2011-06-16T18:16:34.98Z  
1816.9171   65815   43.6699  -70.1501  217.0    8.9    15.217     29.288     1009.8        369.728702    360.962710    419.710592    409.759489    21.800000     2011-06-16T18:16:55.03Z  
1817.2498   65835   43.6687  -70.1515  221.0    8.9    15.172     29.280     1009.8        370.161264    361.405119    419.740181    409.806458    21.800000     2011-06-16T18:17:14.99Z  
1817.5838   65855   43.6678  -70.1534  239.0    8.9    15.045     29.285     1009.8        370.992416    362.275554    419.928100    410.072942    21.800000     2011-06-16T18:17:35.03Z  
1817.9165   65875   43.6671  -70.1554  244.0    9.0    14.958     29.280     1009.8        371.777262    363.078327    419.877462    410.049218    21.800000     2011-06-16T18:17:54.99Z  
1818.2506   65895   43.6665  -70.1574  246.0    9.0    14.917     29.260     1009.8        372.060965    363.372821    420.074314    410.266516    21.800000     2011-06-16T18:18:15.04Z  
1818.5832   65915   43.6658  -70.1594  247.0    8.9    14.871     29.235     1009.8        372.135957    363.464445    420.135803    410.345724    21.800000     2011-06-16T18:18:34.99Z  
1818.9173   65935   43.6653  -70.1615  251.0    8.8    14.825     29.235     1009.8        371.991215    363.339041    420.172330    410.399434    21.800000     2011-06-16T18:18:55.04Z  
1819.2499   65955   43.6649  -70.1636  258.0    8.8    14.761     29.262     1009.8        372.002545    363.374916    420.181852    410.436757    21.800000     2011-06-16T18:19:14.99Z  
1819.5840   65975   43.6652  -70.1657  285.0    8.8    14.434     29.335     1009.8        372.247189    363.737272    420.240494    410.555266    21.800000     2011-06-16T18:19:35.04Z  
1819.9166   65995   43.6661  -70.1675  305.0    8.6    14.140     29.412     1009.8        374.083876    365.637431    nd            nd            21.800000     2011-06-16T18:19:55.00Z  
1820.2493   66015   43.6671  -70.1691  313.0    8.5    14.008     29.416     1009.8        375.485729    367.051056    420.589208    411.138401    21.800000     2011-06-16T18:20:14.96Z  
1820.5834   66035   43.6682  -70.1706  316.0    8.6    14.125     29.195     1009.8        377.130752    368.610769    420.717823    411.213089    21.800000     2011-06-16T18:20:35.00Z  
1820.9160   66055   43.6694  -70.1719  321.0    8.4    14.306     28.868     1009.8        378.260927    369.644541    420.577877    410.997521    21.800000     2011-06-16T18:20:54.96Z  
1821.2501   66075   43.6707  -70.1730  332.0    8.7    14.380     28.773     1009.8        379.748456    371.061668    420.633982    411.017585    21.800000     2011-06-16T18:21:15.01Z  
1821.5827   66095   43.6721  -70.1739  332.0    8.7    14.384     28.771     1009.8        380.806930    372.094792    420.249127    410.629159    21.800000     2011-06-16T18:21:34.96Z  
1821.9168   66115   43.6735  -70.1750  330.0    8.5    14.391     28.749     1009.8        381.798226    373.065354    420.059353    410.448808    21.800000     2011-06-16T18:21:55.01Z  
1822.2494   66135   43.6748  -70.1760  334.0    8.6    14.391     28.714     1009.7        382.715022    373.948098    420.119059    410.495255    21.800000     2011-06-16T18:22:14.96Z  
1822.5835   66155   43.6763  -70.1766  344.0    8.6    14.327     28.739     1009.7        383.664214    374.888439    419.881427    410.277175    21.800000     2011-06-16T18:22:35.01Z  
1822.9162   66175   43.6779  -70.1770  349.0    8.7    14.319     28.704     1009.7        385.030071    376.218457    419.737962    410.131998    21.800000     2011-06-16T18:22:54.97Z  
1823.2502   66195   43.6794  -70.1774  352.0    8.5    14.357     28.643     1009.7        386.390613    377.537922    419.727105    410.110136    21.800000     2011-06-16T18:23:15.01Z  
1823.5829   66215   43.6806  -70.1776  350.0    6.3    14.437     28.562     1009.8        387.062985    378.183173    nd            nd            21.800000     2011-06-16T18:23:34.97Z  
1823.9170   66235   43.6814  -70.1779  343.0    4.9    14.585     28.472     1009.8        387.695315    378.750347    nd            nd            21.800000     2011-06-16T18:23:55.02Z  
1824.2496   66255   43.6818  -70.1784  305.0    2.8    14.721     28.518     1009.8        388.035085    379.047718    nd            nd            21.800000     2011-06-16T18:24:14.98Z  
1824.5837   66275   43.6818  -70.1786  290.0    0.5    14.741     28.689     1009.8        388.901445    379.861764    nd            nd            21.800000     2011-06-16T18:24:35.02Z  
1824.9163   66295   43.6818  -70.1786  276.0    0.2    14.599     28.861     1009.7        390.150892    381.117303    nd            nd            21.800000     2011-06-16T18:24:54.98Z  
1825.2504   66315   43.6818  -70.1787  266.0    0.2    14.506     28.916     1009.7        391.227892    382.213290    nd            nd            21.800000     2011-06-16T18:25:15.02Z  
1825.5830   66335   43.6818  -70.1787  260.0    0.3    14.327     29.020     1009.7        391.906367    382.939886    nd            nd            21.800000     2011-06-16T18:25:34.98Z  
1825.9171   66355   43.6818  -70.1788  259.0    0.3    14.192     29.033     1009.7        392.077135    383.162250    nd            nd            21.800000     2011-06-16T18:25:55.03Z  
1826.2498   66375   43.6818  -70.1789  258.0    0.3    14.154     29.020     1009.7        391.135536    382.257680    nd            nd            21.800000     2011-06-16T18:26:14.99Z  
1826.5838   66395   43.6818  -70.1789  261.0    0.3    14.140     29.012     1009.7        389.670379    380.831876    nd            nd            21.800000     2011-06-16T18:26:35.03Z  
1826.9165   66415   43.6818  -70.1790  264.0    0.3    14.156     28.996     1009.7        388.095014    379.284325    nd            nd            21.800000     2011-06-16T18:26:54.99Z  
1827.2506   66435   43.6818  -70.1791  263.0    0.3    14.165     28.999     1009.7        386.793685    378.016850    nd            nd            21.800000     2011-06-16T18:27:15.04Z  
1827.5832   66455   43.6818  -70.1791  264.0    0.3    14.161     29.005     1009.8        386.356610    377.596248    nd            nd            21.800000     2011-06-16T18:27:34.99Z  
1827.9173   66475   43.6818  -70.1792  259.0    0.3    14.154     29.012     1009.7        386.738739    377.970292    nd            nd            21.800000     2011-06-16T18:27:55.04Z  
1828.2499   66495   43.6818  -70.1793  257.0    0.3    14.140     29.016     1009.7        387.145862    378.372386    nd            nd            21.800000     2011-06-16T18:28:14.99Z  
1828.5840   66515   43.6817  -70.1793  256.0    0.3    14.132     29.025     1009.7        387.774501    378.987902    nd            nd            21.800000     2011-06-16T18:28:35.04Z  
1828.9166   66535   43.6817  -70.1794  253.0    0.3    14.112     29.038     1009.7        388.275480    379.489276    nd            nd            21.800000     2011-06-16T18:28:55.00Z  
1829.2493   66555   43.6817  -70.1795  247.0    0.3    14.096     29.044     1009.8        388.532187    379.751425    nd            nd            21.800000     2011-06-16T18:29:14.96Z  
1829.5834   66575   43.6817  -70.1795  244.0    0.3    14.092     29.045     1009.8        388.253115    379.482056    nd            nd            21.800000     2011-06-16T18:29:35.00Z  
1829.9160   66595   43.6817  -70.1796  243.0    0.3    14.083     29.052     1009.8        387.852396    379.098018    nd            nd            21.800000     2011-06-16T18:29:54.96Z  
1830.2501   66615   43.6816  -70.1797  240.0    0.3    14.070     29.059     1009.8        387.168479    378.435043    nd            nd            21.800000     2011-06-16T18:30:15.01Z  
1830.5827   66635   43.6816  -70.1797  239.0    0.3    14.052     29.073     1009.8        386.653363    377.944615    nd            nd            21.800000     2011-06-16T18:30:34.96Z  
1830.9168   66655   43.6816  -70.1798  236.0    0.3    14.013     29.103     1009.8        386.174872    377.496684    nd            nd            21.800000     2011-06-16T18:30:55.01Z  
1831.2494   66675   43.6815  -70.1799  233.0    0.3    13.989     29.103     1009.8        385.059071    376.419786    nd            nd            21.800000     2011-06-16T18:31:14.96Z  
1831.5835   66695   43.6815  -70.1799  235.0    0.3    14.002     29.087     1009.8        383.908326    375.287894    nd            nd            21.800000     2011-06-16T18:31:35.01Z  
1831.9162   66715   43.6815  -70.1800  235.0    0.3    14.048     29.072     1009.8        382.539328    373.938012    nd            nd            21.800000     2011-06-16T18:31:54.97Z  
1832.2502   66735   43.6814  -70.1801  237.0    0.3    14.079     29.071     1009.8        381.455586    372.866985    nd            nd            21.800000     2011-06-16T18:32:15.01Z  
1832.5829   66755   43.6814  -70.1801  237.0    0.3    14.081     29.075     1009.8        380.625461    372.060156    nd            nd            21.800000     2011-06-16T18:32:34.97Z  
1832.9170   66775   43.6814  -70.1802  238.0    0.3    14.122     29.053     1009.9        380.107336    371.540397    nd            nd            21.800000     2011-06-16T18:32:55.02Z  
1833.2496   66795   43.6813  -70.1802  237.0    0.3    14.191     29.033     1009.9        379.961556    371.374416    nd            nd            21.800000     2011-06-16T18:33:14.98Z  
1833.5837   66815   43.6813  -70.1803  235.0    0.3    14.234     29.028     1009.9        380.599972    371.982679    nd            nd            21.800000     2011-06-16T18:33:35.02Z  
1833.9163   66835   43.6813  -70.1804  234.0    0.3    14.263     29.021     1009.9        382.011598    373.354001    nd            nd            21.800000     2011-06-16T18:33:54.98Z  
1834.2504   66855   43.6813  -70.1804  234.0    0.3    14.289     29.014     1009.9        383.343352    374.649227    nd            nd            21.800000     2011-06-16T18:34:15.02Z  
1834.5830   66875   43.6812  -70.1805  235.0    0.3    14.305     29.013     1009.9        384.615092    375.885086    nd            nd            21.800000     2011-06-16T18:34:34.98Z  
1834.9171   66895   43.6812  -70.1805  235.0    0.3    14.291     29.022     1009.9        385.384676    376.640289    nd            nd            21.800000     2011-06-16T18:34:55.03Z  
1835.2498   66915   43.6812  -70.1806  234.0    0.3    14.300     29.015     1009.9        385.578941    376.826289    nd            nd            21.800000     2011-06-16T18:35:14.99Z  
1835.5838   66935   43.6811  -70.1807  236.0    0.3    14.319     29.011     1009.9        385.386760    376.633864    nd            nd            21.800000     2011-06-16T18:35:35.03Z  
1835.9165   66955   43.6811  -70.1807  236.0    0.3    14.331     29.008     1009.9        385.194139    376.442818    nd            nd            21.800000     2011-06-16T18:35:54.99Z  
1836.2506   66975   43.6811  -70.1808  236.0    0.3    14.341     29.005     1009.9        384.996318    376.248725    nd            nd            21.800000     2011-06-16T18:36:15.04Z  
1836.5832   66995   43.6810  -70.1809  235.0    0.3    14.350     29.006     1009.9        384.992804    376.240483    nd            nd            21.800000     2011-06-16T18:36:34.99Z  
1836.9173   67015   43.6810  -70.1809  236.0    0.5    14.353     29.004     1009.9        385.129604    376.378558    nd            nd            21.800000     2011-06-16T18:36:55.04Z  
1837.2499   67035   43.6809  -70.1812  252.0    1.1    14.358     29.004     1009.9        385.232385    376.495006    nd            nd            21.800000     2011-06-16T18:37:14.99Z  
1837.5840   67055   43.6810  -70.1810  103.0    2.0    14.362     29.002     1009.8        385.293268    376.509924    nd            nd            21.800000     2011-06-16T18:37:35.04Z  
1837.9166   67075   43.6814  -70.1800  66.0     4.6    14.366     29.002     1009.8        385.246421    376.460471    nd            nd            21.800000     2011-06-16T18:37:55.00Z  
1838.2507   67095   43.6816  -70.1791  72.0     3.2    14.379     29.002     1009.9        385.043706    376.281307    nd            nd            21.800000     2011-06-16T18:38:15.04Z  
1838.5834   67115   43.6816  -70.1789  89.0     0.6    14.397     29.005     1009.9        385.034104    376.273422    nd            nd            21.800000     2011-06-16T18:38:35.00Z  
1838.9160   67135   43.6816  -70.1789  104.0    0.1    14.407     29.018     1009.9        385.073013    376.318304    nd            nd            21.800000     2011-06-16T18:38:54.96Z  
1839.2501   67155   43.6816  -70.1789  199.0    0.1    14.384     29.046     1009.9        384.910251    376.172759    nd            nd            21.800000     2011-06-16T18:39:15.01Z  
1839.5827   67175   43.6816  -70.1789  217.0    0.2    14.353     29.056     1010.0        384.553787    375.837410    nd            nd            21.800000     2011-06-16T18:39:34.96Z  
1839.9168   67195   43.6815  -70.1790  216.0    0.3    14.333     29.063     1010.0        384.086259    375.392782    nd            nd            21.800000     2011-06-16T18:39:55.01Z  
1840.2494   67215   43.6815  -70.1790  217.0    0.4    14.327     29.065     1010.0        383.453769    374.784541    nd            nd            21.800000     2011-06-16T18:40:14.96Z  
1840.5835   67235   43.6814  -70.1791  218.0    0.4    14.328     29.059     1010.0        382.853492    374.199608    nd            nd            21.800000     2011-06-16T18:40:35.01Z  
1840.9162   67255   43.6814  -70.1791  222.0    0.4    14.340     29.053     1010.0        382.303562    373.659552    nd            nd            21.800000     2011-06-16T18:40:54.97Z  
1841.2502   67275   43.6813  -70.1792  223.0    0.5    14.361     29.048     1010.0        381.946168    373.310521    nd            nd            21.800000     2011-06-16T18:41:15.01Z  
1841.5829   67295   43.6812  -70.1793  221.0    0.5    14.385     29.045     1010.0        381.617030    372.983864    nd            nd            21.800000     2011-06-16T18:41:34.97Z  
1841.9170   67315   43.6812  -70.1794  218.0    0.5    14.396     29.040     1010.0        381.554054    372.923071    nd            nd            21.800000     2011-06-16T18:41:55.02Z  
1842.2496   67335   43.6811  -70.1795  215.0    0.5    14.398     29.038     1010.1        381.374253    372.754865    nd            nd            21.800000     2011-06-16T18:42:14.98Z  
1842.5837   67355   43.6810  -70.1795  214.0    0.5    14.397     29.037     1010.1        381.232803    372.623769    nd            nd            21.800000     2011-06-16T18:42:35.02Z  
1842.9163   67375   43.6809  -70.1796  213.0    0.5    14.399     29.035     1010.1        381.093440    372.490142    nd            nd            21.800000     2011-06-16T18:42:54.98Z  
1843.2504   67395   43.6808  -70.1797  213.0    0.5    14.399     29.033     1010.1        380.845970    372.253606    nd            nd            21.800000     2011-06-16T18:43:15.02Z  
1843.5830   67415   43.6808  -70.1798  214.0    0.5    14.390     29.031     1010.1        380.879332    372.284329    nd            nd            21.800000     2011-06-16T18:43:34.98Z  
1843.9171   67435   43.6807  -70.1798  216.0    0.5    14.366     29.022     1010.1        380.708715    372.120946    nd            nd            21.800000     2011-06-16T18:43:55.03Z  
1844.2498   67455   43.6806  -70.1799  216.0    0.5    14.348     29.017     1010.1        380.470186    371.890771    nd            nd            21.800000     2011-06-16T18:44:14.99Z  
1844.5838   67475   43.6805  -70.1800  217.0    0.5    14.350     29.018     1010.1        380.202503    371.627202    nd            nd            21.800000     2011-06-16T18:44:35.03Z  
1844.9165   67495   43.6805  -70.1800  225.0    0.3    14.364     29.027     1010.1        380.089400    371.509266    nd            nd            21.800000     2011-06-16T18:44:54.99Z  
1845.2506   67515   43.6805  -70.1801  218.0    0.3    14.378     29.033     1010.1        379.888881    371.311630    nd            nd            21.800000     2011-06-16T18:45:15.04Z  
1845.5832   67535   43.6804  -70.1801  220.0    0.3    14.390     29.036     1010.1        379.889305    371.304643    nd            nd            21.800000     2011-06-16T18:45:34.99Z  
1845.9173   67555   43.6804  -70.1802  220.0    0.4    14.394     29.038     1010.0        379.938824    371.337845    nd            nd            21.800000     2011-06-16T18:45:55.04Z  
1846.2499   67575   43.6803  -70.1802  219.0    0.4    14.375     29.043     1010.0        380.230393    371.621790    nd            nd            21.800000     2011-06-16T18:46:14.99Z  
1846.5840   67595   43.6802  -70.1803  216.0    0.4    14.317     29.051     1010.0        380.441763    371.845058    nd            nd            21.800000     2011-06-16T18:46:35.04Z  
1846.9166   67615   43.6802  -70.1803  214.0    0.4    14.297     29.042     1010.0        380.481738    371.886478    nd            nd            21.800000     2011-06-16T18:46:55.00Z  
1847.2507   67635   43.6801  -70.1804  214.0    0.5    14.317     29.016     1010.0        380.275151    371.672008    nd            nd            21.800000     2011-06-16T18:47:15.04Z  
1847.5834   67655   43.6800  -70.1805  217.0    0.5    14.347     28.996     1010.0        379.964954    371.354253    nd            nd            21.800000     2011-06-16T18:47:35.00Z  
1847.9160   67675   43.6800  -70.1805  220.0    0.5    14.368     28.988     1009.9        379.569109    370.957179    nd            nd            21.800000     2011-06-16T18:47:54.96Z  
1848.2501   67695   43.6799  -70.1806  221.0    0.5    14.387     28.986     1009.9        379.261587    370.650042    nd            nd            21.800000     2011-06-16T18:48:15.01Z  
1848.5827   67715   43.6798  -70.1807  221.0    0.5    14.403     28.983     1009.9        378.958573    370.347096    nd            nd            21.800000     2011-06-16T18:48:34.96Z  
1848.9168   67735   43.6798  -70.1808  221.0    0.5    14.418     28.980     1009.9        378.737676    370.122502    nd            nd            21.800000     2011-06-16T18:48:55.01Z  
1849.2494   67755   43.6799  -70.1810  321.0    2.1    14.420     28.980     1010.0        378.691842    370.087675    nd            nd            21.800000     2011-06-16T18:49:14.96Z  
1849.5835   67775   43.6797  -70.1821  250.0    5.3    14.412     28.981     1009.9        378.505286    369.900416    nd            nd            21.800000     2011-06-16T18:49:35.01Z  
1849.9162   67795   43.6791  -70.1836  239.0    6.7    14.404     28.983     1009.9        378.332083    369.735855    nd            nd            21.800000     2011-06-16T18:49:54.97Z  
1850.2502   67815   43.6785  -70.1850  243.0    6.5    14.388     28.988     1010.0        378.236524    369.661429    nd            nd            21.800000     2011-06-16T18:50:15.01Z  
1850.5829   67835   43.6780  -70.1864  240.0    6.4    14.348     29.020     1010.0        378.196742    369.646298    nd            nd            21.800000     2011-06-16T18:50:34.97Z  
1850.9170   67855   43.6774  -70.1877  236.0    6.0    14.290     29.039     1010.1        378.631153    370.110805    nd            nd            21.800000     2011-06-16T18:50:55.02Z  
1851.2496   67875   43.6768  -70.1887  230.0    5.2    14.364     28.980     1010.1        379.063718    370.513342    nd            nd            21.800000     2011-06-16T18:51:14.98Z  
1851.5837   67895   43.6762  -70.1896  227.0    5.2    14.486     28.835     1010.1        379.928281    371.322108    nd            nd            21.800000     2011-06-16T18:51:35.02Z  
1851.9163   67915   43.6755  -70.1905  224.0    5.1    14.568     28.642     1010.1        381.197065    372.539926    nd            nd            21.800000     2011-06-16T18:51:54.98Z  
1852.2504   67935   43.6748  -70.1914  219.0    5.2    14.722     28.412     1010.1        382.422862    373.686242    nd            nd            21.800000     2011-06-16T18:52:15.02Z  
1852.5830   67955   43.6740  -70.1921  216.0    5.1    14.930     28.299     1010.2        383.160594    374.333381    nd            nd            21.800000     2011-06-16T18:52:34.98Z  
1852.9171   67975   43.6733  -70.1929  218.0    5.0    14.979     28.308     1010.2        383.889521    375.034658    nd            nd            21.800000     2011-06-16T18:52:55.03Z  
1853.2498   67995   43.6727  -70.1937  224.0    4.7    14.994     28.323     1010.2        385.109063    376.219345    nd            nd            21.800000     2011-06-16T18:53:14.99Z  
1853.5838   68015   43.6721  -70.1945  228.0    4.7    15.005     28.333     1010.2        387.484666    378.532591    nd            nd            21.800000     2011-06-16T18:53:35.03Z  
1853.9165   68035   43.6716  -70.1955  235.0    4.6    14.994     28.343     1010.2        390.676455    381.657533    nd            nd            21.800000     2011-06-16T18:53:54.99Z  
1854.2506   68055   43.6712  -70.1965  240.0    4.7    15.020     28.340     1010.2        392.903894    383.818850    nd            nd            21.800000     2011-06-16T18:54:15.04Z  
1854.5832   68075   43.6708  -70.1975  240.0    4.6    15.011     28.407     1010.2        394.501885    385.388484    nd            nd            21.800000     2011-06-16T18:54:34.99Z  
1854.9173   68095   43.6703  -70.1984  233.0    4.7    14.905     28.474     1010.2        395.781650    386.682496    nd            nd            21.800000     2011-06-16T18:54:55.04Z  
1855.2499   68115   43.6697  -70.1993  228.0    4.7    14.891     28.438     1010.2        396.745314    387.634737    nd            nd            21.800000     2011-06-16T18:55:14.99Z  
1855.5840   68135   43.6692  -70.2001  228.0    4.7    14.931     28.365     1010.2        398.064025    388.904327    nd            nd            21.800000     2011-06-16T18:55:35.04Z  
1855.9166   68155   43.6686  -70.2010  229.0    4.6    14.953     28.340     1010.2        399.672362    390.465419    nd            nd            21.800000     2011-06-16T18:55:55.00Z  
1856.2493   68175   43.6680  -70.2018  225.0    4.6    15.053     28.253     1010.2        401.319320    392.025096    nd            nd            21.800000     2011-06-16T18:56:14.96Z  
1856.5834   68195   43.6674  -70.2025  215.0    4.6    15.338     28.134     1010.2        402.901624    393.449333    nd            nd            21.800000     2011-06-16T18:56:35.00Z  
1856.9160   68215   43.6666  -70.2031  207.0    4.6    15.446     28.174     1010.2        404.193454    394.668523    nd            nd            21.800000     2011-06-16T18:56:54.96Z  
1857.2501   68235   43.6659  -70.2036  206.0    4.7    15.272     28.284     1010.2        404.880533    395.414605    nd            nd            21.800000     2011-06-16T18:57:15.01Z  
1857.5827   68255   43.6651  -70.2040  203.0    4.7    15.199     28.266     1010.2        405.310751    395.866645    nd            nd            21.800000     2011-06-16T18:57:34.96Z  
1857.9168   68275   43.6644  -70.2045  202.0    4.5    15.255     28.207     1010.2        405.749275    396.270780    nd            nd            21.800000     2011-06-16T18:57:55.01Z  
1858.2494   68295   43.6637  -70.2049  211.0    4.1    15.281     28.212     1010.2        406.288248    396.793777    nd            nd            21.800000     2011-06-16T18:58:14.96Z  
1858.5835   68315   43.6632  -70.2057  232.0    3.9    15.267     28.227     1010.2        407.331308    397.825215    nd            nd            21.800000     2011-06-16T18:58:35.01Z  
1858.9162   68335   43.6628  -70.2064  217.0    4.2    15.258     28.249     1010.2        408.062366    398.542394    nd            nd            21.800000     2011-06-16T18:58:54.97Z  
1859.2502   68355   43.6620  -70.2062  169.0    4.6    15.213     28.279     1010.2        408.831075    399.304851    nd            nd            21.800000     2011-06-16T18:59:15.01Z  
1859.5829   68375   43.6611  -70.2059  163.0    4.8    15.129     28.312     1010.2        408.740204    399.247631    nd            nd            21.800000     2011-06-16T18:59:34.97Z  
1859.8838   68393   43.6604  -70.2055  161.0    4.7    15.046     28.318     1010.2        408.021136    398.573682    nd            nd            22.112500     2011-06-16T18:59:53.03Z  
nd          nd      nd       nd        nd       nd     nd         nd         nd            nd            nd            nd            nd            nd            nd                
nd          nd      nd       nd        nd       nd     nd         nd         nd            nd            nd            nd            nd            nd            nd                
nd          nd      nd       nd        nd       nd     nd         nd         nd            nd            nd            nd            nd            nd            nd                
nd          nd      nd       nd        nd       nd     nd         nd         nd            nd            nd            nd            nd            nd            nd                
nd          nd      nd       nd        nd       nd     nd         nd         nd            nd            nd            nd            nd            nd            nd                
nd          nd      nd       nd        nd       nd     nd         nd         nd            nd            nd            nd            nd            nd            nd                
nd          nd      nd       nd        nd       nd     nd         nd         nd            nd            nd            nd            nd            nd            nd                
nd          nd      nd       nd        nd       nd     nd         nd         nd            nd            nd            nd            nd            nd            nd                
nd          nd      nd       nd        nd       nd     nd         nd         nd            nd            nd            nd            nd            nd            nd                
nd          nd      nd       nd        nd       nd     nd         nd         nd            nd            nd            nd            nd            nd            nd                
nd          nd      nd       nd        nd       nd     nd         nd         nd            nd            nd            nd            nd            nd            nd                
nd          nd      nd       nd        nd       nd     nd         nd         nd            nd            nd            nd            nd            nd            nd                
nd          nd      nd       nd        nd       nd     nd         nd         nd            nd            nd            nd            nd            nd            nd                
nd          nd      nd       nd        nd       nd     nd         nd         nd            nd            nd            nd            nd            nd            nd                
nd          nd      nd       nd        nd       nd     nd         nd         nd            nd            nd            nd            nd            nd            nd                
nd          nd      nd       nd        nd       nd     nd         nd         nd            nd            nd            nd            nd            nd            nd                
nd          nd      nd       nd        nd       nd     nd         nd         nd            nd            nd            nd            nd            nd            nd                
nd          nd      nd       nd        nd       nd     nd         nd         nd            nd            nd            nd            nd            nd            nd                
nd          nd      nd       nd        nd       nd     nd         nd         nd            nd            nd            nd            nd            nd            nd                
nd          nd      nd       nd        nd       nd     nd         nd         nd            nd            nd            nd            nd            nd            nd                
nd          nd      nd       nd        nd       nd     nd         nd         nd            nd            nd            nd            nd            nd            nd                
nd          nd      nd       nd        nd       nd     nd         nd         nd            nd            nd            nd            nd            nd            nd                
nd          nd      nd       nd        nd       nd     nd         nd         nd            nd            nd            nd            nd            nd            nd                
nd          nd      nd       nd        nd       nd     nd         nd         nd            nd            nd            nd            nd            nd            nd                
nd          nd      nd       nd        nd       nd     nd         nd         nd            nd            nd            nd            nd            nd            nd                
nd          nd      nd       nd        nd       nd     nd         nd         nd            nd            nd            nd            nd            nd            nd                
nd          nd      nd       nd        nd       nd     nd         nd         nd            nd            nd            nd            nd            nd            nd                
nd          nd      nd       nd        nd       nd     nd         nd         nd            nd            nd            nd            nd            nd            nd                
nd          nd      nd       nd        nd       nd     nd         nd         nd            nd            nd            nd            nd            nd            nd                
nd          nd      nd       nd        nd       nd     nd         nd         nd            nd            nd            nd            nd            nd            nd                
nd          nd      nd       nd        nd       nd     nd         nd         nd            nd            nd            nd            nd            nd            nd                
nd          nd      nd       nd        nd       nd     nd         nd         nd            nd            nd            nd            nd            nd            nd                
nd          nd      nd       nd        nd       nd     nd         nd         nd            nd            nd            nd            nd            nd            nd                
nd          nd      nd       nd        nd       nd     nd         nd         nd            nd            nd            nd            nd            nd            nd                
nd          nd      nd       nd        nd       nd     nd         nd         nd            nd            nd            nd            nd            nd            nd                
nd          nd      nd       nd        nd       nd     nd         nd         nd            nd            nd            nd            nd            nd            nd                
nd          nd      nd       nd        nd       nd     nd         nd         nd            nd            nd            nd            nd            nd            nd                
nd          nd      nd       nd        nd       nd     nd         nd         nd            nd            nd            nd            nd            nd            nd                
nd          nd      nd       nd        nd       nd     nd         nd         nd            nd            nd            nd            nd            nd            nd                
nd          nd      nd       nd        nd       nd     nd         nd         nd            nd            nd            nd            nd            nd            nd                
nd          nd      nd       nd        nd       nd     nd         nd         nd            nd            nd            nd            nd            nd            nd                
nd          nd      nd       nd        nd       nd     nd         nd         nd            nd            nd            nd            nd            nd            nd                
nd          nd      nd       nd        nd       nd     nd         nd         nd            nd            nd            nd            nd            nd            nd                
nd          nd      nd       nd        nd       nd     nd         nd         nd            nd            nd            nd            nd            nd            nd                
nd          nd      nd       nd        nd       nd     nd         nd         nd            nd            nd            nd            nd            nd            nd                
nd          nd      nd       nd        nd       nd     nd         nd         nd            nd            nd            nd            nd            nd            nd                
nd          nd      nd       nd        nd       nd     nd         nd         nd            nd            nd            nd            nd            nd            nd                
nd          nd      nd       nd        nd       nd     nd         nd         nd            nd            nd            nd            nd            nd            nd                
nd          nd      nd       nd        nd       nd     nd         nd         nd            nd            nd            nd            nd            nd            nd                
nd          nd      nd       nd        nd       nd     nd         nd         nd            nd            nd            nd            nd            nd            nd                
nd          nd      nd       nd        nd       nd     nd         nd         nd            nd            nd            nd            nd            nd            nd                
nd          nd      nd       nd        nd       nd     nd         nd         nd            nd            nd            nd            nd            nd            nd                
nd          nd      nd       nd        nd       nd     nd         nd         nd            nd            nd            nd            nd            nd            nd                
nd          nd      nd       nd        nd       nd     nd         nd         nd            nd            nd            nd            nd            nd            nd                
nd          nd      nd       nd        nd       nd     nd         nd         nd            nd            nd            nd            nd            nd            nd                
nd          nd      nd       nd        nd       nd     nd         nd         nd            nd            nd            nd            nd            nd            nd                
nd          nd      nd       nd        nd       nd     nd         nd         nd            nd            nd            nd            nd            nd            nd                
nd          nd      nd       nd        nd       nd     nd         nd         nd            nd            nd            nd            nd            nd            nd                
1919.6493   69579   43.6296  -70.2064  139.0    0.6    13.592     28.954     1010.6        386.393547    378.162727    nd            nd            26.800000     2011-06-16T19:19:38.96Z  
1919.9171   69595   43.6295  -70.2063  140.0    0.6    13.579     28.952     1010.6        386.217415